<?xml version="1.0" encoding="UTF-8" standalone="no" ?>
<gpx xmlns="http://www.topografix.com/GPX/1/1" xmlns:xsi="http://www.w3.org/2001/XMLSchema-instance" xsi:schemaLocation="http://www.topografix.com/GPX/1/1 http://www.topografix.com/GPX/1/1/gpx.xsd" version="1.1" creator="VisuGPX - https://www.visugpx.com">
  <metadata>
    <name>2018-04-21 Bike ride-Georges de Reneins O v47k</name>
    <desc><![CDATA[2018-04-21 Bike ride-Georges de Reneins O v47k]]></desc>
  </metadata>
  <wpt lat="45.9245" lon="4.73737">
    <ele>174</ele>
    <name><![CDATA[2018-04-21 10:45 (Start)]]></name>
  </wpt>
  <wpt lat="45.92459" lon="4.7371">
    <ele>174</ele>
    <name><![CDATA[2018-04-21 10:45 (End)]]></name>
  </wpt>
  <trk>
    <name><![CDATA[2018-04-21 10:45]]></name>
    <trkseg>
      <trkpt lat="45.9245" lon="4.73737">
        <ele>174</ele>
        <time>2018-04-21T08:45:23.799Z</time>
      </trkpt>
      <trkpt lat="45.92453" lon="4.73728">
        <ele>174</ele>
        <time>2018-04-21T08:45:31.682Z</time>
      </trkpt>
      <trkpt lat="45.92455" lon="4.73729">
        <ele>174</ele>
        <time>2018-04-21T08:45:32.681Z</time>
      </trkpt>
      <trkpt lat="45.92455" lon="4.73718">
        <ele>174</ele>
        <time>2018-04-21T08:45:35Z</time>
      </trkpt>
      <trkpt lat="45.92455" lon="4.73715">
        <ele>174</ele>
        <time>2018-04-21T08:45:36Z</time>
      </trkpt>
      <trkpt lat="45.9246" lon="4.73706">
        <ele>174</ele>
        <time>2018-04-21T08:45:50Z</time>
      </trkpt>
      <trkpt lat="45.92461" lon="4.73704">
        <ele>174</ele>
        <time>2018-04-21T08:45:51Z</time>
      </trkpt>
      <trkpt lat="45.92466" lon="4.73696">
        <ele>174</ele>
        <time>2018-04-21T08:45:55Z</time>
      </trkpt>
      <trkpt lat="45.92466" lon="4.73693">
        <ele>174</ele>
        <time>2018-04-21T08:45:56Z</time>
      </trkpt>
      <trkpt lat="45.92467" lon="4.73682">
        <ele>174</ele>
        <time>2018-04-21T08:45:59Z</time>
      </trkpt>
      <trkpt lat="45.92467" lon="4.73679">
        <ele>174</ele>
        <time>2018-04-21T08:46:00Z</time>
      </trkpt>
      <trkpt lat="45.92468" lon="4.73671">
        <ele>174</ele>
        <time>2018-04-21T08:46:02Z</time>
      </trkpt>
      <trkpt lat="45.92471" lon="4.73659">
        <ele>174</ele>
        <time>2018-04-21T08:46:03Z</time>
      </trkpt>
      <trkpt lat="45.92473" lon="4.73649">
        <ele>174</ele>
        <time>2018-04-21T08:46:06Z</time>
      </trkpt>
      <trkpt lat="45.92474" lon="4.73646">
        <ele>174</ele>
        <time>2018-04-21T08:46:07Z</time>
      </trkpt>
      <trkpt lat="45.92476" lon="4.73644">
        <ele>174</ele>
        <time>2018-04-21T08:46:08Z</time>
      </trkpt>
      <trkpt lat="45.92483" lon="4.73639">
        <ele>174</ele>
        <time>2018-04-21T08:46:09Z</time>
      </trkpt>
      <trkpt lat="45.9249" lon="4.7364">
        <ele>174</ele>
        <time>2018-04-21T08:46:11Z</time>
      </trkpt>
      <trkpt lat="45.92496" lon="4.73639">
        <ele>174</ele>
        <time>2018-04-21T08:46:12Z</time>
      </trkpt>
      <trkpt lat="45.92504" lon="4.73639">
        <ele>174</ele>
        <time>2018-04-21T08:46:14Z</time>
      </trkpt>
      <trkpt lat="45.92509" lon="4.7364">
        <ele>174</ele>
        <time>2018-04-21T08:46:15Z</time>
      </trkpt>
      <trkpt lat="45.92517" lon="4.73642">
        <ele>174</ele>
        <time>2018-04-21T08:46:17Z</time>
      </trkpt>
      <trkpt lat="45.92522" lon="4.73641">
        <ele>173</ele>
        <time>2018-04-21T08:46:18Z</time>
      </trkpt>
      <trkpt lat="45.92527" lon="4.73641">
        <ele>173</ele>
        <time>2018-04-21T08:46:19Z</time>
      </trkpt>
      <trkpt lat="45.92531" lon="4.7364">
        <ele>173</ele>
        <time>2018-04-21T08:46:20Z</time>
      </trkpt>
      <trkpt lat="45.92538" lon="4.73638">
        <ele>173</ele>
        <time>2018-04-21T08:46:21Z</time>
      </trkpt>
      <trkpt lat="45.92544" lon="4.73637">
        <ele>173</ele>
        <time>2018-04-21T08:46:22Z</time>
      </trkpt>
      <trkpt lat="45.92552" lon="4.73634">
        <ele>173</ele>
        <time>2018-04-21T08:46:24Z</time>
      </trkpt>
      <trkpt lat="45.92556" lon="4.73632">
        <ele>173</ele>
        <time>2018-04-21T08:46:25Z</time>
      </trkpt>
      <trkpt lat="45.92561" lon="4.73631">
        <ele>173</ele>
        <time>2018-04-21T08:46:26Z</time>
      </trkpt>
      <trkpt lat="45.92565" lon="4.7363">
        <ele>173</ele>
        <time>2018-04-21T08:46:27Z</time>
      </trkpt>
      <trkpt lat="45.92573" lon="4.73631">
        <ele>173</ele>
        <time>2018-04-21T08:46:29Z</time>
      </trkpt>
      <trkpt lat="45.92575" lon="4.7363">
        <ele>173</ele>
        <time>2018-04-21T08:46:30Z</time>
      </trkpt>
      <trkpt lat="45.92582" lon="4.73626">
        <ele>173</ele>
        <time>2018-04-21T08:46:32Z</time>
      </trkpt>
      <trkpt lat="45.92588" lon="4.73624">
        <ele>172</ele>
        <time>2018-04-21T08:46:33Z</time>
      </trkpt>
      <trkpt lat="45.92596" lon="4.73626">
        <ele>173</ele>
        <time>2018-04-21T08:46:35Z</time>
      </trkpt>
      <trkpt lat="45.92601" lon="4.73627">
        <ele>173</ele>
        <time>2018-04-21T08:46:36Z</time>
      </trkpt>
      <trkpt lat="45.92607" lon="4.73627">
        <ele>173</ele>
        <time>2018-04-21T08:46:37Z</time>
      </trkpt>
      <trkpt lat="45.92612" lon="4.73627">
        <ele>173</ele>
        <time>2018-04-21T08:46:38Z</time>
      </trkpt>
      <trkpt lat="45.92617" lon="4.73634">
        <ele>173</ele>
        <time>2018-04-21T08:46:39Z</time>
      </trkpt>
      <trkpt lat="45.92622" lon="4.73637">
        <ele>173</ele>
        <time>2018-04-21T08:46:40Z</time>
      </trkpt>
      <trkpt lat="45.92624" lon="4.73642">
        <ele>173</ele>
        <time>2018-04-21T08:46:41Z</time>
      </trkpt>
      <trkpt lat="45.92627" lon="4.73649">
        <ele>173</ele>
        <time>2018-04-21T08:46:42Z</time>
      </trkpt>
      <trkpt lat="45.92633" lon="4.73656">
        <ele>173</ele>
        <time>2018-04-21T08:46:43Z</time>
      </trkpt>
      <trkpt lat="45.92632" lon="4.73664">
        <ele>173</ele>
        <time>2018-04-21T08:46:44Z</time>
      </trkpt>
      <trkpt lat="45.92636" lon="4.7367">
        <ele>173</ele>
        <time>2018-04-21T08:46:45Z</time>
      </trkpt>
      <trkpt lat="45.92638" lon="4.73675">
        <ele>173</ele>
        <time>2018-04-21T08:46:46Z</time>
      </trkpt>
      <trkpt lat="45.92642" lon="4.73682">
        <ele>173</ele>
        <time>2018-04-21T08:46:47Z</time>
      </trkpt>
      <trkpt lat="45.92649" lon="4.73687">
        <ele>173</ele>
        <time>2018-04-21T08:46:48Z</time>
      </trkpt>
      <trkpt lat="45.92652" lon="4.73693">
        <ele>173</ele>
        <time>2018-04-21T08:46:49Z</time>
      </trkpt>
      <trkpt lat="45.92657" lon="4.73698">
        <ele>173</ele>
        <time>2018-04-21T08:46:50Z</time>
      </trkpt>
      <trkpt lat="45.92663" lon="4.737">
        <ele>173</ele>
        <time>2018-04-21T08:46:51Z</time>
      </trkpt>
      <trkpt lat="45.92669" lon="4.73704">
        <ele>174</ele>
        <time>2018-04-21T08:46:52Z</time>
      </trkpt>
      <trkpt lat="45.92674" lon="4.73707">
        <ele>174</ele>
        <time>2018-04-21T08:46:53Z</time>
      </trkpt>
      <trkpt lat="45.92679" lon="4.73709">
        <ele>173</ele>
        <time>2018-04-21T08:46:54Z</time>
      </trkpt>
      <trkpt lat="45.92685" lon="4.73711">
        <ele>173</ele>
        <time>2018-04-21T08:46:55Z</time>
      </trkpt>
      <trkpt lat="45.92689" lon="4.73711">
        <ele>173</ele>
        <time>2018-04-21T08:46:56Z</time>
      </trkpt>
      <trkpt lat="45.92693" lon="4.73711">
        <ele>173</ele>
        <time>2018-04-21T08:46:57Z</time>
      </trkpt>
      <trkpt lat="45.92698" lon="4.73712">
        <ele>173</ele>
        <time>2018-04-21T08:46:58Z</time>
      </trkpt>
      <trkpt lat="45.92704" lon="4.73714">
        <ele>173</ele>
        <time>2018-04-21T08:46:59Z</time>
      </trkpt>
      <trkpt lat="45.92709" lon="4.73715">
        <ele>173</ele>
        <time>2018-04-21T08:47:00Z</time>
      </trkpt>
      <trkpt lat="45.92714" lon="4.73716">
        <ele>173</ele>
        <time>2018-04-21T08:47:01Z</time>
      </trkpt>
      <trkpt lat="45.92719" lon="4.73717">
        <ele>173</ele>
        <time>2018-04-21T08:47:02Z</time>
      </trkpt>
      <trkpt lat="45.92725" lon="4.73718">
        <ele>173</ele>
        <time>2018-04-21T08:47:03Z</time>
      </trkpt>
      <trkpt lat="45.92729" lon="4.73719">
        <ele>173</ele>
        <time>2018-04-21T08:47:04Z</time>
      </trkpt>
      <trkpt lat="45.92736" lon="4.73721">
        <ele>173</ele>
        <time>2018-04-21T08:47:05Z</time>
      </trkpt>
      <trkpt lat="45.9274" lon="4.73723">
        <ele>173</ele>
        <time>2018-04-21T08:47:06Z</time>
      </trkpt>
      <trkpt lat="45.92745" lon="4.73724">
        <ele>173</ele>
        <time>2018-04-21T08:47:07Z</time>
      </trkpt>
      <trkpt lat="45.9275" lon="4.73725">
        <ele>172</ele>
        <time>2018-04-21T08:47:08Z</time>
      </trkpt>
      <trkpt lat="45.92755" lon="4.73727">
        <ele>172</ele>
        <time>2018-04-21T08:47:09Z</time>
      </trkpt>
      <trkpt lat="45.92759" lon="4.73727">
        <ele>172</ele>
        <time>2018-04-21T08:47:10Z</time>
      </trkpt>
      <trkpt lat="45.92766" lon="4.7373">
        <ele>172</ele>
        <time>2018-04-21T08:47:11Z</time>
      </trkpt>
      <trkpt lat="45.92772" lon="4.73734">
        <ele>172</ele>
        <time>2018-04-21T08:47:12Z</time>
      </trkpt>
      <trkpt lat="45.92779" lon="4.73734">
        <ele>172</ele>
        <time>2018-04-21T08:47:14Z</time>
      </trkpt>
      <trkpt lat="45.92785" lon="4.73732">
        <ele>172</ele>
        <time>2018-04-21T08:47:15Z</time>
      </trkpt>
      <trkpt lat="45.92787" lon="4.73724">
        <ele>172</ele>
        <time>2018-04-21T08:47:16Z</time>
      </trkpt>
      <trkpt lat="45.92786" lon="4.73718">
        <ele>172</ele>
        <time>2018-04-21T08:47:17Z</time>
      </trkpt>
      <trkpt lat="45.92787" lon="4.73706">
        <ele>172</ele>
        <time>2018-04-21T08:47:19Z</time>
      </trkpt>
      <trkpt lat="45.92789" lon="4.73699">
        <ele>172</ele>
        <time>2018-04-21T08:47:20Z</time>
      </trkpt>
      <trkpt lat="45.92789" lon="4.73688">
        <ele>172</ele>
        <time>2018-04-21T08:47:22Z</time>
      </trkpt>
      <trkpt lat="45.9279" lon="4.7368">
        <ele>172</ele>
        <time>2018-04-21T08:47:23Z</time>
      </trkpt>
      <trkpt lat="45.92792" lon="4.73672">
        <ele>172</ele>
        <time>2018-04-21T08:47:24Z</time>
      </trkpt>
      <trkpt lat="45.92793" lon="4.73665">
        <ele>172</ele>
        <time>2018-04-21T08:47:25Z</time>
      </trkpt>
      <trkpt lat="45.92796" lon="4.73654">
        <ele>172</ele>
        <time>2018-04-21T08:47:27Z</time>
      </trkpt>
      <trkpt lat="45.92799" lon="4.73647">
        <ele>172</ele>
        <time>2018-04-21T08:47:28Z</time>
      </trkpt>
      <trkpt lat="45.92804" lon="4.73638">
        <ele>172</ele>
        <time>2018-04-21T08:47:31Z</time>
      </trkpt>
      <trkpt lat="45.92805" lon="4.73636">
        <ele>172</ele>
        <time>2018-04-21T08:47:32Z</time>
      </trkpt>
      <trkpt lat="45.92812" lon="4.73633">
        <ele>172</ele>
        <time>2018-04-21T08:47:36Z</time>
      </trkpt>
      <trkpt lat="45.92817" lon="4.73626">
        <ele>172</ele>
        <time>2018-04-21T08:47:37Z</time>
      </trkpt>
      <trkpt lat="45.92816" lon="4.73616">
        <ele>172</ele>
        <time>2018-04-21T08:47:39Z</time>
      </trkpt>
      <trkpt lat="45.92815" lon="4.73611">
        <ele>172</ele>
        <time>2018-04-21T08:47:40Z</time>
      </trkpt>
      <trkpt lat="45.92815" lon="4.73599">
        <ele>172</ele>
        <time>2018-04-21T08:47:42Z</time>
      </trkpt>
      <trkpt lat="45.92814" lon="4.73593">
        <ele>171</ele>
        <time>2018-04-21T08:47:43Z</time>
      </trkpt>
      <trkpt lat="45.92814" lon="4.73581">
        <ele>171</ele>
        <time>2018-04-21T08:47:45Z</time>
      </trkpt>
      <trkpt lat="45.92814" lon="4.73575">
        <ele>171</ele>
        <time>2018-04-21T08:47:46Z</time>
      </trkpt>
      <trkpt lat="45.92815" lon="4.73563">
        <ele>171</ele>
        <time>2018-04-21T08:47:48Z</time>
      </trkpt>
      <trkpt lat="45.92816" lon="4.73557">
        <ele>171</ele>
        <time>2018-04-21T08:47:49Z</time>
      </trkpt>
      <trkpt lat="45.92816" lon="4.73551">
        <ele>171</ele>
        <time>2018-04-21T08:47:50Z</time>
      </trkpt>
      <trkpt lat="45.92819" lon="4.73544">
        <ele>171</ele>
        <time>2018-04-21T08:47:51Z</time>
      </trkpt>
      <trkpt lat="45.92819" lon="4.73531">
        <ele>172</ele>
        <time>2018-04-21T08:47:53Z</time>
      </trkpt>
      <trkpt lat="45.92819" lon="4.73525">
        <ele>172</ele>
        <time>2018-04-21T08:47:54Z</time>
      </trkpt>
      <trkpt lat="45.9282" lon="4.73517">
        <ele>172</ele>
        <time>2018-04-21T08:47:55Z</time>
      </trkpt>
      <trkpt lat="45.92821" lon="4.7351">
        <ele>172</ele>
        <time>2018-04-21T08:47:56Z</time>
      </trkpt>
      <trkpt lat="45.92822" lon="4.73502">
        <ele>172</ele>
        <time>2018-04-21T08:47:57Z</time>
      </trkpt>
      <trkpt lat="45.92823" lon="4.73495">
        <ele>172</ele>
        <time>2018-04-21T08:47:58Z</time>
      </trkpt>
      <trkpt lat="45.92824" lon="4.73487">
        <ele>172</ele>
        <time>2018-04-21T08:47:59Z</time>
      </trkpt>
      <trkpt lat="45.92825" lon="4.7348">
        <ele>172</ele>
        <time>2018-04-21T08:48:00Z</time>
      </trkpt>
      <trkpt lat="45.92825" lon="4.73474">
        <ele>172</ele>
        <time>2018-04-21T08:48:01Z</time>
      </trkpt>
      <trkpt lat="45.92826" lon="4.73466">
        <ele>172</ele>
        <time>2018-04-21T08:48:02Z</time>
      </trkpt>
      <trkpt lat="45.92828" lon="4.73459">
        <ele>172</ele>
        <time>2018-04-21T08:48:03Z</time>
      </trkpt>
      <trkpt lat="45.92828" lon="4.73452">
        <ele>172</ele>
        <time>2018-04-21T08:48:04Z</time>
      </trkpt>
      <trkpt lat="45.9283" lon="4.73445">
        <ele>172</ele>
        <time>2018-04-21T08:48:05Z</time>
      </trkpt>
      <trkpt lat="45.9283" lon="4.73436">
        <ele>172</ele>
        <time>2018-04-21T08:48:06Z</time>
      </trkpt>
      <trkpt lat="45.92831" lon="4.73428">
        <ele>172</ele>
        <time>2018-04-21T08:48:07Z</time>
      </trkpt>
      <trkpt lat="45.92833" lon="4.73419">
        <ele>172</ele>
        <time>2018-04-21T08:48:08Z</time>
      </trkpt>
      <trkpt lat="45.92834" lon="4.73412">
        <ele>172</ele>
        <time>2018-04-21T08:48:09Z</time>
      </trkpt>
      <trkpt lat="45.92836" lon="4.73404">
        <ele>172</ele>
        <time>2018-04-21T08:48:10Z</time>
      </trkpt>
      <trkpt lat="45.92838" lon="4.73397">
        <ele>172</ele>
        <time>2018-04-21T08:48:11Z</time>
      </trkpt>
      <trkpt lat="45.9284" lon="4.73389">
        <ele>172</ele>
        <time>2018-04-21T08:48:12Z</time>
      </trkpt>
      <trkpt lat="45.9284" lon="4.73383">
        <ele>172</ele>
        <time>2018-04-21T08:48:13Z</time>
      </trkpt>
      <trkpt lat="45.92843" lon="4.73374">
        <ele>171</ele>
        <time>2018-04-21T08:48:14Z</time>
      </trkpt>
      <trkpt lat="45.92846" lon="4.73366">
        <ele>171</ele>
        <time>2018-04-21T08:48:15Z</time>
      </trkpt>
      <trkpt lat="45.92848" lon="4.73357">
        <ele>171</ele>
        <time>2018-04-21T08:48:16Z</time>
      </trkpt>
      <trkpt lat="45.92848" lon="4.73351">
        <ele>171</ele>
        <time>2018-04-21T08:48:17Z</time>
      </trkpt>
      <trkpt lat="45.92848" lon="4.73342">
        <ele>171</ele>
        <time>2018-04-21T08:48:18Z</time>
      </trkpt>
      <trkpt lat="45.92849" lon="4.73334">
        <ele>171</ele>
        <time>2018-04-21T08:48:19Z</time>
      </trkpt>
      <trkpt lat="45.92849" lon="4.73326">
        <ele>171</ele>
        <time>2018-04-21T08:48:20Z</time>
      </trkpt>
      <trkpt lat="45.92849" lon="4.73318">
        <ele>171</ele>
        <time>2018-04-21T08:48:21Z</time>
      </trkpt>
      <trkpt lat="45.92852" lon="4.73309">
        <ele>171</ele>
        <time>2018-04-21T08:48:22Z</time>
      </trkpt>
      <trkpt lat="45.92852" lon="4.73303">
        <ele>171</ele>
        <time>2018-04-21T08:48:23Z</time>
      </trkpt>
      <trkpt lat="45.92852" lon="4.73295">
        <ele>171</ele>
        <time>2018-04-21T08:48:24Z</time>
      </trkpt>
      <trkpt lat="45.92853" lon="4.73289">
        <ele>171</ele>
        <time>2018-04-21T08:48:25Z</time>
      </trkpt>
      <trkpt lat="45.92855" lon="4.73281">
        <ele>171</ele>
        <time>2018-04-21T08:48:26Z</time>
      </trkpt>
      <trkpt lat="45.92856" lon="4.73271">
        <ele>171</ele>
        <time>2018-04-21T08:48:27Z</time>
      </trkpt>
      <trkpt lat="45.92856" lon="4.73264">
        <ele>171</ele>
        <time>2018-04-21T08:48:28Z</time>
      </trkpt>
      <trkpt lat="45.92856" lon="4.73256">
        <ele>171</ele>
        <time>2018-04-21T08:48:29Z</time>
      </trkpt>
      <trkpt lat="45.92857" lon="4.73249">
        <ele>171</ele>
        <time>2018-04-21T08:48:30Z</time>
      </trkpt>
      <trkpt lat="45.92859" lon="4.7324">
        <ele>171</ele>
        <time>2018-04-21T08:48:31Z</time>
      </trkpt>
      <trkpt lat="45.9286" lon="4.7323">
        <ele>171</ele>
        <time>2018-04-21T08:48:32Z</time>
      </trkpt>
      <trkpt lat="45.92861" lon="4.73222">
        <ele>171</ele>
        <time>2018-04-21T08:48:33Z</time>
      </trkpt>
      <trkpt lat="45.92862" lon="4.73214">
        <ele>171</ele>
        <time>2018-04-21T08:48:34Z</time>
      </trkpt>
      <trkpt lat="45.92863" lon="4.73205">
        <ele>171</ele>
        <time>2018-04-21T08:48:35Z</time>
      </trkpt>
      <trkpt lat="45.92863" lon="4.73196">
        <ele>171</ele>
        <time>2018-04-21T08:48:36Z</time>
      </trkpt>
      <trkpt lat="45.92864" lon="4.73188">
        <ele>171</ele>
        <time>2018-04-21T08:48:37Z</time>
      </trkpt>
      <trkpt lat="45.92865" lon="4.73179">
        <ele>171</ele>
        <time>2018-04-21T08:48:38Z</time>
      </trkpt>
      <trkpt lat="45.92866" lon="4.7317">
        <ele>171</ele>
        <time>2018-04-21T08:48:39Z</time>
      </trkpt>
      <trkpt lat="45.92867" lon="4.73161">
        <ele>171</ele>
        <time>2018-04-21T08:48:40Z</time>
      </trkpt>
      <trkpt lat="45.92868" lon="4.73153">
        <ele>171</ele>
        <time>2018-04-21T08:48:41Z</time>
      </trkpt>
      <trkpt lat="45.9287" lon="4.73145">
        <ele>171</ele>
        <time>2018-04-21T08:48:42Z</time>
      </trkpt>
      <trkpt lat="45.92872" lon="4.73137">
        <ele>171</ele>
        <time>2018-04-21T08:48:43Z</time>
      </trkpt>
      <trkpt lat="45.92874" lon="4.73128">
        <ele>171</ele>
        <time>2018-04-21T08:48:44Z</time>
      </trkpt>
      <trkpt lat="45.92876" lon="4.7312">
        <ele>172</ele>
        <time>2018-04-21T08:48:45Z</time>
      </trkpt>
      <trkpt lat="45.92878" lon="4.73113">
        <ele>172</ele>
        <time>2018-04-21T08:48:46Z</time>
      </trkpt>
      <trkpt lat="45.9288" lon="4.73106">
        <ele>172</ele>
        <time>2018-04-21T08:48:47Z</time>
      </trkpt>
      <trkpt lat="45.92884" lon="4.73098">
        <ele>172</ele>
        <time>2018-04-21T08:48:48Z</time>
      </trkpt>
      <trkpt lat="45.92886" lon="4.7309">
        <ele>172</ele>
        <time>2018-04-21T08:48:49Z</time>
      </trkpt>
      <trkpt lat="45.92888" lon="4.73084">
        <ele>172</ele>
        <time>2018-04-21T08:48:50Z</time>
      </trkpt>
      <trkpt lat="45.92891" lon="4.73076">
        <ele>172</ele>
        <time>2018-04-21T08:48:51Z</time>
      </trkpt>
      <trkpt lat="45.92894" lon="4.73069">
        <ele>172</ele>
        <time>2018-04-21T08:48:52Z</time>
      </trkpt>
      <trkpt lat="45.92896" lon="4.73063">
        <ele>172</ele>
        <time>2018-04-21T08:48:53Z</time>
      </trkpt>
      <trkpt lat="45.92899" lon="4.73057">
        <ele>172</ele>
        <time>2018-04-21T08:48:54Z</time>
      </trkpt>
      <trkpt lat="45.92902" lon="4.73052">
        <ele>172</ele>
        <time>2018-04-21T08:48:55Z</time>
      </trkpt>
      <trkpt lat="45.92904" lon="4.73046">
        <ele>172</ele>
        <time>2018-04-21T08:48:56Z</time>
      </trkpt>
      <trkpt lat="45.92908" lon="4.7304">
        <ele>172</ele>
        <time>2018-04-21T08:48:57Z</time>
      </trkpt>
      <trkpt lat="45.92912" lon="4.73034">
        <ele>172</ele>
        <time>2018-04-21T08:48:58Z</time>
      </trkpt>
      <trkpt lat="45.92917" lon="4.73029">
        <ele>172</ele>
        <time>2018-04-21T08:48:59Z</time>
      </trkpt>
      <trkpt lat="45.92921" lon="4.73024">
        <ele>172</ele>
        <time>2018-04-21T08:49:00Z</time>
      </trkpt>
      <trkpt lat="45.92924" lon="4.73017">
        <ele>172</ele>
        <time>2018-04-21T08:49:01Z</time>
      </trkpt>
      <trkpt lat="45.92928" lon="4.73012">
        <ele>172</ele>
        <time>2018-04-21T08:49:02Z</time>
      </trkpt>
      <trkpt lat="45.92932" lon="4.73008">
        <ele>171</ele>
        <time>2018-04-21T08:49:03Z</time>
      </trkpt>
      <trkpt lat="45.92937" lon="4.73003">
        <ele>171</ele>
        <time>2018-04-21T08:49:04Z</time>
      </trkpt>
      <trkpt lat="45.92941" lon="4.72998">
        <ele>171</ele>
        <time>2018-04-21T08:49:05Z</time>
      </trkpt>
      <trkpt lat="45.92946" lon="4.72993">
        <ele>171</ele>
        <time>2018-04-21T08:49:06Z</time>
      </trkpt>
      <trkpt lat="45.9295" lon="4.72989">
        <ele>171</ele>
        <time>2018-04-21T08:49:07Z</time>
      </trkpt>
      <trkpt lat="45.92954" lon="4.72984">
        <ele>171</ele>
        <time>2018-04-21T08:49:08Z</time>
      </trkpt>
      <trkpt lat="45.92959" lon="4.72978">
        <ele>171</ele>
        <time>2018-04-21T08:49:09Z</time>
      </trkpt>
      <trkpt lat="45.92963" lon="4.72972">
        <ele>171</ele>
        <time>2018-04-21T08:49:10Z</time>
      </trkpt>
      <trkpt lat="45.92967" lon="4.72966">
        <ele>171</ele>
        <time>2018-04-21T08:49:11Z</time>
      </trkpt>
      <trkpt lat="45.92972" lon="4.72961">
        <ele>171</ele>
        <time>2018-04-21T08:49:12Z</time>
      </trkpt>
      <trkpt lat="45.92976" lon="4.72956">
        <ele>171</ele>
        <time>2018-04-21T08:49:13Z</time>
      </trkpt>
      <trkpt lat="45.92981" lon="4.72949">
        <ele>171</ele>
        <time>2018-04-21T08:49:14Z</time>
      </trkpt>
      <trkpt lat="45.92986" lon="4.72944">
        <ele>171</ele>
        <time>2018-04-21T08:49:15Z</time>
      </trkpt>
      <trkpt lat="45.9299" lon="4.72937">
        <ele>171</ele>
        <time>2018-04-21T08:49:16Z</time>
      </trkpt>
      <trkpt lat="45.92994" lon="4.72931">
        <ele>171</ele>
        <time>2018-04-21T08:49:17Z</time>
      </trkpt>
      <trkpt lat="45.92998" lon="4.72926">
        <ele>171</ele>
        <time>2018-04-21T08:49:18Z</time>
      </trkpt>
      <trkpt lat="45.93003" lon="4.72919">
        <ele>171</ele>
        <time>2018-04-21T08:49:19Z</time>
      </trkpt>
      <trkpt lat="45.93008" lon="4.72915">
        <ele>171</ele>
        <time>2018-04-21T08:49:20Z</time>
      </trkpt>
      <trkpt lat="45.93011" lon="4.72909">
        <ele>171</ele>
        <time>2018-04-21T08:49:21Z</time>
      </trkpt>
      <trkpt lat="45.93015" lon="4.72904">
        <ele>172</ele>
        <time>2018-04-21T08:49:22Z</time>
      </trkpt>
      <trkpt lat="45.93019" lon="4.72899">
        <ele>172</ele>
        <time>2018-04-21T08:49:23Z</time>
      </trkpt>
      <trkpt lat="45.93023" lon="4.72894">
        <ele>172</ele>
        <time>2018-04-21T08:49:24Z</time>
      </trkpt>
      <trkpt lat="45.93027" lon="4.7289">
        <ele>172</ele>
        <time>2018-04-21T08:49:25Z</time>
      </trkpt>
      <trkpt lat="45.93031" lon="4.72886">
        <ele>172</ele>
        <time>2018-04-21T08:49:26Z</time>
      </trkpt>
      <trkpt lat="45.93036" lon="4.72881">
        <ele>172</ele>
        <time>2018-04-21T08:49:27Z</time>
      </trkpt>
      <trkpt lat="45.9304" lon="4.72877">
        <ele>172</ele>
        <time>2018-04-21T08:49:28Z</time>
      </trkpt>
      <trkpt lat="45.93045" lon="4.72873">
        <ele>172</ele>
        <time>2018-04-21T08:49:29Z</time>
      </trkpt>
      <trkpt lat="45.93049" lon="4.72867">
        <ele>172</ele>
        <time>2018-04-21T08:49:30Z</time>
      </trkpt>
      <trkpt lat="45.93054" lon="4.72862">
        <ele>172</ele>
        <time>2018-04-21T08:49:31Z</time>
      </trkpt>
      <trkpt lat="45.93058" lon="4.72857">
        <ele>172</ele>
        <time>2018-04-21T08:49:32Z</time>
      </trkpt>
      <trkpt lat="45.93062" lon="4.72852">
        <ele>172</ele>
        <time>2018-04-21T08:49:33Z</time>
      </trkpt>
      <trkpt lat="45.93066" lon="4.72847">
        <ele>172</ele>
        <time>2018-04-21T08:49:34Z</time>
      </trkpt>
      <trkpt lat="45.93106" lon="4.72817">
        <ele>172</ele>
        <time>2018-04-21T08:49:42Z</time>
      </trkpt>
      <trkpt lat="45.9311" lon="4.7281">
        <ele>171</ele>
        <time>2018-04-21T08:49:43Z</time>
      </trkpt>
      <trkpt lat="45.9311" lon="4.72804">
        <ele>171</ele>
        <time>2018-04-21T08:49:44Z</time>
      </trkpt>
      <trkpt lat="45.93114" lon="4.72799">
        <ele>171</ele>
        <time>2018-04-21T08:49:45Z</time>
      </trkpt>
      <trkpt lat="45.9312" lon="4.72797">
        <ele>171</ele>
        <time>2018-04-21T08:49:46Z</time>
      </trkpt>
      <trkpt lat="45.93124" lon="4.72792">
        <ele>171</ele>
        <time>2018-04-21T08:49:47Z</time>
      </trkpt>
      <trkpt lat="45.93126" lon="4.72788">
        <ele>171</ele>
        <time>2018-04-21T08:49:48Z</time>
      </trkpt>
      <trkpt lat="45.9313" lon="4.72782">
        <ele>171</ele>
        <time>2018-04-21T08:49:49Z</time>
      </trkpt>
      <trkpt lat="45.93135" lon="4.72778">
        <ele>171</ele>
        <time>2018-04-21T08:49:50Z</time>
      </trkpt>
      <trkpt lat="45.93139" lon="4.72772">
        <ele>171</ele>
        <time>2018-04-21T08:49:51Z</time>
      </trkpt>
      <trkpt lat="45.93144" lon="4.72766">
        <ele>171</ele>
        <time>2018-04-21T08:49:52Z</time>
      </trkpt>
      <trkpt lat="45.93149" lon="4.72761">
        <ele>171</ele>
        <time>2018-04-21T08:49:53Z</time>
      </trkpt>
      <trkpt lat="45.93153" lon="4.72755">
        <ele>170</ele>
        <time>2018-04-21T08:49:54Z</time>
      </trkpt>
      <trkpt lat="45.93158" lon="4.7275">
        <ele>170</ele>
        <time>2018-04-21T08:49:55Z</time>
      </trkpt>
      <trkpt lat="45.93163" lon="4.72744">
        <ele>170</ele>
        <time>2018-04-21T08:49:56Z</time>
      </trkpt>
      <trkpt lat="45.93167" lon="4.72738">
        <ele>170</ele>
        <time>2018-04-21T08:49:57Z</time>
      </trkpt>
      <trkpt lat="45.93171" lon="4.72734">
        <ele>170</ele>
        <time>2018-04-21T08:49:58Z</time>
      </trkpt>
      <trkpt lat="45.93175" lon="4.72729">
        <ele>170</ele>
        <time>2018-04-21T08:49:59Z</time>
      </trkpt>
      <trkpt lat="45.93178" lon="4.72724">
        <ele>170</ele>
        <time>2018-04-21T08:50:00Z</time>
      </trkpt>
      <trkpt lat="45.93182" lon="4.72719">
        <ele>169</ele>
        <time>2018-04-21T08:50:01Z</time>
      </trkpt>
      <trkpt lat="45.93186" lon="4.72714">
        <ele>169</ele>
        <time>2018-04-21T08:50:02Z</time>
      </trkpt>
      <trkpt lat="45.93191" lon="4.72706">
        <ele>169</ele>
        <time>2018-04-21T08:50:03Z</time>
      </trkpt>
      <trkpt lat="45.93196" lon="4.72701">
        <ele>169</ele>
        <time>2018-04-21T08:50:04Z</time>
      </trkpt>
      <trkpt lat="45.932" lon="4.72696">
        <ele>169</ele>
        <time>2018-04-21T08:50:05Z</time>
      </trkpt>
      <trkpt lat="45.93205" lon="4.7269">
        <ele>169</ele>
        <time>2018-04-21T08:50:06Z</time>
      </trkpt>
      <trkpt lat="45.9321" lon="4.72684">
        <ele>169</ele>
        <time>2018-04-21T08:50:07Z</time>
      </trkpt>
      <trkpt lat="45.93214" lon="4.72678">
        <ele>169</ele>
        <time>2018-04-21T08:50:08Z</time>
      </trkpt>
      <trkpt lat="45.9322" lon="4.7267">
        <ele>169</ele>
        <time>2018-04-21T08:50:10Z</time>
      </trkpt>
      <trkpt lat="45.93225" lon="4.72663">
        <ele>170</ele>
        <time>2018-04-21T08:50:11Z</time>
      </trkpt>
      <trkpt lat="45.93229" lon="4.72657">
        <ele>170</ele>
        <time>2018-04-21T08:50:12Z</time>
      </trkpt>
      <trkpt lat="45.93233" lon="4.72652">
        <ele>170</ele>
        <time>2018-04-21T08:50:13Z</time>
      </trkpt>
      <trkpt lat="45.93237" lon="4.72646">
        <ele>170</ele>
        <time>2018-04-21T08:50:14Z</time>
      </trkpt>
      <trkpt lat="45.93241" lon="4.72641">
        <ele>170</ele>
        <time>2018-04-21T08:50:15Z</time>
      </trkpt>
      <trkpt lat="45.93245" lon="4.72636">
        <ele>170</ele>
        <time>2018-04-21T08:50:16Z</time>
      </trkpt>
      <trkpt lat="45.93249" lon="4.7263">
        <ele>170</ele>
        <time>2018-04-21T08:50:17Z</time>
      </trkpt>
      <trkpt lat="45.93254" lon="4.72627">
        <ele>170</ele>
        <time>2018-04-21T08:50:18Z</time>
      </trkpt>
      <trkpt lat="45.93259" lon="4.72621">
        <ele>170</ele>
        <time>2018-04-21T08:50:19Z</time>
      </trkpt>
      <trkpt lat="45.93264" lon="4.72615">
        <ele>170</ele>
        <time>2018-04-21T08:50:20Z</time>
      </trkpt>
      <trkpt lat="45.93268" lon="4.7261">
        <ele>170</ele>
        <time>2018-04-21T08:50:21Z</time>
      </trkpt>
      <trkpt lat="45.93272" lon="4.72606">
        <ele>170</ele>
        <time>2018-04-21T08:50:22Z</time>
      </trkpt>
      <trkpt lat="45.93277" lon="4.726">
        <ele>170</ele>
        <time>2018-04-21T08:50:23Z</time>
      </trkpt>
      <trkpt lat="45.93282" lon="4.72595">
        <ele>170</ele>
        <time>2018-04-21T08:50:24Z</time>
      </trkpt>
      <trkpt lat="45.93287" lon="4.72591">
        <ele>170</ele>
        <time>2018-04-21T08:50:25Z</time>
      </trkpt>
      <trkpt lat="45.93292" lon="4.72584">
        <ele>170</ele>
        <time>2018-04-21T08:50:26Z</time>
      </trkpt>
      <trkpt lat="45.93297" lon="4.72579">
        <ele>171</ele>
        <time>2018-04-21T08:50:27Z</time>
      </trkpt>
      <trkpt lat="45.93302" lon="4.72574">
        <ele>171</ele>
        <time>2018-04-21T08:50:28Z</time>
      </trkpt>
      <trkpt lat="45.93305" lon="4.7257">
        <ele>171</ele>
        <time>2018-04-21T08:50:29Z</time>
      </trkpt>
      <trkpt lat="45.9331" lon="4.72565">
        <ele>171</ele>
        <time>2018-04-21T08:50:30Z</time>
      </trkpt>
      <trkpt lat="45.93314" lon="4.72559">
        <ele>171</ele>
        <time>2018-04-21T08:50:31Z</time>
      </trkpt>
      <trkpt lat="45.93318" lon="4.72553">
        <ele>172</ele>
        <time>2018-04-21T08:50:32Z</time>
      </trkpt>
      <trkpt lat="45.93322" lon="4.72549">
        <ele>172</ele>
        <time>2018-04-21T08:50:33Z</time>
      </trkpt>
      <trkpt lat="45.93326" lon="4.72545">
        <ele>172</ele>
        <time>2018-04-21T08:50:34Z</time>
      </trkpt>
      <trkpt lat="45.9333" lon="4.7254">
        <ele>172</ele>
        <time>2018-04-21T08:50:35Z</time>
      </trkpt>
      <trkpt lat="45.93335" lon="4.72535">
        <ele>172</ele>
        <time>2018-04-21T08:50:36Z</time>
      </trkpt>
      <trkpt lat="45.93339" lon="4.72531">
        <ele>172</ele>
        <time>2018-04-21T08:50:37Z</time>
      </trkpt>
      <trkpt lat="45.93345" lon="4.72525">
        <ele>172</ele>
        <time>2018-04-21T08:50:38Z</time>
      </trkpt>
      <trkpt lat="45.93348" lon="4.7252">
        <ele>172</ele>
        <time>2018-04-21T08:50:39Z</time>
      </trkpt>
      <trkpt lat="45.93353" lon="4.72515">
        <ele>172</ele>
        <time>2018-04-21T08:50:40Z</time>
      </trkpt>
      <trkpt lat="45.93357" lon="4.72511">
        <ele>172</ele>
        <time>2018-04-21T08:50:41Z</time>
      </trkpt>
      <trkpt lat="45.93362" lon="4.72507">
        <ele>172</ele>
        <time>2018-04-21T08:50:42Z</time>
      </trkpt>
      <trkpt lat="45.93366" lon="4.72503">
        <ele>172</ele>
        <time>2018-04-21T08:50:43Z</time>
      </trkpt>
      <trkpt lat="45.93369" lon="4.72498">
        <ele>173</ele>
        <time>2018-04-21T08:50:44Z</time>
      </trkpt>
      <trkpt lat="45.93373" lon="4.72494">
        <ele>173</ele>
        <time>2018-04-21T08:50:45Z</time>
      </trkpt>
      <trkpt lat="45.93376" lon="4.72489">
        <ele>173</ele>
        <time>2018-04-21T08:50:46Z</time>
      </trkpt>
      <trkpt lat="45.93381" lon="4.72483">
        <ele>173</ele>
        <time>2018-04-21T08:50:47Z</time>
      </trkpt>
      <trkpt lat="45.93385" lon="4.72478">
        <ele>173</ele>
        <time>2018-04-21T08:50:48Z</time>
      </trkpt>
      <trkpt lat="45.93389" lon="4.72474">
        <ele>173</ele>
        <time>2018-04-21T08:50:49Z</time>
      </trkpt>
      <trkpt lat="45.93393" lon="4.72469">
        <ele>173</ele>
        <time>2018-04-21T08:50:50Z</time>
      </trkpt>
      <trkpt lat="45.93395" lon="4.72463">
        <ele>173</ele>
        <time>2018-04-21T08:50:51Z</time>
      </trkpt>
      <trkpt lat="45.93398" lon="4.72454">
        <ele>173</ele>
        <time>2018-04-21T08:50:53Z</time>
      </trkpt>
      <trkpt lat="45.93399" lon="4.72449">
        <ele>173</ele>
        <time>2018-04-21T08:50:54Z</time>
      </trkpt>
      <trkpt lat="45.93403" lon="4.72438">
        <ele>173</ele>
        <time>2018-04-21T08:50:56Z</time>
      </trkpt>
      <trkpt lat="45.93406" lon="4.72433">
        <ele>173</ele>
        <time>2018-04-21T08:50:57Z</time>
      </trkpt>
      <trkpt lat="45.93411" lon="4.72424">
        <ele>174</ele>
        <time>2018-04-21T08:50:59Z</time>
      </trkpt>
      <trkpt lat="45.93417" lon="4.72422">
        <ele>174</ele>
        <time>2018-04-21T08:51:00Z</time>
      </trkpt>
      <trkpt lat="45.93421" lon="4.72417">
        <ele>174</ele>
        <time>2018-04-21T08:51:01Z</time>
      </trkpt>
      <trkpt lat="45.93426" lon="4.72414">
        <ele>174</ele>
        <time>2018-04-21T08:51:02Z</time>
      </trkpt>
      <trkpt lat="45.93431" lon="4.72411">
        <ele>174</ele>
        <time>2018-04-21T08:51:03Z</time>
      </trkpt>
      <trkpt lat="45.93436" lon="4.72407">
        <ele>174</ele>
        <time>2018-04-21T08:51:04Z</time>
      </trkpt>
      <trkpt lat="45.93441" lon="4.72404">
        <ele>173</ele>
        <time>2018-04-21T08:51:05Z</time>
      </trkpt>
      <trkpt lat="45.93445" lon="4.72402">
        <ele>173</ele>
        <time>2018-04-21T08:51:06Z</time>
      </trkpt>
      <trkpt lat="45.9345" lon="4.72397">
        <ele>173</ele>
        <time>2018-04-21T08:51:07Z</time>
      </trkpt>
      <trkpt lat="45.93456" lon="4.72393">
        <ele>173</ele>
        <time>2018-04-21T08:51:08Z</time>
      </trkpt>
      <trkpt lat="45.9346" lon="4.72388">
        <ele>173</ele>
        <time>2018-04-21T08:51:09Z</time>
      </trkpt>
      <trkpt lat="45.93464" lon="4.72383">
        <ele>173</ele>
        <time>2018-04-21T08:51:10Z</time>
      </trkpt>
      <trkpt lat="45.93469" lon="4.72378">
        <ele>173</ele>
        <time>2018-04-21T08:51:11Z</time>
      </trkpt>
      <trkpt lat="45.93473" lon="4.7237">
        <ele>173</ele>
        <time>2018-04-21T08:51:12Z</time>
      </trkpt>
      <trkpt lat="45.93478" lon="4.72365">
        <ele>173</ele>
        <time>2018-04-21T08:51:14Z</time>
      </trkpt>
      <trkpt lat="45.93484" lon="4.72357">
        <ele>173</ele>
        <time>2018-04-21T08:51:15Z</time>
      </trkpt>
      <trkpt lat="45.93488" lon="4.72353">
        <ele>173</ele>
        <time>2018-04-21T08:51:16Z</time>
      </trkpt>
      <trkpt lat="45.93491" lon="4.72346">
        <ele>173</ele>
        <time>2018-04-21T08:51:17Z</time>
      </trkpt>
      <trkpt lat="45.93495" lon="4.7234">
        <ele>173</ele>
        <time>2018-04-21T08:51:18Z</time>
      </trkpt>
      <trkpt lat="45.93498" lon="4.72333">
        <ele>173</ele>
        <time>2018-04-21T08:51:19Z</time>
      </trkpt>
      <trkpt lat="45.93502" lon="4.72328">
        <ele>173</ele>
        <time>2018-04-21T08:51:20Z</time>
      </trkpt>
      <trkpt lat="45.93506" lon="4.72323">
        <ele>173</ele>
        <time>2018-04-21T08:51:21Z</time>
      </trkpt>
      <trkpt lat="45.9351" lon="4.72318">
        <ele>173</ele>
        <time>2018-04-21T08:51:22Z</time>
      </trkpt>
      <trkpt lat="45.93515" lon="4.72312">
        <ele>173</ele>
        <time>2018-04-21T08:51:23Z</time>
      </trkpt>
      <trkpt lat="45.9352" lon="4.72302">
        <ele>172</ele>
        <time>2018-04-21T08:51:25Z</time>
      </trkpt>
      <trkpt lat="45.93523" lon="4.72297">
        <ele>172</ele>
        <time>2018-04-21T08:51:26Z</time>
      </trkpt>
      <trkpt lat="45.93524" lon="4.72292">
        <ele>172</ele>
        <time>2018-04-21T08:51:27Z</time>
      </trkpt>
      <trkpt lat="45.93527" lon="4.72285">
        <ele>172</ele>
        <time>2018-04-21T08:51:28Z</time>
      </trkpt>
      <trkpt lat="45.93532" lon="4.72276">
        <ele>172</ele>
        <time>2018-04-21T08:51:30Z</time>
      </trkpt>
      <trkpt lat="45.93534" lon="4.7227">
        <ele>172</ele>
        <time>2018-04-21T08:51:31Z</time>
      </trkpt>
      <trkpt lat="45.93536" lon="4.72265">
        <ele>172</ele>
        <time>2018-04-21T08:51:32Z</time>
      </trkpt>
      <trkpt lat="45.93539" lon="4.72259">
        <ele>172</ele>
        <time>2018-04-21T08:51:33Z</time>
      </trkpt>
      <trkpt lat="45.93541" lon="4.72251">
        <ele>172</ele>
        <time>2018-04-21T08:51:34Z</time>
      </trkpt>
      <trkpt lat="45.93544" lon="4.72246">
        <ele>172</ele>
        <time>2018-04-21T08:51:35Z</time>
      </trkpt>
      <trkpt lat="45.93547" lon="4.7224">
        <ele>172</ele>
        <time>2018-04-21T08:51:36Z</time>
      </trkpt>
      <trkpt lat="45.93549" lon="4.72234">
        <ele>172</ele>
        <time>2018-04-21T08:51:37Z</time>
      </trkpt>
      <trkpt lat="45.93553" lon="4.72228">
        <ele>173</ele>
        <time>2018-04-21T08:51:38Z</time>
      </trkpt>
      <trkpt lat="45.93558" lon="4.72225">
        <ele>173</ele>
        <time>2018-04-21T08:51:39Z</time>
      </trkpt>
      <trkpt lat="45.93562" lon="4.72227">
        <ele>173</ele>
        <time>2018-04-21T08:51:40Z</time>
      </trkpt>
      <trkpt lat="45.93568" lon="4.72231">
        <ele>173</ele>
        <time>2018-04-21T08:51:41Z</time>
      </trkpt>
      <trkpt lat="45.93573" lon="4.72236">
        <ele>173</ele>
        <time>2018-04-21T08:51:42Z</time>
      </trkpt>
      <trkpt lat="45.93577" lon="4.72241">
        <ele>173</ele>
        <time>2018-04-21T08:51:43Z</time>
      </trkpt>
      <trkpt lat="45.93581" lon="4.72245">
        <ele>173</ele>
        <time>2018-04-21T08:51:44Z</time>
      </trkpt>
      <trkpt lat="45.93585" lon="4.7225">
        <ele>173</ele>
        <time>2018-04-21T08:51:45Z</time>
      </trkpt>
      <trkpt lat="45.93589" lon="4.72254">
        <ele>173</ele>
        <time>2018-04-21T08:51:46Z</time>
      </trkpt>
      <trkpt lat="45.93593" lon="4.72257">
        <ele>173</ele>
        <time>2018-04-21T08:51:47Z</time>
      </trkpt>
      <trkpt lat="45.93596" lon="4.72261">
        <ele>173</ele>
        <time>2018-04-21T08:51:48Z</time>
      </trkpt>
      <trkpt lat="45.936" lon="4.72265">
        <ele>173</ele>
        <time>2018-04-21T08:51:49Z</time>
      </trkpt>
      <trkpt lat="45.93605" lon="4.72271">
        <ele>172</ele>
        <time>2018-04-21T08:51:50Z</time>
      </trkpt>
      <trkpt lat="45.93609" lon="4.72274">
        <ele>172</ele>
        <time>2018-04-21T08:51:51Z</time>
      </trkpt>
      <trkpt lat="45.93612" lon="4.72279">
        <ele>172</ele>
        <time>2018-04-21T08:51:52Z</time>
      </trkpt>
      <trkpt lat="45.93617" lon="4.72284">
        <ele>172</ele>
        <time>2018-04-21T08:51:53Z</time>
      </trkpt>
      <trkpt lat="45.93623" lon="4.72289">
        <ele>172</ele>
        <time>2018-04-21T08:51:55Z</time>
      </trkpt>
      <trkpt lat="45.93626" lon="4.72292">
        <ele>172</ele>
        <time>2018-04-21T08:51:56Z</time>
      </trkpt>
      <trkpt lat="45.93631" lon="4.72297">
        <ele>172</ele>
        <time>2018-04-21T08:51:57Z</time>
      </trkpt>
      <trkpt lat="45.93636" lon="4.72302">
        <ele>172</ele>
        <time>2018-04-21T08:51:58Z</time>
      </trkpt>
      <trkpt lat="45.93641" lon="4.72307">
        <ele>172</ele>
        <time>2018-04-21T08:51:59Z</time>
      </trkpt>
      <trkpt lat="45.93644" lon="4.72312">
        <ele>172</ele>
        <time>2018-04-21T08:52:00Z</time>
      </trkpt>
      <trkpt lat="45.9365" lon="4.72317">
        <ele>172</ele>
        <time>2018-04-21T08:52:01Z</time>
      </trkpt>
      <trkpt lat="45.93655" lon="4.72321">
        <ele>172</ele>
        <time>2018-04-21T08:52:02Z</time>
      </trkpt>
      <trkpt lat="45.93661" lon="4.72327">
        <ele>171</ele>
        <time>2018-04-21T08:52:03Z</time>
      </trkpt>
      <trkpt lat="45.93665" lon="4.72331">
        <ele>171</ele>
        <time>2018-04-21T08:52:04Z</time>
      </trkpt>
      <trkpt lat="45.93669" lon="4.72335">
        <ele>171</ele>
        <time>2018-04-21T08:52:05Z</time>
      </trkpt>
      <trkpt lat="45.93675" lon="4.72339">
        <ele>171</ele>
        <time>2018-04-21T08:52:06Z</time>
      </trkpt>
      <trkpt lat="45.93682" lon="4.72347">
        <ele>171</ele>
        <time>2018-04-21T08:52:08Z</time>
      </trkpt>
      <trkpt lat="45.93686" lon="4.72351">
        <ele>171</ele>
        <time>2018-04-21T08:52:09Z</time>
      </trkpt>
      <trkpt lat="45.9369" lon="4.72355">
        <ele>171</ele>
        <time>2018-04-21T08:52:10Z</time>
      </trkpt>
      <trkpt lat="45.93697" lon="4.72361">
        <ele>171</ele>
        <time>2018-04-21T08:52:12Z</time>
      </trkpt>
      <trkpt lat="45.93703" lon="4.72366">
        <ele>171</ele>
        <time>2018-04-21T08:52:13Z</time>
      </trkpt>
      <trkpt lat="45.93709" lon="4.72372">
        <ele>172</ele>
        <time>2018-04-21T08:52:14Z</time>
      </trkpt>
      <trkpt lat="45.93713" lon="4.72378">
        <ele>171</ele>
        <time>2018-04-21T08:52:15Z</time>
      </trkpt>
      <trkpt lat="45.93719" lon="4.72382">
        <ele>171</ele>
        <time>2018-04-21T08:52:16Z</time>
      </trkpt>
      <trkpt lat="45.93722" lon="4.72386">
        <ele>171</ele>
        <time>2018-04-21T08:52:17Z</time>
      </trkpt>
      <trkpt lat="45.93728" lon="4.7239">
        <ele>171</ele>
        <time>2018-04-21T08:52:18Z</time>
      </trkpt>
      <trkpt lat="45.93733" lon="4.72395">
        <ele>171</ele>
        <time>2018-04-21T08:52:19Z</time>
      </trkpt>
      <trkpt lat="45.93737" lon="4.72399">
        <ele>171</ele>
        <time>2018-04-21T08:52:20Z</time>
      </trkpt>
      <trkpt lat="45.93739" lon="4.72404">
        <ele>171</ele>
        <time>2018-04-21T08:52:21Z</time>
      </trkpt>
      <trkpt lat="45.93744" lon="4.72408">
        <ele>171</ele>
        <time>2018-04-21T08:52:22Z</time>
      </trkpt>
      <trkpt lat="45.93749" lon="4.72412">
        <ele>171</ele>
        <time>2018-04-21T08:52:23Z</time>
      </trkpt>
      <trkpt lat="45.93754" lon="4.72417">
        <ele>171</ele>
        <time>2018-04-21T08:52:24Z</time>
      </trkpt>
      <trkpt lat="45.93761" lon="4.72422">
        <ele>171</ele>
        <time>2018-04-21T08:52:25Z</time>
      </trkpt>
      <trkpt lat="45.93765" lon="4.72427">
        <ele>171</ele>
        <time>2018-04-21T08:52:26Z</time>
      </trkpt>
      <trkpt lat="45.93769" lon="4.72431">
        <ele>171</ele>
        <time>2018-04-21T08:52:27Z</time>
      </trkpt>
      <trkpt lat="45.93774" lon="4.72436">
        <ele>171</ele>
        <time>2018-04-21T08:52:28Z</time>
      </trkpt>
      <trkpt lat="45.93779" lon="4.72441">
        <ele>172</ele>
        <time>2018-04-21T08:52:29Z</time>
      </trkpt>
      <trkpt lat="45.93785" lon="4.72446">
        <ele>172</ele>
        <time>2018-04-21T08:52:30Z</time>
      </trkpt>
      <trkpt lat="45.9379" lon="4.72451">
        <ele>172</ele>
        <time>2018-04-21T08:52:31Z</time>
      </trkpt>
      <trkpt lat="45.93795" lon="4.72455">
        <ele>172</ele>
        <time>2018-04-21T08:52:32Z</time>
      </trkpt>
      <trkpt lat="45.93801" lon="4.7246">
        <ele>172</ele>
        <time>2018-04-21T08:52:33Z</time>
      </trkpt>
      <trkpt lat="45.9381" lon="4.72468">
        <ele>172</ele>
        <time>2018-04-21T08:52:35Z</time>
      </trkpt>
      <trkpt lat="45.93814" lon="4.72471">
        <ele>172</ele>
        <time>2018-04-21T08:52:36Z</time>
      </trkpt>
      <trkpt lat="45.9382" lon="4.72477">
        <ele>172</ele>
        <time>2018-04-21T08:52:37Z</time>
      </trkpt>
      <trkpt lat="45.93824" lon="4.72482">
        <ele>173</ele>
        <time>2018-04-21T08:52:38Z</time>
      </trkpt>
      <trkpt lat="45.93827" lon="4.72487">
        <ele>173</ele>
        <time>2018-04-21T08:52:39Z</time>
      </trkpt>
      <trkpt lat="45.9383" lon="4.72492">
        <ele>173</ele>
        <time>2018-04-21T08:52:44Z</time>
      </trkpt>
      <trkpt lat="45.93855" lon="4.72511">
        <ele>173</ele>
        <time>2018-04-21T08:52:45Z</time>
      </trkpt>
      <trkpt lat="45.93857" lon="4.72516">
        <ele>173</ele>
        <time>2018-04-21T08:52:46Z</time>
      </trkpt>
      <trkpt lat="45.93862" lon="4.72521">
        <ele>173</ele>
        <time>2018-04-21T08:52:47Z</time>
      </trkpt>
      <trkpt lat="45.93871" lon="4.72527">
        <ele>173</ele>
        <time>2018-04-21T08:52:48Z</time>
      </trkpt>
      <trkpt lat="45.93874" lon="4.72523">
        <ele>173</ele>
        <time>2018-04-21T08:52:49Z</time>
      </trkpt>
      <trkpt lat="45.93879" lon="4.72519">
        <ele>173</ele>
        <time>2018-04-21T08:52:50Z</time>
      </trkpt>
      <trkpt lat="45.93884" lon="4.72515">
        <ele>173</ele>
        <time>2018-04-21T08:52:51Z</time>
      </trkpt>
      <trkpt lat="45.93888" lon="4.7251">
        <ele>173</ele>
        <time>2018-04-21T08:52:52Z</time>
      </trkpt>
      <trkpt lat="45.9389" lon="4.72505">
        <ele>173</ele>
        <time>2018-04-21T08:52:53Z</time>
      </trkpt>
      <trkpt lat="45.93894" lon="4.725">
        <ele>172</ele>
        <time>2018-04-21T08:52:54Z</time>
      </trkpt>
      <trkpt lat="45.93898" lon="4.72496">
        <ele>172</ele>
        <time>2018-04-21T08:52:55Z</time>
      </trkpt>
      <trkpt lat="45.93902" lon="4.7249">
        <ele>172</ele>
        <time>2018-04-21T08:52:56Z</time>
      </trkpt>
      <trkpt lat="45.93905" lon="4.72486">
        <ele>172</ele>
        <time>2018-04-21T08:52:57Z</time>
      </trkpt>
      <trkpt lat="45.9391" lon="4.7248">
        <ele>172</ele>
        <time>2018-04-21T08:52:58Z</time>
      </trkpt>
      <trkpt lat="45.93915" lon="4.72475">
        <ele>172</ele>
        <time>2018-04-21T08:52:59Z</time>
      </trkpt>
      <trkpt lat="45.9392" lon="4.7247">
        <ele>171</ele>
        <time>2018-04-21T08:53:00Z</time>
      </trkpt>
      <trkpt lat="45.93925" lon="4.72465">
        <ele>171</ele>
        <time>2018-04-21T08:53:01Z</time>
      </trkpt>
      <trkpt lat="45.9393" lon="4.72458">
        <ele>171</ele>
        <time>2018-04-21T08:53:02Z</time>
      </trkpt>
      <trkpt lat="45.93934" lon="4.72451">
        <ele>171</ele>
        <time>2018-04-21T08:53:03Z</time>
      </trkpt>
      <trkpt lat="45.93939" lon="4.72445">
        <ele>171</ele>
        <time>2018-04-21T08:53:04Z</time>
      </trkpt>
      <trkpt lat="45.93943" lon="4.72439">
        <ele>171</ele>
        <time>2018-04-21T08:53:05Z</time>
      </trkpt>
      <trkpt lat="45.93949" lon="4.72431">
        <ele>171</ele>
        <time>2018-04-21T08:53:06Z</time>
      </trkpt>
      <trkpt lat="45.93952" lon="4.72426">
        <ele>171</ele>
        <time>2018-04-21T08:53:07Z</time>
      </trkpt>
      <trkpt lat="45.93957" lon="4.7242">
        <ele>171</ele>
        <time>2018-04-21T08:53:08Z</time>
      </trkpt>
      <trkpt lat="45.9396" lon="4.72416">
        <ele>171</ele>
        <time>2018-04-21T08:53:09Z</time>
      </trkpt>
      <trkpt lat="45.93966" lon="4.72409">
        <ele>171</ele>
        <time>2018-04-21T08:53:10Z</time>
      </trkpt>
      <trkpt lat="45.9397" lon="4.72404">
        <ele>171</ele>
        <time>2018-04-21T08:53:11Z</time>
      </trkpt>
      <trkpt lat="45.93975" lon="4.72396">
        <ele>171</ele>
        <time>2018-04-21T08:53:12Z</time>
      </trkpt>
      <trkpt lat="45.93981" lon="4.72392">
        <ele>171</ele>
        <time>2018-04-21T08:53:13Z</time>
      </trkpt>
      <trkpt lat="45.93987" lon="4.72385">
        <ele>171</ele>
        <time>2018-04-21T08:53:14Z</time>
      </trkpt>
      <trkpt lat="45.93992" lon="4.72379">
        <ele>171</ele>
        <time>2018-04-21T08:53:15Z</time>
      </trkpt>
      <trkpt lat="45.93997" lon="4.72374">
        <ele>171</ele>
        <time>2018-04-21T08:53:16Z</time>
      </trkpt>
      <trkpt lat="45.94001" lon="4.72368">
        <ele>171</ele>
        <time>2018-04-21T08:53:17Z</time>
      </trkpt>
      <trkpt lat="45.94004" lon="4.72365">
        <ele>171</ele>
        <time>2018-04-21T08:53:18Z</time>
      </trkpt>
      <trkpt lat="45.94007" lon="4.72359">
        <ele>171</ele>
        <time>2018-04-21T08:53:19Z</time>
      </trkpt>
      <trkpt lat="45.94012" lon="4.72354">
        <ele>171</ele>
        <time>2018-04-21T08:53:20Z</time>
      </trkpt>
      <trkpt lat="45.94016" lon="4.72349">
        <ele>171</ele>
        <time>2018-04-21T08:53:21Z</time>
      </trkpt>
      <trkpt lat="45.94021" lon="4.72345">
        <ele>171</ele>
        <time>2018-04-21T08:53:22Z</time>
      </trkpt>
      <trkpt lat="45.94026" lon="4.7234">
        <ele>171</ele>
        <time>2018-04-21T08:53:23Z</time>
      </trkpt>
      <trkpt lat="45.94031" lon="4.72333">
        <ele>171</ele>
        <time>2018-04-21T08:53:24Z</time>
      </trkpt>
      <trkpt lat="45.94034" lon="4.72328">
        <ele>171</ele>
        <time>2018-04-21T08:53:25Z</time>
      </trkpt>
      <trkpt lat="45.94038" lon="4.72325">
        <ele>171</ele>
        <time>2018-04-21T08:53:26Z</time>
      </trkpt>
      <trkpt lat="45.94042" lon="4.72319">
        <ele>171</ele>
        <time>2018-04-21T08:53:27Z</time>
      </trkpt>
      <trkpt lat="45.94047" lon="4.72315">
        <ele>171</ele>
        <time>2018-04-21T08:53:28Z</time>
      </trkpt>
      <trkpt lat="45.94051" lon="4.7231">
        <ele>171</ele>
        <time>2018-04-21T08:53:29Z</time>
      </trkpt>
      <trkpt lat="45.94055" lon="4.72306">
        <ele>171</ele>
        <time>2018-04-21T08:53:30Z</time>
      </trkpt>
      <trkpt lat="45.94059" lon="4.72301">
        <ele>171</ele>
        <time>2018-04-21T08:53:31Z</time>
      </trkpt>
      <trkpt lat="45.94063" lon="4.72295">
        <ele>171</ele>
        <time>2018-04-21T08:53:32Z</time>
      </trkpt>
      <trkpt lat="45.94066" lon="4.7229">
        <ele>171</ele>
        <time>2018-04-21T08:53:33Z</time>
      </trkpt>
      <trkpt lat="45.9407" lon="4.72286">
        <ele>171</ele>
        <time>2018-04-21T08:53:34Z</time>
      </trkpt>
      <trkpt lat="45.94077" lon="4.72278">
        <ele>171</ele>
        <time>2018-04-21T08:53:36Z</time>
      </trkpt>
      <trkpt lat="45.94081" lon="4.72276">
        <ele>171</ele>
        <time>2018-04-21T08:53:37Z</time>
      </trkpt>
      <trkpt lat="45.94089" lon="4.72273">
        <ele>171</ele>
        <time>2018-04-21T08:53:39Z</time>
      </trkpt>
      <trkpt lat="45.94094" lon="4.72271">
        <ele>171</ele>
        <time>2018-04-21T08:53:40Z</time>
      </trkpt>
      <trkpt lat="45.94103" lon="4.72269">
        <ele>171</ele>
        <time>2018-04-21T08:53:42Z</time>
      </trkpt>
      <trkpt lat="45.94107" lon="4.72269">
        <ele>171</ele>
        <time>2018-04-21T08:53:43Z</time>
      </trkpt>
      <trkpt lat="45.94116" lon="4.72272">
        <ele>171</ele>
        <time>2018-04-21T08:53:45Z</time>
      </trkpt>
      <trkpt lat="45.9412" lon="4.72275">
        <ele>171</ele>
        <time>2018-04-21T08:53:46Z</time>
      </trkpt>
      <trkpt lat="45.94125" lon="4.72276">
        <ele>171</ele>
        <time>2018-04-21T08:53:47Z</time>
      </trkpt>
      <trkpt lat="45.94129" lon="4.72279">
        <ele>171</ele>
        <time>2018-04-21T08:53:48Z</time>
      </trkpt>
      <trkpt lat="45.94134" lon="4.72281">
        <ele>171</ele>
        <time>2018-04-21T08:53:49Z</time>
      </trkpt>
      <trkpt lat="45.94138" lon="4.72283">
        <ele>171</ele>
        <time>2018-04-21T08:53:50Z</time>
      </trkpt>
      <trkpt lat="45.94142" lon="4.72286">
        <ele>171</ele>
        <time>2018-04-21T08:53:51Z</time>
      </trkpt>
      <trkpt lat="45.94147" lon="4.72289">
        <ele>171</ele>
        <time>2018-04-21T08:53:52Z</time>
      </trkpt>
      <trkpt lat="45.94151" lon="4.72291">
        <ele>171</ele>
        <time>2018-04-21T08:53:53Z</time>
      </trkpt>
      <trkpt lat="45.94156" lon="4.72293">
        <ele>171</ele>
        <time>2018-04-21T08:53:54Z</time>
      </trkpt>
      <trkpt lat="45.9416" lon="4.72293">
        <ele>171</ele>
        <time>2018-04-21T08:53:55Z</time>
      </trkpt>
      <trkpt lat="45.94166" lon="4.72295">
        <ele>171</ele>
        <time>2018-04-21T08:53:56Z</time>
      </trkpt>
      <trkpt lat="45.94172" lon="4.72294">
        <ele>171</ele>
        <time>2018-04-21T08:53:57Z</time>
      </trkpt>
      <trkpt lat="45.94176" lon="4.72295">
        <ele>171</ele>
        <time>2018-04-21T08:53:58Z</time>
      </trkpt>
      <trkpt lat="45.94181" lon="4.72295">
        <ele>171</ele>
        <time>2018-04-21T08:53:59Z</time>
      </trkpt>
      <trkpt lat="45.94186" lon="4.72296">
        <ele>171</ele>
        <time>2018-04-21T08:54:00Z</time>
      </trkpt>
      <trkpt lat="45.94191" lon="4.72296">
        <ele>171</ele>
        <time>2018-04-21T08:54:01Z</time>
      </trkpt>
      <trkpt lat="45.94195" lon="4.72294">
        <ele>171</ele>
        <time>2018-04-21T08:54:02Z</time>
      </trkpt>
      <trkpt lat="45.94201" lon="4.72293">
        <ele>171</ele>
        <time>2018-04-21T08:54:03Z</time>
      </trkpt>
      <trkpt lat="45.94207" lon="4.72293">
        <ele>171</ele>
        <time>2018-04-21T08:54:04Z</time>
      </trkpt>
      <trkpt lat="45.94212" lon="4.72293">
        <ele>171</ele>
        <time>2018-04-21T08:54:05Z</time>
      </trkpt>
      <trkpt lat="45.94218" lon="4.72293">
        <ele>171</ele>
        <time>2018-04-21T08:54:06Z</time>
      </trkpt>
      <trkpt lat="45.94223" lon="4.72293">
        <ele>171</ele>
        <time>2018-04-21T08:54:07Z</time>
      </trkpt>
      <trkpt lat="45.94227" lon="4.72294">
        <ele>171</ele>
        <time>2018-04-21T08:54:08Z</time>
      </trkpt>
      <trkpt lat="45.94232" lon="4.72291">
        <ele>171</ele>
        <time>2018-04-21T08:54:09Z</time>
      </trkpt>
      <trkpt lat="45.94237" lon="4.72291">
        <ele>171</ele>
        <time>2018-04-21T08:54:10Z</time>
      </trkpt>
      <trkpt lat="45.94243" lon="4.72289">
        <ele>171</ele>
        <time>2018-04-21T08:54:11Z</time>
      </trkpt>
      <trkpt lat="45.94248" lon="4.72287">
        <ele>171</ele>
        <time>2018-04-21T08:54:12Z</time>
      </trkpt>
      <trkpt lat="45.94252" lon="4.72285">
        <ele>171</ele>
        <time>2018-04-21T08:54:13Z</time>
      </trkpt>
      <trkpt lat="45.94257" lon="4.72282">
        <ele>171</ele>
        <time>2018-04-21T08:54:14Z</time>
      </trkpt>
      <trkpt lat="45.94262" lon="4.7228">
        <ele>171</ele>
        <time>2018-04-21T08:54:15Z</time>
      </trkpt>
      <trkpt lat="45.94267" lon="4.72278">
        <ele>171</ele>
        <time>2018-04-21T08:54:16Z</time>
      </trkpt>
      <trkpt lat="45.94273" lon="4.72285">
        <ele>171</ele>
        <time>2018-04-21T08:54:19Z</time>
      </trkpt>
      <trkpt lat="45.94275" lon="4.72289">
        <ele>171</ele>
        <time>2018-04-21T08:54:20Z</time>
      </trkpt>
      <trkpt lat="45.94278" lon="4.72294">
        <ele>171</ele>
        <time>2018-04-21T08:54:21Z</time>
      </trkpt>
      <trkpt lat="45.94281" lon="4.723">
        <ele>171</ele>
        <time>2018-04-21T08:54:22Z</time>
      </trkpt>
      <trkpt lat="45.94283" lon="4.72305">
        <ele>171</ele>
        <time>2018-04-21T08:54:23Z</time>
      </trkpt>
      <trkpt lat="45.94285" lon="4.72311">
        <ele>171</ele>
        <time>2018-04-21T08:54:24Z</time>
      </trkpt>
      <trkpt lat="45.9429" lon="4.72322">
        <ele>171</ele>
        <time>2018-04-21T08:54:26Z</time>
      </trkpt>
      <trkpt lat="45.94293" lon="4.72328">
        <ele>171</ele>
        <time>2018-04-21T08:54:27Z</time>
      </trkpt>
      <trkpt lat="45.94296" lon="4.72335">
        <ele>172</ele>
        <time>2018-04-21T08:54:28Z</time>
      </trkpt>
      <trkpt lat="45.94298" lon="4.7234">
        <ele>172</ele>
        <time>2018-04-21T08:54:29Z</time>
      </trkpt>
      <trkpt lat="45.94301" lon="4.72346">
        <ele>172</ele>
        <time>2018-04-21T08:54:30Z</time>
      </trkpt>
      <trkpt lat="45.94305" lon="4.72351">
        <ele>172</ele>
        <time>2018-04-21T08:54:31Z</time>
      </trkpt>
      <trkpt lat="45.94308" lon="4.72357">
        <ele>172</ele>
        <time>2018-04-21T08:54:32Z</time>
      </trkpt>
      <trkpt lat="45.94312" lon="4.72364">
        <ele>172</ele>
        <time>2018-04-21T08:54:33Z</time>
      </trkpt>
      <trkpt lat="45.94317" lon="4.72371">
        <ele>172</ele>
        <time>2018-04-21T08:54:34Z</time>
      </trkpt>
      <trkpt lat="45.94319" lon="4.72377">
        <ele>172</ele>
        <time>2018-04-21T08:54:35Z</time>
      </trkpt>
      <trkpt lat="45.94323" lon="4.72384">
        <ele>172</ele>
        <time>2018-04-21T08:54:36Z</time>
      </trkpt>
      <trkpt lat="45.94324" lon="4.7239">
        <ele>172</ele>
        <time>2018-04-21T08:54:37Z</time>
      </trkpt>
      <trkpt lat="45.94325" lon="4.72395">
        <ele>172</ele>
        <time>2018-04-21T08:54:38Z</time>
      </trkpt>
      <trkpt lat="45.94329" lon="4.72402">
        <ele>173</ele>
        <time>2018-04-21T08:54:39Z</time>
      </trkpt>
      <trkpt lat="45.94334" lon="4.72409">
        <ele>173</ele>
        <time>2018-04-21T08:54:40Z</time>
      </trkpt>
      <trkpt lat="45.94337" lon="4.72415">
        <ele>173</ele>
        <time>2018-04-21T08:54:41Z</time>
      </trkpt>
      <trkpt lat="45.9434" lon="4.72422">
        <ele>173</ele>
        <time>2018-04-21T08:54:42Z</time>
      </trkpt>
      <trkpt lat="45.94344" lon="4.72429">
        <ele>173</ele>
        <time>2018-04-21T08:54:43Z</time>
      </trkpt>
      <trkpt lat="45.94348" lon="4.72436">
        <ele>173</ele>
        <time>2018-04-21T08:54:44Z</time>
      </trkpt>
      <trkpt lat="45.94351" lon="4.72442">
        <ele>173</ele>
        <time>2018-04-21T08:54:45Z</time>
      </trkpt>
      <trkpt lat="45.94353" lon="4.72449">
        <ele>173</ele>
        <time>2018-04-21T08:54:46Z</time>
      </trkpt>
      <trkpt lat="45.94355" lon="4.72455">
        <ele>173</ele>
        <time>2018-04-21T08:54:47Z</time>
      </trkpt>
      <trkpt lat="45.94357" lon="4.72462">
        <ele>173</ele>
        <time>2018-04-21T08:54:48Z</time>
      </trkpt>
      <trkpt lat="45.9436" lon="4.72468">
        <ele>173</ele>
        <time>2018-04-21T08:54:49Z</time>
      </trkpt>
      <trkpt lat="45.94363" lon="4.72475">
        <ele>173</ele>
        <time>2018-04-21T08:54:50Z</time>
      </trkpt>
      <trkpt lat="45.94365" lon="4.72481">
        <ele>173</ele>
        <time>2018-04-21T08:54:51Z</time>
      </trkpt>
      <trkpt lat="45.94368" lon="4.72488">
        <ele>173</ele>
        <time>2018-04-21T08:54:52Z</time>
      </trkpt>
      <trkpt lat="45.94371" lon="4.72496">
        <ele>173</ele>
        <time>2018-04-21T08:54:53Z</time>
      </trkpt>
      <trkpt lat="45.94372" lon="4.72504">
        <ele>173</ele>
        <time>2018-04-21T08:54:54Z</time>
      </trkpt>
      <trkpt lat="45.94374" lon="4.7251">
        <ele>173</ele>
        <time>2018-04-21T08:54:55Z</time>
      </trkpt>
      <trkpt lat="45.94375" lon="4.72516">
        <ele>173</ele>
        <time>2018-04-21T08:54:56Z</time>
      </trkpt>
      <trkpt lat="45.94377" lon="4.72523">
        <ele>174</ele>
        <time>2018-04-21T08:54:57Z</time>
      </trkpt>
      <trkpt lat="45.94379" lon="4.72531">
        <ele>174</ele>
        <time>2018-04-21T08:54:58Z</time>
      </trkpt>
      <trkpt lat="45.94383" lon="4.72539">
        <ele>174</ele>
        <time>2018-04-21T08:54:59Z</time>
      </trkpt>
      <trkpt lat="45.94384" lon="4.72551">
        <ele>173</ele>
        <time>2018-04-21T08:55:01Z</time>
      </trkpt>
      <trkpt lat="45.94386" lon="4.72559">
        <ele>173</ele>
        <time>2018-04-21T08:55:02Z</time>
      </trkpt>
      <trkpt lat="45.94388" lon="4.72566">
        <ele>173</ele>
        <time>2018-04-21T08:55:03Z</time>
      </trkpt>
      <trkpt lat="45.9439" lon="4.72573">
        <ele>173</ele>
        <time>2018-04-21T08:55:04Z</time>
      </trkpt>
      <trkpt lat="45.94392" lon="4.72581">
        <ele>173</ele>
        <time>2018-04-21T08:55:05Z</time>
      </trkpt>
      <trkpt lat="45.94395" lon="4.7259">
        <ele>173</ele>
        <time>2018-04-21T08:55:06Z</time>
      </trkpt>
      <trkpt lat="45.94396" lon="4.72598">
        <ele>173</ele>
        <time>2018-04-21T08:55:07Z</time>
      </trkpt>
      <trkpt lat="45.94396" lon="4.72606">
        <ele>173</ele>
        <time>2018-04-21T08:55:08Z</time>
      </trkpt>
      <trkpt lat="45.94397" lon="4.72614">
        <ele>173</ele>
        <time>2018-04-21T08:55:09Z</time>
      </trkpt>
      <trkpt lat="45.94399" lon="4.72621">
        <ele>173</ele>
        <time>2018-04-21T08:55:10Z</time>
      </trkpt>
      <trkpt lat="45.944" lon="4.72628">
        <ele>174</ele>
        <time>2018-04-21T08:55:11Z</time>
      </trkpt>
      <trkpt lat="45.94401" lon="4.72635">
        <ele>174</ele>
        <time>2018-04-21T08:55:12Z</time>
      </trkpt>
      <trkpt lat="45.94403" lon="4.72641">
        <ele>174</ele>
        <time>2018-04-21T08:55:13Z</time>
      </trkpt>
      <trkpt lat="45.94405" lon="4.72648">
        <ele>174</ele>
        <time>2018-04-21T08:55:14Z</time>
      </trkpt>
      <trkpt lat="45.94406" lon="4.72655">
        <ele>174</ele>
        <time>2018-04-21T08:55:15Z</time>
      </trkpt>
      <trkpt lat="45.9441" lon="4.72664">
        <ele>174</ele>
        <time>2018-04-21T08:55:16Z</time>
      </trkpt>
      <trkpt lat="45.9441" lon="4.72671">
        <ele>173</ele>
        <time>2018-04-21T08:55:17Z</time>
      </trkpt>
      <trkpt lat="45.94412" lon="4.72678">
        <ele>173</ele>
        <time>2018-04-21T08:55:18Z</time>
      </trkpt>
      <trkpt lat="45.94412" lon="4.72684">
        <ele>173</ele>
        <time>2018-04-21T08:55:19Z</time>
      </trkpt>
      <trkpt lat="45.94415" lon="4.72692">
        <ele>173</ele>
        <time>2018-04-21T08:55:20Z</time>
      </trkpt>
      <trkpt lat="45.94416" lon="4.72699">
        <ele>172</ele>
        <time>2018-04-21T08:55:21Z</time>
      </trkpt>
      <trkpt lat="45.94416" lon="4.72705">
        <ele>172</ele>
        <time>2018-04-21T08:55:22Z</time>
      </trkpt>
      <trkpt lat="45.94417" lon="4.72716">
        <ele>171</ele>
        <time>2018-04-21T08:55:24Z</time>
      </trkpt>
      <trkpt lat="45.94419" lon="4.72723">
        <ele>171</ele>
        <time>2018-04-21T08:55:25Z</time>
      </trkpt>
      <trkpt lat="45.94419" lon="4.72729">
        <ele>171</ele>
        <time>2018-04-21T08:55:26Z</time>
      </trkpt>
      <trkpt lat="45.9442" lon="4.72736">
        <ele>171</ele>
        <time>2018-04-21T08:55:27Z</time>
      </trkpt>
      <trkpt lat="45.94422" lon="4.72743">
        <ele>171</ele>
        <time>2018-04-21T08:55:28Z</time>
      </trkpt>
      <trkpt lat="45.94421" lon="4.72749">
        <ele>171</ele>
        <time>2018-04-21T08:55:29Z</time>
      </trkpt>
      <trkpt lat="45.94422" lon="4.72756">
        <ele>170</ele>
        <time>2018-04-21T08:55:30Z</time>
      </trkpt>
      <trkpt lat="45.94424" lon="4.72763">
        <ele>169</ele>
        <time>2018-04-21T08:55:31Z</time>
      </trkpt>
      <trkpt lat="45.94425" lon="4.72769">
        <ele>169</ele>
        <time>2018-04-21T08:55:32Z</time>
      </trkpt>
      <trkpt lat="45.94425" lon="4.72776">
        <ele>168</ele>
        <time>2018-04-21T08:55:33Z</time>
      </trkpt>
      <trkpt lat="45.94426" lon="4.72788">
        <ele>168</ele>
        <time>2018-04-21T08:55:35Z</time>
      </trkpt>
      <trkpt lat="45.94427" lon="4.72795">
        <ele>168</ele>
        <time>2018-04-21T08:55:36Z</time>
      </trkpt>
      <trkpt lat="45.94428" lon="4.72807">
        <ele>167</ele>
        <time>2018-04-21T08:55:38Z</time>
      </trkpt>
      <trkpt lat="45.94428" lon="4.72813">
        <ele>167</ele>
        <time>2018-04-21T08:55:39Z</time>
      </trkpt>
      <trkpt lat="45.94429" lon="4.72822">
        <ele>167</ele>
        <time>2018-04-21T08:55:41Z</time>
      </trkpt>
      <trkpt lat="45.9443" lon="4.72828">
        <ele>167</ele>
        <time>2018-04-21T08:55:42Z</time>
      </trkpt>
      <trkpt lat="45.9443" lon="4.72839">
        <ele>166</ele>
        <time>2018-04-21T08:55:44Z</time>
      </trkpt>
      <trkpt lat="45.94431" lon="4.72845">
        <ele>166</ele>
        <time>2018-04-21T08:55:45Z</time>
      </trkpt>
      <trkpt lat="45.94433" lon="4.72856">
        <ele>166</ele>
        <time>2018-04-21T08:55:47Z</time>
      </trkpt>
      <trkpt lat="45.94434" lon="4.72862">
        <ele>166</ele>
        <time>2018-04-21T08:55:48Z</time>
      </trkpt>
      <trkpt lat="45.94434" lon="4.7287">
        <ele>166</ele>
        <time>2018-04-21T08:55:50Z</time>
      </trkpt>
      <trkpt lat="45.94435" lon="4.72877">
        <ele>166</ele>
        <time>2018-04-21T08:55:51Z</time>
      </trkpt>
      <trkpt lat="45.94437" lon="4.72887">
        <ele>166</ele>
        <time>2018-04-21T08:55:53Z</time>
      </trkpt>
      <trkpt lat="45.94438" lon="4.72893">
        <ele>166</ele>
        <time>2018-04-21T08:55:54Z</time>
      </trkpt>
      <trkpt lat="45.94439" lon="4.72903">
        <ele>166</ele>
        <time>2018-04-21T08:55:56Z</time>
      </trkpt>
      <trkpt lat="45.9444" lon="4.72908">
        <ele>166</ele>
        <time>2018-04-21T08:55:57Z</time>
      </trkpt>
      <trkpt lat="45.94442" lon="4.72919">
        <ele>167</ele>
        <time>2018-04-21T08:55:59Z</time>
      </trkpt>
      <trkpt lat="45.94444" lon="4.72925">
        <ele>167</ele>
        <time>2018-04-21T08:56:00Z</time>
      </trkpt>
      <trkpt lat="45.94444" lon="4.72931">
        <ele>167</ele>
        <time>2018-04-21T08:56:01Z</time>
      </trkpt>
      <trkpt lat="45.94445" lon="4.72938">
        <ele>167</ele>
        <time>2018-04-21T08:56:02Z</time>
      </trkpt>
      <trkpt lat="45.94446" lon="4.72945">
        <ele>167</ele>
        <time>2018-04-21T08:56:03Z</time>
      </trkpt>
      <trkpt lat="45.94447" lon="4.72953">
        <ele>167</ele>
        <time>2018-04-21T08:56:04Z</time>
      </trkpt>
      <trkpt lat="45.94447" lon="4.72961">
        <ele>167</ele>
        <time>2018-04-21T08:56:05Z</time>
      </trkpt>
      <trkpt lat="45.94449" lon="4.7297">
        <ele>167</ele>
        <time>2018-04-21T08:56:06Z</time>
      </trkpt>
      <trkpt lat="45.9445" lon="4.72978">
        <ele>167</ele>
        <time>2018-04-21T08:56:07Z</time>
      </trkpt>
      <trkpt lat="45.94452" lon="4.72987">
        <ele>167</ele>
        <time>2018-04-21T08:56:08Z</time>
      </trkpt>
      <trkpt lat="45.94452" lon="4.72996">
        <ele>167</ele>
        <time>2018-04-21T08:56:09Z</time>
      </trkpt>
      <trkpt lat="45.94453" lon="4.73005">
        <ele>169</ele>
        <time>2018-04-21T08:56:10Z</time>
      </trkpt>
      <trkpt lat="45.94454" lon="4.73016">
        <ele>169</ele>
        <time>2018-04-21T08:56:11Z</time>
      </trkpt>
      <trkpt lat="45.94456" lon="4.73025">
        <ele>169</ele>
        <time>2018-04-21T08:56:12Z</time>
      </trkpt>
      <trkpt lat="45.94456" lon="4.73036">
        <ele>169</ele>
        <time>2018-04-21T08:56:13Z</time>
      </trkpt>
      <trkpt lat="45.94458" lon="4.73045">
        <ele>170</ele>
        <time>2018-04-21T08:56:14Z</time>
      </trkpt>
      <trkpt lat="45.94458" lon="4.73055">
        <ele>170</ele>
        <time>2018-04-21T08:56:15Z</time>
      </trkpt>
      <trkpt lat="45.94459" lon="4.73066">
        <ele>170</ele>
        <time>2018-04-21T08:56:16Z</time>
      </trkpt>
      <trkpt lat="45.94461" lon="4.73076">
        <ele>170</ele>
        <time>2018-04-21T08:56:17Z</time>
      </trkpt>
      <trkpt lat="45.94463" lon="4.73086">
        <ele>171</ele>
        <time>2018-04-21T08:56:18Z</time>
      </trkpt>
      <trkpt lat="45.94463" lon="4.73096">
        <ele>171</ele>
        <time>2018-04-21T08:56:19Z</time>
      </trkpt>
      <trkpt lat="45.94464" lon="4.73106">
        <ele>172</ele>
        <time>2018-04-21T08:56:20Z</time>
      </trkpt>
      <trkpt lat="45.94465" lon="4.73115">
        <ele>172</ele>
        <time>2018-04-21T08:56:21Z</time>
      </trkpt>
      <trkpt lat="45.9447" lon="4.73125">
        <ele>172</ele>
        <time>2018-04-21T08:56:22Z</time>
      </trkpt>
      <trkpt lat="45.94472" lon="4.73133">
        <ele>172</ele>
        <time>2018-04-21T08:56:23Z</time>
      </trkpt>
      <trkpt lat="45.94473" lon="4.73141">
        <ele>172</ele>
        <time>2018-04-21T08:56:24Z</time>
      </trkpt>
      <trkpt lat="45.94476" lon="4.7315">
        <ele>172</ele>
        <time>2018-04-21T08:56:25Z</time>
      </trkpt>
      <trkpt lat="45.94478" lon="4.73159">
        <ele>173</ele>
        <time>2018-04-21T08:56:26Z</time>
      </trkpt>
      <trkpt lat="45.94479" lon="4.73167">
        <ele>174</ele>
        <time>2018-04-21T08:56:27Z</time>
      </trkpt>
      <trkpt lat="45.94479" lon="4.73175">
        <ele>174</ele>
        <time>2018-04-21T08:56:28Z</time>
      </trkpt>
      <trkpt lat="45.9448" lon="4.73183">
        <ele>174</ele>
        <time>2018-04-21T08:56:29Z</time>
      </trkpt>
      <trkpt lat="45.9448" lon="4.73191">
        <ele>174</ele>
        <time>2018-04-21T08:56:30Z</time>
      </trkpt>
      <trkpt lat="45.9448" lon="4.73199">
        <ele>174</ele>
        <time>2018-04-21T08:56:31Z</time>
      </trkpt>
      <trkpt lat="45.94481" lon="4.73205">
        <ele>175</ele>
        <time>2018-04-21T08:56:32Z</time>
      </trkpt>
      <trkpt lat="45.94483" lon="4.73214">
        <ele>175</ele>
        <time>2018-04-21T08:56:33Z</time>
      </trkpt>
      <trkpt lat="45.94484" lon="4.73222">
        <ele>175</ele>
        <time>2018-04-21T08:56:34Z</time>
      </trkpt>
      <trkpt lat="45.94484" lon="4.73229">
        <ele>175</ele>
        <time>2018-04-21T08:56:35Z</time>
      </trkpt>
      <trkpt lat="45.94484" lon="4.73236">
        <ele>175</ele>
        <time>2018-04-21T08:56:36Z</time>
      </trkpt>
      <trkpt lat="45.94486" lon="4.73249">
        <ele>175</ele>
        <time>2018-04-21T08:56:38Z</time>
      </trkpt>
      <trkpt lat="45.94486" lon="4.73255">
        <ele>176</ele>
        <time>2018-04-21T08:56:39Z</time>
      </trkpt>
      <trkpt lat="45.94486" lon="4.73264">
        <ele>177</ele>
        <time>2018-04-21T08:56:41Z</time>
      </trkpt>
      <trkpt lat="45.94486" lon="4.73268">
        <ele>177</ele>
        <time>2018-04-21T08:56:42Z</time>
      </trkpt>
      <trkpt lat="45.94487" lon="4.73281">
        <ele>177</ele>
        <time>2018-04-21T08:56:45Z</time>
      </trkpt>
      <trkpt lat="45.94486" lon="4.7329">
        <ele>177</ele>
        <time>2018-04-21T08:56:46Z</time>
      </trkpt>
      <trkpt lat="45.94487" lon="4.73301">
        <ele>177</ele>
        <time>2018-04-21T08:56:48Z</time>
      </trkpt>
      <trkpt lat="45.94487" lon="4.73307">
        <ele>177</ele>
        <time>2018-04-21T08:56:49Z</time>
      </trkpt>
      <trkpt lat="45.94489" lon="4.73319">
        <ele>177</ele>
        <time>2018-04-21T08:56:51Z</time>
      </trkpt>
      <trkpt lat="45.94489" lon="4.73324">
        <ele>177</ele>
        <time>2018-04-21T08:56:52Z</time>
      </trkpt>
      <trkpt lat="45.94489" lon="4.73331">
        <ele>177</ele>
        <time>2018-04-21T08:56:54Z</time>
      </trkpt>
      <trkpt lat="45.9449" lon="4.73341">
        <ele>178</ele>
        <time>2018-04-21T08:56:55Z</time>
      </trkpt>
      <trkpt lat="45.94492" lon="4.73352">
        <ele>178</ele>
        <time>2018-04-21T08:56:57Z</time>
      </trkpt>
      <trkpt lat="45.94493" lon="4.73358">
        <ele>178</ele>
        <time>2018-04-21T08:56:58Z</time>
      </trkpt>
      <trkpt lat="45.94495" lon="4.7337">
        <ele>179</ele>
        <time>2018-04-21T08:57:00Z</time>
      </trkpt>
      <trkpt lat="45.94495" lon="4.73375">
        <ele>179</ele>
        <time>2018-04-21T08:57:01Z</time>
      </trkpt>
      <trkpt lat="45.94497" lon="4.73388">
        <ele>179</ele>
        <time>2018-04-21T08:57:03Z</time>
      </trkpt>
      <trkpt lat="45.94498" lon="4.73394">
        <ele>179</ele>
        <time>2018-04-21T08:57:04Z</time>
      </trkpt>
      <trkpt lat="45.94499" lon="4.73406">
        <ele>180</ele>
        <time>2018-04-21T08:57:06Z</time>
      </trkpt>
      <trkpt lat="45.945" lon="4.73411">
        <ele>180</ele>
        <time>2018-04-21T08:57:07Z</time>
      </trkpt>
      <trkpt lat="45.945" lon="4.73423">
        <ele>180</ele>
        <time>2018-04-21T08:57:09Z</time>
      </trkpt>
      <trkpt lat="45.945" lon="4.73428">
        <ele>180</ele>
        <time>2018-04-21T08:57:10Z</time>
      </trkpt>
      <trkpt lat="45.945" lon="4.73438">
        <ele>181</ele>
        <time>2018-04-21T08:57:12Z</time>
      </trkpt>
      <trkpt lat="45.945" lon="4.73441">
        <ele>181</ele>
        <time>2018-04-21T08:57:13Z</time>
      </trkpt>
      <trkpt lat="45.94501" lon="4.73454">
        <ele>181</ele>
        <time>2018-04-21T08:57:15Z</time>
      </trkpt>
      <trkpt lat="45.94501" lon="4.73456">
        <ele>181</ele>
        <time>2018-04-21T08:57:16Z</time>
      </trkpt>
      <trkpt lat="45.94501" lon="4.73463">
        <ele>181</ele>
        <time>2018-04-21T08:57:18Z</time>
      </trkpt>
      <trkpt lat="45.945" lon="4.73473">
        <ele>182</ele>
        <time>2018-04-21T08:57:19Z</time>
      </trkpt>
      <trkpt lat="45.945" lon="4.73484">
        <ele>182</ele>
        <time>2018-04-21T08:57:21Z</time>
      </trkpt>
      <trkpt lat="45.94498" lon="4.73489">
        <ele>183</ele>
        <time>2018-04-21T08:57:22Z</time>
      </trkpt>
      <trkpt lat="45.94498" lon="4.735">
        <ele>183</ele>
        <time>2018-04-21T08:57:24Z</time>
      </trkpt>
      <trkpt lat="45.94498" lon="4.73506">
        <ele>183</ele>
        <time>2018-04-21T08:57:25Z</time>
      </trkpt>
      <trkpt lat="45.94498" lon="4.73517">
        <ele>184</ele>
        <time>2018-04-21T08:57:27Z</time>
      </trkpt>
      <trkpt lat="45.94498" lon="4.73519">
        <ele>184</ele>
        <time>2018-04-21T08:57:28Z</time>
      </trkpt>
      <trkpt lat="45.94498" lon="4.73526">
        <ele>184</ele>
        <time>2018-04-21T08:57:30Z</time>
      </trkpt>
      <trkpt lat="45.94497" lon="4.73537">
        <ele>184</ele>
        <time>2018-04-21T08:57:31Z</time>
      </trkpt>
      <trkpt lat="45.94496" lon="4.73547">
        <ele>185</ele>
        <time>2018-04-21T08:57:33Z</time>
      </trkpt>
      <trkpt lat="45.94496" lon="4.7355">
        <ele>185</ele>
        <time>2018-04-21T08:57:34Z</time>
      </trkpt>
      <trkpt lat="45.94494" lon="4.7356">
        <ele>185</ele>
        <time>2018-04-21T08:57:36Z</time>
      </trkpt>
      <trkpt lat="45.94494" lon="4.73563">
        <ele>185</ele>
        <time>2018-04-21T08:57:37Z</time>
      </trkpt>
      <trkpt lat="45.94493" lon="4.73566">
        <ele>185</ele>
        <time>2018-04-21T08:57:38Z</time>
      </trkpt>
      <trkpt lat="45.94491" lon="4.73576">
        <ele>185</ele>
        <time>2018-04-21T08:57:39Z</time>
      </trkpt>
      <trkpt lat="45.9449" lon="4.73588">
        <ele>185</ele>
        <time>2018-04-21T08:57:42Z</time>
      </trkpt>
      <trkpt lat="45.94489" lon="4.73598">
        <ele>186</ele>
        <time>2018-04-21T08:57:43Z</time>
      </trkpt>
      <trkpt lat="45.94489" lon="4.73607">
        <ele>186</ele>
        <time>2018-04-21T08:57:45Z</time>
      </trkpt>
      <trkpt lat="45.94489" lon="4.73616">
        <ele>186</ele>
        <time>2018-04-21T08:57:46Z</time>
      </trkpt>
      <trkpt lat="45.94489" lon="4.73622">
        <ele>186</ele>
        <time>2018-04-21T08:57:47Z</time>
      </trkpt>
      <trkpt lat="45.94492" lon="4.73631">
        <ele>186</ele>
        <time>2018-04-21T08:57:48Z</time>
      </trkpt>
      <trkpt lat="45.94491" lon="4.73637">
        <ele>186</ele>
        <time>2018-04-21T08:57:49Z</time>
      </trkpt>
      <trkpt lat="45.94489" lon="4.73643">
        <ele>186</ele>
        <time>2018-04-21T08:57:50Z</time>
      </trkpt>
      <trkpt lat="45.94488" lon="4.73655">
        <ele>185</ele>
        <time>2018-04-21T08:57:52Z</time>
      </trkpt>
      <trkpt lat="45.94486" lon="4.73661">
        <ele>185</ele>
        <time>2018-04-21T08:57:53Z</time>
      </trkpt>
      <trkpt lat="45.94486" lon="4.73669">
        <ele>185</ele>
        <time>2018-04-21T08:57:54Z</time>
      </trkpt>
      <trkpt lat="45.94485" lon="4.73676">
        <ele>186</ele>
        <time>2018-04-21T08:57:55Z</time>
      </trkpt>
      <trkpt lat="45.94484" lon="4.73682">
        <ele>186</ele>
        <time>2018-04-21T08:57:56Z</time>
      </trkpt>
      <trkpt lat="45.94484" lon="4.73689">
        <ele>186</ele>
        <time>2018-04-21T08:57:57Z</time>
      </trkpt>
      <trkpt lat="45.94484" lon="4.73696">
        <ele>186</ele>
        <time>2018-04-21T08:57:58Z</time>
      </trkpt>
      <trkpt lat="45.94482" lon="4.73702">
        <ele>186</ele>
        <time>2018-04-21T08:57:59Z</time>
      </trkpt>
      <trkpt lat="45.9448" lon="4.73714">
        <ele>186</ele>
        <time>2018-04-21T08:58:01Z</time>
      </trkpt>
      <trkpt lat="45.94479" lon="4.73719">
        <ele>186</ele>
        <time>2018-04-21T08:58:02Z</time>
      </trkpt>
      <trkpt lat="45.94479" lon="4.73726">
        <ele>186</ele>
        <time>2018-04-21T08:58:03Z</time>
      </trkpt>
      <trkpt lat="45.94479" lon="4.73733">
        <ele>186</ele>
        <time>2018-04-21T08:58:04Z</time>
      </trkpt>
      <trkpt lat="45.94478" lon="4.73741">
        <ele>186</ele>
        <time>2018-04-21T08:58:06Z</time>
      </trkpt>
      <trkpt lat="45.94477" lon="4.7375">
        <ele>186</ele>
        <time>2018-04-21T08:58:07Z</time>
      </trkpt>
      <trkpt lat="45.94476" lon="4.73757">
        <ele>186</ele>
        <time>2018-04-21T08:58:08Z</time>
      </trkpt>
      <trkpt lat="45.94476" lon="4.73763">
        <ele>186</ele>
        <time>2018-04-21T08:58:09Z</time>
      </trkpt>
      <trkpt lat="45.94477" lon="4.73775">
        <ele>186</ele>
        <time>2018-04-21T08:58:11Z</time>
      </trkpt>
      <trkpt lat="45.94482" lon="4.73778">
        <ele>186</ele>
        <time>2018-04-21T08:58:12Z</time>
      </trkpt>
      <trkpt lat="45.94487" lon="4.73782">
        <ele>186</ele>
        <time>2018-04-21T08:58:13Z</time>
      </trkpt>
      <trkpt lat="45.94492" lon="4.73785">
        <ele>186</ele>
        <time>2018-04-21T08:58:14Z</time>
      </trkpt>
      <trkpt lat="45.94499" lon="4.73791">
        <ele>186</ele>
        <time>2018-04-21T08:58:16Z</time>
      </trkpt>
      <trkpt lat="45.94503" lon="4.73794">
        <ele>186</ele>
        <time>2018-04-21T08:58:17Z</time>
      </trkpt>
      <trkpt lat="45.9451" lon="4.73801">
        <ele>186</ele>
        <time>2018-04-21T08:58:19Z</time>
      </trkpt>
      <trkpt lat="45.94514" lon="4.73805">
        <ele>186</ele>
        <time>2018-04-21T08:58:20Z</time>
      </trkpt>
      <trkpt lat="45.94521" lon="4.73811">
        <ele>186</ele>
        <time>2018-04-21T08:58:22Z</time>
      </trkpt>
      <trkpt lat="45.94525" lon="4.73815">
        <ele>186</ele>
        <time>2018-04-21T08:58:23Z</time>
      </trkpt>
      <trkpt lat="45.94529" lon="4.73818">
        <ele>186</ele>
        <time>2018-04-21T08:58:24Z</time>
      </trkpt>
      <trkpt lat="45.94533" lon="4.73821">
        <ele>186</ele>
        <time>2018-04-21T08:58:25Z</time>
      </trkpt>
      <trkpt lat="45.94537" lon="4.73826">
        <ele>186</ele>
        <time>2018-04-21T08:58:26Z</time>
      </trkpt>
      <trkpt lat="45.9454" lon="4.7383">
        <ele>186</ele>
        <time>2018-04-21T08:58:27Z</time>
      </trkpt>
      <trkpt lat="45.94544" lon="4.73833">
        <ele>186</ele>
        <time>2018-04-21T08:58:28Z</time>
      </trkpt>
      <trkpt lat="45.94549" lon="4.73836">
        <ele>186</ele>
        <time>2018-04-21T08:58:29Z</time>
      </trkpt>
      <trkpt lat="45.94552" lon="4.7384">
        <ele>186</ele>
        <time>2018-04-21T08:58:30Z</time>
      </trkpt>
      <trkpt lat="45.94556" lon="4.73845">
        <ele>186</ele>
        <time>2018-04-21T08:58:31Z</time>
      </trkpt>
      <trkpt lat="45.94559" lon="4.73848">
        <ele>186</ele>
        <time>2018-04-21T08:58:32Z</time>
      </trkpt>
      <trkpt lat="45.94563" lon="4.73854">
        <ele>186</ele>
        <time>2018-04-21T08:58:33Z</time>
      </trkpt>
      <trkpt lat="45.9457" lon="4.73861">
        <ele>186</ele>
        <time>2018-04-21T08:58:35Z</time>
      </trkpt>
      <trkpt lat="45.94573" lon="4.73865">
        <ele>186</ele>
        <time>2018-04-21T08:58:36Z</time>
      </trkpt>
      <trkpt lat="45.9458" lon="4.73872">
        <ele>186</ele>
        <time>2018-04-21T08:58:38Z</time>
      </trkpt>
      <trkpt lat="45.94584" lon="4.73876">
        <ele>187</ele>
        <time>2018-04-21T08:58:39Z</time>
      </trkpt>
      <trkpt lat="45.9459" lon="4.73884">
        <ele>187</ele>
        <time>2018-04-21T08:58:41Z</time>
      </trkpt>
      <trkpt lat="45.94593" lon="4.73888">
        <ele>187</ele>
        <time>2018-04-21T08:58:42Z</time>
      </trkpt>
      <trkpt lat="45.94599" lon="4.73895">
        <ele>187</ele>
        <time>2018-04-21T08:58:44Z</time>
      </trkpt>
      <trkpt lat="45.94602" lon="4.73899">
        <ele>187</ele>
        <time>2018-04-21T08:58:45Z</time>
      </trkpt>
      <trkpt lat="45.94609" lon="4.73906">
        <ele>187</ele>
        <time>2018-04-21T08:58:47Z</time>
      </trkpt>
      <trkpt lat="45.94612" lon="4.7391">
        <ele>187</ele>
        <time>2018-04-21T08:58:48Z</time>
      </trkpt>
      <trkpt lat="45.94618" lon="4.73917">
        <ele>187</ele>
        <time>2018-04-21T08:58:50Z</time>
      </trkpt>
      <trkpt lat="45.94621" lon="4.73921">
        <ele>187</ele>
        <time>2018-04-21T08:58:51Z</time>
      </trkpt>
      <trkpt lat="45.94628" lon="4.73929">
        <ele>187</ele>
        <time>2018-04-21T08:58:53Z</time>
      </trkpt>
      <trkpt lat="45.94631" lon="4.73933">
        <ele>187</ele>
        <time>2018-04-21T08:58:54Z</time>
      </trkpt>
      <trkpt lat="45.94637" lon="4.73941">
        <ele>187</ele>
        <time>2018-04-21T08:58:56Z</time>
      </trkpt>
      <trkpt lat="45.9464" lon="4.73945">
        <ele>187</ele>
        <time>2018-04-21T08:58:57Z</time>
      </trkpt>
      <trkpt lat="45.94646" lon="4.73953">
        <ele>187</ele>
        <time>2018-04-21T08:58:59Z</time>
      </trkpt>
      <trkpt lat="45.94649" lon="4.73957">
        <ele>187</ele>
        <time>2018-04-21T08:59:00Z</time>
      </trkpt>
      <trkpt lat="45.94656" lon="4.73965">
        <ele>187</ele>
        <time>2018-04-21T08:59:02Z</time>
      </trkpt>
      <trkpt lat="45.94659" lon="4.73969">
        <ele>187</ele>
        <time>2018-04-21T08:59:03Z</time>
      </trkpt>
      <trkpt lat="45.94662" lon="4.73973">
        <ele>187</ele>
        <time>2018-04-21T08:59:04Z</time>
      </trkpt>
      <trkpt lat="45.94666" lon="4.73977">
        <ele>187</ele>
        <time>2018-04-21T08:59:05Z</time>
      </trkpt>
      <trkpt lat="45.94669" lon="4.73981">
        <ele>187</ele>
        <time>2018-04-21T08:59:06Z</time>
      </trkpt>
      <trkpt lat="45.94672" lon="4.73986">
        <ele>187</ele>
        <time>2018-04-21T08:59:07Z</time>
      </trkpt>
      <trkpt lat="45.94675" lon="4.7399">
        <ele>187</ele>
        <time>2018-04-21T08:59:08Z</time>
      </trkpt>
      <trkpt lat="45.94679" lon="4.73994">
        <ele>187</ele>
        <time>2018-04-21T08:59:09Z</time>
      </trkpt>
      <trkpt lat="45.94685" lon="4.74002">
        <ele>187</ele>
        <time>2018-04-21T08:59:11Z</time>
      </trkpt>
      <trkpt lat="45.94688" lon="4.74006">
        <ele>187</ele>
        <time>2018-04-21T08:59:12Z</time>
      </trkpt>
      <trkpt lat="45.94695" lon="4.74014">
        <ele>187</ele>
        <time>2018-04-21T08:59:14Z</time>
      </trkpt>
      <trkpt lat="45.94698" lon="4.74019">
        <ele>187</ele>
        <time>2018-04-21T08:59:15Z</time>
      </trkpt>
      <trkpt lat="45.94704" lon="4.74027">
        <ele>187</ele>
        <time>2018-04-21T08:59:17Z</time>
      </trkpt>
      <trkpt lat="45.94708" lon="4.74031">
        <ele>187</ele>
        <time>2018-04-21T08:59:18Z</time>
      </trkpt>
      <trkpt lat="45.94715" lon="4.74039">
        <ele>187</ele>
        <time>2018-04-21T08:59:20Z</time>
      </trkpt>
      <trkpt lat="45.94718" lon="4.74044">
        <ele>187</ele>
        <time>2018-04-21T08:59:21Z</time>
      </trkpt>
      <trkpt lat="45.94721" lon="4.74049">
        <ele>187</ele>
        <time>2018-04-21T08:59:22Z</time>
      </trkpt>
      <trkpt lat="45.94724" lon="4.74053">
        <ele>188</ele>
        <time>2018-04-21T08:59:23Z</time>
      </trkpt>
      <trkpt lat="45.94728" lon="4.74058">
        <ele>188</ele>
        <time>2018-04-21T08:59:24Z</time>
      </trkpt>
      <trkpt lat="45.94732" lon="4.74062">
        <ele>188</ele>
        <time>2018-04-21T08:59:25Z</time>
      </trkpt>
      <trkpt lat="45.94736" lon="4.74067">
        <ele>188</ele>
        <time>2018-04-21T08:59:26Z</time>
      </trkpt>
      <trkpt lat="45.94739" lon="4.74071">
        <ele>188</ele>
        <time>2018-04-21T08:59:27Z</time>
      </trkpt>
      <trkpt lat="45.94742" lon="4.74076">
        <ele>188</ele>
        <time>2018-04-21T08:59:28Z</time>
      </trkpt>
      <trkpt lat="45.94744" lon="4.74082">
        <ele>189</ele>
        <time>2018-04-21T08:59:29Z</time>
      </trkpt>
      <trkpt lat="45.94748" lon="4.74087">
        <ele>189</ele>
        <time>2018-04-21T08:59:30Z</time>
      </trkpt>
      <trkpt lat="45.94751" lon="4.74092">
        <ele>189</ele>
        <time>2018-04-21T08:59:31Z</time>
      </trkpt>
      <trkpt lat="45.94757" lon="4.74101">
        <ele>189</ele>
        <time>2018-04-21T08:59:33Z</time>
      </trkpt>
      <trkpt lat="45.94759" lon="4.74105">
        <ele>189</ele>
        <time>2018-04-21T08:59:34Z</time>
      </trkpt>
      <trkpt lat="45.94766" lon="4.74112">
        <ele>189</ele>
        <time>2018-04-21T08:59:36Z</time>
      </trkpt>
      <trkpt lat="45.94768" lon="4.74117">
        <ele>189</ele>
        <time>2018-04-21T08:59:37Z</time>
      </trkpt>
      <trkpt lat="45.94775" lon="4.74126">
        <ele>189</ele>
        <time>2018-04-21T08:59:39Z</time>
      </trkpt>
      <trkpt lat="45.94778" lon="4.7413">
        <ele>189</ele>
        <time>2018-04-21T08:59:40Z</time>
      </trkpt>
      <trkpt lat="45.94783" lon="4.74139">
        <ele>189</ele>
        <time>2018-04-21T08:59:42Z</time>
      </trkpt>
      <trkpt lat="45.94787" lon="4.74144">
        <ele>189</ele>
        <time>2018-04-21T08:59:43Z</time>
      </trkpt>
      <trkpt lat="45.9479" lon="4.7415">
        <ele>189</ele>
        <time>2018-04-21T08:59:44Z</time>
      </trkpt>
      <trkpt lat="45.94793" lon="4.74154">
        <ele>189</ele>
        <time>2018-04-21T08:59:45Z</time>
      </trkpt>
      <trkpt lat="45.94796" lon="4.74159">
        <ele>189</ele>
        <time>2018-04-21T08:59:46Z</time>
      </trkpt>
      <trkpt lat="45.94799" lon="4.74164">
        <ele>189</ele>
        <time>2018-04-21T08:59:47Z</time>
      </trkpt>
      <trkpt lat="45.94805" lon="4.74173">
        <ele>189</ele>
        <time>2018-04-21T08:59:49Z</time>
      </trkpt>
      <trkpt lat="45.94808" lon="4.74179">
        <ele>189</ele>
        <time>2018-04-21T08:59:50Z</time>
      </trkpt>
      <trkpt lat="45.94811" lon="4.74184">
        <ele>189</ele>
        <time>2018-04-21T08:59:51Z</time>
      </trkpt>
      <trkpt lat="45.94814" lon="4.74189">
        <ele>189</ele>
        <time>2018-04-21T08:59:52Z</time>
      </trkpt>
      <trkpt lat="45.94818" lon="4.74195">
        <ele>189</ele>
        <time>2018-04-21T08:59:53Z</time>
      </trkpt>
      <trkpt lat="45.9482" lon="4.742">
        <ele>189</ele>
        <time>2018-04-21T08:59:54Z</time>
      </trkpt>
      <trkpt lat="45.94822" lon="4.74207">
        <ele>188</ele>
        <time>2018-04-21T08:59:55Z</time>
      </trkpt>
      <trkpt lat="45.94826" lon="4.74214">
        <ele>188</ele>
        <time>2018-04-21T08:59:56Z</time>
      </trkpt>
      <trkpt lat="45.9483" lon="4.74221">
        <ele>188</ele>
        <time>2018-04-21T08:59:57Z</time>
      </trkpt>
      <trkpt lat="45.94831" lon="4.74228">
        <ele>189</ele>
        <time>2018-04-21T08:59:58Z</time>
      </trkpt>
      <trkpt lat="45.94836" lon="4.74234">
        <ele>190</ele>
        <time>2018-04-21T08:59:59Z</time>
      </trkpt>
      <trkpt lat="45.94839" lon="4.7424">
        <ele>190</ele>
        <time>2018-04-21T09:00:00Z</time>
      </trkpt>
      <trkpt lat="45.94841" lon="4.74246">
        <ele>189</ele>
        <time>2018-04-21T09:00:01Z</time>
      </trkpt>
      <trkpt lat="45.94845" lon="4.74252">
        <ele>190</ele>
        <time>2018-04-21T09:00:02Z</time>
      </trkpt>
      <trkpt lat="45.94848" lon="4.74258">
        <ele>190</ele>
        <time>2018-04-21T09:00:03Z</time>
      </trkpt>
      <trkpt lat="45.94851" lon="4.74264">
        <ele>190</ele>
        <time>2018-04-21T09:00:04Z</time>
      </trkpt>
      <trkpt lat="45.94856" lon="4.74271">
        <ele>190</ele>
        <time>2018-04-21T09:00:05Z</time>
      </trkpt>
      <trkpt lat="45.9486" lon="4.74277">
        <ele>190</ele>
        <time>2018-04-21T09:00:06Z</time>
      </trkpt>
      <trkpt lat="45.94864" lon="4.74285">
        <ele>191</ele>
        <time>2018-04-21T09:00:07Z</time>
      </trkpt>
      <trkpt lat="45.94866" lon="4.7429">
        <ele>191</ele>
        <time>2018-04-21T09:00:08Z</time>
      </trkpt>
      <trkpt lat="45.9487" lon="4.74297">
        <ele>191</ele>
        <time>2018-04-21T09:00:09Z</time>
      </trkpt>
      <trkpt lat="45.94873" lon="4.74303">
        <ele>191</ele>
        <time>2018-04-21T09:00:10Z</time>
      </trkpt>
      <trkpt lat="45.94877" lon="4.74309">
        <ele>191</ele>
        <time>2018-04-21T09:00:11Z</time>
      </trkpt>
      <trkpt lat="45.94879" lon="4.74315">
        <ele>191</ele>
        <time>2018-04-21T09:00:12Z</time>
      </trkpt>
      <trkpt lat="45.94882" lon="4.74321">
        <ele>191</ele>
        <time>2018-04-21T09:00:13Z</time>
      </trkpt>
      <trkpt lat="45.94886" lon="4.74327">
        <ele>191</ele>
        <time>2018-04-21T09:00:14Z</time>
      </trkpt>
      <trkpt lat="45.94889" lon="4.74332">
        <ele>191</ele>
        <time>2018-04-21T09:00:15Z</time>
      </trkpt>
      <trkpt lat="45.94892" lon="4.74338">
        <ele>191</ele>
        <time>2018-04-21T09:00:16Z</time>
      </trkpt>
      <trkpt lat="45.94895" lon="4.74344">
        <ele>191</ele>
        <time>2018-04-21T09:00:17Z</time>
      </trkpt>
      <trkpt lat="45.94899" lon="4.7435">
        <ele>191</ele>
        <time>2018-04-21T09:00:18Z</time>
      </trkpt>
      <trkpt lat="45.94901" lon="4.74355">
        <ele>191</ele>
        <time>2018-04-21T09:00:19Z</time>
      </trkpt>
      <trkpt lat="45.94903" lon="4.74361">
        <ele>191</ele>
        <time>2018-04-21T09:00:20Z</time>
      </trkpt>
      <trkpt lat="45.94906" lon="4.74367">
        <ele>191</ele>
        <time>2018-04-21T09:00:21Z</time>
      </trkpt>
      <trkpt lat="45.94909" lon="4.74373">
        <ele>191</ele>
        <time>2018-04-21T09:00:22Z</time>
      </trkpt>
      <trkpt lat="45.94912" lon="4.74378">
        <ele>191</ele>
        <time>2018-04-21T09:00:23Z</time>
      </trkpt>
      <trkpt lat="45.94915" lon="4.74383">
        <ele>191</ele>
        <time>2018-04-21T09:00:24Z</time>
      </trkpt>
      <trkpt lat="45.94921" lon="4.74393">
        <ele>192</ele>
        <time>2018-04-21T09:00:26Z</time>
      </trkpt>
      <trkpt lat="45.94924" lon="4.74399">
        <ele>192</ele>
        <time>2018-04-21T09:00:27Z</time>
      </trkpt>
      <trkpt lat="45.94927" lon="4.74405">
        <ele>192</ele>
        <time>2018-04-21T09:00:28Z</time>
      </trkpt>
      <trkpt lat="45.9493" lon="4.7441">
        <ele>192</ele>
        <time>2018-04-21T09:00:29Z</time>
      </trkpt>
      <trkpt lat="45.94932" lon="4.74415">
        <ele>192</ele>
        <time>2018-04-21T09:00:30Z</time>
      </trkpt>
      <trkpt lat="45.94936" lon="4.74421">
        <ele>192</ele>
        <time>2018-04-21T09:00:31Z</time>
      </trkpt>
      <trkpt lat="45.94938" lon="4.74426">
        <ele>192</ele>
        <time>2018-04-21T09:00:32Z</time>
      </trkpt>
      <trkpt lat="45.9494" lon="4.74432">
        <ele>192</ele>
        <time>2018-04-21T09:00:33Z</time>
      </trkpt>
      <trkpt lat="45.94946" lon="4.74442">
        <ele>192</ele>
        <time>2018-04-21T09:00:35Z</time>
      </trkpt>
      <trkpt lat="45.94949" lon="4.74447">
        <ele>192</ele>
        <time>2018-04-21T09:00:36Z</time>
      </trkpt>
      <trkpt lat="45.94952" lon="4.74453">
        <ele>192</ele>
        <time>2018-04-21T09:00:37Z</time>
      </trkpt>
      <trkpt lat="45.94955" lon="4.74457">
        <ele>192</ele>
        <time>2018-04-21T09:00:38Z</time>
      </trkpt>
      <trkpt lat="45.9496" lon="4.74467">
        <ele>193</ele>
        <time>2018-04-21T09:00:40Z</time>
      </trkpt>
      <trkpt lat="45.94963" lon="4.74472">
        <ele>193</ele>
        <time>2018-04-21T09:00:41Z</time>
      </trkpt>
      <trkpt lat="45.94965" lon="4.74478">
        <ele>193</ele>
        <time>2018-04-21T09:00:42Z</time>
      </trkpt>
      <trkpt lat="45.94968" lon="4.74484">
        <ele>193</ele>
        <time>2018-04-21T09:00:43Z</time>
      </trkpt>
      <trkpt lat="45.9497" lon="4.74489">
        <ele>193</ele>
        <time>2018-04-21T09:00:44Z</time>
      </trkpt>
      <trkpt lat="45.94974" lon="4.74495">
        <ele>193</ele>
        <time>2018-04-21T09:00:45Z</time>
      </trkpt>
      <trkpt lat="45.94977" lon="4.74501">
        <ele>193</ele>
        <time>2018-04-21T09:00:46Z</time>
      </trkpt>
      <trkpt lat="45.9498" lon="4.74507">
        <ele>193</ele>
        <time>2018-04-21T09:00:47Z</time>
      </trkpt>
      <trkpt lat="45.94983" lon="4.74514">
        <ele>193</ele>
        <time>2018-04-21T09:00:48Z</time>
      </trkpt>
      <trkpt lat="45.94987" lon="4.74521">
        <ele>193</ele>
        <time>2018-04-21T09:00:49Z</time>
      </trkpt>
      <trkpt lat="45.9499" lon="4.74526">
        <ele>193</ele>
        <time>2018-04-21T09:00:50Z</time>
      </trkpt>
      <trkpt lat="45.94994" lon="4.74533">
        <ele>193</ele>
        <time>2018-04-21T09:00:51Z</time>
      </trkpt>
      <trkpt lat="45.94997" lon="4.74539">
        <ele>193</ele>
        <time>2018-04-21T09:00:52Z</time>
      </trkpt>
      <trkpt lat="45.95001" lon="4.74544">
        <ele>194</ele>
        <time>2018-04-21T09:00:53Z</time>
      </trkpt>
      <trkpt lat="45.95004" lon="4.7455">
        <ele>194</ele>
        <time>2018-04-21T09:00:54Z</time>
      </trkpt>
      <trkpt lat="45.95008" lon="4.74557">
        <ele>194</ele>
        <time>2018-04-21T09:00:55Z</time>
      </trkpt>
      <trkpt lat="45.95011" lon="4.74563">
        <ele>194</ele>
        <time>2018-04-21T09:00:56Z</time>
      </trkpt>
      <trkpt lat="45.95013" lon="4.7457">
        <ele>194</ele>
        <time>2018-04-21T09:00:57Z</time>
      </trkpt>
      <trkpt lat="45.95016" lon="4.74575">
        <ele>194</ele>
        <time>2018-04-21T09:00:58Z</time>
      </trkpt>
      <trkpt lat="45.95019" lon="4.74582">
        <ele>194</ele>
        <time>2018-04-21T09:00:59Z</time>
      </trkpt>
      <trkpt lat="45.95023" lon="4.7459">
        <ele>194</ele>
        <time>2018-04-21T09:01:00Z</time>
      </trkpt>
      <trkpt lat="45.95027" lon="4.74595">
        <ele>194</ele>
        <time>2018-04-21T09:01:01Z</time>
      </trkpt>
      <trkpt lat="45.95031" lon="4.74601">
        <ele>194</ele>
        <time>2018-04-21T09:01:02Z</time>
      </trkpt>
      <trkpt lat="45.95034" lon="4.74608">
        <ele>194</ele>
        <time>2018-04-21T09:01:03Z</time>
      </trkpt>
      <trkpt lat="45.95038" lon="4.74614">
        <ele>194</ele>
        <time>2018-04-21T09:01:04Z</time>
      </trkpt>
      <trkpt lat="45.95042" lon="4.7462">
        <ele>194</ele>
        <time>2018-04-21T09:01:05Z</time>
      </trkpt>
      <trkpt lat="45.95046" lon="4.74628">
        <ele>194</ele>
        <time>2018-04-21T09:01:06Z</time>
      </trkpt>
      <trkpt lat="45.9505" lon="4.74633">
        <ele>194</ele>
        <time>2018-04-21T09:01:07Z</time>
      </trkpt>
      <trkpt lat="45.95053" lon="4.74639">
        <ele>194</ele>
        <time>2018-04-21T09:01:08Z</time>
      </trkpt>
      <trkpt lat="45.95057" lon="4.74645">
        <ele>194</ele>
        <time>2018-04-21T09:01:09Z</time>
      </trkpt>
      <trkpt lat="45.9506" lon="4.74651">
        <ele>194</ele>
        <time>2018-04-21T09:01:10Z</time>
      </trkpt>
      <trkpt lat="45.95063" lon="4.74657">
        <ele>195</ele>
        <time>2018-04-21T09:01:11Z</time>
      </trkpt>
      <trkpt lat="45.95067" lon="4.74663">
        <ele>195</ele>
        <time>2018-04-21T09:01:12Z</time>
      </trkpt>
      <trkpt lat="45.95071" lon="4.7467">
        <ele>194</ele>
        <time>2018-04-21T09:01:13Z</time>
      </trkpt>
      <trkpt lat="45.95074" lon="4.74676">
        <ele>194</ele>
        <time>2018-04-21T09:01:14Z</time>
      </trkpt>
      <trkpt lat="45.95076" lon="4.74682">
        <ele>194</ele>
        <time>2018-04-21T09:01:15Z</time>
      </trkpt>
      <trkpt lat="45.95081" lon="4.7469">
        <ele>194</ele>
        <time>2018-04-21T09:01:16Z</time>
      </trkpt>
      <trkpt lat="45.95082" lon="4.74695">
        <ele>194</ele>
        <time>2018-04-21T09:01:17Z</time>
      </trkpt>
      <trkpt lat="45.95085" lon="4.74701">
        <ele>194</ele>
        <time>2018-04-21T09:01:18Z</time>
      </trkpt>
      <trkpt lat="45.95089" lon="4.74707">
        <ele>194</ele>
        <time>2018-04-21T09:01:19Z</time>
      </trkpt>
      <trkpt lat="45.95092" lon="4.74714">
        <ele>194</ele>
        <time>2018-04-21T09:01:20Z</time>
      </trkpt>
      <trkpt lat="45.95094" lon="4.7472">
        <ele>194</ele>
        <time>2018-04-21T09:01:21Z</time>
      </trkpt>
      <trkpt lat="45.95098" lon="4.74726">
        <ele>194</ele>
        <time>2018-04-21T09:01:22Z</time>
      </trkpt>
      <trkpt lat="45.95101" lon="4.74732">
        <ele>194</ele>
        <time>2018-04-21T09:01:23Z</time>
      </trkpt>
      <trkpt lat="45.95106" lon="4.74739">
        <ele>194</ele>
        <time>2018-04-21T09:01:24Z</time>
      </trkpt>
      <trkpt lat="45.95109" lon="4.74744">
        <ele>194</ele>
        <time>2018-04-21T09:01:25Z</time>
      </trkpt>
      <trkpt lat="45.95113" lon="4.7475">
        <ele>194</ele>
        <time>2018-04-21T09:01:26Z</time>
      </trkpt>
      <trkpt lat="45.95116" lon="4.74756">
        <ele>194</ele>
        <time>2018-04-21T09:01:27Z</time>
      </trkpt>
      <trkpt lat="45.9512" lon="4.74761">
        <ele>194</ele>
        <time>2018-04-21T09:01:28Z</time>
      </trkpt>
      <trkpt lat="45.95124" lon="4.74766">
        <ele>194</ele>
        <time>2018-04-21T09:01:29Z</time>
      </trkpt>
      <trkpt lat="45.95128" lon="4.74772">
        <ele>194</ele>
        <time>2018-04-21T09:01:30Z</time>
      </trkpt>
      <trkpt lat="45.95132" lon="4.74777">
        <ele>194</ele>
        <time>2018-04-21T09:01:31Z</time>
      </trkpt>
      <trkpt lat="45.95135" lon="4.74784">
        <ele>194</ele>
        <time>2018-04-21T09:01:32Z</time>
      </trkpt>
      <trkpt lat="45.95139" lon="4.74789">
        <ele>194</ele>
        <time>2018-04-21T09:01:33Z</time>
      </trkpt>
      <trkpt lat="45.95142" lon="4.74794">
        <ele>194</ele>
        <time>2018-04-21T09:01:34Z</time>
      </trkpt>
      <trkpt lat="45.95146" lon="4.748">
        <ele>194</ele>
        <time>2018-04-21T09:01:35Z</time>
      </trkpt>
      <trkpt lat="45.95149" lon="4.74804">
        <ele>194</ele>
        <time>2018-04-21T09:01:36Z</time>
      </trkpt>
      <trkpt lat="45.95154" lon="4.74811">
        <ele>194</ele>
        <time>2018-04-21T09:01:37Z</time>
      </trkpt>
      <trkpt lat="45.95156" lon="4.74817">
        <ele>194</ele>
        <time>2018-04-21T09:01:38Z</time>
      </trkpt>
      <trkpt lat="45.9516" lon="4.74823">
        <ele>194</ele>
        <time>2018-04-21T09:01:39Z</time>
      </trkpt>
      <trkpt lat="45.95163" lon="4.74829">
        <ele>194</ele>
        <time>2018-04-21T09:01:40Z</time>
      </trkpt>
      <trkpt lat="45.95166" lon="4.74834">
        <ele>194</ele>
        <time>2018-04-21T09:01:41Z</time>
      </trkpt>
      <trkpt lat="45.95169" lon="4.7484">
        <ele>194</ele>
        <time>2018-04-21T09:01:42Z</time>
      </trkpt>
      <trkpt lat="45.95172" lon="4.74845">
        <ele>194</ele>
        <time>2018-04-21T09:01:43Z</time>
      </trkpt>
      <trkpt lat="45.95174" lon="4.74851">
        <ele>194</ele>
        <time>2018-04-21T09:01:44Z</time>
      </trkpt>
      <trkpt lat="45.95178" lon="4.74856">
        <ele>194</ele>
        <time>2018-04-21T09:01:45Z</time>
      </trkpt>
      <trkpt lat="45.95182" lon="4.74862">
        <ele>194</ele>
        <time>2018-04-21T09:01:46Z</time>
      </trkpt>
      <trkpt lat="45.95186" lon="4.74868">
        <ele>194</ele>
        <time>2018-04-21T09:01:47Z</time>
      </trkpt>
      <trkpt lat="45.95189" lon="4.74875">
        <ele>194</ele>
        <time>2018-04-21T09:01:48Z</time>
      </trkpt>
      <trkpt lat="45.95193" lon="4.74881">
        <ele>194</ele>
        <time>2018-04-21T09:01:49Z</time>
      </trkpt>
      <trkpt lat="45.95197" lon="4.74886">
        <ele>194</ele>
        <time>2018-04-21T09:01:50Z</time>
      </trkpt>
      <trkpt lat="45.952" lon="4.74892">
        <ele>194</ele>
        <time>2018-04-21T09:01:51Z</time>
      </trkpt>
      <trkpt lat="45.95204" lon="4.74897">
        <ele>194</ele>
        <time>2018-04-21T09:01:52Z</time>
      </trkpt>
      <trkpt lat="45.95207" lon="4.74903">
        <ele>194</ele>
        <time>2018-04-21T09:01:53Z</time>
      </trkpt>
      <trkpt lat="45.95213" lon="4.74912">
        <ele>193</ele>
        <time>2018-04-21T09:01:55Z</time>
      </trkpt>
      <trkpt lat="45.95217" lon="4.74916">
        <ele>193</ele>
        <time>2018-04-21T09:01:56Z</time>
      </trkpt>
      <trkpt lat="45.9522" lon="4.74921">
        <ele>192</ele>
        <time>2018-04-21T09:01:57Z</time>
      </trkpt>
      <trkpt lat="45.95223" lon="4.74926">
        <ele>192</ele>
        <time>2018-04-21T09:01:58Z</time>
      </trkpt>
      <trkpt lat="45.95228" lon="4.74931">
        <ele>192</ele>
        <time>2018-04-21T09:01:59Z</time>
      </trkpt>
      <trkpt lat="45.95232" lon="4.74937">
        <ele>192</ele>
        <time>2018-04-21T09:02:00Z</time>
      </trkpt>
      <trkpt lat="45.95235" lon="4.74943">
        <ele>192</ele>
        <time>2018-04-21T09:02:01Z</time>
      </trkpt>
      <trkpt lat="45.95239" lon="4.74948">
        <ele>192</ele>
        <time>2018-04-21T09:02:02Z</time>
      </trkpt>
      <trkpt lat="45.95243" lon="4.74954">
        <ele>192</ele>
        <time>2018-04-21T09:02:03Z</time>
      </trkpt>
      <trkpt lat="45.95247" lon="4.74959">
        <ele>192</ele>
        <time>2018-04-21T09:02:04Z</time>
      </trkpt>
      <trkpt lat="45.95251" lon="4.74964">
        <ele>192</ele>
        <time>2018-04-21T09:02:05Z</time>
      </trkpt>
      <trkpt lat="45.95254" lon="4.7497">
        <ele>192</ele>
        <time>2018-04-21T09:02:06Z</time>
      </trkpt>
      <trkpt lat="45.95258" lon="4.74977">
        <ele>192</ele>
        <time>2018-04-21T09:02:07Z</time>
      </trkpt>
      <trkpt lat="45.95263" lon="4.74983">
        <ele>192</ele>
        <time>2018-04-21T09:02:08Z</time>
      </trkpt>
      <trkpt lat="45.95266" lon="4.7499">
        <ele>192</ele>
        <time>2018-04-21T09:02:09Z</time>
      </trkpt>
      <trkpt lat="45.9527" lon="4.74994">
        <ele>192</ele>
        <time>2018-04-21T09:02:10Z</time>
      </trkpt>
      <trkpt lat="45.95274" lon="4.75">
        <ele>192</ele>
        <time>2018-04-21T09:02:11Z</time>
      </trkpt>
      <trkpt lat="45.95276" lon="4.75006">
        <ele>191</ele>
        <time>2018-04-21T09:02:12Z</time>
      </trkpt>
      <trkpt lat="45.95281" lon="4.75011">
        <ele>191</ele>
        <time>2018-04-21T09:02:13Z</time>
      </trkpt>
      <trkpt lat="45.95284" lon="4.75017">
        <ele>191</ele>
        <time>2018-04-21T09:02:14Z</time>
      </trkpt>
      <trkpt lat="45.95288" lon="4.75022">
        <ele>191</ele>
        <time>2018-04-21T09:02:15Z</time>
      </trkpt>
      <trkpt lat="45.95292" lon="4.75028">
        <ele>191</ele>
        <time>2018-04-21T09:02:16Z</time>
      </trkpt>
      <trkpt lat="45.95296" lon="4.75034">
        <ele>191</ele>
        <time>2018-04-21T09:02:17Z</time>
      </trkpt>
      <trkpt lat="45.953" lon="4.75041">
        <ele>191</ele>
        <time>2018-04-21T09:02:18Z</time>
      </trkpt>
      <trkpt lat="45.95304" lon="4.75048">
        <ele>191</ele>
        <time>2018-04-21T09:02:19Z</time>
      </trkpt>
      <trkpt lat="45.95308" lon="4.75055">
        <ele>192</ele>
        <time>2018-04-21T09:02:20Z</time>
      </trkpt>
      <trkpt lat="45.95312" lon="4.75062">
        <ele>192</ele>
        <time>2018-04-21T09:02:21Z</time>
      </trkpt>
      <trkpt lat="45.95316" lon="4.75068">
        <ele>192</ele>
        <time>2018-04-21T09:02:22Z</time>
      </trkpt>
      <trkpt lat="45.9532" lon="4.75075">
        <ele>192</ele>
        <time>2018-04-21T09:02:23Z</time>
      </trkpt>
      <trkpt lat="45.95324" lon="4.75081">
        <ele>192</ele>
        <time>2018-04-21T09:02:24Z</time>
      </trkpt>
      <trkpt lat="45.95328" lon="4.75087">
        <ele>192</ele>
        <time>2018-04-21T09:02:25Z</time>
      </trkpt>
      <trkpt lat="45.95331" lon="4.75092">
        <ele>191</ele>
        <time>2018-04-21T09:02:26Z</time>
      </trkpt>
      <trkpt lat="45.95335" lon="4.75098">
        <ele>192</ele>
        <time>2018-04-21T09:02:27Z</time>
      </trkpt>
      <trkpt lat="45.95339" lon="4.75104">
        <ele>192</ele>
        <time>2018-04-21T09:02:28Z</time>
      </trkpt>
      <trkpt lat="45.95342" lon="4.7511">
        <ele>192</ele>
        <time>2018-04-21T09:02:29Z</time>
      </trkpt>
      <trkpt lat="45.95347" lon="4.75116">
        <ele>192</ele>
        <time>2018-04-21T09:02:30Z</time>
      </trkpt>
      <trkpt lat="45.95352" lon="4.75122">
        <ele>191</ele>
        <time>2018-04-21T09:02:31Z</time>
      </trkpt>
      <trkpt lat="45.95356" lon="4.75129">
        <ele>191</ele>
        <time>2018-04-21T09:02:32Z</time>
      </trkpt>
      <trkpt lat="45.95361" lon="4.75136">
        <ele>191</ele>
        <time>2018-04-21T09:02:33Z</time>
      </trkpt>
      <trkpt lat="45.95365" lon="4.75142">
        <ele>191</ele>
        <time>2018-04-21T09:02:34Z</time>
      </trkpt>
      <trkpt lat="45.95369" lon="4.75148">
        <ele>191</ele>
        <time>2018-04-21T09:02:35Z</time>
      </trkpt>
      <trkpt lat="45.95373" lon="4.75155">
        <ele>191</ele>
        <time>2018-04-21T09:02:36Z</time>
      </trkpt>
      <trkpt lat="45.95378" lon="4.75161">
        <ele>191</ele>
        <time>2018-04-21T09:02:37Z</time>
      </trkpt>
      <trkpt lat="45.95381" lon="4.75167">
        <ele>189</ele>
        <time>2018-04-21T09:02:38Z</time>
      </trkpt>
      <trkpt lat="45.95385" lon="4.75174">
        <ele>189</ele>
        <time>2018-04-21T09:02:39Z</time>
      </trkpt>
      <trkpt lat="45.95389" lon="4.75181">
        <ele>189</ele>
        <time>2018-04-21T09:02:40Z</time>
      </trkpt>
      <trkpt lat="45.95392" lon="4.75187">
        <ele>189</ele>
        <time>2018-04-21T09:02:41Z</time>
      </trkpt>
      <trkpt lat="45.95396" lon="4.75194">
        <ele>189</ele>
        <time>2018-04-21T09:02:42Z</time>
      </trkpt>
      <trkpt lat="45.954" lon="4.75202">
        <ele>189</ele>
        <time>2018-04-21T09:02:43Z</time>
      </trkpt>
      <trkpt lat="45.95404" lon="4.75208">
        <ele>189</ele>
        <time>2018-04-21T09:02:44Z</time>
      </trkpt>
      <trkpt lat="45.95408" lon="4.75215">
        <ele>189</ele>
        <time>2018-04-21T09:02:45Z</time>
      </trkpt>
      <trkpt lat="45.95411" lon="4.75221">
        <ele>189</ele>
        <time>2018-04-21T09:02:46Z</time>
      </trkpt>
      <trkpt lat="45.95415" lon="4.75228">
        <ele>189</ele>
        <time>2018-04-21T09:02:47Z</time>
      </trkpt>
      <trkpt lat="45.95418" lon="4.75234">
        <ele>190</ele>
        <time>2018-04-21T09:02:48Z</time>
      </trkpt>
      <trkpt lat="45.95422" lon="4.7524">
        <ele>190</ele>
        <time>2018-04-21T09:02:49Z</time>
      </trkpt>
      <trkpt lat="45.95425" lon="4.75247">
        <ele>190</ele>
        <time>2018-04-21T09:02:50Z</time>
      </trkpt>
      <trkpt lat="45.95429" lon="4.75253">
        <ele>189</ele>
        <time>2018-04-21T09:02:51Z</time>
      </trkpt>
      <trkpt lat="45.95432" lon="4.75258">
        <ele>189</ele>
        <time>2018-04-21T09:02:52Z</time>
      </trkpt>
      <trkpt lat="45.95435" lon="4.75264">
        <ele>189</ele>
        <time>2018-04-21T09:02:53Z</time>
      </trkpt>
      <trkpt lat="45.95439" lon="4.75271">
        <ele>189</ele>
        <time>2018-04-21T09:02:54Z</time>
      </trkpt>
      <trkpt lat="45.95443" lon="4.75277">
        <ele>189</ele>
        <time>2018-04-21T09:02:55Z</time>
      </trkpt>
      <trkpt lat="45.95446" lon="4.75285">
        <ele>188</ele>
        <time>2018-04-21T09:02:56Z</time>
      </trkpt>
      <trkpt lat="45.95449" lon="4.75292">
        <ele>188</ele>
        <time>2018-04-21T09:02:57Z</time>
      </trkpt>
      <trkpt lat="45.95453" lon="4.75298">
        <ele>188</ele>
        <time>2018-04-21T09:02:58Z</time>
      </trkpt>
      <trkpt lat="45.95456" lon="4.75304">
        <ele>188</ele>
        <time>2018-04-21T09:02:59Z</time>
      </trkpt>
      <trkpt lat="45.95458" lon="4.75312">
        <ele>188</ele>
        <time>2018-04-21T09:03:00Z</time>
      </trkpt>
      <trkpt lat="45.95462" lon="4.7532">
        <ele>188</ele>
        <time>2018-04-21T09:03:01Z</time>
      </trkpt>
      <trkpt lat="45.95466" lon="4.75326">
        <ele>188</ele>
        <time>2018-04-21T09:03:02Z</time>
      </trkpt>
      <trkpt lat="45.9547" lon="4.75333">
        <ele>186</ele>
        <time>2018-04-21T09:03:03Z</time>
      </trkpt>
      <trkpt lat="45.95474" lon="4.75342">
        <ele>186</ele>
        <time>2018-04-21T09:03:04Z</time>
      </trkpt>
      <trkpt lat="45.95479" lon="4.75349">
        <ele>186</ele>
        <time>2018-04-21T09:03:05Z</time>
      </trkpt>
      <trkpt lat="45.95482" lon="4.75357">
        <ele>186</ele>
        <time>2018-04-21T09:03:06Z</time>
      </trkpt>
      <trkpt lat="45.95485" lon="4.75364">
        <ele>186</ele>
        <time>2018-04-21T09:03:07Z</time>
      </trkpt>
      <trkpt lat="45.95489" lon="4.75372">
        <ele>185</ele>
        <time>2018-04-21T09:03:08Z</time>
      </trkpt>
      <trkpt lat="45.95491" lon="4.75378">
        <ele>185</ele>
        <time>2018-04-21T09:03:09Z</time>
      </trkpt>
      <trkpt lat="45.95495" lon="4.75386">
        <ele>185</ele>
        <time>2018-04-21T09:03:10Z</time>
      </trkpt>
      <trkpt lat="45.95497" lon="4.75394">
        <ele>185</ele>
        <time>2018-04-21T09:03:11Z</time>
      </trkpt>
      <trkpt lat="45.955" lon="4.75402">
        <ele>187</ele>
        <time>2018-04-21T09:03:12Z</time>
      </trkpt>
      <trkpt lat="45.95503" lon="4.7541">
        <ele>186</ele>
        <time>2018-04-21T09:03:13Z</time>
      </trkpt>
      <trkpt lat="45.95505" lon="4.75419">
        <ele>186</ele>
        <time>2018-04-21T09:03:14Z</time>
      </trkpt>
      <trkpt lat="45.95507" lon="4.75428">
        <ele>186</ele>
        <time>2018-04-21T09:03:15Z</time>
      </trkpt>
      <trkpt lat="45.95509" lon="4.75439">
        <ele>186</ele>
        <time>2018-04-21T09:03:16Z</time>
      </trkpt>
      <trkpt lat="45.9551" lon="4.75448">
        <ele>187</ele>
        <time>2018-04-21T09:03:17Z</time>
      </trkpt>
      <trkpt lat="45.9551" lon="4.75458">
        <ele>187</ele>
        <time>2018-04-21T09:03:18Z</time>
      </trkpt>
      <trkpt lat="45.9551" lon="4.75468">
        <ele>186</ele>
        <time>2018-04-21T09:03:19Z</time>
      </trkpt>
      <trkpt lat="45.9551" lon="4.75477">
        <ele>186</ele>
        <time>2018-04-21T09:03:20Z</time>
      </trkpt>
      <trkpt lat="45.95514" lon="4.75486">
        <ele>186</ele>
        <time>2018-04-21T09:03:21Z</time>
      </trkpt>
      <trkpt lat="45.95517" lon="4.75492">
        <ele>186</ele>
        <time>2018-04-21T09:03:22Z</time>
      </trkpt>
      <trkpt lat="45.95523" lon="4.75497">
        <ele>186</ele>
        <time>2018-04-21T09:03:23Z</time>
      </trkpt>
      <trkpt lat="45.95529" lon="4.75498">
        <ele>186</ele>
        <time>2018-04-21T09:03:24Z</time>
      </trkpt>
      <trkpt lat="45.95532" lon="4.75496">
        <ele>187</ele>
        <time>2018-04-21T09:03:25Z</time>
      </trkpt>
      <trkpt lat="45.95536" lon="4.75491">
        <ele>187</ele>
        <time>2018-04-21T09:03:26Z</time>
      </trkpt>
      <trkpt lat="45.9554" lon="4.75487">
        <ele>187</ele>
        <time>2018-04-21T09:03:27Z</time>
      </trkpt>
      <trkpt lat="45.95543" lon="4.75481">
        <ele>187</ele>
        <time>2018-04-21T09:03:28Z</time>
      </trkpt>
      <trkpt lat="45.95547" lon="4.75475">
        <ele>187</ele>
        <time>2018-04-21T09:03:29Z</time>
      </trkpt>
      <trkpt lat="45.9555" lon="4.75469">
        <ele>188</ele>
        <time>2018-04-21T09:03:30Z</time>
      </trkpt>
      <trkpt lat="45.95553" lon="4.75465">
        <ele>188</ele>
        <time>2018-04-21T09:03:31Z</time>
      </trkpt>
      <trkpt lat="45.95557" lon="4.75461">
        <ele>188</ele>
        <time>2018-04-21T09:03:32Z</time>
      </trkpt>
      <trkpt lat="45.95561" lon="4.75459">
        <ele>188</ele>
        <time>2018-04-21T09:03:33Z</time>
      </trkpt>
      <trkpt lat="45.95566" lon="4.75455">
        <ele>188</ele>
        <time>2018-04-21T09:03:34Z</time>
      </trkpt>
      <trkpt lat="45.9557" lon="4.75452">
        <ele>189</ele>
        <time>2018-04-21T09:03:35Z</time>
      </trkpt>
      <trkpt lat="45.95574" lon="4.75448">
        <ele>189</ele>
        <time>2018-04-21T09:03:36Z</time>
      </trkpt>
      <trkpt lat="45.95582" lon="4.75442">
        <ele>189</ele>
        <time>2018-04-21T09:03:38Z</time>
      </trkpt>
      <trkpt lat="45.95584" lon="4.75441">
        <ele>192</ele>
        <time>2018-04-21T09:03:39Z</time>
      </trkpt>
      <trkpt lat="45.95589" lon="4.75438">
        <ele>192</ele>
        <time>2018-04-21T09:03:40Z</time>
      </trkpt>
      <trkpt lat="45.95593" lon="4.75435">
        <ele>192</ele>
        <time>2018-04-21T09:03:41Z</time>
      </trkpt>
      <trkpt lat="45.95598" lon="4.75431">
        <ele>192</ele>
        <time>2018-04-21T09:03:42Z</time>
      </trkpt>
      <trkpt lat="45.95602" lon="4.75428">
        <ele>192</ele>
        <time>2018-04-21T09:03:43Z</time>
      </trkpt>
      <trkpt lat="45.9561" lon="4.75423">
        <ele>192</ele>
        <time>2018-04-21T09:03:45Z</time>
      </trkpt>
      <trkpt lat="45.95614" lon="4.7542">
        <ele>192</ele>
        <time>2018-04-21T09:03:46Z</time>
      </trkpt>
      <trkpt lat="45.9562" lon="4.75414">
        <ele>193</ele>
        <time>2018-04-21T09:03:48Z</time>
      </trkpt>
      <trkpt lat="45.95624" lon="4.75411">
        <ele>193</ele>
        <time>2018-04-21T09:03:49Z</time>
      </trkpt>
      <trkpt lat="45.95631" lon="4.75406">
        <ele>193</ele>
        <time>2018-04-21T09:03:51Z</time>
      </trkpt>
      <trkpt lat="45.95634" lon="4.75403">
        <ele>193</ele>
        <time>2018-04-21T09:03:52Z</time>
      </trkpt>
      <trkpt lat="45.95641" lon="4.75397">
        <ele>193</ele>
        <time>2018-04-21T09:03:54Z</time>
      </trkpt>
      <trkpt lat="45.95645" lon="4.75394">
        <ele>193</ele>
        <time>2018-04-21T09:03:55Z</time>
      </trkpt>
      <trkpt lat="45.95652" lon="4.75388">
        <ele>193</ele>
        <time>2018-04-21T09:03:57Z</time>
      </trkpt>
      <trkpt lat="45.95656" lon="4.75385">
        <ele>193</ele>
        <time>2018-04-21T09:03:58Z</time>
      </trkpt>
      <trkpt lat="45.95661" lon="4.75381">
        <ele>193</ele>
        <time>2018-04-21T09:04:00Z</time>
      </trkpt>
      <trkpt lat="45.95665" lon="4.75378">
        <ele>193</ele>
        <time>2018-04-21T09:04:01Z</time>
      </trkpt>
      <trkpt lat="45.9567" lon="4.75373">
        <ele>193</ele>
        <time>2018-04-21T09:04:03Z</time>
      </trkpt>
      <trkpt lat="45.95674" lon="4.75369">
        <ele>193</ele>
        <time>2018-04-21T09:04:04Z</time>
      </trkpt>
      <trkpt lat="45.95679" lon="4.75364">
        <ele>193</ele>
        <time>2018-04-21T09:04:06Z</time>
      </trkpt>
      <trkpt lat="45.95683" lon="4.7536">
        <ele>193</ele>
        <time>2018-04-21T09:04:07Z</time>
      </trkpt>
      <trkpt lat="45.95689" lon="4.75354">
        <ele>193</ele>
        <time>2018-04-21T09:04:09Z</time>
      </trkpt>
      <trkpt lat="45.95692" lon="4.75351">
        <ele>193</ele>
        <time>2018-04-21T09:04:10Z</time>
      </trkpt>
      <trkpt lat="45.95699" lon="4.75346">
        <ele>193</ele>
        <time>2018-04-21T09:04:12Z</time>
      </trkpt>
      <trkpt lat="45.95702" lon="4.75343">
        <ele>193</ele>
        <time>2018-04-21T09:04:13Z</time>
      </trkpt>
      <trkpt lat="45.95708" lon="4.75337">
        <ele>193</ele>
        <time>2018-04-21T09:04:15Z</time>
      </trkpt>
      <trkpt lat="45.95711" lon="4.75334">
        <ele>193</ele>
        <time>2018-04-21T09:04:16Z</time>
      </trkpt>
      <trkpt lat="45.95718" lon="4.75327">
        <ele>193</ele>
        <time>2018-04-21T09:04:18Z</time>
      </trkpt>
      <trkpt lat="45.95722" lon="4.75323">
        <ele>193</ele>
        <time>2018-04-21T09:04:19Z</time>
      </trkpt>
      <trkpt lat="45.95728" lon="4.75315">
        <ele>193</ele>
        <time>2018-04-21T09:04:21Z</time>
      </trkpt>
      <trkpt lat="45.95732" lon="4.75311">
        <ele>193</ele>
        <time>2018-04-21T09:04:22Z</time>
      </trkpt>
      <trkpt lat="45.95738" lon="4.75303">
        <ele>193</ele>
        <time>2018-04-21T09:04:24Z</time>
      </trkpt>
      <trkpt lat="45.95742" lon="4.75299">
        <ele>193</ele>
        <time>2018-04-21T09:04:25Z</time>
      </trkpt>
      <trkpt lat="45.95746" lon="4.75295">
        <ele>193</ele>
        <time>2018-04-21T09:04:26Z</time>
      </trkpt>
      <trkpt lat="45.9575" lon="4.75291">
        <ele>193</ele>
        <time>2018-04-21T09:04:27Z</time>
      </trkpt>
      <trkpt lat="45.95754" lon="4.75285">
        <ele>193</ele>
        <time>2018-04-21T09:04:28Z</time>
      </trkpt>
      <trkpt lat="45.95759" lon="4.7528">
        <ele>193</ele>
        <time>2018-04-21T09:04:29Z</time>
      </trkpt>
      <trkpt lat="45.95763" lon="4.75276">
        <ele>193</ele>
        <time>2018-04-21T09:04:30Z</time>
      </trkpt>
      <trkpt lat="45.95767" lon="4.75271">
        <ele>193</ele>
        <time>2018-04-21T09:04:31Z</time>
      </trkpt>
      <trkpt lat="45.95774" lon="4.75264">
        <ele>193</ele>
        <time>2018-04-21T09:04:33Z</time>
      </trkpt>
      <trkpt lat="45.95778" lon="4.7526">
        <ele>193</ele>
        <time>2018-04-21T09:04:34Z</time>
      </trkpt>
      <trkpt lat="45.95782" lon="4.75256">
        <ele>193</ele>
        <time>2018-04-21T09:04:35Z</time>
      </trkpt>
      <trkpt lat="45.95786" lon="4.75251">
        <ele>193</ele>
        <time>2018-04-21T09:04:36Z</time>
      </trkpt>
      <trkpt lat="45.95789" lon="4.75248">
        <ele>193</ele>
        <time>2018-04-21T09:04:37Z</time>
      </trkpt>
      <trkpt lat="45.95794" lon="4.75243">
        <ele>193</ele>
        <time>2018-04-21T09:04:38Z</time>
      </trkpt>
      <trkpt lat="45.95797" lon="4.7524">
        <ele>193</ele>
        <time>2018-04-21T09:04:39Z</time>
      </trkpt>
      <trkpt lat="45.95802" lon="4.75234">
        <ele>193</ele>
        <time>2018-04-21T09:04:40Z</time>
      </trkpt>
      <trkpt lat="45.95805" lon="4.75228">
        <ele>193</ele>
        <time>2018-04-21T09:04:41Z</time>
      </trkpt>
      <trkpt lat="45.9581" lon="4.75222">
        <ele>193</ele>
        <time>2018-04-21T09:04:42Z</time>
      </trkpt>
      <trkpt lat="45.95814" lon="4.75216">
        <ele>193</ele>
        <time>2018-04-21T09:04:43Z</time>
      </trkpt>
      <trkpt lat="45.95818" lon="4.75211">
        <ele>193</ele>
        <time>2018-04-21T09:04:44Z</time>
      </trkpt>
      <trkpt lat="45.95821" lon="4.75205">
        <ele>193</ele>
        <time>2018-04-21T09:04:45Z</time>
      </trkpt>
      <trkpt lat="45.95825" lon="4.75199">
        <ele>193</ele>
        <time>2018-04-21T09:04:46Z</time>
      </trkpt>
      <trkpt lat="45.95828" lon="4.75194">
        <ele>193</ele>
        <time>2018-04-21T09:04:47Z</time>
      </trkpt>
      <trkpt lat="45.95832" lon="4.75191">
        <ele>192</ele>
        <time>2018-04-21T09:04:48Z</time>
      </trkpt>
      <trkpt lat="45.95835" lon="4.75185">
        <ele>193</ele>
        <time>2018-04-21T09:04:49Z</time>
      </trkpt>
      <trkpt lat="45.95839" lon="4.7518">
        <ele>193</ele>
        <time>2018-04-21T09:04:50Z</time>
      </trkpt>
      <trkpt lat="45.95844" lon="4.75175">
        <ele>193</ele>
        <time>2018-04-21T09:04:51Z</time>
      </trkpt>
      <trkpt lat="45.95848" lon="4.7517">
        <ele>193</ele>
        <time>2018-04-21T09:04:52Z</time>
      </trkpt>
      <trkpt lat="45.95852" lon="4.75165">
        <ele>191</ele>
        <time>2018-04-21T09:04:53Z</time>
      </trkpt>
      <trkpt lat="45.95856" lon="4.75159">
        <ele>191</ele>
        <time>2018-04-21T09:04:54Z</time>
      </trkpt>
      <trkpt lat="45.9586" lon="4.75155">
        <ele>191</ele>
        <time>2018-04-21T09:04:55Z</time>
      </trkpt>
      <trkpt lat="45.95864" lon="4.75148">
        <ele>191</ele>
        <time>2018-04-21T09:04:56Z</time>
      </trkpt>
      <trkpt lat="45.95868" lon="4.75142">
        <ele>191</ele>
        <time>2018-04-21T09:04:57Z</time>
      </trkpt>
      <trkpt lat="45.95872" lon="4.75136">
        <ele>191</ele>
        <time>2018-04-21T09:04:58Z</time>
      </trkpt>
      <trkpt lat="45.95877" lon="4.7513">
        <ele>191</ele>
        <time>2018-04-21T09:04:59Z</time>
      </trkpt>
      <trkpt lat="45.95883" lon="4.75124">
        <ele>191</ele>
        <time>2018-04-21T09:05:00Z</time>
      </trkpt>
      <trkpt lat="45.95889" lon="4.75119">
        <ele>191</ele>
        <time>2018-04-21T09:05:01Z</time>
      </trkpt>
      <trkpt lat="45.95894" lon="4.75116">
        <ele>191</ele>
        <time>2018-04-21T09:05:02Z</time>
      </trkpt>
      <trkpt lat="45.95898" lon="4.75113">
        <ele>191</ele>
        <time>2018-04-21T09:05:03Z</time>
      </trkpt>
      <trkpt lat="45.95904" lon="4.7511">
        <ele>191</ele>
        <time>2018-04-21T09:05:04Z</time>
      </trkpt>
      <trkpt lat="45.95911" lon="4.75104">
        <ele>191</ele>
        <time>2018-04-21T09:05:05Z</time>
      </trkpt>
      <trkpt lat="45.95917" lon="4.75101">
        <ele>192</ele>
        <time>2018-04-21T09:05:06Z</time>
      </trkpt>
      <trkpt lat="45.95924" lon="4.75098">
        <ele>192</ele>
        <time>2018-04-21T09:05:07Z</time>
      </trkpt>
      <trkpt lat="45.9593" lon="4.75097">
        <ele>192</ele>
        <time>2018-04-21T09:05:08Z</time>
      </trkpt>
      <trkpt lat="45.95936" lon="4.75095">
        <ele>192</ele>
        <time>2018-04-21T09:05:09Z</time>
      </trkpt>
      <trkpt lat="45.95943" lon="4.75092">
        <ele>192</ele>
        <time>2018-04-21T09:05:10Z</time>
      </trkpt>
      <trkpt lat="45.95949" lon="4.7509">
        <ele>193</ele>
        <time>2018-04-21T09:05:11Z</time>
      </trkpt>
      <trkpt lat="45.95957" lon="4.75088">
        <ele>193</ele>
        <time>2018-04-21T09:05:12Z</time>
      </trkpt>
      <trkpt lat="45.95963" lon="4.75085">
        <ele>193</ele>
        <time>2018-04-21T09:05:13Z</time>
      </trkpt>
      <trkpt lat="45.9597" lon="4.75084">
        <ele>194</ele>
        <time>2018-04-21T09:05:14Z</time>
      </trkpt>
      <trkpt lat="45.95976" lon="4.75081">
        <ele>192</ele>
        <time>2018-04-21T09:05:15Z</time>
      </trkpt>
      <trkpt lat="45.95982" lon="4.75078">
        <ele>192</ele>
        <time>2018-04-21T09:05:16Z</time>
      </trkpt>
      <trkpt lat="45.95988" lon="4.75076">
        <ele>193</ele>
        <time>2018-04-21T09:05:17Z</time>
      </trkpt>
      <trkpt lat="45.95994" lon="4.75073">
        <ele>193</ele>
        <time>2018-04-21T09:05:18Z</time>
      </trkpt>
      <trkpt lat="45.95999" lon="4.75069">
        <ele>193</ele>
        <time>2018-04-21T09:05:19Z</time>
      </trkpt>
      <trkpt lat="45.96006" lon="4.75065">
        <ele>192</ele>
        <time>2018-04-21T09:05:20Z</time>
      </trkpt>
      <trkpt lat="45.96012" lon="4.75063">
        <ele>191</ele>
        <time>2018-04-21T09:05:21Z</time>
      </trkpt>
      <trkpt lat="45.96024" lon="4.75061">
        <ele>190</ele>
        <time>2018-04-21T09:05:22Z</time>
      </trkpt>
      <trkpt lat="45.96029" lon="4.75058">
        <ele>190</ele>
        <time>2018-04-21T09:05:23Z</time>
      </trkpt>
      <trkpt lat="45.96038" lon="4.75057">
        <ele>189</ele>
        <time>2018-04-21T09:05:24Z</time>
      </trkpt>
      <trkpt lat="45.96046" lon="4.75055">
        <ele>189</ele>
        <time>2018-04-21T09:05:25Z</time>
      </trkpt>
      <trkpt lat="45.96054" lon="4.75056">
        <ele>189</ele>
        <time>2018-04-21T09:05:26Z</time>
      </trkpt>
      <trkpt lat="45.96061" lon="4.75056">
        <ele>189</ele>
        <time>2018-04-21T09:05:27Z</time>
      </trkpt>
      <trkpt lat="45.96067" lon="4.75058">
        <ele>189</ele>
        <time>2018-04-21T09:05:28Z</time>
      </trkpt>
      <trkpt lat="45.96073" lon="4.75058">
        <ele>189</ele>
        <time>2018-04-21T09:05:29Z</time>
      </trkpt>
      <trkpt lat="45.96081" lon="4.75062">
        <ele>189</ele>
        <time>2018-04-21T09:05:30Z</time>
      </trkpt>
      <trkpt lat="45.96087" lon="4.75064">
        <ele>185</ele>
        <time>2018-04-21T09:05:31Z</time>
      </trkpt>
      <trkpt lat="45.96092" lon="4.75069">
        <ele>186</ele>
        <time>2018-04-21T09:05:32Z</time>
      </trkpt>
      <trkpt lat="45.96098" lon="4.75073">
        <ele>186</ele>
        <time>2018-04-21T09:05:33Z</time>
      </trkpt>
      <trkpt lat="45.96104" lon="4.75078">
        <ele>185</ele>
        <time>2018-04-21T09:05:34Z</time>
      </trkpt>
      <trkpt lat="45.96108" lon="4.75083">
        <ele>184</ele>
        <time>2018-04-21T09:05:35Z</time>
      </trkpt>
      <trkpt lat="45.96113" lon="4.75087">
        <ele>190</ele>
        <time>2018-04-21T09:05:36Z</time>
      </trkpt>
      <trkpt lat="45.96117" lon="4.75091">
        <ele>189</ele>
        <time>2018-04-21T09:05:37Z</time>
      </trkpt>
      <trkpt lat="45.96123" lon="4.75097">
        <ele>189</ele>
        <time>2018-04-21T09:05:38Z</time>
      </trkpt>
      <trkpt lat="45.96128" lon="4.75103">
        <ele>189</ele>
        <time>2018-04-21T09:05:39Z</time>
      </trkpt>
      <trkpt lat="45.96134" lon="4.75108">
        <ele>189</ele>
        <time>2018-04-21T09:05:40Z</time>
      </trkpt>
      <trkpt lat="45.96139" lon="4.75114">
        <ele>189</ele>
        <time>2018-04-21T09:05:41Z</time>
      </trkpt>
      <trkpt lat="45.96145" lon="4.75119">
        <ele>189</ele>
        <time>2018-04-21T09:05:42Z</time>
      </trkpt>
      <trkpt lat="45.9615" lon="4.75124">
        <ele>190</ele>
        <time>2018-04-21T09:05:43Z</time>
      </trkpt>
      <trkpt lat="45.96155" lon="4.75129">
        <ele>190</ele>
        <time>2018-04-21T09:05:44Z</time>
      </trkpt>
      <trkpt lat="45.96159" lon="4.75134">
        <ele>191</ele>
        <time>2018-04-21T09:05:45Z</time>
      </trkpt>
      <trkpt lat="45.96164" lon="4.75138">
        <ele>191</ele>
        <time>2018-04-21T09:05:46Z</time>
      </trkpt>
      <trkpt lat="45.96169" lon="4.75141">
        <ele>187</ele>
        <time>2018-04-21T09:05:47Z</time>
      </trkpt>
      <trkpt lat="45.96173" lon="4.75146">
        <ele>188</ele>
        <time>2018-04-21T09:05:48Z</time>
      </trkpt>
      <trkpt lat="45.9618" lon="4.75152">
        <ele>188</ele>
        <time>2018-04-21T09:05:49Z</time>
      </trkpt>
      <trkpt lat="45.96188" lon="4.75157">
        <ele>187</ele>
        <time>2018-04-21T09:05:50Z</time>
      </trkpt>
      <trkpt lat="45.96194" lon="4.75162">
        <ele>187</ele>
        <time>2018-04-21T09:05:51Z</time>
      </trkpt>
      <trkpt lat="45.96201" lon="4.75168">
        <ele>194</ele>
        <time>2018-04-21T09:05:52Z</time>
      </trkpt>
      <trkpt lat="45.96206" lon="4.75172">
        <ele>194</ele>
        <time>2018-04-21T09:05:53Z</time>
      </trkpt>
      <trkpt lat="45.96211" lon="4.75176">
        <ele>193</ele>
        <time>2018-04-21T09:05:54Z</time>
      </trkpt>
      <trkpt lat="45.96214" lon="4.75181">
        <ele>193</ele>
        <time>2018-04-21T09:05:55Z</time>
      </trkpt>
      <trkpt lat="45.9622" lon="4.75183">
        <ele>192</ele>
        <time>2018-04-21T09:05:56Z</time>
      </trkpt>
      <trkpt lat="45.96227" lon="4.75187">
        <ele>192</ele>
        <time>2018-04-21T09:05:57Z</time>
      </trkpt>
      <trkpt lat="45.96232" lon="4.75192">
        <ele>192</ele>
        <time>2018-04-21T09:05:58Z</time>
      </trkpt>
      <trkpt lat="45.96238" lon="4.75196">
        <ele>192</ele>
        <time>2018-04-21T09:05:59Z</time>
      </trkpt>
      <trkpt lat="45.96244" lon="4.752">
        <ele>192</ele>
        <time>2018-04-21T09:06:00Z</time>
      </trkpt>
      <trkpt lat="45.9625" lon="4.75205">
        <ele>186</ele>
        <time>2018-04-21T09:06:01Z</time>
      </trkpt>
      <trkpt lat="45.96257" lon="4.75207">
        <ele>186</ele>
        <time>2018-04-21T09:06:02Z</time>
      </trkpt>
      <trkpt lat="45.96262" lon="4.7521">
        <ele>186</ele>
        <time>2018-04-21T09:06:03Z</time>
      </trkpt>
      <trkpt lat="45.96269" lon="4.75212">
        <ele>186</ele>
        <time>2018-04-21T09:06:04Z</time>
      </trkpt>
      <trkpt lat="45.96275" lon="4.75214">
        <ele>186</ele>
        <time>2018-04-21T09:06:05Z</time>
      </trkpt>
      <trkpt lat="45.96282" lon="4.75218">
        <ele>186</ele>
        <time>2018-04-21T09:06:06Z</time>
      </trkpt>
      <trkpt lat="45.9629" lon="4.75221">
        <ele>186</ele>
        <time>2018-04-21T09:06:07Z</time>
      </trkpt>
      <trkpt lat="45.96296" lon="4.75223">
        <ele>186</ele>
        <time>2018-04-21T09:06:08Z</time>
      </trkpt>
      <trkpt lat="45.96302" lon="4.75225">
        <ele>186</ele>
        <time>2018-04-21T09:06:09Z</time>
      </trkpt>
      <trkpt lat="45.96308" lon="4.75227">
        <ele>186</ele>
        <time>2018-04-21T09:06:10Z</time>
      </trkpt>
      <trkpt lat="45.96315" lon="4.75231">
        <ele>186</ele>
        <time>2018-04-21T09:06:11Z</time>
      </trkpt>
      <trkpt lat="45.96321" lon="4.75233">
        <ele>186</ele>
        <time>2018-04-21T09:06:12Z</time>
      </trkpt>
      <trkpt lat="45.96329" lon="4.75235">
        <ele>187</ele>
        <time>2018-04-21T09:06:13Z</time>
      </trkpt>
      <trkpt lat="45.96333" lon="4.75237">
        <ele>187</ele>
        <time>2018-04-21T09:06:14Z</time>
      </trkpt>
      <trkpt lat="45.96341" lon="4.75239">
        <ele>184</ele>
        <time>2018-04-21T09:06:15Z</time>
      </trkpt>
      <trkpt lat="45.9635" lon="4.75241">
        <ele>183</ele>
        <time>2018-04-21T09:06:16Z</time>
      </trkpt>
      <trkpt lat="45.96357" lon="4.75245">
        <ele>182</ele>
        <time>2018-04-21T09:06:17Z</time>
      </trkpt>
      <trkpt lat="45.96364" lon="4.75247">
        <ele>181</ele>
        <time>2018-04-21T09:06:18Z</time>
      </trkpt>
      <trkpt lat="45.9637" lon="4.7525">
        <ele>193</ele>
        <time>2018-04-21T09:06:19Z</time>
      </trkpt>
      <trkpt lat="45.96375" lon="4.75258">
        <ele>193</ele>
        <time>2018-04-21T09:06:20Z</time>
      </trkpt>
      <trkpt lat="45.96381" lon="4.7526">
        <ele>193</ele>
        <time>2018-04-21T09:06:21Z</time>
      </trkpt>
      <trkpt lat="45.96387" lon="4.75264">
        <ele>192</ele>
        <time>2018-04-21T09:06:22Z</time>
      </trkpt>
      <trkpt lat="45.96394" lon="4.75266">
        <ele>192</ele>
        <time>2018-04-21T09:06:23Z</time>
      </trkpt>
      <trkpt lat="45.96402" lon="4.75272">
        <ele>192</ele>
        <time>2018-04-21T09:06:24Z</time>
      </trkpt>
      <trkpt lat="45.96409" lon="4.75276">
        <ele>192</ele>
        <time>2018-04-21T09:06:25Z</time>
      </trkpt>
      <trkpt lat="45.96416" lon="4.75278">
        <ele>192</ele>
        <time>2018-04-21T09:06:26Z</time>
      </trkpt>
      <trkpt lat="45.96424" lon="4.75282">
        <ele>187</ele>
        <time>2018-04-21T09:06:27Z</time>
      </trkpt>
      <trkpt lat="45.96431" lon="4.75285">
        <ele>187</ele>
        <time>2018-04-21T09:06:28Z</time>
      </trkpt>
      <trkpt lat="45.96437" lon="4.75289">
        <ele>187</ele>
        <time>2018-04-21T09:06:29Z</time>
      </trkpt>
      <trkpt lat="45.96443" lon="4.75294">
        <ele>188</ele>
        <time>2018-04-21T09:06:30Z</time>
      </trkpt>
      <trkpt lat="45.9645" lon="4.75296">
        <ele>188</ele>
        <time>2018-04-21T09:06:31Z</time>
      </trkpt>
      <trkpt lat="45.96456" lon="4.75299">
        <ele>187</ele>
        <time>2018-04-21T09:06:32Z</time>
      </trkpt>
      <trkpt lat="45.96464" lon="4.75305">
        <ele>187</ele>
        <time>2018-04-21T09:06:33Z</time>
      </trkpt>
      <trkpt lat="45.9647" lon="4.75307">
        <ele>187</ele>
        <time>2018-04-21T09:06:34Z</time>
      </trkpt>
      <trkpt lat="45.96475" lon="4.75309">
        <ele>187</ele>
        <time>2018-04-21T09:06:35Z</time>
      </trkpt>
      <trkpt lat="45.96479" lon="4.7531">
        <ele>187</ele>
        <time>2018-04-21T09:06:36Z</time>
      </trkpt>
      <trkpt lat="45.96486" lon="4.7532">
        <ele>187</ele>
        <time>2018-04-21T09:06:37Z</time>
      </trkpt>
      <trkpt lat="45.96492" lon="4.75321">
        <ele>187</ele>
        <time>2018-04-21T09:06:38Z</time>
      </trkpt>
      <trkpt lat="45.965" lon="4.75324">
        <ele>187</ele>
        <time>2018-04-21T09:06:39Z</time>
      </trkpt>
      <trkpt lat="45.96509" lon="4.75327">
        <ele>183</ele>
        <time>2018-04-21T09:06:40Z</time>
      </trkpt>
      <trkpt lat="45.96516" lon="4.7533">
        <ele>182</ele>
        <time>2018-04-21T09:06:41Z</time>
      </trkpt>
      <trkpt lat="45.96524" lon="4.75331">
        <ele>180</ele>
        <time>2018-04-21T09:06:42Z</time>
      </trkpt>
      <trkpt lat="45.96531" lon="4.75338">
        <ele>191</ele>
        <time>2018-04-21T09:06:43Z</time>
      </trkpt>
      <trkpt lat="45.96537" lon="4.75341">
        <ele>190</ele>
        <time>2018-04-21T09:06:44Z</time>
      </trkpt>
      <trkpt lat="45.96544" lon="4.75346">
        <ele>190</ele>
        <time>2018-04-21T09:06:45Z</time>
      </trkpt>
      <trkpt lat="45.9655" lon="4.75349">
        <ele>190</ele>
        <time>2018-04-21T09:06:46Z</time>
      </trkpt>
      <trkpt lat="45.96557" lon="4.75353">
        <ele>189</ele>
        <time>2018-04-21T09:06:47Z</time>
      </trkpt>
      <trkpt lat="45.96564" lon="4.75357">
        <ele>189</ele>
        <time>2018-04-21T09:06:48Z</time>
      </trkpt>
      <trkpt lat="45.9657" lon="4.75361">
        <ele>189</ele>
        <time>2018-04-21T09:06:49Z</time>
      </trkpt>
      <trkpt lat="45.96577" lon="4.75364">
        <ele>189</ele>
        <time>2018-04-21T09:06:50Z</time>
      </trkpt>
      <trkpt lat="45.96584" lon="4.75368">
        <ele>181</ele>
        <time>2018-04-21T09:06:51Z</time>
      </trkpt>
      <trkpt lat="45.96591" lon="4.75372">
        <ele>182</ele>
        <time>2018-04-21T09:06:52Z</time>
      </trkpt>
      <trkpt lat="45.96597" lon="4.75376">
        <ele>182</ele>
        <time>2018-04-21T09:06:53Z</time>
      </trkpt>
      <trkpt lat="45.96603" lon="4.75381">
        <ele>182</ele>
        <time>2018-04-21T09:06:54Z</time>
      </trkpt>
      <trkpt lat="45.9661" lon="4.75384">
        <ele>182</ele>
        <time>2018-04-21T09:06:55Z</time>
      </trkpt>
      <trkpt lat="45.96616" lon="4.75388">
        <ele>182</ele>
        <time>2018-04-21T09:06:56Z</time>
      </trkpt>
      <trkpt lat="45.96622" lon="4.75391">
        <ele>181</ele>
        <time>2018-04-21T09:06:57Z</time>
      </trkpt>
      <trkpt lat="45.96629" lon="4.75394">
        <ele>181</ele>
        <time>2018-04-21T09:06:58Z</time>
      </trkpt>
      <trkpt lat="45.96636" lon="4.75397">
        <ele>180</ele>
        <time>2018-04-21T09:06:59Z</time>
      </trkpt>
      <trkpt lat="45.96643" lon="4.75401">
        <ele>179</ele>
        <time>2018-04-21T09:07:00Z</time>
      </trkpt>
      <trkpt lat="45.96649" lon="4.75404">
        <ele>179</ele>
        <time>2018-04-21T09:07:01Z</time>
      </trkpt>
      <trkpt lat="45.96654" lon="4.75408">
        <ele>178</ele>
        <time>2018-04-21T09:07:02Z</time>
      </trkpt>
      <trkpt lat="45.9666" lon="4.75413">
        <ele>177</ele>
        <time>2018-04-21T09:07:03Z</time>
      </trkpt>
      <trkpt lat="45.96666" lon="4.75417">
        <ele>177</ele>
        <time>2018-04-21T09:07:04Z</time>
      </trkpt>
      <trkpt lat="45.96672" lon="4.75422">
        <ele>178</ele>
        <time>2018-04-21T09:07:05Z</time>
      </trkpt>
      <trkpt lat="45.96678" lon="4.75425">
        <ele>179</ele>
        <time>2018-04-21T09:07:06Z</time>
      </trkpt>
      <trkpt lat="45.96685" lon="4.75429">
        <ele>180</ele>
        <time>2018-04-21T09:07:07Z</time>
      </trkpt>
      <trkpt lat="45.96691" lon="4.75433">
        <ele>180</ele>
        <time>2018-04-21T09:07:08Z</time>
      </trkpt>
      <trkpt lat="45.96697" lon="4.75437">
        <ele>180</ele>
        <time>2018-04-21T09:07:09Z</time>
      </trkpt>
      <trkpt lat="45.96702" lon="4.7544">
        <ele>180</ele>
        <time>2018-04-21T09:07:10Z</time>
      </trkpt>
      <trkpt lat="45.96708" lon="4.75443">
        <ele>180</ele>
        <time>2018-04-21T09:07:11Z</time>
      </trkpt>
      <trkpt lat="45.96715" lon="4.75447">
        <ele>180</ele>
        <time>2018-04-21T09:07:12Z</time>
      </trkpt>
      <trkpt lat="45.96722" lon="4.75451">
        <ele>180</ele>
        <time>2018-04-21T09:07:13Z</time>
      </trkpt>
      <trkpt lat="45.96729" lon="4.75454">
        <ele>180</ele>
        <time>2018-04-21T09:07:14Z</time>
      </trkpt>
      <trkpt lat="45.96736" lon="4.75457">
        <ele>180</ele>
        <time>2018-04-21T09:07:15Z</time>
      </trkpt>
      <trkpt lat="45.96742" lon="4.7546">
        <ele>180</ele>
        <time>2018-04-21T09:07:16Z</time>
      </trkpt>
      <trkpt lat="45.96748" lon="4.75465">
        <ele>181</ele>
        <time>2018-04-21T09:07:17Z</time>
      </trkpt>
      <trkpt lat="45.96754" lon="4.75468">
        <ele>176</ele>
        <time>2018-04-21T09:07:18Z</time>
      </trkpt>
      <trkpt lat="45.9676" lon="4.75471">
        <ele>176</ele>
        <time>2018-04-21T09:07:19Z</time>
      </trkpt>
      <trkpt lat="45.96767" lon="4.75477">
        <ele>176</ele>
        <time>2018-04-21T09:07:20Z</time>
      </trkpt>
      <trkpt lat="45.96773" lon="4.75479">
        <ele>176</ele>
        <time>2018-04-21T09:07:21Z</time>
      </trkpt>
      <trkpt lat="45.96779" lon="4.75482">
        <ele>176</ele>
        <time>2018-04-21T09:07:22Z</time>
      </trkpt>
      <trkpt lat="45.96784" lon="4.75485">
        <ele>175</ele>
        <time>2018-04-21T09:07:23Z</time>
      </trkpt>
      <trkpt lat="45.96791" lon="4.75487">
        <ele>175</ele>
        <time>2018-04-21T09:07:24Z</time>
      </trkpt>
      <trkpt lat="45.96798" lon="4.7549">
        <ele>175</ele>
        <time>2018-04-21T09:07:25Z</time>
      </trkpt>
      <trkpt lat="45.96804" lon="4.7549">
        <ele>174</ele>
        <time>2018-04-21T09:07:26Z</time>
      </trkpt>
      <trkpt lat="45.9681" lon="4.75493">
        <ele>174</ele>
        <time>2018-04-21T09:07:27Z</time>
      </trkpt>
      <trkpt lat="45.96815" lon="4.75496">
        <ele>174</ele>
        <time>2018-04-21T09:07:28Z</time>
      </trkpt>
      <trkpt lat="45.96821" lon="4.75498">
        <ele>174</ele>
        <time>2018-04-21T09:07:29Z</time>
      </trkpt>
      <trkpt lat="45.96826" lon="4.75499">
        <ele>174</ele>
        <time>2018-04-21T09:07:30Z</time>
      </trkpt>
      <trkpt lat="45.96832" lon="4.75502">
        <ele>176</ele>
        <time>2018-04-21T09:07:31Z</time>
      </trkpt>
      <trkpt lat="45.96837" lon="4.75504">
        <ele>176</ele>
        <time>2018-04-21T09:07:32Z</time>
      </trkpt>
      <trkpt lat="45.96842" lon="4.75506">
        <ele>177</ele>
        <time>2018-04-21T09:07:33Z</time>
      </trkpt>
      <trkpt lat="45.96848" lon="4.75508">
        <ele>178</ele>
        <time>2018-04-21T09:07:34Z</time>
      </trkpt>
      <trkpt lat="45.96853" lon="4.7551">
        <ele>178</ele>
        <time>2018-04-21T09:07:35Z</time>
      </trkpt>
      <trkpt lat="45.96858" lon="4.75512">
        <ele>179</ele>
        <time>2018-04-21T09:07:36Z</time>
      </trkpt>
      <trkpt lat="45.96865" lon="4.75515">
        <ele>179</ele>
        <time>2018-04-21T09:07:37Z</time>
      </trkpt>
      <trkpt lat="45.9687" lon="4.75517">
        <ele>179</ele>
        <time>2018-04-21T09:07:38Z</time>
      </trkpt>
      <trkpt lat="45.96877" lon="4.75519">
        <ele>179</ele>
        <time>2018-04-21T09:07:39Z</time>
      </trkpt>
      <trkpt lat="45.96883" lon="4.75522">
        <ele>179</ele>
        <time>2018-04-21T09:07:40Z</time>
      </trkpt>
      <trkpt lat="45.96889" lon="4.75524">
        <ele>179</ele>
        <time>2018-04-21T09:07:41Z</time>
      </trkpt>
      <trkpt lat="45.96895" lon="4.75526">
        <ele>179</ele>
        <time>2018-04-21T09:07:42Z</time>
      </trkpt>
      <trkpt lat="45.96901" lon="4.75528">
        <ele>179</ele>
        <time>2018-04-21T09:07:43Z</time>
      </trkpt>
      <trkpt lat="45.96907" lon="4.75529">
        <ele>179</ele>
        <time>2018-04-21T09:07:44Z</time>
      </trkpt>
      <trkpt lat="45.96913" lon="4.75531">
        <ele>179</ele>
        <time>2018-04-21T09:07:45Z</time>
      </trkpt>
      <trkpt lat="45.96919" lon="4.75533">
        <ele>175</ele>
        <time>2018-04-21T09:07:46Z</time>
      </trkpt>
      <trkpt lat="45.96924" lon="4.75535">
        <ele>175</ele>
        <time>2018-04-21T09:07:47Z</time>
      </trkpt>
      <trkpt lat="45.96932" lon="4.75536">
        <ele>175</ele>
        <time>2018-04-21T09:07:48Z</time>
      </trkpt>
      <trkpt lat="45.96938" lon="4.75538">
        <ele>175</ele>
        <time>2018-04-21T09:07:49Z</time>
      </trkpt>
      <trkpt lat="45.96944" lon="4.75539">
        <ele>175</ele>
        <time>2018-04-21T09:07:50Z</time>
      </trkpt>
      <trkpt lat="45.9695" lon="4.75544">
        <ele>175</ele>
        <time>2018-04-21T09:07:51Z</time>
      </trkpt>
      <trkpt lat="45.96956" lon="4.75545">
        <ele>175</ele>
        <time>2018-04-21T09:07:52Z</time>
      </trkpt>
      <trkpt lat="45.96962" lon="4.75548">
        <ele>175</ele>
        <time>2018-04-21T09:07:53Z</time>
      </trkpt>
      <trkpt lat="45.96968" lon="4.7555">
        <ele>175</ele>
        <time>2018-04-21T09:07:54Z</time>
      </trkpt>
      <trkpt lat="45.96974" lon="4.75552">
        <ele>176</ele>
        <time>2018-04-21T09:07:55Z</time>
      </trkpt>
      <trkpt lat="45.9698" lon="4.75556">
        <ele>176</ele>
        <time>2018-04-21T09:07:56Z</time>
      </trkpt>
      <trkpt lat="45.96986" lon="4.75558">
        <ele>176</ele>
        <time>2018-04-21T09:07:57Z</time>
      </trkpt>
      <trkpt lat="45.96992" lon="4.7556">
        <ele>176</ele>
        <time>2018-04-21T09:07:58Z</time>
      </trkpt>
      <trkpt lat="45.96999" lon="4.75563">
        <ele>177</ele>
        <time>2018-04-21T09:07:59Z</time>
      </trkpt>
      <trkpt lat="45.97004" lon="4.75566">
        <ele>176</ele>
        <time>2018-04-21T09:08:00Z</time>
      </trkpt>
      <trkpt lat="45.9701" lon="4.75571">
        <ele>176</ele>
        <time>2018-04-21T09:08:01Z</time>
      </trkpt>
      <trkpt lat="45.97015" lon="4.75573">
        <ele>176</ele>
        <time>2018-04-21T09:08:02Z</time>
      </trkpt>
      <trkpt lat="45.97021" lon="4.75576">
        <ele>175</ele>
        <time>2018-04-21T09:08:03Z</time>
      </trkpt>
      <trkpt lat="45.97026" lon="4.75578">
        <ele>175</ele>
        <time>2018-04-21T09:08:04Z</time>
      </trkpt>
      <trkpt lat="45.97032" lon="4.75582">
        <ele>174</ele>
        <time>2018-04-21T09:08:05Z</time>
      </trkpt>
      <trkpt lat="45.97037" lon="4.75584">
        <ele>181</ele>
        <time>2018-04-21T09:08:06Z</time>
      </trkpt>
      <trkpt lat="45.97043" lon="4.75586">
        <ele>181</ele>
        <time>2018-04-21T09:08:07Z</time>
      </trkpt>
      <trkpt lat="45.9705" lon="4.75589">
        <ele>181</ele>
        <time>2018-04-21T09:08:08Z</time>
      </trkpt>
      <trkpt lat="45.97055" lon="4.75592">
        <ele>180</ele>
        <time>2018-04-21T09:08:09Z</time>
      </trkpt>
      <trkpt lat="45.97061" lon="4.75596">
        <ele>180</ele>
        <time>2018-04-21T09:08:10Z</time>
      </trkpt>
      <trkpt lat="45.97067" lon="4.75598">
        <ele>180</ele>
        <time>2018-04-21T09:08:11Z</time>
      </trkpt>
      <trkpt lat="45.97074" lon="4.756">
        <ele>179</ele>
        <time>2018-04-21T09:08:12Z</time>
      </trkpt>
      <trkpt lat="45.97079" lon="4.75602">
        <ele>179</ele>
        <time>2018-04-21T09:08:13Z</time>
      </trkpt>
      <trkpt lat="45.97085" lon="4.75604">
        <ele>176</ele>
        <time>2018-04-21T09:08:14Z</time>
      </trkpt>
      <trkpt lat="45.9709" lon="4.75607">
        <ele>176</ele>
        <time>2018-04-21T09:08:15Z</time>
      </trkpt>
      <trkpt lat="45.97097" lon="4.75609">
        <ele>176</ele>
        <time>2018-04-21T09:08:16Z</time>
      </trkpt>
      <trkpt lat="45.97102" lon="4.75612">
        <ele>177</ele>
        <time>2018-04-21T09:08:17Z</time>
      </trkpt>
      <trkpt lat="45.97109" lon="4.75614">
        <ele>177</ele>
        <time>2018-04-21T09:08:18Z</time>
      </trkpt>
      <trkpt lat="45.97115" lon="4.75617">
        <ele>177</ele>
        <time>2018-04-21T09:08:19Z</time>
      </trkpt>
      <trkpt lat="45.97121" lon="4.75619">
        <ele>177</ele>
        <time>2018-04-21T09:08:20Z</time>
      </trkpt>
      <trkpt lat="45.97126" lon="4.75621">
        <ele>177</ele>
        <time>2018-04-21T09:08:21Z</time>
      </trkpt>
      <trkpt lat="45.97132" lon="4.75624">
        <ele>177</ele>
        <time>2018-04-21T09:08:22Z</time>
      </trkpt>
      <trkpt lat="45.9714" lon="4.75628">
        <ele>177</ele>
        <time>2018-04-21T09:08:23Z</time>
      </trkpt>
      <trkpt lat="45.97146" lon="4.75631">
        <ele>177</ele>
        <time>2018-04-21T09:08:24Z</time>
      </trkpt>
      <trkpt lat="45.97152" lon="4.75634">
        <ele>177</ele>
        <time>2018-04-21T09:08:25Z</time>
      </trkpt>
      <trkpt lat="45.97157" lon="4.75637">
        <ele>177</ele>
        <time>2018-04-21T09:08:26Z</time>
      </trkpt>
      <trkpt lat="45.97163" lon="4.75638">
        <ele>177</ele>
        <time>2018-04-21T09:08:27Z</time>
      </trkpt>
      <trkpt lat="45.97168" lon="4.75641">
        <ele>174</ele>
        <time>2018-04-21T09:08:28Z</time>
      </trkpt>
      <trkpt lat="45.97174" lon="4.75643">
        <ele>174</ele>
        <time>2018-04-21T09:08:29Z</time>
      </trkpt>
      <trkpt lat="45.97179" lon="4.75646">
        <ele>174</ele>
        <time>2018-04-21T09:08:30Z</time>
      </trkpt>
      <trkpt lat="45.97183" lon="4.75649">
        <ele>174</ele>
        <time>2018-04-21T09:08:31Z</time>
      </trkpt>
      <trkpt lat="45.97188" lon="4.75651">
        <ele>174</ele>
        <time>2018-04-21T09:08:32Z</time>
      </trkpt>
      <trkpt lat="45.97195" lon="4.75653">
        <ele>174</ele>
        <time>2018-04-21T09:08:33Z</time>
      </trkpt>
      <trkpt lat="45.972" lon="4.75656">
        <ele>174</ele>
        <time>2018-04-21T09:08:34Z</time>
      </trkpt>
      <trkpt lat="45.97207" lon="4.75658">
        <ele>174</ele>
        <time>2018-04-21T09:08:35Z</time>
      </trkpt>
      <trkpt lat="45.97213" lon="4.7566">
        <ele>173</ele>
        <time>2018-04-21T09:08:36Z</time>
      </trkpt>
      <trkpt lat="45.9722" lon="4.75663">
        <ele>173</ele>
        <time>2018-04-21T09:08:37Z</time>
      </trkpt>
      <trkpt lat="45.97226" lon="4.75665">
        <ele>173</ele>
        <time>2018-04-21T09:08:38Z</time>
      </trkpt>
      <trkpt lat="45.97232" lon="4.75667">
        <ele>176</ele>
        <time>2018-04-21T09:08:39Z</time>
      </trkpt>
      <trkpt lat="45.97239" lon="4.75668">
        <ele>176</ele>
        <time>2018-04-21T09:08:40Z</time>
      </trkpt>
      <trkpt lat="45.97246" lon="4.75668">
        <ele>175</ele>
        <time>2018-04-21T09:08:41Z</time>
      </trkpt>
      <trkpt lat="45.97252" lon="4.75669">
        <ele>174</ele>
        <time>2018-04-21T09:08:42Z</time>
      </trkpt>
      <trkpt lat="45.97258" lon="4.75671">
        <ele>175</ele>
        <time>2018-04-21T09:08:43Z</time>
      </trkpt>
      <trkpt lat="45.97264" lon="4.75672">
        <ele>175</ele>
        <time>2018-04-21T09:08:44Z</time>
      </trkpt>
      <trkpt lat="45.9727" lon="4.75674">
        <ele>176</ele>
        <time>2018-04-21T09:08:45Z</time>
      </trkpt>
      <trkpt lat="45.97276" lon="4.75675">
        <ele>176</ele>
        <time>2018-04-21T09:08:46Z</time>
      </trkpt>
      <trkpt lat="45.97283" lon="4.75677">
        <ele>176</ele>
        <time>2018-04-21T09:08:47Z</time>
      </trkpt>
      <trkpt lat="45.97289" lon="4.75678">
        <ele>176</ele>
        <time>2018-04-21T09:08:48Z</time>
      </trkpt>
      <trkpt lat="45.97295" lon="4.7568">
        <ele>176</ele>
        <time>2018-04-21T09:08:49Z</time>
      </trkpt>
      <trkpt lat="45.97301" lon="4.75681">
        <ele>177</ele>
        <time>2018-04-21T09:08:50Z</time>
      </trkpt>
      <trkpt lat="45.97306" lon="4.75683">
        <ele>177</ele>
        <time>2018-04-21T09:08:51Z</time>
      </trkpt>
      <trkpt lat="45.97313" lon="4.75686">
        <ele>177</ele>
        <time>2018-04-21T09:08:52Z</time>
      </trkpt>
      <trkpt lat="45.97319" lon="4.75686">
        <ele>177</ele>
        <time>2018-04-21T09:08:53Z</time>
      </trkpt>
      <trkpt lat="45.97324" lon="4.75686">
        <ele>177</ele>
        <time>2018-04-21T09:08:54Z</time>
      </trkpt>
      <trkpt lat="45.97331" lon="4.75686">
        <ele>177</ele>
        <time>2018-04-21T09:08:55Z</time>
      </trkpt>
      <trkpt lat="45.97337" lon="4.75687">
        <ele>175</ele>
        <time>2018-04-21T09:08:56Z</time>
      </trkpt>
      <trkpt lat="45.97343" lon="4.75687">
        <ele>175</ele>
        <time>2018-04-21T09:08:57Z</time>
      </trkpt>
      <trkpt lat="45.9735" lon="4.75688">
        <ele>175</ele>
        <time>2018-04-21T09:08:58Z</time>
      </trkpt>
      <trkpt lat="45.97356" lon="4.75687">
        <ele>175</ele>
        <time>2018-04-21T09:08:59Z</time>
      </trkpt>
      <trkpt lat="45.97363" lon="4.75687">
        <ele>174</ele>
        <time>2018-04-21T09:09:00Z</time>
      </trkpt>
      <trkpt lat="45.97369" lon="4.75687">
        <ele>174</ele>
        <time>2018-04-21T09:09:01Z</time>
      </trkpt>
      <trkpt lat="45.97376" lon="4.75686">
        <ele>174</ele>
        <time>2018-04-21T09:09:02Z</time>
      </trkpt>
      <trkpt lat="45.97382" lon="4.75687">
        <ele>173</ele>
        <time>2018-04-21T09:09:03Z</time>
      </trkpt>
      <trkpt lat="45.97388" lon="4.75686">
        <ele>173</ele>
        <time>2018-04-21T09:09:04Z</time>
      </trkpt>
      <trkpt lat="45.97395" lon="4.75685">
        <ele>172</ele>
        <time>2018-04-21T09:09:05Z</time>
      </trkpt>
      <trkpt lat="45.97402" lon="4.75685">
        <ele>172</ele>
        <time>2018-04-21T09:09:06Z</time>
      </trkpt>
      <trkpt lat="45.97407" lon="4.75686">
        <ele>172</ele>
        <time>2018-04-21T09:09:07Z</time>
      </trkpt>
      <trkpt lat="45.97413" lon="4.75685">
        <ele>172</ele>
        <time>2018-04-21T09:09:08Z</time>
      </trkpt>
      <trkpt lat="45.97419" lon="4.75686">
        <ele>170</ele>
        <time>2018-04-21T09:09:09Z</time>
      </trkpt>
      <trkpt lat="45.97425" lon="4.75685">
        <ele>170</ele>
        <time>2018-04-21T09:09:10Z</time>
      </trkpt>
      <trkpt lat="45.97432" lon="4.75686">
        <ele>170</ele>
        <time>2018-04-21T09:09:11Z</time>
      </trkpt>
      <trkpt lat="45.97437" lon="4.75685">
        <ele>170</ele>
        <time>2018-04-21T09:09:12Z</time>
      </trkpt>
      <trkpt lat="45.97443" lon="4.75685">
        <ele>170</ele>
        <time>2018-04-21T09:09:13Z</time>
      </trkpt>
      <trkpt lat="45.97449" lon="4.75684">
        <ele>171</ele>
        <time>2018-04-21T09:09:14Z</time>
      </trkpt>
      <trkpt lat="45.97455" lon="4.75684">
        <ele>171</ele>
        <time>2018-04-21T09:09:15Z</time>
      </trkpt>
      <trkpt lat="45.97461" lon="4.75684">
        <ele>171</ele>
        <time>2018-04-21T09:09:16Z</time>
      </trkpt>
      <trkpt lat="45.97466" lon="4.75683">
        <ele>171</ele>
        <time>2018-04-21T09:09:17Z</time>
      </trkpt>
      <trkpt lat="45.97473" lon="4.75683">
        <ele>171</ele>
        <time>2018-04-21T09:09:18Z</time>
      </trkpt>
      <trkpt lat="45.97479" lon="4.75684">
        <ele>171</ele>
        <time>2018-04-21T09:09:19Z</time>
      </trkpt>
      <trkpt lat="45.97485" lon="4.75683">
        <ele>171</ele>
        <time>2018-04-21T09:09:20Z</time>
      </trkpt>
      <trkpt lat="45.97491" lon="4.75682">
        <ele>171</ele>
        <time>2018-04-21T09:09:21Z</time>
      </trkpt>
      <trkpt lat="45.97497" lon="4.75682">
        <ele>170</ele>
        <time>2018-04-21T09:09:22Z</time>
      </trkpt>
      <trkpt lat="45.97503" lon="4.7568">
        <ele>171</ele>
        <time>2018-04-21T09:09:23Z</time>
      </trkpt>
      <trkpt lat="45.97509" lon="4.75678">
        <ele>171</ele>
        <time>2018-04-21T09:09:24Z</time>
      </trkpt>
      <trkpt lat="45.97515" lon="4.75675">
        <ele>171</ele>
        <time>2018-04-21T09:09:25Z</time>
      </trkpt>
      <trkpt lat="45.9752" lon="4.75672">
        <ele>171</ele>
        <time>2018-04-21T09:09:26Z</time>
      </trkpt>
      <trkpt lat="45.97525" lon="4.75669">
        <ele>171</ele>
        <time>2018-04-21T09:09:27Z</time>
      </trkpt>
      <trkpt lat="45.97531" lon="4.75667">
        <ele>169</ele>
        <time>2018-04-21T09:09:28Z</time>
      </trkpt>
      <trkpt lat="45.97537" lon="4.75665">
        <ele>169</ele>
        <time>2018-04-21T09:09:29Z</time>
      </trkpt>
      <trkpt lat="45.97542" lon="4.75665">
        <ele>169</ele>
        <time>2018-04-21T09:09:30Z</time>
      </trkpt>
      <trkpt lat="45.97547" lon="4.75671">
        <ele>171</ele>
        <time>2018-04-21T09:09:31Z</time>
      </trkpt>
      <trkpt lat="45.97551" lon="4.75677">
        <ele>171</ele>
        <time>2018-04-21T09:09:32Z</time>
      </trkpt>
      <trkpt lat="45.97554" lon="4.75684">
        <ele>171</ele>
        <time>2018-04-21T09:09:33Z</time>
      </trkpt>
      <trkpt lat="45.97557" lon="4.75687">
        <ele>171</ele>
        <time>2018-04-21T09:09:34Z</time>
      </trkpt>
      <trkpt lat="45.97561" lon="4.75692">
        <ele>172</ele>
        <time>2018-04-21T09:09:35Z</time>
      </trkpt>
      <trkpt lat="45.97566" lon="4.75695">
        <ele>172</ele>
        <time>2018-04-21T09:09:36Z</time>
      </trkpt>
      <trkpt lat="45.9757" lon="4.75698">
        <ele>172</ele>
        <time>2018-04-21T09:09:37Z</time>
      </trkpt>
      <trkpt lat="45.97576" lon="4.75695">
        <ele>172</ele>
        <time>2018-04-21T09:09:38Z</time>
      </trkpt>
      <trkpt lat="45.9758" lon="4.75693">
        <ele>172</ele>
        <time>2018-04-21T09:09:39Z</time>
      </trkpt>
      <trkpt lat="45.97585" lon="4.75693">
        <ele>171</ele>
        <time>2018-04-21T09:09:40Z</time>
      </trkpt>
      <trkpt lat="45.9759" lon="4.75691">
        <ele>171</ele>
        <time>2018-04-21T09:09:41Z</time>
      </trkpt>
      <trkpt lat="45.97594" lon="4.75688">
        <ele>171</ele>
        <time>2018-04-21T09:09:42Z</time>
      </trkpt>
      <trkpt lat="45.97599" lon="4.75686">
        <ele>171</ele>
        <time>2018-04-21T09:09:43Z</time>
      </trkpt>
      <trkpt lat="45.97604" lon="4.75682">
        <ele>171</ele>
        <time>2018-04-21T09:09:44Z</time>
      </trkpt>
      <trkpt lat="45.97608" lon="4.75678">
        <ele>171</ele>
        <time>2018-04-21T09:09:45Z</time>
      </trkpt>
      <trkpt lat="45.97613" lon="4.75677">
        <ele>171</ele>
        <time>2018-04-21T09:09:46Z</time>
      </trkpt>
      <trkpt lat="45.97618" lon="4.75676">
        <ele>171</ele>
        <time>2018-04-21T09:09:47Z</time>
      </trkpt>
      <trkpt lat="45.97624" lon="4.75676">
        <ele>171</ele>
        <time>2018-04-21T09:09:48Z</time>
      </trkpt>
      <trkpt lat="45.9763" lon="4.75676">
        <ele>171</ele>
        <time>2018-04-21T09:09:49Z</time>
      </trkpt>
      <trkpt lat="45.97635" lon="4.75675">
        <ele>170</ele>
        <time>2018-04-21T09:09:50Z</time>
      </trkpt>
      <trkpt lat="45.97641" lon="4.75675">
        <ele>170</ele>
        <time>2018-04-21T09:09:51Z</time>
      </trkpt>
      <trkpt lat="45.97647" lon="4.75674">
        <ele>170</ele>
        <time>2018-04-21T09:09:52Z</time>
      </trkpt>
      <trkpt lat="45.97652" lon="4.75673">
        <ele>170</ele>
        <time>2018-04-21T09:09:53Z</time>
      </trkpt>
      <trkpt lat="45.97658" lon="4.75673">
        <ele>170</ele>
        <time>2018-04-21T09:09:54Z</time>
      </trkpt>
      <trkpt lat="45.97664" lon="4.75673">
        <ele>169</ele>
        <time>2018-04-21T09:09:55Z</time>
      </trkpt>
      <trkpt lat="45.9767" lon="4.75672">
        <ele>170</ele>
        <time>2018-04-21T09:09:56Z</time>
      </trkpt>
      <trkpt lat="45.97675" lon="4.75672">
        <ele>170</ele>
        <time>2018-04-21T09:09:57Z</time>
      </trkpt>
      <trkpt lat="45.97681" lon="4.75673">
        <ele>170</ele>
        <time>2018-04-21T09:09:58Z</time>
      </trkpt>
      <trkpt lat="45.97686" lon="4.75671">
        <ele>170</ele>
        <time>2018-04-21T09:09:59Z</time>
      </trkpt>
      <trkpt lat="45.97692" lon="4.75672">
        <ele>171</ele>
        <time>2018-04-21T09:10:00Z</time>
      </trkpt>
      <trkpt lat="45.97698" lon="4.75671">
        <ele>171</ele>
        <time>2018-04-21T09:10:01Z</time>
      </trkpt>
      <trkpt lat="45.97704" lon="4.7567">
        <ele>171</ele>
        <time>2018-04-21T09:10:02Z</time>
      </trkpt>
      <trkpt lat="45.97709" lon="4.75673">
        <ele>171</ele>
        <time>2018-04-21T09:10:03Z</time>
      </trkpt>
      <trkpt lat="45.97715" lon="4.75674">
        <ele>171</ele>
        <time>2018-04-21T09:10:04Z</time>
      </trkpt>
      <trkpt lat="45.97721" lon="4.75673">
        <ele>171</ele>
        <time>2018-04-21T09:10:05Z</time>
      </trkpt>
      <trkpt lat="45.97727" lon="4.75675">
        <ele>172</ele>
        <time>2018-04-21T09:10:06Z</time>
      </trkpt>
      <trkpt lat="45.97732" lon="4.75675">
        <ele>172</ele>
        <time>2018-04-21T09:10:07Z</time>
      </trkpt>
      <trkpt lat="45.97738" lon="4.75675">
        <ele>172</ele>
        <time>2018-04-21T09:10:08Z</time>
      </trkpt>
      <trkpt lat="45.97743" lon="4.75675">
        <ele>172</ele>
        <time>2018-04-21T09:10:09Z</time>
      </trkpt>
      <trkpt lat="45.97748" lon="4.75676">
        <ele>172</ele>
        <time>2018-04-21T09:10:10Z</time>
      </trkpt>
      <trkpt lat="45.97753" lon="4.75675">
        <ele>173</ele>
        <time>2018-04-21T09:10:11Z</time>
      </trkpt>
      <trkpt lat="45.97758" lon="4.75675">
        <ele>173</ele>
        <time>2018-04-21T09:10:12Z</time>
      </trkpt>
      <trkpt lat="45.97762" lon="4.75678">
        <ele>173</ele>
        <time>2018-04-21T09:10:13Z</time>
      </trkpt>
      <trkpt lat="45.97768" lon="4.75678">
        <ele>174</ele>
        <time>2018-04-21T09:10:14Z</time>
      </trkpt>
      <trkpt lat="45.97773" lon="4.75679">
        <ele>174</ele>
        <time>2018-04-21T09:10:15Z</time>
      </trkpt>
      <trkpt lat="45.97778" lon="4.75679">
        <ele>174</ele>
        <time>2018-04-21T09:10:16Z</time>
      </trkpt>
      <trkpt lat="45.97782" lon="4.7568">
        <ele>174</ele>
        <time>2018-04-21T09:10:17Z</time>
      </trkpt>
      <trkpt lat="45.97787" lon="4.7568">
        <ele>174</ele>
        <time>2018-04-21T09:10:18Z</time>
      </trkpt>
      <trkpt lat="45.97792" lon="4.7568">
        <ele>174</ele>
        <time>2018-04-21T09:10:19Z</time>
      </trkpt>
      <trkpt lat="45.97797" lon="4.75681">
        <ele>175</ele>
        <time>2018-04-21T09:10:20Z</time>
      </trkpt>
      <trkpt lat="45.97802" lon="4.75682">
        <ele>175</ele>
        <time>2018-04-21T09:10:21Z</time>
      </trkpt>
      <trkpt lat="45.97807" lon="4.75682">
        <ele>175</ele>
        <time>2018-04-21T09:10:22Z</time>
      </trkpt>
      <trkpt lat="45.97811" lon="4.75682">
        <ele>175</ele>
        <time>2018-04-21T09:10:23Z</time>
      </trkpt>
      <trkpt lat="45.97816" lon="4.75682">
        <ele>175</ele>
        <time>2018-04-21T09:10:24Z</time>
      </trkpt>
      <trkpt lat="45.97821" lon="4.75683">
        <ele>175</ele>
        <time>2018-04-21T09:10:25Z</time>
      </trkpt>
      <trkpt lat="45.97826" lon="4.75684">
        <ele>175</ele>
        <time>2018-04-21T09:10:26Z</time>
      </trkpt>
      <trkpt lat="45.9783" lon="4.75685">
        <ele>175</ele>
        <time>2018-04-21T09:10:27Z</time>
      </trkpt>
      <trkpt lat="45.97836" lon="4.75686">
        <ele>175</ele>
        <time>2018-04-21T09:10:28Z</time>
      </trkpt>
      <trkpt lat="45.97841" lon="4.75687">
        <ele>175</ele>
        <time>2018-04-21T09:10:29Z</time>
      </trkpt>
      <trkpt lat="45.97846" lon="4.75689">
        <ele>175</ele>
        <time>2018-04-21T09:10:30Z</time>
      </trkpt>
      <trkpt lat="45.9785" lon="4.7569">
        <ele>175</ele>
        <time>2018-04-21T09:10:31Z</time>
      </trkpt>
      <trkpt lat="45.97855" lon="4.75691">
        <ele>175</ele>
        <time>2018-04-21T09:10:32Z</time>
      </trkpt>
      <trkpt lat="45.9786" lon="4.75692">
        <ele>175</ele>
        <time>2018-04-21T09:10:33Z</time>
      </trkpt>
      <trkpt lat="45.97865" lon="4.75694">
        <ele>175</ele>
        <time>2018-04-21T09:10:34Z</time>
      </trkpt>
      <trkpt lat="45.9787" lon="4.75694">
        <ele>175</ele>
        <time>2018-04-21T09:10:35Z</time>
      </trkpt>
      <trkpt lat="45.97875" lon="4.75696">
        <ele>175</ele>
        <time>2018-04-21T09:10:36Z</time>
      </trkpt>
      <trkpt lat="45.97881" lon="4.75699">
        <ele>175</ele>
        <time>2018-04-21T09:10:37Z</time>
      </trkpt>
      <trkpt lat="45.97885" lon="4.75701">
        <ele>175</ele>
        <time>2018-04-21T09:10:38Z</time>
      </trkpt>
      <trkpt lat="45.9789" lon="4.75703">
        <ele>175</ele>
        <time>2018-04-21T09:10:39Z</time>
      </trkpt>
      <trkpt lat="45.97895" lon="4.75705">
        <ele>175</ele>
        <time>2018-04-21T09:10:40Z</time>
      </trkpt>
      <trkpt lat="45.979" lon="4.75708">
        <ele>175</ele>
        <time>2018-04-21T09:10:41Z</time>
      </trkpt>
      <trkpt lat="45.97905" lon="4.75712">
        <ele>175</ele>
        <time>2018-04-21T09:10:42Z</time>
      </trkpt>
      <trkpt lat="45.9791" lon="4.75713">
        <ele>175</ele>
        <time>2018-04-21T09:10:43Z</time>
      </trkpt>
      <trkpt lat="45.97915" lon="4.75717">
        <ele>175</ele>
        <time>2018-04-21T09:10:44Z</time>
      </trkpt>
      <trkpt lat="45.97921" lon="4.75719">
        <ele>174</ele>
        <time>2018-04-21T09:10:45Z</time>
      </trkpt>
      <trkpt lat="45.97926" lon="4.75722">
        <ele>174</ele>
        <time>2018-04-21T09:10:46Z</time>
      </trkpt>
      <trkpt lat="45.9793" lon="4.75724">
        <ele>174</ele>
        <time>2018-04-21T09:10:47Z</time>
      </trkpt>
      <trkpt lat="45.97936" lon="4.75726">
        <ele>174</ele>
        <time>2018-04-21T09:10:48Z</time>
      </trkpt>
      <trkpt lat="45.97943" lon="4.75733">
        <ele>174</ele>
        <time>2018-04-21T09:10:50Z</time>
      </trkpt>
      <trkpt lat="45.97946" lon="4.75737">
        <ele>174</ele>
        <time>2018-04-21T09:10:51Z</time>
      </trkpt>
      <trkpt lat="45.9795" lon="4.75741">
        <ele>174</ele>
        <time>2018-04-21T09:10:52Z</time>
      </trkpt>
      <trkpt lat="45.97954" lon="4.75745">
        <ele>174</ele>
        <time>2018-04-21T09:10:53Z</time>
      </trkpt>
      <trkpt lat="45.97962" lon="4.75745">
        <ele>174</ele>
        <time>2018-04-21T09:10:55Z</time>
      </trkpt>
      <trkpt lat="45.97966" lon="4.75741">
        <ele>174</ele>
        <time>2018-04-21T09:10:56Z</time>
      </trkpt>
      <trkpt lat="45.9797" lon="4.75737">
        <ele>174</ele>
        <time>2018-04-21T09:10:57Z</time>
      </trkpt>
      <trkpt lat="45.97976" lon="4.75733">
        <ele>174</ele>
        <time>2018-04-21T09:10:58Z</time>
      </trkpt>
      <trkpt lat="45.97981" lon="4.75731">
        <ele>174</ele>
        <time>2018-04-21T09:10:59Z</time>
      </trkpt>
      <trkpt lat="45.97987" lon="4.75729">
        <ele>174</ele>
        <time>2018-04-21T09:11:00Z</time>
      </trkpt>
      <trkpt lat="45.97992" lon="4.75726">
        <ele>174</ele>
        <time>2018-04-21T09:11:01Z</time>
      </trkpt>
      <trkpt lat="45.97998" lon="4.75723">
        <ele>174</ele>
        <time>2018-04-21T09:11:02Z</time>
      </trkpt>
      <trkpt lat="45.98003" lon="4.75721">
        <ele>174</ele>
        <time>2018-04-21T09:11:03Z</time>
      </trkpt>
      <trkpt lat="45.98009" lon="4.75719">
        <ele>174</ele>
        <time>2018-04-21T09:11:04Z</time>
      </trkpt>
      <trkpt lat="45.98015" lon="4.75716">
        <ele>174</ele>
        <time>2018-04-21T09:11:05Z</time>
      </trkpt>
      <trkpt lat="45.9802" lon="4.75714">
        <ele>174</ele>
        <time>2018-04-21T09:11:06Z</time>
      </trkpt>
      <trkpt lat="45.98025" lon="4.75712">
        <ele>174</ele>
        <time>2018-04-21T09:11:07Z</time>
      </trkpt>
      <trkpt lat="45.98032" lon="4.7571">
        <ele>174</ele>
        <time>2018-04-21T09:11:08Z</time>
      </trkpt>
      <trkpt lat="45.98038" lon="4.75708">
        <ele>174</ele>
        <time>2018-04-21T09:11:09Z</time>
      </trkpt>
      <trkpt lat="45.98044" lon="4.75707">
        <ele>174</ele>
        <time>2018-04-21T09:11:10Z</time>
      </trkpt>
      <trkpt lat="45.9805" lon="4.75707">
        <ele>174</ele>
        <time>2018-04-21T09:11:11Z</time>
      </trkpt>
      <trkpt lat="45.98056" lon="4.75706">
        <ele>174</ele>
        <time>2018-04-21T09:11:12Z</time>
      </trkpt>
      <trkpt lat="45.98062" lon="4.75707">
        <ele>174</ele>
        <time>2018-04-21T09:11:13Z</time>
      </trkpt>
      <trkpt lat="45.98067" lon="4.75708">
        <ele>174</ele>
        <time>2018-04-21T09:11:14Z</time>
      </trkpt>
      <trkpt lat="45.98073" lon="4.75707">
        <ele>174</ele>
        <time>2018-04-21T09:11:15Z</time>
      </trkpt>
      <trkpt lat="45.98079" lon="4.75706">
        <ele>174</ele>
        <time>2018-04-21T09:11:16Z</time>
      </trkpt>
      <trkpt lat="45.98085" lon="4.75705">
        <ele>174</ele>
        <time>2018-04-21T09:11:17Z</time>
      </trkpt>
      <trkpt lat="45.98091" lon="4.75706">
        <ele>174</ele>
        <time>2018-04-21T09:11:18Z</time>
      </trkpt>
      <trkpt lat="45.98096" lon="4.75705">
        <ele>174</ele>
        <time>2018-04-21T09:11:19Z</time>
      </trkpt>
      <trkpt lat="45.98103" lon="4.75704">
        <ele>174</ele>
        <time>2018-04-21T09:11:20Z</time>
      </trkpt>
      <trkpt lat="45.98109" lon="4.75704">
        <ele>174</ele>
        <time>2018-04-21T09:11:21Z</time>
      </trkpt>
      <trkpt lat="45.98115" lon="4.75703">
        <ele>174</ele>
        <time>2018-04-21T09:11:22Z</time>
      </trkpt>
      <trkpt lat="45.98121" lon="4.75702">
        <ele>174</ele>
        <time>2018-04-21T09:11:23Z</time>
      </trkpt>
      <trkpt lat="45.98127" lon="4.75702">
        <ele>174</ele>
        <time>2018-04-21T09:11:24Z</time>
      </trkpt>
      <trkpt lat="45.98133" lon="4.75703">
        <ele>174</ele>
        <time>2018-04-21T09:11:25Z</time>
      </trkpt>
      <trkpt lat="45.98138" lon="4.75702">
        <ele>174</ele>
        <time>2018-04-21T09:11:26Z</time>
      </trkpt>
      <trkpt lat="45.98145" lon="4.75702">
        <ele>174</ele>
        <time>2018-04-21T09:11:27Z</time>
      </trkpt>
      <trkpt lat="45.98151" lon="4.75702">
        <ele>174</ele>
        <time>2018-04-21T09:11:28Z</time>
      </trkpt>
      <trkpt lat="45.98156" lon="4.75701">
        <ele>174</ele>
        <time>2018-04-21T09:11:29Z</time>
      </trkpt>
      <trkpt lat="45.98161" lon="4.75699">
        <ele>174</ele>
        <time>2018-04-21T09:11:30Z</time>
      </trkpt>
      <trkpt lat="45.98163" lon="4.75699">
        <ele>174</ele>
        <time>2018-04-21T09:11:31Z</time>
      </trkpt>
      <trkpt lat="45.9817" lon="4.75698">
        <ele>174</ele>
        <time>2018-04-21T09:11:32Z</time>
      </trkpt>
      <trkpt lat="45.98175" lon="4.75696">
        <ele>174</ele>
        <time>2018-04-21T09:11:33Z</time>
      </trkpt>
      <trkpt lat="45.98181" lon="4.75696">
        <ele>174</ele>
        <time>2018-04-21T09:11:34Z</time>
      </trkpt>
      <trkpt lat="45.98186" lon="4.75696">
        <ele>174</ele>
        <time>2018-04-21T09:11:35Z</time>
      </trkpt>
      <trkpt lat="45.98191" lon="4.75696">
        <ele>174</ele>
        <time>2018-04-21T09:11:36Z</time>
      </trkpt>
      <trkpt lat="45.98196" lon="4.75696">
        <ele>174</ele>
        <time>2018-04-21T09:11:37Z</time>
      </trkpt>
      <trkpt lat="45.98202" lon="4.75695">
        <ele>174</ele>
        <time>2018-04-21T09:11:38Z</time>
      </trkpt>
      <trkpt lat="45.98207" lon="4.75694">
        <ele>174</ele>
        <time>2018-04-21T09:11:39Z</time>
      </trkpt>
      <trkpt lat="45.98211" lon="4.75694">
        <ele>174</ele>
        <time>2018-04-21T09:11:40Z</time>
      </trkpt>
      <trkpt lat="45.98218" lon="4.75693">
        <ele>174</ele>
        <time>2018-04-21T09:11:41Z</time>
      </trkpt>
      <trkpt lat="45.98224" lon="4.75691">
        <ele>174</ele>
        <time>2018-04-21T09:11:42Z</time>
      </trkpt>
      <trkpt lat="45.98231" lon="4.75688">
        <ele>174</ele>
        <time>2018-04-21T09:11:43Z</time>
      </trkpt>
      <trkpt lat="45.98236" lon="4.75686">
        <ele>174</ele>
        <time>2018-04-21T09:11:44Z</time>
      </trkpt>
      <trkpt lat="45.98241" lon="4.75685">
        <ele>174</ele>
        <time>2018-04-21T09:11:45Z</time>
      </trkpt>
      <trkpt lat="45.98247" lon="4.75685">
        <ele>174</ele>
        <time>2018-04-21T09:11:46Z</time>
      </trkpt>
      <trkpt lat="45.98252" lon="4.75685">
        <ele>173</ele>
        <time>2018-04-21T09:11:47Z</time>
      </trkpt>
      <trkpt lat="45.98257" lon="4.75686">
        <ele>173</ele>
        <time>2018-04-21T09:11:48Z</time>
      </trkpt>
      <trkpt lat="45.98263" lon="4.75687">
        <ele>173</ele>
        <time>2018-04-21T09:11:49Z</time>
      </trkpt>
      <trkpt lat="45.98268" lon="4.75687">
        <ele>174</ele>
        <time>2018-04-21T09:11:50Z</time>
      </trkpt>
      <trkpt lat="45.98274" lon="4.75687">
        <ele>174</ele>
        <time>2018-04-21T09:11:51Z</time>
      </trkpt>
      <trkpt lat="45.9828" lon="4.75688">
        <ele>174</ele>
        <time>2018-04-21T09:11:52Z</time>
      </trkpt>
      <trkpt lat="45.98287" lon="4.75687">
        <ele>174</ele>
        <time>2018-04-21T09:11:53Z</time>
      </trkpt>
      <trkpt lat="45.98293" lon="4.75689">
        <ele>174</ele>
        <time>2018-04-21T09:11:54Z</time>
      </trkpt>
      <trkpt lat="45.983" lon="4.7569">
        <ele>174</ele>
        <time>2018-04-21T09:11:55Z</time>
      </trkpt>
      <trkpt lat="45.98306" lon="4.7569">
        <ele>174</ele>
        <time>2018-04-21T09:11:56Z</time>
      </trkpt>
      <trkpt lat="45.98312" lon="4.75691">
        <ele>174</ele>
        <time>2018-04-21T09:11:57Z</time>
      </trkpt>
      <trkpt lat="45.98318" lon="4.75692">
        <ele>174</ele>
        <time>2018-04-21T09:11:58Z</time>
      </trkpt>
      <trkpt lat="45.98324" lon="4.75693">
        <ele>174</ele>
        <time>2018-04-21T09:11:59Z</time>
      </trkpt>
      <trkpt lat="45.98331" lon="4.75694">
        <ele>174</ele>
        <time>2018-04-21T09:12:00Z</time>
      </trkpt>
      <trkpt lat="45.98337" lon="4.75695">
        <ele>174</ele>
        <time>2018-04-21T09:12:01Z</time>
      </trkpt>
      <trkpt lat="45.98344" lon="4.75695">
        <ele>174</ele>
        <time>2018-04-21T09:12:02Z</time>
      </trkpt>
      <trkpt lat="45.9835" lon="4.75696">
        <ele>174</ele>
        <time>2018-04-21T09:12:03Z</time>
      </trkpt>
      <trkpt lat="45.98355" lon="4.75697">
        <ele>174</ele>
        <time>2018-04-21T09:12:04Z</time>
      </trkpt>
      <trkpt lat="45.98361" lon="4.75698">
        <ele>174</ele>
        <time>2018-04-21T09:12:05Z</time>
      </trkpt>
      <trkpt lat="45.98366" lon="4.757">
        <ele>174</ele>
        <time>2018-04-21T09:12:06Z</time>
      </trkpt>
      <trkpt lat="45.98372" lon="4.75702">
        <ele>174</ele>
        <time>2018-04-21T09:12:07Z</time>
      </trkpt>
      <trkpt lat="45.98375" lon="4.75706">
        <ele>174</ele>
        <time>2018-04-21T09:12:08Z</time>
      </trkpt>
      <trkpt lat="45.98382" lon="4.75706">
        <ele>174</ele>
        <time>2018-04-21T09:12:11Z</time>
      </trkpt>
      <trkpt lat="45.98384" lon="4.75705">
        <ele>174</ele>
        <time>2018-04-21T09:12:12Z</time>
      </trkpt>
      <trkpt lat="45.98388" lon="4.75704">
        <ele>174</ele>
        <time>2018-04-21T09:12:13Z</time>
      </trkpt>
      <trkpt lat="45.98396" lon="4.75703">
        <ele>174</ele>
        <time>2018-04-21T09:12:14Z</time>
      </trkpt>
      <trkpt lat="45.98405" lon="4.75703">
        <ele>174</ele>
        <time>2018-04-21T09:12:16Z</time>
      </trkpt>
      <trkpt lat="45.9841" lon="4.75704">
        <ele>174</ele>
        <time>2018-04-21T09:12:17Z</time>
      </trkpt>
      <trkpt lat="45.98414" lon="4.75704">
        <ele>174</ele>
        <time>2018-04-21T09:12:18Z</time>
      </trkpt>
      <trkpt lat="45.9842" lon="4.75705">
        <ele>175</ele>
        <time>2018-04-21T09:12:19Z</time>
      </trkpt>
      <trkpt lat="45.98428" lon="4.75708">
        <ele>175</ele>
        <time>2018-04-21T09:12:21Z</time>
      </trkpt>
      <trkpt lat="45.98433" lon="4.75708">
        <ele>175</ele>
        <time>2018-04-21T09:12:22Z</time>
      </trkpt>
      <trkpt lat="45.98437" lon="4.75709">
        <ele>174</ele>
        <time>2018-04-21T09:12:23Z</time>
      </trkpt>
      <trkpt lat="45.98442" lon="4.7571">
        <ele>174</ele>
        <time>2018-04-21T09:12:24Z</time>
      </trkpt>
      <trkpt lat="45.98446" lon="4.75711">
        <ele>174</ele>
        <time>2018-04-21T09:12:25Z</time>
      </trkpt>
      <trkpt lat="45.98451" lon="4.75712">
        <ele>174</ele>
        <time>2018-04-21T09:12:26Z</time>
      </trkpt>
      <trkpt lat="45.98457" lon="4.75713">
        <ele>174</ele>
        <time>2018-04-21T09:12:27Z</time>
      </trkpt>
      <trkpt lat="45.98462" lon="4.75714">
        <ele>175</ele>
        <time>2018-04-21T09:12:28Z</time>
      </trkpt>
      <trkpt lat="45.98467" lon="4.75714">
        <ele>175</ele>
        <time>2018-04-21T09:12:29Z</time>
      </trkpt>
      <trkpt lat="45.98473" lon="4.75714">
        <ele>175</ele>
        <time>2018-04-21T09:12:30Z</time>
      </trkpt>
      <trkpt lat="45.98478" lon="4.75715">
        <ele>175</ele>
        <time>2018-04-21T09:12:31Z</time>
      </trkpt>
      <trkpt lat="45.98483" lon="4.75716">
        <ele>175</ele>
        <time>2018-04-21T09:12:32Z</time>
      </trkpt>
      <trkpt lat="45.98487" lon="4.7572">
        <ele>175</ele>
        <time>2018-04-21T09:12:33Z</time>
      </trkpt>
      <trkpt lat="45.98491" lon="4.75724">
        <ele>175</ele>
        <time>2018-04-21T09:12:34Z</time>
      </trkpt>
      <trkpt lat="45.98492" lon="4.75731">
        <ele>175</ele>
        <time>2018-04-21T09:12:35Z</time>
      </trkpt>
      <trkpt lat="45.98493" lon="4.75736">
        <ele>175</ele>
        <time>2018-04-21T09:12:36Z</time>
      </trkpt>
      <trkpt lat="45.98495" lon="4.75749">
        <ele>175</ele>
        <time>2018-04-21T09:12:38Z</time>
      </trkpt>
      <trkpt lat="45.98494" lon="4.75754">
        <ele>175</ele>
        <time>2018-04-21T09:12:39Z</time>
      </trkpt>
      <trkpt lat="45.98496" lon="4.75766">
        <ele>176</ele>
        <time>2018-04-21T09:12:41Z</time>
      </trkpt>
      <trkpt lat="45.98496" lon="4.75772">
        <ele>176</ele>
        <time>2018-04-21T09:12:42Z</time>
      </trkpt>
      <trkpt lat="45.98496" lon="4.75785">
        <ele>176</ele>
        <time>2018-04-21T09:12:44Z</time>
      </trkpt>
      <trkpt lat="45.98497" lon="4.7579">
        <ele>176</ele>
        <time>2018-04-21T09:12:45Z</time>
      </trkpt>
      <trkpt lat="45.985" lon="4.75795">
        <ele>176</ele>
        <time>2018-04-21T09:12:46Z</time>
      </trkpt>
      <trkpt lat="45.98504" lon="4.75799">
        <ele>176</ele>
        <time>2018-04-21T09:12:47Z</time>
      </trkpt>
      <trkpt lat="45.98509" lon="4.75801">
        <ele>176</ele>
        <time>2018-04-21T09:12:48Z</time>
      </trkpt>
      <trkpt lat="45.98513" lon="4.75803">
        <ele>177</ele>
        <time>2018-04-21T09:12:49Z</time>
      </trkpt>
      <trkpt lat="45.98518" lon="4.75804">
        <ele>176</ele>
        <time>2018-04-21T09:12:50Z</time>
      </trkpt>
      <trkpt lat="45.98524" lon="4.75804">
        <ele>176</ele>
        <time>2018-04-21T09:12:51Z</time>
      </trkpt>
      <trkpt lat="45.98529" lon="4.75805">
        <ele>176</ele>
        <time>2018-04-21T09:12:52Z</time>
      </trkpt>
      <trkpt lat="45.98534" lon="4.75806">
        <ele>176</ele>
        <time>2018-04-21T09:12:53Z</time>
      </trkpt>
      <trkpt lat="45.9854" lon="4.75808">
        <ele>176</ele>
        <time>2018-04-21T09:12:54Z</time>
      </trkpt>
      <trkpt lat="45.98545" lon="4.75809">
        <ele>176</ele>
        <time>2018-04-21T09:12:55Z</time>
      </trkpt>
      <trkpt lat="45.9855" lon="4.7581">
        <ele>176</ele>
        <time>2018-04-21T09:12:56Z</time>
      </trkpt>
      <trkpt lat="45.98557" lon="4.75813">
        <ele>176</ele>
        <time>2018-04-21T09:12:57Z</time>
      </trkpt>
      <trkpt lat="45.98562" lon="4.75817">
        <ele>176</ele>
        <time>2018-04-21T09:12:58Z</time>
      </trkpt>
      <trkpt lat="45.98566" lon="4.75821">
        <ele>176</ele>
        <time>2018-04-21T09:12:59Z</time>
      </trkpt>
      <trkpt lat="45.98571" lon="4.75824">
        <ele>176</ele>
        <time>2018-04-21T09:13:00Z</time>
      </trkpt>
      <trkpt lat="45.98576" lon="4.75828">
        <ele>176</ele>
        <time>2018-04-21T09:13:01Z</time>
      </trkpt>
      <trkpt lat="45.9858" lon="4.75832">
        <ele>176</ele>
        <time>2018-04-21T09:13:02Z</time>
      </trkpt>
      <trkpt lat="45.98585" lon="4.75835">
        <ele>176</ele>
        <time>2018-04-21T09:13:03Z</time>
      </trkpt>
      <trkpt lat="45.98591" lon="4.75841">
        <ele>177</ele>
        <time>2018-04-21T09:13:05Z</time>
      </trkpt>
      <trkpt lat="45.98592" lon="4.75842">
        <ele>177</ele>
        <time>2018-04-21T09:13:06Z</time>
      </trkpt>
      <trkpt lat="45.98598" lon="4.7584">
        <ele>177</ele>
        <time>2018-04-21T09:13:07Z</time>
      </trkpt>
      <trkpt lat="45.98601" lon="4.75837">
        <ele>177</ele>
        <time>2018-04-21T09:13:08Z</time>
      </trkpt>
      <trkpt lat="45.98606" lon="4.75827">
        <ele>176</ele>
        <time>2018-04-21T09:13:10Z</time>
      </trkpt>
      <trkpt lat="45.98606" lon="4.75821">
        <ele>176</ele>
        <time>2018-04-21T09:13:11Z</time>
      </trkpt>
      <trkpt lat="45.98605" lon="4.75811">
        <ele>176</ele>
        <time>2018-04-21T09:13:15Z</time>
      </trkpt>
      <trkpt lat="45.98605" lon="4.75808">
        <ele>176</ele>
        <time>2018-04-21T09:13:16Z</time>
      </trkpt>
      <trkpt lat="45.98604" lon="4.75801">
        <ele>176</ele>
        <time>2018-04-21T09:13:18Z</time>
      </trkpt>
      <trkpt lat="45.98604" lon="4.75789">
        <ele>176</ele>
        <time>2018-04-21T09:13:19Z</time>
      </trkpt>
      <trkpt lat="45.98602" lon="4.75776">
        <ele>175</ele>
        <time>2018-04-21T09:13:21Z</time>
      </trkpt>
      <trkpt lat="45.98602" lon="4.75771">
        <ele>175</ele>
        <time>2018-04-21T09:13:22Z</time>
      </trkpt>
      <trkpt lat="45.98602" lon="4.7576">
        <ele>175</ele>
        <time>2018-04-21T09:13:24Z</time>
      </trkpt>
      <trkpt lat="45.98601" lon="4.75754">
        <ele>175</ele>
        <time>2018-04-21T09:13:25Z</time>
      </trkpt>
      <trkpt lat="45.98599" lon="4.75742">
        <ele>174</ele>
        <time>2018-04-21T09:13:27Z</time>
      </trkpt>
      <trkpt lat="45.98601" lon="4.7574">
        <ele>174</ele>
        <time>2018-04-21T09:13:28Z</time>
      </trkpt>
      <trkpt lat="45.98603" lon="4.75738">
        <ele>174</ele>
        <time>2018-04-21T09:13:29Z</time>
      </trkpt>
      <trkpt lat="45.9861" lon="4.75734">
        <ele>175</ele>
        <time>2018-04-21T09:13:30Z</time>
      </trkpt>
      <trkpt lat="45.98614" lon="4.75732">
        <ele>175</ele>
        <time>2018-04-21T09:13:31Z</time>
      </trkpt>
      <trkpt lat="45.98619" lon="4.75733">
        <ele>175</ele>
        <time>2018-04-21T09:13:32Z</time>
      </trkpt>
      <trkpt lat="45.98627" lon="4.75732">
        <ele>175</ele>
        <time>2018-04-21T09:13:34Z</time>
      </trkpt>
      <trkpt lat="45.98631" lon="4.75729">
        <ele>175</ele>
        <time>2018-04-21T09:13:35Z</time>
      </trkpt>
      <trkpt lat="45.98638" lon="4.75732">
        <ele>175</ele>
        <time>2018-04-21T09:13:37Z</time>
      </trkpt>
      <trkpt lat="45.98644" lon="4.75734">
        <ele>176</ele>
        <time>2018-04-21T09:13:38Z</time>
      </trkpt>
      <trkpt lat="45.98652" lon="4.75735">
        <ele>176</ele>
        <time>2018-04-21T09:13:39Z</time>
      </trkpt>
      <trkpt lat="45.98657" lon="4.75736">
        <ele>176</ele>
        <time>2018-04-21T09:13:40Z</time>
      </trkpt>
      <trkpt lat="45.98662" lon="4.75737">
        <ele>176</ele>
        <time>2018-04-21T09:13:41Z</time>
      </trkpt>
      <trkpt lat="45.98667" lon="4.75735">
        <ele>177</ele>
        <time>2018-04-21T09:13:42Z</time>
      </trkpt>
      <trkpt lat="45.98672" lon="4.75735">
        <ele>177</ele>
        <time>2018-04-21T09:13:43Z</time>
      </trkpt>
      <trkpt lat="45.98678" lon="4.75735">
        <ele>177</ele>
        <time>2018-04-21T09:13:44Z</time>
      </trkpt>
      <trkpt lat="45.98683" lon="4.75735">
        <ele>177</ele>
        <time>2018-04-21T09:13:45Z</time>
      </trkpt>
      <trkpt lat="45.98687" lon="4.75736">
        <ele>177</ele>
        <time>2018-04-21T09:13:46Z</time>
      </trkpt>
      <trkpt lat="45.98692" lon="4.75735">
        <ele>177</ele>
        <time>2018-04-21T09:13:48Z</time>
      </trkpt>
      <trkpt lat="45.98697" lon="4.75734">
        <ele>177</ele>
        <time>2018-04-21T09:13:49Z</time>
      </trkpt>
      <trkpt lat="45.98701" lon="4.75734">
        <ele>177</ele>
        <time>2018-04-21T09:13:50Z</time>
      </trkpt>
      <trkpt lat="45.98707" lon="4.75735">
        <ele>177</ele>
        <time>2018-04-21T09:13:51Z</time>
      </trkpt>
      <trkpt lat="45.98712" lon="4.75736">
        <ele>177</ele>
        <time>2018-04-21T09:13:52Z</time>
      </trkpt>
      <trkpt lat="45.98716" lon="4.75735">
        <ele>177</ele>
        <time>2018-04-21T09:13:53Z</time>
      </trkpt>
      <trkpt lat="45.98724" lon="4.75733">
        <ele>177</ele>
        <time>2018-04-21T09:13:55Z</time>
      </trkpt>
      <trkpt lat="45.98728" lon="4.75733">
        <ele>177</ele>
        <time>2018-04-21T09:13:56Z</time>
      </trkpt>
      <trkpt lat="45.98733" lon="4.75731">
        <ele>177</ele>
        <time>2018-04-21T09:13:57Z</time>
      </trkpt>
      <trkpt lat="45.98738" lon="4.75732">
        <ele>177</ele>
        <time>2018-04-21T09:13:58Z</time>
      </trkpt>
      <trkpt lat="45.98746" lon="4.75731">
        <ele>177</ele>
        <time>2018-04-21T09:14:00Z</time>
      </trkpt>
      <trkpt lat="45.98752" lon="4.75731">
        <ele>178</ele>
        <time>2018-04-21T09:14:01Z</time>
      </trkpt>
      <trkpt lat="45.98761" lon="4.75732">
        <ele>178</ele>
        <time>2018-04-21T09:14:03Z</time>
      </trkpt>
      <trkpt lat="45.98764" lon="4.75732">
        <ele>178</ele>
        <time>2018-04-21T09:14:04Z</time>
      </trkpt>
      <trkpt lat="45.98773" lon="4.75733">
        <ele>178</ele>
        <time>2018-04-21T09:14:06Z</time>
      </trkpt>
      <trkpt lat="45.98776" lon="4.75731">
        <ele>178</ele>
        <time>2018-04-21T09:14:07Z</time>
      </trkpt>
      <trkpt lat="45.98781" lon="4.7573">
        <ele>178</ele>
        <time>2018-04-21T09:14:08Z</time>
      </trkpt>
      <trkpt lat="45.98786" lon="4.75728">
        <ele>178</ele>
        <time>2018-04-21T09:14:09Z</time>
      </trkpt>
      <trkpt lat="45.98792" lon="4.75728">
        <ele>179</ele>
        <time>2018-04-21T09:14:10Z</time>
      </trkpt>
      <trkpt lat="45.98797" lon="4.75727">
        <ele>179</ele>
        <time>2018-04-21T09:14:11Z</time>
      </trkpt>
      <trkpt lat="45.98803" lon="4.75727">
        <ele>179</ele>
        <time>2018-04-21T09:14:12Z</time>
      </trkpt>
      <trkpt lat="45.98809" lon="4.75726">
        <ele>179</ele>
        <time>2018-04-21T09:14:13Z</time>
      </trkpt>
      <trkpt lat="45.98815" lon="4.75725">
        <ele>179</ele>
        <time>2018-04-21T09:14:14Z</time>
      </trkpt>
      <trkpt lat="45.9882" lon="4.75724">
        <ele>179</ele>
        <time>2018-04-21T09:14:15Z</time>
      </trkpt>
      <trkpt lat="45.98825" lon="4.75723">
        <ele>179</ele>
        <time>2018-04-21T09:14:16Z</time>
      </trkpt>
      <trkpt lat="45.9883" lon="4.75722">
        <ele>179</ele>
        <time>2018-04-21T09:14:17Z</time>
      </trkpt>
      <trkpt lat="45.98835" lon="4.75723">
        <ele>180</ele>
        <time>2018-04-21T09:14:18Z</time>
      </trkpt>
      <trkpt lat="45.98841" lon="4.75722">
        <ele>180</ele>
        <time>2018-04-21T09:14:19Z</time>
      </trkpt>
      <trkpt lat="45.98846" lon="4.75722">
        <ele>180</ele>
        <time>2018-04-21T09:14:20Z</time>
      </trkpt>
      <trkpt lat="45.98852" lon="4.75722">
        <ele>180</ele>
        <time>2018-04-21T09:14:21Z</time>
      </trkpt>
      <trkpt lat="45.98858" lon="4.75722">
        <ele>180</ele>
        <time>2018-04-21T09:14:22Z</time>
      </trkpt>
      <trkpt lat="45.98863" lon="4.75721">
        <ele>180</ele>
        <time>2018-04-21T09:14:23Z</time>
      </trkpt>
      <trkpt lat="45.98868" lon="4.7572">
        <ele>180</ele>
        <time>2018-04-21T09:14:24Z</time>
      </trkpt>
      <trkpt lat="45.98874" lon="4.75717">
        <ele>180</ele>
        <time>2018-04-21T09:14:25Z</time>
      </trkpt>
      <trkpt lat="45.98879" lon="4.75717">
        <ele>180</ele>
        <time>2018-04-21T09:14:26Z</time>
      </trkpt>
      <trkpt lat="45.98884" lon="4.75717">
        <ele>180</ele>
        <time>2018-04-21T09:14:27Z</time>
      </trkpt>
      <trkpt lat="45.98889" lon="4.75715">
        <ele>180</ele>
        <time>2018-04-21T09:14:28Z</time>
      </trkpt>
      <trkpt lat="45.98894" lon="4.75711">
        <ele>180</ele>
        <time>2018-04-21T09:14:29Z</time>
      </trkpt>
      <trkpt lat="45.98899" lon="4.75709">
        <ele>180</ele>
        <time>2018-04-21T09:14:30Z</time>
      </trkpt>
      <trkpt lat="45.98905" lon="4.75707">
        <ele>180</ele>
        <time>2018-04-21T09:14:31Z</time>
      </trkpt>
      <trkpt lat="45.98909" lon="4.75704">
        <ele>180</ele>
        <time>2018-04-21T09:14:32Z</time>
      </trkpt>
      <trkpt lat="45.98914" lon="4.757">
        <ele>180</ele>
        <time>2018-04-21T09:14:33Z</time>
      </trkpt>
      <trkpt lat="45.98918" lon="4.75697">
        <ele>181</ele>
        <time>2018-04-21T09:14:34Z</time>
      </trkpt>
      <trkpt lat="45.98923" lon="4.75694">
        <ele>181</ele>
        <time>2018-04-21T09:14:35Z</time>
      </trkpt>
      <trkpt lat="45.98929" lon="4.75692">
        <ele>181</ele>
        <time>2018-04-21T09:14:36Z</time>
      </trkpt>
      <trkpt lat="45.98935" lon="4.75685">
        <ele>181</ele>
        <time>2018-04-21T09:14:37Z</time>
      </trkpt>
      <trkpt lat="45.98938" lon="4.75686">
        <ele>181</ele>
        <time>2018-04-21T09:14:38Z</time>
      </trkpt>
      <trkpt lat="45.98944" lon="4.7568">
        <ele>181</ele>
        <time>2018-04-21T09:14:39Z</time>
      </trkpt>
      <trkpt lat="45.98949" lon="4.75677">
        <ele>181</ele>
        <time>2018-04-21T09:14:40Z</time>
      </trkpt>
      <trkpt lat="45.98956" lon="4.75674">
        <ele>181</ele>
        <time>2018-04-21T09:14:41Z</time>
      </trkpt>
      <trkpt lat="45.9896" lon="4.75676">
        <ele>181</ele>
        <time>2018-04-21T09:14:42Z</time>
      </trkpt>
      <trkpt lat="45.98966" lon="4.75673">
        <ele>181</ele>
        <time>2018-04-21T09:14:43Z</time>
      </trkpt>
      <trkpt lat="45.98971" lon="4.7567">
        <ele>181</ele>
        <time>2018-04-21T09:14:44Z</time>
      </trkpt>
      <trkpt lat="45.98977" lon="4.75668">
        <ele>181</ele>
        <time>2018-04-21T09:14:45Z</time>
      </trkpt>
      <trkpt lat="45.98982" lon="4.75667">
        <ele>181</ele>
        <time>2018-04-21T09:14:46Z</time>
      </trkpt>
      <trkpt lat="45.98986" lon="4.75665">
        <ele>178</ele>
        <time>2018-04-21T09:14:47Z</time>
      </trkpt>
      <trkpt lat="45.98991" lon="4.75662">
        <ele>179</ele>
        <time>2018-04-21T09:14:48Z</time>
      </trkpt>
      <trkpt lat="45.98997" lon="4.75662">
        <ele>179</ele>
        <time>2018-04-21T09:14:49Z</time>
      </trkpt>
      <trkpt lat="45.99003" lon="4.75661">
        <ele>179</ele>
        <time>2018-04-21T09:14:50Z</time>
      </trkpt>
      <trkpt lat="45.99008" lon="4.75661">
        <ele>179</ele>
        <time>2018-04-21T09:14:51Z</time>
      </trkpt>
      <trkpt lat="45.99013" lon="4.75661">
        <ele>179</ele>
        <time>2018-04-21T09:14:52Z</time>
      </trkpt>
      <trkpt lat="45.99018" lon="4.75661">
        <ele>178</ele>
        <time>2018-04-21T09:14:53Z</time>
      </trkpt>
      <trkpt lat="45.99023" lon="4.75662">
        <ele>178</ele>
        <time>2018-04-21T09:14:54Z</time>
      </trkpt>
      <trkpt lat="45.99029" lon="4.75661">
        <ele>178</ele>
        <time>2018-04-21T09:14:55Z</time>
      </trkpt>
      <trkpt lat="45.99034" lon="4.75663">
        <ele>178</ele>
        <time>2018-04-21T09:14:56Z</time>
      </trkpt>
      <trkpt lat="45.99039" lon="4.75663">
        <ele>178</ele>
        <time>2018-04-21T09:14:57Z</time>
      </trkpt>
      <trkpt lat="45.99045" lon="4.75666">
        <ele>178</ele>
        <time>2018-04-21T09:14:58Z</time>
      </trkpt>
      <trkpt lat="45.99049" lon="4.75666">
        <ele>178</ele>
        <time>2018-04-21T09:14:59Z</time>
      </trkpt>
      <trkpt lat="45.99054" lon="4.75665">
        <ele>178</ele>
        <time>2018-04-21T09:15:00Z</time>
      </trkpt>
      <trkpt lat="45.99059" lon="4.75666">
        <ele>178</ele>
        <time>2018-04-21T09:15:01Z</time>
      </trkpt>
      <trkpt lat="45.99064" lon="4.75666">
        <ele>178</ele>
        <time>2018-04-21T09:15:02Z</time>
      </trkpt>
      <trkpt lat="45.99069" lon="4.75667">
        <ele>182</ele>
        <time>2018-04-21T09:15:03Z</time>
      </trkpt>
      <trkpt lat="45.99071" lon="4.75667">
        <ele>182</ele>
        <time>2018-04-21T09:15:04Z</time>
      </trkpt>
      <trkpt lat="45.99078" lon="4.75667">
        <ele>181</ele>
        <time>2018-04-21T09:15:05Z</time>
      </trkpt>
      <trkpt lat="45.99087" lon="4.75668">
        <ele>181</ele>
        <time>2018-04-21T09:15:07Z</time>
      </trkpt>
      <trkpt lat="45.99092" lon="4.75667">
        <ele>179</ele>
        <time>2018-04-21T09:15:08Z</time>
      </trkpt>
      <trkpt lat="45.991" lon="4.75664">
        <ele>179</ele>
        <time>2018-04-21T09:15:10Z</time>
      </trkpt>
      <trkpt lat="45.99104" lon="4.75661">
        <ele>178</ele>
        <time>2018-04-21T09:15:11Z</time>
      </trkpt>
      <trkpt lat="45.99109" lon="4.75658">
        <ele>178</ele>
        <time>2018-04-21T09:15:12Z</time>
      </trkpt>
      <trkpt lat="45.99114" lon="4.75653">
        <ele>178</ele>
        <time>2018-04-21T09:15:13Z</time>
      </trkpt>
      <trkpt lat="45.9912" lon="4.75648">
        <ele>178</ele>
        <time>2018-04-21T09:15:14Z</time>
      </trkpt>
      <trkpt lat="45.99125" lon="4.75645">
        <ele>178</ele>
        <time>2018-04-21T09:15:15Z</time>
      </trkpt>
      <trkpt lat="45.9913" lon="4.75645">
        <ele>178</ele>
        <time>2018-04-21T09:15:16Z</time>
      </trkpt>
      <trkpt lat="45.99135" lon="4.7564">
        <ele>178</ele>
        <time>2018-04-21T09:15:17Z</time>
      </trkpt>
      <trkpt lat="45.9914" lon="4.75636">
        <ele>177</ele>
        <time>2018-04-21T09:15:18Z</time>
      </trkpt>
      <trkpt lat="45.99145" lon="4.7563">
        <ele>177</ele>
        <time>2018-04-21T09:15:19Z</time>
      </trkpt>
      <trkpt lat="45.99151" lon="4.75627">
        <ele>177</ele>
        <time>2018-04-21T09:15:20Z</time>
      </trkpt>
      <trkpt lat="45.99156" lon="4.75623">
        <ele>177</ele>
        <time>2018-04-21T09:15:21Z</time>
      </trkpt>
      <trkpt lat="45.99161" lon="4.7562">
        <ele>177</ele>
        <time>2018-04-21T09:15:22Z</time>
      </trkpt>
      <trkpt lat="45.99167" lon="4.75615">
        <ele>178</ele>
        <time>2018-04-21T09:15:23Z</time>
      </trkpt>
      <trkpt lat="45.99173" lon="4.75611">
        <ele>178</ele>
        <time>2018-04-21T09:15:24Z</time>
      </trkpt>
      <trkpt lat="45.99178" lon="4.75608">
        <ele>178</ele>
        <time>2018-04-21T09:15:25Z</time>
      </trkpt>
      <trkpt lat="45.99183" lon="4.75603">
        <ele>178</ele>
        <time>2018-04-21T09:15:26Z</time>
      </trkpt>
      <trkpt lat="45.99189" lon="4.75599">
        <ele>178</ele>
        <time>2018-04-21T09:15:27Z</time>
      </trkpt>
      <trkpt lat="45.99194" lon="4.75593">
        <ele>178</ele>
        <time>2018-04-21T09:15:28Z</time>
      </trkpt>
      <trkpt lat="45.992" lon="4.75589">
        <ele>178</ele>
        <time>2018-04-21T09:15:29Z</time>
      </trkpt>
      <trkpt lat="45.99207" lon="4.75585">
        <ele>178</ele>
        <time>2018-04-21T09:15:30Z</time>
      </trkpt>
      <trkpt lat="45.99213" lon="4.75581">
        <ele>175</ele>
        <time>2018-04-21T09:15:31Z</time>
      </trkpt>
      <trkpt lat="45.99219" lon="4.75577">
        <ele>175</ele>
        <time>2018-04-21T09:15:32Z</time>
      </trkpt>
      <trkpt lat="45.99224" lon="4.75573">
        <ele>175</ele>
        <time>2018-04-21T09:15:33Z</time>
      </trkpt>
      <trkpt lat="45.99229" lon="4.7557">
        <ele>175</ele>
        <time>2018-04-21T09:15:34Z</time>
      </trkpt>
      <trkpt lat="45.99235" lon="4.75566">
        <ele>175</ele>
        <time>2018-04-21T09:15:35Z</time>
      </trkpt>
      <trkpt lat="45.9924" lon="4.75563">
        <ele>175</ele>
        <time>2018-04-21T09:15:36Z</time>
      </trkpt>
      <trkpt lat="45.99245" lon="4.7556">
        <ele>175</ele>
        <time>2018-04-21T09:15:37Z</time>
      </trkpt>
      <trkpt lat="45.99251" lon="4.75557">
        <ele>177</ele>
        <time>2018-04-21T09:15:38Z</time>
      </trkpt>
      <trkpt lat="45.99256" lon="4.75554">
        <ele>177</ele>
        <time>2018-04-21T09:15:39Z</time>
      </trkpt>
      <trkpt lat="45.9926" lon="4.75551">
        <ele>177</ele>
        <time>2018-04-21T09:15:40Z</time>
      </trkpt>
      <trkpt lat="45.99265" lon="4.75547">
        <ele>177</ele>
        <time>2018-04-21T09:15:41Z</time>
      </trkpt>
      <trkpt lat="45.99271" lon="4.75543">
        <ele>177</ele>
        <time>2018-04-21T09:15:42Z</time>
      </trkpt>
      <trkpt lat="45.99276" lon="4.75539">
        <ele>177</ele>
        <time>2018-04-21T09:15:43Z</time>
      </trkpt>
      <trkpt lat="45.99281" lon="4.75536">
        <ele>177</ele>
        <time>2018-04-21T09:15:44Z</time>
      </trkpt>
      <trkpt lat="45.99287" lon="4.75531">
        <ele>177</ele>
        <time>2018-04-21T09:15:45Z</time>
      </trkpt>
      <trkpt lat="45.99291" lon="4.75527">
        <ele>177</ele>
        <time>2018-04-21T09:15:46Z</time>
      </trkpt>
      <trkpt lat="45.99296" lon="4.75522">
        <ele>177</ele>
        <time>2018-04-21T09:15:47Z</time>
      </trkpt>
      <trkpt lat="45.99301" lon="4.75516">
        <ele>177</ele>
        <time>2018-04-21T09:15:48Z</time>
      </trkpt>
      <trkpt lat="45.99306" lon="4.75509">
        <ele>177</ele>
        <time>2018-04-21T09:15:49Z</time>
      </trkpt>
      <trkpt lat="45.99311" lon="4.75502">
        <ele>177</ele>
        <time>2018-04-21T09:15:50Z</time>
      </trkpt>
      <trkpt lat="45.99316" lon="4.75494">
        <ele>175</ele>
        <time>2018-04-21T09:15:51Z</time>
      </trkpt>
      <trkpt lat="45.9932" lon="4.75489">
        <ele>175</ele>
        <time>2018-04-21T09:15:52Z</time>
      </trkpt>
      <trkpt lat="45.99324" lon="4.75483">
        <ele>175</ele>
        <time>2018-04-21T09:15:53Z</time>
      </trkpt>
      <trkpt lat="45.99328" lon="4.75477">
        <ele>175</ele>
        <time>2018-04-21T09:15:54Z</time>
      </trkpt>
      <trkpt lat="45.99331" lon="4.75471">
        <ele>174</ele>
        <time>2018-04-21T09:15:55Z</time>
      </trkpt>
      <trkpt lat="45.99336" lon="4.75464">
        <ele>177</ele>
        <time>2018-04-21T09:15:56Z</time>
      </trkpt>
      <trkpt lat="45.99338" lon="4.75458">
        <ele>177</ele>
        <time>2018-04-21T09:15:57Z</time>
      </trkpt>
      <trkpt lat="45.99341" lon="4.75451">
        <ele>176</ele>
        <time>2018-04-21T09:15:58Z</time>
      </trkpt>
      <trkpt lat="45.99345" lon="4.75446">
        <ele>176</ele>
        <time>2018-04-21T09:15:59Z</time>
      </trkpt>
      <trkpt lat="45.9935" lon="4.75441">
        <ele>176</ele>
        <time>2018-04-21T09:16:00Z</time>
      </trkpt>
      <trkpt lat="45.99355" lon="4.75437">
        <ele>176</ele>
        <time>2018-04-21T09:16:01Z</time>
      </trkpt>
      <trkpt lat="45.99358" lon="4.75431">
        <ele>176</ele>
        <time>2018-04-21T09:16:02Z</time>
      </trkpt>
      <trkpt lat="45.99361" lon="4.75426">
        <ele>176</ele>
        <time>2018-04-21T09:16:03Z</time>
      </trkpt>
      <trkpt lat="45.99363" lon="4.75417">
        <ele>176</ele>
        <time>2018-04-21T09:16:04Z</time>
      </trkpt>
      <trkpt lat="45.99364" lon="4.75408">
        <ele>173</ele>
        <time>2018-04-21T09:16:05Z</time>
      </trkpt>
      <trkpt lat="45.99365" lon="4.754">
        <ele>173</ele>
        <time>2018-04-21T09:16:06Z</time>
      </trkpt>
      <trkpt lat="45.99365" lon="4.75391">
        <ele>173</ele>
        <time>2018-04-21T09:16:07Z</time>
      </trkpt>
      <trkpt lat="45.99367" lon="4.75382">
        <ele>172</ele>
        <time>2018-04-21T09:16:08Z</time>
      </trkpt>
      <trkpt lat="45.9937" lon="4.75374">
        <ele>172</ele>
        <time>2018-04-21T09:16:09Z</time>
      </trkpt>
      <trkpt lat="45.99373" lon="4.75366">
        <ele>172</ele>
        <time>2018-04-21T09:16:10Z</time>
      </trkpt>
      <trkpt lat="45.99377" lon="4.7536">
        <ele>172</ele>
        <time>2018-04-21T09:16:11Z</time>
      </trkpt>
      <trkpt lat="45.9938" lon="4.75353">
        <ele>172</ele>
        <time>2018-04-21T09:16:12Z</time>
      </trkpt>
      <trkpt lat="45.99384" lon="4.75345">
        <ele>172</ele>
        <time>2018-04-21T09:16:13Z</time>
      </trkpt>
      <trkpt lat="45.99388" lon="4.7534">
        <ele>171</ele>
        <time>2018-04-21T09:16:14Z</time>
      </trkpt>
      <trkpt lat="45.99393" lon="4.75336">
        <ele>171</ele>
        <time>2018-04-21T09:16:15Z</time>
      </trkpt>
      <trkpt lat="45.99399" lon="4.75332">
        <ele>170</ele>
        <time>2018-04-21T09:16:16Z</time>
      </trkpt>
      <trkpt lat="45.99402" lon="4.75328">
        <ele>170</ele>
        <time>2018-04-21T09:16:17Z</time>
      </trkpt>
      <trkpt lat="45.99408" lon="4.75325">
        <ele>170</ele>
        <time>2018-04-21T09:16:18Z</time>
      </trkpt>
      <trkpt lat="45.99413" lon="4.75322">
        <ele>170</ele>
        <time>2018-04-21T09:16:19Z</time>
      </trkpt>
      <trkpt lat="45.99419" lon="4.75321">
        <ele>170</ele>
        <time>2018-04-21T09:16:20Z</time>
      </trkpt>
      <trkpt lat="45.99424" lon="4.75319">
        <ele>171</ele>
        <time>2018-04-21T09:16:21Z</time>
      </trkpt>
      <trkpt lat="45.99429" lon="4.75318">
        <ele>171</ele>
        <time>2018-04-21T09:16:22Z</time>
      </trkpt>
      <trkpt lat="45.99435" lon="4.75316">
        <ele>171</ele>
        <time>2018-04-21T09:16:23Z</time>
      </trkpt>
      <trkpt lat="45.99439" lon="4.75316">
        <ele>171</ele>
        <time>2018-04-21T09:16:24Z</time>
      </trkpt>
      <trkpt lat="45.99444" lon="4.75317">
        <ele>171</ele>
        <time>2018-04-21T09:16:25Z</time>
      </trkpt>
      <trkpt lat="45.99449" lon="4.75315">
        <ele>171</ele>
        <time>2018-04-21T09:16:26Z</time>
      </trkpt>
      <trkpt lat="45.99455" lon="4.75314">
        <ele>171</ele>
        <time>2018-04-21T09:16:27Z</time>
      </trkpt>
      <trkpt lat="45.9946" lon="4.75314">
        <ele>171</ele>
        <time>2018-04-21T09:16:28Z</time>
      </trkpt>
      <trkpt lat="45.99465" lon="4.75312">
        <ele>171</ele>
        <time>2018-04-21T09:16:29Z</time>
      </trkpt>
      <trkpt lat="45.99473" lon="4.75311">
        <ele>171</ele>
        <time>2018-04-21T09:16:31Z</time>
      </trkpt>
      <trkpt lat="45.99479" lon="4.75312">
        <ele>171</ele>
        <time>2018-04-21T09:16:32Z</time>
      </trkpt>
      <trkpt lat="45.99487" lon="4.75312">
        <ele>171</ele>
        <time>2018-04-21T09:16:34Z</time>
      </trkpt>
      <trkpt lat="45.99492" lon="4.75313">
        <ele>171</ele>
        <time>2018-04-21T09:16:35Z</time>
      </trkpt>
      <trkpt lat="45.99498" lon="4.7531">
        <ele>171</ele>
        <time>2018-04-21T09:16:36Z</time>
      </trkpt>
      <trkpt lat="45.99502" lon="4.7531">
        <ele>172</ele>
        <time>2018-04-21T09:16:37Z</time>
      </trkpt>
      <trkpt lat="45.99507" lon="4.75309">
        <ele>172</ele>
        <time>2018-04-21T09:16:38Z</time>
      </trkpt>
      <trkpt lat="45.99513" lon="4.75309">
        <ele>172</ele>
        <time>2018-04-21T09:16:39Z</time>
      </trkpt>
      <trkpt lat="45.99518" lon="4.7531">
        <ele>172</ele>
        <time>2018-04-21T09:16:40Z</time>
      </trkpt>
      <trkpt lat="45.99523" lon="4.75309">
        <ele>172</ele>
        <time>2018-04-21T09:16:41Z</time>
      </trkpt>
      <trkpt lat="45.99529" lon="4.75308">
        <ele>172</ele>
        <time>2018-04-21T09:16:42Z</time>
      </trkpt>
      <trkpt lat="45.99534" lon="4.75308">
        <ele>172</ele>
        <time>2018-04-21T09:16:43Z</time>
      </trkpt>
      <trkpt lat="45.99539" lon="4.75309">
        <ele>172</ele>
        <time>2018-04-21T09:16:44Z</time>
      </trkpt>
      <trkpt lat="45.99543" lon="4.75309">
        <ele>172</ele>
        <time>2018-04-21T09:16:45Z</time>
      </trkpt>
      <trkpt lat="45.99547" lon="4.75311">
        <ele>172</ele>
        <time>2018-04-21T09:16:47Z</time>
      </trkpt>
      <trkpt lat="45.99553" lon="4.75316">
        <ele>172</ele>
        <time>2018-04-21T09:16:48Z</time>
      </trkpt>
      <trkpt lat="45.99559" lon="4.75325">
        <ele>172</ele>
        <time>2018-04-21T09:16:50Z</time>
      </trkpt>
      <trkpt lat="45.99564" lon="4.75327">
        <ele>172</ele>
        <time>2018-04-21T09:16:51Z</time>
      </trkpt>
      <trkpt lat="45.9957" lon="4.75328">
        <ele>173</ele>
        <time>2018-04-21T09:16:52Z</time>
      </trkpt>
      <trkpt lat="45.99575" lon="4.75329">
        <ele>173</ele>
        <time>2018-04-21T09:16:53Z</time>
      </trkpt>
      <trkpt lat="45.9958" lon="4.75328">
        <ele>173</ele>
        <time>2018-04-21T09:16:54Z</time>
      </trkpt>
      <trkpt lat="45.99585" lon="4.75325">
        <ele>173</ele>
        <time>2018-04-21T09:16:55Z</time>
      </trkpt>
      <trkpt lat="45.99591" lon="4.75321">
        <ele>173</ele>
        <time>2018-04-21T09:16:56Z</time>
      </trkpt>
      <trkpt lat="45.99595" lon="4.75315">
        <ele>174</ele>
        <time>2018-04-21T09:16:57Z</time>
      </trkpt>
      <trkpt lat="45.99597" lon="4.75309">
        <ele>174</ele>
        <time>2018-04-21T09:16:58Z</time>
      </trkpt>
      <trkpt lat="45.996" lon="4.75302">
        <ele>174</ele>
        <time>2018-04-21T09:16:59Z</time>
      </trkpt>
      <trkpt lat="45.99603" lon="4.75295">
        <ele>174</ele>
        <time>2018-04-21T09:17:00Z</time>
      </trkpt>
      <trkpt lat="45.99606" lon="4.7529">
        <ele>174</ele>
        <time>2018-04-21T09:17:01Z</time>
      </trkpt>
      <trkpt lat="45.99611" lon="4.75285">
        <ele>174</ele>
        <time>2018-04-21T09:17:02Z</time>
      </trkpt>
      <trkpt lat="45.99618" lon="4.7528">
        <ele>174</ele>
        <time>2018-04-21T09:17:03Z</time>
      </trkpt>
      <trkpt lat="45.99624" lon="4.75277">
        <ele>174</ele>
        <time>2018-04-21T09:17:04Z</time>
      </trkpt>
      <trkpt lat="45.99631" lon="4.75277">
        <ele>174</ele>
        <time>2018-04-21T09:17:05Z</time>
      </trkpt>
      <trkpt lat="45.9964" lon="4.75279">
        <ele>174</ele>
        <time>2018-04-21T09:17:06Z</time>
      </trkpt>
      <trkpt lat="45.99647" lon="4.7528">
        <ele>174</ele>
        <time>2018-04-21T09:17:07Z</time>
      </trkpt>
      <trkpt lat="45.99655" lon="4.75279">
        <ele>174</ele>
        <time>2018-04-21T09:17:08Z</time>
      </trkpt>
      <trkpt lat="45.99662" lon="4.75277">
        <ele>174</ele>
        <time>2018-04-21T09:17:09Z</time>
      </trkpt>
      <trkpt lat="45.9967" lon="4.75274">
        <ele>176</ele>
        <time>2018-04-21T09:17:10Z</time>
      </trkpt>
      <trkpt lat="45.99677" lon="4.75271">
        <ele>176</ele>
        <time>2018-04-21T09:17:11Z</time>
      </trkpt>
      <trkpt lat="45.99684" lon="4.75267">
        <ele>176</ele>
        <time>2018-04-21T09:17:12Z</time>
      </trkpt>
      <trkpt lat="45.99691" lon="4.75264">
        <ele>176</ele>
        <time>2018-04-21T09:17:13Z</time>
      </trkpt>
      <trkpt lat="45.99698" lon="4.75262">
        <ele>176</ele>
        <time>2018-04-21T09:17:14Z</time>
      </trkpt>
      <trkpt lat="45.99705" lon="4.75261">
        <ele>176</ele>
        <time>2018-04-21T09:17:15Z</time>
      </trkpt>
      <trkpt lat="45.99711" lon="4.75256">
        <ele>176</ele>
        <time>2018-04-21T09:17:16Z</time>
      </trkpt>
      <trkpt lat="45.99719" lon="4.75251">
        <ele>176</ele>
        <time>2018-04-21T09:17:17Z</time>
      </trkpt>
      <trkpt lat="45.99725" lon="4.75247">
        <ele>175</ele>
        <time>2018-04-21T09:17:18Z</time>
      </trkpt>
      <trkpt lat="45.99731" lon="4.75243">
        <ele>175</ele>
        <time>2018-04-21T09:17:19Z</time>
      </trkpt>
      <trkpt lat="45.99737" lon="4.75241">
        <ele>175</ele>
        <time>2018-04-21T09:17:20Z</time>
      </trkpt>
      <trkpt lat="45.99743" lon="4.75238">
        <ele>175</ele>
        <time>2018-04-21T09:17:21Z</time>
      </trkpt>
      <trkpt lat="45.99748" lon="4.75236">
        <ele>175</ele>
        <time>2018-04-21T09:17:22Z</time>
      </trkpt>
      <trkpt lat="45.99754" lon="4.75233">
        <ele>175</ele>
        <time>2018-04-21T09:17:23Z</time>
      </trkpt>
      <trkpt lat="45.99761" lon="4.75229">
        <ele>175</ele>
        <time>2018-04-21T09:17:24Z</time>
      </trkpt>
      <trkpt lat="45.99766" lon="4.75227">
        <ele>175</ele>
        <time>2018-04-21T09:17:25Z</time>
      </trkpt>
      <trkpt lat="45.99771" lon="4.75224">
        <ele>175</ele>
        <time>2018-04-21T09:17:26Z</time>
      </trkpt>
      <trkpt lat="45.99779" lon="4.75221">
        <ele>175</ele>
        <time>2018-04-21T09:17:27Z</time>
      </trkpt>
      <trkpt lat="45.99785" lon="4.75218">
        <ele>174</ele>
        <time>2018-04-21T09:17:28Z</time>
      </trkpt>
      <trkpt lat="45.9979" lon="4.75216">
        <ele>174</ele>
        <time>2018-04-21T09:17:29Z</time>
      </trkpt>
      <trkpt lat="45.99797" lon="4.75213">
        <ele>174</ele>
        <time>2018-04-21T09:17:30Z</time>
      </trkpt>
      <trkpt lat="45.99803" lon="4.7521">
        <ele>174</ele>
        <time>2018-04-21T09:17:31Z</time>
      </trkpt>
      <trkpt lat="45.99809" lon="4.75208">
        <ele>174</ele>
        <time>2018-04-21T09:17:32Z</time>
      </trkpt>
      <trkpt lat="45.99815" lon="4.75205">
        <ele>174</ele>
        <time>2018-04-21T09:17:33Z</time>
      </trkpt>
      <trkpt lat="45.9982" lon="4.75202">
        <ele>174</ele>
        <time>2018-04-21T09:17:34Z</time>
      </trkpt>
      <trkpt lat="45.99826" lon="4.752">
        <ele>174</ele>
        <time>2018-04-21T09:17:35Z</time>
      </trkpt>
      <trkpt lat="45.99831" lon="4.75197">
        <ele>174</ele>
        <time>2018-04-21T09:17:36Z</time>
      </trkpt>
      <trkpt lat="45.99837" lon="4.75195">
        <ele>174</ele>
        <time>2018-04-21T09:17:37Z</time>
      </trkpt>
      <trkpt lat="45.99841" lon="4.75193">
        <ele>174</ele>
        <time>2018-04-21T09:17:38Z</time>
      </trkpt>
      <trkpt lat="45.99847" lon="4.75188">
        <ele>174</ele>
        <time>2018-04-21T09:17:39Z</time>
      </trkpt>
      <trkpt lat="45.99852" lon="4.75185">
        <ele>174</ele>
        <time>2018-04-21T09:17:40Z</time>
      </trkpt>
      <trkpt lat="45.99858" lon="4.75183">
        <ele>174</ele>
        <time>2018-04-21T09:17:41Z</time>
      </trkpt>
      <trkpt lat="45.99864" lon="4.75181">
        <ele>174</ele>
        <time>2018-04-21T09:17:42Z</time>
      </trkpt>
      <trkpt lat="45.99869" lon="4.75179">
        <ele>174</ele>
        <time>2018-04-21T09:17:43Z</time>
      </trkpt>
      <trkpt lat="45.99873" lon="4.75177">
        <ele>174</ele>
        <time>2018-04-21T09:17:44Z</time>
      </trkpt>
      <trkpt lat="45.99878" lon="4.75176">
        <ele>174</ele>
        <time>2018-04-21T09:17:45Z</time>
      </trkpt>
      <trkpt lat="45.99886" lon="4.75172">
        <ele>174</ele>
        <time>2018-04-21T09:17:47Z</time>
      </trkpt>
      <trkpt lat="45.99891" lon="4.75169">
        <ele>174</ele>
        <time>2018-04-21T09:17:48Z</time>
      </trkpt>
      <trkpt lat="45.99896" lon="4.75166">
        <ele>172</ele>
        <time>2018-04-21T09:17:49Z</time>
      </trkpt>
      <trkpt lat="45.99901" lon="4.75164">
        <ele>172</ele>
        <time>2018-04-21T09:17:50Z</time>
      </trkpt>
      <trkpt lat="45.99907" lon="4.75161">
        <ele>173</ele>
        <time>2018-04-21T09:17:51Z</time>
      </trkpt>
      <trkpt lat="45.99912" lon="4.75159">
        <ele>173</ele>
        <time>2018-04-21T09:17:52Z</time>
      </trkpt>
      <trkpt lat="45.99917" lon="4.75158">
        <ele>173</ele>
        <time>2018-04-21T09:17:53Z</time>
      </trkpt>
      <trkpt lat="45.99923" lon="4.75156">
        <ele>173</ele>
        <time>2018-04-21T09:17:54Z</time>
      </trkpt>
      <trkpt lat="45.99928" lon="4.75153">
        <ele>173</ele>
        <time>2018-04-21T09:17:55Z</time>
      </trkpt>
      <trkpt lat="45.99933" lon="4.7515">
        <ele>173</ele>
        <time>2018-04-21T09:17:56Z</time>
      </trkpt>
      <trkpt lat="45.99938" lon="4.75147">
        <ele>173</ele>
        <time>2018-04-21T09:17:57Z</time>
      </trkpt>
      <trkpt lat="45.99944" lon="4.75145">
        <ele>173</ele>
        <time>2018-04-21T09:17:58Z</time>
      </trkpt>
      <trkpt lat="45.99949" lon="4.75143">
        <ele>173</ele>
        <time>2018-04-21T09:17:59Z</time>
      </trkpt>
      <trkpt lat="45.99953" lon="4.75141">
        <ele>173</ele>
        <time>2018-04-21T09:18:00Z</time>
      </trkpt>
      <trkpt lat="45.99958" lon="4.75139">
        <ele>173</ele>
        <time>2018-04-21T09:18:01Z</time>
      </trkpt>
      <trkpt lat="45.99963" lon="4.75137">
        <ele>173</ele>
        <time>2018-04-21T09:18:02Z</time>
      </trkpt>
      <trkpt lat="45.99968" lon="4.75136">
        <ele>173</ele>
        <time>2018-04-21T09:18:03Z</time>
      </trkpt>
      <trkpt lat="45.99973" lon="4.75132">
        <ele>173</ele>
        <time>2018-04-21T09:18:04Z</time>
      </trkpt>
      <trkpt lat="45.99977" lon="4.75131">
        <ele>173</ele>
        <time>2018-04-21T09:18:05Z</time>
      </trkpt>
      <trkpt lat="45.99983" lon="4.75129">
        <ele>173</ele>
        <time>2018-04-21T09:18:06Z</time>
      </trkpt>
      <trkpt lat="45.9999" lon="4.75127">
        <ele>173</ele>
        <time>2018-04-21T09:18:07Z</time>
      </trkpt>
      <trkpt lat="45.99996" lon="4.75125">
        <ele>173</ele>
        <time>2018-04-21T09:18:08Z</time>
      </trkpt>
      <trkpt lat="46.00002" lon="4.75123">
        <ele>174</ele>
        <time>2018-04-21T09:18:09Z</time>
      </trkpt>
      <trkpt lat="46.00008" lon="4.75121">
        <ele>174</ele>
        <time>2018-04-21T09:18:10Z</time>
      </trkpt>
      <trkpt lat="46.00013" lon="4.7512">
        <ele>174</ele>
        <time>2018-04-21T09:18:11Z</time>
      </trkpt>
      <trkpt lat="46.00019" lon="4.75119">
        <ele>174</ele>
        <time>2018-04-21T09:18:12Z</time>
      </trkpt>
      <trkpt lat="46.00025" lon="4.75117">
        <ele>174</ele>
        <time>2018-04-21T09:18:13Z</time>
      </trkpt>
      <trkpt lat="46.00031" lon="4.75115">
        <ele>174</ele>
        <time>2018-04-21T09:18:14Z</time>
      </trkpt>
      <trkpt lat="46.00038" lon="4.75114">
        <ele>174</ele>
        <time>2018-04-21T09:18:15Z</time>
      </trkpt>
      <trkpt lat="46.00043" lon="4.75113">
        <ele>174</ele>
        <time>2018-04-21T09:18:16Z</time>
      </trkpt>
      <trkpt lat="46.00049" lon="4.75112">
        <ele>174</ele>
        <time>2018-04-21T09:18:17Z</time>
      </trkpt>
      <trkpt lat="46.00055" lon="4.75112">
        <ele>174</ele>
        <time>2018-04-21T09:18:18Z</time>
      </trkpt>
      <trkpt lat="46.0006" lon="4.75112">
        <ele>174</ele>
        <time>2018-04-21T09:18:19Z</time>
      </trkpt>
      <trkpt lat="46.00065" lon="4.75112">
        <ele>174</ele>
        <time>2018-04-21T09:18:20Z</time>
      </trkpt>
      <trkpt lat="46.0007" lon="4.75112">
        <ele>174</ele>
        <time>2018-04-21T09:18:21Z</time>
      </trkpt>
      <trkpt lat="46.00075" lon="4.75111">
        <ele>174</ele>
        <time>2018-04-21T09:18:22Z</time>
      </trkpt>
      <trkpt lat="46.0008" lon="4.75112">
        <ele>174</ele>
        <time>2018-04-21T09:18:23Z</time>
      </trkpt>
      <trkpt lat="46.00085" lon="4.75114">
        <ele>175</ele>
        <time>2018-04-21T09:18:24Z</time>
      </trkpt>
      <trkpt lat="46.0009" lon="4.75114">
        <ele>175</ele>
        <time>2018-04-21T09:18:25Z</time>
      </trkpt>
      <trkpt lat="46.00094" lon="4.75113">
        <ele>175</ele>
        <time>2018-04-21T09:18:26Z</time>
      </trkpt>
      <trkpt lat="46.00102" lon="4.75116">
        <ele>175</ele>
        <time>2018-04-21T09:18:28Z</time>
      </trkpt>
      <trkpt lat="46.00106" lon="4.75115">
        <ele>175</ele>
        <time>2018-04-21T09:18:29Z</time>
      </trkpt>
      <trkpt lat="46.00111" lon="4.75116">
        <ele>175</ele>
        <time>2018-04-21T09:18:30Z</time>
      </trkpt>
      <trkpt lat="46.00116" lon="4.75117">
        <ele>175</ele>
        <time>2018-04-21T09:18:31Z</time>
      </trkpt>
      <trkpt lat="46.00121" lon="4.75117">
        <ele>175</ele>
        <time>2018-04-21T09:18:32Z</time>
      </trkpt>
      <trkpt lat="46.00126" lon="4.75117">
        <ele>175</ele>
        <time>2018-04-21T09:18:33Z</time>
      </trkpt>
      <trkpt lat="46.00132" lon="4.75118">
        <ele>175</ele>
        <time>2018-04-21T09:18:34Z</time>
      </trkpt>
      <trkpt lat="46.00137" lon="4.75116">
        <ele>175</ele>
        <time>2018-04-21T09:18:35Z</time>
      </trkpt>
      <trkpt lat="46.00143" lon="4.75116">
        <ele>175</ele>
        <time>2018-04-21T09:18:36Z</time>
      </trkpt>
      <trkpt lat="46.00149" lon="4.75116">
        <ele>175</ele>
        <time>2018-04-21T09:18:37Z</time>
      </trkpt>
      <trkpt lat="46.00154" lon="4.75116">
        <ele>175</ele>
        <time>2018-04-21T09:18:38Z</time>
      </trkpt>
      <trkpt lat="46.00159" lon="4.75116">
        <ele>175</ele>
        <time>2018-04-21T09:18:39Z</time>
      </trkpt>
      <trkpt lat="46.00165" lon="4.75116">
        <ele>175</ele>
        <time>2018-04-21T09:18:40Z</time>
      </trkpt>
      <trkpt lat="46.00171" lon="4.75116">
        <ele>176</ele>
        <time>2018-04-21T09:18:41Z</time>
      </trkpt>
      <trkpt lat="46.00176" lon="4.75115">
        <ele>176</ele>
        <time>2018-04-21T09:18:42Z</time>
      </trkpt>
      <trkpt lat="46.00181" lon="4.75116">
        <ele>176</ele>
        <time>2018-04-21T09:18:43Z</time>
      </trkpt>
      <trkpt lat="46.00187" lon="4.75117">
        <ele>176</ele>
        <time>2018-04-21T09:18:44Z</time>
      </trkpt>
      <trkpt lat="46.00192" lon="4.75117">
        <ele>176</ele>
        <time>2018-04-21T09:18:45Z</time>
      </trkpt>
      <trkpt lat="46.00197" lon="4.75119">
        <ele>176</ele>
        <time>2018-04-21T09:18:46Z</time>
      </trkpt>
      <trkpt lat="46.00202" lon="4.7512">
        <ele>176</ele>
        <time>2018-04-21T09:18:47Z</time>
      </trkpt>
      <trkpt lat="46.00209" lon="4.75127">
        <ele>176</ele>
        <time>2018-04-21T09:18:51Z</time>
      </trkpt>
      <trkpt lat="46.00207" lon="4.75132">
        <ele>176</ele>
        <time>2018-04-21T09:18:52Z</time>
      </trkpt>
      <trkpt lat="46.00208" lon="4.75141">
        <ele>176</ele>
        <time>2018-04-21T09:18:54Z</time>
      </trkpt>
      <trkpt lat="46.00211" lon="4.75148">
        <ele>177</ele>
        <time>2018-04-21T09:18:55Z</time>
      </trkpt>
      <trkpt lat="46.00213" lon="4.75155">
        <ele>177</ele>
        <time>2018-04-21T09:18:56Z</time>
      </trkpt>
      <trkpt lat="46.00214" lon="4.75162">
        <ele>177</ele>
        <time>2018-04-21T09:18:57Z</time>
      </trkpt>
      <trkpt lat="46.00214" lon="4.75168">
        <ele>179</ele>
        <time>2018-04-21T09:18:58Z</time>
      </trkpt>
      <trkpt lat="46.00214" lon="4.75175">
        <ele>179</ele>
        <time>2018-04-21T09:18:59Z</time>
      </trkpt>
      <trkpt lat="46.00215" lon="4.75182">
        <ele>179</ele>
        <time>2018-04-21T09:19:00Z</time>
      </trkpt>
      <trkpt lat="46.00214" lon="4.75188">
        <ele>179</ele>
        <time>2018-04-21T09:19:01Z</time>
      </trkpt>
      <trkpt lat="46.00214" lon="4.75201">
        <ele>179</ele>
        <time>2018-04-21T09:19:04Z</time>
      </trkpt>
      <trkpt lat="46.00214" lon="4.75205">
        <ele>179</ele>
        <time>2018-04-21T09:19:05Z</time>
      </trkpt>
      <trkpt lat="46.00214" lon="4.75217">
        <ele>180</ele>
        <time>2018-04-21T09:19:08Z</time>
      </trkpt>
      <trkpt lat="46.00214" lon="4.75221">
        <ele>180</ele>
        <time>2018-04-21T09:19:09Z</time>
      </trkpt>
      <trkpt lat="46.00213" lon="4.75232">
        <ele>180</ele>
        <time>2018-04-21T09:19:12Z</time>
      </trkpt>
      <trkpt lat="46.00213" lon="4.75236">
        <ele>180</ele>
        <time>2018-04-21T09:19:13Z</time>
      </trkpt>
      <trkpt lat="46.00214" lon="4.75248">
        <ele>180</ele>
        <time>2018-04-21T09:19:16Z</time>
      </trkpt>
      <trkpt lat="46.00214" lon="4.75252">
        <ele>184</ele>
        <time>2018-04-21T09:19:17Z</time>
      </trkpt>
      <trkpt lat="46.00214" lon="4.75263">
        <ele>184</ele>
        <time>2018-04-21T09:19:20Z</time>
      </trkpt>
      <trkpt lat="46.00214" lon="4.75267">
        <ele>184</ele>
        <time>2018-04-21T09:19:21Z</time>
      </trkpt>
      <trkpt lat="46.00212" lon="4.75277">
        <ele>184</ele>
        <time>2018-04-21T09:19:24Z</time>
      </trkpt>
      <trkpt lat="46.00211" lon="4.7528">
        <ele>185</ele>
        <time>2018-04-21T09:19:25Z</time>
      </trkpt>
      <trkpt lat="46.00211" lon="4.75291">
        <ele>185</ele>
        <time>2018-04-21T09:19:28Z</time>
      </trkpt>
      <trkpt lat="46.00211" lon="4.75294">
        <ele>185</ele>
        <time>2018-04-21T09:19:29Z</time>
      </trkpt>
      <trkpt lat="46.00212" lon="4.75305">
        <ele>186</ele>
        <time>2018-04-21T09:19:32Z</time>
      </trkpt>
      <trkpt lat="46.00212" lon="4.75309">
        <ele>186</ele>
        <time>2018-04-21T09:19:33Z</time>
      </trkpt>
      <trkpt lat="46.00212" lon="4.75321">
        <ele>186</ele>
        <time>2018-04-21T09:19:36Z</time>
      </trkpt>
      <trkpt lat="46.00211" lon="4.75325">
        <ele>186</ele>
        <time>2018-04-21T09:19:37Z</time>
      </trkpt>
      <trkpt lat="46.00211" lon="4.75337">
        <ele>190</ele>
        <time>2018-04-21T09:19:40Z</time>
      </trkpt>
      <trkpt lat="46.00211" lon="4.75341">
        <ele>190</ele>
        <time>2018-04-21T09:19:41Z</time>
      </trkpt>
      <trkpt lat="46.00211" lon="4.75353">
        <ele>191</ele>
        <time>2018-04-21T09:19:44Z</time>
      </trkpt>
      <trkpt lat="46.00212" lon="4.75356">
        <ele>191</ele>
        <time>2018-04-21T09:19:45Z</time>
      </trkpt>
      <trkpt lat="46.00212" lon="4.75368">
        <ele>191</ele>
        <time>2018-04-21T09:19:48Z</time>
      </trkpt>
      <trkpt lat="46.00212" lon="4.75372">
        <ele>191</ele>
        <time>2018-04-21T09:19:49Z</time>
      </trkpt>
      <trkpt lat="46.00212" lon="4.75383">
        <ele>192</ele>
        <time>2018-04-21T09:19:52Z</time>
      </trkpt>
      <trkpt lat="46.00212" lon="4.75387">
        <ele>192</ele>
        <time>2018-04-21T09:19:53Z</time>
      </trkpt>
      <trkpt lat="46.00212" lon="4.75398">
        <ele>192</ele>
        <time>2018-04-21T09:19:56Z</time>
      </trkpt>
      <trkpt lat="46.00212" lon="4.75402">
        <ele>192</ele>
        <time>2018-04-21T09:19:57Z</time>
      </trkpt>
      <trkpt lat="46.00212" lon="4.75414">
        <ele>193</ele>
        <time>2018-04-21T09:20:00Z</time>
      </trkpt>
      <trkpt lat="46.00212" lon="4.75418">
        <ele>196</ele>
        <time>2018-04-21T09:20:01Z</time>
      </trkpt>
      <trkpt lat="46.00212" lon="4.7543">
        <ele>196</ele>
        <time>2018-04-21T09:20:04Z</time>
      </trkpt>
      <trkpt lat="46.00212" lon="4.75434">
        <ele>197</ele>
        <time>2018-04-21T09:20:05Z</time>
      </trkpt>
      <trkpt lat="46.00212" lon="4.75445">
        <ele>197</ele>
        <time>2018-04-21T09:20:08Z</time>
      </trkpt>
      <trkpt lat="46.00213" lon="4.75449">
        <ele>197</ele>
        <time>2018-04-21T09:20:09Z</time>
      </trkpt>
      <trkpt lat="46.00213" lon="4.75459">
        <ele>197</ele>
        <time>2018-04-21T09:20:12Z</time>
      </trkpt>
      <trkpt lat="46.00213" lon="4.75462">
        <ele>198</ele>
        <time>2018-04-21T09:20:13Z</time>
      </trkpt>
      <trkpt lat="46.00212" lon="4.75473">
        <ele>198</ele>
        <time>2018-04-21T09:20:16Z</time>
      </trkpt>
      <trkpt lat="46.00212" lon="4.75477">
        <ele>198</ele>
        <time>2018-04-21T09:20:17Z</time>
      </trkpt>
      <trkpt lat="46.00212" lon="4.75488">
        <ele>198</ele>
        <time>2018-04-21T09:20:20Z</time>
      </trkpt>
      <trkpt lat="46.00212" lon="4.75491">
        <ele>198</ele>
        <time>2018-04-21T09:20:21Z</time>
      </trkpt>
      <trkpt lat="46.00213" lon="4.75501">
        <ele>204</ele>
        <time>2018-04-21T09:20:24Z</time>
      </trkpt>
      <trkpt lat="46.00213" lon="4.75504">
        <ele>204</ele>
        <time>2018-04-21T09:20:25Z</time>
      </trkpt>
      <trkpt lat="46.00214" lon="4.75514">
        <ele>204</ele>
        <time>2018-04-21T09:20:28Z</time>
      </trkpt>
      <trkpt lat="46.00215" lon="4.75518">
        <ele>204</ele>
        <time>2018-04-21T09:20:29Z</time>
      </trkpt>
      <trkpt lat="46.00217" lon="4.75528">
        <ele>205</ele>
        <time>2018-04-21T09:20:32Z</time>
      </trkpt>
      <trkpt lat="46.00218" lon="4.75531">
        <ele>205</ele>
        <time>2018-04-21T09:20:33Z</time>
      </trkpt>
      <trkpt lat="46.0022" lon="4.75542">
        <ele>205</ele>
        <time>2018-04-21T09:20:37Z</time>
      </trkpt>
      <trkpt lat="46.0022" lon="4.75544">
        <ele>206</ele>
        <time>2018-04-21T09:20:38Z</time>
      </trkpt>
      <trkpt lat="46.00223" lon="4.75555">
        <ele>206</ele>
        <time>2018-04-21T09:20:42Z</time>
      </trkpt>
      <trkpt lat="46.00223" lon="4.75558">
        <ele>206</ele>
        <time>2018-04-21T09:20:43Z</time>
      </trkpt>
      <trkpt lat="46.00228" lon="4.75568">
        <ele>206</ele>
        <time>2018-04-21T09:20:47Z</time>
      </trkpt>
      <trkpt lat="46.00229" lon="4.75571">
        <ele>206</ele>
        <time>2018-04-21T09:20:48Z</time>
      </trkpt>
      <trkpt lat="46.00233" lon="4.75578">
        <ele>206</ele>
        <time>2018-04-21T09:20:51Z</time>
      </trkpt>
      <trkpt lat="46.00235" lon="4.75581">
        <ele>206</ele>
        <time>2018-04-21T09:20:52Z</time>
      </trkpt>
      <trkpt lat="46.0024" lon="4.75588">
        <ele>208</ele>
        <time>2018-04-21T09:20:55Z</time>
      </trkpt>
      <trkpt lat="46.00241" lon="4.75591">
        <ele>208</ele>
        <time>2018-04-21T09:20:56Z</time>
      </trkpt>
      <trkpt lat="46.00246" lon="4.75599">
        <ele>209</ele>
        <time>2018-04-21T09:20:59Z</time>
      </trkpt>
      <trkpt lat="46.00248" lon="4.75601">
        <ele>210</ele>
        <time>2018-04-21T09:21:00Z</time>
      </trkpt>
      <trkpt lat="46.00253" lon="4.75608">
        <ele>205</ele>
        <time>2018-04-21T09:21:03Z</time>
      </trkpt>
      <trkpt lat="46.00255" lon="4.7561">
        <ele>206</ele>
        <time>2018-04-21T09:21:04Z</time>
      </trkpt>
      <trkpt lat="46.0026" lon="4.75618">
        <ele>206</ele>
        <time>2018-04-21T09:21:08Z</time>
      </trkpt>
      <trkpt lat="46.00261" lon="4.7562">
        <ele>206</ele>
        <time>2018-04-21T09:21:09Z</time>
      </trkpt>
      <trkpt lat="46.00266" lon="4.75629">
        <ele>206</ele>
        <time>2018-04-21T09:21:13Z</time>
      </trkpt>
      <trkpt lat="46.00268" lon="4.75631">
        <ele>206</ele>
        <time>2018-04-21T09:21:14Z</time>
      </trkpt>
      <trkpt lat="46.00272" lon="4.75638">
        <ele>207</ele>
        <time>2018-04-21T09:21:17Z</time>
      </trkpt>
      <trkpt lat="46.00274" lon="4.75641">
        <ele>207</ele>
        <time>2018-04-21T09:21:18Z</time>
      </trkpt>
      <trkpt lat="46.00279" lon="4.75648">
        <ele>207</ele>
        <time>2018-04-21T09:21:21Z</time>
      </trkpt>
      <trkpt lat="46.00281" lon="4.7565">
        <ele>207</ele>
        <time>2018-04-21T09:21:22Z</time>
      </trkpt>
      <trkpt lat="46.00286" lon="4.75658">
        <ele>207</ele>
        <time>2018-04-21T09:21:25Z</time>
      </trkpt>
      <trkpt lat="46.00287" lon="4.75661">
        <ele>207</ele>
        <time>2018-04-21T09:21:26Z</time>
      </trkpt>
      <trkpt lat="46.00293" lon="4.75668">
        <ele>208</ele>
        <time>2018-04-21T09:21:29Z</time>
      </trkpt>
      <trkpt lat="46.00294" lon="4.75671">
        <ele>208</ele>
        <time>2018-04-21T09:21:30Z</time>
      </trkpt>
      <trkpt lat="46.00299" lon="4.75677">
        <ele>208</ele>
        <time>2018-04-21T09:21:33Z</time>
      </trkpt>
      <trkpt lat="46.00301" lon="4.7568">
        <ele>208</ele>
        <time>2018-04-21T09:21:34Z</time>
      </trkpt>
      <trkpt lat="46.00306" lon="4.75689">
        <ele>208</ele>
        <time>2018-04-21T09:21:38Z</time>
      </trkpt>
      <trkpt lat="46.00308" lon="4.75692">
        <ele>208</ele>
        <time>2018-04-21T09:21:39Z</time>
      </trkpt>
      <trkpt lat="46.00313" lon="4.75698">
        <ele>208</ele>
        <time>2018-04-21T09:21:42Z</time>
      </trkpt>
      <trkpt lat="46.00315" lon="4.757">
        <ele>208</ele>
        <time>2018-04-21T09:21:43Z</time>
      </trkpt>
      <trkpt lat="46.00321" lon="4.75709">
        <ele>208</ele>
        <time>2018-04-21T09:21:47Z</time>
      </trkpt>
      <trkpt lat="46.00322" lon="4.75712">
        <ele>208</ele>
        <time>2018-04-21T09:21:48Z</time>
      </trkpt>
      <trkpt lat="46.00327" lon="4.75719">
        <ele>208</ele>
        <time>2018-04-21T09:21:51Z</time>
      </trkpt>
      <trkpt lat="46.00329" lon="4.75721">
        <ele>208</ele>
        <time>2018-04-21T09:21:52Z</time>
      </trkpt>
      <trkpt lat="46.00334" lon="4.75727">
        <ele>210</ele>
        <time>2018-04-21T09:21:55Z</time>
      </trkpt>
      <trkpt lat="46.00335" lon="4.7573">
        <ele>210</ele>
        <time>2018-04-21T09:21:56Z</time>
      </trkpt>
      <trkpt lat="46.00342" lon="4.75738">
        <ele>210</ele>
        <time>2018-04-21T09:22:00Z</time>
      </trkpt>
      <trkpt lat="46.00343" lon="4.7574">
        <ele>210</ele>
        <time>2018-04-21T09:22:01Z</time>
      </trkpt>
      <trkpt lat="46.0035" lon="4.75749">
        <ele>210</ele>
        <time>2018-04-21T09:22:05Z</time>
      </trkpt>
      <trkpt lat="46.00351" lon="4.75751">
        <ele>211</ele>
        <time>2018-04-21T09:22:06Z</time>
      </trkpt>
      <trkpt lat="46.00357" lon="4.7576">
        <ele>212</ele>
        <time>2018-04-21T09:22:10Z</time>
      </trkpt>
      <trkpt lat="46.00359" lon="4.75762">
        <ele>212</ele>
        <time>2018-04-21T09:22:11Z</time>
      </trkpt>
      <trkpt lat="46.00365" lon="4.75771">
        <ele>212</ele>
        <time>2018-04-21T09:22:15Z</time>
      </trkpt>
      <trkpt lat="46.00367" lon="4.75773">
        <ele>212</ele>
        <time>2018-04-21T09:22:16Z</time>
      </trkpt>
      <trkpt lat="46.00372" lon="4.75781">
        <ele>213</ele>
        <time>2018-04-21T09:22:19Z</time>
      </trkpt>
      <trkpt lat="46.00373" lon="4.75783">
        <ele>213</ele>
        <time>2018-04-21T09:22:20Z</time>
      </trkpt>
      <trkpt lat="46.00378" lon="4.7579">
        <ele>213</ele>
        <time>2018-04-21T09:22:23Z</time>
      </trkpt>
      <trkpt lat="46.0038" lon="4.75792">
        <ele>213</ele>
        <time>2018-04-21T09:22:24Z</time>
      </trkpt>
      <trkpt lat="46.00385" lon="4.75801">
        <ele>213</ele>
        <time>2018-04-21T09:22:28Z</time>
      </trkpt>
      <trkpt lat="46.00387" lon="4.75803">
        <ele>213</ele>
        <time>2018-04-21T09:22:29Z</time>
      </trkpt>
      <trkpt lat="46.00392" lon="4.75812">
        <ele>213</ele>
        <time>2018-04-21T09:22:33Z</time>
      </trkpt>
      <trkpt lat="46.00394" lon="4.75814">
        <ele>213</ele>
        <time>2018-04-21T09:22:34Z</time>
      </trkpt>
      <trkpt lat="46.004" lon="4.75824">
        <ele>213</ele>
        <time>2018-04-21T09:22:38Z</time>
      </trkpt>
      <trkpt lat="46.00401" lon="4.75826">
        <ele>213</ele>
        <time>2018-04-21T09:22:39Z</time>
      </trkpt>
      <trkpt lat="46.00405" lon="4.75834">
        <ele>214</ele>
        <time>2018-04-21T09:22:42Z</time>
      </trkpt>
      <trkpt lat="46.00407" lon="4.75837">
        <ele>214</ele>
        <time>2018-04-21T09:22:43Z</time>
      </trkpt>
      <trkpt lat="46.0041" lon="4.75846">
        <ele>214</ele>
        <time>2018-04-21T09:22:46Z</time>
      </trkpt>
      <trkpt lat="46.00411" lon="4.75849">
        <ele>214</ele>
        <time>2018-04-21T09:22:47Z</time>
      </trkpt>
      <trkpt lat="46.00417" lon="4.75858">
        <ele>216</ele>
        <time>2018-04-21T09:22:51Z</time>
      </trkpt>
      <trkpt lat="46.00418" lon="4.75861">
        <ele>216</ele>
        <time>2018-04-21T09:22:52Z</time>
      </trkpt>
      <trkpt lat="46.00422" lon="4.75871">
        <ele>217</ele>
        <time>2018-04-21T09:22:56Z</time>
      </trkpt>
      <trkpt lat="46.00423" lon="4.75873">
        <ele>217</ele>
        <time>2018-04-21T09:22:57Z</time>
      </trkpt>
      <trkpt lat="46.00428" lon="4.75882">
        <ele>217</ele>
        <time>2018-04-21T09:23:01Z</time>
      </trkpt>
      <trkpt lat="46.00429" lon="4.75885">
        <ele>217</ele>
        <time>2018-04-21T09:23:02Z</time>
      </trkpt>
      <trkpt lat="46.00433" lon="4.75894">
        <ele>217</ele>
        <time>2018-04-21T09:23:06Z</time>
      </trkpt>
      <trkpt lat="46.00435" lon="4.75897">
        <ele>217</ele>
        <time>2018-04-21T09:23:07Z</time>
      </trkpt>
      <trkpt lat="46.00439" lon="4.75906">
        <ele>217</ele>
        <time>2018-04-21T09:23:11Z</time>
      </trkpt>
      <trkpt lat="46.00439" lon="4.75908">
        <ele>217</ele>
        <time>2018-04-21T09:23:12Z</time>
      </trkpt>
      <trkpt lat="46.00442" lon="4.75919">
        <ele>218</ele>
        <time>2018-04-21T09:23:17Z</time>
      </trkpt>
      <trkpt lat="46.00443" lon="4.75922">
        <ele>218</ele>
        <time>2018-04-21T09:23:18Z</time>
      </trkpt>
      <trkpt lat="46.00446" lon="4.75933">
        <ele>218</ele>
        <time>2018-04-21T09:23:23Z</time>
      </trkpt>
      <trkpt lat="46.00446" lon="4.75936">
        <ele>218</ele>
        <time>2018-04-21T09:23:24Z</time>
      </trkpt>
      <trkpt lat="46.00447" lon="4.75946">
        <ele>219</ele>
        <time>2018-04-21T09:23:28Z</time>
      </trkpt>
      <trkpt lat="46.00448" lon="4.75949">
        <ele>219</ele>
        <time>2018-04-21T09:23:29Z</time>
      </trkpt>
      <trkpt lat="46.00446" lon="4.75961">
        <ele>219</ele>
        <time>2018-04-21T09:23:33Z</time>
      </trkpt>
      <trkpt lat="46.00445" lon="4.75963">
        <ele>219</ele>
        <time>2018-04-21T09:23:34Z</time>
      </trkpt>
      <trkpt lat="46.0044" lon="4.75973">
        <ele>219</ele>
        <time>2018-04-21T09:23:39Z</time>
      </trkpt>
      <trkpt lat="46.00439" lon="4.75975">
        <ele>219</ele>
        <time>2018-04-21T09:23:40Z</time>
      </trkpt>
      <trkpt lat="46.00433" lon="4.75983">
        <ele>220</ele>
        <time>2018-04-21T09:23:45Z</time>
      </trkpt>
      <trkpt lat="46.00431" lon="4.75985">
        <ele>220</ele>
        <time>2018-04-21T09:23:46Z</time>
      </trkpt>
      <trkpt lat="46.00424" lon="4.75991">
        <ele>220</ele>
        <time>2018-04-21T09:23:50Z</time>
      </trkpt>
      <trkpt lat="46.00422" lon="4.75992">
        <ele>220</ele>
        <time>2018-04-21T09:23:51Z</time>
      </trkpt>
      <trkpt lat="46.00415" lon="4.75996">
        <ele>221</ele>
        <time>2018-04-21T09:23:55Z</time>
      </trkpt>
      <trkpt lat="46.00413" lon="4.75997">
        <ele>221</ele>
        <time>2018-04-21T09:23:56Z</time>
      </trkpt>
      <trkpt lat="46.00406" lon="4.76002">
        <ele>222</ele>
        <time>2018-04-21T09:24:00Z</time>
      </trkpt>
      <trkpt lat="46.00405" lon="4.76003">
        <ele>223</ele>
        <time>2018-04-21T09:24:01Z</time>
      </trkpt>
      <trkpt lat="46.00398" lon="4.76009">
        <ele>223</ele>
        <time>2018-04-21T09:24:05Z</time>
      </trkpt>
      <trkpt lat="46.00397" lon="4.76011">
        <ele>224</ele>
        <time>2018-04-21T09:24:06Z</time>
      </trkpt>
      <trkpt lat="46.0039" lon="4.76018">
        <ele>224</ele>
        <time>2018-04-21T09:24:10Z</time>
      </trkpt>
      <trkpt lat="46.00389" lon="4.7602">
        <ele>224</ele>
        <time>2018-04-21T09:24:11Z</time>
      </trkpt>
      <trkpt lat="46.00382" lon="4.76026">
        <ele>225</ele>
        <time>2018-04-21T09:24:15Z</time>
      </trkpt>
      <trkpt lat="46.00381" lon="4.76028">
        <ele>225</ele>
        <time>2018-04-21T09:24:16Z</time>
      </trkpt>
      <trkpt lat="46.00375" lon="4.76035">
        <ele>225</ele>
        <time>2018-04-21T09:24:20Z</time>
      </trkpt>
      <trkpt lat="46.00374" lon="4.76037">
        <ele>225</ele>
        <time>2018-04-21T09:24:21Z</time>
      </trkpt>
      <trkpt lat="46.0037" lon="4.76047">
        <ele>225</ele>
        <time>2018-04-21T09:24:25Z</time>
      </trkpt>
      <trkpt lat="46.00369" lon="4.7605">
        <ele>226</ele>
        <time>2018-04-21T09:24:26Z</time>
      </trkpt>
      <trkpt lat="46.00368" lon="4.7606">
        <ele>226</ele>
        <time>2018-04-21T09:24:30Z</time>
      </trkpt>
      <trkpt lat="46.00368" lon="4.76063">
        <ele>226</ele>
        <time>2018-04-21T09:24:31Z</time>
      </trkpt>
      <trkpt lat="46.00372" lon="4.76071">
        <ele>226</ele>
        <time>2018-04-21T09:24:36Z</time>
      </trkpt>
      <trkpt lat="46.00374" lon="4.76072">
        <ele>226</ele>
        <time>2018-04-21T09:24:37Z</time>
      </trkpt>
      <trkpt lat="46.00382" lon="4.76076">
        <ele>226</ele>
        <time>2018-04-21T09:24:41Z</time>
      </trkpt>
      <trkpt lat="46.00384" lon="4.76076">
        <ele>226</ele>
        <time>2018-04-21T09:24:42Z</time>
      </trkpt>
      <trkpt lat="46.00393" lon="4.76076">
        <ele>226</ele>
        <time>2018-04-21T09:24:47Z</time>
      </trkpt>
      <trkpt lat="46.00394" lon="4.76076">
        <ele>226</ele>
        <time>2018-04-21T09:24:48Z</time>
      </trkpt>
      <trkpt lat="46.00402" lon="4.76077">
        <ele>226</ele>
        <time>2018-04-21T09:24:52Z</time>
      </trkpt>
      <trkpt lat="46.00404" lon="4.76078">
        <ele>226</ele>
        <time>2018-04-21T09:24:53Z</time>
      </trkpt>
      <trkpt lat="46.00412" lon="4.76078">
        <ele>226</ele>
        <time>2018-04-21T09:24:57Z</time>
      </trkpt>
      <trkpt lat="46.00415" lon="4.76079">
        <ele>226</ele>
        <time>2018-04-21T09:24:58Z</time>
      </trkpt>
      <trkpt lat="46.00423" lon="4.76081">
        <ele>225</ele>
        <time>2018-04-21T09:25:02Z</time>
      </trkpt>
      <trkpt lat="46.00426" lon="4.76081">
        <ele>225</ele>
        <time>2018-04-21T09:25:03Z</time>
      </trkpt>
      <trkpt lat="46.00433" lon="4.76085">
        <ele>227</ele>
        <time>2018-04-21T09:25:07Z</time>
      </trkpt>
      <trkpt lat="46.00435" lon="4.76086">
        <ele>227</ele>
        <time>2018-04-21T09:25:08Z</time>
      </trkpt>
      <trkpt lat="46.00444" lon="4.76089">
        <ele>227</ele>
        <time>2018-04-21T09:25:12Z</time>
      </trkpt>
      <trkpt lat="46.00446" lon="4.7609">
        <ele>227</ele>
        <time>2018-04-21T09:25:13Z</time>
      </trkpt>
      <trkpt lat="46.00453" lon="4.76096">
        <ele>227</ele>
        <time>2018-04-21T09:25:17Z</time>
      </trkpt>
      <trkpt lat="46.00455" lon="4.76097">
        <ele>227</ele>
        <time>2018-04-21T09:25:18Z</time>
      </trkpt>
      <trkpt lat="46.00462" lon="4.76102">
        <ele>227</ele>
        <time>2018-04-21T09:25:22Z</time>
      </trkpt>
      <trkpt lat="46.00464" lon="4.76103">
        <ele>227</ele>
        <time>2018-04-21T09:25:23Z</time>
      </trkpt>
      <trkpt lat="46.0047" lon="4.7611">
        <ele>227</ele>
        <time>2018-04-21T09:25:27Z</time>
      </trkpt>
      <trkpt lat="46.00471" lon="4.76111">
        <ele>227</ele>
        <time>2018-04-21T09:25:28Z</time>
      </trkpt>
      <trkpt lat="46.00478" lon="4.76117">
        <ele>227</ele>
        <time>2018-04-21T09:25:33Z</time>
      </trkpt>
      <trkpt lat="46.0048" lon="4.76119">
        <ele>227</ele>
        <time>2018-04-21T09:25:34Z</time>
      </trkpt>
      <trkpt lat="46.00488" lon="4.76124">
        <ele>227</ele>
        <time>2018-04-21T09:25:39Z</time>
      </trkpt>
      <trkpt lat="46.00489" lon="4.76126">
        <ele>227</ele>
        <time>2018-04-21T09:25:40Z</time>
      </trkpt>
      <trkpt lat="46.00495" lon="4.76135">
        <ele>228</ele>
        <time>2018-04-21T09:25:45Z</time>
      </trkpt>
      <trkpt lat="46.00497" lon="4.76136">
        <ele>228</ele>
        <time>2018-04-21T09:25:46Z</time>
      </trkpt>
      <trkpt lat="46.00504" lon="4.76144">
        <ele>228</ele>
        <time>2018-04-21T09:25:51Z</time>
      </trkpt>
      <trkpt lat="46.00505" lon="4.76146">
        <ele>228</ele>
        <time>2018-04-21T09:25:52Z</time>
      </trkpt>
      <trkpt lat="46.00512" lon="4.76152">
        <ele>228</ele>
        <time>2018-04-21T09:25:56Z</time>
      </trkpt>
      <trkpt lat="46.00514" lon="4.76154">
        <ele>228</ele>
        <time>2018-04-21T09:25:57Z</time>
      </trkpt>
      <trkpt lat="46.00521" lon="4.7616">
        <ele>228</ele>
        <time>2018-04-21T09:26:01Z</time>
      </trkpt>
      <trkpt lat="46.00523" lon="4.76162">
        <ele>228</ele>
        <time>2018-04-21T09:26:02Z</time>
      </trkpt>
      <trkpt lat="46.00529" lon="4.76169">
        <ele>230</ele>
        <time>2018-04-21T09:26:06Z</time>
      </trkpt>
      <trkpt lat="46.00531" lon="4.7617">
        <ele>230</ele>
        <time>2018-04-21T09:26:07Z</time>
      </trkpt>
      <trkpt lat="46.00538" lon="4.76174">
        <ele>230</ele>
        <time>2018-04-21T09:26:11Z</time>
      </trkpt>
      <trkpt lat="46.0054" lon="4.76175">
        <ele>230</ele>
        <time>2018-04-21T09:26:12Z</time>
      </trkpt>
      <trkpt lat="46.00548" lon="4.76181">
        <ele>230</ele>
        <time>2018-04-21T09:26:17Z</time>
      </trkpt>
      <trkpt lat="46.00549" lon="4.76183">
        <ele>230</ele>
        <time>2018-04-21T09:26:18Z</time>
      </trkpt>
      <trkpt lat="46.00557" lon="4.76185">
        <ele>230</ele>
        <time>2018-04-21T09:26:22Z</time>
      </trkpt>
      <trkpt lat="46.00559" lon="4.76185">
        <ele>230</ele>
        <time>2018-04-21T09:26:23Z</time>
      </trkpt>
      <trkpt lat="46.00566" lon="4.76187">
        <ele>230</ele>
        <time>2018-04-21T09:26:27Z</time>
      </trkpt>
      <trkpt lat="46.00568" lon="4.76188">
        <ele>230</ele>
        <time>2018-04-21T09:26:28Z</time>
      </trkpt>
      <trkpt lat="46.00576" lon="4.7619">
        <ele>231</ele>
        <time>2018-04-21T09:26:32Z</time>
      </trkpt>
      <trkpt lat="46.00578" lon="4.76191">
        <ele>231</ele>
        <time>2018-04-21T09:26:33Z</time>
      </trkpt>
      <trkpt lat="46.00586" lon="4.76194">
        <ele>230</ele>
        <time>2018-04-21T09:26:37Z</time>
      </trkpt>
      <trkpt lat="46.00589" lon="4.76195">
        <ele>230</ele>
        <time>2018-04-21T09:26:38Z</time>
      </trkpt>
      <trkpt lat="46.00597" lon="4.76198">
        <ele>230</ele>
        <time>2018-04-21T09:26:42Z</time>
      </trkpt>
      <trkpt lat="46.00599" lon="4.76199">
        <ele>230</ele>
        <time>2018-04-21T09:26:43Z</time>
      </trkpt>
      <trkpt lat="46.00607" lon="4.76202">
        <ele>230</ele>
        <time>2018-04-21T09:26:47Z</time>
      </trkpt>
      <trkpt lat="46.00609" lon="4.76203">
        <ele>230</ele>
        <time>2018-04-21T09:26:48Z</time>
      </trkpt>
      <trkpt lat="46.00617" lon="4.76205">
        <ele>230</ele>
        <time>2018-04-21T09:26:52Z</time>
      </trkpt>
      <trkpt lat="46.00618" lon="4.76206">
        <ele>230</ele>
        <time>2018-04-21T09:26:53Z</time>
      </trkpt>
      <trkpt lat="46.00626" lon="4.76208">
        <ele>230</ele>
        <time>2018-04-21T09:26:57Z</time>
      </trkpt>
      <trkpt lat="46.00628" lon="4.76208">
        <ele>230</ele>
        <time>2018-04-21T09:26:58Z</time>
      </trkpt>
      <trkpt lat="46.00633" lon="4.76198">
        <ele>230</ele>
        <time>2018-04-21T09:27:01Z</time>
      </trkpt>
      <trkpt lat="46.00633" lon="4.76193">
        <ele>230</ele>
        <time>2018-04-21T09:27:02Z</time>
      </trkpt>
      <trkpt lat="46.00633" lon="4.76179">
        <ele>230</ele>
        <time>2018-04-21T09:27:03Z</time>
      </trkpt>
      <trkpt lat="46.00633" lon="4.76171">
        <ele>230</ele>
        <time>2018-04-21T09:27:04Z</time>
      </trkpt>
      <trkpt lat="46.00636" lon="4.76165">
        <ele>228</ele>
        <time>2018-04-21T09:27:05Z</time>
      </trkpt>
      <trkpt lat="46.00641" lon="4.7616">
        <ele>228</ele>
        <time>2018-04-21T09:27:06Z</time>
      </trkpt>
      <trkpt lat="46.00646" lon="4.76153">
        <ele>228</ele>
        <time>2018-04-21T09:27:07Z</time>
      </trkpt>
      <trkpt lat="46.0065" lon="4.76148">
        <ele>228</ele>
        <time>2018-04-21T09:27:08Z</time>
      </trkpt>
      <trkpt lat="46.00656" lon="4.76142">
        <ele>228</ele>
        <time>2018-04-21T09:27:09Z</time>
      </trkpt>
      <trkpt lat="46.00662" lon="4.76136">
        <ele>228</ele>
        <time>2018-04-21T09:27:10Z</time>
      </trkpt>
      <trkpt lat="46.00669" lon="4.76131">
        <ele>226</ele>
        <time>2018-04-21T09:27:11Z</time>
      </trkpt>
      <trkpt lat="46.00677" lon="4.76126">
        <ele>226</ele>
        <time>2018-04-21T09:27:12Z</time>
      </trkpt>
      <trkpt lat="46.00686" lon="4.76123">
        <ele>225</ele>
        <time>2018-04-21T09:27:13Z</time>
      </trkpt>
      <trkpt lat="46.00696" lon="4.76121">
        <ele>225</ele>
        <time>2018-04-21T09:27:14Z</time>
      </trkpt>
      <trkpt lat="46.00705" lon="4.76121">
        <ele>225</ele>
        <time>2018-04-21T09:27:15Z</time>
      </trkpt>
      <trkpt lat="46.00716" lon="4.76119">
        <ele>224</ele>
        <time>2018-04-21T09:27:16Z</time>
      </trkpt>
      <trkpt lat="46.00726" lon="4.76118">
        <ele>224</ele>
        <time>2018-04-21T09:27:17Z</time>
      </trkpt>
      <trkpt lat="46.00737" lon="4.76118">
        <ele>223</ele>
        <time>2018-04-21T09:27:18Z</time>
      </trkpt>
      <trkpt lat="46.00747" lon="4.76116">
        <ele>223</ele>
        <time>2018-04-21T09:27:19Z</time>
      </trkpt>
      <trkpt lat="46.00758" lon="4.76115">
        <ele>219</ele>
        <time>2018-04-21T09:27:20Z</time>
      </trkpt>
      <trkpt lat="46.00769" lon="4.76114">
        <ele>219</ele>
        <time>2018-04-21T09:27:21Z</time>
      </trkpt>
      <trkpt lat="46.00779" lon="4.76113">
        <ele>219</ele>
        <time>2018-04-21T09:27:22Z</time>
      </trkpt>
      <trkpt lat="46.00791" lon="4.76112">
        <ele>219</ele>
        <time>2018-04-21T09:27:23Z</time>
      </trkpt>
      <trkpt lat="46.00801" lon="4.76111">
        <ele>218</ele>
        <time>2018-04-21T09:27:24Z</time>
      </trkpt>
      <trkpt lat="46.00812" lon="4.76109">
        <ele>218</ele>
        <time>2018-04-21T09:27:25Z</time>
      </trkpt>
      <trkpt lat="46.00822" lon="4.76108">
        <ele>218</ele>
        <time>2018-04-21T09:27:26Z</time>
      </trkpt>
      <trkpt lat="46.00832" lon="4.76105">
        <ele>217</ele>
        <time>2018-04-21T09:27:27Z</time>
      </trkpt>
      <trkpt lat="46.00842" lon="4.76104">
        <ele>216</ele>
        <time>2018-04-21T09:27:28Z</time>
      </trkpt>
      <trkpt lat="46.00853" lon="4.76103">
        <ele>215</ele>
        <time>2018-04-21T09:27:29Z</time>
      </trkpt>
      <trkpt lat="46.00864" lon="4.76101">
        <ele>215</ele>
        <time>2018-04-21T09:27:30Z</time>
      </trkpt>
      <trkpt lat="46.00874" lon="4.76098">
        <ele>215</ele>
        <time>2018-04-21T09:27:31Z</time>
      </trkpt>
      <trkpt lat="46.00883" lon="4.76095">
        <ele>215</ele>
        <time>2018-04-21T09:27:32Z</time>
      </trkpt>
      <trkpt lat="46.00893" lon="4.76093">
        <ele>214</ele>
        <time>2018-04-21T09:27:33Z</time>
      </trkpt>
      <trkpt lat="46.00903" lon="4.76091">
        <ele>214</ele>
        <time>2018-04-21T09:27:34Z</time>
      </trkpt>
      <trkpt lat="46.00913" lon="4.76089">
        <ele>214</ele>
        <time>2018-04-21T09:27:35Z</time>
      </trkpt>
      <trkpt lat="46.00922" lon="4.76086">
        <ele>213</ele>
        <time>2018-04-21T09:27:36Z</time>
      </trkpt>
      <trkpt lat="46.00933" lon="4.76084">
        <ele>213</ele>
        <time>2018-04-21T09:27:37Z</time>
      </trkpt>
      <trkpt lat="46.00942" lon="4.76081">
        <ele>212</ele>
        <time>2018-04-21T09:27:38Z</time>
      </trkpt>
      <trkpt lat="46.00952" lon="4.7608">
        <ele>212</ele>
        <time>2018-04-21T09:27:39Z</time>
      </trkpt>
      <trkpt lat="46.00962" lon="4.76079">
        <ele>212</ele>
        <time>2018-04-21T09:27:40Z</time>
      </trkpt>
      <trkpt lat="46.00973" lon="4.76077">
        <ele>212</ele>
        <time>2018-04-21T09:27:41Z</time>
      </trkpt>
      <trkpt lat="46.00981" lon="4.76074">
        <ele>212</ele>
        <time>2018-04-21T09:27:42Z</time>
      </trkpt>
      <trkpt lat="46.00989" lon="4.76073">
        <ele>212</ele>
        <time>2018-04-21T09:27:43Z</time>
      </trkpt>
      <trkpt lat="46.00997" lon="4.76073">
        <ele>212</ele>
        <time>2018-04-21T09:27:44Z</time>
      </trkpt>
      <trkpt lat="46.01006" lon="4.76072">
        <ele>211</ele>
        <time>2018-04-21T09:27:45Z</time>
      </trkpt>
      <trkpt lat="46.01014" lon="4.76069">
        <ele>211</ele>
        <time>2018-04-21T09:27:46Z</time>
      </trkpt>
      <trkpt lat="46.01021" lon="4.76067">
        <ele>210</ele>
        <time>2018-04-21T09:27:47Z</time>
      </trkpt>
      <trkpt lat="46.0103" lon="4.76066">
        <ele>210</ele>
        <time>2018-04-21T09:27:48Z</time>
      </trkpt>
      <trkpt lat="46.01037" lon="4.76068">
        <ele>210</ele>
        <time>2018-04-21T09:27:49Z</time>
      </trkpt>
      <trkpt lat="46.01046" lon="4.76068">
        <ele>210</ele>
        <time>2018-04-21T09:27:50Z</time>
      </trkpt>
      <trkpt lat="46.01055" lon="4.76066">
        <ele>210</ele>
        <time>2018-04-21T09:27:51Z</time>
      </trkpt>
      <trkpt lat="46.01064" lon="4.76063">
        <ele>209</ele>
        <time>2018-04-21T09:27:52Z</time>
      </trkpt>
      <trkpt lat="46.01072" lon="4.76061">
        <ele>209</ele>
        <time>2018-04-21T09:27:53Z</time>
      </trkpt>
      <trkpt lat="46.01081" lon="4.76057">
        <ele>209</ele>
        <time>2018-04-21T09:27:54Z</time>
      </trkpt>
      <trkpt lat="46.01088" lon="4.76056">
        <ele>208</ele>
        <time>2018-04-21T09:27:55Z</time>
      </trkpt>
      <trkpt lat="46.01098" lon="4.76056">
        <ele>208</ele>
        <time>2018-04-21T09:27:56Z</time>
      </trkpt>
      <trkpt lat="46.01106" lon="4.76055">
        <ele>208</ele>
        <time>2018-04-21T09:27:57Z</time>
      </trkpt>
      <trkpt lat="46.01113" lon="4.76055">
        <ele>208</ele>
        <time>2018-04-21T09:27:58Z</time>
      </trkpt>
      <trkpt lat="46.01122" lon="4.76056">
        <ele>208</ele>
        <time>2018-04-21T09:27:59Z</time>
      </trkpt>
      <trkpt lat="46.0113" lon="4.76056">
        <ele>208</ele>
        <time>2018-04-21T09:28:00Z</time>
      </trkpt>
      <trkpt lat="46.01138" lon="4.76055">
        <ele>208</ele>
        <time>2018-04-21T09:28:01Z</time>
      </trkpt>
      <trkpt lat="46.01145" lon="4.76054">
        <ele>208</ele>
        <time>2018-04-21T09:28:02Z</time>
      </trkpt>
      <trkpt lat="46.01153" lon="4.76055">
        <ele>208</ele>
        <time>2018-04-21T09:28:03Z</time>
      </trkpt>
      <trkpt lat="46.01161" lon="4.76056">
        <ele>208</ele>
        <time>2018-04-21T09:28:04Z</time>
      </trkpt>
      <trkpt lat="46.01168" lon="4.76057">
        <ele>207</ele>
        <time>2018-04-21T09:28:05Z</time>
      </trkpt>
      <trkpt lat="46.01176" lon="4.76058">
        <ele>207</ele>
        <time>2018-04-21T09:28:06Z</time>
      </trkpt>
      <trkpt lat="46.01184" lon="4.76061">
        <ele>206</ele>
        <time>2018-04-21T09:28:07Z</time>
      </trkpt>
      <trkpt lat="46.01191" lon="4.76062">
        <ele>206</ele>
        <time>2018-04-21T09:28:08Z</time>
      </trkpt>
      <trkpt lat="46.01197" lon="4.76063">
        <ele>206</ele>
        <time>2018-04-21T09:28:09Z</time>
      </trkpt>
      <trkpt lat="46.01205" lon="4.76068">
        <ele>206</ele>
        <time>2018-04-21T09:28:10Z</time>
      </trkpt>
      <trkpt lat="46.01212" lon="4.76068">
        <ele>206</ele>
        <time>2018-04-21T09:28:11Z</time>
      </trkpt>
      <trkpt lat="46.01219" lon="4.7607">
        <ele>206</ele>
        <time>2018-04-21T09:28:12Z</time>
      </trkpt>
      <trkpt lat="46.01226" lon="4.76071">
        <ele>206</ele>
        <time>2018-04-21T09:28:13Z</time>
      </trkpt>
      <trkpt lat="46.01233" lon="4.76073">
        <ele>205</ele>
        <time>2018-04-21T09:28:14Z</time>
      </trkpt>
      <trkpt lat="46.0124" lon="4.76073">
        <ele>205</ele>
        <time>2018-04-21T09:28:15Z</time>
      </trkpt>
      <trkpt lat="46.01247" lon="4.76074">
        <ele>205</ele>
        <time>2018-04-21T09:28:16Z</time>
      </trkpt>
      <trkpt lat="46.01256" lon="4.76076">
        <ele>204</ele>
        <time>2018-04-21T09:28:17Z</time>
      </trkpt>
      <trkpt lat="46.01263" lon="4.76076">
        <ele>204</ele>
        <time>2018-04-21T09:28:18Z</time>
      </trkpt>
      <trkpt lat="46.0127" lon="4.76076">
        <ele>204</ele>
        <time>2018-04-21T09:28:19Z</time>
      </trkpt>
      <trkpt lat="46.01276" lon="4.76072">
        <ele>204</ele>
        <time>2018-04-21T09:28:20Z</time>
      </trkpt>
      <trkpt lat="46.01283" lon="4.7607">
        <ele>204</ele>
        <time>2018-04-21T09:28:21Z</time>
      </trkpt>
      <trkpt lat="46.0129" lon="4.76069">
        <ele>204</ele>
        <time>2018-04-21T09:28:22Z</time>
      </trkpt>
      <trkpt lat="46.01296" lon="4.76067">
        <ele>203</ele>
        <time>2018-04-21T09:28:23Z</time>
      </trkpt>
      <trkpt lat="46.01303" lon="4.76063">
        <ele>203</ele>
        <time>2018-04-21T09:28:24Z</time>
      </trkpt>
      <trkpt lat="46.0131" lon="4.76062">
        <ele>203</ele>
        <time>2018-04-21T09:28:25Z</time>
      </trkpt>
      <trkpt lat="46.01317" lon="4.7606">
        <ele>203</ele>
        <time>2018-04-21T09:28:26Z</time>
      </trkpt>
      <trkpt lat="46.01324" lon="4.76058">
        <ele>203</ele>
        <time>2018-04-21T09:28:27Z</time>
      </trkpt>
      <trkpt lat="46.01331" lon="4.76056">
        <ele>203</ele>
        <time>2018-04-21T09:28:28Z</time>
      </trkpt>
      <trkpt lat="46.01337" lon="4.76055">
        <ele>203</ele>
        <time>2018-04-21T09:28:29Z</time>
      </trkpt>
      <trkpt lat="46.01343" lon="4.76053">
        <ele>203</ele>
        <time>2018-04-21T09:28:30Z</time>
      </trkpt>
      <trkpt lat="46.01349" lon="4.7605">
        <ele>203</ele>
        <time>2018-04-21T09:28:31Z</time>
      </trkpt>
      <trkpt lat="46.01356" lon="4.76048">
        <ele>203</ele>
        <time>2018-04-21T09:28:32Z</time>
      </trkpt>
      <trkpt lat="46.01361" lon="4.76045">
        <ele>203</ele>
        <time>2018-04-21T09:28:33Z</time>
      </trkpt>
      <trkpt lat="46.01368" lon="4.76043">
        <ele>203</ele>
        <time>2018-04-21T09:28:34Z</time>
      </trkpt>
      <trkpt lat="46.01373" lon="4.76042">
        <ele>203</ele>
        <time>2018-04-21T09:28:35Z</time>
      </trkpt>
      <trkpt lat="46.0138" lon="4.76043">
        <ele>203</ele>
        <time>2018-04-21T09:28:36Z</time>
      </trkpt>
      <trkpt lat="46.01386" lon="4.7604">
        <ele>203</ele>
        <time>2018-04-21T09:28:37Z</time>
      </trkpt>
      <trkpt lat="46.01391" lon="4.76038">
        <ele>203</ele>
        <time>2018-04-21T09:28:38Z</time>
      </trkpt>
      <trkpt lat="46.01397" lon="4.76038">
        <ele>203</ele>
        <time>2018-04-21T09:28:39Z</time>
      </trkpt>
      <trkpt lat="46.01404" lon="4.76039">
        <ele>204</ele>
        <time>2018-04-21T09:28:40Z</time>
      </trkpt>
      <trkpt lat="46.01409" lon="4.76041">
        <ele>204</ele>
        <time>2018-04-21T09:28:41Z</time>
      </trkpt>
      <trkpt lat="46.01414" lon="4.76044">
        <ele>203</ele>
        <time>2018-04-21T09:28:42Z</time>
      </trkpt>
      <trkpt lat="46.01419" lon="4.76046">
        <ele>204</ele>
        <time>2018-04-21T09:28:43Z</time>
      </trkpt>
      <trkpt lat="46.01425" lon="4.7605">
        <ele>204</ele>
        <time>2018-04-21T09:28:44Z</time>
      </trkpt>
      <trkpt lat="46.0143" lon="4.76054">
        <ele>203</ele>
        <time>2018-04-21T09:28:45Z</time>
      </trkpt>
      <trkpt lat="46.01434" lon="4.76057">
        <ele>203</ele>
        <time>2018-04-21T09:28:46Z</time>
      </trkpt>
      <trkpt lat="46.01438" lon="4.76059">
        <ele>203</ele>
        <time>2018-04-21T09:28:47Z</time>
      </trkpt>
      <trkpt lat="46.01444" lon="4.76062">
        <ele>203</ele>
        <time>2018-04-21T09:28:48Z</time>
      </trkpt>
      <trkpt lat="46.01449" lon="4.76065">
        <ele>203</ele>
        <time>2018-04-21T09:28:49Z</time>
      </trkpt>
      <trkpt lat="46.01453" lon="4.76068">
        <ele>203</ele>
        <time>2018-04-21T09:28:50Z</time>
      </trkpt>
      <trkpt lat="46.01458" lon="4.7607">
        <ele>203</ele>
        <time>2018-04-21T09:28:51Z</time>
      </trkpt>
      <trkpt lat="46.01462" lon="4.76072">
        <ele>203</ele>
        <time>2018-04-21T09:28:52Z</time>
      </trkpt>
      <trkpt lat="46.01468" lon="4.76073">
        <ele>203</ele>
        <time>2018-04-21T09:28:53Z</time>
      </trkpt>
      <trkpt lat="46.01473" lon="4.76074">
        <ele>203</ele>
        <time>2018-04-21T09:28:54Z</time>
      </trkpt>
      <trkpt lat="46.01477" lon="4.76074">
        <ele>203</ele>
        <time>2018-04-21T09:28:55Z</time>
      </trkpt>
      <trkpt lat="46.01482" lon="4.76076">
        <ele>203</ele>
        <time>2018-04-21T09:28:56Z</time>
      </trkpt>
      <trkpt lat="46.01487" lon="4.76076">
        <ele>203</ele>
        <time>2018-04-21T09:28:57Z</time>
      </trkpt>
      <trkpt lat="46.01492" lon="4.76079">
        <ele>203</ele>
        <time>2018-04-21T09:28:58Z</time>
      </trkpt>
      <trkpt lat="46.01497" lon="4.76081">
        <ele>203</ele>
        <time>2018-04-21T09:28:59Z</time>
      </trkpt>
      <trkpt lat="46.01502" lon="4.76083">
        <ele>203</ele>
        <time>2018-04-21T09:29:00Z</time>
      </trkpt>
      <trkpt lat="46.01508" lon="4.76083">
        <ele>203</ele>
        <time>2018-04-21T09:29:01Z</time>
      </trkpt>
      <trkpt lat="46.01513" lon="4.76084">
        <ele>203</ele>
        <time>2018-04-21T09:29:02Z</time>
      </trkpt>
      <trkpt lat="46.01519" lon="4.76085">
        <ele>203</ele>
        <time>2018-04-21T09:29:03Z</time>
      </trkpt>
      <trkpt lat="46.01524" lon="4.76087">
        <ele>202</ele>
        <time>2018-04-21T09:29:04Z</time>
      </trkpt>
      <trkpt lat="46.0153" lon="4.76089">
        <ele>202</ele>
        <time>2018-04-21T09:29:05Z</time>
      </trkpt>
      <trkpt lat="46.01535" lon="4.76091">
        <ele>202</ele>
        <time>2018-04-21T09:29:06Z</time>
      </trkpt>
      <trkpt lat="46.0154" lon="4.76093">
        <ele>202</ele>
        <time>2018-04-21T09:29:07Z</time>
      </trkpt>
      <trkpt lat="46.01545" lon="4.76095">
        <ele>202</ele>
        <time>2018-04-21T09:29:08Z</time>
      </trkpt>
      <trkpt lat="46.01551" lon="4.76098">
        <ele>202</ele>
        <time>2018-04-21T09:29:09Z</time>
      </trkpt>
      <trkpt lat="46.01556" lon="4.761">
        <ele>202</ele>
        <time>2018-04-21T09:29:10Z</time>
      </trkpt>
      <trkpt lat="46.01561" lon="4.76103">
        <ele>202</ele>
        <time>2018-04-21T09:29:11Z</time>
      </trkpt>
      <trkpt lat="46.01566" lon="4.76104">
        <ele>202</ele>
        <time>2018-04-21T09:29:12Z</time>
      </trkpt>
      <trkpt lat="46.01572" lon="4.76106">
        <ele>202</ele>
        <time>2018-04-21T09:29:13Z</time>
      </trkpt>
      <trkpt lat="46.01576" lon="4.76108">
        <ele>202</ele>
        <time>2018-04-21T09:29:14Z</time>
      </trkpt>
      <trkpt lat="46.01582" lon="4.7611">
        <ele>202</ele>
        <time>2018-04-21T09:29:15Z</time>
      </trkpt>
      <trkpt lat="46.01587" lon="4.76112">
        <ele>200</ele>
        <time>2018-04-21T09:29:16Z</time>
      </trkpt>
      <trkpt lat="46.01593" lon="4.76111">
        <ele>200</ele>
        <time>2018-04-21T09:29:17Z</time>
      </trkpt>
      <trkpt lat="46.01597" lon="4.76112">
        <ele>200</ele>
        <time>2018-04-21T09:29:18Z</time>
      </trkpt>
      <trkpt lat="46.01602" lon="4.76113">
        <ele>200</ele>
        <time>2018-04-21T09:29:19Z</time>
      </trkpt>
      <trkpt lat="46.01607" lon="4.76114">
        <ele>200</ele>
        <time>2018-04-21T09:29:20Z</time>
      </trkpt>
      <trkpt lat="46.01613" lon="4.76114">
        <ele>200</ele>
        <time>2018-04-21T09:29:21Z</time>
      </trkpt>
      <trkpt lat="46.01618" lon="4.76115">
        <ele>200</ele>
        <time>2018-04-21T09:29:22Z</time>
      </trkpt>
      <trkpt lat="46.01624" lon="4.76116">
        <ele>200</ele>
        <time>2018-04-21T09:29:23Z</time>
      </trkpt>
      <trkpt lat="46.01629" lon="4.76117">
        <ele>199</ele>
        <time>2018-04-21T09:29:24Z</time>
      </trkpt>
      <trkpt lat="46.01635" lon="4.76117">
        <ele>199</ele>
        <time>2018-04-21T09:29:25Z</time>
      </trkpt>
      <trkpt lat="46.01641" lon="4.76118">
        <ele>199</ele>
        <time>2018-04-21T09:29:26Z</time>
      </trkpt>
      <trkpt lat="46.01647" lon="4.76118">
        <ele>199</ele>
        <time>2018-04-21T09:29:27Z</time>
      </trkpt>
      <trkpt lat="46.01653" lon="4.76119">
        <ele>199</ele>
        <time>2018-04-21T09:29:28Z</time>
      </trkpt>
      <trkpt lat="46.0166" lon="4.7612">
        <ele>199</ele>
        <time>2018-04-21T09:29:29Z</time>
      </trkpt>
      <trkpt lat="46.01666" lon="4.76122">
        <ele>199</ele>
        <time>2018-04-21T09:29:30Z</time>
      </trkpt>
      <trkpt lat="46.01672" lon="4.76122">
        <ele>198</ele>
        <time>2018-04-21T09:29:31Z</time>
      </trkpt>
      <trkpt lat="46.01678" lon="4.76123">
        <ele>198</ele>
        <time>2018-04-21T09:29:32Z</time>
      </trkpt>
      <trkpt lat="46.01684" lon="4.76123">
        <ele>198</ele>
        <time>2018-04-21T09:29:33Z</time>
      </trkpt>
      <trkpt lat="46.01689" lon="4.76123">
        <ele>198</ele>
        <time>2018-04-21T09:29:34Z</time>
      </trkpt>
      <trkpt lat="46.01696" lon="4.76124">
        <ele>198</ele>
        <time>2018-04-21T09:29:35Z</time>
      </trkpt>
      <trkpt lat="46.01702" lon="4.76125">
        <ele>198</ele>
        <time>2018-04-21T09:29:36Z</time>
      </trkpt>
      <trkpt lat="46.01708" lon="4.76127">
        <ele>197</ele>
        <time>2018-04-21T09:29:37Z</time>
      </trkpt>
      <trkpt lat="46.01714" lon="4.76128">
        <ele>197</ele>
        <time>2018-04-21T09:29:38Z</time>
      </trkpt>
      <trkpt lat="46.0172" lon="4.76129">
        <ele>197</ele>
        <time>2018-04-21T09:29:39Z</time>
      </trkpt>
      <trkpt lat="46.01726" lon="4.76129">
        <ele>197</ele>
        <time>2018-04-21T09:29:40Z</time>
      </trkpt>
      <trkpt lat="46.01732" lon="4.76129">
        <ele>197</ele>
        <time>2018-04-21T09:29:41Z</time>
      </trkpt>
      <trkpt lat="46.01738" lon="4.76131">
        <ele>197</ele>
        <time>2018-04-21T09:29:42Z</time>
      </trkpt>
      <trkpt lat="46.01743" lon="4.76131">
        <ele>197</ele>
        <time>2018-04-21T09:29:43Z</time>
      </trkpt>
      <trkpt lat="46.01749" lon="4.76132">
        <ele>197</ele>
        <time>2018-04-21T09:29:44Z</time>
      </trkpt>
      <trkpt lat="46.01756" lon="4.7613">
        <ele>198</ele>
        <time>2018-04-21T09:29:45Z</time>
      </trkpt>
      <trkpt lat="46.01762" lon="4.7613">
        <ele>198</ele>
        <time>2018-04-21T09:29:46Z</time>
      </trkpt>
      <trkpt lat="46.01768" lon="4.7613">
        <ele>198</ele>
        <time>2018-04-21T09:29:47Z</time>
      </trkpt>
      <trkpt lat="46.01774" lon="4.76131">
        <ele>198</ele>
        <time>2018-04-21T09:29:48Z</time>
      </trkpt>
      <trkpt lat="46.01781" lon="4.76132">
        <ele>198</ele>
        <time>2018-04-21T09:29:49Z</time>
      </trkpt>
      <trkpt lat="46.01786" lon="4.76132">
        <ele>198</ele>
        <time>2018-04-21T09:29:50Z</time>
      </trkpt>
      <trkpt lat="46.01791" lon="4.76132">
        <ele>198</ele>
        <time>2018-04-21T09:29:51Z</time>
      </trkpt>
      <trkpt lat="46.01798" lon="4.76132">
        <ele>198</ele>
        <time>2018-04-21T09:29:52Z</time>
      </trkpt>
      <trkpt lat="46.01804" lon="4.76133">
        <ele>198</ele>
        <time>2018-04-21T09:29:53Z</time>
      </trkpt>
      <trkpt lat="46.0181" lon="4.76133">
        <ele>198</ele>
        <time>2018-04-21T09:29:54Z</time>
      </trkpt>
      <trkpt lat="46.01816" lon="4.76134">
        <ele>198</ele>
        <time>2018-04-21T09:29:55Z</time>
      </trkpt>
      <trkpt lat="46.01822" lon="4.76133">
        <ele>198</ele>
        <time>2018-04-21T09:29:56Z</time>
      </trkpt>
      <trkpt lat="46.01828" lon="4.76133">
        <ele>198</ele>
        <time>2018-04-21T09:29:57Z</time>
      </trkpt>
      <trkpt lat="46.01835" lon="4.76133">
        <ele>199</ele>
        <time>2018-04-21T09:29:58Z</time>
      </trkpt>
      <trkpt lat="46.01841" lon="4.76133">
        <ele>199</ele>
        <time>2018-04-21T09:29:59Z</time>
      </trkpt>
      <trkpt lat="46.01847" lon="4.76133">
        <ele>199</ele>
        <time>2018-04-21T09:30:01Z</time>
      </trkpt>
      <trkpt lat="46.01851" lon="4.76131">
        <ele>199</ele>
        <time>2018-04-21T09:30:02Z</time>
      </trkpt>
      <trkpt lat="46.01855" lon="4.76131">
        <ele>199</ele>
        <time>2018-04-21T09:30:03Z</time>
      </trkpt>
      <trkpt lat="46.0186" lon="4.76131">
        <ele>199</ele>
        <time>2018-04-21T09:30:04Z</time>
      </trkpt>
      <trkpt lat="46.01866" lon="4.7613">
        <ele>199</ele>
        <time>2018-04-21T09:30:05Z</time>
      </trkpt>
      <trkpt lat="46.01871" lon="4.7613">
        <ele>199</ele>
        <time>2018-04-21T09:30:06Z</time>
      </trkpt>
      <trkpt lat="46.01877" lon="4.76131">
        <ele>199</ele>
        <time>2018-04-21T09:30:07Z</time>
      </trkpt>
      <trkpt lat="46.01884" lon="4.76132">
        <ele>199</ele>
        <time>2018-04-21T09:30:08Z</time>
      </trkpt>
      <trkpt lat="46.01889" lon="4.76132">
        <ele>199</ele>
        <time>2018-04-21T09:30:09Z</time>
      </trkpt>
      <trkpt lat="46.01895" lon="4.76131">
        <ele>199</ele>
        <time>2018-04-21T09:30:10Z</time>
      </trkpt>
      <trkpt lat="46.01901" lon="4.76131">
        <ele>199</ele>
        <time>2018-04-21T09:30:11Z</time>
      </trkpt>
      <trkpt lat="46.01907" lon="4.7613">
        <ele>199</ele>
        <time>2018-04-21T09:30:12Z</time>
      </trkpt>
      <trkpt lat="46.01913" lon="4.76129">
        <ele>199</ele>
        <time>2018-04-21T09:30:13Z</time>
      </trkpt>
      <trkpt lat="46.01918" lon="4.76128">
        <ele>199</ele>
        <time>2018-04-21T09:30:14Z</time>
      </trkpt>
      <trkpt lat="46.01924" lon="4.76126">
        <ele>199</ele>
        <time>2018-04-21T09:30:15Z</time>
      </trkpt>
      <trkpt lat="46.0193" lon="4.76125">
        <ele>199</ele>
        <time>2018-04-21T09:30:16Z</time>
      </trkpt>
      <trkpt lat="46.01934" lon="4.76124">
        <ele>198</ele>
        <time>2018-04-21T09:30:17Z</time>
      </trkpt>
      <trkpt lat="46.01939" lon="4.76123">
        <ele>198</ele>
        <time>2018-04-21T09:30:18Z</time>
      </trkpt>
      <trkpt lat="46.01946" lon="4.76121">
        <ele>198</ele>
        <time>2018-04-21T09:30:20Z</time>
      </trkpt>
      <trkpt lat="46.0195" lon="4.76119">
        <ele>198</ele>
        <time>2018-04-21T09:30:21Z</time>
      </trkpt>
      <trkpt lat="46.01954" lon="4.76117">
        <ele>198</ele>
        <time>2018-04-21T09:30:22Z</time>
      </trkpt>
      <trkpt lat="46.01959" lon="4.76116">
        <ele>198</ele>
        <time>2018-04-21T09:30:23Z</time>
      </trkpt>
      <trkpt lat="46.01965" lon="4.76115">
        <ele>198</ele>
        <time>2018-04-21T09:30:24Z</time>
      </trkpt>
      <trkpt lat="46.01971" lon="4.76113">
        <ele>198</ele>
        <time>2018-04-21T09:30:25Z</time>
      </trkpt>
      <trkpt lat="46.01976" lon="4.76113">
        <ele>198</ele>
        <time>2018-04-21T09:30:26Z</time>
      </trkpt>
      <trkpt lat="46.01981" lon="4.76111">
        <ele>198</ele>
        <time>2018-04-21T09:30:27Z</time>
      </trkpt>
      <trkpt lat="46.01989" lon="4.76107">
        <ele>198</ele>
        <time>2018-04-21T09:30:29Z</time>
      </trkpt>
      <trkpt lat="46.01995" lon="4.76108">
        <ele>198</ele>
        <time>2018-04-21T09:30:30Z</time>
      </trkpt>
      <trkpt lat="46.02001" lon="4.76105">
        <ele>197</ele>
        <time>2018-04-21T09:30:31Z</time>
      </trkpt>
      <trkpt lat="46.02007" lon="4.76104">
        <ele>197</ele>
        <time>2018-04-21T09:30:32Z</time>
      </trkpt>
      <trkpt lat="46.02012" lon="4.76104">
        <ele>197</ele>
        <time>2018-04-21T09:30:33Z</time>
      </trkpt>
      <trkpt lat="46.02017" lon="4.76101">
        <ele>197</ele>
        <time>2018-04-21T09:30:34Z</time>
      </trkpt>
      <trkpt lat="46.02022" lon="4.76098">
        <ele>197</ele>
        <time>2018-04-21T09:30:35Z</time>
      </trkpt>
      <trkpt lat="46.02027" lon="4.76096">
        <ele>197</ele>
        <time>2018-04-21T09:30:36Z</time>
      </trkpt>
      <trkpt lat="46.02034" lon="4.76095">
        <ele>197</ele>
        <time>2018-04-21T09:30:37Z</time>
      </trkpt>
      <trkpt lat="46.02039" lon="4.76092">
        <ele>197</ele>
        <time>2018-04-21T09:30:38Z</time>
      </trkpt>
      <trkpt lat="46.02043" lon="4.76093">
        <ele>197</ele>
        <time>2018-04-21T09:30:39Z</time>
      </trkpt>
      <trkpt lat="46.02052" lon="4.76095">
        <ele>197</ele>
        <time>2018-04-21T09:30:40Z</time>
      </trkpt>
      <trkpt lat="46.02059" lon="4.76092">
        <ele>197</ele>
        <time>2018-04-21T09:30:42Z</time>
      </trkpt>
      <trkpt lat="46.02066" lon="4.76089">
        <ele>197</ele>
        <time>2018-04-21T09:30:43Z</time>
      </trkpt>
      <trkpt lat="46.02073" lon="4.76088">
        <ele>196</ele>
        <time>2018-04-21T09:30:44Z</time>
      </trkpt>
      <trkpt lat="46.02078" lon="4.76087">
        <ele>196</ele>
        <time>2018-04-21T09:30:45Z</time>
      </trkpt>
      <trkpt lat="46.02084" lon="4.76085">
        <ele>196</ele>
        <time>2018-04-21T09:30:46Z</time>
      </trkpt>
      <trkpt lat="46.02089" lon="4.76082">
        <ele>195</ele>
        <time>2018-04-21T09:30:47Z</time>
      </trkpt>
      <trkpt lat="46.02094" lon="4.7608">
        <ele>195</ele>
        <time>2018-04-21T09:30:48Z</time>
      </trkpt>
      <trkpt lat="46.02099" lon="4.76077">
        <ele>195</ele>
        <time>2018-04-21T09:30:49Z</time>
      </trkpt>
      <trkpt lat="46.02104" lon="4.76074">
        <ele>195</ele>
        <time>2018-04-21T09:30:50Z</time>
      </trkpt>
      <trkpt lat="46.02108" lon="4.76073">
        <ele>194</ele>
        <time>2018-04-21T09:30:51Z</time>
      </trkpt>
      <trkpt lat="46.02114" lon="4.76071">
        <ele>194</ele>
        <time>2018-04-21T09:30:52Z</time>
      </trkpt>
      <trkpt lat="46.02119" lon="4.76065">
        <ele>194</ele>
        <time>2018-04-21T09:30:53Z</time>
      </trkpt>
      <trkpt lat="46.02122" lon="4.76061">
        <ele>194</ele>
        <time>2018-04-21T09:30:54Z</time>
      </trkpt>
      <trkpt lat="46.02127" lon="4.76056">
        <ele>194</ele>
        <time>2018-04-21T09:30:55Z</time>
      </trkpt>
      <trkpt lat="46.02134" lon="4.76049">
        <ele>194</ele>
        <time>2018-04-21T09:30:56Z</time>
      </trkpt>
      <trkpt lat="46.02138" lon="4.76046">
        <ele>193</ele>
        <time>2018-04-21T09:30:57Z</time>
      </trkpt>
      <trkpt lat="46.02143" lon="4.76042">
        <ele>193</ele>
        <time>2018-04-21T09:30:58Z</time>
      </trkpt>
      <trkpt lat="46.02148" lon="4.76038">
        <ele>193</ele>
        <time>2018-04-21T09:30:59Z</time>
      </trkpt>
      <trkpt lat="46.02152" lon="4.76035">
        <ele>193</ele>
        <time>2018-04-21T09:31:00Z</time>
      </trkpt>
      <trkpt lat="46.02158" lon="4.7603">
        <ele>193</ele>
        <time>2018-04-21T09:31:01Z</time>
      </trkpt>
      <trkpt lat="46.02162" lon="4.76023">
        <ele>193</ele>
        <time>2018-04-21T09:31:02Z</time>
      </trkpt>
      <trkpt lat="46.02169" lon="4.76017">
        <ele>193</ele>
        <time>2018-04-21T09:31:03Z</time>
      </trkpt>
      <trkpt lat="46.02174" lon="4.76012">
        <ele>193</ele>
        <time>2018-04-21T09:31:04Z</time>
      </trkpt>
      <trkpt lat="46.02179" lon="4.76008">
        <ele>193</ele>
        <time>2018-04-21T09:31:05Z</time>
      </trkpt>
      <trkpt lat="46.02184" lon="4.76004">
        <ele>193</ele>
        <time>2018-04-21T09:31:06Z</time>
      </trkpt>
      <trkpt lat="46.02188" lon="4.76">
        <ele>193</ele>
        <time>2018-04-21T09:31:07Z</time>
      </trkpt>
      <trkpt lat="46.02193" lon="4.75995">
        <ele>192</ele>
        <time>2018-04-21T09:31:08Z</time>
      </trkpt>
      <trkpt lat="46.02198" lon="4.75991">
        <ele>192</ele>
        <time>2018-04-21T09:31:09Z</time>
      </trkpt>
      <trkpt lat="46.02205" lon="4.75982">
        <ele>193</ele>
        <time>2018-04-21T09:31:10Z</time>
      </trkpt>
      <trkpt lat="46.0221" lon="4.75978">
        <ele>193</ele>
        <time>2018-04-21T09:31:11Z</time>
      </trkpt>
      <trkpt lat="46.02217" lon="4.75971">
        <ele>193</ele>
        <time>2018-04-21T09:31:12Z</time>
      </trkpt>
      <trkpt lat="46.0222" lon="4.75967">
        <ele>193</ele>
        <time>2018-04-21T09:31:13Z</time>
      </trkpt>
      <trkpt lat="46.02226" lon="4.75963">
        <ele>193</ele>
        <time>2018-04-21T09:31:14Z</time>
      </trkpt>
      <trkpt lat="46.0223" lon="4.7596">
        <ele>193</ele>
        <time>2018-04-21T09:31:15Z</time>
      </trkpt>
      <trkpt lat="46.02235" lon="4.75957">
        <ele>193</ele>
        <time>2018-04-21T09:31:16Z</time>
      </trkpt>
      <trkpt lat="46.02242" lon="4.7595">
        <ele>193</ele>
        <time>2018-04-21T09:31:18Z</time>
      </trkpt>
      <trkpt lat="46.02245" lon="4.75947">
        <ele>193</ele>
        <time>2018-04-21T09:31:19Z</time>
      </trkpt>
      <trkpt lat="46.0225" lon="4.75943">
        <ele>193</ele>
        <time>2018-04-21T09:31:20Z</time>
      </trkpt>
      <trkpt lat="46.02254" lon="4.7594">
        <ele>194</ele>
        <time>2018-04-21T09:31:21Z</time>
      </trkpt>
      <trkpt lat="46.0226" lon="4.75939">
        <ele>194</ele>
        <time>2018-04-21T09:31:22Z</time>
      </trkpt>
      <trkpt lat="46.02264" lon="4.75935">
        <ele>194</ele>
        <time>2018-04-21T09:31:23Z</time>
      </trkpt>
      <trkpt lat="46.02269" lon="4.75931">
        <ele>194</ele>
        <time>2018-04-21T09:31:24Z</time>
      </trkpt>
      <trkpt lat="46.02274" lon="4.75924">
        <ele>194</ele>
        <time>2018-04-21T09:31:25Z</time>
      </trkpt>
      <trkpt lat="46.02278" lon="4.75918">
        <ele>194</ele>
        <time>2018-04-21T09:31:26Z</time>
      </trkpt>
      <trkpt lat="46.02283" lon="4.75914">
        <ele>193</ele>
        <time>2018-04-21T09:31:27Z</time>
      </trkpt>
      <trkpt lat="46.02288" lon="4.7591">
        <ele>193</ele>
        <time>2018-04-21T09:31:28Z</time>
      </trkpt>
      <trkpt lat="46.02292" lon="4.75908">
        <ele>193</ele>
        <time>2018-04-21T09:31:29Z</time>
      </trkpt>
      <trkpt lat="46.02295" lon="4.75903">
        <ele>193</ele>
        <time>2018-04-21T09:31:30Z</time>
      </trkpt>
      <trkpt lat="46.02299" lon="4.75899">
        <ele>193</ele>
        <time>2018-04-21T09:31:31Z</time>
      </trkpt>
      <trkpt lat="46.02303" lon="4.75896">
        <ele>193</ele>
        <time>2018-04-21T09:31:32Z</time>
      </trkpt>
      <trkpt lat="46.02307" lon="4.75892">
        <ele>193</ele>
        <time>2018-04-21T09:31:33Z</time>
      </trkpt>
      <trkpt lat="46.02312" lon="4.75887">
        <ele>193</ele>
        <time>2018-04-21T09:31:34Z</time>
      </trkpt>
      <trkpt lat="46.02316" lon="4.75883">
        <ele>193</ele>
        <time>2018-04-21T09:31:35Z</time>
      </trkpt>
      <trkpt lat="46.0232" lon="4.75879">
        <ele>193</ele>
        <time>2018-04-21T09:31:36Z</time>
      </trkpt>
      <trkpt lat="46.02323" lon="4.75875">
        <ele>193</ele>
        <time>2018-04-21T09:31:37Z</time>
      </trkpt>
      <trkpt lat="46.02328" lon="4.75871">
        <ele>193</ele>
        <time>2018-04-21T09:31:38Z</time>
      </trkpt>
      <trkpt lat="46.02332" lon="4.75867">
        <ele>193</ele>
        <time>2018-04-21T09:31:39Z</time>
      </trkpt>
      <trkpt lat="46.02339" lon="4.7586">
        <ele>193</ele>
        <time>2018-04-21T09:31:41Z</time>
      </trkpt>
      <trkpt lat="46.02343" lon="4.75858">
        <ele>193</ele>
        <time>2018-04-21T09:31:42Z</time>
      </trkpt>
      <trkpt lat="46.02346" lon="4.75855">
        <ele>193</ele>
        <time>2018-04-21T09:31:43Z</time>
      </trkpt>
      <trkpt lat="46.02354" lon="4.75851">
        <ele>193</ele>
        <time>2018-04-21T09:31:44Z</time>
      </trkpt>
      <trkpt lat="46.02359" lon="4.75848">
        <ele>193</ele>
        <time>2018-04-21T09:31:45Z</time>
      </trkpt>
      <trkpt lat="46.02364" lon="4.75844">
        <ele>193</ele>
        <time>2018-04-21T09:31:46Z</time>
      </trkpt>
      <trkpt lat="46.02368" lon="4.75841">
        <ele>193</ele>
        <time>2018-04-21T09:31:47Z</time>
      </trkpt>
      <trkpt lat="46.02372" lon="4.75836">
        <ele>193</ele>
        <time>2018-04-21T09:31:48Z</time>
      </trkpt>
      <trkpt lat="46.02377" lon="4.75833">
        <ele>192</ele>
        <time>2018-04-21T09:31:49Z</time>
      </trkpt>
      <trkpt lat="46.0238" lon="4.7583">
        <ele>192</ele>
        <time>2018-04-21T09:31:50Z</time>
      </trkpt>
      <trkpt lat="46.02385" lon="4.75826">
        <ele>192</ele>
        <time>2018-04-21T09:31:51Z</time>
      </trkpt>
      <trkpt lat="46.02389" lon="4.75823">
        <ele>192</ele>
        <time>2018-04-21T09:31:52Z</time>
      </trkpt>
      <trkpt lat="46.02394" lon="4.7582">
        <ele>192</ele>
        <time>2018-04-21T09:31:53Z</time>
      </trkpt>
      <trkpt lat="46.02399" lon="4.75817">
        <ele>192</ele>
        <time>2018-04-21T09:31:54Z</time>
      </trkpt>
      <trkpt lat="46.02403" lon="4.75814">
        <ele>192</ele>
        <time>2018-04-21T09:31:55Z</time>
      </trkpt>
      <trkpt lat="46.02408" lon="4.75807">
        <ele>192</ele>
        <time>2018-04-21T09:31:56Z</time>
      </trkpt>
      <trkpt lat="46.02412" lon="4.75806">
        <ele>192</ele>
        <time>2018-04-21T09:31:57Z</time>
      </trkpt>
      <trkpt lat="46.02417" lon="4.75803">
        <ele>192</ele>
        <time>2018-04-21T09:31:58Z</time>
      </trkpt>
      <trkpt lat="46.02422" lon="4.75799">
        <ele>192</ele>
        <time>2018-04-21T09:31:59Z</time>
      </trkpt>
      <trkpt lat="46.02428" lon="4.75794">
        <ele>191</ele>
        <time>2018-04-21T09:32:00Z</time>
      </trkpt>
      <trkpt lat="46.02433" lon="4.75792">
        <ele>191</ele>
        <time>2018-04-21T09:32:01Z</time>
      </trkpt>
      <trkpt lat="46.02439" lon="4.75787">
        <ele>191</ele>
        <time>2018-04-21T09:32:02Z</time>
      </trkpt>
      <trkpt lat="46.02445" lon="4.75783">
        <ele>191</ele>
        <time>2018-04-21T09:32:03Z</time>
      </trkpt>
      <trkpt lat="46.02452" lon="4.75779">
        <ele>191</ele>
        <time>2018-04-21T09:32:04Z</time>
      </trkpt>
      <trkpt lat="46.02458" lon="4.75776">
        <ele>191</ele>
        <time>2018-04-21T09:32:05Z</time>
      </trkpt>
      <trkpt lat="46.02463" lon="4.75774">
        <ele>191</ele>
        <time>2018-04-21T09:32:06Z</time>
      </trkpt>
      <trkpt lat="46.0247" lon="4.7577">
        <ele>191</ele>
        <time>2018-04-21T09:32:07Z</time>
      </trkpt>
      <trkpt lat="46.02475" lon="4.75767">
        <ele>191</ele>
        <time>2018-04-21T09:32:08Z</time>
      </trkpt>
      <trkpt lat="46.02482" lon="4.75765">
        <ele>191</ele>
        <time>2018-04-21T09:32:09Z</time>
      </trkpt>
      <trkpt lat="46.02489" lon="4.75762">
        <ele>190</ele>
        <time>2018-04-21T09:32:10Z</time>
      </trkpt>
      <trkpt lat="46.02495" lon="4.75759">
        <ele>190</ele>
        <time>2018-04-21T09:32:11Z</time>
      </trkpt>
      <trkpt lat="46.02504" lon="4.75755">
        <ele>189</ele>
        <time>2018-04-21T09:32:12Z</time>
      </trkpt>
      <trkpt lat="46.02511" lon="4.75752">
        <ele>189</ele>
        <time>2018-04-21T09:32:13Z</time>
      </trkpt>
      <trkpt lat="46.0252" lon="4.7575">
        <ele>188</ele>
        <time>2018-04-21T09:32:14Z</time>
      </trkpt>
      <trkpt lat="46.02529" lon="4.75748">
        <ele>187</ele>
        <time>2018-04-21T09:32:15Z</time>
      </trkpt>
      <trkpt lat="46.02538" lon="4.75746">
        <ele>187</ele>
        <time>2018-04-21T09:32:16Z</time>
      </trkpt>
      <trkpt lat="46.02547" lon="4.75744">
        <ele>186</ele>
        <time>2018-04-21T09:32:17Z</time>
      </trkpt>
      <trkpt lat="46.02557" lon="4.75744">
        <ele>185</ele>
        <time>2018-04-21T09:32:18Z</time>
      </trkpt>
      <trkpt lat="46.02567" lon="4.75744">
        <ele>185</ele>
        <time>2018-04-21T09:32:19Z</time>
      </trkpt>
      <trkpt lat="46.02577" lon="4.75745">
        <ele>184</ele>
        <time>2018-04-21T09:32:20Z</time>
      </trkpt>
      <trkpt lat="46.02587" lon="4.75746">
        <ele>183</ele>
        <time>2018-04-21T09:32:21Z</time>
      </trkpt>
      <trkpt lat="46.02597" lon="4.75746">
        <ele>183</ele>
        <time>2018-04-21T09:32:22Z</time>
      </trkpt>
      <trkpt lat="46.02607" lon="4.75747">
        <ele>183</ele>
        <time>2018-04-21T09:32:23Z</time>
      </trkpt>
      <trkpt lat="46.02618" lon="4.75749">
        <ele>182</ele>
        <time>2018-04-21T09:32:24Z</time>
      </trkpt>
      <trkpt lat="46.02626" lon="4.7575">
        <ele>182</ele>
        <time>2018-04-21T09:32:25Z</time>
      </trkpt>
      <trkpt lat="46.02637" lon="4.75752">
        <ele>182</ele>
        <time>2018-04-21T09:32:26Z</time>
      </trkpt>
      <trkpt lat="46.02648" lon="4.75752">
        <ele>182</ele>
        <time>2018-04-21T09:32:27Z</time>
      </trkpt>
      <trkpt lat="46.02659" lon="4.75751">
        <ele>182</ele>
        <time>2018-04-21T09:32:28Z</time>
      </trkpt>
      <trkpt lat="46.02671" lon="4.7575">
        <ele>181</ele>
        <time>2018-04-21T09:32:29Z</time>
      </trkpt>
      <trkpt lat="46.02681" lon="4.75747">
        <ele>181</ele>
        <time>2018-04-21T09:32:30Z</time>
      </trkpt>
      <trkpt lat="46.02692" lon="4.75742">
        <ele>182</ele>
        <time>2018-04-21T09:32:31Z</time>
      </trkpt>
      <trkpt lat="46.02701" lon="4.75739">
        <ele>182</ele>
        <time>2018-04-21T09:32:32Z</time>
      </trkpt>
      <trkpt lat="46.0271" lon="4.75736">
        <ele>182</ele>
        <time>2018-04-21T09:32:33Z</time>
      </trkpt>
      <trkpt lat="46.0272" lon="4.75731">
        <ele>182</ele>
        <time>2018-04-21T09:32:34Z</time>
      </trkpt>
      <trkpt lat="46.02731" lon="4.75728">
        <ele>183</ele>
        <time>2018-04-21T09:32:35Z</time>
      </trkpt>
      <trkpt lat="46.0274" lon="4.75724">
        <ele>183</ele>
        <time>2018-04-21T09:32:36Z</time>
      </trkpt>
      <trkpt lat="46.02749" lon="4.75723">
        <ele>183</ele>
        <time>2018-04-21T09:32:37Z</time>
      </trkpt>
      <trkpt lat="46.02758" lon="4.75723">
        <ele>184</ele>
        <time>2018-04-21T09:32:38Z</time>
      </trkpt>
      <trkpt lat="46.02768" lon="4.75724">
        <ele>184</ele>
        <time>2018-04-21T09:32:39Z</time>
      </trkpt>
      <trkpt lat="46.02776" lon="4.75724">
        <ele>183</ele>
        <time>2018-04-21T09:32:40Z</time>
      </trkpt>
      <trkpt lat="46.02783" lon="4.75725">
        <ele>183</ele>
        <time>2018-04-21T09:32:41Z</time>
      </trkpt>
      <trkpt lat="46.02791" lon="4.75723">
        <ele>183</ele>
        <time>2018-04-21T09:32:42Z</time>
      </trkpt>
      <trkpt lat="46.02798" lon="4.75723">
        <ele>183</ele>
        <time>2018-04-21T09:32:43Z</time>
      </trkpt>
      <trkpt lat="46.02805" lon="4.75723">
        <ele>184</ele>
        <time>2018-04-21T09:32:44Z</time>
      </trkpt>
      <trkpt lat="46.02813" lon="4.75725">
        <ele>184</ele>
        <time>2018-04-21T09:32:45Z</time>
      </trkpt>
      <trkpt lat="46.02818" lon="4.75726">
        <ele>184</ele>
        <time>2018-04-21T09:32:46Z</time>
      </trkpt>
      <trkpt lat="46.02824" lon="4.75729">
        <ele>184</ele>
        <time>2018-04-21T09:32:47Z</time>
      </trkpt>
      <trkpt lat="46.02829" lon="4.75731">
        <ele>185</ele>
        <time>2018-04-21T09:32:48Z</time>
      </trkpt>
      <trkpt lat="46.02834" lon="4.7573">
        <ele>184</ele>
        <time>2018-04-21T09:32:49Z</time>
      </trkpt>
      <trkpt lat="46.0284" lon="4.75734">
        <ele>185</ele>
        <time>2018-04-21T09:32:50Z</time>
      </trkpt>
      <trkpt lat="46.02845" lon="4.75734">
        <ele>185</ele>
        <time>2018-04-21T09:32:51Z</time>
      </trkpt>
      <trkpt lat="46.02851" lon="4.75734">
        <ele>184</ele>
        <time>2018-04-21T09:32:52Z</time>
      </trkpt>
      <trkpt lat="46.02857" lon="4.75733">
        <ele>184</ele>
        <time>2018-04-21T09:32:53Z</time>
      </trkpt>
      <trkpt lat="46.02862" lon="4.75732">
        <ele>184</ele>
        <time>2018-04-21T09:32:54Z</time>
      </trkpt>
      <trkpt lat="46.02867" lon="4.75733">
        <ele>184</ele>
        <time>2018-04-21T09:32:55Z</time>
      </trkpt>
      <trkpt lat="46.02871" lon="4.75733">
        <ele>184</ele>
        <time>2018-04-21T09:32:56Z</time>
      </trkpt>
      <trkpt lat="46.02876" lon="4.75733">
        <ele>183</ele>
        <time>2018-04-21T09:32:57Z</time>
      </trkpt>
      <trkpt lat="46.0288" lon="4.75733">
        <ele>183</ele>
        <time>2018-04-21T09:32:58Z</time>
      </trkpt>
      <trkpt lat="46.02886" lon="4.75733">
        <ele>183</ele>
        <time>2018-04-21T09:32:59Z</time>
      </trkpt>
      <trkpt lat="46.02892" lon="4.75733">
        <ele>183</ele>
        <time>2018-04-21T09:33:00Z</time>
      </trkpt>
      <trkpt lat="46.02897" lon="4.75733">
        <ele>183</ele>
        <time>2018-04-21T09:33:01Z</time>
      </trkpt>
      <trkpt lat="46.02901" lon="4.75734">
        <ele>183</ele>
        <time>2018-04-21T09:33:02Z</time>
      </trkpt>
      <trkpt lat="46.02907" lon="4.75734">
        <ele>183</ele>
        <time>2018-04-21T09:33:03Z</time>
      </trkpt>
      <trkpt lat="46.02915" lon="4.75732">
        <ele>183</ele>
        <time>2018-04-21T09:33:05Z</time>
      </trkpt>
      <trkpt lat="46.02919" lon="4.75732">
        <ele>183</ele>
        <time>2018-04-21T09:33:06Z</time>
      </trkpt>
      <trkpt lat="46.02924" lon="4.75731">
        <ele>183</ele>
        <time>2018-04-21T09:33:07Z</time>
      </trkpt>
      <trkpt lat="46.0293" lon="4.75728">
        <ele>183</ele>
        <time>2018-04-21T09:33:08Z</time>
      </trkpt>
      <trkpt lat="46.02936" lon="4.75729">
        <ele>183</ele>
        <time>2018-04-21T09:33:09Z</time>
      </trkpt>
      <trkpt lat="46.0294" lon="4.75727">
        <ele>183</ele>
        <time>2018-04-21T09:33:10Z</time>
      </trkpt>
      <trkpt lat="46.02947" lon="4.75726">
        <ele>183</ele>
        <time>2018-04-21T09:33:11Z</time>
      </trkpt>
      <trkpt lat="46.02951" lon="4.75725">
        <ele>183</ele>
        <time>2018-04-21T09:33:12Z</time>
      </trkpt>
      <trkpt lat="46.02956" lon="4.75725">
        <ele>183</ele>
        <time>2018-04-21T09:33:13Z</time>
      </trkpt>
      <trkpt lat="46.02962" lon="4.75724">
        <ele>183</ele>
        <time>2018-04-21T09:33:14Z</time>
      </trkpt>
      <trkpt lat="46.0297" lon="4.75722">
        <ele>183</ele>
        <time>2018-04-21T09:33:16Z</time>
      </trkpt>
      <trkpt lat="46.02975" lon="4.75719">
        <ele>183</ele>
        <time>2018-04-21T09:33:17Z</time>
      </trkpt>
      <trkpt lat="46.02983" lon="4.75717">
        <ele>183</ele>
        <time>2018-04-21T09:33:19Z</time>
      </trkpt>
      <trkpt lat="46.02989" lon="4.75714">
        <ele>183</ele>
        <time>2018-04-21T09:33:20Z</time>
      </trkpt>
      <trkpt lat="46.02997" lon="4.75712">
        <ele>183</ele>
        <time>2018-04-21T09:33:22Z</time>
      </trkpt>
      <trkpt lat="46.03002" lon="4.7571">
        <ele>184</ele>
        <time>2018-04-21T09:33:23Z</time>
      </trkpt>
      <trkpt lat="46.03006" lon="4.75709">
        <ele>184</ele>
        <time>2018-04-21T09:33:24Z</time>
      </trkpt>
      <trkpt lat="46.03011" lon="4.75706">
        <ele>184</ele>
        <time>2018-04-21T09:33:25Z</time>
      </trkpt>
      <trkpt lat="46.03016" lon="4.75702">
        <ele>184</ele>
        <time>2018-04-21T09:33:26Z</time>
      </trkpt>
      <trkpt lat="46.03021" lon="4.757">
        <ele>184</ele>
        <time>2018-04-21T09:33:27Z</time>
      </trkpt>
      <trkpt lat="46.03027" lon="4.75697">
        <ele>184</ele>
        <time>2018-04-21T09:33:28Z</time>
      </trkpt>
      <trkpt lat="46.0303" lon="4.75698">
        <ele>184</ele>
        <time>2018-04-21T09:33:29Z</time>
      </trkpt>
      <trkpt lat="46.03035" lon="4.75697">
        <ele>184</ele>
        <time>2018-04-21T09:33:30Z</time>
      </trkpt>
      <trkpt lat="46.0304" lon="4.75696">
        <ele>184</ele>
        <time>2018-04-21T09:33:31Z</time>
      </trkpt>
      <trkpt lat="46.03049" lon="4.75694">
        <ele>184</ele>
        <time>2018-04-21T09:33:33Z</time>
      </trkpt>
      <trkpt lat="46.03053" lon="4.75693">
        <ele>184</ele>
        <time>2018-04-21T09:33:34Z</time>
      </trkpt>
      <trkpt lat="46.03057" lon="4.75692">
        <ele>184</ele>
        <time>2018-04-21T09:33:35Z</time>
      </trkpt>
      <trkpt lat="46.03062" lon="4.75689">
        <ele>184</ele>
        <time>2018-04-21T09:33:36Z</time>
      </trkpt>
      <trkpt lat="46.0307" lon="4.75689">
        <ele>184</ele>
        <time>2018-04-21T09:33:38Z</time>
      </trkpt>
      <trkpt lat="46.03076" lon="4.75688">
        <ele>184</ele>
        <time>2018-04-21T09:33:39Z</time>
      </trkpt>
      <trkpt lat="46.03081" lon="4.75686">
        <ele>184</ele>
        <time>2018-04-21T09:33:40Z</time>
      </trkpt>
      <trkpt lat="46.03085" lon="4.75685">
        <ele>185</ele>
        <time>2018-04-21T09:33:41Z</time>
      </trkpt>
      <trkpt lat="46.03091" lon="4.75684">
        <ele>185</ele>
        <time>2018-04-21T09:33:42Z</time>
      </trkpt>
      <trkpt lat="46.03095" lon="4.75683">
        <ele>185</ele>
        <time>2018-04-21T09:33:43Z</time>
      </trkpt>
      <trkpt lat="46.031" lon="4.75682">
        <ele>186</ele>
        <time>2018-04-21T09:33:44Z</time>
      </trkpt>
      <trkpt lat="46.03104" lon="4.75682">
        <ele>186</ele>
        <time>2018-04-21T09:33:45Z</time>
      </trkpt>
      <trkpt lat="46.03109" lon="4.75682">
        <ele>186</ele>
        <time>2018-04-21T09:33:46Z</time>
      </trkpt>
      <trkpt lat="46.03114" lon="4.75684">
        <ele>186</ele>
        <time>2018-04-21T09:33:47Z</time>
      </trkpt>
      <trkpt lat="46.03119" lon="4.75683">
        <ele>186</ele>
        <time>2018-04-21T09:33:48Z</time>
      </trkpt>
      <trkpt lat="46.03124" lon="4.75684">
        <ele>186</ele>
        <time>2018-04-21T09:33:49Z</time>
      </trkpt>
      <trkpt lat="46.03128" lon="4.75683">
        <ele>187</ele>
        <time>2018-04-21T09:33:50Z</time>
      </trkpt>
      <trkpt lat="46.03133" lon="4.75682">
        <ele>187</ele>
        <time>2018-04-21T09:33:51Z</time>
      </trkpt>
      <trkpt lat="46.03138" lon="4.75681">
        <ele>187</ele>
        <time>2018-04-21T09:33:52Z</time>
      </trkpt>
      <trkpt lat="46.03142" lon="4.75681">
        <ele>187</ele>
        <time>2018-04-21T09:33:53Z</time>
      </trkpt>
      <trkpt lat="46.03147" lon="4.75681">
        <ele>187</ele>
        <time>2018-04-21T09:33:54Z</time>
      </trkpt>
      <trkpt lat="46.03152" lon="4.75681">
        <ele>187</ele>
        <time>2018-04-21T09:33:55Z</time>
      </trkpt>
      <trkpt lat="46.03158" lon="4.75682">
        <ele>187</ele>
        <time>2018-04-21T09:33:56Z</time>
      </trkpt>
      <trkpt lat="46.03161" lon="4.75681">
        <ele>188</ele>
        <time>2018-04-21T09:33:57Z</time>
      </trkpt>
      <trkpt lat="46.0317" lon="4.75682">
        <ele>190</ele>
        <time>2018-04-21T09:33:59Z</time>
      </trkpt>
      <trkpt lat="46.03174" lon="4.75681">
        <ele>191</ele>
        <time>2018-04-21T09:34:00Z</time>
      </trkpt>
      <trkpt lat="46.03178" lon="4.75681">
        <ele>191</ele>
        <time>2018-04-21T09:34:01Z</time>
      </trkpt>
      <trkpt lat="46.03183" lon="4.7568">
        <ele>191</ele>
        <time>2018-04-21T09:34:02Z</time>
      </trkpt>
      <trkpt lat="46.03188" lon="4.75679">
        <ele>191</ele>
        <time>2018-04-21T09:34:03Z</time>
      </trkpt>
      <trkpt lat="46.03192" lon="4.7568">
        <ele>192</ele>
        <time>2018-04-21T09:34:04Z</time>
      </trkpt>
      <trkpt lat="46.03201" lon="4.75678">
        <ele>192</ele>
        <time>2018-04-21T09:34:06Z</time>
      </trkpt>
      <trkpt lat="46.03207" lon="4.75679">
        <ele>193</ele>
        <time>2018-04-21T09:34:07Z</time>
      </trkpt>
      <trkpt lat="46.03215" lon="4.75678">
        <ele>193</ele>
        <time>2018-04-21T09:34:09Z</time>
      </trkpt>
      <trkpt lat="46.03217" lon="4.75677">
        <ele>193</ele>
        <time>2018-04-21T09:34:10Z</time>
      </trkpt>
      <trkpt lat="46.03226" lon="4.75676">
        <ele>194</ele>
        <time>2018-04-21T09:34:12Z</time>
      </trkpt>
      <trkpt lat="46.03228" lon="4.75676">
        <ele>194</ele>
        <time>2018-04-21T09:34:13Z</time>
      </trkpt>
      <trkpt lat="46.03232" lon="4.75675">
        <ele>194</ele>
        <time>2018-04-21T09:34:15Z</time>
      </trkpt>
      <trkpt lat="46.0324" lon="4.75673">
        <ele>194</ele>
        <time>2018-04-21T09:34:16Z</time>
      </trkpt>
      <trkpt lat="46.03245" lon="4.7567">
        <ele>195</ele>
        <time>2018-04-21T09:34:17Z</time>
      </trkpt>
      <trkpt lat="46.03249" lon="4.75669">
        <ele>195</ele>
        <time>2018-04-21T09:34:18Z</time>
      </trkpt>
      <trkpt lat="46.03256" lon="4.75669">
        <ele>195</ele>
        <time>2018-04-21T09:34:21Z</time>
      </trkpt>
      <trkpt lat="46.03263" lon="4.75669">
        <ele>194</ele>
        <time>2018-04-21T09:34:22Z</time>
      </trkpt>
      <trkpt lat="46.03269" lon="4.75668">
        <ele>194</ele>
        <time>2018-04-21T09:34:24Z</time>
      </trkpt>
      <trkpt lat="46.03274" lon="4.75666">
        <ele>191</ele>
        <time>2018-04-21T09:34:25Z</time>
      </trkpt>
      <trkpt lat="46.03281" lon="4.75661">
        <ele>191</ele>
        <time>2018-04-21T09:34:28Z</time>
      </trkpt>
      <trkpt lat="46.03287" lon="4.75657">
        <ele>190</ele>
        <time>2018-04-21T09:34:29Z</time>
      </trkpt>
      <trkpt lat="46.03293" lon="4.7565">
        <ele>190</ele>
        <time>2018-04-21T09:34:31Z</time>
      </trkpt>
      <trkpt lat="46.03296" lon="4.75646">
        <ele>190</ele>
        <time>2018-04-21T09:34:32Z</time>
      </trkpt>
      <trkpt lat="46.03303" lon="4.75641">
        <ele>189</ele>
        <time>2018-04-21T09:34:34Z</time>
      </trkpt>
      <trkpt lat="46.03306" lon="4.7564">
        <ele>189</ele>
        <time>2018-04-21T09:34:35Z</time>
      </trkpt>
      <trkpt lat="46.03315" lon="4.75641">
        <ele>189</ele>
        <time>2018-04-21T09:34:37Z</time>
      </trkpt>
      <trkpt lat="46.03319" lon="4.75642">
        <ele>189</ele>
        <time>2018-04-21T09:34:38Z</time>
      </trkpt>
      <trkpt lat="46.03328" lon="4.75642">
        <ele>189</ele>
        <time>2018-04-21T09:34:40Z</time>
      </trkpt>
      <trkpt lat="46.03333" lon="4.75642">
        <ele>189</ele>
        <time>2018-04-21T09:34:41Z</time>
      </trkpt>
      <trkpt lat="46.03338" lon="4.75644">
        <ele>188</ele>
        <time>2018-04-21T09:34:42Z</time>
      </trkpt>
      <trkpt lat="46.03342" lon="4.75642">
        <ele>188</ele>
        <time>2018-04-21T09:34:43Z</time>
      </trkpt>
      <trkpt lat="46.03347" lon="4.75642">
        <ele>188</ele>
        <time>2018-04-21T09:34:44Z</time>
      </trkpt>
      <trkpt lat="46.03352" lon="4.75643">
        <ele>188</ele>
        <time>2018-04-21T09:34:45Z</time>
      </trkpt>
      <trkpt lat="46.03358" lon="4.75643">
        <ele>188</ele>
        <time>2018-04-21T09:34:46Z</time>
      </trkpt>
      <trkpt lat="46.03363" lon="4.75643">
        <ele>188</ele>
        <time>2018-04-21T09:34:47Z</time>
      </trkpt>
      <trkpt lat="46.03368" lon="4.75643">
        <ele>188</ele>
        <time>2018-04-21T09:34:48Z</time>
      </trkpt>
      <trkpt lat="46.03373" lon="4.75642">
        <ele>188</ele>
        <time>2018-04-21T09:34:49Z</time>
      </trkpt>
      <trkpt lat="46.03378" lon="4.75642">
        <ele>188</ele>
        <time>2018-04-21T09:34:50Z</time>
      </trkpt>
      <trkpt lat="46.03382" lon="4.75642">
        <ele>188</ele>
        <time>2018-04-21T09:34:51Z</time>
      </trkpt>
      <trkpt lat="46.03387" lon="4.75641">
        <ele>188</ele>
        <time>2018-04-21T09:34:52Z</time>
      </trkpt>
      <trkpt lat="46.03392" lon="4.7564">
        <ele>188</ele>
        <time>2018-04-21T09:34:53Z</time>
      </trkpt>
      <trkpt lat="46.03399" lon="4.75636">
        <ele>188</ele>
        <time>2018-04-21T09:34:55Z</time>
      </trkpt>
      <trkpt lat="46.03405" lon="4.75634">
        <ele>188</ele>
        <time>2018-04-21T09:34:56Z</time>
      </trkpt>
      <trkpt lat="46.03411" lon="4.75633">
        <ele>188</ele>
        <time>2018-04-21T09:34:57Z</time>
      </trkpt>
      <trkpt lat="46.03415" lon="4.75631">
        <ele>188</ele>
        <time>2018-04-21T09:34:58Z</time>
      </trkpt>
      <trkpt lat="46.03419" lon="4.75629">
        <ele>188</ele>
        <time>2018-04-21T09:34:59Z</time>
      </trkpt>
      <trkpt lat="46.03424" lon="4.75629">
        <ele>188</ele>
        <time>2018-04-21T09:35:00Z</time>
      </trkpt>
      <trkpt lat="46.03429" lon="4.75628">
        <ele>188</ele>
        <time>2018-04-21T09:35:01Z</time>
      </trkpt>
      <trkpt lat="46.03434" lon="4.75628">
        <ele>188</ele>
        <time>2018-04-21T09:35:02Z</time>
      </trkpt>
      <trkpt lat="46.03438" lon="4.7563">
        <ele>188</ele>
        <time>2018-04-21T09:35:03Z</time>
      </trkpt>
      <trkpt lat="46.03443" lon="4.75631">
        <ele>188</ele>
        <time>2018-04-21T09:35:04Z</time>
      </trkpt>
      <trkpt lat="46.03449" lon="4.7564">
        <ele>188</ele>
        <time>2018-04-21T09:35:06Z</time>
      </trkpt>
      <trkpt lat="46.03452" lon="4.75645">
        <ele>188</ele>
        <time>2018-04-21T09:35:07Z</time>
      </trkpt>
      <trkpt lat="46.03455" lon="4.75652">
        <ele>188</ele>
        <time>2018-04-21T09:35:08Z</time>
      </trkpt>
      <trkpt lat="46.03457" lon="4.75658">
        <ele>188</ele>
        <time>2018-04-21T09:35:09Z</time>
      </trkpt>
      <trkpt lat="46.0346" lon="4.75664">
        <ele>188</ele>
        <time>2018-04-21T09:35:10Z</time>
      </trkpt>
      <trkpt lat="46.03462" lon="4.7567">
        <ele>189</ele>
        <time>2018-04-21T09:35:11Z</time>
      </trkpt>
      <trkpt lat="46.03464" lon="4.75677">
        <ele>189</ele>
        <time>2018-04-21T09:35:12Z</time>
      </trkpt>
      <trkpt lat="46.03465" lon="4.75683">
        <ele>189</ele>
        <time>2018-04-21T09:35:13Z</time>
      </trkpt>
      <trkpt lat="46.03468" lon="4.75694">
        <ele>189</ele>
        <time>2018-04-21T09:35:15Z</time>
      </trkpt>
      <trkpt lat="46.0347" lon="4.757">
        <ele>189</ele>
        <time>2018-04-21T09:35:16Z</time>
      </trkpt>
      <trkpt lat="46.03473" lon="4.75706">
        <ele>189</ele>
        <time>2018-04-21T09:35:17Z</time>
      </trkpt>
      <trkpt lat="46.03475" lon="4.75713">
        <ele>189</ele>
        <time>2018-04-21T09:35:18Z</time>
      </trkpt>
      <trkpt lat="46.03477" lon="4.75718">
        <ele>189</ele>
        <time>2018-04-21T09:35:19Z</time>
      </trkpt>
      <trkpt lat="46.0348" lon="4.75724">
        <ele>189</ele>
        <time>2018-04-21T09:35:20Z</time>
      </trkpt>
      <trkpt lat="46.03481" lon="4.75731">
        <ele>189</ele>
        <time>2018-04-21T09:35:21Z</time>
      </trkpt>
      <trkpt lat="46.03483" lon="4.75736">
        <ele>189</ele>
        <time>2018-04-21T09:35:22Z</time>
      </trkpt>
      <trkpt lat="46.03486" lon="4.75741">
        <ele>189</ele>
        <time>2018-04-21T09:35:23Z</time>
      </trkpt>
      <trkpt lat="46.0349" lon="4.75747">
        <ele>189</ele>
        <time>2018-04-21T09:35:24Z</time>
      </trkpt>
      <trkpt lat="46.03492" lon="4.75752">
        <ele>189</ele>
        <time>2018-04-21T09:35:25Z</time>
      </trkpt>
      <trkpt lat="46.03495" lon="4.75759">
        <ele>189</ele>
        <time>2018-04-21T09:35:26Z</time>
      </trkpt>
      <trkpt lat="46.03497" lon="4.75765">
        <ele>189</ele>
        <time>2018-04-21T09:35:27Z</time>
      </trkpt>
      <trkpt lat="46.035" lon="4.7577">
        <ele>189</ele>
        <time>2018-04-21T09:35:28Z</time>
      </trkpt>
      <trkpt lat="46.03503" lon="4.75776">
        <ele>189</ele>
        <time>2018-04-21T09:35:29Z</time>
      </trkpt>
      <trkpt lat="46.03505" lon="4.75781">
        <ele>189</ele>
        <time>2018-04-21T09:35:30Z</time>
      </trkpt>
      <trkpt lat="46.03507" lon="4.75787">
        <ele>189</ele>
        <time>2018-04-21T09:35:31Z</time>
      </trkpt>
      <trkpt lat="46.0351" lon="4.75793">
        <ele>189</ele>
        <time>2018-04-21T09:35:32Z</time>
      </trkpt>
      <trkpt lat="46.03512" lon="4.75798">
        <ele>189</ele>
        <time>2018-04-21T09:35:33Z</time>
      </trkpt>
      <trkpt lat="46.03515" lon="4.75804">
        <ele>189</ele>
        <time>2018-04-21T09:35:34Z</time>
      </trkpt>
      <trkpt lat="46.03518" lon="4.75813">
        <ele>189</ele>
        <time>2018-04-21T09:35:36Z</time>
      </trkpt>
      <trkpt lat="46.0352" lon="4.75819">
        <ele>189</ele>
        <time>2018-04-21T09:35:37Z</time>
      </trkpt>
      <trkpt lat="46.03524" lon="4.75828">
        <ele>190</ele>
        <time>2018-04-21T09:35:39Z</time>
      </trkpt>
      <trkpt lat="46.03527" lon="4.75834">
        <ele>190</ele>
        <time>2018-04-21T09:35:40Z</time>
      </trkpt>
      <trkpt lat="46.03531" lon="4.75844">
        <ele>190</ele>
        <time>2018-04-21T09:35:42Z</time>
      </trkpt>
      <trkpt lat="46.03534" lon="4.75848">
        <ele>190</ele>
        <time>2018-04-21T09:35:43Z</time>
      </trkpt>
      <trkpt lat="46.03538" lon="4.75859">
        <ele>190</ele>
        <time>2018-04-21T09:35:45Z</time>
      </trkpt>
      <trkpt lat="46.03541" lon="4.75864">
        <ele>190</ele>
        <time>2018-04-21T09:35:46Z</time>
      </trkpt>
      <trkpt lat="46.03545" lon="4.75874">
        <ele>189</ele>
        <time>2018-04-21T09:35:48Z</time>
      </trkpt>
      <trkpt lat="46.03547" lon="4.75879">
        <ele>189</ele>
        <time>2018-04-21T09:35:49Z</time>
      </trkpt>
      <trkpt lat="46.03552" lon="4.75887">
        <ele>189</ele>
        <time>2018-04-21T09:35:52Z</time>
      </trkpt>
      <trkpt lat="46.03557" lon="4.75896">
        <ele>189</ele>
        <time>2018-04-21T09:35:53Z</time>
      </trkpt>
      <trkpt lat="46.03562" lon="4.75905">
        <ele>189</ele>
        <time>2018-04-21T09:35:55Z</time>
      </trkpt>
      <trkpt lat="46.03564" lon="4.7591">
        <ele>189</ele>
        <time>2018-04-21T09:35:56Z</time>
      </trkpt>
      <trkpt lat="46.03569" lon="4.75921">
        <ele>189</ele>
        <time>2018-04-21T09:35:58Z</time>
      </trkpt>
      <trkpt lat="46.03571" lon="4.75926">
        <ele>189</ele>
        <time>2018-04-21T09:35:59Z</time>
      </trkpt>
      <trkpt lat="46.03576" lon="4.75936">
        <ele>190</ele>
        <time>2018-04-21T09:36:01Z</time>
      </trkpt>
      <trkpt lat="46.03578" lon="4.75941">
        <ele>190</ele>
        <time>2018-04-21T09:36:02Z</time>
      </trkpt>
      <trkpt lat="46.03583" lon="4.75951">
        <ele>190</ele>
        <time>2018-04-21T09:36:04Z</time>
      </trkpt>
      <trkpt lat="46.03585" lon="4.75957">
        <ele>190</ele>
        <time>2018-04-21T09:36:05Z</time>
      </trkpt>
      <trkpt lat="46.03588" lon="4.75962">
        <ele>190</ele>
        <time>2018-04-21T09:36:06Z</time>
      </trkpt>
      <trkpt lat="46.0359" lon="4.75968">
        <ele>190</ele>
        <time>2018-04-21T09:36:07Z</time>
      </trkpt>
      <trkpt lat="46.03593" lon="4.75973">
        <ele>190</ele>
        <time>2018-04-21T09:36:08Z</time>
      </trkpt>
      <trkpt lat="46.03595" lon="4.7598">
        <ele>190</ele>
        <time>2018-04-21T09:36:09Z</time>
      </trkpt>
      <trkpt lat="46.03597" lon="4.7599">
        <ele>190</ele>
        <time>2018-04-21T09:36:11Z</time>
      </trkpt>
      <trkpt lat="46.03599" lon="4.75995">
        <ele>190</ele>
        <time>2018-04-21T09:36:12Z</time>
      </trkpt>
      <trkpt lat="46.03602" lon="4.76007">
        <ele>191</ele>
        <time>2018-04-21T09:36:14Z</time>
      </trkpt>
      <trkpt lat="46.03603" lon="4.76012">
        <ele>191</ele>
        <time>2018-04-21T09:36:15Z</time>
      </trkpt>
      <trkpt lat="46.03607" lon="4.76022">
        <ele>191</ele>
        <time>2018-04-21T09:36:17Z</time>
      </trkpt>
      <trkpt lat="46.03608" lon="4.76028">
        <ele>191</ele>
        <time>2018-04-21T09:36:18Z</time>
      </trkpt>
      <trkpt lat="46.03611" lon="4.76038">
        <ele>191</ele>
        <time>2018-04-21T09:36:20Z</time>
      </trkpt>
      <trkpt lat="46.03612" lon="4.76043">
        <ele>191</ele>
        <time>2018-04-21T09:36:21Z</time>
      </trkpt>
      <trkpt lat="46.03614" lon="4.76053">
        <ele>191</ele>
        <time>2018-04-21T09:36:23Z</time>
      </trkpt>
      <trkpt lat="46.03616" lon="4.76058">
        <ele>191</ele>
        <time>2018-04-21T09:36:24Z</time>
      </trkpt>
      <trkpt lat="46.03619" lon="4.76068">
        <ele>191</ele>
        <time>2018-04-21T09:36:26Z</time>
      </trkpt>
      <trkpt lat="46.0362" lon="4.76073">
        <ele>191</ele>
        <time>2018-04-21T09:36:27Z</time>
      </trkpt>
      <trkpt lat="46.03622" lon="4.76084">
        <ele>192</ele>
        <time>2018-04-21T09:36:29Z</time>
      </trkpt>
      <trkpt lat="46.03623" lon="4.7609">
        <ele>192</ele>
        <time>2018-04-21T09:36:30Z</time>
      </trkpt>
      <trkpt lat="46.03624" lon="4.76102">
        <ele>192</ele>
        <time>2018-04-21T09:36:32Z</time>
      </trkpt>
      <trkpt lat="46.03624" lon="4.76108">
        <ele>192</ele>
        <time>2018-04-21T09:36:33Z</time>
      </trkpt>
      <trkpt lat="46.03625" lon="4.76121">
        <ele>192</ele>
        <time>2018-04-21T09:36:35Z</time>
      </trkpt>
      <trkpt lat="46.03625" lon="4.76127">
        <ele>192</ele>
        <time>2018-04-21T09:36:36Z</time>
      </trkpt>
      <trkpt lat="46.03625" lon="4.76134">
        <ele>192</ele>
        <time>2018-04-21T09:36:37Z</time>
      </trkpt>
      <trkpt lat="46.03625" lon="4.76141">
        <ele>192</ele>
        <time>2018-04-21T09:36:38Z</time>
      </trkpt>
      <trkpt lat="46.03627" lon="4.76148">
        <ele>192</ele>
        <time>2018-04-21T09:36:39Z</time>
      </trkpt>
      <trkpt lat="46.03627" lon="4.76155">
        <ele>192</ele>
        <time>2018-04-21T09:36:40Z</time>
      </trkpt>
      <trkpt lat="46.03627" lon="4.76162">
        <ele>192</ele>
        <time>2018-04-21T09:36:41Z</time>
      </trkpt>
      <trkpt lat="46.03627" lon="4.76168">
        <ele>192</ele>
        <time>2018-04-21T09:36:42Z</time>
      </trkpt>
      <trkpt lat="46.03625" lon="4.7618">
        <ele>193</ele>
        <time>2018-04-21T09:36:44Z</time>
      </trkpt>
      <trkpt lat="46.03625" lon="4.76186">
        <ele>193</ele>
        <time>2018-04-21T09:36:45Z</time>
      </trkpt>
      <trkpt lat="46.03624" lon="4.76198">
        <ele>193</ele>
        <time>2018-04-21T09:36:47Z</time>
      </trkpt>
      <trkpt lat="46.03623" lon="4.76205">
        <ele>193</ele>
        <time>2018-04-21T09:36:48Z</time>
      </trkpt>
      <trkpt lat="46.03622" lon="4.76217">
        <ele>193</ele>
        <time>2018-04-21T09:36:50Z</time>
      </trkpt>
      <trkpt lat="46.0362" lon="4.76222">
        <ele>193</ele>
        <time>2018-04-21T09:36:51Z</time>
      </trkpt>
      <trkpt lat="46.03619" lon="4.76229">
        <ele>193</ele>
        <time>2018-04-21T09:36:52Z</time>
      </trkpt>
      <trkpt lat="46.03619" lon="4.76235">
        <ele>193</ele>
        <time>2018-04-21T09:36:53Z</time>
      </trkpt>
      <trkpt lat="46.03618" lon="4.76242">
        <ele>193</ele>
        <time>2018-04-21T09:36:54Z</time>
      </trkpt>
      <trkpt lat="46.03618" lon="4.76248">
        <ele>193</ele>
        <time>2018-04-21T09:36:55Z</time>
      </trkpt>
      <trkpt lat="46.03617" lon="4.76261">
        <ele>194</ele>
        <time>2018-04-21T09:36:57Z</time>
      </trkpt>
      <trkpt lat="46.03617" lon="4.76267">
        <ele>194</ele>
        <time>2018-04-21T09:36:58Z</time>
      </trkpt>
      <trkpt lat="46.03615" lon="4.76278">
        <ele>194</ele>
        <time>2018-04-21T09:37:00Z</time>
      </trkpt>
      <trkpt lat="46.03614" lon="4.76284">
        <ele>194</ele>
        <time>2018-04-21T09:37:01Z</time>
      </trkpt>
      <trkpt lat="46.03612" lon="4.76295">
        <ele>195</ele>
        <time>2018-04-21T09:37:03Z</time>
      </trkpt>
      <trkpt lat="46.03611" lon="4.76301">
        <ele>195</ele>
        <time>2018-04-21T09:37:04Z</time>
      </trkpt>
      <trkpt lat="46.0361" lon="4.76313">
        <ele>195</ele>
        <time>2018-04-21T09:37:06Z</time>
      </trkpt>
      <trkpt lat="46.0361" lon="4.76318">
        <ele>195</ele>
        <time>2018-04-21T09:37:07Z</time>
      </trkpt>
      <trkpt lat="46.03609" lon="4.76326">
        <ele>195</ele>
        <time>2018-04-21T09:37:09Z</time>
      </trkpt>
      <trkpt lat="46.03608" lon="4.76334">
        <ele>196</ele>
        <time>2018-04-21T09:37:10Z</time>
      </trkpt>
      <trkpt lat="46.03607" lon="4.76345">
        <ele>196</ele>
        <time>2018-04-21T09:37:12Z</time>
      </trkpt>
      <trkpt lat="46.03607" lon="4.7635">
        <ele>196</ele>
        <time>2018-04-21T09:37:13Z</time>
      </trkpt>
      <trkpt lat="46.03606" lon="4.7636">
        <ele>196</ele>
        <time>2018-04-21T09:37:15Z</time>
      </trkpt>
      <trkpt lat="46.03605" lon="4.76366">
        <ele>197</ele>
        <time>2018-04-21T09:37:16Z</time>
      </trkpt>
      <trkpt lat="46.03603" lon="4.76376">
        <ele>197</ele>
        <time>2018-04-21T09:37:18Z</time>
      </trkpt>
      <trkpt lat="46.03603" lon="4.76382">
        <ele>197</ele>
        <time>2018-04-21T09:37:19Z</time>
      </trkpt>
      <trkpt lat="46.03602" lon="4.76393">
        <ele>197</ele>
        <time>2018-04-21T09:37:21Z</time>
      </trkpt>
      <trkpt lat="46.03602" lon="4.76398">
        <ele>197</ele>
        <time>2018-04-21T09:37:22Z</time>
      </trkpt>
      <trkpt lat="46.03601" lon="4.76409">
        <ele>198</ele>
        <time>2018-04-21T09:37:24Z</time>
      </trkpt>
      <trkpt lat="46.03601" lon="4.76414">
        <ele>198</ele>
        <time>2018-04-21T09:37:25Z</time>
      </trkpt>
      <trkpt lat="46.036" lon="4.76426">
        <ele>199</ele>
        <time>2018-04-21T09:37:27Z</time>
      </trkpt>
      <trkpt lat="46.03599" lon="4.76431">
        <ele>199</ele>
        <time>2018-04-21T09:37:28Z</time>
      </trkpt>
      <trkpt lat="46.03598" lon="4.76443">
        <ele>199</ele>
        <time>2018-04-21T09:37:30Z</time>
      </trkpt>
      <trkpt lat="46.03597" lon="4.76449">
        <ele>199</ele>
        <time>2018-04-21T09:37:31Z</time>
      </trkpt>
      <trkpt lat="46.03596" lon="4.76461">
        <ele>199</ele>
        <time>2018-04-21T09:37:33Z</time>
      </trkpt>
      <trkpt lat="46.03596" lon="4.76464">
        <ele>199</ele>
        <time>2018-04-21T09:37:34Z</time>
      </trkpt>
      <trkpt lat="46.03597" lon="4.76472">
        <ele>199</ele>
        <time>2018-04-21T09:37:35Z</time>
      </trkpt>
      <trkpt lat="46.03599" lon="4.76477">
        <ele>199</ele>
        <time>2018-04-21T09:37:36Z</time>
      </trkpt>
      <trkpt lat="46.03602" lon="4.76482">
        <ele>199</ele>
        <time>2018-04-21T09:37:37Z</time>
      </trkpt>
      <trkpt lat="46.03606" lon="4.76487">
        <ele>199</ele>
        <time>2018-04-21T09:37:38Z</time>
      </trkpt>
      <trkpt lat="46.03612" lon="4.76493">
        <ele>199</ele>
        <time>2018-04-21T09:37:40Z</time>
      </trkpt>
      <trkpt lat="46.03617" lon="4.76499">
        <ele>199</ele>
        <time>2018-04-21T09:37:41Z</time>
      </trkpt>
      <trkpt lat="46.03621" lon="4.76504">
        <ele>200</ele>
        <time>2018-04-21T09:37:42Z</time>
      </trkpt>
      <trkpt lat="46.03624" lon="4.76508">
        <ele>200</ele>
        <time>2018-04-21T09:37:43Z</time>
      </trkpt>
      <trkpt lat="46.03629" lon="4.76517">
        <ele>200</ele>
        <time>2018-04-21T09:37:45Z</time>
      </trkpt>
      <trkpt lat="46.03631" lon="4.76522">
        <ele>200</ele>
        <time>2018-04-21T09:37:46Z</time>
      </trkpt>
      <trkpt lat="46.03636" lon="4.76532">
        <ele>200</ele>
        <time>2018-04-21T09:37:48Z</time>
      </trkpt>
      <trkpt lat="46.03638" lon="4.76536">
        <ele>200</ele>
        <time>2018-04-21T09:37:49Z</time>
      </trkpt>
      <trkpt lat="46.03642" lon="4.76546">
        <ele>200</ele>
        <time>2018-04-21T09:37:51Z</time>
      </trkpt>
      <trkpt lat="46.03644" lon="4.76552">
        <ele>201</ele>
        <time>2018-04-21T09:37:52Z</time>
      </trkpt>
      <trkpt lat="46.03647" lon="4.76562">
        <ele>201</ele>
        <time>2018-04-21T09:37:54Z</time>
      </trkpt>
      <trkpt lat="46.03649" lon="4.76567">
        <ele>201</ele>
        <time>2018-04-21T09:37:55Z</time>
      </trkpt>
      <trkpt lat="46.03654" lon="4.76576">
        <ele>201</ele>
        <time>2018-04-21T09:37:57Z</time>
      </trkpt>
      <trkpt lat="46.03657" lon="4.76581">
        <ele>201</ele>
        <time>2018-04-21T09:37:58Z</time>
      </trkpt>
      <trkpt lat="46.03663" lon="4.76588">
        <ele>202</ele>
        <time>2018-04-21T09:38:00Z</time>
      </trkpt>
      <trkpt lat="46.03665" lon="4.76589">
        <ele>202</ele>
        <time>2018-04-21T09:38:01Z</time>
      </trkpt>
      <trkpt lat="46.03672" lon="4.76595">
        <ele>203</ele>
        <time>2018-04-21T09:38:04Z</time>
      </trkpt>
      <trkpt lat="46.03674" lon="4.76598">
        <ele>203</ele>
        <time>2018-04-21T09:38:05Z</time>
      </trkpt>
      <trkpt lat="46.03678" lon="4.76605">
        <ele>203</ele>
        <time>2018-04-21T09:38:07Z</time>
      </trkpt>
      <trkpt lat="46.0368" lon="4.76609">
        <ele>203</ele>
        <time>2018-04-21T09:38:08Z</time>
      </trkpt>
      <trkpt lat="46.03682" lon="4.76618">
        <ele>203</ele>
        <time>2018-04-21T09:38:10Z</time>
      </trkpt>
      <trkpt lat="46.03683" lon="4.76623">
        <ele>203</ele>
        <time>2018-04-21T09:38:11Z</time>
      </trkpt>
      <trkpt lat="46.03684" lon="4.76633">
        <ele>203</ele>
        <time>2018-04-21T09:38:13Z</time>
      </trkpt>
      <trkpt lat="46.03685" lon="4.76647">
        <ele>204</ele>
        <time>2018-04-21T09:38:14Z</time>
      </trkpt>
      <trkpt lat="46.03686" lon="4.76656">
        <ele>204</ele>
        <time>2018-04-21T09:38:17Z</time>
      </trkpt>
      <trkpt lat="46.03687" lon="4.7666">
        <ele>204</ele>
        <time>2018-04-21T09:38:18Z</time>
      </trkpt>
      <trkpt lat="46.03692" lon="4.7667">
        <ele>205</ele>
        <time>2018-04-21T09:38:19Z</time>
      </trkpt>
      <trkpt lat="46.03695" lon="4.76674">
        <ele>205</ele>
        <time>2018-04-21T09:38:20Z</time>
      </trkpt>
      <trkpt lat="46.03701" lon="4.7668">
        <ele>205</ele>
        <time>2018-04-21T09:38:22Z</time>
      </trkpt>
      <trkpt lat="46.03702" lon="4.76682">
        <ele>205</ele>
        <time>2018-04-21T09:38:23Z</time>
      </trkpt>
      <trkpt lat="46.03708" lon="4.76687">
        <ele>205</ele>
        <time>2018-04-21T09:38:26Z</time>
      </trkpt>
      <trkpt lat="46.03715" lon="4.76692">
        <ele>205</ele>
        <time>2018-04-21T09:38:27Z</time>
      </trkpt>
      <trkpt lat="46.03722" lon="4.76696">
        <ele>205</ele>
        <time>2018-04-21T09:38:30Z</time>
      </trkpt>
      <trkpt lat="46.03725" lon="4.76697">
        <ele>205</ele>
        <time>2018-04-21T09:38:31Z</time>
      </trkpt>
      <trkpt lat="46.03732" lon="4.76698">
        <ele>205</ele>
        <time>2018-04-21T09:38:34Z</time>
      </trkpt>
      <trkpt lat="46.03735" lon="4.76699">
        <ele>205</ele>
        <time>2018-04-21T09:38:35Z</time>
      </trkpt>
      <trkpt lat="46.03744" lon="4.76701">
        <ele>205</ele>
        <time>2018-04-21T09:38:36Z</time>
      </trkpt>
      <trkpt lat="46.03748" lon="4.76702">
        <ele>205</ele>
        <time>2018-04-21T09:38:37Z</time>
      </trkpt>
      <trkpt lat="46.03755" lon="4.76704">
        <ele>205</ele>
        <time>2018-04-21T09:38:39Z</time>
      </trkpt>
      <trkpt lat="46.03757" lon="4.76705">
        <ele>205</ele>
        <time>2018-04-21T09:38:40Z</time>
      </trkpt>
      <trkpt lat="46.03764" lon="4.7671">
        <ele>205</ele>
        <time>2018-04-21T09:38:43Z</time>
      </trkpt>
      <trkpt lat="46.03767" lon="4.76711">
        <ele>205</ele>
        <time>2018-04-21T09:38:44Z</time>
      </trkpt>
      <trkpt lat="46.0377" lon="4.76711">
        <ele>205</ele>
        <time>2018-04-21T09:38:45Z</time>
      </trkpt>
      <trkpt lat="46.03779" lon="4.76713">
        <ele>205</ele>
        <time>2018-04-21T09:38:46Z</time>
      </trkpt>
      <trkpt lat="46.03787" lon="4.76713">
        <ele>205</ele>
        <time>2018-04-21T09:38:48Z</time>
      </trkpt>
      <trkpt lat="46.0379" lon="4.76713">
        <ele>205</ele>
        <time>2018-04-21T09:38:49Z</time>
      </trkpt>
      <trkpt lat="46.03798" lon="4.76712">
        <ele>205</ele>
        <time>2018-04-21T09:38:51Z</time>
      </trkpt>
      <trkpt lat="46.03802" lon="4.76711">
        <ele>205</ele>
        <time>2018-04-21T09:38:52Z</time>
      </trkpt>
      <trkpt lat="46.03807" lon="4.76711">
        <ele>205</ele>
        <time>2018-04-21T09:38:53Z</time>
      </trkpt>
      <trkpt lat="46.03811" lon="4.76711">
        <ele>205</ele>
        <time>2018-04-21T09:38:54Z</time>
      </trkpt>
      <trkpt lat="46.03816" lon="4.7671">
        <ele>205</ele>
        <time>2018-04-21T09:38:55Z</time>
      </trkpt>
      <trkpt lat="46.03822" lon="4.76712">
        <ele>205</ele>
        <time>2018-04-21T09:38:56Z</time>
      </trkpt>
      <trkpt lat="46.0383" lon="4.76713">
        <ele>205</ele>
        <time>2018-04-21T09:38:58Z</time>
      </trkpt>
      <trkpt lat="46.03834" lon="4.76713">
        <ele>205</ele>
        <time>2018-04-21T09:38:59Z</time>
      </trkpt>
      <trkpt lat="46.03839" lon="4.76713">
        <ele>205</ele>
        <time>2018-04-21T09:39:00Z</time>
      </trkpt>
      <trkpt lat="46.03844" lon="4.76712">
        <ele>205</ele>
        <time>2018-04-21T09:39:01Z</time>
      </trkpt>
      <trkpt lat="46.03849" lon="4.76711">
        <ele>205</ele>
        <time>2018-04-21T09:39:02Z</time>
      </trkpt>
      <trkpt lat="46.03853" lon="4.7671">
        <ele>205</ele>
        <time>2018-04-21T09:39:03Z</time>
      </trkpt>
      <trkpt lat="46.03857" lon="4.7671">
        <ele>205</ele>
        <time>2018-04-21T09:39:04Z</time>
      </trkpt>
      <trkpt lat="46.03863" lon="4.76709">
        <ele>205</ele>
        <time>2018-04-21T09:39:05Z</time>
      </trkpt>
      <trkpt lat="46.03867" lon="4.76708">
        <ele>205</ele>
        <time>2018-04-21T09:39:06Z</time>
      </trkpt>
      <trkpt lat="46.03872" lon="4.76707">
        <ele>205</ele>
        <time>2018-04-21T09:39:07Z</time>
      </trkpt>
      <trkpt lat="46.03877" lon="4.76706">
        <ele>205</ele>
        <time>2018-04-21T09:39:08Z</time>
      </trkpt>
      <trkpt lat="46.03882" lon="4.76704">
        <ele>205</ele>
        <time>2018-04-21T09:39:09Z</time>
      </trkpt>
      <trkpt lat="46.03888" lon="4.76702">
        <ele>205</ele>
        <time>2018-04-21T09:39:10Z</time>
      </trkpt>
      <trkpt lat="46.03893" lon="4.76701">
        <ele>205</ele>
        <time>2018-04-21T09:39:11Z</time>
      </trkpt>
      <trkpt lat="46.03898" lon="4.767">
        <ele>205</ele>
        <time>2018-04-21T09:39:12Z</time>
      </trkpt>
      <trkpt lat="46.03905" lon="4.76699">
        <ele>205</ele>
        <time>2018-04-21T09:39:13Z</time>
      </trkpt>
      <trkpt lat="46.03919" lon="4.76694">
        <ele>204</ele>
        <time>2018-04-21T09:39:16Z</time>
      </trkpt>
      <trkpt lat="46.03923" lon="4.76692">
        <ele>204</ele>
        <time>2018-04-21T09:39:17Z</time>
      </trkpt>
      <trkpt lat="46.03929" lon="4.7669">
        <ele>204</ele>
        <time>2018-04-21T09:39:18Z</time>
      </trkpt>
      <trkpt lat="46.03934" lon="4.76689">
        <ele>204</ele>
        <time>2018-04-21T09:39:19Z</time>
      </trkpt>
      <trkpt lat="46.03939" lon="4.76687">
        <ele>204</ele>
        <time>2018-04-21T09:39:20Z</time>
      </trkpt>
      <trkpt lat="46.03944" lon="4.76685">
        <ele>204</ele>
        <time>2018-04-21T09:39:21Z</time>
      </trkpt>
      <trkpt lat="46.03948" lon="4.76684">
        <ele>204</ele>
        <time>2018-04-21T09:39:22Z</time>
      </trkpt>
      <trkpt lat="46.03953" lon="4.76683">
        <ele>204</ele>
        <time>2018-04-21T09:39:23Z</time>
      </trkpt>
      <trkpt lat="46.03958" lon="4.76682">
        <ele>204</ele>
        <time>2018-04-21T09:39:24Z</time>
      </trkpt>
      <trkpt lat="46.03964" lon="4.7668">
        <ele>203</ele>
        <time>2018-04-21T09:39:25Z</time>
      </trkpt>
      <trkpt lat="46.03969" lon="4.7668">
        <ele>203</ele>
        <time>2018-04-21T09:39:26Z</time>
      </trkpt>
      <trkpt lat="46.03971" lon="4.76681">
        <ele>203</ele>
        <time>2018-04-21T09:39:27Z</time>
      </trkpt>
      <trkpt lat="46.03979" lon="4.76677">
        <ele>203</ele>
        <time>2018-04-21T09:39:28Z</time>
      </trkpt>
      <trkpt lat="46.03986" lon="4.76676">
        <ele>203</ele>
        <time>2018-04-21T09:39:29Z</time>
      </trkpt>
      <trkpt lat="46.03991" lon="4.76675">
        <ele>203</ele>
        <time>2018-04-21T09:39:30Z</time>
      </trkpt>
      <trkpt lat="46.03999" lon="4.76672">
        <ele>202</ele>
        <time>2018-04-21T09:39:32Z</time>
      </trkpt>
      <trkpt lat="46.04003" lon="4.76672">
        <ele>202</ele>
        <time>2018-04-21T09:39:33Z</time>
      </trkpt>
      <trkpt lat="46.04007" lon="4.76671">
        <ele>202</ele>
        <time>2018-04-21T09:39:34Z</time>
      </trkpt>
      <trkpt lat="46.04012" lon="4.76669">
        <ele>202</ele>
        <time>2018-04-21T09:39:35Z</time>
      </trkpt>
      <trkpt lat="46.04016" lon="4.76668">
        <ele>202</ele>
        <time>2018-04-21T09:39:37Z</time>
      </trkpt>
      <trkpt lat="46.04022" lon="4.76666">
        <ele>201</ele>
        <time>2018-04-21T09:39:38Z</time>
      </trkpt>
      <trkpt lat="46.0403" lon="4.76664">
        <ele>201</ele>
        <time>2018-04-21T09:39:40Z</time>
      </trkpt>
      <trkpt lat="46.04034" lon="4.76663">
        <ele>201</ele>
        <time>2018-04-21T09:39:41Z</time>
      </trkpt>
      <trkpt lat="46.0404" lon="4.76664">
        <ele>201</ele>
        <time>2018-04-21T09:39:42Z</time>
      </trkpt>
      <trkpt lat="46.04046" lon="4.76663">
        <ele>201</ele>
        <time>2018-04-21T09:39:43Z</time>
      </trkpt>
      <trkpt lat="46.04051" lon="4.76662">
        <ele>201</ele>
        <time>2018-04-21T09:39:44Z</time>
      </trkpt>
      <trkpt lat="46.04056" lon="4.76661">
        <ele>201</ele>
        <time>2018-04-21T09:39:45Z</time>
      </trkpt>
      <trkpt lat="46.04061" lon="4.76661">
        <ele>201</ele>
        <time>2018-04-21T09:39:46Z</time>
      </trkpt>
      <trkpt lat="46.04065" lon="4.76661">
        <ele>201</ele>
        <time>2018-04-21T09:39:47Z</time>
      </trkpt>
      <trkpt lat="46.0407" lon="4.76661">
        <ele>201</ele>
        <time>2018-04-21T09:39:48Z</time>
      </trkpt>
      <trkpt lat="46.04074" lon="4.7666">
        <ele>202</ele>
        <time>2018-04-21T09:39:49Z</time>
      </trkpt>
      <trkpt lat="46.04082" lon="4.76658">
        <ele>202</ele>
        <time>2018-04-21T09:39:50Z</time>
      </trkpt>
      <trkpt lat="46.04087" lon="4.76658">
        <ele>201</ele>
        <time>2018-04-21T09:39:51Z</time>
      </trkpt>
      <trkpt lat="46.04093" lon="4.76658">
        <ele>201</ele>
        <time>2018-04-21T09:39:52Z</time>
      </trkpt>
      <trkpt lat="46.04099" lon="4.76658">
        <ele>201</ele>
        <time>2018-04-21T09:39:53Z</time>
      </trkpt>
      <trkpt lat="46.04105" lon="4.76655">
        <ele>201</ele>
        <time>2018-04-21T09:39:54Z</time>
      </trkpt>
      <trkpt lat="46.04111" lon="4.76654">
        <ele>200</ele>
        <time>2018-04-21T09:39:55Z</time>
      </trkpt>
      <trkpt lat="46.04116" lon="4.76651">
        <ele>200</ele>
        <time>2018-04-21T09:39:56Z</time>
      </trkpt>
      <trkpt lat="46.04122" lon="4.76649">
        <ele>200</ele>
        <time>2018-04-21T09:39:57Z</time>
      </trkpt>
      <trkpt lat="46.04129" lon="4.76647">
        <ele>200</ele>
        <time>2018-04-21T09:39:58Z</time>
      </trkpt>
      <trkpt lat="46.04135" lon="4.76644">
        <ele>200</ele>
        <time>2018-04-21T09:39:59Z</time>
      </trkpt>
      <trkpt lat="46.0414" lon="4.7664">
        <ele>200</ele>
        <time>2018-04-21T09:40:00Z</time>
      </trkpt>
      <trkpt lat="46.04146" lon="4.76637">
        <ele>200</ele>
        <time>2018-04-21T09:40:01Z</time>
      </trkpt>
      <trkpt lat="46.04152" lon="4.76634">
        <ele>200</ele>
        <time>2018-04-21T09:40:02Z</time>
      </trkpt>
      <trkpt lat="46.04157" lon="4.76628">
        <ele>200</ele>
        <time>2018-04-21T09:40:03Z</time>
      </trkpt>
      <trkpt lat="46.04162" lon="4.76625">
        <ele>199</ele>
        <time>2018-04-21T09:40:04Z</time>
      </trkpt>
      <trkpt lat="46.04167" lon="4.7662">
        <ele>198</ele>
        <time>2018-04-21T09:40:05Z</time>
      </trkpt>
      <trkpt lat="46.0417" lon="4.76614">
        <ele>198</ele>
        <time>2018-04-21T09:40:06Z</time>
      </trkpt>
      <trkpt lat="46.04176" lon="4.76609">
        <ele>198</ele>
        <time>2018-04-21T09:40:07Z</time>
      </trkpt>
      <trkpt lat="46.04182" lon="4.76605">
        <ele>198</ele>
        <time>2018-04-21T09:40:08Z</time>
      </trkpt>
      <trkpt lat="46.04188" lon="4.766">
        <ele>198</ele>
        <time>2018-04-21T09:40:09Z</time>
      </trkpt>
      <trkpt lat="46.04194" lon="4.76596">
        <ele>198</ele>
        <time>2018-04-21T09:40:10Z</time>
      </trkpt>
      <trkpt lat="46.042" lon="4.76593">
        <ele>198</ele>
        <time>2018-04-21T09:40:11Z</time>
      </trkpt>
      <trkpt lat="46.04206" lon="4.76592">
        <ele>198</ele>
        <time>2018-04-21T09:40:12Z</time>
      </trkpt>
      <trkpt lat="46.04213" lon="4.76589">
        <ele>198</ele>
        <time>2018-04-21T09:40:13Z</time>
      </trkpt>
      <trkpt lat="46.0422" lon="4.76589">
        <ele>198</ele>
        <time>2018-04-21T09:40:14Z</time>
      </trkpt>
      <trkpt lat="46.04227" lon="4.76587">
        <ele>198</ele>
        <time>2018-04-21T09:40:15Z</time>
      </trkpt>
      <trkpt lat="46.04235" lon="4.76586">
        <ele>197</ele>
        <time>2018-04-21T09:40:16Z</time>
      </trkpt>
      <trkpt lat="46.04241" lon="4.76584">
        <ele>197</ele>
        <time>2018-04-21T09:40:17Z</time>
      </trkpt>
      <trkpt lat="46.04248" lon="4.76586">
        <ele>197</ele>
        <time>2018-04-21T09:40:18Z</time>
      </trkpt>
      <trkpt lat="46.04255" lon="4.76585">
        <ele>197</ele>
        <time>2018-04-21T09:40:19Z</time>
      </trkpt>
      <trkpt lat="46.04263" lon="4.76584">
        <ele>197</ele>
        <time>2018-04-21T09:40:20Z</time>
      </trkpt>
      <trkpt lat="46.0427" lon="4.76584">
        <ele>197</ele>
        <time>2018-04-21T09:40:21Z</time>
      </trkpt>
      <trkpt lat="46.04277" lon="4.76583">
        <ele>197</ele>
        <time>2018-04-21T09:40:22Z</time>
      </trkpt>
      <trkpt lat="46.04284" lon="4.76583">
        <ele>197</ele>
        <time>2018-04-21T09:40:23Z</time>
      </trkpt>
      <trkpt lat="46.04291" lon="4.76584">
        <ele>198</ele>
        <time>2018-04-21T09:40:24Z</time>
      </trkpt>
      <trkpt lat="46.04298" lon="4.76586">
        <ele>198</ele>
        <time>2018-04-21T09:40:25Z</time>
      </trkpt>
      <trkpt lat="46.04305" lon="4.76586">
        <ele>198</ele>
        <time>2018-04-21T09:40:26Z</time>
      </trkpt>
      <trkpt lat="46.04312" lon="4.76585">
        <ele>198</ele>
        <time>2018-04-21T09:40:27Z</time>
      </trkpt>
      <trkpt lat="46.04319" lon="4.76586">
        <ele>198</ele>
        <time>2018-04-21T09:40:28Z</time>
      </trkpt>
      <trkpt lat="46.04326" lon="4.76587">
        <ele>199</ele>
        <time>2018-04-21T09:40:29Z</time>
      </trkpt>
      <trkpt lat="46.04333" lon="4.76588">
        <ele>199</ele>
        <time>2018-04-21T09:40:30Z</time>
      </trkpt>
      <trkpt lat="46.04341" lon="4.76581">
        <ele>198</ele>
        <time>2018-04-21T09:40:31Z</time>
      </trkpt>
      <trkpt lat="46.0435" lon="4.76581">
        <ele>198</ele>
        <time>2018-04-21T09:40:32Z</time>
      </trkpt>
      <trkpt lat="46.04358" lon="4.76579">
        <ele>198</ele>
        <time>2018-04-21T09:40:33Z</time>
      </trkpt>
      <trkpt lat="46.04367" lon="4.76579">
        <ele>197</ele>
        <time>2018-04-21T09:40:34Z</time>
      </trkpt>
      <trkpt lat="46.04376" lon="4.76577">
        <ele>197</ele>
        <time>2018-04-21T09:40:35Z</time>
      </trkpt>
      <trkpt lat="46.04383" lon="4.76576">
        <ele>197</ele>
        <time>2018-04-21T09:40:36Z</time>
      </trkpt>
      <trkpt lat="46.0439" lon="4.76575">
        <ele>197</ele>
        <time>2018-04-21T09:40:37Z</time>
      </trkpt>
      <trkpt lat="46.04399" lon="4.76574">
        <ele>198</ele>
        <time>2018-04-21T09:40:38Z</time>
      </trkpt>
      <trkpt lat="46.04408" lon="4.76573">
        <ele>198</ele>
        <time>2018-04-21T09:40:39Z</time>
      </trkpt>
      <trkpt lat="46.04414" lon="4.76573">
        <ele>198</ele>
        <time>2018-04-21T09:40:40Z</time>
      </trkpt>
      <trkpt lat="46.04423" lon="4.7657">
        <ele>197</ele>
        <time>2018-04-21T09:40:41Z</time>
      </trkpt>
      <trkpt lat="46.04429" lon="4.7657">
        <ele>196</ele>
        <time>2018-04-21T09:40:42Z</time>
      </trkpt>
      <trkpt lat="46.04436" lon="4.7657">
        <ele>196</ele>
        <time>2018-04-21T09:40:43Z</time>
      </trkpt>
      <trkpt lat="46.04444" lon="4.76569">
        <ele>195</ele>
        <time>2018-04-21T09:40:44Z</time>
      </trkpt>
      <trkpt lat="46.04453" lon="4.76567">
        <ele>194</ele>
        <time>2018-04-21T09:40:45Z</time>
      </trkpt>
      <trkpt lat="46.04459" lon="4.76567">
        <ele>194</ele>
        <time>2018-04-21T09:40:46Z</time>
      </trkpt>
      <trkpt lat="46.04466" lon="4.76567">
        <ele>193</ele>
        <time>2018-04-21T09:40:47Z</time>
      </trkpt>
      <trkpt lat="46.04475" lon="4.76566">
        <ele>193</ele>
        <time>2018-04-21T09:40:48Z</time>
      </trkpt>
      <trkpt lat="46.04481" lon="4.76566">
        <ele>193</ele>
        <time>2018-04-21T09:40:49Z</time>
      </trkpt>
      <trkpt lat="46.04489" lon="4.76566">
        <ele>192</ele>
        <time>2018-04-21T09:40:50Z</time>
      </trkpt>
      <trkpt lat="46.04496" lon="4.76565">
        <ele>192</ele>
        <time>2018-04-21T09:40:51Z</time>
      </trkpt>
      <trkpt lat="46.04502" lon="4.76565">
        <ele>190</ele>
        <time>2018-04-21T09:40:52Z</time>
      </trkpt>
      <trkpt lat="46.04508" lon="4.76564">
        <ele>189</ele>
        <time>2018-04-21T09:40:53Z</time>
      </trkpt>
      <trkpt lat="46.04515" lon="4.76563">
        <ele>189</ele>
        <time>2018-04-21T09:40:55Z</time>
      </trkpt>
      <trkpt lat="46.04517" lon="4.76563">
        <ele>189</ele>
        <time>2018-04-21T09:40:56Z</time>
      </trkpt>
      <trkpt lat="46.04523" lon="4.76562">
        <ele>189</ele>
        <time>2018-04-21T09:40:59Z</time>
      </trkpt>
      <trkpt lat="46.0453" lon="4.76561">
        <ele>189</ele>
        <time>2018-04-21T09:41:00Z</time>
      </trkpt>
      <trkpt lat="46.04534" lon="4.76561">
        <ele>188</ele>
        <time>2018-04-21T09:41:01Z</time>
      </trkpt>
      <trkpt lat="46.04539" lon="4.76559">
        <ele>188</ele>
        <time>2018-04-21T09:41:02Z</time>
      </trkpt>
      <trkpt lat="46.04544" lon="4.76558">
        <ele>188</ele>
        <time>2018-04-21T09:41:03Z</time>
      </trkpt>
      <trkpt lat="46.0455" lon="4.76556">
        <ele>188</ele>
        <time>2018-04-21T09:41:04Z</time>
      </trkpt>
      <trkpt lat="46.04556" lon="4.76553">
        <ele>188</ele>
        <time>2018-04-21T09:41:05Z</time>
      </trkpt>
      <trkpt lat="46.04562" lon="4.7655">
        <ele>187</ele>
        <time>2018-04-21T09:41:06Z</time>
      </trkpt>
      <trkpt lat="46.04567" lon="4.76547">
        <ele>187</ele>
        <time>2018-04-21T09:41:07Z</time>
      </trkpt>
      <trkpt lat="46.04572" lon="4.76545">
        <ele>187</ele>
        <time>2018-04-21T09:41:08Z</time>
      </trkpt>
      <trkpt lat="46.04578" lon="4.76543">
        <ele>187</ele>
        <time>2018-04-21T09:41:09Z</time>
      </trkpt>
      <trkpt lat="46.04584" lon="4.7654">
        <ele>186</ele>
        <time>2018-04-21T09:41:10Z</time>
      </trkpt>
      <trkpt lat="46.04589" lon="4.76539">
        <ele>186</ele>
        <time>2018-04-21T09:41:11Z</time>
      </trkpt>
      <trkpt lat="46.04594" lon="4.76536">
        <ele>186</ele>
        <time>2018-04-21T09:41:12Z</time>
      </trkpt>
      <trkpt lat="46.04601" lon="4.76533">
        <ele>186</ele>
        <time>2018-04-21T09:41:13Z</time>
      </trkpt>
      <trkpt lat="46.04607" lon="4.7653">
        <ele>186</ele>
        <time>2018-04-21T09:41:14Z</time>
      </trkpt>
      <trkpt lat="46.04613" lon="4.76528">
        <ele>186</ele>
        <time>2018-04-21T09:41:15Z</time>
      </trkpt>
      <trkpt lat="46.04618" lon="4.76525">
        <ele>186</ele>
        <time>2018-04-21T09:41:16Z</time>
      </trkpt>
      <trkpt lat="46.04624" lon="4.76523">
        <ele>186</ele>
        <time>2018-04-21T09:41:17Z</time>
      </trkpt>
      <trkpt lat="46.04629" lon="4.76521">
        <ele>186</ele>
        <time>2018-04-21T09:41:18Z</time>
      </trkpt>
      <trkpt lat="46.04634" lon="4.76518">
        <ele>186</ele>
        <time>2018-04-21T09:41:19Z</time>
      </trkpt>
      <trkpt lat="46.04639" lon="4.76515">
        <ele>186</ele>
        <time>2018-04-21T09:41:20Z</time>
      </trkpt>
      <trkpt lat="46.04644" lon="4.76512">
        <ele>186</ele>
        <time>2018-04-21T09:41:21Z</time>
      </trkpt>
      <trkpt lat="46.0465" lon="4.7651">
        <ele>186</ele>
        <time>2018-04-21T09:41:22Z</time>
      </trkpt>
      <trkpt lat="46.04655" lon="4.76508">
        <ele>186</ele>
        <time>2018-04-21T09:41:23Z</time>
      </trkpt>
      <trkpt lat="46.0466" lon="4.76508">
        <ele>186</ele>
        <time>2018-04-21T09:41:24Z</time>
      </trkpt>
      <trkpt lat="46.04668" lon="4.76504">
        <ele>186</ele>
        <time>2018-04-21T09:41:28Z</time>
      </trkpt>
      <trkpt lat="46.04669" lon="4.76503">
        <ele>186</ele>
        <time>2018-04-21T09:41:29Z</time>
      </trkpt>
      <trkpt lat="46.04671" lon="4.76491">
        <ele>187</ele>
        <time>2018-04-21T09:41:45Z</time>
      </trkpt>
      <trkpt lat="46.04672" lon="4.7649">
        <ele>187</ele>
        <time>2018-04-21T09:41:46Z</time>
      </trkpt>
      <trkpt lat="46.0468" lon="4.76488">
        <ele>187</ele>
        <time>2018-04-21T09:41:52Z</time>
      </trkpt>
      <trkpt lat="46.04683" lon="4.7649">
        <ele>187</ele>
        <time>2018-04-21T09:41:53Z</time>
      </trkpt>
      <trkpt lat="46.04689" lon="4.76493">
        <ele>188</ele>
        <time>2018-04-21T09:41:55Z</time>
      </trkpt>
      <trkpt lat="46.04692" lon="4.76494">
        <ele>188</ele>
        <time>2018-04-21T09:41:56Z</time>
      </trkpt>
      <trkpt lat="46.04698" lon="4.76494">
        <ele>188</ele>
        <time>2018-04-21T09:41:58Z</time>
      </trkpt>
      <trkpt lat="46.04702" lon="4.76493">
        <ele>188</ele>
        <time>2018-04-21T09:41:59Z</time>
      </trkpt>
      <trkpt lat="46.04712" lon="4.7649">
        <ele>189</ele>
        <time>2018-04-21T09:42:00Z</time>
      </trkpt>
      <trkpt lat="46.0472" lon="4.76487">
        <ele>189</ele>
        <time>2018-04-21T09:42:02Z</time>
      </trkpt>
      <trkpt lat="46.04723" lon="4.76486">
        <ele>189</ele>
        <time>2018-04-21T09:42:03Z</time>
      </trkpt>
      <trkpt lat="46.0473" lon="4.76483">
        <ele>189</ele>
        <time>2018-04-21T09:42:07Z</time>
      </trkpt>
      <trkpt lat="46.04733" lon="4.76482">
        <ele>190</ele>
        <time>2018-04-21T09:42:08Z</time>
      </trkpt>
      <trkpt lat="46.0474" lon="4.76481">
        <ele>190</ele>
        <time>2018-04-21T09:42:09Z</time>
      </trkpt>
      <trkpt lat="46.04742" lon="4.7648">
        <ele>190</ele>
        <time>2018-04-21T09:42:10Z</time>
      </trkpt>
      <trkpt lat="46.04748" lon="4.76478">
        <ele>190</ele>
        <time>2018-04-21T09:42:13Z</time>
      </trkpt>
      <trkpt lat="46.04751" lon="4.76477">
        <ele>192</ele>
        <time>2018-04-21T09:42:14Z</time>
      </trkpt>
      <trkpt lat="46.04759" lon="4.76475">
        <ele>192</ele>
        <time>2018-04-21T09:42:17Z</time>
      </trkpt>
      <trkpt lat="46.04761" lon="4.76474">
        <ele>192</ele>
        <time>2018-04-21T09:42:18Z</time>
      </trkpt>
      <trkpt lat="46.0477" lon="4.76473">
        <ele>192</ele>
        <time>2018-04-21T09:42:19Z</time>
      </trkpt>
      <trkpt lat="46.04772" lon="4.76472">
        <ele>192</ele>
        <time>2018-04-21T09:42:20Z</time>
      </trkpt>
      <trkpt lat="46.04774" lon="4.76471">
        <ele>192</ele>
        <time>2018-04-21T09:42:21Z</time>
      </trkpt>
      <trkpt lat="46.04781" lon="4.76467">
        <ele>192</ele>
        <time>2018-04-21T09:42:22Z</time>
      </trkpt>
      <trkpt lat="46.04787" lon="4.76463">
        <ele>192</ele>
        <time>2018-04-21T09:42:24Z</time>
      </trkpt>
      <trkpt lat="46.04791" lon="4.7646">
        <ele>192</ele>
        <time>2018-04-21T09:42:25Z</time>
      </trkpt>
      <trkpt lat="46.04797" lon="4.76455">
        <ele>193</ele>
        <time>2018-04-21T09:42:27Z</time>
      </trkpt>
      <trkpt lat="46.04801" lon="4.76452">
        <ele>193</ele>
        <time>2018-04-21T09:42:28Z</time>
      </trkpt>
      <trkpt lat="46.04804" lon="4.76451">
        <ele>193</ele>
        <time>2018-04-21T09:42:29Z</time>
      </trkpt>
      <trkpt lat="46.04812" lon="4.76452">
        <ele>193</ele>
        <time>2018-04-21T09:42:30Z</time>
      </trkpt>
      <trkpt lat="46.04821" lon="4.76448">
        <ele>193</ele>
        <time>2018-04-21T09:42:35Z</time>
      </trkpt>
      <trkpt lat="46.04832" lon="4.76453">
        <ele>193</ele>
        <time>2018-04-21T09:42:36Z</time>
      </trkpt>
      <trkpt lat="46.04838" lon="4.76448">
        <ele>194</ele>
        <time>2018-04-21T09:42:41Z</time>
      </trkpt>
      <trkpt lat="46.0484" lon="4.76448">
        <ele>194</ele>
        <time>2018-04-21T09:42:42Z</time>
      </trkpt>
      <trkpt lat="46.04848" lon="4.76449">
        <ele>193</ele>
        <time>2018-04-21T09:42:43Z</time>
      </trkpt>
      <trkpt lat="46.04852" lon="4.7645">
        <ele>193</ele>
        <time>2018-04-21T09:42:44Z</time>
      </trkpt>
      <trkpt lat="46.0486" lon="4.76453">
        <ele>193</ele>
        <time>2018-04-21T09:42:48Z</time>
      </trkpt>
      <trkpt lat="46.04867" lon="4.76454">
        <ele>193</ele>
        <time>2018-04-21T09:42:49Z</time>
      </trkpt>
      <trkpt lat="46.04871" lon="4.76455">
        <ele>193</ele>
        <time>2018-04-21T09:42:50Z</time>
      </trkpt>
      <trkpt lat="46.04876" lon="4.76457">
        <ele>193</ele>
        <time>2018-04-21T09:42:51Z</time>
      </trkpt>
      <trkpt lat="46.04881" lon="4.76456">
        <ele>193</ele>
        <time>2018-04-21T09:42:52Z</time>
      </trkpt>
      <trkpt lat="46.04885" lon="4.76456">
        <ele>193</ele>
        <time>2018-04-21T09:42:53Z</time>
      </trkpt>
      <trkpt lat="46.04894" lon="4.76456">
        <ele>193</ele>
        <time>2018-04-21T09:42:55Z</time>
      </trkpt>
      <trkpt lat="46.04898" lon="4.76457">
        <ele>193</ele>
        <time>2018-04-21T09:42:56Z</time>
      </trkpt>
      <trkpt lat="46.04904" lon="4.76453">
        <ele>193</ele>
        <time>2018-04-21T09:42:57Z</time>
      </trkpt>
      <trkpt lat="46.04909" lon="4.76451">
        <ele>193</ele>
        <time>2018-04-21T09:42:58Z</time>
      </trkpt>
      <trkpt lat="46.04914" lon="4.76447">
        <ele>193</ele>
        <time>2018-04-21T09:42:59Z</time>
      </trkpt>
      <trkpt lat="46.0492" lon="4.76445">
        <ele>191</ele>
        <time>2018-04-21T09:43:00Z</time>
      </trkpt>
      <trkpt lat="46.04924" lon="4.76443">
        <ele>191</ele>
        <time>2018-04-21T09:43:01Z</time>
      </trkpt>
      <trkpt lat="46.0493" lon="4.76441">
        <ele>191</ele>
        <time>2018-04-21T09:43:02Z</time>
      </trkpt>
      <trkpt lat="46.04934" lon="4.76437">
        <ele>191</ele>
        <time>2018-04-21T09:43:03Z</time>
      </trkpt>
      <trkpt lat="46.04941" lon="4.76437">
        <ele>191</ele>
        <time>2018-04-21T09:43:04Z</time>
      </trkpt>
      <trkpt lat="46.04948" lon="4.76436">
        <ele>191</ele>
        <time>2018-04-21T09:43:05Z</time>
      </trkpt>
      <trkpt lat="46.04952" lon="4.76438">
        <ele>191</ele>
        <time>2018-04-21T09:43:06Z</time>
      </trkpt>
      <trkpt lat="46.04957" lon="4.76441">
        <ele>191</ele>
        <time>2018-04-21T09:43:07Z</time>
      </trkpt>
      <trkpt lat="46.04961" lon="4.76446">
        <ele>191</ele>
        <time>2018-04-21T09:43:08Z</time>
      </trkpt>
      <trkpt lat="46.04964" lon="4.76451">
        <ele>191</ele>
        <time>2018-04-21T09:43:09Z</time>
      </trkpt>
      <trkpt lat="46.04967" lon="4.76457">
        <ele>191</ele>
        <time>2018-04-21T09:43:10Z</time>
      </trkpt>
      <trkpt lat="46.0497" lon="4.76464">
        <ele>191</ele>
        <time>2018-04-21T09:43:11Z</time>
      </trkpt>
      <trkpt lat="46.04972" lon="4.76469">
        <ele>191</ele>
        <time>2018-04-21T09:43:12Z</time>
      </trkpt>
      <trkpt lat="46.04974" lon="4.76481">
        <ele>191</ele>
        <time>2018-04-21T09:43:14Z</time>
      </trkpt>
      <trkpt lat="46.04976" lon="4.76487">
        <ele>191</ele>
        <time>2018-04-21T09:43:15Z</time>
      </trkpt>
      <trkpt lat="46.04981" lon="4.76497">
        <ele>190</ele>
        <time>2018-04-21T09:43:17Z</time>
      </trkpt>
      <trkpt lat="46.04984" lon="4.76503">
        <ele>191</ele>
        <time>2018-04-21T09:43:18Z</time>
      </trkpt>
      <trkpt lat="46.04988" lon="4.76514">
        <ele>191</ele>
        <time>2018-04-21T09:43:20Z</time>
      </trkpt>
      <trkpt lat="46.04989" lon="4.76518">
        <ele>191</ele>
        <time>2018-04-21T09:43:21Z</time>
      </trkpt>
      <trkpt lat="46.04993" lon="4.76527">
        <ele>191</ele>
        <time>2018-04-21T09:43:23Z</time>
      </trkpt>
      <trkpt lat="46.04994" lon="4.76532">
        <ele>191</ele>
        <time>2018-04-21T09:43:24Z</time>
      </trkpt>
      <trkpt lat="46.04997" lon="4.76539">
        <ele>191</ele>
        <time>2018-04-21T09:43:26Z</time>
      </trkpt>
      <trkpt lat="46.05" lon="4.76545">
        <ele>190</ele>
        <time>2018-04-21T09:43:27Z</time>
      </trkpt>
      <trkpt lat="46.05004" lon="4.76556">
        <ele>190</ele>
        <time>2018-04-21T09:43:31Z</time>
      </trkpt>
      <trkpt lat="46.05005" lon="4.76558">
        <ele>190</ele>
        <time>2018-04-21T09:43:32Z</time>
      </trkpt>
      <trkpt lat="46.05008" lon="4.76563">
        <ele>191</ele>
        <time>2018-04-21T09:43:34Z</time>
      </trkpt>
      <trkpt lat="46.05015" lon="4.76569">
        <ele>191</ele>
        <time>2018-04-21T09:43:35Z</time>
      </trkpt>
      <trkpt lat="46.05023" lon="4.76574">
        <ele>190</ele>
        <time>2018-04-21T09:43:37Z</time>
      </trkpt>
      <trkpt lat="46.05029" lon="4.76575">
        <ele>190</ele>
        <time>2018-04-21T09:43:38Z</time>
      </trkpt>
      <trkpt lat="46.05034" lon="4.76578">
        <ele>190</ele>
        <time>2018-04-21T09:43:39Z</time>
      </trkpt>
      <trkpt lat="46.0504" lon="4.7658">
        <ele>190</ele>
        <time>2018-04-21T09:43:40Z</time>
      </trkpt>
      <trkpt lat="46.05044" lon="4.76583">
        <ele>190</ele>
        <time>2018-04-21T09:43:41Z</time>
      </trkpt>
      <trkpt lat="46.05047" lon="4.76588">
        <ele>191</ele>
        <time>2018-04-21T09:43:42Z</time>
      </trkpt>
      <trkpt lat="46.05052" lon="4.76591">
        <ele>191</ele>
        <time>2018-04-21T09:43:43Z</time>
      </trkpt>
      <trkpt lat="46.05056" lon="4.76595">
        <ele>191</ele>
        <time>2018-04-21T09:43:44Z</time>
      </trkpt>
      <trkpt lat="46.05064" lon="4.76601">
        <ele>191</ele>
        <time>2018-04-21T09:43:46Z</time>
      </trkpt>
      <trkpt lat="46.05068" lon="4.76604">
        <ele>191</ele>
        <time>2018-04-21T09:43:47Z</time>
      </trkpt>
      <trkpt lat="46.05074" lon="4.76612">
        <ele>191</ele>
        <time>2018-04-21T09:43:49Z</time>
      </trkpt>
      <trkpt lat="46.05075" lon="4.76619">
        <ele>192</ele>
        <time>2018-04-21T09:43:50Z</time>
      </trkpt>
      <trkpt lat="46.05077" lon="4.76626">
        <ele>192</ele>
        <time>2018-04-21T09:43:51Z</time>
      </trkpt>
      <trkpt lat="46.05077" lon="4.76634">
        <ele>192</ele>
        <time>2018-04-21T09:43:52Z</time>
      </trkpt>
      <trkpt lat="46.0508" lon="4.76641">
        <ele>192</ele>
        <time>2018-04-21T09:43:53Z</time>
      </trkpt>
      <trkpt lat="46.05081" lon="4.76649">
        <ele>192</ele>
        <time>2018-04-21T09:43:54Z</time>
      </trkpt>
      <trkpt lat="46.05082" lon="4.76657">
        <ele>193</ele>
        <time>2018-04-21T09:43:55Z</time>
      </trkpt>
      <trkpt lat="46.05083" lon="4.76666">
        <ele>193</ele>
        <time>2018-04-21T09:43:56Z</time>
      </trkpt>
      <trkpt lat="46.05084" lon="4.76673">
        <ele>193</ele>
        <time>2018-04-21T09:43:57Z</time>
      </trkpt>
      <trkpt lat="46.05084" lon="4.7668">
        <ele>193</ele>
        <time>2018-04-21T09:43:58Z</time>
      </trkpt>
      <trkpt lat="46.05086" lon="4.76689">
        <ele>193</ele>
        <time>2018-04-21T09:43:59Z</time>
      </trkpt>
      <trkpt lat="46.05086" lon="4.76697">
        <ele>193</ele>
        <time>2018-04-21T09:44:00Z</time>
      </trkpt>
      <trkpt lat="46.05087" lon="4.76704">
        <ele>193</ele>
        <time>2018-04-21T09:44:01Z</time>
      </trkpt>
      <trkpt lat="46.05088" lon="4.76712">
        <ele>193</ele>
        <time>2018-04-21T09:44:02Z</time>
      </trkpt>
      <trkpt lat="46.0509" lon="4.7672">
        <ele>193</ele>
        <time>2018-04-21T09:44:03Z</time>
      </trkpt>
      <trkpt lat="46.05091" lon="4.76728">
        <ele>193</ele>
        <time>2018-04-21T09:44:04Z</time>
      </trkpt>
      <trkpt lat="46.05093" lon="4.76735">
        <ele>193</ele>
        <time>2018-04-21T09:44:05Z</time>
      </trkpt>
      <trkpt lat="46.05094" lon="4.76742">
        <ele>193</ele>
        <time>2018-04-21T09:44:06Z</time>
      </trkpt>
      <trkpt lat="46.05095" lon="4.76749">
        <ele>193</ele>
        <time>2018-04-21T09:44:07Z</time>
      </trkpt>
      <trkpt lat="46.05096" lon="4.76756">
        <ele>194</ele>
        <time>2018-04-21T09:44:08Z</time>
      </trkpt>
      <trkpt lat="46.05098" lon="4.76768">
        <ele>194</ele>
        <time>2018-04-21T09:44:10Z</time>
      </trkpt>
      <trkpt lat="46.05102" lon="4.76776">
        <ele>194</ele>
        <time>2018-04-21T09:44:11Z</time>
      </trkpt>
      <trkpt lat="46.05105" lon="4.76787">
        <ele>194</ele>
        <time>2018-04-21T09:44:13Z</time>
      </trkpt>
      <trkpt lat="46.05106" lon="4.76793">
        <ele>194</ele>
        <time>2018-04-21T09:44:14Z</time>
      </trkpt>
      <trkpt lat="46.05108" lon="4.768">
        <ele>194</ele>
        <time>2018-04-21T09:44:15Z</time>
      </trkpt>
      <trkpt lat="46.05109" lon="4.76807">
        <ele>194</ele>
        <time>2018-04-21T09:44:16Z</time>
      </trkpt>
      <trkpt lat="46.05112" lon="4.76813">
        <ele>194</ele>
        <time>2018-04-21T09:44:17Z</time>
      </trkpt>
      <trkpt lat="46.05114" lon="4.76819">
        <ele>194</ele>
        <time>2018-04-21T09:44:18Z</time>
      </trkpt>
      <trkpt lat="46.05118" lon="4.7683">
        <ele>194</ele>
        <time>2018-04-21T09:44:20Z</time>
      </trkpt>
      <trkpt lat="46.05121" lon="4.76836">
        <ele>195</ele>
        <time>2018-04-21T09:44:21Z</time>
      </trkpt>
      <trkpt lat="46.05125" lon="4.76846">
        <ele>195</ele>
        <time>2018-04-21T09:44:23Z</time>
      </trkpt>
      <trkpt lat="46.05128" lon="4.76852">
        <ele>195</ele>
        <time>2018-04-21T09:44:24Z</time>
      </trkpt>
      <trkpt lat="46.0513" lon="4.76857">
        <ele>195</ele>
        <time>2018-04-21T09:44:25Z</time>
      </trkpt>
      <trkpt lat="46.05133" lon="4.76862">
        <ele>195</ele>
        <time>2018-04-21T09:44:26Z</time>
      </trkpt>
      <trkpt lat="46.05135" lon="4.76868">
        <ele>195</ele>
        <time>2018-04-21T09:44:27Z</time>
      </trkpt>
      <trkpt lat="46.05138" lon="4.76874">
        <ele>195</ele>
        <time>2018-04-21T09:44:28Z</time>
      </trkpt>
      <trkpt lat="46.05143" lon="4.76884">
        <ele>195</ele>
        <time>2018-04-21T09:44:30Z</time>
      </trkpt>
      <trkpt lat="46.05146" lon="4.76889">
        <ele>195</ele>
        <time>2018-04-21T09:44:31Z</time>
      </trkpt>
      <trkpt lat="46.05149" lon="4.76899">
        <ele>195</ele>
        <time>2018-04-21T09:44:33Z</time>
      </trkpt>
      <trkpt lat="46.05152" lon="4.76904">
        <ele>195</ele>
        <time>2018-04-21T09:44:34Z</time>
      </trkpt>
      <trkpt lat="46.05157" lon="4.76912">
        <ele>196</ele>
        <time>2018-04-21T09:44:36Z</time>
      </trkpt>
      <trkpt lat="46.05159" lon="4.76917">
        <ele>196</ele>
        <time>2018-04-21T09:44:37Z</time>
      </trkpt>
      <trkpt lat="46.05164" lon="4.76925">
        <ele>196</ele>
        <time>2018-04-21T09:44:39Z</time>
      </trkpt>
      <trkpt lat="46.05165" lon="4.76928">
        <ele>196</ele>
        <time>2018-04-21T09:44:40Z</time>
      </trkpt>
      <trkpt lat="46.05169" lon="4.76936">
        <ele>197</ele>
        <time>2018-04-21T09:44:42Z</time>
      </trkpt>
      <trkpt lat="46.0517" lon="4.76939">
        <ele>197</ele>
        <time>2018-04-21T09:44:43Z</time>
      </trkpt>
      <trkpt lat="46.05175" lon="4.76948">
        <ele>197</ele>
        <time>2018-04-21T09:44:46Z</time>
      </trkpt>
      <trkpt lat="46.05176" lon="4.76952">
        <ele>197</ele>
        <time>2018-04-21T09:44:47Z</time>
      </trkpt>
      <trkpt lat="46.05179" lon="4.76959">
        <ele>198</ele>
        <time>2018-04-21T09:44:49Z</time>
      </trkpt>
      <trkpt lat="46.05181" lon="4.76963">
        <ele>198</ele>
        <time>2018-04-21T09:44:50Z</time>
      </trkpt>
      <trkpt lat="46.05183" lon="4.76971">
        <ele>198</ele>
        <time>2018-04-21T09:44:52Z</time>
      </trkpt>
      <trkpt lat="46.05185" lon="4.76975">
        <ele>198</ele>
        <time>2018-04-21T09:44:53Z</time>
      </trkpt>
      <trkpt lat="46.05188" lon="4.76987">
        <ele>198</ele>
        <time>2018-04-21T09:44:54Z</time>
      </trkpt>
      <trkpt lat="46.05191" lon="4.76997">
        <ele>198</ele>
        <time>2018-04-21T09:44:58Z</time>
      </trkpt>
      <trkpt lat="46.05192" lon="4.77001">
        <ele>200</ele>
        <time>2018-04-21T09:44:59Z</time>
      </trkpt>
      <trkpt lat="46.05193" lon="4.77004">
        <ele>200</ele>
        <time>2018-04-21T09:45:00Z</time>
      </trkpt>
      <trkpt lat="46.05196" lon="4.77015">
        <ele>200</ele>
        <time>2018-04-21T09:45:01Z</time>
      </trkpt>
      <trkpt lat="46.05199" lon="4.77026">
        <ele>200</ele>
        <time>2018-04-21T09:45:05Z</time>
      </trkpt>
      <trkpt lat="46.052" lon="4.7703">
        <ele>200</ele>
        <time>2018-04-21T09:45:06Z</time>
      </trkpt>
      <trkpt lat="46.05203" lon="4.77041">
        <ele>200</ele>
        <time>2018-04-21T09:45:09Z</time>
      </trkpt>
      <trkpt lat="46.05205" lon="4.77045">
        <ele>201</ele>
        <time>2018-04-21T09:45:10Z</time>
      </trkpt>
      <trkpt lat="46.05209" lon="4.77055">
        <ele>201</ele>
        <time>2018-04-21T09:45:13Z</time>
      </trkpt>
      <trkpt lat="46.0521" lon="4.77058">
        <ele>201</ele>
        <time>2018-04-21T09:45:14Z</time>
      </trkpt>
      <trkpt lat="46.05214" lon="4.77066">
        <ele>201</ele>
        <time>2018-04-21T09:45:16Z</time>
      </trkpt>
      <trkpt lat="46.05215" lon="4.7707">
        <ele>201</ele>
        <time>2018-04-21T09:45:17Z</time>
      </trkpt>
      <trkpt lat="46.05218" lon="4.77079">
        <ele>201</ele>
        <time>2018-04-21T09:45:19Z</time>
      </trkpt>
      <trkpt lat="46.05219" lon="4.77083">
        <ele>201</ele>
        <time>2018-04-21T09:45:20Z</time>
      </trkpt>
      <trkpt lat="46.05224" lon="4.77093">
        <ele>203</ele>
        <time>2018-04-21T09:45:23Z</time>
      </trkpt>
      <trkpt lat="46.05225" lon="4.77097">
        <ele>203</ele>
        <time>2018-04-21T09:45:24Z</time>
      </trkpt>
      <trkpt lat="46.05231" lon="4.77106">
        <ele>203</ele>
        <time>2018-04-21T09:45:27Z</time>
      </trkpt>
      <trkpt lat="46.05232" lon="4.77109">
        <ele>203</ele>
        <time>2018-04-21T09:45:28Z</time>
      </trkpt>
      <trkpt lat="46.05239" lon="4.77117">
        <ele>203</ele>
        <time>2018-04-21T09:45:31Z</time>
      </trkpt>
      <trkpt lat="46.05241" lon="4.77119">
        <ele>204</ele>
        <time>2018-04-21T09:45:32Z</time>
      </trkpt>
      <trkpt lat="46.05249" lon="4.77125">
        <ele>204</ele>
        <time>2018-04-21T09:45:35Z</time>
      </trkpt>
      <trkpt lat="46.05252" lon="4.77127">
        <ele>204</ele>
        <time>2018-04-21T09:45:36Z</time>
      </trkpt>
      <trkpt lat="46.05258" lon="4.77134">
        <ele>204</ele>
        <time>2018-04-21T09:45:39Z</time>
      </trkpt>
      <trkpt lat="46.0526" lon="4.77138">
        <ele>204</ele>
        <time>2018-04-21T09:45:40Z</time>
      </trkpt>
      <trkpt lat="46.05267" lon="4.77145">
        <ele>204</ele>
        <time>2018-04-21T09:45:43Z</time>
      </trkpt>
      <trkpt lat="46.0527" lon="4.77147">
        <ele>204</ele>
        <time>2018-04-21T09:45:44Z</time>
      </trkpt>
      <trkpt lat="46.05275" lon="4.77152">
        <ele>204</ele>
        <time>2018-04-21T09:45:46Z</time>
      </trkpt>
      <trkpt lat="46.05278" lon="4.77155">
        <ele>204</ele>
        <time>2018-04-21T09:45:47Z</time>
      </trkpt>
      <trkpt lat="46.05284" lon="4.7716">
        <ele>204</ele>
        <time>2018-04-21T09:45:49Z</time>
      </trkpt>
      <trkpt lat="46.05287" lon="4.77163">
        <ele>204</ele>
        <time>2018-04-21T09:45:50Z</time>
      </trkpt>
      <trkpt lat="46.05291" lon="4.77169">
        <ele>205</ele>
        <time>2018-04-21T09:45:52Z</time>
      </trkpt>
      <trkpt lat="46.05294" lon="4.77172">
        <ele>205</ele>
        <time>2018-04-21T09:45:53Z</time>
      </trkpt>
      <trkpt lat="46.05299" lon="4.77177">
        <ele>205</ele>
        <time>2018-04-21T09:45:55Z</time>
      </trkpt>
      <trkpt lat="46.05302" lon="4.7718">
        <ele>205</ele>
        <time>2018-04-21T09:45:56Z</time>
      </trkpt>
      <trkpt lat="46.05307" lon="4.77185">
        <ele>205</ele>
        <time>2018-04-21T09:45:58Z</time>
      </trkpt>
      <trkpt lat="46.0531" lon="4.77187">
        <ele>205</ele>
        <time>2018-04-21T09:45:59Z</time>
      </trkpt>
      <trkpt lat="46.05316" lon="4.77192">
        <ele>205</ele>
        <time>2018-04-21T09:46:01Z</time>
      </trkpt>
      <trkpt lat="46.05319" lon="4.77195">
        <ele>205</ele>
        <time>2018-04-21T09:46:02Z</time>
      </trkpt>
      <trkpt lat="46.05325" lon="4.772">
        <ele>205</ele>
        <time>2018-04-21T09:46:04Z</time>
      </trkpt>
      <trkpt lat="46.05327" lon="4.77202">
        <ele>205</ele>
        <time>2018-04-21T09:46:05Z</time>
      </trkpt>
      <trkpt lat="46.05333" lon="4.77206">
        <ele>205</ele>
        <time>2018-04-21T09:46:07Z</time>
      </trkpt>
      <trkpt lat="46.05336" lon="4.77208">
        <ele>203</ele>
        <time>2018-04-21T09:46:08Z</time>
      </trkpt>
      <trkpt lat="46.05339" lon="4.7721">
        <ele>203</ele>
        <time>2018-04-21T09:46:09Z</time>
      </trkpt>
      <trkpt lat="46.05348" lon="4.77216">
        <ele>203</ele>
        <time>2018-04-21T09:46:10Z</time>
      </trkpt>
      <trkpt lat="46.05355" lon="4.77222">
        <ele>203</ele>
        <time>2018-04-21T09:46:12Z</time>
      </trkpt>
      <trkpt lat="46.05359" lon="4.77224">
        <ele>203</ele>
        <time>2018-04-21T09:46:13Z</time>
      </trkpt>
      <trkpt lat="46.05366" lon="4.77229">
        <ele>203</ele>
        <time>2018-04-21T09:46:15Z</time>
      </trkpt>
      <trkpt lat="46.05369" lon="4.77232">
        <ele>203</ele>
        <time>2018-04-21T09:46:16Z</time>
      </trkpt>
      <trkpt lat="46.05377" lon="4.77238">
        <ele>203</ele>
        <time>2018-04-21T09:46:18Z</time>
      </trkpt>
      <trkpt lat="46.05382" lon="4.77242">
        <ele>203</ele>
        <time>2018-04-21T09:46:19Z</time>
      </trkpt>
      <trkpt lat="46.05386" lon="4.77244">
        <ele>202</ele>
        <time>2018-04-21T09:46:20Z</time>
      </trkpt>
      <trkpt lat="46.05392" lon="4.77246">
        <ele>202</ele>
        <time>2018-04-21T09:46:21Z</time>
      </trkpt>
      <trkpt lat="46.05396" lon="4.77248">
        <ele>202</ele>
        <time>2018-04-21T09:46:22Z</time>
      </trkpt>
      <trkpt lat="46.05401" lon="4.77249">
        <ele>202</ele>
        <time>2018-04-21T09:46:23Z</time>
      </trkpt>
      <trkpt lat="46.05406" lon="4.77251">
        <ele>202</ele>
        <time>2018-04-21T09:46:24Z</time>
      </trkpt>
      <trkpt lat="46.05411" lon="4.77254">
        <ele>202</ele>
        <time>2018-04-21T09:46:25Z</time>
      </trkpt>
      <trkpt lat="46.05418" lon="4.77256">
        <ele>201</ele>
        <time>2018-04-21T09:46:26Z</time>
      </trkpt>
      <trkpt lat="46.05423" lon="4.77259">
        <ele>201</ele>
        <time>2018-04-21T09:46:27Z</time>
      </trkpt>
      <trkpt lat="46.05428" lon="4.77261">
        <ele>201</ele>
        <time>2018-04-21T09:46:28Z</time>
      </trkpt>
      <trkpt lat="46.05433" lon="4.77262">
        <ele>201</ele>
        <time>2018-04-21T09:46:29Z</time>
      </trkpt>
      <trkpt lat="46.05438" lon="4.77264">
        <ele>201</ele>
        <time>2018-04-21T09:46:30Z</time>
      </trkpt>
      <trkpt lat="46.05443" lon="4.77266">
        <ele>201</ele>
        <time>2018-04-21T09:46:31Z</time>
      </trkpt>
      <trkpt lat="46.05449" lon="4.77267">
        <ele>201</ele>
        <time>2018-04-21T09:46:32Z</time>
      </trkpt>
      <trkpt lat="46.05454" lon="4.7727">
        <ele>201</ele>
        <time>2018-04-21T09:46:33Z</time>
      </trkpt>
      <trkpt lat="46.05459" lon="4.77273">
        <ele>201</ele>
        <time>2018-04-21T09:46:34Z</time>
      </trkpt>
      <trkpt lat="46.05466" lon="4.77276">
        <ele>201</ele>
        <time>2018-04-21T09:46:35Z</time>
      </trkpt>
      <trkpt lat="46.05472" lon="4.77279">
        <ele>201</ele>
        <time>2018-04-21T09:46:36Z</time>
      </trkpt>
      <trkpt lat="46.05478" lon="4.77282">
        <ele>201</ele>
        <time>2018-04-21T09:46:37Z</time>
      </trkpt>
      <trkpt lat="46.05483" lon="4.77285">
        <ele>201</ele>
        <time>2018-04-21T09:46:38Z</time>
      </trkpt>
      <trkpt lat="46.05489" lon="4.77289">
        <ele>201</ele>
        <time>2018-04-21T09:46:39Z</time>
      </trkpt>
      <trkpt lat="46.05494" lon="4.77292">
        <ele>201</ele>
        <time>2018-04-21T09:46:40Z</time>
      </trkpt>
      <trkpt lat="46.05499" lon="4.77295">
        <ele>201</ele>
        <time>2018-04-21T09:46:41Z</time>
      </trkpt>
      <trkpt lat="46.05504" lon="4.77299">
        <ele>200</ele>
        <time>2018-04-21T09:46:42Z</time>
      </trkpt>
      <trkpt lat="46.05509" lon="4.77303">
        <ele>200</ele>
        <time>2018-04-21T09:46:43Z</time>
      </trkpt>
      <trkpt lat="46.05514" lon="4.77305">
        <ele>200</ele>
        <time>2018-04-21T09:46:44Z</time>
      </trkpt>
      <trkpt lat="46.05519" lon="4.7731">
        <ele>200</ele>
        <time>2018-04-21T09:46:45Z</time>
      </trkpt>
      <trkpt lat="46.05524" lon="4.77313">
        <ele>200</ele>
        <time>2018-04-21T09:46:46Z</time>
      </trkpt>
      <trkpt lat="46.0553" lon="4.77315">
        <ele>200</ele>
        <time>2018-04-21T09:46:47Z</time>
      </trkpt>
      <trkpt lat="46.05534" lon="4.77318">
        <ele>200</ele>
        <time>2018-04-21T09:46:48Z</time>
      </trkpt>
      <trkpt lat="46.05538" lon="4.77322">
        <ele>200</ele>
        <time>2018-04-21T09:46:49Z</time>
      </trkpt>
      <trkpt lat="46.05544" lon="4.77325">
        <ele>200</ele>
        <time>2018-04-21T09:46:50Z</time>
      </trkpt>
      <trkpt lat="46.05548" lon="4.77327">
        <ele>200</ele>
        <time>2018-04-21T09:46:51Z</time>
      </trkpt>
      <trkpt lat="46.05553" lon="4.7733">
        <ele>200</ele>
        <time>2018-04-21T09:46:52Z</time>
      </trkpt>
      <trkpt lat="46.05557" lon="4.77333">
        <ele>200</ele>
        <time>2018-04-21T09:46:53Z</time>
      </trkpt>
      <trkpt lat="46.05562" lon="4.77335">
        <ele>201</ele>
        <time>2018-04-21T09:46:54Z</time>
      </trkpt>
      <trkpt lat="46.05566" lon="4.77338">
        <ele>201</ele>
        <time>2018-04-21T09:46:55Z</time>
      </trkpt>
      <trkpt lat="46.05574" lon="4.77343">
        <ele>201</ele>
        <time>2018-04-21T09:46:57Z</time>
      </trkpt>
      <trkpt lat="46.05578" lon="4.77346">
        <ele>201</ele>
        <time>2018-04-21T09:46:58Z</time>
      </trkpt>
      <trkpt lat="46.05586" lon="4.77353">
        <ele>201</ele>
        <time>2018-04-21T09:47:00Z</time>
      </trkpt>
      <trkpt lat="46.0559" lon="4.77356">
        <ele>202</ele>
        <time>2018-04-21T09:47:01Z</time>
      </trkpt>
      <trkpt lat="46.05595" lon="4.77358">
        <ele>202</ele>
        <time>2018-04-21T09:47:02Z</time>
      </trkpt>
      <trkpt lat="46.05599" lon="4.77362">
        <ele>202</ele>
        <time>2018-04-21T09:47:03Z</time>
      </trkpt>
      <trkpt lat="46.05603" lon="4.77364">
        <ele>202</ele>
        <time>2018-04-21T09:47:04Z</time>
      </trkpt>
      <trkpt lat="46.05608" lon="4.77366">
        <ele>202</ele>
        <time>2018-04-21T09:47:05Z</time>
      </trkpt>
      <trkpt lat="46.05615" lon="4.77373">
        <ele>203</ele>
        <time>2018-04-21T09:47:07Z</time>
      </trkpt>
      <trkpt lat="46.05619" lon="4.77376">
        <ele>203</ele>
        <time>2018-04-21T09:47:08Z</time>
      </trkpt>
      <trkpt lat="46.05624" lon="4.77379">
        <ele>203</ele>
        <time>2018-04-21T09:47:09Z</time>
      </trkpt>
      <trkpt lat="46.05627" lon="4.77383">
        <ele>203</ele>
        <time>2018-04-21T09:47:10Z</time>
      </trkpt>
      <trkpt lat="46.0563" lon="4.77387">
        <ele>203</ele>
        <time>2018-04-21T09:47:11Z</time>
      </trkpt>
      <trkpt lat="46.05636" lon="4.7739">
        <ele>203</ele>
        <time>2018-04-21T09:47:12Z</time>
      </trkpt>
      <trkpt lat="46.0564" lon="4.77393">
        <ele>203</ele>
        <time>2018-04-21T09:47:13Z</time>
      </trkpt>
      <trkpt lat="46.05644" lon="4.77397">
        <ele>203</ele>
        <time>2018-04-21T09:47:14Z</time>
      </trkpt>
      <trkpt lat="46.05651" lon="4.77404">
        <ele>204</ele>
        <time>2018-04-21T09:47:16Z</time>
      </trkpt>
      <trkpt lat="46.05655" lon="4.77408">
        <ele>204</ele>
        <time>2018-04-21T09:47:17Z</time>
      </trkpt>
      <trkpt lat="46.05662" lon="4.77413">
        <ele>205</ele>
        <time>2018-04-21T09:47:19Z</time>
      </trkpt>
      <trkpt lat="46.05665" lon="4.77415">
        <ele>205</ele>
        <time>2018-04-21T09:47:20Z</time>
      </trkpt>
      <trkpt lat="46.05672" lon="4.77423">
        <ele>205</ele>
        <time>2018-04-21T09:47:23Z</time>
      </trkpt>
      <trkpt lat="46.05674" lon="4.77425">
        <ele>206</ele>
        <time>2018-04-21T09:47:24Z</time>
      </trkpt>
      <trkpt lat="46.05681" lon="4.77432">
        <ele>206</ele>
        <time>2018-04-21T09:47:27Z</time>
      </trkpt>
      <trkpt lat="46.05683" lon="4.77434">
        <ele>206</ele>
        <time>2018-04-21T09:47:28Z</time>
      </trkpt>
      <trkpt lat="46.05689" lon="4.77439">
        <ele>206</ele>
        <time>2018-04-21T09:47:30Z</time>
      </trkpt>
      <trkpt lat="46.05692" lon="4.77441">
        <ele>206</ele>
        <time>2018-04-21T09:47:31Z</time>
      </trkpt>
      <trkpt lat="46.057" lon="4.77448">
        <ele>207</ele>
        <time>2018-04-21T09:47:32Z</time>
      </trkpt>
      <trkpt lat="46.05707" lon="4.77452">
        <ele>207</ele>
        <time>2018-04-21T09:47:34Z</time>
      </trkpt>
      <trkpt lat="46.0571" lon="4.77454">
        <ele>207</ele>
        <time>2018-04-21T09:47:35Z</time>
      </trkpt>
      <trkpt lat="46.05717" lon="4.7746">
        <ele>207</ele>
        <time>2018-04-21T09:47:37Z</time>
      </trkpt>
      <trkpt lat="46.0572" lon="4.77463">
        <ele>207</ele>
        <time>2018-04-21T09:47:38Z</time>
      </trkpt>
      <trkpt lat="46.05726" lon="4.77469">
        <ele>207</ele>
        <time>2018-04-21T09:47:40Z</time>
      </trkpt>
      <trkpt lat="46.05729" lon="4.77472">
        <ele>207</ele>
        <time>2018-04-21T09:47:41Z</time>
      </trkpt>
      <trkpt lat="46.05735" lon="4.77479">
        <ele>207</ele>
        <time>2018-04-21T09:47:44Z</time>
      </trkpt>
      <trkpt lat="46.05736" lon="4.77482">
        <ele>207</ele>
        <time>2018-04-21T09:47:45Z</time>
      </trkpt>
      <trkpt lat="46.05742" lon="4.77489">
        <ele>207</ele>
        <time>2018-04-21T09:47:46Z</time>
      </trkpt>
      <trkpt lat="46.05743" lon="4.77491">
        <ele>208</ele>
        <time>2018-04-21T09:47:47Z</time>
      </trkpt>
      <trkpt lat="46.05748" lon="4.775">
        <ele>208</ele>
        <time>2018-04-21T09:47:50Z</time>
      </trkpt>
      <trkpt lat="46.05753" lon="4.77509">
        <ele>208</ele>
        <time>2018-04-21T09:47:51Z</time>
      </trkpt>
      <trkpt lat="46.05756" lon="4.77514">
        <ele>208</ele>
        <time>2018-04-21T09:47:53Z</time>
      </trkpt>
      <trkpt lat="46.0576" lon="4.7752">
        <ele>208</ele>
        <time>2018-04-21T09:47:54Z</time>
      </trkpt>
      <trkpt lat="46.05766" lon="4.77529">
        <ele>208</ele>
        <time>2018-04-21T09:47:56Z</time>
      </trkpt>
      <trkpt lat="46.05768" lon="4.77533">
        <ele>208</ele>
        <time>2018-04-21T09:47:57Z</time>
      </trkpt>
      <trkpt lat="46.05774" lon="4.77543">
        <ele>208</ele>
        <time>2018-04-21T09:47:59Z</time>
      </trkpt>
      <trkpt lat="46.05777" lon="4.77547">
        <ele>208</ele>
        <time>2018-04-21T09:48:00Z</time>
      </trkpt>
      <trkpt lat="46.05783" lon="4.77556">
        <ele>208</ele>
        <time>2018-04-21T09:48:02Z</time>
      </trkpt>
      <trkpt lat="46.05785" lon="4.7756">
        <ele>208</ele>
        <time>2018-04-21T09:48:03Z</time>
      </trkpt>
      <trkpt lat="46.05791" lon="4.77569">
        <ele>208</ele>
        <time>2018-04-21T09:48:05Z</time>
      </trkpt>
      <trkpt lat="46.05794" lon="4.77572">
        <ele>208</ele>
        <time>2018-04-21T09:48:06Z</time>
      </trkpt>
      <trkpt lat="46.058" lon="4.7758">
        <ele>208</ele>
        <time>2018-04-21T09:48:08Z</time>
      </trkpt>
      <trkpt lat="46.05804" lon="4.77583">
        <ele>208</ele>
        <time>2018-04-21T09:48:09Z</time>
      </trkpt>
      <trkpt lat="46.0581" lon="4.77592">
        <ele>208</ele>
        <time>2018-04-21T09:48:11Z</time>
      </trkpt>
      <trkpt lat="46.05814" lon="4.77595">
        <ele>208</ele>
        <time>2018-04-21T09:48:12Z</time>
      </trkpt>
      <trkpt lat="46.05818" lon="4.776">
        <ele>208</ele>
        <time>2018-04-21T09:48:13Z</time>
      </trkpt>
      <trkpt lat="46.05822" lon="4.77605">
        <ele>208</ele>
        <time>2018-04-21T09:48:14Z</time>
      </trkpt>
      <trkpt lat="46.05829" lon="4.7761">
        <ele>209</ele>
        <time>2018-04-21T09:48:15Z</time>
      </trkpt>
      <trkpt lat="46.05833" lon="4.77615">
        <ele>208</ele>
        <time>2018-04-21T09:48:16Z</time>
      </trkpt>
      <trkpt lat="46.05838" lon="4.77619">
        <ele>208</ele>
        <time>2018-04-21T09:48:17Z</time>
      </trkpt>
      <trkpt lat="46.05842" lon="4.77624">
        <ele>208</ele>
        <time>2018-04-21T09:48:18Z</time>
      </trkpt>
      <trkpt lat="46.05847" lon="4.77628">
        <ele>208</ele>
        <time>2018-04-21T09:48:19Z</time>
      </trkpt>
      <trkpt lat="46.05851" lon="4.77633">
        <ele>208</ele>
        <time>2018-04-21T09:48:20Z</time>
      </trkpt>
      <trkpt lat="46.05855" lon="4.77638">
        <ele>208</ele>
        <time>2018-04-21T09:48:21Z</time>
      </trkpt>
      <trkpt lat="46.05859" lon="4.77642">
        <ele>208</ele>
        <time>2018-04-21T09:48:22Z</time>
      </trkpt>
      <trkpt lat="46.05864" lon="4.77648">
        <ele>208</ele>
        <time>2018-04-21T09:48:23Z</time>
      </trkpt>
      <trkpt lat="46.05868" lon="4.77652">
        <ele>208</ele>
        <time>2018-04-21T09:48:24Z</time>
      </trkpt>
      <trkpt lat="46.05872" lon="4.77658">
        <ele>208</ele>
        <time>2018-04-21T09:48:25Z</time>
      </trkpt>
      <trkpt lat="46.05875" lon="4.77663">
        <ele>208</ele>
        <time>2018-04-21T09:48:26Z</time>
      </trkpt>
      <trkpt lat="46.05879" lon="4.7767">
        <ele>208</ele>
        <time>2018-04-21T09:48:27Z</time>
      </trkpt>
      <trkpt lat="46.05881" lon="4.77677">
        <ele>208</ele>
        <time>2018-04-21T09:48:28Z</time>
      </trkpt>
      <trkpt lat="46.05883" lon="4.77683">
        <ele>208</ele>
        <time>2018-04-21T09:48:29Z</time>
      </trkpt>
      <trkpt lat="46.05886" lon="4.77689">
        <ele>208</ele>
        <time>2018-04-21T09:48:30Z</time>
      </trkpt>
      <trkpt lat="46.05888" lon="4.77695">
        <ele>208</ele>
        <time>2018-04-21T09:48:31Z</time>
      </trkpt>
      <trkpt lat="46.05889" lon="4.77702">
        <ele>208</ele>
        <time>2018-04-21T09:48:32Z</time>
      </trkpt>
      <trkpt lat="46.05891" lon="4.77708">
        <ele>208</ele>
        <time>2018-04-21T09:48:33Z</time>
      </trkpt>
      <trkpt lat="46.05892" lon="4.77715">
        <ele>208</ele>
        <time>2018-04-21T09:48:34Z</time>
      </trkpt>
      <trkpt lat="46.05893" lon="4.77722">
        <ele>209</ele>
        <time>2018-04-21T09:48:35Z</time>
      </trkpt>
      <trkpt lat="46.05895" lon="4.77729">
        <ele>209</ele>
        <time>2018-04-21T09:48:36Z</time>
      </trkpt>
      <trkpt lat="46.05895" lon="4.77736">
        <ele>209</ele>
        <time>2018-04-21T09:48:37Z</time>
      </trkpt>
      <trkpt lat="46.05896" lon="4.77742">
        <ele>209</ele>
        <time>2018-04-21T09:48:38Z</time>
      </trkpt>
      <trkpt lat="46.05897" lon="4.7775">
        <ele>209</ele>
        <time>2018-04-21T09:48:39Z</time>
      </trkpt>
      <trkpt lat="46.05899" lon="4.77756">
        <ele>209</ele>
        <time>2018-04-21T09:48:40Z</time>
      </trkpt>
      <trkpt lat="46.05903" lon="4.77767">
        <ele>209</ele>
        <time>2018-04-21T09:48:42Z</time>
      </trkpt>
      <trkpt lat="46.05905" lon="4.77773">
        <ele>210</ele>
        <time>2018-04-21T09:48:43Z</time>
      </trkpt>
      <trkpt lat="46.05908" lon="4.77777">
        <ele>210</ele>
        <time>2018-04-21T09:48:44Z</time>
      </trkpt>
      <trkpt lat="46.05912" lon="4.77783">
        <ele>210</ele>
        <time>2018-04-21T09:48:45Z</time>
      </trkpt>
      <trkpt lat="46.05916" lon="4.77793">
        <ele>210</ele>
        <time>2018-04-21T09:48:47Z</time>
      </trkpt>
      <trkpt lat="46.05919" lon="4.77797">
        <ele>210</ele>
        <time>2018-04-21T09:48:48Z</time>
      </trkpt>
      <trkpt lat="46.05922" lon="4.77802">
        <ele>210</ele>
        <time>2018-04-21T09:48:49Z</time>
      </trkpt>
      <trkpt lat="46.05925" lon="4.77807">
        <ele>210</ele>
        <time>2018-04-21T09:48:50Z</time>
      </trkpt>
      <trkpt lat="46.05929" lon="4.77812">
        <ele>210</ele>
        <time>2018-04-21T09:48:51Z</time>
      </trkpt>
      <trkpt lat="46.05932" lon="4.77817">
        <ele>210</ele>
        <time>2018-04-21T09:48:52Z</time>
      </trkpt>
      <trkpt lat="46.05938" lon="4.77826">
        <ele>210</ele>
        <time>2018-04-21T09:48:54Z</time>
      </trkpt>
      <trkpt lat="46.05941" lon="4.77831">
        <ele>210</ele>
        <time>2018-04-21T09:48:55Z</time>
      </trkpt>
      <trkpt lat="46.05946" lon="4.7784">
        <ele>211</ele>
        <time>2018-04-21T09:48:57Z</time>
      </trkpt>
      <trkpt lat="46.05949" lon="4.77845">
        <ele>211</ele>
        <time>2018-04-21T09:48:58Z</time>
      </trkpt>
      <trkpt lat="46.05952" lon="4.77851">
        <ele>211</ele>
        <time>2018-04-21T09:48:59Z</time>
      </trkpt>
      <trkpt lat="46.05955" lon="4.77856">
        <ele>211</ele>
        <time>2018-04-21T09:49:00Z</time>
      </trkpt>
      <trkpt lat="46.05959" lon="4.7786">
        <ele>211</ele>
        <time>2018-04-21T09:49:01Z</time>
      </trkpt>
      <trkpt lat="46.05962" lon="4.77866">
        <ele>211</ele>
        <time>2018-04-21T09:49:02Z</time>
      </trkpt>
      <trkpt lat="46.05965" lon="4.77871">
        <ele>211</ele>
        <time>2018-04-21T09:49:03Z</time>
      </trkpt>
      <trkpt lat="46.05968" lon="4.77876">
        <ele>211</ele>
        <time>2018-04-21T09:49:04Z</time>
      </trkpt>
      <trkpt lat="46.05971" lon="4.77881">
        <ele>211</ele>
        <time>2018-04-21T09:49:05Z</time>
      </trkpt>
      <trkpt lat="46.05974" lon="4.77886">
        <ele>211</ele>
        <time>2018-04-21T09:49:06Z</time>
      </trkpt>
      <trkpt lat="46.05979" lon="4.77897">
        <ele>211</ele>
        <time>2018-04-21T09:49:08Z</time>
      </trkpt>
      <trkpt lat="46.05981" lon="4.77902">
        <ele>211</ele>
        <time>2018-04-21T09:49:09Z</time>
      </trkpt>
      <trkpt lat="46.05986" lon="4.77912">
        <ele>211</ele>
        <time>2018-04-21T09:49:11Z</time>
      </trkpt>
      <trkpt lat="46.05987" lon="4.77918">
        <ele>212</ele>
        <time>2018-04-21T09:49:12Z</time>
      </trkpt>
      <trkpt lat="46.0599" lon="4.77923">
        <ele>211</ele>
        <time>2018-04-21T09:49:13Z</time>
      </trkpt>
      <trkpt lat="46.05992" lon="4.77929">
        <ele>212</ele>
        <time>2018-04-21T09:49:14Z</time>
      </trkpt>
      <trkpt lat="46.05995" lon="4.77941">
        <ele>212</ele>
        <time>2018-04-21T09:49:16Z</time>
      </trkpt>
      <trkpt lat="46.05998" lon="4.77946">
        <ele>212</ele>
        <time>2018-04-21T09:49:17Z</time>
      </trkpt>
      <trkpt lat="46.06001" lon="4.77952">
        <ele>211</ele>
        <time>2018-04-21T09:49:18Z</time>
      </trkpt>
      <trkpt lat="46.06003" lon="4.77958">
        <ele>211</ele>
        <time>2018-04-21T09:49:19Z</time>
      </trkpt>
      <trkpt lat="46.06006" lon="4.77963">
        <ele>211</ele>
        <time>2018-04-21T09:49:20Z</time>
      </trkpt>
      <trkpt lat="46.06009" lon="4.77967">
        <ele>211</ele>
        <time>2018-04-21T09:49:21Z</time>
      </trkpt>
      <trkpt lat="46.06016" lon="4.77974">
        <ele>211</ele>
        <time>2018-04-21T09:49:23Z</time>
      </trkpt>
      <trkpt lat="46.06019" lon="4.77977">
        <ele>211</ele>
        <time>2018-04-21T09:49:24Z</time>
      </trkpt>
      <trkpt lat="46.06023" lon="4.77981">
        <ele>211</ele>
        <time>2018-04-21T09:49:25Z</time>
      </trkpt>
      <trkpt lat="46.06027" lon="4.77986">
        <ele>211</ele>
        <time>2018-04-21T09:49:26Z</time>
      </trkpt>
      <trkpt lat="46.06032" lon="4.77991">
        <ele>211</ele>
        <time>2018-04-21T09:49:27Z</time>
      </trkpt>
      <trkpt lat="46.06036" lon="4.77997">
        <ele>211</ele>
        <time>2018-04-21T09:49:28Z</time>
      </trkpt>
      <trkpt lat="46.06039" lon="4.78002">
        <ele>211</ele>
        <time>2018-04-21T09:49:29Z</time>
      </trkpt>
      <trkpt lat="46.06043" lon="4.78008">
        <ele>211</ele>
        <time>2018-04-21T09:49:30Z</time>
      </trkpt>
      <trkpt lat="46.06047" lon="4.78014">
        <ele>211</ele>
        <time>2018-04-21T09:49:31Z</time>
      </trkpt>
      <trkpt lat="46.06053" lon="4.7802">
        <ele>211</ele>
        <time>2018-04-21T09:49:32Z</time>
      </trkpt>
      <trkpt lat="46.06057" lon="4.78025">
        <ele>211</ele>
        <time>2018-04-21T09:49:33Z</time>
      </trkpt>
      <trkpt lat="46.06061" lon="4.78031">
        <ele>211</ele>
        <time>2018-04-21T09:49:34Z</time>
      </trkpt>
      <trkpt lat="46.06065" lon="4.78035">
        <ele>211</ele>
        <time>2018-04-21T09:49:35Z</time>
      </trkpt>
      <trkpt lat="46.0607" lon="4.78039">
        <ele>211</ele>
        <time>2018-04-21T09:49:36Z</time>
      </trkpt>
      <trkpt lat="46.06075" lon="4.78041">
        <ele>211</ele>
        <time>2018-04-21T09:49:37Z</time>
      </trkpt>
      <trkpt lat="46.0608" lon="4.78045">
        <ele>211</ele>
        <time>2018-04-21T09:49:38Z</time>
      </trkpt>
      <trkpt lat="46.06084" lon="4.78049">
        <ele>210</ele>
        <time>2018-04-21T09:49:39Z</time>
      </trkpt>
      <trkpt lat="46.06089" lon="4.78053">
        <ele>210</ele>
        <time>2018-04-21T09:49:40Z</time>
      </trkpt>
      <trkpt lat="46.06094" lon="4.78056">
        <ele>210</ele>
        <time>2018-04-21T09:49:41Z</time>
      </trkpt>
      <trkpt lat="46.06097" lon="4.7806">
        <ele>210</ele>
        <time>2018-04-21T09:49:42Z</time>
      </trkpt>
      <trkpt lat="46.06104" lon="4.78065">
        <ele>210</ele>
        <time>2018-04-21T09:49:43Z</time>
      </trkpt>
      <trkpt lat="46.06107" lon="4.78069">
        <ele>210</ele>
        <time>2018-04-21T09:49:44Z</time>
      </trkpt>
      <trkpt lat="46.0611" lon="4.78074">
        <ele>210</ele>
        <time>2018-04-21T09:49:45Z</time>
      </trkpt>
      <trkpt lat="46.06115" lon="4.78078">
        <ele>210</ele>
        <time>2018-04-21T09:49:46Z</time>
      </trkpt>
      <trkpt lat="46.06118" lon="4.78083">
        <ele>210</ele>
        <time>2018-04-21T09:49:47Z</time>
      </trkpt>
      <trkpt lat="46.06121" lon="4.78088">
        <ele>209</ele>
        <time>2018-04-21T09:49:48Z</time>
      </trkpt>
      <trkpt lat="46.06126" lon="4.78094">
        <ele>209</ele>
        <time>2018-04-21T09:49:49Z</time>
      </trkpt>
      <trkpt lat="46.06129" lon="4.781">
        <ele>209</ele>
        <time>2018-04-21T09:49:50Z</time>
      </trkpt>
      <trkpt lat="46.06134" lon="4.78105">
        <ele>209</ele>
        <time>2018-04-21T09:49:51Z</time>
      </trkpt>
      <trkpt lat="46.06139" lon="4.78112">
        <ele>208</ele>
        <time>2018-04-21T09:49:52Z</time>
      </trkpt>
      <trkpt lat="46.06144" lon="4.78117">
        <ele>208</ele>
        <time>2018-04-21T09:49:53Z</time>
      </trkpt>
      <trkpt lat="46.0615" lon="4.78122">
        <ele>208</ele>
        <time>2018-04-21T09:49:54Z</time>
      </trkpt>
      <trkpt lat="46.06156" lon="4.78125">
        <ele>208</ele>
        <time>2018-04-21T09:49:55Z</time>
      </trkpt>
      <trkpt lat="46.06164" lon="4.78131">
        <ele>208</ele>
        <time>2018-04-21T09:49:56Z</time>
      </trkpt>
      <trkpt lat="46.0617" lon="4.78135">
        <ele>206</ele>
        <time>2018-04-21T09:49:57Z</time>
      </trkpt>
      <trkpt lat="46.06178" lon="4.7814">
        <ele>206</ele>
        <time>2018-04-21T09:49:58Z</time>
      </trkpt>
      <trkpt lat="46.06186" lon="4.78144">
        <ele>206</ele>
        <time>2018-04-21T09:49:59Z</time>
      </trkpt>
      <trkpt lat="46.06193" lon="4.78148">
        <ele>205</ele>
        <time>2018-04-21T09:50:00Z</time>
      </trkpt>
      <trkpt lat="46.06201" lon="4.78152">
        <ele>205</ele>
        <time>2018-04-21T09:50:01Z</time>
      </trkpt>
      <trkpt lat="46.06208" lon="4.78157">
        <ele>205</ele>
        <time>2018-04-21T09:50:02Z</time>
      </trkpt>
      <trkpt lat="46.06216" lon="4.78161">
        <ele>205</ele>
        <time>2018-04-21T09:50:03Z</time>
      </trkpt>
      <trkpt lat="46.06223" lon="4.78167">
        <ele>205</ele>
        <time>2018-04-21T09:50:04Z</time>
      </trkpt>
      <trkpt lat="46.06231" lon="4.78171">
        <ele>206</ele>
        <time>2018-04-21T09:50:05Z</time>
      </trkpt>
      <trkpt lat="46.06237" lon="4.78175">
        <ele>206</ele>
        <time>2018-04-21T09:50:06Z</time>
      </trkpt>
      <trkpt lat="46.06244" lon="4.7818">
        <ele>206</ele>
        <time>2018-04-21T09:50:07Z</time>
      </trkpt>
      <trkpt lat="46.06251" lon="4.78184">
        <ele>205</ele>
        <time>2018-04-21T09:50:08Z</time>
      </trkpt>
      <trkpt lat="46.06258" lon="4.78189">
        <ele>205</ele>
        <time>2018-04-21T09:50:09Z</time>
      </trkpt>
      <trkpt lat="46.06263" lon="4.78196">
        <ele>205</ele>
        <time>2018-04-21T09:50:10Z</time>
      </trkpt>
      <trkpt lat="46.06269" lon="4.782">
        <ele>205</ele>
        <time>2018-04-21T09:50:11Z</time>
      </trkpt>
      <trkpt lat="46.06275" lon="4.78204">
        <ele>205</ele>
        <time>2018-04-21T09:50:12Z</time>
      </trkpt>
      <trkpt lat="46.0628" lon="4.78208">
        <ele>205</ele>
        <time>2018-04-21T09:50:13Z</time>
      </trkpt>
      <trkpt lat="46.06285" lon="4.78211">
        <ele>205</ele>
        <time>2018-04-21T09:50:14Z</time>
      </trkpt>
      <trkpt lat="46.06288" lon="4.78213">
        <ele>205</ele>
        <time>2018-04-21T09:50:15Z</time>
      </trkpt>
      <trkpt lat="46.06295" lon="4.78219">
        <ele>205</ele>
        <time>2018-04-21T09:50:19Z</time>
      </trkpt>
      <trkpt lat="46.06296" lon="4.78221">
        <ele>205</ele>
        <time>2018-04-21T09:50:20Z</time>
      </trkpt>
      <trkpt lat="46.06302" lon="4.78225">
        <ele>205</ele>
        <time>2018-04-21T09:50:23Z</time>
      </trkpt>
      <trkpt lat="46.06305" lon="4.78226">
        <ele>205</ele>
        <time>2018-04-21T09:50:24Z</time>
      </trkpt>
      <trkpt lat="46.06312" lon="4.78231">
        <ele>205</ele>
        <time>2018-04-21T09:50:27Z</time>
      </trkpt>
      <trkpt lat="46.06314" lon="4.78233">
        <ele>206</ele>
        <time>2018-04-21T09:50:28Z</time>
      </trkpt>
      <trkpt lat="46.06309" lon="4.78234">
        <ele>206</ele>
        <time>2018-04-21T09:50:37Z</time>
      </trkpt>
      <trkpt lat="46.06303" lon="4.78224">
        <ele>205</ele>
        <time>2018-04-21T09:50:38Z</time>
      </trkpt>
      <trkpt lat="46.063" lon="4.7822">
        <ele>205</ele>
        <time>2018-04-21T09:50:39Z</time>
      </trkpt>
      <trkpt lat="46.06296" lon="4.78216">
        <ele>205</ele>
        <time>2018-04-21T09:50:40Z</time>
      </trkpt>
      <trkpt lat="46.0629" lon="4.78213">
        <ele>205</ele>
        <time>2018-04-21T09:50:41Z</time>
      </trkpt>
      <trkpt lat="46.06286" lon="4.78211">
        <ele>205</ele>
        <time>2018-04-21T09:50:42Z</time>
      </trkpt>
      <trkpt lat="46.06282" lon="4.78207">
        <ele>205</ele>
        <time>2018-04-21T09:50:43Z</time>
      </trkpt>
      <trkpt lat="46.06279" lon="4.78204">
        <ele>205</ele>
        <time>2018-04-21T09:50:44Z</time>
      </trkpt>
      <trkpt lat="46.06272" lon="4.782">
        <ele>205</ele>
        <time>2018-04-21T09:50:46Z</time>
      </trkpt>
      <trkpt lat="46.06269" lon="4.78199">
        <ele>205</ele>
        <time>2018-04-21T09:50:47Z</time>
      </trkpt>
      <trkpt lat="46.06263" lon="4.78192">
        <ele>205</ele>
        <time>2018-04-21T09:50:49Z</time>
      </trkpt>
      <trkpt lat="46.0626" lon="4.78189">
        <ele>205</ele>
        <time>2018-04-21T09:50:50Z</time>
      </trkpt>
      <trkpt lat="46.06263" lon="4.78199">
        <ele>205</ele>
        <time>2018-04-21T09:52:58Z</time>
      </trkpt>
      <trkpt lat="46.06265" lon="4.782">
        <ele>205</ele>
        <time>2018-04-21T09:52:59Z</time>
      </trkpt>
      <trkpt lat="46.06273" lon="4.78202">
        <ele>205</ele>
        <time>2018-04-21T09:53:02Z</time>
      </trkpt>
      <trkpt lat="46.06276" lon="4.78203">
        <ele>205</ele>
        <time>2018-04-21T09:53:03Z</time>
      </trkpt>
      <trkpt lat="46.06283" lon="4.7821">
        <ele>205</ele>
        <time>2018-04-21T09:53:04Z</time>
      </trkpt>
      <trkpt lat="46.06288" lon="4.78216">
        <ele>205</ele>
        <time>2018-04-21T09:53:05Z</time>
      </trkpt>
      <trkpt lat="46.06292" lon="4.78217">
        <ele>205</ele>
        <time>2018-04-21T09:53:06Z</time>
      </trkpt>
      <trkpt lat="46.06297" lon="4.7822">
        <ele>205</ele>
        <time>2018-04-21T09:53:07Z</time>
      </trkpt>
      <trkpt lat="46.06301" lon="4.78223">
        <ele>205</ele>
        <time>2018-04-21T09:53:08Z</time>
      </trkpt>
      <trkpt lat="46.06308" lon="4.78226">
        <ele>205</ele>
        <time>2018-04-21T09:53:09Z</time>
      </trkpt>
      <trkpt lat="46.06313" lon="4.78229">
        <ele>205</ele>
        <time>2018-04-21T09:53:10Z</time>
      </trkpt>
      <trkpt lat="46.06317" lon="4.78232">
        <ele>205</ele>
        <time>2018-04-21T09:53:11Z</time>
      </trkpt>
      <trkpt lat="46.06322" lon="4.78234">
        <ele>206</ele>
        <time>2018-04-21T09:53:12Z</time>
      </trkpt>
      <trkpt lat="46.06326" lon="4.78236">
        <ele>206</ele>
        <time>2018-04-21T09:53:13Z</time>
      </trkpt>
      <trkpt lat="46.06331" lon="4.78239">
        <ele>206</ele>
        <time>2018-04-21T09:53:14Z</time>
      </trkpt>
      <trkpt lat="46.06336" lon="4.7824">
        <ele>205</ele>
        <time>2018-04-21T09:53:15Z</time>
      </trkpt>
      <trkpt lat="46.06345" lon="4.78241">
        <ele>205</ele>
        <time>2018-04-21T09:53:17Z</time>
      </trkpt>
      <trkpt lat="46.0635" lon="4.78239">
        <ele>205</ele>
        <time>2018-04-21T09:53:18Z</time>
      </trkpt>
      <trkpt lat="46.06358" lon="4.78234">
        <ele>205</ele>
        <time>2018-04-21T09:53:20Z</time>
      </trkpt>
      <trkpt lat="46.06362" lon="4.78232">
        <ele>205</ele>
        <time>2018-04-21T09:53:21Z</time>
      </trkpt>
      <trkpt lat="46.06366" lon="4.78228">
        <ele>205</ele>
        <time>2018-04-21T09:53:22Z</time>
      </trkpt>
      <trkpt lat="46.0637" lon="4.78224">
        <ele>205</ele>
        <time>2018-04-21T09:53:23Z</time>
      </trkpt>
      <trkpt lat="46.06375" lon="4.78218">
        <ele>204</ele>
        <time>2018-04-21T09:53:24Z</time>
      </trkpt>
      <trkpt lat="46.06379" lon="4.78213">
        <ele>204</ele>
        <time>2018-04-21T09:53:25Z</time>
      </trkpt>
      <trkpt lat="46.06383" lon="4.78208">
        <ele>204</ele>
        <time>2018-04-21T09:53:26Z</time>
      </trkpt>
      <trkpt lat="46.06387" lon="4.78203">
        <ele>204</ele>
        <time>2018-04-21T09:53:27Z</time>
      </trkpt>
      <trkpt lat="46.0639" lon="4.78197">
        <ele>204</ele>
        <time>2018-04-21T09:53:28Z</time>
      </trkpt>
      <trkpt lat="46.06392" lon="4.78188">
        <ele>204</ele>
        <time>2018-04-21T09:53:29Z</time>
      </trkpt>
      <trkpt lat="46.06394" lon="4.7818">
        <ele>204</ele>
        <time>2018-04-21T09:53:30Z</time>
      </trkpt>
      <trkpt lat="46.06394" lon="4.7817">
        <ele>204</ele>
        <time>2018-04-21T09:53:31Z</time>
      </trkpt>
      <trkpt lat="46.06395" lon="4.78161">
        <ele>202</ele>
        <time>2018-04-21T09:53:32Z</time>
      </trkpt>
      <trkpt lat="46.06395" lon="4.78151">
        <ele>201</ele>
        <time>2018-04-21T09:53:33Z</time>
      </trkpt>
      <trkpt lat="46.06395" lon="4.78141">
        <ele>201</ele>
        <time>2018-04-21T09:53:34Z</time>
      </trkpt>
      <trkpt lat="46.06395" lon="4.78132">
        <ele>201</ele>
        <time>2018-04-21T09:53:35Z</time>
      </trkpt>
      <trkpt lat="46.06395" lon="4.78123">
        <ele>201</ele>
        <time>2018-04-21T09:53:36Z</time>
      </trkpt>
      <trkpt lat="46.06397" lon="4.78113">
        <ele>200</ele>
        <time>2018-04-21T09:53:37Z</time>
      </trkpt>
      <trkpt lat="46.06398" lon="4.78103">
        <ele>200</ele>
        <time>2018-04-21T09:53:38Z</time>
      </trkpt>
      <trkpt lat="46.064" lon="4.78095">
        <ele>200</ele>
        <time>2018-04-21T09:53:39Z</time>
      </trkpt>
      <trkpt lat="46.06403" lon="4.78088">
        <ele>200</ele>
        <time>2018-04-21T09:53:40Z</time>
      </trkpt>
      <trkpt lat="46.06406" lon="4.78079">
        <ele>198</ele>
        <time>2018-04-21T09:53:41Z</time>
      </trkpt>
      <trkpt lat="46.06409" lon="4.78072">
        <ele>198</ele>
        <time>2018-04-21T09:53:42Z</time>
      </trkpt>
      <trkpt lat="46.06412" lon="4.78066">
        <ele>198</ele>
        <time>2018-04-21T09:53:43Z</time>
      </trkpt>
      <trkpt lat="46.06418" lon="4.78059">
        <ele>199</ele>
        <time>2018-04-21T09:53:44Z</time>
      </trkpt>
      <trkpt lat="46.06422" lon="4.78053">
        <ele>198</ele>
        <time>2018-04-21T09:53:45Z</time>
      </trkpt>
      <trkpt lat="46.06426" lon="4.78047">
        <ele>198</ele>
        <time>2018-04-21T09:53:46Z</time>
      </trkpt>
      <trkpt lat="46.0643" lon="4.78041">
        <ele>198</ele>
        <time>2018-04-21T09:53:47Z</time>
      </trkpt>
      <trkpt lat="46.06435" lon="4.78036">
        <ele>198</ele>
        <time>2018-04-21T09:53:48Z</time>
      </trkpt>
      <trkpt lat="46.06438" lon="4.7803">
        <ele>198</ele>
        <time>2018-04-21T09:53:49Z</time>
      </trkpt>
      <trkpt lat="46.06442" lon="4.78023">
        <ele>198</ele>
        <time>2018-04-21T09:53:50Z</time>
      </trkpt>
      <trkpt lat="46.06445" lon="4.78015">
        <ele>198</ele>
        <time>2018-04-21T09:53:51Z</time>
      </trkpt>
      <trkpt lat="46.06447" lon="4.78007">
        <ele>198</ele>
        <time>2018-04-21T09:53:52Z</time>
      </trkpt>
      <trkpt lat="46.06445" lon="4.78">
        <ele>195</ele>
        <time>2018-04-21T09:53:53Z</time>
      </trkpt>
      <trkpt lat="46.06448" lon="4.7799">
        <ele>195</ele>
        <time>2018-04-21T09:53:54Z</time>
      </trkpt>
      <trkpt lat="46.0645" lon="4.77981">
        <ele>195</ele>
        <time>2018-04-21T09:53:55Z</time>
      </trkpt>
      <trkpt lat="46.06451" lon="4.77971">
        <ele>195</ele>
        <time>2018-04-21T09:53:56Z</time>
      </trkpt>
      <trkpt lat="46.06452" lon="4.77961">
        <ele>195</ele>
        <time>2018-04-21T09:53:57Z</time>
      </trkpt>
      <trkpt lat="46.06456" lon="4.77952">
        <ele>195</ele>
        <time>2018-04-21T09:53:58Z</time>
      </trkpt>
      <trkpt lat="46.06459" lon="4.77942">
        <ele>195</ele>
        <time>2018-04-21T09:53:59Z</time>
      </trkpt>
      <trkpt lat="46.06462" lon="4.77932">
        <ele>195</ele>
        <time>2018-04-21T09:54:00Z</time>
      </trkpt>
      <trkpt lat="46.06465" lon="4.7792">
        <ele>195</ele>
        <time>2018-04-21T09:54:01Z</time>
      </trkpt>
      <trkpt lat="46.06469" lon="4.7791">
        <ele>193</ele>
        <time>2018-04-21T09:54:02Z</time>
      </trkpt>
      <trkpt lat="46.06473" lon="4.779">
        <ele>193</ele>
        <time>2018-04-21T09:54:03Z</time>
      </trkpt>
      <trkpt lat="46.06477" lon="4.77888">
        <ele>193</ele>
        <time>2018-04-21T09:54:04Z</time>
      </trkpt>
      <trkpt lat="46.06481" lon="4.77877">
        <ele>193</ele>
        <time>2018-04-21T09:54:05Z</time>
      </trkpt>
      <trkpt lat="46.06486" lon="4.77866">
        <ele>193</ele>
        <time>2018-04-21T09:54:06Z</time>
      </trkpt>
      <trkpt lat="46.06489" lon="4.77856">
        <ele>192</ele>
        <time>2018-04-21T09:54:07Z</time>
      </trkpt>
      <trkpt lat="46.06494" lon="4.77845">
        <ele>192</ele>
        <time>2018-04-21T09:54:08Z</time>
      </trkpt>
      <trkpt lat="46.06496" lon="4.77833">
        <ele>192</ele>
        <time>2018-04-21T09:54:09Z</time>
      </trkpt>
      <trkpt lat="46.065" lon="4.77823">
        <ele>192</ele>
        <time>2018-04-21T09:54:10Z</time>
      </trkpt>
      <trkpt lat="46.06505" lon="4.77812">
        <ele>192</ele>
        <time>2018-04-21T09:54:11Z</time>
      </trkpt>
      <trkpt lat="46.0651" lon="4.77801">
        <ele>192</ele>
        <time>2018-04-21T09:54:12Z</time>
      </trkpt>
      <trkpt lat="46.06515" lon="4.77791">
        <ele>192</ele>
        <time>2018-04-21T09:54:13Z</time>
      </trkpt>
      <trkpt lat="46.0652" lon="4.77781">
        <ele>192</ele>
        <time>2018-04-21T09:54:14Z</time>
      </trkpt>
      <trkpt lat="46.06526" lon="4.77772">
        <ele>192</ele>
        <time>2018-04-21T09:54:15Z</time>
      </trkpt>
      <trkpt lat="46.06532" lon="4.77763">
        <ele>192</ele>
        <time>2018-04-21T09:54:16Z</time>
      </trkpt>
      <trkpt lat="46.06537" lon="4.77752">
        <ele>191</ele>
        <time>2018-04-21T09:54:17Z</time>
      </trkpt>
      <trkpt lat="46.06541" lon="4.77744">
        <ele>190</ele>
        <time>2018-04-21T09:54:18Z</time>
      </trkpt>
      <trkpt lat="46.06545" lon="4.77734">
        <ele>190</ele>
        <time>2018-04-21T09:54:19Z</time>
      </trkpt>
      <trkpt lat="46.0655" lon="4.77724">
        <ele>189</ele>
        <time>2018-04-21T09:54:20Z</time>
      </trkpt>
      <trkpt lat="46.06556" lon="4.77717">
        <ele>189</ele>
        <time>2018-04-21T09:54:21Z</time>
      </trkpt>
      <trkpt lat="46.06563" lon="4.7771">
        <ele>189</ele>
        <time>2018-04-21T09:54:22Z</time>
      </trkpt>
      <trkpt lat="46.0657" lon="4.77704">
        <ele>189</ele>
        <time>2018-04-21T09:54:23Z</time>
      </trkpt>
      <trkpt lat="46.06578" lon="4.777">
        <ele>188</ele>
        <time>2018-04-21T09:54:24Z</time>
      </trkpt>
      <trkpt lat="46.06585" lon="4.77695">
        <ele>188</ele>
        <time>2018-04-21T09:54:25Z</time>
      </trkpt>
      <trkpt lat="46.06591" lon="4.7769">
        <ele>187</ele>
        <time>2018-04-21T09:54:26Z</time>
      </trkpt>
      <trkpt lat="46.06598" lon="4.77686">
        <ele>187</ele>
        <time>2018-04-21T09:54:27Z</time>
      </trkpt>
      <trkpt lat="46.06605" lon="4.77681">
        <ele>187</ele>
        <time>2018-04-21T09:54:28Z</time>
      </trkpt>
      <trkpt lat="46.06611" lon="4.77675">
        <ele>187</ele>
        <time>2018-04-21T09:54:29Z</time>
      </trkpt>
      <trkpt lat="46.06617" lon="4.77669">
        <ele>187</ele>
        <time>2018-04-21T09:54:30Z</time>
      </trkpt>
      <trkpt lat="46.06621" lon="4.77658">
        <ele>185</ele>
        <time>2018-04-21T09:54:31Z</time>
      </trkpt>
      <trkpt lat="46.06626" lon="4.77647">
        <ele>185</ele>
        <time>2018-04-21T09:54:32Z</time>
      </trkpt>
      <trkpt lat="46.06628" lon="4.77636">
        <ele>185</ele>
        <time>2018-04-21T09:54:33Z</time>
      </trkpt>
      <trkpt lat="46.06632" lon="4.7763">
        <ele>185</ele>
        <time>2018-04-21T09:54:34Z</time>
      </trkpt>
      <trkpt lat="46.06633" lon="4.77617">
        <ele>185</ele>
        <time>2018-04-21T09:54:35Z</time>
      </trkpt>
      <trkpt lat="46.06634" lon="4.77606">
        <ele>185</ele>
        <time>2018-04-21T09:54:36Z</time>
      </trkpt>
      <trkpt lat="46.06634" lon="4.77595">
        <ele>185</ele>
        <time>2018-04-21T09:54:37Z</time>
      </trkpt>
      <trkpt lat="46.06635" lon="4.77585">
        <ele>184</ele>
        <time>2018-04-21T09:54:38Z</time>
      </trkpt>
      <trkpt lat="46.06635" lon="4.77572">
        <ele>183</ele>
        <time>2018-04-21T09:54:39Z</time>
      </trkpt>
      <trkpt lat="46.06634" lon="4.77559">
        <ele>183</ele>
        <time>2018-04-21T09:54:40Z</time>
      </trkpt>
      <trkpt lat="46.06631" lon="4.77547">
        <ele>183</ele>
        <time>2018-04-21T09:54:41Z</time>
      </trkpt>
      <trkpt lat="46.06629" lon="4.77535">
        <ele>183</ele>
        <time>2018-04-21T09:54:42Z</time>
      </trkpt>
      <trkpt lat="46.06626" lon="4.77523">
        <ele>182</ele>
        <time>2018-04-21T09:54:43Z</time>
      </trkpt>
      <trkpt lat="46.06622" lon="4.77512">
        <ele>182</ele>
        <time>2018-04-21T09:54:44Z</time>
      </trkpt>
      <trkpt lat="46.06617" lon="4.77501">
        <ele>183</ele>
        <time>2018-04-21T09:54:45Z</time>
      </trkpt>
      <trkpt lat="46.0661" lon="4.7749">
        <ele>181</ele>
        <time>2018-04-21T09:54:46Z</time>
      </trkpt>
      <trkpt lat="46.06607" lon="4.77482">
        <ele>181</ele>
        <time>2018-04-21T09:54:47Z</time>
      </trkpt>
      <trkpt lat="46.06603" lon="4.77474">
        <ele>181</ele>
        <time>2018-04-21T09:54:48Z</time>
      </trkpt>
      <trkpt lat="46.06603" lon="4.77461">
        <ele>180</ele>
        <time>2018-04-21T09:54:50Z</time>
      </trkpt>
      <trkpt lat="46.06603" lon="4.77453">
        <ele>180</ele>
        <time>2018-04-21T09:54:51Z</time>
      </trkpt>
      <trkpt lat="46.06606" lon="4.77446">
        <ele>180</ele>
        <time>2018-04-21T09:54:52Z</time>
      </trkpt>
      <trkpt lat="46.0661" lon="4.77438">
        <ele>179</ele>
        <time>2018-04-21T09:54:53Z</time>
      </trkpt>
      <trkpt lat="46.06611" lon="4.77429">
        <ele>179</ele>
        <time>2018-04-21T09:54:54Z</time>
      </trkpt>
      <trkpt lat="46.06614" lon="4.7742">
        <ele>179</ele>
        <time>2018-04-21T09:54:55Z</time>
      </trkpt>
      <trkpt lat="46.06618" lon="4.77413">
        <ele>177</ele>
        <time>2018-04-21T09:54:56Z</time>
      </trkpt>
      <trkpt lat="46.06622" lon="4.77405">
        <ele>177</ele>
        <time>2018-04-21T09:54:57Z</time>
      </trkpt>
      <trkpt lat="46.06625" lon="4.77396">
        <ele>177</ele>
        <time>2018-04-21T09:54:58Z</time>
      </trkpt>
      <trkpt lat="46.06628" lon="4.77388">
        <ele>176</ele>
        <time>2018-04-21T09:54:59Z</time>
      </trkpt>
      <trkpt lat="46.06633" lon="4.77381">
        <ele>176</ele>
        <time>2018-04-21T09:55:00Z</time>
      </trkpt>
      <trkpt lat="46.06637" lon="4.77373">
        <ele>176</ele>
        <time>2018-04-21T09:55:01Z</time>
      </trkpt>
      <trkpt lat="46.06639" lon="4.77363">
        <ele>176</ele>
        <time>2018-04-21T09:55:02Z</time>
      </trkpt>
      <trkpt lat="46.06642" lon="4.77355">
        <ele>176</ele>
        <time>2018-04-21T09:55:03Z</time>
      </trkpt>
      <trkpt lat="46.06644" lon="4.77346">
        <ele>175</ele>
        <time>2018-04-21T09:55:04Z</time>
      </trkpt>
      <trkpt lat="46.06647" lon="4.77338">
        <ele>175</ele>
        <time>2018-04-21T09:55:05Z</time>
      </trkpt>
      <trkpt lat="46.0665" lon="4.7733">
        <ele>174</ele>
        <time>2018-04-21T09:55:06Z</time>
      </trkpt>
      <trkpt lat="46.06654" lon="4.77323">
        <ele>174</ele>
        <time>2018-04-21T09:55:07Z</time>
      </trkpt>
      <trkpt lat="46.06655" lon="4.77311">
        <ele>174</ele>
        <time>2018-04-21T09:55:08Z</time>
      </trkpt>
      <trkpt lat="46.06658" lon="4.77303">
        <ele>174</ele>
        <time>2018-04-21T09:55:09Z</time>
      </trkpt>
      <trkpt lat="46.06662" lon="4.77295">
        <ele>174</ele>
        <time>2018-04-21T09:55:10Z</time>
      </trkpt>
      <trkpt lat="46.06664" lon="4.77287">
        <ele>174</ele>
        <time>2018-04-21T09:55:11Z</time>
      </trkpt>
      <trkpt lat="46.06667" lon="4.77279">
        <ele>173</ele>
        <time>2018-04-21T09:55:12Z</time>
      </trkpt>
      <trkpt lat="46.0667" lon="4.77272">
        <ele>173</ele>
        <time>2018-04-21T09:55:13Z</time>
      </trkpt>
      <trkpt lat="46.06673" lon="4.77265">
        <ele>173</ele>
        <time>2018-04-21T09:55:14Z</time>
      </trkpt>
      <trkpt lat="46.06676" lon="4.77258">
        <ele>173</ele>
        <time>2018-04-21T09:55:15Z</time>
      </trkpt>
      <trkpt lat="46.06678" lon="4.77252">
        <ele>173</ele>
        <time>2018-04-21T09:55:16Z</time>
      </trkpt>
      <trkpt lat="46.0668" lon="4.77244">
        <ele>173</ele>
        <time>2018-04-21T09:55:17Z</time>
      </trkpt>
      <trkpt lat="46.06682" lon="4.77237">
        <ele>172</ele>
        <time>2018-04-21T09:55:18Z</time>
      </trkpt>
      <trkpt lat="46.06684" lon="4.7723">
        <ele>172</ele>
        <time>2018-04-21T09:55:19Z</time>
      </trkpt>
      <trkpt lat="46.06686" lon="4.77223">
        <ele>172</ele>
        <time>2018-04-21T09:55:20Z</time>
      </trkpt>
      <trkpt lat="46.06688" lon="4.77216">
        <ele>172</ele>
        <time>2018-04-21T09:55:21Z</time>
      </trkpt>
      <trkpt lat="46.06691" lon="4.7721">
        <ele>172</ele>
        <time>2018-04-21T09:55:22Z</time>
      </trkpt>
      <trkpt lat="46.06695" lon="4.77205">
        <ele>172</ele>
        <time>2018-04-21T09:55:23Z</time>
      </trkpt>
      <trkpt lat="46.06703" lon="4.772">
        <ele>172</ele>
        <time>2018-04-21T09:55:25Z</time>
      </trkpt>
      <trkpt lat="46.06708" lon="4.772">
        <ele>172</ele>
        <time>2018-04-21T09:55:26Z</time>
      </trkpt>
      <trkpt lat="46.06714" lon="4.77198">
        <ele>172</ele>
        <time>2018-04-21T09:55:27Z</time>
      </trkpt>
      <trkpt lat="46.06719" lon="4.77197">
        <ele>172</ele>
        <time>2018-04-21T09:55:28Z</time>
      </trkpt>
      <trkpt lat="46.06726" lon="4.77195">
        <ele>172</ele>
        <time>2018-04-21T09:55:29Z</time>
      </trkpt>
      <trkpt lat="46.06731" lon="4.77194">
        <ele>172</ele>
        <time>2018-04-21T09:55:30Z</time>
      </trkpt>
      <trkpt lat="46.06736" lon="4.7719">
        <ele>172</ele>
        <time>2018-04-21T09:55:31Z</time>
      </trkpt>
      <trkpt lat="46.06742" lon="4.77186">
        <ele>172</ele>
        <time>2018-04-21T09:55:32Z</time>
      </trkpt>
      <trkpt lat="46.06747" lon="4.77181">
        <ele>172</ele>
        <time>2018-04-21T09:55:33Z</time>
      </trkpt>
      <trkpt lat="46.06751" lon="4.77178">
        <ele>172</ele>
        <time>2018-04-21T09:55:34Z</time>
      </trkpt>
      <trkpt lat="46.06755" lon="4.77173">
        <ele>172</ele>
        <time>2018-04-21T09:55:35Z</time>
      </trkpt>
      <trkpt lat="46.06759" lon="4.77167">
        <ele>172</ele>
        <time>2018-04-21T09:55:36Z</time>
      </trkpt>
      <trkpt lat="46.06763" lon="4.77162">
        <ele>172</ele>
        <time>2018-04-21T09:55:37Z</time>
      </trkpt>
      <trkpt lat="46.06768" lon="4.77157">
        <ele>172</ele>
        <time>2018-04-21T09:55:38Z</time>
      </trkpt>
      <trkpt lat="46.06772" lon="4.77153">
        <ele>172</ele>
        <time>2018-04-21T09:55:39Z</time>
      </trkpt>
      <trkpt lat="46.06777" lon="4.77147">
        <ele>172</ele>
        <time>2018-04-21T09:55:40Z</time>
      </trkpt>
      <trkpt lat="46.06781" lon="4.77142">
        <ele>172</ele>
        <time>2018-04-21T09:55:41Z</time>
      </trkpt>
      <trkpt lat="46.06786" lon="4.77135">
        <ele>172</ele>
        <time>2018-04-21T09:55:42Z</time>
      </trkpt>
      <trkpt lat="46.0679" lon="4.7713">
        <ele>172</ele>
        <time>2018-04-21T09:55:43Z</time>
      </trkpt>
      <trkpt lat="46.06795" lon="4.77125">
        <ele>172</ele>
        <time>2018-04-21T09:55:44Z</time>
      </trkpt>
      <trkpt lat="46.06798" lon="4.7712">
        <ele>172</ele>
        <time>2018-04-21T09:55:45Z</time>
      </trkpt>
      <trkpt lat="46.06804" lon="4.77116">
        <ele>172</ele>
        <time>2018-04-21T09:55:46Z</time>
      </trkpt>
      <trkpt lat="46.06809" lon="4.7711">
        <ele>172</ele>
        <time>2018-04-21T09:55:47Z</time>
      </trkpt>
      <trkpt lat="46.06814" lon="4.77106">
        <ele>172</ele>
        <time>2018-04-21T09:55:48Z</time>
      </trkpt>
      <trkpt lat="46.06818" lon="4.77101">
        <ele>173</ele>
        <time>2018-04-21T09:55:49Z</time>
      </trkpt>
      <trkpt lat="46.06825" lon="4.77098">
        <ele>173</ele>
        <time>2018-04-21T09:55:50Z</time>
      </trkpt>
      <trkpt lat="46.0683" lon="4.77094">
        <ele>173</ele>
        <time>2018-04-21T09:55:51Z</time>
      </trkpt>
      <trkpt lat="46.06835" lon="4.77091">
        <ele>173</ele>
        <time>2018-04-21T09:55:52Z</time>
      </trkpt>
      <trkpt lat="46.0684" lon="4.77088">
        <ele>173</ele>
        <time>2018-04-21T09:55:53Z</time>
      </trkpt>
      <trkpt lat="46.06846" lon="4.77086">
        <ele>173</ele>
        <time>2018-04-21T09:55:54Z</time>
      </trkpt>
      <trkpt lat="46.06851" lon="4.77084">
        <ele>173</ele>
        <time>2018-04-21T09:55:55Z</time>
      </trkpt>
      <trkpt lat="46.06856" lon="4.77082">
        <ele>173</ele>
        <time>2018-04-21T09:55:56Z</time>
      </trkpt>
      <trkpt lat="46.06862" lon="4.77081">
        <ele>173</ele>
        <time>2018-04-21T09:55:57Z</time>
      </trkpt>
      <trkpt lat="46.06866" lon="4.77079">
        <ele>173</ele>
        <time>2018-04-21T09:55:58Z</time>
      </trkpt>
      <trkpt lat="46.06872" lon="4.77078">
        <ele>173</ele>
        <time>2018-04-21T09:55:59Z</time>
      </trkpt>
      <trkpt lat="46.06879" lon="4.77077">
        <ele>173</ele>
        <time>2018-04-21T09:56:00Z</time>
      </trkpt>
      <trkpt lat="46.06885" lon="4.77078">
        <ele>173</ele>
        <time>2018-04-21T09:56:01Z</time>
      </trkpt>
      <trkpt lat="46.06891" lon="4.77077">
        <ele>173</ele>
        <time>2018-04-21T09:56:02Z</time>
      </trkpt>
      <trkpt lat="46.06898" lon="4.77076">
        <ele>173</ele>
        <time>2018-04-21T09:56:03Z</time>
      </trkpt>
      <trkpt lat="46.06903" lon="4.77077">
        <ele>173</ele>
        <time>2018-04-21T09:56:04Z</time>
      </trkpt>
      <trkpt lat="46.06909" lon="4.77077">
        <ele>173</ele>
        <time>2018-04-21T09:56:05Z</time>
      </trkpt>
      <trkpt lat="46.06914" lon="4.77076">
        <ele>173</ele>
        <time>2018-04-21T09:56:06Z</time>
      </trkpt>
      <trkpt lat="46.0692" lon="4.77076">
        <ele>173</ele>
        <time>2018-04-21T09:56:07Z</time>
      </trkpt>
      <trkpt lat="46.06926" lon="4.77076">
        <ele>173</ele>
        <time>2018-04-21T09:56:08Z</time>
      </trkpt>
      <trkpt lat="46.06932" lon="4.77076">
        <ele>173</ele>
        <time>2018-04-21T09:56:09Z</time>
      </trkpt>
      <trkpt lat="46.06937" lon="4.77076">
        <ele>173</ele>
        <time>2018-04-21T09:56:10Z</time>
      </trkpt>
      <trkpt lat="46.06942" lon="4.77073">
        <ele>173</ele>
        <time>2018-04-21T09:56:11Z</time>
      </trkpt>
      <trkpt lat="46.06946" lon="4.77071">
        <ele>173</ele>
        <time>2018-04-21T09:56:12Z</time>
      </trkpt>
      <trkpt lat="46.06952" lon="4.77071">
        <ele>173</ele>
        <time>2018-04-21T09:56:13Z</time>
      </trkpt>
      <trkpt lat="46.06957" lon="4.77071">
        <ele>173</ele>
        <time>2018-04-21T09:56:14Z</time>
      </trkpt>
      <trkpt lat="46.0696" lon="4.77071">
        <ele>173</ele>
        <time>2018-04-21T09:56:15Z</time>
      </trkpt>
      <trkpt lat="46.06966" lon="4.7707">
        <ele>173</ele>
        <time>2018-04-21T09:56:16Z</time>
      </trkpt>
      <trkpt lat="46.06972" lon="4.77069">
        <ele>173</ele>
        <time>2018-04-21T09:56:17Z</time>
      </trkpt>
      <trkpt lat="46.06977" lon="4.77064">
        <ele>173</ele>
        <time>2018-04-21T09:56:18Z</time>
      </trkpt>
      <trkpt lat="46.06983" lon="4.77062">
        <ele>173</ele>
        <time>2018-04-21T09:56:19Z</time>
      </trkpt>
      <trkpt lat="46.06986" lon="4.77057">
        <ele>173</ele>
        <time>2018-04-21T09:56:20Z</time>
      </trkpt>
      <trkpt lat="46.06989" lon="4.77049">
        <ele>173</ele>
        <time>2018-04-21T09:56:21Z</time>
      </trkpt>
      <trkpt lat="46.06992" lon="4.77041">
        <ele>173</ele>
        <time>2018-04-21T09:56:22Z</time>
      </trkpt>
      <trkpt lat="46.06994" lon="4.77033">
        <ele>173</ele>
        <time>2018-04-21T09:56:23Z</time>
      </trkpt>
      <trkpt lat="46.06997" lon="4.77026">
        <ele>173</ele>
        <time>2018-04-21T09:56:24Z</time>
      </trkpt>
      <trkpt lat="46.07001" lon="4.7702">
        <ele>174</ele>
        <time>2018-04-21T09:56:25Z</time>
      </trkpt>
      <trkpt lat="46.07005" lon="4.77014">
        <ele>174</ele>
        <time>2018-04-21T09:56:26Z</time>
      </trkpt>
      <trkpt lat="46.07009" lon="4.77006">
        <ele>173</ele>
        <time>2018-04-21T09:56:27Z</time>
      </trkpt>
      <trkpt lat="46.07013" lon="4.76998">
        <ele>173</ele>
        <time>2018-04-21T09:56:28Z</time>
      </trkpt>
      <trkpt lat="46.07017" lon="4.76991">
        <ele>173</ele>
        <time>2018-04-21T09:56:29Z</time>
      </trkpt>
      <trkpt lat="46.07022" lon="4.76985">
        <ele>173</ele>
        <time>2018-04-21T09:56:30Z</time>
      </trkpt>
      <trkpt lat="46.07025" lon="4.76978">
        <ele>173</ele>
        <time>2018-04-21T09:56:31Z</time>
      </trkpt>
      <trkpt lat="46.07029" lon="4.7697">
        <ele>173</ele>
        <time>2018-04-21T09:56:32Z</time>
      </trkpt>
      <trkpt lat="46.07031" lon="4.76964">
        <ele>173</ele>
        <time>2018-04-21T09:56:33Z</time>
      </trkpt>
      <trkpt lat="46.07035" lon="4.76957">
        <ele>173</ele>
        <time>2018-04-21T09:56:34Z</time>
      </trkpt>
      <trkpt lat="46.0704" lon="4.76949">
        <ele>173</ele>
        <time>2018-04-21T09:56:35Z</time>
      </trkpt>
      <trkpt lat="46.07043" lon="4.76941">
        <ele>173</ele>
        <time>2018-04-21T09:56:36Z</time>
      </trkpt>
      <trkpt lat="46.07046" lon="4.7693">
        <ele>173</ele>
        <time>2018-04-21T09:56:37Z</time>
      </trkpt>
      <trkpt lat="46.07051" lon="4.76922">
        <ele>173</ele>
        <time>2018-04-21T09:56:38Z</time>
      </trkpt>
      <trkpt lat="46.07056" lon="4.76914">
        <ele>172</ele>
        <time>2018-04-21T09:56:39Z</time>
      </trkpt>
      <trkpt lat="46.0706" lon="4.76906">
        <ele>172</ele>
        <time>2018-04-21T09:56:40Z</time>
      </trkpt>
      <trkpt lat="46.07064" lon="4.76899">
        <ele>172</ele>
        <time>2018-04-21T09:56:41Z</time>
      </trkpt>
      <trkpt lat="46.07068" lon="4.7689">
        <ele>172</ele>
        <time>2018-04-21T09:56:42Z</time>
      </trkpt>
      <trkpt lat="46.07073" lon="4.76882">
        <ele>172</ele>
        <time>2018-04-21T09:56:43Z</time>
      </trkpt>
      <trkpt lat="46.07078" lon="4.76875">
        <ele>172</ele>
        <time>2018-04-21T09:56:44Z</time>
      </trkpt>
      <trkpt lat="46.07082" lon="4.76866">
        <ele>172</ele>
        <time>2018-04-21T09:56:45Z</time>
      </trkpt>
      <trkpt lat="46.07085" lon="4.76858">
        <ele>173</ele>
        <time>2018-04-21T09:56:46Z</time>
      </trkpt>
      <trkpt lat="46.07089" lon="4.76849">
        <ele>172</ele>
        <time>2018-04-21T09:56:47Z</time>
      </trkpt>
      <trkpt lat="46.07093" lon="4.76841">
        <ele>172</ele>
        <time>2018-04-21T09:56:48Z</time>
      </trkpt>
      <trkpt lat="46.07098" lon="4.76833">
        <ele>172</ele>
        <time>2018-04-21T09:56:49Z</time>
      </trkpt>
      <trkpt lat="46.07101" lon="4.76826">
        <ele>172</ele>
        <time>2018-04-21T09:56:50Z</time>
      </trkpt>
      <trkpt lat="46.07106" lon="4.76818">
        <ele>172</ele>
        <time>2018-04-21T09:56:51Z</time>
      </trkpt>
      <trkpt lat="46.07109" lon="4.76811">
        <ele>172</ele>
        <time>2018-04-21T09:56:52Z</time>
      </trkpt>
      <trkpt lat="46.07113" lon="4.76804">
        <ele>172</ele>
        <time>2018-04-21T09:56:53Z</time>
      </trkpt>
      <trkpt lat="46.07117" lon="4.76797">
        <ele>172</ele>
        <time>2018-04-21T09:56:54Z</time>
      </trkpt>
      <trkpt lat="46.0712" lon="4.76791">
        <ele>171</ele>
        <time>2018-04-21T09:56:55Z</time>
      </trkpt>
      <trkpt lat="46.07124" lon="4.76784">
        <ele>171</ele>
        <time>2018-04-21T09:56:56Z</time>
      </trkpt>
      <trkpt lat="46.07129" lon="4.76777">
        <ele>171</ele>
        <time>2018-04-21T09:56:57Z</time>
      </trkpt>
      <trkpt lat="46.07132" lon="4.76769">
        <ele>171</ele>
        <time>2018-04-21T09:56:58Z</time>
      </trkpt>
      <trkpt lat="46.07135" lon="4.76762">
        <ele>171</ele>
        <time>2018-04-21T09:56:59Z</time>
      </trkpt>
      <trkpt lat="46.07139" lon="4.76755">
        <ele>171</ele>
        <time>2018-04-21T09:57:00Z</time>
      </trkpt>
      <trkpt lat="46.07142" lon="4.76747">
        <ele>171</ele>
        <time>2018-04-21T09:57:01Z</time>
      </trkpt>
      <trkpt lat="46.07145" lon="4.7674">
        <ele>171</ele>
        <time>2018-04-21T09:57:02Z</time>
      </trkpt>
      <trkpt lat="46.07149" lon="4.76733">
        <ele>171</ele>
        <time>2018-04-21T09:57:03Z</time>
      </trkpt>
      <trkpt lat="46.07153" lon="4.76727">
        <ele>171</ele>
        <time>2018-04-21T09:57:04Z</time>
      </trkpt>
      <trkpt lat="46.07156" lon="4.76721">
        <ele>170</ele>
        <time>2018-04-21T09:57:05Z</time>
      </trkpt>
      <trkpt lat="46.07159" lon="4.76714">
        <ele>170</ele>
        <time>2018-04-21T09:57:06Z</time>
      </trkpt>
      <trkpt lat="46.07162" lon="4.76707">
        <ele>170</ele>
        <time>2018-04-21T09:57:07Z</time>
      </trkpt>
      <trkpt lat="46.07166" lon="4.767">
        <ele>170</ele>
        <time>2018-04-21T09:57:08Z</time>
      </trkpt>
      <trkpt lat="46.0717" lon="4.76693">
        <ele>171</ele>
        <time>2018-04-21T09:57:09Z</time>
      </trkpt>
      <trkpt lat="46.07174" lon="4.76686">
        <ele>170</ele>
        <time>2018-04-21T09:57:10Z</time>
      </trkpt>
      <trkpt lat="46.07177" lon="4.76679">
        <ele>170</ele>
        <time>2018-04-21T09:57:11Z</time>
      </trkpt>
      <trkpt lat="46.07181" lon="4.76672">
        <ele>170</ele>
        <time>2018-04-21T09:57:12Z</time>
      </trkpt>
      <trkpt lat="46.07185" lon="4.76665">
        <ele>170</ele>
        <time>2018-04-21T09:57:13Z</time>
      </trkpt>
      <trkpt lat="46.07189" lon="4.76658">
        <ele>170</ele>
        <time>2018-04-21T09:57:14Z</time>
      </trkpt>
      <trkpt lat="46.07192" lon="4.76652">
        <ele>170</ele>
        <time>2018-04-21T09:57:15Z</time>
      </trkpt>
      <trkpt lat="46.07197" lon="4.76647">
        <ele>170</ele>
        <time>2018-04-21T09:57:16Z</time>
      </trkpt>
      <trkpt lat="46.07201" lon="4.7664">
        <ele>170</ele>
        <time>2018-04-21T09:57:17Z</time>
      </trkpt>
      <trkpt lat="46.07205" lon="4.76634">
        <ele>170</ele>
        <time>2018-04-21T09:57:18Z</time>
      </trkpt>
      <trkpt lat="46.07209" lon="4.76628">
        <ele>171</ele>
        <time>2018-04-21T09:57:19Z</time>
      </trkpt>
      <trkpt lat="46.07213" lon="4.76621">
        <ele>170</ele>
        <time>2018-04-21T09:57:20Z</time>
      </trkpt>
      <trkpt lat="46.07217" lon="4.76615">
        <ele>170</ele>
        <time>2018-04-21T09:57:21Z</time>
      </trkpt>
      <trkpt lat="46.07221" lon="4.7661">
        <ele>170</ele>
        <time>2018-04-21T09:57:22Z</time>
      </trkpt>
      <trkpt lat="46.07225" lon="4.76606">
        <ele>170</ele>
        <time>2018-04-21T09:57:23Z</time>
      </trkpt>
      <trkpt lat="46.07229" lon="4.766">
        <ele>170</ele>
        <time>2018-04-21T09:57:24Z</time>
      </trkpt>
      <trkpt lat="46.07233" lon="4.76594">
        <ele>170</ele>
        <time>2018-04-21T09:57:25Z</time>
      </trkpt>
      <trkpt lat="46.07237" lon="4.76587">
        <ele>170</ele>
        <time>2018-04-21T09:57:26Z</time>
      </trkpt>
      <trkpt lat="46.07242" lon="4.76582">
        <ele>170</ele>
        <time>2018-04-21T09:57:27Z</time>
      </trkpt>
      <trkpt lat="46.07245" lon="4.76577">
        <ele>170</ele>
        <time>2018-04-21T09:57:28Z</time>
      </trkpt>
      <trkpt lat="46.07249" lon="4.76573">
        <ele>170</ele>
        <time>2018-04-21T09:57:29Z</time>
      </trkpt>
      <trkpt lat="46.07253" lon="4.76567">
        <ele>170</ele>
        <time>2018-04-21T09:57:30Z</time>
      </trkpt>
      <trkpt lat="46.07258" lon="4.76563">
        <ele>170</ele>
        <time>2018-04-21T09:57:31Z</time>
      </trkpt>
      <trkpt lat="46.07263" lon="4.76557">
        <ele>170</ele>
        <time>2018-04-21T09:57:32Z</time>
      </trkpt>
      <trkpt lat="46.07267" lon="4.76553">
        <ele>170</ele>
        <time>2018-04-21T09:57:33Z</time>
      </trkpt>
      <trkpt lat="46.07272" lon="4.76547">
        <ele>170</ele>
        <time>2018-04-21T09:57:34Z</time>
      </trkpt>
      <trkpt lat="46.07276" lon="4.76542">
        <ele>170</ele>
        <time>2018-04-21T09:57:35Z</time>
      </trkpt>
      <trkpt lat="46.07281" lon="4.76537">
        <ele>170</ele>
        <time>2018-04-21T09:57:36Z</time>
      </trkpt>
      <trkpt lat="46.07286" lon="4.76531">
        <ele>170</ele>
        <time>2018-04-21T09:57:37Z</time>
      </trkpt>
      <trkpt lat="46.07292" lon="4.76526">
        <ele>170</ele>
        <time>2018-04-21T09:57:38Z</time>
      </trkpt>
      <trkpt lat="46.07297" lon="4.76521">
        <ele>170</ele>
        <time>2018-04-21T09:57:39Z</time>
      </trkpt>
      <trkpt lat="46.07301" lon="4.76515">
        <ele>170</ele>
        <time>2018-04-21T09:57:40Z</time>
      </trkpt>
      <trkpt lat="46.07307" lon="4.76509">
        <ele>170</ele>
        <time>2018-04-21T09:57:41Z</time>
      </trkpt>
      <trkpt lat="46.07312" lon="4.76504">
        <ele>170</ele>
        <time>2018-04-21T09:57:42Z</time>
      </trkpt>
      <trkpt lat="46.07318" lon="4.76499">
        <ele>170</ele>
        <time>2018-04-21T09:57:43Z</time>
      </trkpt>
      <trkpt lat="46.07323" lon="4.76494">
        <ele>170</ele>
        <time>2018-04-21T09:57:44Z</time>
      </trkpt>
      <trkpt lat="46.07328" lon="4.76488">
        <ele>170</ele>
        <time>2018-04-21T09:57:45Z</time>
      </trkpt>
      <trkpt lat="46.07333" lon="4.76483">
        <ele>170</ele>
        <time>2018-04-21T09:57:46Z</time>
      </trkpt>
      <trkpt lat="46.07338" lon="4.76479">
        <ele>171</ele>
        <time>2018-04-21T09:57:47Z</time>
      </trkpt>
      <trkpt lat="46.07343" lon="4.76475">
        <ele>171</ele>
        <time>2018-04-21T09:57:48Z</time>
      </trkpt>
      <trkpt lat="46.07348" lon="4.7647">
        <ele>171</ele>
        <time>2018-04-21T09:57:49Z</time>
      </trkpt>
      <trkpt lat="46.07352" lon="4.76465">
        <ele>171</ele>
        <time>2018-04-21T09:57:50Z</time>
      </trkpt>
      <trkpt lat="46.07357" lon="4.7646">
        <ele>171</ele>
        <time>2018-04-21T09:57:51Z</time>
      </trkpt>
      <trkpt lat="46.07361" lon="4.76455">
        <ele>171</ele>
        <time>2018-04-21T09:57:52Z</time>
      </trkpt>
      <trkpt lat="46.07366" lon="4.76452">
        <ele>171</ele>
        <time>2018-04-21T09:57:53Z</time>
      </trkpt>
      <trkpt lat="46.0737" lon="4.76447">
        <ele>171</ele>
        <time>2018-04-21T09:57:54Z</time>
      </trkpt>
      <trkpt lat="46.07375" lon="4.76443">
        <ele>171</ele>
        <time>2018-04-21T09:57:55Z</time>
      </trkpt>
      <trkpt lat="46.0738" lon="4.76438">
        <ele>171</ele>
        <time>2018-04-21T09:57:56Z</time>
      </trkpt>
      <trkpt lat="46.07385" lon="4.76433">
        <ele>171</ele>
        <time>2018-04-21T09:57:57Z</time>
      </trkpt>
      <trkpt lat="46.07389" lon="4.76429">
        <ele>171</ele>
        <time>2018-04-21T09:57:58Z</time>
      </trkpt>
      <trkpt lat="46.07393" lon="4.76424">
        <ele>171</ele>
        <time>2018-04-21T09:57:59Z</time>
      </trkpt>
      <trkpt lat="46.07397" lon="4.7642">
        <ele>171</ele>
        <time>2018-04-21T09:58:00Z</time>
      </trkpt>
      <trkpt lat="46.07401" lon="4.76415">
        <ele>171</ele>
        <time>2018-04-21T09:58:01Z</time>
      </trkpt>
      <trkpt lat="46.07406" lon="4.7641">
        <ele>171</ele>
        <time>2018-04-21T09:58:02Z</time>
      </trkpt>
      <trkpt lat="46.07411" lon="4.76406">
        <ele>171</ele>
        <time>2018-04-21T09:58:03Z</time>
      </trkpt>
      <trkpt lat="46.07415" lon="4.76402">
        <ele>171</ele>
        <time>2018-04-21T09:58:04Z</time>
      </trkpt>
      <trkpt lat="46.07419" lon="4.76397">
        <ele>171</ele>
        <time>2018-04-21T09:58:05Z</time>
      </trkpt>
      <trkpt lat="46.07423" lon="4.76393">
        <ele>171</ele>
        <time>2018-04-21T09:58:06Z</time>
      </trkpt>
      <trkpt lat="46.07429" lon="4.76388">
        <ele>171</ele>
        <time>2018-04-21T09:58:07Z</time>
      </trkpt>
      <trkpt lat="46.07431" lon="4.76385">
        <ele>171</ele>
        <time>2018-04-21T09:58:08Z</time>
      </trkpt>
      <trkpt lat="46.07435" lon="4.7638">
        <ele>171</ele>
        <time>2018-04-21T09:58:09Z</time>
      </trkpt>
      <trkpt lat="46.07439" lon="4.76376">
        <ele>171</ele>
        <time>2018-04-21T09:58:10Z</time>
      </trkpt>
      <trkpt lat="46.07442" lon="4.76371">
        <ele>172</ele>
        <time>2018-04-21T09:58:11Z</time>
      </trkpt>
      <trkpt lat="46.07446" lon="4.76367">
        <ele>172</ele>
        <time>2018-04-21T09:58:12Z</time>
      </trkpt>
      <trkpt lat="46.0745" lon="4.76361">
        <ele>172</ele>
        <time>2018-04-21T09:58:13Z</time>
      </trkpt>
      <trkpt lat="46.07454" lon="4.76355">
        <ele>172</ele>
        <time>2018-04-21T09:58:14Z</time>
      </trkpt>
      <trkpt lat="46.07457" lon="4.76349">
        <ele>172</ele>
        <time>2018-04-21T09:58:15Z</time>
      </trkpt>
      <trkpt lat="46.07461" lon="4.76345">
        <ele>172</ele>
        <time>2018-04-21T09:58:16Z</time>
      </trkpt>
      <trkpt lat="46.07466" lon="4.76343">
        <ele>172</ele>
        <time>2018-04-21T09:58:17Z</time>
      </trkpt>
      <trkpt lat="46.07471" lon="4.76341">
        <ele>172</ele>
        <time>2018-04-21T09:58:18Z</time>
      </trkpt>
      <trkpt lat="46.07476" lon="4.76341">
        <ele>172</ele>
        <time>2018-04-21T09:58:19Z</time>
      </trkpt>
      <trkpt lat="46.0748" lon="4.7634">
        <ele>173</ele>
        <time>2018-04-21T09:58:20Z</time>
      </trkpt>
      <trkpt lat="46.07485" lon="4.76337">
        <ele>173</ele>
        <time>2018-04-21T09:58:21Z</time>
      </trkpt>
      <trkpt lat="46.07489" lon="4.76333">
        <ele>173</ele>
        <time>2018-04-21T09:58:22Z</time>
      </trkpt>
      <trkpt lat="46.07488" lon="4.76327">
        <ele>173</ele>
        <time>2018-04-21T09:58:23Z</time>
      </trkpt>
      <trkpt lat="46.07489" lon="4.7632">
        <ele>173</ele>
        <time>2018-04-21T09:58:24Z</time>
      </trkpt>
      <trkpt lat="46.0749" lon="4.76312">
        <ele>173</ele>
        <time>2018-04-21T09:58:25Z</time>
      </trkpt>
      <trkpt lat="46.07495" lon="4.76307">
        <ele>173</ele>
        <time>2018-04-21T09:58:26Z</time>
      </trkpt>
      <trkpt lat="46.07499" lon="4.76303">
        <ele>173</ele>
        <time>2018-04-21T09:58:27Z</time>
      </trkpt>
      <trkpt lat="46.07503" lon="4.76299">
        <ele>174</ele>
        <time>2018-04-21T09:58:28Z</time>
      </trkpt>
      <trkpt lat="46.07508" lon="4.76294">
        <ele>174</ele>
        <time>2018-04-21T09:58:29Z</time>
      </trkpt>
      <trkpt lat="46.07511" lon="4.7629">
        <ele>174</ele>
        <time>2018-04-21T09:58:30Z</time>
      </trkpt>
      <trkpt lat="46.07515" lon="4.76286">
        <ele>174</ele>
        <time>2018-04-21T09:58:31Z</time>
      </trkpt>
      <trkpt lat="46.07519" lon="4.76282">
        <ele>174</ele>
        <time>2018-04-21T09:58:32Z</time>
      </trkpt>
      <trkpt lat="46.07524" lon="4.76277">
        <ele>174</ele>
        <time>2018-04-21T09:58:33Z</time>
      </trkpt>
      <trkpt lat="46.07527" lon="4.76274">
        <ele>174</ele>
        <time>2018-04-21T09:58:34Z</time>
      </trkpt>
      <trkpt lat="46.07532" lon="4.76269">
        <ele>174</ele>
        <time>2018-04-21T09:58:35Z</time>
      </trkpt>
      <trkpt lat="46.07538" lon="4.76265">
        <ele>174</ele>
        <time>2018-04-21T09:58:36Z</time>
      </trkpt>
      <trkpt lat="46.07543" lon="4.76261">
        <ele>174</ele>
        <time>2018-04-21T09:58:37Z</time>
      </trkpt>
      <trkpt lat="46.07547" lon="4.76257">
        <ele>174</ele>
        <time>2018-04-21T09:58:38Z</time>
      </trkpt>
      <trkpt lat="46.07553" lon="4.76248">
        <ele>173</ele>
        <time>2018-04-21T09:58:40Z</time>
      </trkpt>
      <trkpt lat="46.07557" lon="4.76243">
        <ele>173</ele>
        <time>2018-04-21T09:58:41Z</time>
      </trkpt>
      <trkpt lat="46.07561" lon="4.7624">
        <ele>173</ele>
        <time>2018-04-21T09:58:42Z</time>
      </trkpt>
      <trkpt lat="46.07566" lon="4.76236">
        <ele>173</ele>
        <time>2018-04-21T09:58:43Z</time>
      </trkpt>
      <trkpt lat="46.07569" lon="4.76232">
        <ele>173</ele>
        <time>2018-04-21T09:58:44Z</time>
      </trkpt>
      <trkpt lat="46.07573" lon="4.76228">
        <ele>173</ele>
        <time>2018-04-21T09:58:45Z</time>
      </trkpt>
      <trkpt lat="46.07577" lon="4.76223">
        <ele>173</ele>
        <time>2018-04-21T09:58:46Z</time>
      </trkpt>
      <trkpt lat="46.07582" lon="4.76219">
        <ele>173</ele>
        <time>2018-04-21T09:58:47Z</time>
      </trkpt>
      <trkpt lat="46.07587" lon="4.76214">
        <ele>173</ele>
        <time>2018-04-21T09:58:48Z</time>
      </trkpt>
      <trkpt lat="46.07592" lon="4.7621">
        <ele>173</ele>
        <time>2018-04-21T09:58:49Z</time>
      </trkpt>
      <trkpt lat="46.07596" lon="4.76206">
        <ele>173</ele>
        <time>2018-04-21T09:58:50Z</time>
      </trkpt>
      <trkpt lat="46.07601" lon="4.76201">
        <ele>173</ele>
        <time>2018-04-21T09:58:51Z</time>
      </trkpt>
      <trkpt lat="46.07606" lon="4.76196">
        <ele>173</ele>
        <time>2018-04-21T09:58:52Z</time>
      </trkpt>
      <trkpt lat="46.07611" lon="4.76192">
        <ele>173</ele>
        <time>2018-04-21T09:58:53Z</time>
      </trkpt>
      <trkpt lat="46.07615" lon="4.76187">
        <ele>173</ele>
        <time>2018-04-21T09:58:54Z</time>
      </trkpt>
      <trkpt lat="46.07619" lon="4.76183">
        <ele>173</ele>
        <time>2018-04-21T09:58:55Z</time>
      </trkpt>
      <trkpt lat="46.07622" lon="4.76179">
        <ele>173</ele>
        <time>2018-04-21T09:58:56Z</time>
      </trkpt>
      <trkpt lat="46.07627" lon="4.76174">
        <ele>173</ele>
        <time>2018-04-21T09:58:57Z</time>
      </trkpt>
      <trkpt lat="46.07631" lon="4.7617">
        <ele>173</ele>
        <time>2018-04-21T09:58:58Z</time>
      </trkpt>
      <trkpt lat="46.07635" lon="4.76166">
        <ele>172</ele>
        <time>2018-04-21T09:58:59Z</time>
      </trkpt>
      <trkpt lat="46.07639" lon="4.76162">
        <ele>172</ele>
        <time>2018-04-21T09:59:00Z</time>
      </trkpt>
      <trkpt lat="46.07643" lon="4.76157">
        <ele>172</ele>
        <time>2018-04-21T09:59:01Z</time>
      </trkpt>
      <trkpt lat="46.07647" lon="4.76153">
        <ele>172</ele>
        <time>2018-04-21T09:59:02Z</time>
      </trkpt>
      <trkpt lat="46.07652" lon="4.76148">
        <ele>172</ele>
        <time>2018-04-21T09:59:03Z</time>
      </trkpt>
      <trkpt lat="46.07656" lon="4.76144">
        <ele>172</ele>
        <time>2018-04-21T09:59:04Z</time>
      </trkpt>
      <trkpt lat="46.07661" lon="4.7614">
        <ele>172</ele>
        <time>2018-04-21T09:59:05Z</time>
      </trkpt>
      <trkpt lat="46.07666" lon="4.76136">
        <ele>172</ele>
        <time>2018-04-21T09:59:06Z</time>
      </trkpt>
      <trkpt lat="46.07669" lon="4.76132">
        <ele>173</ele>
        <time>2018-04-21T09:59:07Z</time>
      </trkpt>
      <trkpt lat="46.07675" lon="4.76126">
        <ele>173</ele>
        <time>2018-04-21T09:59:09Z</time>
      </trkpt>
      <trkpt lat="46.07679" lon="4.76122">
        <ele>173</ele>
        <time>2018-04-21T09:59:10Z</time>
      </trkpt>
      <trkpt lat="46.07682" lon="4.76112">
        <ele>173</ele>
        <time>2018-04-21T09:59:12Z</time>
      </trkpt>
      <trkpt lat="46.07682" lon="4.76105">
        <ele>173</ele>
        <time>2018-04-21T09:59:13Z</time>
      </trkpt>
      <trkpt lat="46.07681" lon="4.76095">
        <ele>173</ele>
        <time>2018-04-21T09:59:15Z</time>
      </trkpt>
      <trkpt lat="46.07679" lon="4.7609">
        <ele>173</ele>
        <time>2018-04-21T09:59:16Z</time>
      </trkpt>
      <trkpt lat="46.07677" lon="4.7608">
        <ele>174</ele>
        <time>2018-04-21T09:59:18Z</time>
      </trkpt>
      <trkpt lat="46.07675" lon="4.76074">
        <ele>174</ele>
        <time>2018-04-21T09:59:19Z</time>
      </trkpt>
      <trkpt lat="46.07672" lon="4.76062">
        <ele>174</ele>
        <time>2018-04-21T09:59:21Z</time>
      </trkpt>
      <trkpt lat="46.07669" lon="4.76055">
        <ele>174</ele>
        <time>2018-04-21T09:59:22Z</time>
      </trkpt>
      <trkpt lat="46.07667" lon="4.76047">
        <ele>172</ele>
        <time>2018-04-21T09:59:23Z</time>
      </trkpt>
      <trkpt lat="46.07665" lon="4.76041">
        <ele>172</ele>
        <time>2018-04-21T09:59:24Z</time>
      </trkpt>
      <trkpt lat="46.07662" lon="4.76035">
        <ele>172</ele>
        <time>2018-04-21T09:59:25Z</time>
      </trkpt>
      <trkpt lat="46.0766" lon="4.76029">
        <ele>172</ele>
        <time>2018-04-21T09:59:26Z</time>
      </trkpt>
      <trkpt lat="46.07658" lon="4.76021">
        <ele>172</ele>
        <time>2018-04-21T09:59:27Z</time>
      </trkpt>
      <trkpt lat="46.07657" lon="4.76016">
        <ele>172</ele>
        <time>2018-04-21T09:59:28Z</time>
      </trkpt>
      <trkpt lat="46.07655" lon="4.76009">
        <ele>172</ele>
        <time>2018-04-21T09:59:29Z</time>
      </trkpt>
      <trkpt lat="46.07654" lon="4.76002">
        <ele>172</ele>
        <time>2018-04-21T09:59:30Z</time>
      </trkpt>
      <trkpt lat="46.07656" lon="4.75994">
        <ele>171</ele>
        <time>2018-04-21T09:59:31Z</time>
      </trkpt>
      <trkpt lat="46.07655" lon="4.75989">
        <ele>171</ele>
        <time>2018-04-21T09:59:32Z</time>
      </trkpt>
      <trkpt lat="46.07662" lon="4.7598">
        <ele>170</ele>
        <time>2018-04-21T09:59:34Z</time>
      </trkpt>
      <trkpt lat="46.07667" lon="4.75978">
        <ele>172</ele>
        <time>2018-04-21T09:59:35Z</time>
      </trkpt>
      <trkpt lat="46.07674" lon="4.75971">
        <ele>172</ele>
        <time>2018-04-21T09:59:37Z</time>
      </trkpt>
      <trkpt lat="46.07679" lon="4.75969">
        <ele>172</ele>
        <time>2018-04-21T09:59:38Z</time>
      </trkpt>
      <trkpt lat="46.07683" lon="4.75965">
        <ele>172</ele>
        <time>2018-04-21T09:59:39Z</time>
      </trkpt>
      <trkpt lat="46.07688" lon="4.75962">
        <ele>172</ele>
        <time>2018-04-21T09:59:40Z</time>
      </trkpt>
      <trkpt lat="46.07696" lon="4.75958">
        <ele>172</ele>
        <time>2018-04-21T09:59:42Z</time>
      </trkpt>
      <trkpt lat="46.07701" lon="4.75954">
        <ele>172</ele>
        <time>2018-04-21T09:59:43Z</time>
      </trkpt>
      <trkpt lat="46.07706" lon="4.75951">
        <ele>172</ele>
        <time>2018-04-21T09:59:44Z</time>
      </trkpt>
      <trkpt lat="46.07711" lon="4.75948">
        <ele>172</ele>
        <time>2018-04-21T09:59:45Z</time>
      </trkpt>
      <trkpt lat="46.07716" lon="4.75943">
        <ele>172</ele>
        <time>2018-04-21T09:59:46Z</time>
      </trkpt>
      <trkpt lat="46.07721" lon="4.75938">
        <ele>173</ele>
        <time>2018-04-21T09:59:47Z</time>
      </trkpt>
      <trkpt lat="46.07726" lon="4.75934">
        <ele>173</ele>
        <time>2018-04-21T09:59:48Z</time>
      </trkpt>
      <trkpt lat="46.07731" lon="4.75929">
        <ele>173</ele>
        <time>2018-04-21T09:59:49Z</time>
      </trkpt>
      <trkpt lat="46.07735" lon="4.75925">
        <ele>173</ele>
        <time>2018-04-21T09:59:50Z</time>
      </trkpt>
      <trkpt lat="46.0774" lon="4.75922">
        <ele>173</ele>
        <time>2018-04-21T09:59:51Z</time>
      </trkpt>
      <trkpt lat="46.07744" lon="4.75917">
        <ele>174</ele>
        <time>2018-04-21T09:59:52Z</time>
      </trkpt>
      <trkpt lat="46.07748" lon="4.75913">
        <ele>173</ele>
        <time>2018-04-21T09:59:53Z</time>
      </trkpt>
      <trkpt lat="46.07752" lon="4.75909">
        <ele>173</ele>
        <time>2018-04-21T09:59:54Z</time>
      </trkpt>
      <trkpt lat="46.07757" lon="4.75905">
        <ele>173</ele>
        <time>2018-04-21T09:59:55Z</time>
      </trkpt>
      <trkpt lat="46.07761" lon="4.75901">
        <ele>173</ele>
        <time>2018-04-21T09:59:56Z</time>
      </trkpt>
      <trkpt lat="46.07767" lon="4.75896">
        <ele>173</ele>
        <time>2018-04-21T09:59:57Z</time>
      </trkpt>
      <trkpt lat="46.07772" lon="4.75892">
        <ele>172</ele>
        <time>2018-04-21T09:59:58Z</time>
      </trkpt>
      <trkpt lat="46.07776" lon="4.75887">
        <ele>172</ele>
        <time>2018-04-21T09:59:59Z</time>
      </trkpt>
      <trkpt lat="46.07782" lon="4.75881">
        <ele>172</ele>
        <time>2018-04-21T10:00:00Z</time>
      </trkpt>
      <trkpt lat="46.07787" lon="4.75877">
        <ele>172</ele>
        <time>2018-04-21T10:00:01Z</time>
      </trkpt>
      <trkpt lat="46.07792" lon="4.75873">
        <ele>172</ele>
        <time>2018-04-21T10:00:02Z</time>
      </trkpt>
      <trkpt lat="46.07797" lon="4.75869">
        <ele>172</ele>
        <time>2018-04-21T10:00:03Z</time>
      </trkpt>
      <trkpt lat="46.07801" lon="4.75865">
        <ele>172</ele>
        <time>2018-04-21T10:00:04Z</time>
      </trkpt>
      <trkpt lat="46.07805" lon="4.75861">
        <ele>172</ele>
        <time>2018-04-21T10:00:05Z</time>
      </trkpt>
      <trkpt lat="46.07809" lon="4.75857">
        <ele>172</ele>
        <time>2018-04-21T10:00:06Z</time>
      </trkpt>
      <trkpt lat="46.07814" lon="4.75853">
        <ele>172</ele>
        <time>2018-04-21T10:00:07Z</time>
      </trkpt>
      <trkpt lat="46.07818" lon="4.75848">
        <ele>172</ele>
        <time>2018-04-21T10:00:08Z</time>
      </trkpt>
      <trkpt lat="46.07823" lon="4.75844">
        <ele>173</ele>
        <time>2018-04-21T10:00:09Z</time>
      </trkpt>
      <trkpt lat="46.07825" lon="4.75839">
        <ele>173</ele>
        <time>2018-04-21T10:00:10Z</time>
      </trkpt>
      <trkpt lat="46.0783" lon="4.75835">
        <ele>173</ele>
        <time>2018-04-21T10:00:11Z</time>
      </trkpt>
      <trkpt lat="46.07835" lon="4.75831">
        <ele>173</ele>
        <time>2018-04-21T10:00:12Z</time>
      </trkpt>
      <trkpt lat="46.0784" lon="4.75828">
        <ele>173</ele>
        <time>2018-04-21T10:00:13Z</time>
      </trkpt>
      <trkpt lat="46.07845" lon="4.75823">
        <ele>172</ele>
        <time>2018-04-21T10:00:14Z</time>
      </trkpt>
      <trkpt lat="46.0785" lon="4.75818">
        <ele>172</ele>
        <time>2018-04-21T10:00:15Z</time>
      </trkpt>
      <trkpt lat="46.07854" lon="4.75814">
        <ele>172</ele>
        <time>2018-04-21T10:00:16Z</time>
      </trkpt>
      <trkpt lat="46.07858" lon="4.7581">
        <ele>172</ele>
        <time>2018-04-21T10:00:17Z</time>
      </trkpt>
      <trkpt lat="46.07862" lon="4.75805">
        <ele>172</ele>
        <time>2018-04-21T10:00:18Z</time>
      </trkpt>
      <trkpt lat="46.07866" lon="4.75802">
        <ele>172</ele>
        <time>2018-04-21T10:00:19Z</time>
      </trkpt>
      <trkpt lat="46.07871" lon="4.75798">
        <ele>172</ele>
        <time>2018-04-21T10:00:20Z</time>
      </trkpt>
      <trkpt lat="46.07875" lon="4.75794">
        <ele>172</ele>
        <time>2018-04-21T10:00:21Z</time>
      </trkpt>
      <trkpt lat="46.0788" lon="4.75788">
        <ele>172</ele>
        <time>2018-04-21T10:00:22Z</time>
      </trkpt>
      <trkpt lat="46.07885" lon="4.75784">
        <ele>172</ele>
        <time>2018-04-21T10:00:23Z</time>
      </trkpt>
      <trkpt lat="46.07889" lon="4.7578">
        <ele>172</ele>
        <time>2018-04-21T10:00:24Z</time>
      </trkpt>
      <trkpt lat="46.07892" lon="4.75776">
        <ele>172</ele>
        <time>2018-04-21T10:00:25Z</time>
      </trkpt>
      <trkpt lat="46.07897" lon="4.75773">
        <ele>172</ele>
        <time>2018-04-21T10:00:26Z</time>
      </trkpt>
      <trkpt lat="46.07901" lon="4.75769">
        <ele>172</ele>
        <time>2018-04-21T10:00:27Z</time>
      </trkpt>
      <trkpt lat="46.07905" lon="4.75764">
        <ele>172</ele>
        <time>2018-04-21T10:00:28Z</time>
      </trkpt>
      <trkpt lat="46.07909" lon="4.7576">
        <ele>172</ele>
        <time>2018-04-21T10:00:29Z</time>
      </trkpt>
      <trkpt lat="46.07913" lon="4.75756">
        <ele>173</ele>
        <time>2018-04-21T10:00:30Z</time>
      </trkpt>
      <trkpt lat="46.07917" lon="4.75752">
        <ele>173</ele>
        <time>2018-04-21T10:00:31Z</time>
      </trkpt>
      <trkpt lat="46.07923" lon="4.75744">
        <ele>173</ele>
        <time>2018-04-21T10:00:33Z</time>
      </trkpt>
      <trkpt lat="46.0793" lon="4.75739">
        <ele>173</ele>
        <time>2018-04-21T10:00:34Z</time>
      </trkpt>
      <trkpt lat="46.07933" lon="4.75735">
        <ele>173</ele>
        <time>2018-04-21T10:00:35Z</time>
      </trkpt>
      <trkpt lat="46.07938" lon="4.75731">
        <ele>173</ele>
        <time>2018-04-21T10:00:36Z</time>
      </trkpt>
      <trkpt lat="46.0794" lon="4.75727">
        <ele>173</ele>
        <time>2018-04-21T10:00:37Z</time>
      </trkpt>
      <trkpt lat="46.07946" lon="4.75722">
        <ele>173</ele>
        <time>2018-04-21T10:00:38Z</time>
      </trkpt>
      <trkpt lat="46.07954" lon="4.75716">
        <ele>173</ele>
        <time>2018-04-21T10:00:40Z</time>
      </trkpt>
      <trkpt lat="46.07959" lon="4.75711">
        <ele>173</ele>
        <time>2018-04-21T10:00:41Z</time>
      </trkpt>
      <trkpt lat="46.07963" lon="4.75707">
        <ele>173</ele>
        <time>2018-04-21T10:00:42Z</time>
      </trkpt>
      <trkpt lat="46.07968" lon="4.75702">
        <ele>173</ele>
        <time>2018-04-21T10:00:43Z</time>
      </trkpt>
      <trkpt lat="46.07973" lon="4.75696">
        <ele>173</ele>
        <time>2018-04-21T10:00:44Z</time>
      </trkpt>
      <trkpt lat="46.07978" lon="4.75693">
        <ele>174</ele>
        <time>2018-04-21T10:00:45Z</time>
      </trkpt>
      <trkpt lat="46.07983" lon="4.7569">
        <ele>174</ele>
        <time>2018-04-21T10:00:46Z</time>
      </trkpt>
      <trkpt lat="46.07988" lon="4.75683">
        <ele>174</ele>
        <time>2018-04-21T10:00:47Z</time>
      </trkpt>
      <trkpt lat="46.07996" lon="4.75676">
        <ele>175</ele>
        <time>2018-04-21T10:00:49Z</time>
      </trkpt>
      <trkpt lat="46.07999" lon="4.75672">
        <ele>175</ele>
        <time>2018-04-21T10:00:50Z</time>
      </trkpt>
      <trkpt lat="46.08003" lon="4.75668">
        <ele>176</ele>
        <time>2018-04-21T10:00:51Z</time>
      </trkpt>
      <trkpt lat="46.08007" lon="4.75665">
        <ele>175</ele>
        <time>2018-04-21T10:00:52Z</time>
      </trkpt>
      <trkpt lat="46.08015" lon="4.75661">
        <ele>175</ele>
        <time>2018-04-21T10:00:54Z</time>
      </trkpt>
      <trkpt lat="46.08019" lon="4.75661">
        <ele>174</ele>
        <time>2018-04-21T10:00:55Z</time>
      </trkpt>
      <trkpt lat="46.08026" lon="4.7566">
        <ele>174</ele>
        <time>2018-04-21T10:00:57Z</time>
      </trkpt>
      <trkpt lat="46.08028" lon="4.75658">
        <ele>174</ele>
        <time>2018-04-21T10:00:58Z</time>
      </trkpt>
      <trkpt lat="46.08036" lon="4.75652">
        <ele>174</ele>
        <time>2018-04-21T10:01:01Z</time>
      </trkpt>
      <trkpt lat="46.08038" lon="4.75649">
        <ele>174</ele>
        <time>2018-04-21T10:01:02Z</time>
      </trkpt>
      <trkpt lat="46.08042" lon="4.75643">
        <ele>174</ele>
        <time>2018-04-21T10:01:04Z</time>
      </trkpt>
      <trkpt lat="46.08045" lon="4.7564">
        <ele>174</ele>
        <time>2018-04-21T10:01:05Z</time>
      </trkpt>
      <trkpt lat="46.08051" lon="4.75632">
        <ele>173</ele>
        <time>2018-04-21T10:01:08Z</time>
      </trkpt>
      <trkpt lat="46.08054" lon="4.75629">
        <ele>173</ele>
        <time>2018-04-21T10:01:09Z</time>
      </trkpt>
      <trkpt lat="46.08061" lon="4.75622">
        <ele>173</ele>
        <time>2018-04-21T10:01:13Z</time>
      </trkpt>
      <trkpt lat="46.08063" lon="4.75621">
        <ele>173</ele>
        <time>2018-04-21T10:01:14Z</time>
      </trkpt>
      <trkpt lat="46.08054" lon="4.75623">
        <ele>173</ele>
        <time>2018-04-21T10:03:20Z</time>
      </trkpt>
      <trkpt lat="46.08054" lon="4.75623">
        <ele>173</ele>
        <time>2018-04-21T10:03:21Z</time>
      </trkpt>
      <trkpt lat="46.08054" lon="4.75621">
        <ele>173</ele>
        <time>2018-04-21T10:05:26Z</time>
      </trkpt>
      <trkpt lat="46.08054" lon="4.75621">
        <ele>173</ele>
        <time>2018-04-21T10:05:27Z</time>
      </trkpt>
      <trkpt lat="46.08054" lon="4.75619">
        <ele>173</ele>
        <time>2018-04-21T10:06:24Z</time>
      </trkpt>
      <trkpt lat="46.08054" lon="4.75619">
        <ele>173</ele>
        <time>2018-04-21T10:06:25Z</time>
      </trkpt>
      <trkpt lat="46.08061" lon="4.75625">
        <ele>173</ele>
        <time>2018-04-21T10:14:12Z</time>
      </trkpt>
      <trkpt lat="46.08062" lon="4.75624">
        <ele>173</ele>
        <time>2018-04-21T10:14:13Z</time>
      </trkpt>
      <trkpt lat="46.08069" lon="4.75618">
        <ele>173</ele>
        <time>2018-04-21T10:14:35Z</time>
      </trkpt>
      <trkpt lat="46.0807" lon="4.75617">
        <ele>173</ele>
        <time>2018-04-21T10:14:36Z</time>
      </trkpt>
      <trkpt lat="46.08076" lon="4.7561">
        <ele>173</ele>
        <time>2018-04-21T10:14:40Z</time>
      </trkpt>
      <trkpt lat="46.08078" lon="4.75609">
        <ele>173</ele>
        <time>2018-04-21T10:14:41Z</time>
      </trkpt>
      <trkpt lat="46.08085" lon="4.75602">
        <ele>175</ele>
        <time>2018-04-21T10:14:45Z</time>
      </trkpt>
      <trkpt lat="46.08086" lon="4.75601">
        <ele>175</ele>
        <time>2018-04-21T10:14:46Z</time>
      </trkpt>
      <trkpt lat="46.0809" lon="4.75592">
        <ele>174</ele>
        <time>2018-04-21T10:14:50Z</time>
      </trkpt>
      <trkpt lat="46.0809" lon="4.75589">
        <ele>174</ele>
        <time>2018-04-21T10:14:51Z</time>
      </trkpt>
      <trkpt lat="46.08089" lon="4.7558">
        <ele>174</ele>
        <time>2018-04-21T10:14:55Z</time>
      </trkpt>
      <trkpt lat="46.08087" lon="4.75576">
        <ele>173</ele>
        <time>2018-04-21T10:14:56Z</time>
      </trkpt>
      <trkpt lat="46.08083" lon="4.75566">
        <ele>171</ele>
        <time>2018-04-21T10:14:59Z</time>
      </trkpt>
      <trkpt lat="46.08081" lon="4.75563">
        <ele>171</ele>
        <time>2018-04-21T10:15:00Z</time>
      </trkpt>
      <trkpt lat="46.08078" lon="4.75556">
        <ele>170</ele>
        <time>2018-04-21T10:15:02Z</time>
      </trkpt>
      <trkpt lat="46.08077" lon="4.75552">
        <ele>169</ele>
        <time>2018-04-21T10:15:03Z</time>
      </trkpt>
      <trkpt lat="46.08073" lon="4.75544">
        <ele>169</ele>
        <time>2018-04-21T10:15:05Z</time>
      </trkpt>
      <trkpt lat="46.08068" lon="4.7553">
        <ele>168</ele>
        <time>2018-04-21T10:15:06Z</time>
      </trkpt>
      <trkpt lat="46.08064" lon="4.7552">
        <ele>168</ele>
        <time>2018-04-21T10:15:08Z</time>
      </trkpt>
      <trkpt lat="46.08061" lon="4.75514">
        <ele>167</ele>
        <time>2018-04-21T10:15:09Z</time>
      </trkpt>
      <trkpt lat="46.08059" lon="4.75509">
        <ele>167</ele>
        <time>2018-04-21T10:15:10Z</time>
      </trkpt>
      <trkpt lat="46.08055" lon="4.75501">
        <ele>167</ele>
        <time>2018-04-21T10:15:11Z</time>
      </trkpt>
      <trkpt lat="46.08053" lon="4.75497">
        <ele>166</ele>
        <time>2018-04-21T10:15:13Z</time>
      </trkpt>
      <trkpt lat="46.0805" lon="4.75489">
        <ele>166</ele>
        <time>2018-04-21T10:15:14Z</time>
      </trkpt>
      <trkpt lat="46.08046" lon="4.7548">
        <ele>166</ele>
        <time>2018-04-21T10:15:16Z</time>
      </trkpt>
      <trkpt lat="46.08044" lon="4.75476">
        <ele>166</ele>
        <time>2018-04-21T10:15:17Z</time>
      </trkpt>
      <trkpt lat="46.0804" lon="4.75465">
        <ele>166</ele>
        <time>2018-04-21T10:15:19Z</time>
      </trkpt>
      <trkpt lat="46.08038" lon="4.75461">
        <ele>166</ele>
        <time>2018-04-21T10:15:20Z</time>
      </trkpt>
      <trkpt lat="46.08034" lon="4.75455">
        <ele>166</ele>
        <time>2018-04-21T10:15:21Z</time>
      </trkpt>
      <trkpt lat="46.08031" lon="4.7545">
        <ele>166</ele>
        <time>2018-04-21T10:15:22Z</time>
      </trkpt>
      <trkpt lat="46.0803" lon="4.75444">
        <ele>166</ele>
        <time>2018-04-21T10:15:23Z</time>
      </trkpt>
      <trkpt lat="46.08027" lon="4.75437">
        <ele>166</ele>
        <time>2018-04-21T10:15:24Z</time>
      </trkpt>
      <trkpt lat="46.08025" lon="4.7543">
        <ele>166</ele>
        <time>2018-04-21T10:15:25Z</time>
      </trkpt>
      <trkpt lat="46.08023" lon="4.75423">
        <ele>166</ele>
        <time>2018-04-21T10:15:26Z</time>
      </trkpt>
      <trkpt lat="46.0802" lon="4.75415">
        <ele>166</ele>
        <time>2018-04-21T10:15:27Z</time>
      </trkpt>
      <trkpt lat="46.08017" lon="4.75409">
        <ele>166</ele>
        <time>2018-04-21T10:15:28Z</time>
      </trkpt>
      <trkpt lat="46.08013" lon="4.754">
        <ele>167</ele>
        <time>2018-04-21T10:15:29Z</time>
      </trkpt>
      <trkpt lat="46.08011" lon="4.75395">
        <ele>167</ele>
        <time>2018-04-21T10:15:30Z</time>
      </trkpt>
      <trkpt lat="46.08006" lon="4.75387">
        <ele>167</ele>
        <time>2018-04-21T10:15:31Z</time>
      </trkpt>
      <trkpt lat="46.08001" lon="4.75382">
        <ele>167</ele>
        <time>2018-04-21T10:15:32Z</time>
      </trkpt>
      <trkpt lat="46.07999" lon="4.75375">
        <ele>168</ele>
        <time>2018-04-21T10:15:33Z</time>
      </trkpt>
      <trkpt lat="46.07995" lon="4.75367">
        <ele>168</ele>
        <time>2018-04-21T10:15:34Z</time>
      </trkpt>
      <trkpt lat="46.0799" lon="4.7536">
        <ele>168</ele>
        <time>2018-04-21T10:15:35Z</time>
      </trkpt>
      <trkpt lat="46.07986" lon="4.75352">
        <ele>168</ele>
        <time>2018-04-21T10:15:36Z</time>
      </trkpt>
      <trkpt lat="46.07982" lon="4.75345">
        <ele>168</ele>
        <time>2018-04-21T10:15:37Z</time>
      </trkpt>
      <trkpt lat="46.07978" lon="4.75337">
        <ele>168</ele>
        <time>2018-04-21T10:15:38Z</time>
      </trkpt>
      <trkpt lat="46.07973" lon="4.75328">
        <ele>169</ele>
        <time>2018-04-21T10:15:39Z</time>
      </trkpt>
      <trkpt lat="46.0797" lon="4.7532">
        <ele>169</ele>
        <time>2018-04-21T10:15:40Z</time>
      </trkpt>
      <trkpt lat="46.07966" lon="4.75312">
        <ele>169</ele>
        <time>2018-04-21T10:15:41Z</time>
      </trkpt>
      <trkpt lat="46.07963" lon="4.75304">
        <ele>169</ele>
        <time>2018-04-21T10:15:42Z</time>
      </trkpt>
      <trkpt lat="46.07959" lon="4.75296">
        <ele>169</ele>
        <time>2018-04-21T10:15:43Z</time>
      </trkpt>
      <trkpt lat="46.07957" lon="4.75287">
        <ele>169</ele>
        <time>2018-04-21T10:15:44Z</time>
      </trkpt>
      <trkpt lat="46.07953" lon="4.7528">
        <ele>169</ele>
        <time>2018-04-21T10:15:45Z</time>
      </trkpt>
      <trkpt lat="46.0795" lon="4.75272">
        <ele>169</ele>
        <time>2018-04-21T10:15:46Z</time>
      </trkpt>
      <trkpt lat="46.07946" lon="4.75265">
        <ele>169</ele>
        <time>2018-04-21T10:15:47Z</time>
      </trkpt>
      <trkpt lat="46.07943" lon="4.75258">
        <ele>170</ele>
        <time>2018-04-21T10:15:48Z</time>
      </trkpt>
      <trkpt lat="46.07939" lon="4.7525">
        <ele>170</ele>
        <time>2018-04-21T10:15:49Z</time>
      </trkpt>
      <trkpt lat="46.07936" lon="4.75242">
        <ele>170</ele>
        <time>2018-04-21T10:15:50Z</time>
      </trkpt>
      <trkpt lat="46.07933" lon="4.75235">
        <ele>170</ele>
        <time>2018-04-21T10:15:51Z</time>
      </trkpt>
      <trkpt lat="46.0793" lon="4.75227">
        <ele>171</ele>
        <time>2018-04-21T10:15:52Z</time>
      </trkpt>
      <trkpt lat="46.07926" lon="4.7522">
        <ele>171</ele>
        <time>2018-04-21T10:15:53Z</time>
      </trkpt>
      <trkpt lat="46.07922" lon="4.75213">
        <ele>171</ele>
        <time>2018-04-21T10:15:54Z</time>
      </trkpt>
      <trkpt lat="46.07919" lon="4.75206">
        <ele>171</ele>
        <time>2018-04-21T10:15:55Z</time>
      </trkpt>
      <trkpt lat="46.07915" lon="4.75199">
        <ele>171</ele>
        <time>2018-04-21T10:15:56Z</time>
      </trkpt>
      <trkpt lat="46.07912" lon="4.75191">
        <ele>171</ele>
        <time>2018-04-21T10:15:57Z</time>
      </trkpt>
      <trkpt lat="46.07909" lon="4.75184">
        <ele>171</ele>
        <time>2018-04-21T10:15:58Z</time>
      </trkpt>
      <trkpt lat="46.07905" lon="4.75178">
        <ele>171</ele>
        <time>2018-04-21T10:15:59Z</time>
      </trkpt>
      <trkpt lat="46.079" lon="4.75169">
        <ele>171</ele>
        <time>2018-04-21T10:16:00Z</time>
      </trkpt>
      <trkpt lat="46.07897" lon="4.75164">
        <ele>171</ele>
        <time>2018-04-21T10:16:01Z</time>
      </trkpt>
      <trkpt lat="46.07893" lon="4.75158">
        <ele>171</ele>
        <time>2018-04-21T10:16:02Z</time>
      </trkpt>
      <trkpt lat="46.07889" lon="4.75154">
        <ele>171</ele>
        <time>2018-04-21T10:16:03Z</time>
      </trkpt>
      <trkpt lat="46.07886" lon="4.75146">
        <ele>171</ele>
        <time>2018-04-21T10:16:04Z</time>
      </trkpt>
      <trkpt lat="46.07882" lon="4.7514">
        <ele>171</ele>
        <time>2018-04-21T10:16:05Z</time>
      </trkpt>
      <trkpt lat="46.07878" lon="4.75135">
        <ele>171</ele>
        <time>2018-04-21T10:16:06Z</time>
      </trkpt>
      <trkpt lat="46.07875" lon="4.75129">
        <ele>171</ele>
        <time>2018-04-21T10:16:07Z</time>
      </trkpt>
      <trkpt lat="46.07871" lon="4.75124">
        <ele>171</ele>
        <time>2018-04-21T10:16:08Z</time>
      </trkpt>
      <trkpt lat="46.07868" lon="4.75118">
        <ele>171</ele>
        <time>2018-04-21T10:16:09Z</time>
      </trkpt>
      <trkpt lat="46.07865" lon="4.75112">
        <ele>171</ele>
        <time>2018-04-21T10:16:10Z</time>
      </trkpt>
      <trkpt lat="46.07862" lon="4.75106">
        <ele>171</ele>
        <time>2018-04-21T10:16:11Z</time>
      </trkpt>
      <trkpt lat="46.07858" lon="4.75102">
        <ele>171</ele>
        <time>2018-04-21T10:16:12Z</time>
      </trkpt>
      <trkpt lat="46.07855" lon="4.75096">
        <ele>171</ele>
        <time>2018-04-21T10:16:13Z</time>
      </trkpt>
      <trkpt lat="46.07852" lon="4.7509">
        <ele>171</ele>
        <time>2018-04-21T10:16:14Z</time>
      </trkpt>
      <trkpt lat="46.07849" lon="4.75085">
        <ele>171</ele>
        <time>2018-04-21T10:16:15Z</time>
      </trkpt>
      <trkpt lat="46.07845" lon="4.75078">
        <ele>171</ele>
        <time>2018-04-21T10:16:16Z</time>
      </trkpt>
      <trkpt lat="46.07841" lon="4.75075">
        <ele>171</ele>
        <time>2018-04-21T10:16:17Z</time>
      </trkpt>
      <trkpt lat="46.07837" lon="4.7507">
        <ele>171</ele>
        <time>2018-04-21T10:16:18Z</time>
      </trkpt>
      <trkpt lat="46.07833" lon="4.75065">
        <ele>171</ele>
        <time>2018-04-21T10:16:19Z</time>
      </trkpt>
      <trkpt lat="46.07829" lon="4.75059">
        <ele>171</ele>
        <time>2018-04-21T10:16:20Z</time>
      </trkpt>
      <trkpt lat="46.07823" lon="4.75057">
        <ele>171</ele>
        <time>2018-04-21T10:16:21Z</time>
      </trkpt>
      <trkpt lat="46.07818" lon="4.75053">
        <ele>171</ele>
        <time>2018-04-21T10:16:22Z</time>
      </trkpt>
      <trkpt lat="46.07814" lon="4.75046">
        <ele>171</ele>
        <time>2018-04-21T10:16:23Z</time>
      </trkpt>
      <trkpt lat="46.07809" lon="4.75041">
        <ele>171</ele>
        <time>2018-04-21T10:16:24Z</time>
      </trkpt>
      <trkpt lat="46.07804" lon="4.75036">
        <ele>171</ele>
        <time>2018-04-21T10:16:25Z</time>
      </trkpt>
      <trkpt lat="46.07799" lon="4.75033">
        <ele>171</ele>
        <time>2018-04-21T10:16:26Z</time>
      </trkpt>
      <trkpt lat="46.07795" lon="4.75028">
        <ele>171</ele>
        <time>2018-04-21T10:16:27Z</time>
      </trkpt>
      <trkpt lat="46.0779" lon="4.75023">
        <ele>172</ele>
        <time>2018-04-21T10:16:28Z</time>
      </trkpt>
      <trkpt lat="46.07784" lon="4.75019">
        <ele>172</ele>
        <time>2018-04-21T10:16:29Z</time>
      </trkpt>
      <trkpt lat="46.07779" lon="4.75015">
        <ele>172</ele>
        <time>2018-04-21T10:16:30Z</time>
      </trkpt>
      <trkpt lat="46.07775" lon="4.7501">
        <ele>172</ele>
        <time>2018-04-21T10:16:31Z</time>
      </trkpt>
      <trkpt lat="46.0777" lon="4.75006">
        <ele>172</ele>
        <time>2018-04-21T10:16:32Z</time>
      </trkpt>
      <trkpt lat="46.07765" lon="4.75003">
        <ele>172</ele>
        <time>2018-04-21T10:16:33Z</time>
      </trkpt>
      <trkpt lat="46.0776" lon="4.74999">
        <ele>172</ele>
        <time>2018-04-21T10:16:34Z</time>
      </trkpt>
      <trkpt lat="46.07755" lon="4.74995">
        <ele>173</ele>
        <time>2018-04-21T10:16:35Z</time>
      </trkpt>
      <trkpt lat="46.0775" lon="4.74991">
        <ele>173</ele>
        <time>2018-04-21T10:16:36Z</time>
      </trkpt>
      <trkpt lat="46.07745" lon="4.74986">
        <ele>173</ele>
        <time>2018-04-21T10:16:37Z</time>
      </trkpt>
      <trkpt lat="46.0774" lon="4.74982">
        <ele>173</ele>
        <time>2018-04-21T10:16:38Z</time>
      </trkpt>
      <trkpt lat="46.07736" lon="4.74979">
        <ele>172</ele>
        <time>2018-04-21T10:16:39Z</time>
      </trkpt>
      <trkpt lat="46.07731" lon="4.74975">
        <ele>172</ele>
        <time>2018-04-21T10:16:40Z</time>
      </trkpt>
      <trkpt lat="46.07726" lon="4.74971">
        <ele>172</ele>
        <time>2018-04-21T10:16:41Z</time>
      </trkpt>
      <trkpt lat="46.07721" lon="4.74967">
        <ele>172</ele>
        <time>2018-04-21T10:16:42Z</time>
      </trkpt>
      <trkpt lat="46.07717" lon="4.74961">
        <ele>172</ele>
        <time>2018-04-21T10:16:43Z</time>
      </trkpt>
      <trkpt lat="46.07713" lon="4.74957">
        <ele>172</ele>
        <time>2018-04-21T10:16:44Z</time>
      </trkpt>
      <trkpt lat="46.07708" lon="4.74953">
        <ele>172</ele>
        <time>2018-04-21T10:16:45Z</time>
      </trkpt>
      <trkpt lat="46.07703" lon="4.7495">
        <ele>172</ele>
        <time>2018-04-21T10:16:46Z</time>
      </trkpt>
      <trkpt lat="46.07699" lon="4.74945">
        <ele>172</ele>
        <time>2018-04-21T10:16:47Z</time>
      </trkpt>
      <trkpt lat="46.07693" lon="4.74941">
        <ele>172</ele>
        <time>2018-04-21T10:16:48Z</time>
      </trkpt>
      <trkpt lat="46.07689" lon="4.74938">
        <ele>172</ele>
        <time>2018-04-21T10:16:49Z</time>
      </trkpt>
      <trkpt lat="46.07684" lon="4.74934">
        <ele>172</ele>
        <time>2018-04-21T10:16:50Z</time>
      </trkpt>
      <trkpt lat="46.07679" lon="4.7493">
        <ele>172</ele>
        <time>2018-04-21T10:16:51Z</time>
      </trkpt>
      <trkpt lat="46.07674" lon="4.74927">
        <ele>172</ele>
        <time>2018-04-21T10:16:52Z</time>
      </trkpt>
      <trkpt lat="46.07669" lon="4.74924">
        <ele>172</ele>
        <time>2018-04-21T10:16:53Z</time>
      </trkpt>
      <trkpt lat="46.07664" lon="4.74919">
        <ele>172</ele>
        <time>2018-04-21T10:16:54Z</time>
      </trkpt>
      <trkpt lat="46.07659" lon="4.74915">
        <ele>172</ele>
        <time>2018-04-21T10:16:55Z</time>
      </trkpt>
      <trkpt lat="46.07655" lon="4.7491">
        <ele>172</ele>
        <time>2018-04-21T10:16:56Z</time>
      </trkpt>
      <trkpt lat="46.07651" lon="4.74907">
        <ele>171</ele>
        <time>2018-04-21T10:16:57Z</time>
      </trkpt>
      <trkpt lat="46.07647" lon="4.74903">
        <ele>171</ele>
        <time>2018-04-21T10:16:58Z</time>
      </trkpt>
      <trkpt lat="46.07642" lon="4.74899">
        <ele>171</ele>
        <time>2018-04-21T10:16:59Z</time>
      </trkpt>
      <trkpt lat="46.07637" lon="4.74894">
        <ele>171</ele>
        <time>2018-04-21T10:17:00Z</time>
      </trkpt>
      <trkpt lat="46.07633" lon="4.74891">
        <ele>171</ele>
        <time>2018-04-21T10:17:01Z</time>
      </trkpt>
      <trkpt lat="46.07627" lon="4.74886">
        <ele>171</ele>
        <time>2018-04-21T10:17:02Z</time>
      </trkpt>
      <trkpt lat="46.0762" lon="4.74884">
        <ele>171</ele>
        <time>2018-04-21T10:17:03Z</time>
      </trkpt>
      <trkpt lat="46.07615" lon="4.74879">
        <ele>171</ele>
        <time>2018-04-21T10:17:04Z</time>
      </trkpt>
      <trkpt lat="46.0761" lon="4.74874">
        <ele>171</ele>
        <time>2018-04-21T10:17:05Z</time>
      </trkpt>
      <trkpt lat="46.07602" lon="4.74869">
        <ele>171</ele>
        <time>2018-04-21T10:17:06Z</time>
      </trkpt>
      <trkpt lat="46.07595" lon="4.74864">
        <ele>171</ele>
        <time>2018-04-21T10:17:07Z</time>
      </trkpt>
      <trkpt lat="46.0759" lon="4.74859">
        <ele>171</ele>
        <time>2018-04-21T10:17:08Z</time>
      </trkpt>
      <trkpt lat="46.07586" lon="4.74854">
        <ele>171</ele>
        <time>2018-04-21T10:17:09Z</time>
      </trkpt>
      <trkpt lat="46.0758" lon="4.74849">
        <ele>171</ele>
        <time>2018-04-21T10:17:10Z</time>
      </trkpt>
      <trkpt lat="46.07574" lon="4.74845">
        <ele>171</ele>
        <time>2018-04-21T10:17:11Z</time>
      </trkpt>
      <trkpt lat="46.07569" lon="4.74839">
        <ele>171</ele>
        <time>2018-04-21T10:17:12Z</time>
      </trkpt>
      <trkpt lat="46.07563" lon="4.74836">
        <ele>171</ele>
        <time>2018-04-21T10:17:13Z</time>
      </trkpt>
      <trkpt lat="46.07557" lon="4.74831">
        <ele>172</ele>
        <time>2018-04-21T10:17:14Z</time>
      </trkpt>
      <trkpt lat="46.07551" lon="4.74826">
        <ele>172</ele>
        <time>2018-04-21T10:17:15Z</time>
      </trkpt>
      <trkpt lat="46.07545" lon="4.74821">
        <ele>172</ele>
        <time>2018-04-21T10:17:16Z</time>
      </trkpt>
      <trkpt lat="46.07539" lon="4.74817">
        <ele>172</ele>
        <time>2018-04-21T10:17:17Z</time>
      </trkpt>
      <trkpt lat="46.07532" lon="4.74813">
        <ele>172</ele>
        <time>2018-04-21T10:17:18Z</time>
      </trkpt>
      <trkpt lat="46.07526" lon="4.74808">
        <ele>172</ele>
        <time>2018-04-21T10:17:19Z</time>
      </trkpt>
      <trkpt lat="46.0752" lon="4.74804">
        <ele>172</ele>
        <time>2018-04-21T10:17:20Z</time>
      </trkpt>
      <trkpt lat="46.07515" lon="4.74799">
        <ele>172</ele>
        <time>2018-04-21T10:17:21Z</time>
      </trkpt>
      <trkpt lat="46.07509" lon="4.74795">
        <ele>172</ele>
        <time>2018-04-21T10:17:22Z</time>
      </trkpt>
      <trkpt lat="46.07503" lon="4.7479">
        <ele>172</ele>
        <time>2018-04-21T10:17:23Z</time>
      </trkpt>
      <trkpt lat="46.07497" lon="4.74785">
        <ele>173</ele>
        <time>2018-04-21T10:17:24Z</time>
      </trkpt>
      <trkpt lat="46.07493" lon="4.74782">
        <ele>173</ele>
        <time>2018-04-21T10:17:25Z</time>
      </trkpt>
      <trkpt lat="46.07487" lon="4.74777">
        <ele>173</ele>
        <time>2018-04-21T10:17:26Z</time>
      </trkpt>
      <trkpt lat="46.07483" lon="4.74772">
        <ele>173</ele>
        <time>2018-04-21T10:17:27Z</time>
      </trkpt>
      <trkpt lat="46.07478" lon="4.74766">
        <ele>173</ele>
        <time>2018-04-21T10:17:28Z</time>
      </trkpt>
      <trkpt lat="46.07474" lon="4.7476">
        <ele>173</ele>
        <time>2018-04-21T10:17:29Z</time>
      </trkpt>
      <trkpt lat="46.07469" lon="4.74753">
        <ele>173</ele>
        <time>2018-04-21T10:17:30Z</time>
      </trkpt>
      <trkpt lat="46.07464" lon="4.74747">
        <ele>173</ele>
        <time>2018-04-21T10:17:31Z</time>
      </trkpt>
      <trkpt lat="46.0746" lon="4.74741">
        <ele>173</ele>
        <time>2018-04-21T10:17:32Z</time>
      </trkpt>
      <trkpt lat="46.07455" lon="4.74734">
        <ele>173</ele>
        <time>2018-04-21T10:17:33Z</time>
      </trkpt>
      <trkpt lat="46.0745" lon="4.74728">
        <ele>173</ele>
        <time>2018-04-21T10:17:34Z</time>
      </trkpt>
      <trkpt lat="46.07447" lon="4.74722">
        <ele>173</ele>
        <time>2018-04-21T10:17:35Z</time>
      </trkpt>
      <trkpt lat="46.07443" lon="4.74716">
        <ele>173</ele>
        <time>2018-04-21T10:17:36Z</time>
      </trkpt>
      <trkpt lat="46.0744" lon="4.74709">
        <ele>173</ele>
        <time>2018-04-21T10:17:37Z</time>
      </trkpt>
      <trkpt lat="46.07436" lon="4.74702">
        <ele>173</ele>
        <time>2018-04-21T10:17:38Z</time>
      </trkpt>
      <trkpt lat="46.07432" lon="4.74695">
        <ele>173</ele>
        <time>2018-04-21T10:17:39Z</time>
      </trkpt>
      <trkpt lat="46.0743" lon="4.74689">
        <ele>173</ele>
        <time>2018-04-21T10:17:40Z</time>
      </trkpt>
      <trkpt lat="46.07427" lon="4.74683">
        <ele>172</ele>
        <time>2018-04-21T10:17:41Z</time>
      </trkpt>
      <trkpt lat="46.07424" lon="4.74676">
        <ele>172</ele>
        <time>2018-04-21T10:17:42Z</time>
      </trkpt>
      <trkpt lat="46.07422" lon="4.7467">
        <ele>172</ele>
        <time>2018-04-21T10:17:43Z</time>
      </trkpt>
      <trkpt lat="46.07419" lon="4.74664">
        <ele>172</ele>
        <time>2018-04-21T10:17:44Z</time>
      </trkpt>
      <trkpt lat="46.07415" lon="4.74658">
        <ele>173</ele>
        <time>2018-04-21T10:17:45Z</time>
      </trkpt>
      <trkpt lat="46.07411" lon="4.74653">
        <ele>173</ele>
        <time>2018-04-21T10:17:46Z</time>
      </trkpt>
      <trkpt lat="46.07409" lon="4.74646">
        <ele>173</ele>
        <time>2018-04-21T10:17:47Z</time>
      </trkpt>
      <trkpt lat="46.07407" lon="4.74639">
        <ele>173</ele>
        <time>2018-04-21T10:17:48Z</time>
      </trkpt>
      <trkpt lat="46.07405" lon="4.74633">
        <ele>174</ele>
        <time>2018-04-21T10:17:49Z</time>
      </trkpt>
      <trkpt lat="46.07401" lon="4.74626">
        <ele>174</ele>
        <time>2018-04-21T10:17:50Z</time>
      </trkpt>
      <trkpt lat="46.07398" lon="4.74619">
        <ele>174</ele>
        <time>2018-04-21T10:17:51Z</time>
      </trkpt>
      <trkpt lat="46.07396" lon="4.74612">
        <ele>174</ele>
        <time>2018-04-21T10:17:52Z</time>
      </trkpt>
      <trkpt lat="46.07392" lon="4.74605">
        <ele>174</ele>
        <time>2018-04-21T10:17:53Z</time>
      </trkpt>
      <trkpt lat="46.07389" lon="4.746">
        <ele>174</ele>
        <time>2018-04-21T10:17:54Z</time>
      </trkpt>
      <trkpt lat="46.07386" lon="4.74594">
        <ele>174</ele>
        <time>2018-04-21T10:17:55Z</time>
      </trkpt>
      <trkpt lat="46.07383" lon="4.74588">
        <ele>174</ele>
        <time>2018-04-21T10:17:56Z</time>
      </trkpt>
      <trkpt lat="46.0738" lon="4.74582">
        <ele>175</ele>
        <time>2018-04-21T10:17:57Z</time>
      </trkpt>
      <trkpt lat="46.07377" lon="4.74576">
        <ele>175</ele>
        <time>2018-04-21T10:17:58Z</time>
      </trkpt>
      <trkpt lat="46.07371" lon="4.74566">
        <ele>175</ele>
        <time>2018-04-21T10:18:00Z</time>
      </trkpt>
      <trkpt lat="46.07367" lon="4.7456">
        <ele>175</ele>
        <time>2018-04-21T10:18:01Z</time>
      </trkpt>
      <trkpt lat="46.07364" lon="4.74553">
        <ele>175</ele>
        <time>2018-04-21T10:18:02Z</time>
      </trkpt>
      <trkpt lat="46.0736" lon="4.74548">
        <ele>175</ele>
        <time>2018-04-21T10:18:03Z</time>
      </trkpt>
      <trkpt lat="46.07356" lon="4.74542">
        <ele>175</ele>
        <time>2018-04-21T10:18:04Z</time>
      </trkpt>
      <trkpt lat="46.07351" lon="4.74536">
        <ele>175</ele>
        <time>2018-04-21T10:18:05Z</time>
      </trkpt>
      <trkpt lat="46.07348" lon="4.7453">
        <ele>175</ele>
        <time>2018-04-21T10:18:06Z</time>
      </trkpt>
      <trkpt lat="46.07344" lon="4.74524">
        <ele>175</ele>
        <time>2018-04-21T10:18:07Z</time>
      </trkpt>
      <trkpt lat="46.0734" lon="4.74518">
        <ele>175</ele>
        <time>2018-04-21T10:18:08Z</time>
      </trkpt>
      <trkpt lat="46.07337" lon="4.74512">
        <ele>175</ele>
        <time>2018-04-21T10:18:09Z</time>
      </trkpt>
      <trkpt lat="46.07334" lon="4.74507">
        <ele>176</ele>
        <time>2018-04-21T10:18:10Z</time>
      </trkpt>
      <trkpt lat="46.0733" lon="4.74501">
        <ele>176</ele>
        <time>2018-04-21T10:18:11Z</time>
      </trkpt>
      <trkpt lat="46.07326" lon="4.74496">
        <ele>176</ele>
        <time>2018-04-21T10:18:12Z</time>
      </trkpt>
      <trkpt lat="46.0732" lon="4.74492">
        <ele>175</ele>
        <time>2018-04-21T10:18:13Z</time>
      </trkpt>
      <trkpt lat="46.07322" lon="4.74485">
        <ele>175</ele>
        <time>2018-04-21T10:18:14Z</time>
      </trkpt>
      <trkpt lat="46.07318" lon="4.74474">
        <ele>175</ele>
        <time>2018-04-21T10:18:15Z</time>
      </trkpt>
      <trkpt lat="46.07317" lon="4.74463">
        <ele>175</ele>
        <time>2018-04-21T10:18:17Z</time>
      </trkpt>
      <trkpt lat="46.07313" lon="4.74458">
        <ele>175</ele>
        <time>2018-04-21T10:18:18Z</time>
      </trkpt>
      <trkpt lat="46.0731" lon="4.74446">
        <ele>175</ele>
        <time>2018-04-21T10:18:20Z</time>
      </trkpt>
      <trkpt lat="46.07307" lon="4.74438">
        <ele>175</ele>
        <time>2018-04-21T10:18:21Z</time>
      </trkpt>
      <trkpt lat="46.07306" lon="4.74432">
        <ele>175</ele>
        <time>2018-04-21T10:18:22Z</time>
      </trkpt>
      <trkpt lat="46.07304" lon="4.74426">
        <ele>175</ele>
        <time>2018-04-21T10:18:23Z</time>
      </trkpt>
      <trkpt lat="46.07305" lon="4.74415">
        <ele>174</ele>
        <time>2018-04-21T10:18:25Z</time>
      </trkpt>
      <trkpt lat="46.07303" lon="4.74408">
        <ele>174</ele>
        <time>2018-04-21T10:18:26Z</time>
      </trkpt>
      <trkpt lat="46.07304" lon="4.74401">
        <ele>174</ele>
        <time>2018-04-21T10:18:27Z</time>
      </trkpt>
      <trkpt lat="46.07303" lon="4.74395">
        <ele>174</ele>
        <time>2018-04-21T10:18:28Z</time>
      </trkpt>
      <trkpt lat="46.07302" lon="4.74388">
        <ele>174</ele>
        <time>2018-04-21T10:18:29Z</time>
      </trkpt>
      <trkpt lat="46.07302" lon="4.74382">
        <ele>174</ele>
        <time>2018-04-21T10:18:30Z</time>
      </trkpt>
      <trkpt lat="46.07302" lon="4.74374">
        <ele>174</ele>
        <time>2018-04-21T10:18:31Z</time>
      </trkpt>
      <trkpt lat="46.07301" lon="4.74367">
        <ele>174</ele>
        <time>2018-04-21T10:18:32Z</time>
      </trkpt>
      <trkpt lat="46.073" lon="4.7436">
        <ele>174</ele>
        <time>2018-04-21T10:18:33Z</time>
      </trkpt>
      <trkpt lat="46.07299" lon="4.74353">
        <ele>174</ele>
        <time>2018-04-21T10:18:34Z</time>
      </trkpt>
      <trkpt lat="46.07298" lon="4.74345">
        <ele>174</ele>
        <time>2018-04-21T10:18:35Z</time>
      </trkpt>
      <trkpt lat="46.07299" lon="4.74338">
        <ele>174</ele>
        <time>2018-04-21T10:18:36Z</time>
      </trkpt>
      <trkpt lat="46.07297" lon="4.7433">
        <ele>174</ele>
        <time>2018-04-21T10:18:37Z</time>
      </trkpt>
      <trkpt lat="46.07297" lon="4.74323">
        <ele>174</ele>
        <time>2018-04-21T10:18:38Z</time>
      </trkpt>
      <trkpt lat="46.07297" lon="4.7431">
        <ele>174</ele>
        <time>2018-04-21T10:18:40Z</time>
      </trkpt>
      <trkpt lat="46.07296" lon="4.74304">
        <ele>174</ele>
        <time>2018-04-21T10:18:41Z</time>
      </trkpt>
      <trkpt lat="46.07294" lon="4.74297">
        <ele>174</ele>
        <time>2018-04-21T10:18:42Z</time>
      </trkpt>
      <trkpt lat="46.07291" lon="4.7429">
        <ele>175</ele>
        <time>2018-04-21T10:18:43Z</time>
      </trkpt>
      <trkpt lat="46.07288" lon="4.74283">
        <ele>175</ele>
        <time>2018-04-21T10:18:44Z</time>
      </trkpt>
      <trkpt lat="46.07285" lon="4.74276">
        <ele>175</ele>
        <time>2018-04-21T10:18:45Z</time>
      </trkpt>
      <trkpt lat="46.07283" lon="4.74265">
        <ele>175</ele>
        <time>2018-04-21T10:18:47Z</time>
      </trkpt>
      <trkpt lat="46.07282" lon="4.7426">
        <ele>175</ele>
        <time>2018-04-21T10:18:48Z</time>
      </trkpt>
      <trkpt lat="46.0728" lon="4.74254">
        <ele>175</ele>
        <time>2018-04-21T10:18:49Z</time>
      </trkpt>
      <trkpt lat="46.07278" lon="4.74248">
        <ele>175</ele>
        <time>2018-04-21T10:18:50Z</time>
      </trkpt>
      <trkpt lat="46.07274" lon="4.74237">
        <ele>175</ele>
        <time>2018-04-21T10:18:52Z</time>
      </trkpt>
      <trkpt lat="46.07272" lon="4.74232">
        <ele>176</ele>
        <time>2018-04-21T10:18:53Z</time>
      </trkpt>
      <trkpt lat="46.07268" lon="4.74221">
        <ele>176</ele>
        <time>2018-04-21T10:18:55Z</time>
      </trkpt>
      <trkpt lat="46.07266" lon="4.74217">
        <ele>176</ele>
        <time>2018-04-21T10:18:56Z</time>
      </trkpt>
      <trkpt lat="46.07264" lon="4.74207">
        <ele>176</ele>
        <time>2018-04-21T10:18:58Z</time>
      </trkpt>
      <trkpt lat="46.07263" lon="4.74204">
        <ele>176</ele>
        <time>2018-04-21T10:18:59Z</time>
      </trkpt>
      <trkpt lat="46.07259" lon="4.74193">
        <ele>176</ele>
        <time>2018-04-21T10:19:01Z</time>
      </trkpt>
      <trkpt lat="46.07258" lon="4.7419">
        <ele>176</ele>
        <time>2018-04-21T10:19:02Z</time>
      </trkpt>
      <trkpt lat="46.07254" lon="4.7418">
        <ele>176</ele>
        <time>2018-04-21T10:19:04Z</time>
      </trkpt>
      <trkpt lat="46.07252" lon="4.74175">
        <ele>177</ele>
        <time>2018-04-21T10:19:05Z</time>
      </trkpt>
      <trkpt lat="46.07248" lon="4.74164">
        <ele>177</ele>
        <time>2018-04-21T10:19:08Z</time>
      </trkpt>
      <trkpt lat="46.07247" lon="4.74161">
        <ele>177</ele>
        <time>2018-04-21T10:19:09Z</time>
      </trkpt>
      <trkpt lat="46.07245" lon="4.74154">
        <ele>177</ele>
        <time>2018-04-21T10:19:11Z</time>
      </trkpt>
      <trkpt lat="46.07241" lon="4.74144">
        <ele>177</ele>
        <time>2018-04-21T10:19:12Z</time>
      </trkpt>
      <trkpt lat="46.07237" lon="4.74133">
        <ele>177</ele>
        <time>2018-04-21T10:19:14Z</time>
      </trkpt>
      <trkpt lat="46.07236" lon="4.74129">
        <ele>177</ele>
        <time>2018-04-21T10:19:15Z</time>
      </trkpt>
      <trkpt lat="46.07231" lon="4.74118">
        <ele>177</ele>
        <time>2018-04-21T10:19:17Z</time>
      </trkpt>
      <trkpt lat="46.0723" lon="4.74112">
        <ele>177</ele>
        <time>2018-04-21T10:19:18Z</time>
      </trkpt>
      <trkpt lat="46.07227" lon="4.74106">
        <ele>177</ele>
        <time>2018-04-21T10:19:19Z</time>
      </trkpt>
      <trkpt lat="46.07226" lon="4.741">
        <ele>177</ele>
        <time>2018-04-21T10:19:20Z</time>
      </trkpt>
      <trkpt lat="46.07224" lon="4.74093">
        <ele>177</ele>
        <time>2018-04-21T10:19:21Z</time>
      </trkpt>
      <trkpt lat="46.07222" lon="4.74086">
        <ele>177</ele>
        <time>2018-04-21T10:19:22Z</time>
      </trkpt>
      <trkpt lat="46.0722" lon="4.7408">
        <ele>177</ele>
        <time>2018-04-21T10:19:23Z</time>
      </trkpt>
      <trkpt lat="46.07217" lon="4.74073">
        <ele>177</ele>
        <time>2018-04-21T10:19:24Z</time>
      </trkpt>
      <trkpt lat="46.07215" lon="4.74065">
        <ele>177</ele>
        <time>2018-04-21T10:19:25Z</time>
      </trkpt>
      <trkpt lat="46.07213" lon="4.74058">
        <ele>177</ele>
        <time>2018-04-21T10:19:26Z</time>
      </trkpt>
      <trkpt lat="46.07211" lon="4.7405">
        <ele>177</ele>
        <time>2018-04-21T10:19:27Z</time>
      </trkpt>
      <trkpt lat="46.07209" lon="4.74043">
        <ele>177</ele>
        <time>2018-04-21T10:19:28Z</time>
      </trkpt>
      <trkpt lat="46.07207" lon="4.74035">
        <ele>178</ele>
        <time>2018-04-21T10:19:29Z</time>
      </trkpt>
      <trkpt lat="46.07203" lon="4.74027">
        <ele>178</ele>
        <time>2018-04-21T10:19:30Z</time>
      </trkpt>
      <trkpt lat="46.07201" lon="4.74019">
        <ele>178</ele>
        <time>2018-04-21T10:19:31Z</time>
      </trkpt>
      <trkpt lat="46.07199" lon="4.7401">
        <ele>178</ele>
        <time>2018-04-21T10:19:32Z</time>
      </trkpt>
      <trkpt lat="46.07196" lon="4.74002">
        <ele>178</ele>
        <time>2018-04-21T10:19:33Z</time>
      </trkpt>
      <trkpt lat="46.07195" lon="4.73995">
        <ele>178</ele>
        <time>2018-04-21T10:19:34Z</time>
      </trkpt>
      <trkpt lat="46.07191" lon="4.73986">
        <ele>178</ele>
        <time>2018-04-21T10:19:35Z</time>
      </trkpt>
      <trkpt lat="46.07188" lon="4.73978">
        <ele>178</ele>
        <time>2018-04-21T10:19:36Z</time>
      </trkpt>
      <trkpt lat="46.07185" lon="4.73967">
        <ele>178</ele>
        <time>2018-04-21T10:19:37Z</time>
      </trkpt>
      <trkpt lat="46.07182" lon="4.73958">
        <ele>177</ele>
        <time>2018-04-21T10:19:38Z</time>
      </trkpt>
      <trkpt lat="46.07179" lon="4.73947">
        <ele>177</ele>
        <time>2018-04-21T10:19:39Z</time>
      </trkpt>
      <trkpt lat="46.07176" lon="4.73938">
        <ele>177</ele>
        <time>2018-04-21T10:19:40Z</time>
      </trkpt>
      <trkpt lat="46.0717" lon="4.73928">
        <ele>177</ele>
        <time>2018-04-21T10:19:41Z</time>
      </trkpt>
      <trkpt lat="46.07167" lon="4.7392">
        <ele>177</ele>
        <time>2018-04-21T10:19:42Z</time>
      </trkpt>
      <trkpt lat="46.07163" lon="4.73911">
        <ele>177</ele>
        <time>2018-04-21T10:19:43Z</time>
      </trkpt>
      <trkpt lat="46.0716" lon="4.73902">
        <ele>177</ele>
        <time>2018-04-21T10:19:44Z</time>
      </trkpt>
      <trkpt lat="46.07155" lon="4.73895">
        <ele>177</ele>
        <time>2018-04-21T10:19:45Z</time>
      </trkpt>
      <trkpt lat="46.07151" lon="4.73886">
        <ele>176</ele>
        <time>2018-04-21T10:19:46Z</time>
      </trkpt>
      <trkpt lat="46.07149" lon="4.73878">
        <ele>176</ele>
        <time>2018-04-21T10:19:47Z</time>
      </trkpt>
      <trkpt lat="46.07145" lon="4.73872">
        <ele>176</ele>
        <time>2018-04-21T10:19:48Z</time>
      </trkpt>
      <trkpt lat="46.07141" lon="4.73866">
        <ele>176</ele>
        <time>2018-04-21T10:19:49Z</time>
      </trkpt>
      <trkpt lat="46.07137" lon="4.73859">
        <ele>176</ele>
        <time>2018-04-21T10:19:50Z</time>
      </trkpt>
      <trkpt lat="46.07132" lon="4.73853">
        <ele>176</ele>
        <time>2018-04-21T10:19:51Z</time>
      </trkpt>
      <trkpt lat="46.07127" lon="4.73847">
        <ele>176</ele>
        <time>2018-04-21T10:19:52Z</time>
      </trkpt>
      <trkpt lat="46.07123" lon="4.73841">
        <ele>177</ele>
        <time>2018-04-21T10:19:53Z</time>
      </trkpt>
      <trkpt lat="46.07118" lon="4.73835">
        <ele>177</ele>
        <time>2018-04-21T10:19:54Z</time>
      </trkpt>
      <trkpt lat="46.07113" lon="4.7383">
        <ele>177</ele>
        <time>2018-04-21T10:19:55Z</time>
      </trkpt>
      <trkpt lat="46.07108" lon="4.73825">
        <ele>178</ele>
        <time>2018-04-21T10:19:56Z</time>
      </trkpt>
      <trkpt lat="46.07104" lon="4.73819">
        <ele>178</ele>
        <time>2018-04-21T10:19:57Z</time>
      </trkpt>
      <trkpt lat="46.07099" lon="4.73814">
        <ele>178</ele>
        <time>2018-04-21T10:19:58Z</time>
      </trkpt>
      <trkpt lat="46.07093" lon="4.7381">
        <ele>178</ele>
        <time>2018-04-21T10:19:59Z</time>
      </trkpt>
      <trkpt lat="46.07088" lon="4.73807">
        <ele>178</ele>
        <time>2018-04-21T10:20:00Z</time>
      </trkpt>
      <trkpt lat="46.07081" lon="4.73803">
        <ele>178</ele>
        <time>2018-04-21T10:20:01Z</time>
      </trkpt>
      <trkpt lat="46.07076" lon="4.73801">
        <ele>178</ele>
        <time>2018-04-21T10:20:02Z</time>
      </trkpt>
      <trkpt lat="46.0707" lon="4.73798">
        <ele>178</ele>
        <time>2018-04-21T10:20:03Z</time>
      </trkpt>
      <trkpt lat="46.07065" lon="4.73796">
        <ele>178</ele>
        <time>2018-04-21T10:20:04Z</time>
      </trkpt>
      <trkpt lat="46.0706" lon="4.73795">
        <ele>178</ele>
        <time>2018-04-21T10:20:05Z</time>
      </trkpt>
      <trkpt lat="46.07054" lon="4.73794">
        <ele>177</ele>
        <time>2018-04-21T10:20:06Z</time>
      </trkpt>
      <trkpt lat="46.07048" lon="4.73794">
        <ele>177</ele>
        <time>2018-04-21T10:20:07Z</time>
      </trkpt>
      <trkpt lat="46.07042" lon="4.73791">
        <ele>177</ele>
        <time>2018-04-21T10:20:08Z</time>
      </trkpt>
      <trkpt lat="46.07037" lon="4.73792">
        <ele>177</ele>
        <time>2018-04-21T10:20:09Z</time>
      </trkpt>
      <trkpt lat="46.07032" lon="4.73791">
        <ele>177</ele>
        <time>2018-04-21T10:20:10Z</time>
      </trkpt>
      <trkpt lat="46.07026" lon="4.7379">
        <ele>177</ele>
        <time>2018-04-21T10:20:11Z</time>
      </trkpt>
      <trkpt lat="46.0702" lon="4.73788">
        <ele>177</ele>
        <time>2018-04-21T10:20:12Z</time>
      </trkpt>
      <trkpt lat="46.07015" lon="4.73787">
        <ele>177</ele>
        <time>2018-04-21T10:20:13Z</time>
      </trkpt>
      <trkpt lat="46.07008" lon="4.73787">
        <ele>177</ele>
        <time>2018-04-21T10:20:14Z</time>
      </trkpt>
      <trkpt lat="46.07003" lon="4.73788">
        <ele>177</ele>
        <time>2018-04-21T10:20:15Z</time>
      </trkpt>
      <trkpt lat="46.06998" lon="4.73788">
        <ele>176</ele>
        <time>2018-04-21T10:20:16Z</time>
      </trkpt>
      <trkpt lat="46.06993" lon="4.73787">
        <ele>176</ele>
        <time>2018-04-21T10:20:17Z</time>
      </trkpt>
      <trkpt lat="46.06988" lon="4.73785">
        <ele>176</ele>
        <time>2018-04-21T10:20:18Z</time>
      </trkpt>
      <trkpt lat="46.06982" lon="4.73784">
        <ele>176</ele>
        <time>2018-04-21T10:20:19Z</time>
      </trkpt>
      <trkpt lat="46.06976" lon="4.73783">
        <ele>176</ele>
        <time>2018-04-21T10:20:20Z</time>
      </trkpt>
      <trkpt lat="46.06971" lon="4.73781">
        <ele>176</ele>
        <time>2018-04-21T10:20:21Z</time>
      </trkpt>
      <trkpt lat="46.06965" lon="4.73778">
        <ele>176</ele>
        <time>2018-04-21T10:20:22Z</time>
      </trkpt>
      <trkpt lat="46.0696" lon="4.73777">
        <ele>176</ele>
        <time>2018-04-21T10:20:23Z</time>
      </trkpt>
      <trkpt lat="46.06954" lon="4.73775">
        <ele>176</ele>
        <time>2018-04-21T10:20:24Z</time>
      </trkpt>
      <trkpt lat="46.06949" lon="4.73771">
        <ele>176</ele>
        <time>2018-04-21T10:20:25Z</time>
      </trkpt>
      <trkpt lat="46.06944" lon="4.73769">
        <ele>176</ele>
        <time>2018-04-21T10:20:26Z</time>
      </trkpt>
      <trkpt lat="46.06939" lon="4.73765">
        <ele>176</ele>
        <time>2018-04-21T10:20:27Z</time>
      </trkpt>
      <trkpt lat="46.06934" lon="4.7376">
        <ele>177</ele>
        <time>2018-04-21T10:20:28Z</time>
      </trkpt>
      <trkpt lat="46.06926" lon="4.73754">
        <ele>177</ele>
        <time>2018-04-21T10:20:30Z</time>
      </trkpt>
      <trkpt lat="46.06922" lon="4.7375">
        <ele>177</ele>
        <time>2018-04-21T10:20:31Z</time>
      </trkpt>
      <trkpt lat="46.06919" lon="4.73746">
        <ele>177</ele>
        <time>2018-04-21T10:20:32Z</time>
      </trkpt>
      <trkpt lat="46.06915" lon="4.73741">
        <ele>177</ele>
        <time>2018-04-21T10:20:33Z</time>
      </trkpt>
      <trkpt lat="46.06912" lon="4.73737">
        <ele>177</ele>
        <time>2018-04-21T10:20:34Z</time>
      </trkpt>
      <trkpt lat="46.06908" lon="4.73732">
        <ele>177</ele>
        <time>2018-04-21T10:20:35Z</time>
      </trkpt>
      <trkpt lat="46.06902" lon="4.73722">
        <ele>176</ele>
        <time>2018-04-21T10:20:37Z</time>
      </trkpt>
      <trkpt lat="46.069" lon="4.73716">
        <ele>176</ele>
        <time>2018-04-21T10:20:38Z</time>
      </trkpt>
      <trkpt lat="46.06895" lon="4.73712">
        <ele>176</ele>
        <time>2018-04-21T10:20:39Z</time>
      </trkpt>
      <trkpt lat="46.06891" lon="4.73707">
        <ele>176</ele>
        <time>2018-04-21T10:20:40Z</time>
      </trkpt>
      <trkpt lat="46.06887" lon="4.73702">
        <ele>176</ele>
        <time>2018-04-21T10:20:41Z</time>
      </trkpt>
      <trkpt lat="46.06883" lon="4.73697">
        <ele>176</ele>
        <time>2018-04-21T10:20:42Z</time>
      </trkpt>
      <trkpt lat="46.06877" lon="4.73693">
        <ele>176</ele>
        <time>2018-04-21T10:20:43Z</time>
      </trkpt>
      <trkpt lat="46.06873" lon="4.73688">
        <ele>176</ele>
        <time>2018-04-21T10:20:44Z</time>
      </trkpt>
      <trkpt lat="46.06869" lon="4.73682">
        <ele>176</ele>
        <time>2018-04-21T10:20:45Z</time>
      </trkpt>
      <trkpt lat="46.06864" lon="4.73678">
        <ele>176</ele>
        <time>2018-04-21T10:20:46Z</time>
      </trkpt>
      <trkpt lat="46.06859" lon="4.73673">
        <ele>176</ele>
        <time>2018-04-21T10:20:47Z</time>
      </trkpt>
      <trkpt lat="46.06853" lon="4.73667">
        <ele>176</ele>
        <time>2018-04-21T10:20:48Z</time>
      </trkpt>
      <trkpt lat="46.06847" lon="4.73662">
        <ele>176</ele>
        <time>2018-04-21T10:20:49Z</time>
      </trkpt>
      <trkpt lat="46.06843" lon="4.73656">
        <ele>176</ele>
        <time>2018-04-21T10:20:50Z</time>
      </trkpt>
      <trkpt lat="46.06838" lon="4.73651">
        <ele>176</ele>
        <time>2018-04-21T10:20:51Z</time>
      </trkpt>
      <trkpt lat="46.06833" lon="4.73645">
        <ele>177</ele>
        <time>2018-04-21T10:20:52Z</time>
      </trkpt>
      <trkpt lat="46.06829" lon="4.73642">
        <ele>177</ele>
        <time>2018-04-21T10:20:53Z</time>
      </trkpt>
      <trkpt lat="46.06824" lon="4.73636">
        <ele>178</ele>
        <time>2018-04-21T10:20:54Z</time>
      </trkpt>
      <trkpt lat="46.0682" lon="4.73632">
        <ele>178</ele>
        <time>2018-04-21T10:20:55Z</time>
      </trkpt>
      <trkpt lat="46.06815" lon="4.73627">
        <ele>178</ele>
        <time>2018-04-21T10:20:56Z</time>
      </trkpt>
      <trkpt lat="46.06811" lon="4.73621">
        <ele>178</ele>
        <time>2018-04-21T10:20:57Z</time>
      </trkpt>
      <trkpt lat="46.06807" lon="4.73616">
        <ele>178</ele>
        <time>2018-04-21T10:20:58Z</time>
      </trkpt>
      <trkpt lat="46.06802" lon="4.73612">
        <ele>178</ele>
        <time>2018-04-21T10:20:59Z</time>
      </trkpt>
      <trkpt lat="46.06798" lon="4.73607">
        <ele>178</ele>
        <time>2018-04-21T10:21:00Z</time>
      </trkpt>
      <trkpt lat="46.06794" lon="4.73602">
        <ele>179</ele>
        <time>2018-04-21T10:21:01Z</time>
      </trkpt>
      <trkpt lat="46.06793" lon="4.73594">
        <ele>179</ele>
        <time>2018-04-21T10:21:02Z</time>
      </trkpt>
      <trkpt lat="46.06788" lon="4.7359">
        <ele>179</ele>
        <time>2018-04-21T10:21:03Z</time>
      </trkpt>
      <trkpt lat="46.06785" lon="4.73583">
        <ele>179</ele>
        <time>2018-04-21T10:21:04Z</time>
      </trkpt>
      <trkpt lat="46.06781" lon="4.73577">
        <ele>179</ele>
        <time>2018-04-21T10:21:05Z</time>
      </trkpt>
      <trkpt lat="46.06778" lon="4.73571">
        <ele>179</ele>
        <time>2018-04-21T10:21:06Z</time>
      </trkpt>
      <trkpt lat="46.06776" lon="4.73565">
        <ele>179</ele>
        <time>2018-04-21T10:21:07Z</time>
      </trkpt>
      <trkpt lat="46.06775" lon="4.73558">
        <ele>179</ele>
        <time>2018-04-21T10:21:08Z</time>
      </trkpt>
      <trkpt lat="46.06772" lon="4.7355">
        <ele>179</ele>
        <time>2018-04-21T10:21:09Z</time>
      </trkpt>
      <trkpt lat="46.06769" lon="4.73543">
        <ele>179</ele>
        <time>2018-04-21T10:21:10Z</time>
      </trkpt>
      <trkpt lat="46.06768" lon="4.73537">
        <ele>179</ele>
        <time>2018-04-21T10:21:11Z</time>
      </trkpt>
      <trkpt lat="46.06765" lon="4.73529">
        <ele>179</ele>
        <time>2018-04-21T10:21:12Z</time>
      </trkpt>
      <trkpt lat="46.06761" lon="4.73523">
        <ele>179</ele>
        <time>2018-04-21T10:21:13Z</time>
      </trkpt>
      <trkpt lat="46.06757" lon="4.73517">
        <ele>179</ele>
        <time>2018-04-21T10:21:14Z</time>
      </trkpt>
      <trkpt lat="46.06753" lon="4.73511">
        <ele>179</ele>
        <time>2018-04-21T10:21:15Z</time>
      </trkpt>
      <trkpt lat="46.06749" lon="4.73506">
        <ele>179</ele>
        <time>2018-04-21T10:21:16Z</time>
      </trkpt>
      <trkpt lat="46.06744" lon="4.73501">
        <ele>179</ele>
        <time>2018-04-21T10:21:17Z</time>
      </trkpt>
      <trkpt lat="46.0674" lon="4.73495">
        <ele>179</ele>
        <time>2018-04-21T10:21:18Z</time>
      </trkpt>
      <trkpt lat="46.06735" lon="4.7349">
        <ele>180</ele>
        <time>2018-04-21T10:21:19Z</time>
      </trkpt>
      <trkpt lat="46.0673" lon="4.73482">
        <ele>180</ele>
        <time>2018-04-21T10:21:20Z</time>
      </trkpt>
      <trkpt lat="46.06726" lon="4.73477">
        <ele>180</ele>
        <time>2018-04-21T10:21:21Z</time>
      </trkpt>
      <trkpt lat="46.06722" lon="4.73472">
        <ele>180</ele>
        <time>2018-04-21T10:21:22Z</time>
      </trkpt>
      <trkpt lat="46.06717" lon="4.73464">
        <ele>180</ele>
        <time>2018-04-21T10:21:23Z</time>
      </trkpt>
      <trkpt lat="46.06713" lon="4.73456">
        <ele>180</ele>
        <time>2018-04-21T10:21:24Z</time>
      </trkpt>
      <trkpt lat="46.06708" lon="4.7345">
        <ele>180</ele>
        <time>2018-04-21T10:21:25Z</time>
      </trkpt>
      <trkpt lat="46.06703" lon="4.73444">
        <ele>180</ele>
        <time>2018-04-21T10:21:26Z</time>
      </trkpt>
      <trkpt lat="46.06699" lon="4.73437">
        <ele>180</ele>
        <time>2018-04-21T10:21:27Z</time>
      </trkpt>
      <trkpt lat="46.06695" lon="4.73431">
        <ele>181</ele>
        <time>2018-04-21T10:21:28Z</time>
      </trkpt>
      <trkpt lat="46.06691" lon="4.73425">
        <ele>181</ele>
        <time>2018-04-21T10:21:29Z</time>
      </trkpt>
      <trkpt lat="46.06687" lon="4.73419">
        <ele>181</ele>
        <time>2018-04-21T10:21:30Z</time>
      </trkpt>
      <trkpt lat="46.06683" lon="4.73412">
        <ele>181</ele>
        <time>2018-04-21T10:21:31Z</time>
      </trkpt>
      <trkpt lat="46.06677" lon="4.73407">
        <ele>181</ele>
        <time>2018-04-21T10:21:32Z</time>
      </trkpt>
      <trkpt lat="46.06673" lon="4.73402">
        <ele>181</ele>
        <time>2018-04-21T10:21:33Z</time>
      </trkpt>
      <trkpt lat="46.0667" lon="4.73396">
        <ele>181</ele>
        <time>2018-04-21T10:21:34Z</time>
      </trkpt>
      <trkpt lat="46.06664" lon="4.7339">
        <ele>182</ele>
        <time>2018-04-21T10:21:35Z</time>
      </trkpt>
      <trkpt lat="46.06661" lon="4.73384">
        <ele>182</ele>
        <time>2018-04-21T10:21:36Z</time>
      </trkpt>
      <trkpt lat="46.06656" lon="4.73379">
        <ele>182</ele>
        <time>2018-04-21T10:21:37Z</time>
      </trkpt>
      <trkpt lat="46.06652" lon="4.73374">
        <ele>182</ele>
        <time>2018-04-21T10:21:38Z</time>
      </trkpt>
      <trkpt lat="46.06647" lon="4.7337">
        <ele>182</ele>
        <time>2018-04-21T10:21:39Z</time>
      </trkpt>
      <trkpt lat="46.06643" lon="4.73368">
        <ele>182</ele>
        <time>2018-04-21T10:21:40Z</time>
      </trkpt>
      <trkpt lat="46.06638" lon="4.73364">
        <ele>182</ele>
        <time>2018-04-21T10:21:41Z</time>
      </trkpt>
      <trkpt lat="46.06634" lon="4.73361">
        <ele>182</ele>
        <time>2018-04-21T10:21:42Z</time>
      </trkpt>
      <trkpt lat="46.0663" lon="4.73358">
        <ele>182</ele>
        <time>2018-04-21T10:21:43Z</time>
      </trkpt>
      <trkpt lat="46.06625" lon="4.73356">
        <ele>182</ele>
        <time>2018-04-21T10:21:44Z</time>
      </trkpt>
      <trkpt lat="46.0662" lon="4.73354">
        <ele>182</ele>
        <time>2018-04-21T10:21:45Z</time>
      </trkpt>
      <trkpt lat="46.06616" lon="4.73352">
        <ele>182</ele>
        <time>2018-04-21T10:21:46Z</time>
      </trkpt>
      <trkpt lat="46.06612" lon="4.73349">
        <ele>182</ele>
        <time>2018-04-21T10:21:47Z</time>
      </trkpt>
      <trkpt lat="46.06608" lon="4.73345">
        <ele>182</ele>
        <time>2018-04-21T10:21:48Z</time>
      </trkpt>
      <trkpt lat="46.06601" lon="4.73337">
        <ele>182</ele>
        <time>2018-04-21T10:21:50Z</time>
      </trkpt>
      <trkpt lat="46.06598" lon="4.73332">
        <ele>182</ele>
        <time>2018-04-21T10:21:51Z</time>
      </trkpt>
      <trkpt lat="46.06595" lon="4.73322">
        <ele>182</ele>
        <time>2018-04-21T10:21:53Z</time>
      </trkpt>
      <trkpt lat="46.06593" lon="4.73317">
        <ele>182</ele>
        <time>2018-04-21T10:21:54Z</time>
      </trkpt>
      <trkpt lat="46.06587" lon="4.73308">
        <ele>183</ele>
        <time>2018-04-21T10:21:56Z</time>
      </trkpt>
      <trkpt lat="46.06584" lon="4.73304">
        <ele>183</ele>
        <time>2018-04-21T10:21:57Z</time>
      </trkpt>
      <trkpt lat="46.06582" lon="4.73299">
        <ele>183</ele>
        <time>2018-04-21T10:21:58Z</time>
      </trkpt>
      <trkpt lat="46.06579" lon="4.73293">
        <ele>184</ele>
        <time>2018-04-21T10:21:59Z</time>
      </trkpt>
      <trkpt lat="46.06575" lon="4.73281">
        <ele>184</ele>
        <time>2018-04-21T10:22:01Z</time>
      </trkpt>
      <trkpt lat="46.06572" lon="4.73276">
        <ele>184</ele>
        <time>2018-04-21T10:22:02Z</time>
      </trkpt>
      <trkpt lat="46.0657" lon="4.73265">
        <ele>184</ele>
        <time>2018-04-21T10:22:04Z</time>
      </trkpt>
      <trkpt lat="46.06569" lon="4.7326">
        <ele>184</ele>
        <time>2018-04-21T10:22:05Z</time>
      </trkpt>
      <trkpt lat="46.06566" lon="4.73249">
        <ele>186</ele>
        <time>2018-04-21T10:22:07Z</time>
      </trkpt>
      <trkpt lat="46.06565" lon="4.73244">
        <ele>186</ele>
        <time>2018-04-21T10:22:08Z</time>
      </trkpt>
      <trkpt lat="46.06563" lon="4.73238">
        <ele>186</ele>
        <time>2018-04-21T10:22:09Z</time>
      </trkpt>
      <trkpt lat="46.06559" lon="4.73231">
        <ele>186</ele>
        <time>2018-04-21T10:22:10Z</time>
      </trkpt>
      <trkpt lat="46.06557" lon="4.73225">
        <ele>186</ele>
        <time>2018-04-21T10:22:11Z</time>
      </trkpt>
      <trkpt lat="46.06556" lon="4.73219">
        <ele>186</ele>
        <time>2018-04-21T10:22:12Z</time>
      </trkpt>
      <trkpt lat="46.06554" lon="4.73208">
        <ele>186</ele>
        <time>2018-04-21T10:22:14Z</time>
      </trkpt>
      <trkpt lat="46.06554" lon="4.73201">
        <ele>186</ele>
        <time>2018-04-21T10:22:15Z</time>
      </trkpt>
      <trkpt lat="46.06553" lon="4.73194">
        <ele>186</ele>
        <time>2018-04-21T10:22:16Z</time>
      </trkpt>
      <trkpt lat="46.06552" lon="4.73186">
        <ele>187</ele>
        <time>2018-04-21T10:22:17Z</time>
      </trkpt>
      <trkpt lat="46.06553" lon="4.73175">
        <ele>187</ele>
        <time>2018-04-21T10:22:19Z</time>
      </trkpt>
      <trkpt lat="46.06553" lon="4.73167">
        <ele>187</ele>
        <time>2018-04-21T10:22:20Z</time>
      </trkpt>
      <trkpt lat="46.06552" lon="4.73161">
        <ele>187</ele>
        <time>2018-04-21T10:22:21Z</time>
      </trkpt>
      <trkpt lat="46.06551" lon="4.73154">
        <ele>187</ele>
        <time>2018-04-21T10:22:22Z</time>
      </trkpt>
      <trkpt lat="46.06549" lon="4.73148">
        <ele>187</ele>
        <time>2018-04-21T10:22:23Z</time>
      </trkpt>
      <trkpt lat="46.06547" lon="4.73141">
        <ele>187</ele>
        <time>2018-04-21T10:22:24Z</time>
      </trkpt>
      <trkpt lat="46.06544" lon="4.73131">
        <ele>187</ele>
        <time>2018-04-21T10:22:26Z</time>
      </trkpt>
      <trkpt lat="46.06542" lon="4.73124">
        <ele>187</ele>
        <time>2018-04-21T10:22:27Z</time>
      </trkpt>
      <trkpt lat="46.0654" lon="4.73117">
        <ele>188</ele>
        <time>2018-04-21T10:22:28Z</time>
      </trkpt>
      <trkpt lat="46.06539" lon="4.73111">
        <ele>188</ele>
        <time>2018-04-21T10:22:29Z</time>
      </trkpt>
      <trkpt lat="46.06535" lon="4.73104">
        <ele>188</ele>
        <time>2018-04-21T10:22:30Z</time>
      </trkpt>
      <trkpt lat="46.06533" lon="4.73099">
        <ele>188</ele>
        <time>2018-04-21T10:22:31Z</time>
      </trkpt>
      <trkpt lat="46.0653" lon="4.73087">
        <ele>188</ele>
        <time>2018-04-21T10:22:33Z</time>
      </trkpt>
      <trkpt lat="46.06526" lon="4.73081">
        <ele>188</ele>
        <time>2018-04-21T10:22:34Z</time>
      </trkpt>
      <trkpt lat="46.06524" lon="4.73074">
        <ele>188</ele>
        <time>2018-04-21T10:22:35Z</time>
      </trkpt>
      <trkpt lat="46.06521" lon="4.73069">
        <ele>188</ele>
        <time>2018-04-21T10:22:36Z</time>
      </trkpt>
      <trkpt lat="46.06517" lon="4.73058">
        <ele>188</ele>
        <time>2018-04-21T10:22:38Z</time>
      </trkpt>
      <trkpt lat="46.06516" lon="4.73054">
        <ele>188</ele>
        <time>2018-04-21T10:22:39Z</time>
      </trkpt>
      <trkpt lat="46.06514" lon="4.73048">
        <ele>188</ele>
        <time>2018-04-21T10:22:40Z</time>
      </trkpt>
      <trkpt lat="46.06515" lon="4.7304">
        <ele>188</ele>
        <time>2018-04-21T10:22:41Z</time>
      </trkpt>
      <trkpt lat="46.06513" lon="4.73032">
        <ele>189</ele>
        <time>2018-04-21T10:22:42Z</time>
      </trkpt>
      <trkpt lat="46.0651" lon="4.73026">
        <ele>189</ele>
        <time>2018-04-21T10:22:43Z</time>
      </trkpt>
      <trkpt lat="46.06507" lon="4.7302">
        <ele>189</ele>
        <time>2018-04-21T10:22:44Z</time>
      </trkpt>
      <trkpt lat="46.06504" lon="4.73014">
        <ele>189</ele>
        <time>2018-04-21T10:22:45Z</time>
      </trkpt>
      <trkpt lat="46.065" lon="4.73007">
        <ele>189</ele>
        <time>2018-04-21T10:22:46Z</time>
      </trkpt>
      <trkpt lat="46.06498" lon="4.73001">
        <ele>189</ele>
        <time>2018-04-21T10:22:47Z</time>
      </trkpt>
      <trkpt lat="46.06495" lon="4.72995">
        <ele>189</ele>
        <time>2018-04-21T10:22:48Z</time>
      </trkpt>
      <trkpt lat="46.06494" lon="4.72989">
        <ele>189</ele>
        <time>2018-04-21T10:22:49Z</time>
      </trkpt>
      <trkpt lat="46.06492" lon="4.72982">
        <ele>189</ele>
        <time>2018-04-21T10:22:50Z</time>
      </trkpt>
      <trkpt lat="46.06491" lon="4.72975">
        <ele>189</ele>
        <time>2018-04-21T10:22:51Z</time>
      </trkpt>
      <trkpt lat="46.0649" lon="4.72969">
        <ele>189</ele>
        <time>2018-04-21T10:22:52Z</time>
      </trkpt>
      <trkpt lat="46.06488" lon="4.72961">
        <ele>188</ele>
        <time>2018-04-21T10:22:53Z</time>
      </trkpt>
      <trkpt lat="46.06487" lon="4.72954">
        <ele>188</ele>
        <time>2018-04-21T10:22:54Z</time>
      </trkpt>
      <trkpt lat="46.06487" lon="4.72947">
        <ele>188</ele>
        <time>2018-04-21T10:22:55Z</time>
      </trkpt>
      <trkpt lat="46.06487" lon="4.7294">
        <ele>189</ele>
        <time>2018-04-21T10:22:56Z</time>
      </trkpt>
      <trkpt lat="46.06485" lon="4.72932">
        <ele>189</ele>
        <time>2018-04-21T10:22:57Z</time>
      </trkpt>
      <trkpt lat="46.06484" lon="4.72923">
        <ele>189</ele>
        <time>2018-04-21T10:22:58Z</time>
      </trkpt>
      <trkpt lat="46.06483" lon="4.72915">
        <ele>189</ele>
        <time>2018-04-21T10:22:59Z</time>
      </trkpt>
      <trkpt lat="46.06482" lon="4.72907">
        <ele>189</ele>
        <time>2018-04-21T10:23:00Z</time>
      </trkpt>
      <trkpt lat="46.06481" lon="4.72899">
        <ele>188</ele>
        <time>2018-04-21T10:23:01Z</time>
      </trkpt>
      <trkpt lat="46.06481" lon="4.72893">
        <ele>188</ele>
        <time>2018-04-21T10:23:02Z</time>
      </trkpt>
      <trkpt lat="46.0648" lon="4.72886">
        <ele>188</ele>
        <time>2018-04-21T10:23:03Z</time>
      </trkpt>
      <trkpt lat="46.06479" lon="4.72877">
        <ele>188</ele>
        <time>2018-04-21T10:23:04Z</time>
      </trkpt>
      <trkpt lat="46.06478" lon="4.72869">
        <ele>188</ele>
        <time>2018-04-21T10:23:05Z</time>
      </trkpt>
      <trkpt lat="46.06479" lon="4.72861">
        <ele>188</ele>
        <time>2018-04-21T10:23:06Z</time>
      </trkpt>
      <trkpt lat="46.06478" lon="4.72853">
        <ele>188</ele>
        <time>2018-04-21T10:23:07Z</time>
      </trkpt>
      <trkpt lat="46.06474" lon="4.72847">
        <ele>188</ele>
        <time>2018-04-21T10:23:08Z</time>
      </trkpt>
      <trkpt lat="46.06472" lon="4.72842">
        <ele>188</ele>
        <time>2018-04-21T10:23:09Z</time>
      </trkpt>
      <trkpt lat="46.06469" lon="4.72835">
        <ele>188</ele>
        <time>2018-04-21T10:23:10Z</time>
      </trkpt>
      <trkpt lat="46.06467" lon="4.72828">
        <ele>188</ele>
        <time>2018-04-21T10:23:11Z</time>
      </trkpt>
      <trkpt lat="46.06464" lon="4.72819">
        <ele>188</ele>
        <time>2018-04-21T10:23:12Z</time>
      </trkpt>
      <trkpt lat="46.06462" lon="4.72811">
        <ele>188</ele>
        <time>2018-04-21T10:23:13Z</time>
      </trkpt>
      <trkpt lat="46.0646" lon="4.72803">
        <ele>188</ele>
        <time>2018-04-21T10:23:14Z</time>
      </trkpt>
      <trkpt lat="46.06459" lon="4.72796">
        <ele>188</ele>
        <time>2018-04-21T10:23:15Z</time>
      </trkpt>
      <trkpt lat="46.06455" lon="4.72786">
        <ele>188</ele>
        <time>2018-04-21T10:23:16Z</time>
      </trkpt>
      <trkpt lat="46.06456" lon="4.72779">
        <ele>188</ele>
        <time>2018-04-21T10:23:17Z</time>
      </trkpt>
      <trkpt lat="46.06456" lon="4.72766">
        <ele>188</ele>
        <time>2018-04-21T10:23:19Z</time>
      </trkpt>
      <trkpt lat="46.06455" lon="4.72758">
        <ele>188</ele>
        <time>2018-04-21T10:23:20Z</time>
      </trkpt>
      <trkpt lat="46.06453" lon="4.7275">
        <ele>189</ele>
        <time>2018-04-21T10:23:21Z</time>
      </trkpt>
      <trkpt lat="46.06453" lon="4.72744">
        <ele>189</ele>
        <time>2018-04-21T10:23:22Z</time>
      </trkpt>
      <trkpt lat="46.06451" lon="4.72737">
        <ele>189</ele>
        <time>2018-04-21T10:23:23Z</time>
      </trkpt>
      <trkpt lat="46.0645" lon="4.72731">
        <ele>189</ele>
        <time>2018-04-21T10:23:24Z</time>
      </trkpt>
      <trkpt lat="46.06448" lon="4.72723">
        <ele>190</ele>
        <time>2018-04-21T10:23:25Z</time>
      </trkpt>
      <trkpt lat="46.06447" lon="4.72716">
        <ele>190</ele>
        <time>2018-04-21T10:23:26Z</time>
      </trkpt>
      <trkpt lat="46.06445" lon="4.72709">
        <ele>190</ele>
        <time>2018-04-21T10:23:27Z</time>
      </trkpt>
      <trkpt lat="46.06444" lon="4.72702">
        <ele>190</ele>
        <time>2018-04-21T10:23:28Z</time>
      </trkpt>
      <trkpt lat="46.06443" lon="4.72695">
        <ele>190</ele>
        <time>2018-04-21T10:23:29Z</time>
      </trkpt>
      <trkpt lat="46.06442" lon="4.72688">
        <ele>190</ele>
        <time>2018-04-21T10:23:30Z</time>
      </trkpt>
      <trkpt lat="46.0644" lon="4.72677">
        <ele>191</ele>
        <time>2018-04-21T10:23:32Z</time>
      </trkpt>
      <trkpt lat="46.06439" lon="4.72671">
        <ele>191</ele>
        <time>2018-04-21T10:23:33Z</time>
      </trkpt>
      <trkpt lat="46.06436" lon="4.72659">
        <ele>192</ele>
        <time>2018-04-21T10:23:35Z</time>
      </trkpt>
      <trkpt lat="46.06435" lon="4.72653">
        <ele>192</ele>
        <time>2018-04-21T10:23:36Z</time>
      </trkpt>
      <trkpt lat="46.06433" lon="4.72642">
        <ele>192</ele>
        <time>2018-04-21T10:23:38Z</time>
      </trkpt>
      <trkpt lat="46.06432" lon="4.72636">
        <ele>192</ele>
        <time>2018-04-21T10:23:39Z</time>
      </trkpt>
      <trkpt lat="46.0643" lon="4.72625">
        <ele>193</ele>
        <time>2018-04-21T10:23:41Z</time>
      </trkpt>
      <trkpt lat="46.06429" lon="4.72619">
        <ele>193</ele>
        <time>2018-04-21T10:23:42Z</time>
      </trkpt>
      <trkpt lat="46.06427" lon="4.72607">
        <ele>193</ele>
        <time>2018-04-21T10:23:44Z</time>
      </trkpt>
      <trkpt lat="46.06426" lon="4.72601">
        <ele>193</ele>
        <time>2018-04-21T10:23:45Z</time>
      </trkpt>
      <trkpt lat="46.06424" lon="4.7259">
        <ele>194</ele>
        <time>2018-04-21T10:23:47Z</time>
      </trkpt>
      <trkpt lat="46.06423" lon="4.72584">
        <ele>194</ele>
        <time>2018-04-21T10:23:48Z</time>
      </trkpt>
      <trkpt lat="46.06421" lon="4.72572">
        <ele>195</ele>
        <time>2018-04-21T10:23:50Z</time>
      </trkpt>
      <trkpt lat="46.06419" lon="4.72566">
        <ele>195</ele>
        <time>2018-04-21T10:23:51Z</time>
      </trkpt>
      <trkpt lat="46.06417" lon="4.72553">
        <ele>196</ele>
        <time>2018-04-21T10:23:53Z</time>
      </trkpt>
      <trkpt lat="46.06416" lon="4.72547">
        <ele>196</ele>
        <time>2018-04-21T10:23:54Z</time>
      </trkpt>
      <trkpt lat="46.06415" lon="4.72535">
        <ele>197</ele>
        <time>2018-04-21T10:23:56Z</time>
      </trkpt>
      <trkpt lat="46.06415" lon="4.72529">
        <ele>197</ele>
        <time>2018-04-21T10:23:57Z</time>
      </trkpt>
      <trkpt lat="46.06414" lon="4.72517">
        <ele>198</ele>
        <time>2018-04-21T10:23:59Z</time>
      </trkpt>
      <trkpt lat="46.06414" lon="4.7251">
        <ele>199</ele>
        <time>2018-04-21T10:24:00Z</time>
      </trkpt>
      <trkpt lat="46.06413" lon="4.72502">
        <ele>199</ele>
        <time>2018-04-21T10:24:02Z</time>
      </trkpt>
      <trkpt lat="46.0641" lon="4.72494">
        <ele>199</ele>
        <time>2018-04-21T10:24:03Z</time>
      </trkpt>
      <trkpt lat="46.06409" lon="4.72486">
        <ele>198</ele>
        <time>2018-04-21T10:24:04Z</time>
      </trkpt>
      <trkpt lat="46.06407" lon="4.72481">
        <ele>198</ele>
        <time>2018-04-21T10:24:05Z</time>
      </trkpt>
      <trkpt lat="46.06402" lon="4.72473">
        <ele>198</ele>
        <time>2018-04-21T10:24:07Z</time>
      </trkpt>
      <trkpt lat="46.064" lon="4.72468">
        <ele>198</ele>
        <time>2018-04-21T10:24:08Z</time>
      </trkpt>
      <trkpt lat="46.06396" lon="4.72459">
        <ele>197</ele>
        <time>2018-04-21T10:24:10Z</time>
      </trkpt>
      <trkpt lat="46.06393" lon="4.72453">
        <ele>197</ele>
        <time>2018-04-21T10:24:11Z</time>
      </trkpt>
      <trkpt lat="46.06389" lon="4.72444">
        <ele>197</ele>
        <time>2018-04-21T10:24:13Z</time>
      </trkpt>
      <trkpt lat="46.06387" lon="4.72438">
        <ele>197</ele>
        <time>2018-04-21T10:24:14Z</time>
      </trkpt>
      <trkpt lat="46.06383" lon="4.72432">
        <ele>197</ele>
        <time>2018-04-21T10:24:15Z</time>
      </trkpt>
      <trkpt lat="46.06381" lon="4.72427">
        <ele>197</ele>
        <time>2018-04-21T10:24:16Z</time>
      </trkpt>
      <trkpt lat="46.06379" lon="4.72421">
        <ele>197</ele>
        <time>2018-04-21T10:24:17Z</time>
      </trkpt>
      <trkpt lat="46.06376" lon="4.72416">
        <ele>196</ele>
        <time>2018-04-21T10:24:18Z</time>
      </trkpt>
      <trkpt lat="46.06371" lon="4.72406">
        <ele>196</ele>
        <time>2018-04-21T10:24:20Z</time>
      </trkpt>
      <trkpt lat="46.06369" lon="4.724">
        <ele>196</ele>
        <time>2018-04-21T10:24:21Z</time>
      </trkpt>
      <trkpt lat="46.0637" lon="4.72392">
        <ele>196</ele>
        <time>2018-04-21T10:24:22Z</time>
      </trkpt>
      <trkpt lat="46.06368" lon="4.72387">
        <ele>196</ele>
        <time>2018-04-21T10:24:23Z</time>
      </trkpt>
      <trkpt lat="46.06372" lon="4.72376">
        <ele>196</ele>
        <time>2018-04-21T10:24:25Z</time>
      </trkpt>
      <trkpt lat="46.06373" lon="4.7237">
        <ele>195</ele>
        <time>2018-04-21T10:24:26Z</time>
      </trkpt>
      <trkpt lat="46.06375" lon="4.72363">
        <ele>195</ele>
        <time>2018-04-21T10:24:27Z</time>
      </trkpt>
      <trkpt lat="46.06377" lon="4.72352">
        <ele>195</ele>
        <time>2018-04-21T10:24:28Z</time>
      </trkpt>
      <trkpt lat="46.06378" lon="4.72344">
        <ele>195</ele>
        <time>2018-04-21T10:24:29Z</time>
      </trkpt>
      <trkpt lat="46.06377" lon="4.72336">
        <ele>195</ele>
        <time>2018-04-21T10:24:30Z</time>
      </trkpt>
      <trkpt lat="46.06376" lon="4.72327">
        <ele>193</ele>
        <time>2018-04-21T10:24:31Z</time>
      </trkpt>
      <trkpt lat="46.06376" lon="4.72319">
        <ele>193</ele>
        <time>2018-04-21T10:24:32Z</time>
      </trkpt>
      <trkpt lat="46.06376" lon="4.72312">
        <ele>193</ele>
        <time>2018-04-21T10:24:33Z</time>
      </trkpt>
      <trkpt lat="46.06375" lon="4.72306">
        <ele>193</ele>
        <time>2018-04-21T10:24:34Z</time>
      </trkpt>
      <trkpt lat="46.06376" lon="4.72293">
        <ele>193</ele>
        <time>2018-04-21T10:24:38Z</time>
      </trkpt>
      <trkpt lat="46.06381" lon="4.72286">
        <ele>193</ele>
        <time>2018-04-21T10:24:39Z</time>
      </trkpt>
      <trkpt lat="46.06388" lon="4.72281">
        <ele>192</ele>
        <time>2018-04-21T10:24:41Z</time>
      </trkpt>
      <trkpt lat="46.06392" lon="4.7228">
        <ele>192</ele>
        <time>2018-04-21T10:24:42Z</time>
      </trkpt>
      <trkpt lat="46.06397" lon="4.72279">
        <ele>192</ele>
        <time>2018-04-21T10:24:43Z</time>
      </trkpt>
      <trkpt lat="46.06402" lon="4.72281">
        <ele>192</ele>
        <time>2018-04-21T10:24:44Z</time>
      </trkpt>
      <trkpt lat="46.06407" lon="4.72282">
        <ele>192</ele>
        <time>2018-04-21T10:24:45Z</time>
      </trkpt>
      <trkpt lat="46.06412" lon="4.72284">
        <ele>192</ele>
        <time>2018-04-21T10:24:46Z</time>
      </trkpt>
      <trkpt lat="46.06417" lon="4.72286">
        <ele>190</ele>
        <time>2018-04-21T10:24:47Z</time>
      </trkpt>
      <trkpt lat="46.06421" lon="4.72287">
        <ele>190</ele>
        <time>2018-04-21T10:24:48Z</time>
      </trkpt>
      <trkpt lat="46.06427" lon="4.72287">
        <ele>190</ele>
        <time>2018-04-21T10:24:49Z</time>
      </trkpt>
      <trkpt lat="46.06431" lon="4.72286">
        <ele>190</ele>
        <time>2018-04-21T10:24:50Z</time>
      </trkpt>
      <trkpt lat="46.06433" lon="4.72278">
        <ele>190</ele>
        <time>2018-04-21T10:24:51Z</time>
      </trkpt>
      <trkpt lat="46.06433" lon="4.72271">
        <ele>190</ele>
        <time>2018-04-21T10:24:52Z</time>
      </trkpt>
      <trkpt lat="46.06431" lon="4.72265">
        <ele>189</ele>
        <time>2018-04-21T10:24:53Z</time>
      </trkpt>
      <trkpt lat="46.06428" lon="4.72259">
        <ele>189</ele>
        <time>2018-04-21T10:24:54Z</time>
      </trkpt>
      <trkpt lat="46.06422" lon="4.72253">
        <ele>189</ele>
        <time>2018-04-21T10:24:55Z</time>
      </trkpt>
      <trkpt lat="46.06418" lon="4.72249">
        <ele>189</ele>
        <time>2018-04-21T10:24:56Z</time>
      </trkpt>
      <trkpt lat="46.06414" lon="4.72242">
        <ele>189</ele>
        <time>2018-04-21T10:24:57Z</time>
      </trkpt>
      <trkpt lat="46.06411" lon="4.72235">
        <ele>190</ele>
        <time>2018-04-21T10:24:58Z</time>
      </trkpt>
      <trkpt lat="46.06408" lon="4.72227">
        <ele>190</ele>
        <time>2018-04-21T10:24:59Z</time>
      </trkpt>
      <trkpt lat="46.06407" lon="4.72222">
        <ele>190</ele>
        <time>2018-04-21T10:25:00Z</time>
      </trkpt>
      <trkpt lat="46.06404" lon="4.72215">
        <ele>190</ele>
        <time>2018-04-21T10:25:01Z</time>
      </trkpt>
      <trkpt lat="46.06401" lon="4.72207">
        <ele>190</ele>
        <time>2018-04-21T10:25:02Z</time>
      </trkpt>
      <trkpt lat="46.06398" lon="4.72197">
        <ele>189</ele>
        <time>2018-04-21T10:25:03Z</time>
      </trkpt>
      <trkpt lat="46.06396" lon="4.72186">
        <ele>189</ele>
        <time>2018-04-21T10:25:04Z</time>
      </trkpt>
      <trkpt lat="46.06392" lon="4.72175">
        <ele>189</ele>
        <time>2018-04-21T10:25:05Z</time>
      </trkpt>
      <trkpt lat="46.06389" lon="4.72165">
        <ele>188</ele>
        <time>2018-04-21T10:25:06Z</time>
      </trkpt>
      <trkpt lat="46.06386" lon="4.72155">
        <ele>188</ele>
        <time>2018-04-21T10:25:07Z</time>
      </trkpt>
      <trkpt lat="46.06382" lon="4.72145">
        <ele>189</ele>
        <time>2018-04-21T10:25:08Z</time>
      </trkpt>
      <trkpt lat="46.06379" lon="4.72135">
        <ele>189</ele>
        <time>2018-04-21T10:25:09Z</time>
      </trkpt>
      <trkpt lat="46.06375" lon="4.72125">
        <ele>189</ele>
        <time>2018-04-21T10:25:10Z</time>
      </trkpt>
      <trkpt lat="46.06372" lon="4.72116">
        <ele>189</ele>
        <time>2018-04-21T10:25:11Z</time>
      </trkpt>
      <trkpt lat="46.06371" lon="4.7211">
        <ele>189</ele>
        <time>2018-04-21T10:25:12Z</time>
      </trkpt>
      <trkpt lat="46.06372" lon="4.72102">
        <ele>189</ele>
        <time>2018-04-21T10:25:13Z</time>
      </trkpt>
      <trkpt lat="46.06371" lon="4.72094">
        <ele>189</ele>
        <time>2018-04-21T10:25:14Z</time>
      </trkpt>
      <trkpt lat="46.06368" lon="4.72086">
        <ele>189</ele>
        <time>2018-04-21T10:25:15Z</time>
      </trkpt>
      <trkpt lat="46.06365" lon="4.72079">
        <ele>189</ele>
        <time>2018-04-21T10:25:16Z</time>
      </trkpt>
      <trkpt lat="46.0636" lon="4.7207">
        <ele>189</ele>
        <time>2018-04-21T10:25:17Z</time>
      </trkpt>
      <trkpt lat="46.06358" lon="4.72063">
        <ele>189</ele>
        <time>2018-04-21T10:25:18Z</time>
      </trkpt>
      <trkpt lat="46.06355" lon="4.72056">
        <ele>189</ele>
        <time>2018-04-21T10:25:19Z</time>
      </trkpt>
      <trkpt lat="46.06353" lon="4.72049">
        <ele>189</ele>
        <time>2018-04-21T10:25:20Z</time>
      </trkpt>
      <trkpt lat="46.0635" lon="4.72042">
        <ele>189</ele>
        <time>2018-04-21T10:25:21Z</time>
      </trkpt>
      <trkpt lat="46.06347" lon="4.72035">
        <ele>189</ele>
        <time>2018-04-21T10:25:22Z</time>
      </trkpt>
      <trkpt lat="46.06346" lon="4.72028">
        <ele>189</ele>
        <time>2018-04-21T10:25:23Z</time>
      </trkpt>
      <trkpt lat="46.06343" lon="4.7202">
        <ele>189</ele>
        <time>2018-04-21T10:25:24Z</time>
      </trkpt>
      <trkpt lat="46.06341" lon="4.72013">
        <ele>189</ele>
        <time>2018-04-21T10:25:25Z</time>
      </trkpt>
      <trkpt lat="46.06339" lon="4.72006">
        <ele>189</ele>
        <time>2018-04-21T10:25:26Z</time>
      </trkpt>
      <trkpt lat="46.06337" lon="4.71998">
        <ele>189</ele>
        <time>2018-04-21T10:25:27Z</time>
      </trkpt>
      <trkpt lat="46.06332" lon="4.7199">
        <ele>189</ele>
        <time>2018-04-21T10:25:28Z</time>
      </trkpt>
      <trkpt lat="46.06331" lon="4.71983">
        <ele>190</ele>
        <time>2018-04-21T10:25:29Z</time>
      </trkpt>
      <trkpt lat="46.06328" lon="4.71978">
        <ele>190</ele>
        <time>2018-04-21T10:25:30Z</time>
      </trkpt>
      <trkpt lat="46.06328" lon="4.71969">
        <ele>190</ele>
        <time>2018-04-21T10:25:31Z</time>
      </trkpt>
      <trkpt lat="46.06327" lon="4.71962">
        <ele>190</ele>
        <time>2018-04-21T10:25:32Z</time>
      </trkpt>
      <trkpt lat="46.06324" lon="4.71955">
        <ele>190</ele>
        <time>2018-04-21T10:25:33Z</time>
      </trkpt>
      <trkpt lat="46.06322" lon="4.71946">
        <ele>190</ele>
        <time>2018-04-21T10:25:34Z</time>
      </trkpt>
      <trkpt lat="46.0632" lon="4.71937">
        <ele>190</ele>
        <time>2018-04-21T10:25:35Z</time>
      </trkpt>
      <trkpt lat="46.06317" lon="4.71926">
        <ele>190</ele>
        <time>2018-04-21T10:25:36Z</time>
      </trkpt>
      <trkpt lat="46.06316" lon="4.71918">
        <ele>190</ele>
        <time>2018-04-21T10:25:37Z</time>
      </trkpt>
      <trkpt lat="46.06314" lon="4.71909">
        <ele>189</ele>
        <time>2018-04-21T10:25:38Z</time>
      </trkpt>
      <trkpt lat="46.06312" lon="4.719">
        <ele>189</ele>
        <time>2018-04-21T10:25:39Z</time>
      </trkpt>
      <trkpt lat="46.06309" lon="4.7189">
        <ele>189</ele>
        <time>2018-04-21T10:25:40Z</time>
      </trkpt>
      <trkpt lat="46.06308" lon="4.71881">
        <ele>189</ele>
        <time>2018-04-21T10:25:41Z</time>
      </trkpt>
      <trkpt lat="46.06307" lon="4.71873">
        <ele>189</ele>
        <time>2018-04-21T10:25:42Z</time>
      </trkpt>
      <trkpt lat="46.06303" lon="4.71864">
        <ele>189</ele>
        <time>2018-04-21T10:25:43Z</time>
      </trkpt>
      <trkpt lat="46.06302" lon="4.71857">
        <ele>189</ele>
        <time>2018-04-21T10:25:44Z</time>
      </trkpt>
      <trkpt lat="46.063" lon="4.71849">
        <ele>189</ele>
        <time>2018-04-21T10:25:45Z</time>
      </trkpt>
      <trkpt lat="46.06299" lon="4.71841">
        <ele>189</ele>
        <time>2018-04-21T10:25:46Z</time>
      </trkpt>
      <trkpt lat="46.06297" lon="4.71834">
        <ele>189</ele>
        <time>2018-04-21T10:25:47Z</time>
      </trkpt>
      <trkpt lat="46.06297" lon="4.71828">
        <ele>189</ele>
        <time>2018-04-21T10:25:48Z</time>
      </trkpt>
      <trkpt lat="46.06295" lon="4.71822">
        <ele>189</ele>
        <time>2018-04-21T10:25:49Z</time>
      </trkpt>
      <trkpt lat="46.06292" lon="4.71814">
        <ele>189</ele>
        <time>2018-04-21T10:25:50Z</time>
      </trkpt>
      <trkpt lat="46.06291" lon="4.71807">
        <ele>189</ele>
        <time>2018-04-21T10:25:51Z</time>
      </trkpt>
      <trkpt lat="46.06289" lon="4.71802">
        <ele>189</ele>
        <time>2018-04-21T10:25:52Z</time>
      </trkpt>
      <trkpt lat="46.06286" lon="4.71795">
        <ele>190</ele>
        <time>2018-04-21T10:25:53Z</time>
      </trkpt>
      <trkpt lat="46.06285" lon="4.71789">
        <ele>190</ele>
        <time>2018-04-21T10:25:54Z</time>
      </trkpt>
      <trkpt lat="46.06283" lon="4.71782">
        <ele>190</ele>
        <time>2018-04-21T10:25:55Z</time>
      </trkpt>
      <trkpt lat="46.0628" lon="4.71775">
        <ele>190</ele>
        <time>2018-04-21T10:25:56Z</time>
      </trkpt>
      <trkpt lat="46.06276" lon="4.71768">
        <ele>190</ele>
        <time>2018-04-21T10:25:57Z</time>
      </trkpt>
      <trkpt lat="46.06274" lon="4.71761">
        <ele>190</ele>
        <time>2018-04-21T10:25:58Z</time>
      </trkpt>
      <trkpt lat="46.06271" lon="4.71754">
        <ele>190</ele>
        <time>2018-04-21T10:25:59Z</time>
      </trkpt>
      <trkpt lat="46.06269" lon="4.71746">
        <ele>190</ele>
        <time>2018-04-21T10:26:00Z</time>
      </trkpt>
      <trkpt lat="46.06267" lon="4.71738">
        <ele>190</ele>
        <time>2018-04-21T10:26:01Z</time>
      </trkpt>
      <trkpt lat="46.06264" lon="4.7173">
        <ele>190</ele>
        <time>2018-04-21T10:26:02Z</time>
      </trkpt>
      <trkpt lat="46.06262" lon="4.71721">
        <ele>190</ele>
        <time>2018-04-21T10:26:03Z</time>
      </trkpt>
      <trkpt lat="46.06259" lon="4.71713">
        <ele>190</ele>
        <time>2018-04-21T10:26:04Z</time>
      </trkpt>
      <trkpt lat="46.06256" lon="4.71706">
        <ele>190</ele>
        <time>2018-04-21T10:26:05Z</time>
      </trkpt>
      <trkpt lat="46.06252" lon="4.71698">
        <ele>190</ele>
        <time>2018-04-21T10:26:06Z</time>
      </trkpt>
      <trkpt lat="46.06249" lon="4.71691">
        <ele>191</ele>
        <time>2018-04-21T10:26:07Z</time>
      </trkpt>
      <trkpt lat="46.06248" lon="4.71684">
        <ele>191</ele>
        <time>2018-04-21T10:26:08Z</time>
      </trkpt>
      <trkpt lat="46.06245" lon="4.71677">
        <ele>191</ele>
        <time>2018-04-21T10:26:09Z</time>
      </trkpt>
      <trkpt lat="46.06242" lon="4.71671">
        <ele>191</ele>
        <time>2018-04-21T10:26:10Z</time>
      </trkpt>
      <trkpt lat="46.06239" lon="4.71664">
        <ele>190</ele>
        <time>2018-04-21T10:26:11Z</time>
      </trkpt>
      <trkpt lat="46.06235" lon="4.71658">
        <ele>191</ele>
        <time>2018-04-21T10:26:12Z</time>
      </trkpt>
      <trkpt lat="46.06232" lon="4.71652">
        <ele>191</ele>
        <time>2018-04-21T10:26:13Z</time>
      </trkpt>
      <trkpt lat="46.06229" lon="4.71645">
        <ele>191</ele>
        <time>2018-04-21T10:26:14Z</time>
      </trkpt>
      <trkpt lat="46.06225" lon="4.71639">
        <ele>191</ele>
        <time>2018-04-21T10:26:15Z</time>
      </trkpt>
      <trkpt lat="46.06221" lon="4.71633">
        <ele>191</ele>
        <time>2018-04-21T10:26:16Z</time>
      </trkpt>
      <trkpt lat="46.06217" lon="4.71627">
        <ele>191</ele>
        <time>2018-04-21T10:26:17Z</time>
      </trkpt>
      <trkpt lat="46.06213" lon="4.71621">
        <ele>191</ele>
        <time>2018-04-21T10:26:18Z</time>
      </trkpt>
      <trkpt lat="46.06208" lon="4.71615">
        <ele>191</ele>
        <time>2018-04-21T10:26:19Z</time>
      </trkpt>
      <trkpt lat="46.06205" lon="4.71609">
        <ele>191</ele>
        <time>2018-04-21T10:26:20Z</time>
      </trkpt>
      <trkpt lat="46.06202" lon="4.71605">
        <ele>191</ele>
        <time>2018-04-21T10:26:21Z</time>
      </trkpt>
      <trkpt lat="46.06198" lon="4.71599">
        <ele>191</ele>
        <time>2018-04-21T10:26:22Z</time>
      </trkpt>
      <trkpt lat="46.06195" lon="4.71595">
        <ele>191</ele>
        <time>2018-04-21T10:26:23Z</time>
      </trkpt>
      <trkpt lat="46.06191" lon="4.71589">
        <ele>191</ele>
        <time>2018-04-21T10:26:24Z</time>
      </trkpt>
      <trkpt lat="46.06188" lon="4.71583">
        <ele>191</ele>
        <time>2018-04-21T10:26:25Z</time>
      </trkpt>
      <trkpt lat="46.06186" lon="4.71577">
        <ele>191</ele>
        <time>2018-04-21T10:26:26Z</time>
      </trkpt>
      <trkpt lat="46.06179" lon="4.71569">
        <ele>191</ele>
        <time>2018-04-21T10:26:28Z</time>
      </trkpt>
      <trkpt lat="46.06175" lon="4.71565">
        <ele>191</ele>
        <time>2018-04-21T10:26:29Z</time>
      </trkpt>
      <trkpt lat="46.06171" lon="4.7156">
        <ele>191</ele>
        <time>2018-04-21T10:26:30Z</time>
      </trkpt>
      <trkpt lat="46.06167" lon="4.71555">
        <ele>191</ele>
        <time>2018-04-21T10:26:31Z</time>
      </trkpt>
      <trkpt lat="46.06161" lon="4.71547">
        <ele>192</ele>
        <time>2018-04-21T10:26:33Z</time>
      </trkpt>
      <trkpt lat="46.0616" lon="4.71541">
        <ele>192</ele>
        <time>2018-04-21T10:26:34Z</time>
      </trkpt>
      <trkpt lat="46.06157" lon="4.71537">
        <ele>192</ele>
        <time>2018-04-21T10:26:35Z</time>
      </trkpt>
      <trkpt lat="46.06153" lon="4.71532">
        <ele>192</ele>
        <time>2018-04-21T10:26:36Z</time>
      </trkpt>
      <trkpt lat="46.06148" lon="4.71525">
        <ele>192</ele>
        <time>2018-04-21T10:26:37Z</time>
      </trkpt>
      <trkpt lat="46.06146" lon="4.7152">
        <ele>192</ele>
        <time>2018-04-21T10:26:38Z</time>
      </trkpt>
      <trkpt lat="46.0614" lon="4.71511">
        <ele>192</ele>
        <time>2018-04-21T10:26:40Z</time>
      </trkpt>
      <trkpt lat="46.06138" lon="4.71505">
        <ele>192</ele>
        <time>2018-04-21T10:26:41Z</time>
      </trkpt>
      <trkpt lat="46.06135" lon="4.71499">
        <ele>192</ele>
        <time>2018-04-21T10:26:42Z</time>
      </trkpt>
      <trkpt lat="46.06134" lon="4.71493">
        <ele>192</ele>
        <time>2018-04-21T10:26:43Z</time>
      </trkpt>
      <trkpt lat="46.06132" lon="4.71487">
        <ele>192</ele>
        <time>2018-04-21T10:26:44Z</time>
      </trkpt>
      <trkpt lat="46.0613" lon="4.71481">
        <ele>192</ele>
        <time>2018-04-21T10:26:45Z</time>
      </trkpt>
      <trkpt lat="46.06127" lon="4.7147">
        <ele>192</ele>
        <time>2018-04-21T10:26:47Z</time>
      </trkpt>
      <trkpt lat="46.06124" lon="4.71464">
        <ele>193</ele>
        <time>2018-04-21T10:26:48Z</time>
      </trkpt>
      <trkpt lat="46.06122" lon="4.71453">
        <ele>193</ele>
        <time>2018-04-21T10:26:50Z</time>
      </trkpt>
      <trkpt lat="46.0612" lon="4.71448">
        <ele>193</ele>
        <time>2018-04-21T10:26:51Z</time>
      </trkpt>
      <trkpt lat="46.06118" lon="4.71442">
        <ele>193</ele>
        <time>2018-04-21T10:26:52Z</time>
      </trkpt>
      <trkpt lat="46.06113" lon="4.71435">
        <ele>193</ele>
        <time>2018-04-21T10:26:53Z</time>
      </trkpt>
      <trkpt lat="46.06114" lon="4.71429">
        <ele>193</ele>
        <time>2018-04-21T10:26:54Z</time>
      </trkpt>
      <trkpt lat="46.06111" lon="4.71422">
        <ele>193</ele>
        <time>2018-04-21T10:26:55Z</time>
      </trkpt>
      <trkpt lat="46.06107" lon="4.71415">
        <ele>193</ele>
        <time>2018-04-21T10:26:56Z</time>
      </trkpt>
      <trkpt lat="46.06106" lon="4.71408">
        <ele>193</ele>
        <time>2018-04-21T10:26:57Z</time>
      </trkpt>
      <trkpt lat="46.06105" lon="4.71402">
        <ele>193</ele>
        <time>2018-04-21T10:26:58Z</time>
      </trkpt>
      <trkpt lat="46.06103" lon="4.71395">
        <ele>193</ele>
        <time>2018-04-21T10:26:59Z</time>
      </trkpt>
      <trkpt lat="46.06102" lon="4.71388">
        <ele>193</ele>
        <time>2018-04-21T10:27:00Z</time>
      </trkpt>
      <trkpt lat="46.061" lon="4.71381">
        <ele>193</ele>
        <time>2018-04-21T10:27:01Z</time>
      </trkpt>
      <trkpt lat="46.06099" lon="4.71375">
        <ele>193</ele>
        <time>2018-04-21T10:27:02Z</time>
      </trkpt>
      <trkpt lat="46.06096" lon="4.71368">
        <ele>193</ele>
        <time>2018-04-21T10:27:03Z</time>
      </trkpt>
      <trkpt lat="46.06094" lon="4.71361">
        <ele>193</ele>
        <time>2018-04-21T10:27:04Z</time>
      </trkpt>
      <trkpt lat="46.06092" lon="4.71354">
        <ele>193</ele>
        <time>2018-04-21T10:27:05Z</time>
      </trkpt>
      <trkpt lat="46.0609" lon="4.71346">
        <ele>193</ele>
        <time>2018-04-21T10:27:06Z</time>
      </trkpt>
      <trkpt lat="46.06087" lon="4.71338">
        <ele>193</ele>
        <time>2018-04-21T10:27:07Z</time>
      </trkpt>
      <trkpt lat="46.06085" lon="4.71331">
        <ele>193</ele>
        <time>2018-04-21T10:27:08Z</time>
      </trkpt>
      <trkpt lat="46.06083" lon="4.71325">
        <ele>193</ele>
        <time>2018-04-21T10:27:09Z</time>
      </trkpt>
      <trkpt lat="46.06081" lon="4.71318">
        <ele>193</ele>
        <time>2018-04-21T10:27:10Z</time>
      </trkpt>
      <trkpt lat="46.06079" lon="4.7131">
        <ele>193</ele>
        <time>2018-04-21T10:27:11Z</time>
      </trkpt>
      <trkpt lat="46.06077" lon="4.71301">
        <ele>193</ele>
        <time>2018-04-21T10:27:13Z</time>
      </trkpt>
      <trkpt lat="46.06075" lon="4.71295">
        <ele>193</ele>
        <time>2018-04-21T10:27:14Z</time>
      </trkpt>
      <trkpt lat="46.06074" lon="4.71287">
        <ele>193</ele>
        <time>2018-04-21T10:27:15Z</time>
      </trkpt>
      <trkpt lat="46.06071" lon="4.71282">
        <ele>193</ele>
        <time>2018-04-21T10:27:16Z</time>
      </trkpt>
      <trkpt lat="46.06069" lon="4.71277">
        <ele>193</ele>
        <time>2018-04-21T10:27:17Z</time>
      </trkpt>
      <trkpt lat="46.06066" lon="4.7127">
        <ele>193</ele>
        <time>2018-04-21T10:27:18Z</time>
      </trkpt>
      <trkpt lat="46.06065" lon="4.71265">
        <ele>193</ele>
        <time>2018-04-21T10:27:19Z</time>
      </trkpt>
      <trkpt lat="46.06062" lon="4.71257">
        <ele>193</ele>
        <time>2018-04-21T10:27:20Z</time>
      </trkpt>
      <trkpt lat="46.06059" lon="4.7125">
        <ele>193</ele>
        <time>2018-04-21T10:27:21Z</time>
      </trkpt>
      <trkpt lat="46.06056" lon="4.71245">
        <ele>193</ele>
        <time>2018-04-21T10:27:22Z</time>
      </trkpt>
      <trkpt lat="46.06054" lon="4.71237">
        <ele>193</ele>
        <time>2018-04-21T10:27:23Z</time>
      </trkpt>
      <trkpt lat="46.0605" lon="4.7123">
        <ele>193</ele>
        <time>2018-04-21T10:27:24Z</time>
      </trkpt>
      <trkpt lat="46.06047" lon="4.71223">
        <ele>193</ele>
        <time>2018-04-21T10:27:25Z</time>
      </trkpt>
      <trkpt lat="46.06044" lon="4.71217">
        <ele>193</ele>
        <time>2018-04-21T10:27:26Z</time>
      </trkpt>
      <trkpt lat="46.06041" lon="4.7121">
        <ele>193</ele>
        <time>2018-04-21T10:27:27Z</time>
      </trkpt>
      <trkpt lat="46.06038" lon="4.71203">
        <ele>193</ele>
        <time>2018-04-21T10:27:28Z</time>
      </trkpt>
      <trkpt lat="46.06034" lon="4.71196">
        <ele>193</ele>
        <time>2018-04-21T10:27:29Z</time>
      </trkpt>
      <trkpt lat="46.06031" lon="4.71189">
        <ele>193</ele>
        <time>2018-04-21T10:27:30Z</time>
      </trkpt>
      <trkpt lat="46.06032" lon="4.71179">
        <ele>193</ele>
        <time>2018-04-21T10:27:31Z</time>
      </trkpt>
      <trkpt lat="46.06029" lon="4.71172">
        <ele>193</ele>
        <time>2018-04-21T10:27:32Z</time>
      </trkpt>
      <trkpt lat="46.06028" lon="4.71166">
        <ele>193</ele>
        <time>2018-04-21T10:27:33Z</time>
      </trkpt>
      <trkpt lat="46.06027" lon="4.71157">
        <ele>193</ele>
        <time>2018-04-21T10:27:34Z</time>
      </trkpt>
      <trkpt lat="46.0602" lon="4.71148">
        <ele>193</ele>
        <time>2018-04-21T10:27:36Z</time>
      </trkpt>
      <trkpt lat="46.06019" lon="4.71143">
        <ele>193</ele>
        <time>2018-04-21T10:27:37Z</time>
      </trkpt>
      <trkpt lat="46.06017" lon="4.71137">
        <ele>193</ele>
        <time>2018-04-21T10:27:38Z</time>
      </trkpt>
      <trkpt lat="46.06015" lon="4.7113">
        <ele>193</ele>
        <time>2018-04-21T10:27:39Z</time>
      </trkpt>
      <trkpt lat="46.06012" lon="4.71122">
        <ele>193</ele>
        <time>2018-04-21T10:27:40Z</time>
      </trkpt>
      <trkpt lat="46.0601" lon="4.71114">
        <ele>193</ele>
        <time>2018-04-21T10:27:41Z</time>
      </trkpt>
      <trkpt lat="46.06008" lon="4.71107">
        <ele>193</ele>
        <time>2018-04-21T10:27:42Z</time>
      </trkpt>
      <trkpt lat="46.06006" lon="4.71101">
        <ele>193</ele>
        <time>2018-04-21T10:27:43Z</time>
      </trkpt>
      <trkpt lat="46.06003" lon="4.71095">
        <ele>193</ele>
        <time>2018-04-21T10:27:44Z</time>
      </trkpt>
      <trkpt lat="46.06" lon="4.71088">
        <ele>193</ele>
        <time>2018-04-21T10:27:45Z</time>
      </trkpt>
      <trkpt lat="46.05997" lon="4.71081">
        <ele>193</ele>
        <time>2018-04-21T10:27:46Z</time>
      </trkpt>
      <trkpt lat="46.05995" lon="4.71075">
        <ele>193</ele>
        <time>2018-04-21T10:27:47Z</time>
      </trkpt>
      <trkpt lat="46.05992" lon="4.71069">
        <ele>193</ele>
        <time>2018-04-21T10:27:48Z</time>
      </trkpt>
      <trkpt lat="46.05987" lon="4.71064">
        <ele>193</ele>
        <time>2018-04-21T10:27:49Z</time>
      </trkpt>
      <trkpt lat="46.05983" lon="4.71056">
        <ele>193</ele>
        <time>2018-04-21T10:27:50Z</time>
      </trkpt>
      <trkpt lat="46.05981" lon="4.7105">
        <ele>193</ele>
        <time>2018-04-21T10:27:51Z</time>
      </trkpt>
      <trkpt lat="46.05979" lon="4.71044">
        <ele>193</ele>
        <time>2018-04-21T10:27:52Z</time>
      </trkpt>
      <trkpt lat="46.05975" lon="4.71038">
        <ele>192</ele>
        <time>2018-04-21T10:27:53Z</time>
      </trkpt>
      <trkpt lat="46.05973" lon="4.71033">
        <ele>193</ele>
        <time>2018-04-21T10:27:54Z</time>
      </trkpt>
      <trkpt lat="46.05971" lon="4.71027">
        <ele>193</ele>
        <time>2018-04-21T10:27:55Z</time>
      </trkpt>
      <trkpt lat="46.05968" lon="4.71021">
        <ele>193</ele>
        <time>2018-04-21T10:27:56Z</time>
      </trkpt>
      <trkpt lat="46.05967" lon="4.71015">
        <ele>193</ele>
        <time>2018-04-21T10:27:57Z</time>
      </trkpt>
      <trkpt lat="46.05965" lon="4.71009">
        <ele>193</ele>
        <time>2018-04-21T10:27:58Z</time>
      </trkpt>
      <trkpt lat="46.05963" lon="4.71002">
        <ele>193</ele>
        <time>2018-04-21T10:27:59Z</time>
      </trkpt>
      <trkpt lat="46.0596" lon="4.70995">
        <ele>193</ele>
        <time>2018-04-21T10:28:00Z</time>
      </trkpt>
      <trkpt lat="46.05959" lon="4.70989">
        <ele>193</ele>
        <time>2018-04-21T10:28:01Z</time>
      </trkpt>
      <trkpt lat="46.05956" lon="4.70983">
        <ele>193</ele>
        <time>2018-04-21T10:28:02Z</time>
      </trkpt>
      <trkpt lat="46.05955" lon="4.70976">
        <ele>193</ele>
        <time>2018-04-21T10:28:03Z</time>
      </trkpt>
      <trkpt lat="46.05953" lon="4.70964">
        <ele>193</ele>
        <time>2018-04-21T10:28:05Z</time>
      </trkpt>
      <trkpt lat="46.05951" lon="4.70956">
        <ele>193</ele>
        <time>2018-04-21T10:28:06Z</time>
      </trkpt>
      <trkpt lat="46.05949" lon="4.70948">
        <ele>193</ele>
        <time>2018-04-21T10:28:07Z</time>
      </trkpt>
      <trkpt lat="46.05947" lon="4.70942">
        <ele>193</ele>
        <time>2018-04-21T10:28:08Z</time>
      </trkpt>
      <trkpt lat="46.05945" lon="4.70934">
        <ele>193</ele>
        <time>2018-04-21T10:28:09Z</time>
      </trkpt>
      <trkpt lat="46.05943" lon="4.70927">
        <ele>194</ele>
        <time>2018-04-21T10:28:10Z</time>
      </trkpt>
      <trkpt lat="46.05941" lon="4.70917">
        <ele>194</ele>
        <time>2018-04-21T10:28:11Z</time>
      </trkpt>
      <trkpt lat="46.0594" lon="4.7091">
        <ele>194</ele>
        <time>2018-04-21T10:28:12Z</time>
      </trkpt>
      <trkpt lat="46.05939" lon="4.70902">
        <ele>194</ele>
        <time>2018-04-21T10:28:13Z</time>
      </trkpt>
      <trkpt lat="46.0594" lon="4.70894">
        <ele>194</ele>
        <time>2018-04-21T10:28:14Z</time>
      </trkpt>
      <trkpt lat="46.05941" lon="4.70886">
        <ele>194</ele>
        <time>2018-04-21T10:28:15Z</time>
      </trkpt>
      <trkpt lat="46.05942" lon="4.70877">
        <ele>194</ele>
        <time>2018-04-21T10:28:16Z</time>
      </trkpt>
      <trkpt lat="46.05941" lon="4.70868">
        <ele>194</ele>
        <time>2018-04-21T10:28:17Z</time>
      </trkpt>
      <trkpt lat="46.0594" lon="4.70859">
        <ele>194</ele>
        <time>2018-04-21T10:28:18Z</time>
      </trkpt>
      <trkpt lat="46.05939" lon="4.70851">
        <ele>194</ele>
        <time>2018-04-21T10:28:19Z</time>
      </trkpt>
      <trkpt lat="46.05938" lon="4.70842">
        <ele>194</ele>
        <time>2018-04-21T10:28:20Z</time>
      </trkpt>
      <trkpt lat="46.05938" lon="4.70832">
        <ele>194</ele>
        <time>2018-04-21T10:28:21Z</time>
      </trkpt>
      <trkpt lat="46.05937" lon="4.70824">
        <ele>194</ele>
        <time>2018-04-21T10:28:22Z</time>
      </trkpt>
      <trkpt lat="46.05935" lon="4.70815">
        <ele>194</ele>
        <time>2018-04-21T10:28:23Z</time>
      </trkpt>
      <trkpt lat="46.05935" lon="4.70807">
        <ele>194</ele>
        <time>2018-04-21T10:28:24Z</time>
      </trkpt>
      <trkpt lat="46.05932" lon="4.708">
        <ele>194</ele>
        <time>2018-04-21T10:28:25Z</time>
      </trkpt>
      <trkpt lat="46.05931" lon="4.70792">
        <ele>194</ele>
        <time>2018-04-21T10:28:26Z</time>
      </trkpt>
      <trkpt lat="46.0593" lon="4.70784">
        <ele>194</ele>
        <time>2018-04-21T10:28:27Z</time>
      </trkpt>
      <trkpt lat="46.05928" lon="4.70775">
        <ele>194</ele>
        <time>2018-04-21T10:28:28Z</time>
      </trkpt>
      <trkpt lat="46.05925" lon="4.70767">
        <ele>194</ele>
        <time>2018-04-21T10:28:29Z</time>
      </trkpt>
      <trkpt lat="46.05923" lon="4.70759">
        <ele>194</ele>
        <time>2018-04-21T10:28:30Z</time>
      </trkpt>
      <trkpt lat="46.05923" lon="4.70753">
        <ele>194</ele>
        <time>2018-04-21T10:28:31Z</time>
      </trkpt>
      <trkpt lat="46.0592" lon="4.70745">
        <ele>194</ele>
        <time>2018-04-21T10:28:32Z</time>
      </trkpt>
      <trkpt lat="46.05916" lon="4.70737">
        <ele>194</ele>
        <time>2018-04-21T10:28:33Z</time>
      </trkpt>
      <trkpt lat="46.05917" lon="4.7073">
        <ele>194</ele>
        <time>2018-04-21T10:28:34Z</time>
      </trkpt>
      <trkpt lat="46.05917" lon="4.70722">
        <ele>194</ele>
        <time>2018-04-21T10:28:35Z</time>
      </trkpt>
      <trkpt lat="46.05915" lon="4.70714">
        <ele>194</ele>
        <time>2018-04-21T10:28:36Z</time>
      </trkpt>
      <trkpt lat="46.05912" lon="4.70707">
        <ele>194</ele>
        <time>2018-04-21T10:28:37Z</time>
      </trkpt>
      <trkpt lat="46.05911" lon="4.707">
        <ele>194</ele>
        <time>2018-04-21T10:28:38Z</time>
      </trkpt>
      <trkpt lat="46.0591" lon="4.70693">
        <ele>194</ele>
        <time>2018-04-21T10:28:39Z</time>
      </trkpt>
      <trkpt lat="46.05909" lon="4.70686">
        <ele>194</ele>
        <time>2018-04-21T10:28:40Z</time>
      </trkpt>
      <trkpt lat="46.05909" lon="4.70679">
        <ele>194</ele>
        <time>2018-04-21T10:28:41Z</time>
      </trkpt>
      <trkpt lat="46.05909" lon="4.70671">
        <ele>194</ele>
        <time>2018-04-21T10:28:42Z</time>
      </trkpt>
      <trkpt lat="46.05909" lon="4.70663">
        <ele>194</ele>
        <time>2018-04-21T10:28:43Z</time>
      </trkpt>
      <trkpt lat="46.05909" lon="4.70656">
        <ele>194</ele>
        <time>2018-04-21T10:28:44Z</time>
      </trkpt>
      <trkpt lat="46.05909" lon="4.70649">
        <ele>194</ele>
        <time>2018-04-21T10:28:45Z</time>
      </trkpt>
      <trkpt lat="46.0591" lon="4.70642">
        <ele>194</ele>
        <time>2018-04-21T10:28:46Z</time>
      </trkpt>
      <trkpt lat="46.05911" lon="4.70634">
        <ele>194</ele>
        <time>2018-04-21T10:28:47Z</time>
      </trkpt>
      <trkpt lat="46.05912" lon="4.70627">
        <ele>194</ele>
        <time>2018-04-21T10:28:48Z</time>
      </trkpt>
      <trkpt lat="46.05912" lon="4.70619">
        <ele>194</ele>
        <time>2018-04-21T10:28:49Z</time>
      </trkpt>
      <trkpt lat="46.05912" lon="4.7061">
        <ele>194</ele>
        <time>2018-04-21T10:28:50Z</time>
      </trkpt>
      <trkpt lat="46.05912" lon="4.70601">
        <ele>194</ele>
        <time>2018-04-21T10:28:51Z</time>
      </trkpt>
      <trkpt lat="46.05913" lon="4.70593">
        <ele>195</ele>
        <time>2018-04-21T10:28:52Z</time>
      </trkpt>
      <trkpt lat="46.05915" lon="4.70587">
        <ele>195</ele>
        <time>2018-04-21T10:28:53Z</time>
      </trkpt>
      <trkpt lat="46.05916" lon="4.70579">
        <ele>195</ele>
        <time>2018-04-21T10:28:54Z</time>
      </trkpt>
      <trkpt lat="46.0592" lon="4.70569">
        <ele>195</ele>
        <time>2018-04-21T10:28:56Z</time>
      </trkpt>
      <trkpt lat="46.05922" lon="4.70562">
        <ele>195</ele>
        <time>2018-04-21T10:28:57Z</time>
      </trkpt>
      <trkpt lat="46.05924" lon="4.70556">
        <ele>195</ele>
        <time>2018-04-21T10:28:58Z</time>
      </trkpt>
      <trkpt lat="46.05926" lon="4.7055">
        <ele>195</ele>
        <time>2018-04-21T10:28:59Z</time>
      </trkpt>
      <trkpt lat="46.05928" lon="4.70543">
        <ele>195</ele>
        <time>2018-04-21T10:29:00Z</time>
      </trkpt>
      <trkpt lat="46.0593" lon="4.70537">
        <ele>195</ele>
        <time>2018-04-21T10:29:01Z</time>
      </trkpt>
      <trkpt lat="46.05932" lon="4.70531">
        <ele>195</ele>
        <time>2018-04-21T10:29:02Z</time>
      </trkpt>
      <trkpt lat="46.05934" lon="4.70525">
        <ele>195</ele>
        <time>2018-04-21T10:29:03Z</time>
      </trkpt>
      <trkpt lat="46.05936" lon="4.70516">
        <ele>195</ele>
        <time>2018-04-21T10:29:04Z</time>
      </trkpt>
      <trkpt lat="46.05938" lon="4.7051">
        <ele>195</ele>
        <time>2018-04-21T10:29:05Z</time>
      </trkpt>
      <trkpt lat="46.05939" lon="4.70502">
        <ele>195</ele>
        <time>2018-04-21T10:29:06Z</time>
      </trkpt>
      <trkpt lat="46.05937" lon="4.70494">
        <ele>195</ele>
        <time>2018-04-21T10:29:07Z</time>
      </trkpt>
      <trkpt lat="46.05934" lon="4.70484">
        <ele>195</ele>
        <time>2018-04-21T10:29:08Z</time>
      </trkpt>
      <trkpt lat="46.05933" lon="4.70478">
        <ele>195</ele>
        <time>2018-04-21T10:29:09Z</time>
      </trkpt>
      <trkpt lat="46.05929" lon="4.70471">
        <ele>195</ele>
        <time>2018-04-21T10:29:10Z</time>
      </trkpt>
      <trkpt lat="46.05926" lon="4.70465">
        <ele>195</ele>
        <time>2018-04-21T10:29:11Z</time>
      </trkpt>
      <trkpt lat="46.05922" lon="4.70457">
        <ele>195</ele>
        <time>2018-04-21T10:29:12Z</time>
      </trkpt>
      <trkpt lat="46.05918" lon="4.7045">
        <ele>195</ele>
        <time>2018-04-21T10:29:13Z</time>
      </trkpt>
      <trkpt lat="46.05914" lon="4.70443">
        <ele>195</ele>
        <time>2018-04-21T10:29:14Z</time>
      </trkpt>
      <trkpt lat="46.0591" lon="4.70437">
        <ele>195</ele>
        <time>2018-04-21T10:29:15Z</time>
      </trkpt>
      <trkpt lat="46.05907" lon="4.70432">
        <ele>195</ele>
        <time>2018-04-21T10:29:16Z</time>
      </trkpt>
      <trkpt lat="46.05903" lon="4.70425">
        <ele>195</ele>
        <time>2018-04-21T10:29:17Z</time>
      </trkpt>
      <trkpt lat="46.059" lon="4.70419">
        <ele>195</ele>
        <time>2018-04-21T10:29:18Z</time>
      </trkpt>
      <trkpt lat="46.05897" lon="4.70413">
        <ele>196</ele>
        <time>2018-04-21T10:29:19Z</time>
      </trkpt>
      <trkpt lat="46.05891" lon="4.70407">
        <ele>196</ele>
        <time>2018-04-21T10:29:20Z</time>
      </trkpt>
      <trkpt lat="46.05887" lon="4.70401">
        <ele>196</ele>
        <time>2018-04-21T10:29:21Z</time>
      </trkpt>
      <trkpt lat="46.05881" lon="4.70396">
        <ele>196</ele>
        <time>2018-04-21T10:29:22Z</time>
      </trkpt>
      <trkpt lat="46.05878" lon="4.70391">
        <ele>196</ele>
        <time>2018-04-21T10:29:23Z</time>
      </trkpt>
      <trkpt lat="46.05876" lon="4.70385">
        <ele>196</ele>
        <time>2018-04-21T10:29:24Z</time>
      </trkpt>
      <trkpt lat="46.05872" lon="4.7038">
        <ele>196</ele>
        <time>2018-04-21T10:29:25Z</time>
      </trkpt>
      <trkpt lat="46.05869" lon="4.70375">
        <ele>196</ele>
        <time>2018-04-21T10:29:26Z</time>
      </trkpt>
      <trkpt lat="46.05865" lon="4.70371">
        <ele>196</ele>
        <time>2018-04-21T10:29:27Z</time>
      </trkpt>
      <trkpt lat="46.05862" lon="4.70366">
        <ele>196</ele>
        <time>2018-04-21T10:29:28Z</time>
      </trkpt>
      <trkpt lat="46.05858" lon="4.70361">
        <ele>196</ele>
        <time>2018-04-21T10:29:29Z</time>
      </trkpt>
      <trkpt lat="46.05853" lon="4.70352">
        <ele>196</ele>
        <time>2018-04-21T10:29:31Z</time>
      </trkpt>
      <trkpt lat="46.05849" lon="4.70346">
        <ele>196</ele>
        <time>2018-04-21T10:29:32Z</time>
      </trkpt>
      <trkpt lat="46.05844" lon="4.70342">
        <ele>197</ele>
        <time>2018-04-21T10:29:33Z</time>
      </trkpt>
      <trkpt lat="46.05841" lon="4.70336">
        <ele>197</ele>
        <time>2018-04-21T10:29:34Z</time>
      </trkpt>
      <trkpt lat="46.05837" lon="4.7033">
        <ele>197</ele>
        <time>2018-04-21T10:29:35Z</time>
      </trkpt>
      <trkpt lat="46.05833" lon="4.70325">
        <ele>197</ele>
        <time>2018-04-21T10:29:36Z</time>
      </trkpt>
      <trkpt lat="46.05831" lon="4.7032">
        <ele>197</ele>
        <time>2018-04-21T10:29:37Z</time>
      </trkpt>
      <trkpt lat="46.05827" lon="4.70315">
        <ele>197</ele>
        <time>2018-04-21T10:29:38Z</time>
      </trkpt>
      <trkpt lat="46.05824" lon="4.70311">
        <ele>197</ele>
        <time>2018-04-21T10:29:39Z</time>
      </trkpt>
      <trkpt lat="46.0582" lon="4.70306">
        <ele>197</ele>
        <time>2018-04-21T10:29:40Z</time>
      </trkpt>
      <trkpt lat="46.05817" lon="4.70301">
        <ele>197</ele>
        <time>2018-04-21T10:29:41Z</time>
      </trkpt>
      <trkpt lat="46.05812" lon="4.70294">
        <ele>197</ele>
        <time>2018-04-21T10:29:42Z</time>
      </trkpt>
      <trkpt lat="46.05809" lon="4.70289">
        <ele>197</ele>
        <time>2018-04-21T10:29:43Z</time>
      </trkpt>
      <trkpt lat="46.05805" lon="4.70284">
        <ele>197</ele>
        <time>2018-04-21T10:29:44Z</time>
      </trkpt>
      <trkpt lat="46.05801" lon="4.70277">
        <ele>197</ele>
        <time>2018-04-21T10:29:45Z</time>
      </trkpt>
      <trkpt lat="46.05798" lon="4.70273">
        <ele>197</ele>
        <time>2018-04-21T10:29:46Z</time>
      </trkpt>
      <trkpt lat="46.05794" lon="4.70268">
        <ele>197</ele>
        <time>2018-04-21T10:29:47Z</time>
      </trkpt>
      <trkpt lat="46.05789" lon="4.70261">
        <ele>198</ele>
        <time>2018-04-21T10:29:48Z</time>
      </trkpt>
      <trkpt lat="46.05786" lon="4.70255">
        <ele>198</ele>
        <time>2018-04-21T10:29:49Z</time>
      </trkpt>
      <trkpt lat="46.05782" lon="4.7025">
        <ele>198</ele>
        <time>2018-04-21T10:29:50Z</time>
      </trkpt>
      <trkpt lat="46.05779" lon="4.70244">
        <ele>198</ele>
        <time>2018-04-21T10:29:51Z</time>
      </trkpt>
      <trkpt lat="46.05776" lon="4.70238">
        <ele>198</ele>
        <time>2018-04-21T10:29:52Z</time>
      </trkpt>
      <trkpt lat="46.05772" lon="4.70232">
        <ele>198</ele>
        <time>2018-04-21T10:29:53Z</time>
      </trkpt>
      <trkpt lat="46.05767" lon="4.70226">
        <ele>198</ele>
        <time>2018-04-21T10:29:54Z</time>
      </trkpt>
      <trkpt lat="46.05764" lon="4.70219">
        <ele>198</ele>
        <time>2018-04-21T10:29:55Z</time>
      </trkpt>
      <trkpt lat="46.05761" lon="4.70214">
        <ele>198</ele>
        <time>2018-04-21T10:29:56Z</time>
      </trkpt>
      <trkpt lat="46.05758" lon="4.70208">
        <ele>198</ele>
        <time>2018-04-21T10:29:57Z</time>
      </trkpt>
      <trkpt lat="46.05755" lon="4.70204">
        <ele>198</ele>
        <time>2018-04-21T10:29:58Z</time>
      </trkpt>
      <trkpt lat="46.05753" lon="4.70198">
        <ele>198</ele>
        <time>2018-04-21T10:29:59Z</time>
      </trkpt>
      <trkpt lat="46.0575" lon="4.70193">
        <ele>198</ele>
        <time>2018-04-21T10:30:00Z</time>
      </trkpt>
      <trkpt lat="46.05747" lon="4.70187">
        <ele>198</ele>
        <time>2018-04-21T10:30:01Z</time>
      </trkpt>
      <trkpt lat="46.05741" lon="4.70182">
        <ele>198</ele>
        <time>2018-04-21T10:30:02Z</time>
      </trkpt>
      <trkpt lat="46.05736" lon="4.70172">
        <ele>198</ele>
        <time>2018-04-21T10:30:04Z</time>
      </trkpt>
      <trkpt lat="46.05734" lon="4.70165">
        <ele>199</ele>
        <time>2018-04-21T10:30:05Z</time>
      </trkpt>
      <trkpt lat="46.05731" lon="4.70161">
        <ele>199</ele>
        <time>2018-04-21T10:30:06Z</time>
      </trkpt>
      <trkpt lat="46.05728" lon="4.70155">
        <ele>198</ele>
        <time>2018-04-21T10:30:07Z</time>
      </trkpt>
      <trkpt lat="46.05723" lon="4.70145">
        <ele>198</ele>
        <time>2018-04-21T10:30:09Z</time>
      </trkpt>
      <trkpt lat="46.05722" lon="4.70141">
        <ele>198</ele>
        <time>2018-04-21T10:30:10Z</time>
      </trkpt>
      <trkpt lat="46.05717" lon="4.70131">
        <ele>198</ele>
        <time>2018-04-21T10:30:12Z</time>
      </trkpt>
      <trkpt lat="46.05715" lon="4.70126">
        <ele>198</ele>
        <time>2018-04-21T10:30:13Z</time>
      </trkpt>
      <trkpt lat="46.0571" lon="4.70116">
        <ele>198</ele>
        <time>2018-04-21T10:30:15Z</time>
      </trkpt>
      <trkpt lat="46.05707" lon="4.70111">
        <ele>198</ele>
        <time>2018-04-21T10:30:16Z</time>
      </trkpt>
      <trkpt lat="46.05702" lon="4.701">
        <ele>198</ele>
        <time>2018-04-21T10:30:18Z</time>
      </trkpt>
      <trkpt lat="46.057" lon="4.70094">
        <ele>198</ele>
        <time>2018-04-21T10:30:19Z</time>
      </trkpt>
      <trkpt lat="46.05698" lon="4.70089">
        <ele>198</ele>
        <time>2018-04-21T10:30:20Z</time>
      </trkpt>
      <trkpt lat="46.05694" lon="4.70083">
        <ele>199</ele>
        <time>2018-04-21T10:30:21Z</time>
      </trkpt>
      <trkpt lat="46.05692" lon="4.70077">
        <ele>199</ele>
        <time>2018-04-21T10:30:22Z</time>
      </trkpt>
      <trkpt lat="46.05689" lon="4.70071">
        <ele>199</ele>
        <time>2018-04-21T10:30:23Z</time>
      </trkpt>
      <trkpt lat="46.05684" lon="4.70062">
        <ele>199</ele>
        <time>2018-04-21T10:30:25Z</time>
      </trkpt>
      <trkpt lat="46.05682" lon="4.70057">
        <ele>199</ele>
        <time>2018-04-21T10:30:26Z</time>
      </trkpt>
      <trkpt lat="46.05678" lon="4.70046">
        <ele>199</ele>
        <time>2018-04-21T10:30:28Z</time>
      </trkpt>
      <trkpt lat="46.05672" lon="4.7004">
        <ele>199</ele>
        <time>2018-04-21T10:30:29Z</time>
      </trkpt>
      <trkpt lat="46.05669" lon="4.70035">
        <ele>199</ele>
        <time>2018-04-21T10:30:30Z</time>
      </trkpt>
      <trkpt lat="46.05667" lon="4.70027">
        <ele>200</ele>
        <time>2018-04-21T10:30:31Z</time>
      </trkpt>
      <trkpt lat="46.05661" lon="4.70017">
        <ele>200</ele>
        <time>2018-04-21T10:30:33Z</time>
      </trkpt>
      <trkpt lat="46.05658" lon="4.70012">
        <ele>200</ele>
        <time>2018-04-21T10:30:34Z</time>
      </trkpt>
      <trkpt lat="46.05655" lon="4.70006">
        <ele>200</ele>
        <time>2018-04-21T10:30:35Z</time>
      </trkpt>
      <trkpt lat="46.05653" lon="4.7">
        <ele>200</ele>
        <time>2018-04-21T10:30:36Z</time>
      </trkpt>
      <trkpt lat="46.0565" lon="4.6999">
        <ele>200</ele>
        <time>2018-04-21T10:30:38Z</time>
      </trkpt>
      <trkpt lat="46.05644" lon="4.69984">
        <ele>200</ele>
        <time>2018-04-21T10:30:39Z</time>
      </trkpt>
      <trkpt lat="46.0564" lon="4.69978">
        <ele>200</ele>
        <time>2018-04-21T10:30:40Z</time>
      </trkpt>
      <trkpt lat="46.05638" lon="4.69971">
        <ele>200</ele>
        <time>2018-04-21T10:30:41Z</time>
      </trkpt>
      <trkpt lat="46.05635" lon="4.69965">
        <ele>200</ele>
        <time>2018-04-21T10:30:42Z</time>
      </trkpt>
      <trkpt lat="46.05632" lon="4.69959">
        <ele>200</ele>
        <time>2018-04-21T10:30:43Z</time>
      </trkpt>
      <trkpt lat="46.05628" lon="4.69954">
        <ele>200</ele>
        <time>2018-04-21T10:30:44Z</time>
      </trkpt>
      <trkpt lat="46.05624" lon="4.6995">
        <ele>200</ele>
        <time>2018-04-21T10:30:45Z</time>
      </trkpt>
      <trkpt lat="46.05619" lon="4.6994">
        <ele>200</ele>
        <time>2018-04-21T10:30:47Z</time>
      </trkpt>
      <trkpt lat="46.05615" lon="4.69936">
        <ele>201</ele>
        <time>2018-04-21T10:30:48Z</time>
      </trkpt>
      <trkpt lat="46.0561" lon="4.69926">
        <ele>201</ele>
        <time>2018-04-21T10:30:50Z</time>
      </trkpt>
      <trkpt lat="46.05607" lon="4.69921">
        <ele>201</ele>
        <time>2018-04-21T10:30:51Z</time>
      </trkpt>
      <trkpt lat="46.05601" lon="4.69912">
        <ele>201</ele>
        <time>2018-04-21T10:30:53Z</time>
      </trkpt>
      <trkpt lat="46.05598" lon="4.69907">
        <ele>201</ele>
        <time>2018-04-21T10:30:54Z</time>
      </trkpt>
      <trkpt lat="46.05596" lon="4.69901">
        <ele>201</ele>
        <time>2018-04-21T10:30:55Z</time>
      </trkpt>
      <trkpt lat="46.05594" lon="4.69896">
        <ele>201</ele>
        <time>2018-04-21T10:30:56Z</time>
      </trkpt>
      <trkpt lat="46.0559" lon="4.69886">
        <ele>201</ele>
        <time>2018-04-21T10:30:58Z</time>
      </trkpt>
      <trkpt lat="46.05586" lon="4.6988">
        <ele>201</ele>
        <time>2018-04-21T10:30:59Z</time>
      </trkpt>
      <trkpt lat="46.05583" lon="4.69875">
        <ele>200</ele>
        <time>2018-04-21T10:31:00Z</time>
      </trkpt>
      <trkpt lat="46.0558" lon="4.69868">
        <ele>200</ele>
        <time>2018-04-21T10:31:01Z</time>
      </trkpt>
      <trkpt lat="46.05577" lon="4.69863">
        <ele>200</ele>
        <time>2018-04-21T10:31:02Z</time>
      </trkpt>
      <trkpt lat="46.05574" lon="4.69858">
        <ele>200</ele>
        <time>2018-04-21T10:31:03Z</time>
      </trkpt>
      <trkpt lat="46.0557" lon="4.6985">
        <ele>200</ele>
        <time>2018-04-21T10:31:05Z</time>
      </trkpt>
      <trkpt lat="46.05567" lon="4.69849">
        <ele>200</ele>
        <time>2018-04-21T10:31:06Z</time>
      </trkpt>
      <trkpt lat="46.05563" lon="4.69851">
        <ele>200</ele>
        <time>2018-04-21T10:31:08Z</time>
      </trkpt>
      <trkpt lat="46.05557" lon="4.69856">
        <ele>200</ele>
        <time>2018-04-21T10:31:09Z</time>
      </trkpt>
      <trkpt lat="46.05549" lon="4.69861">
        <ele>200</ele>
        <time>2018-04-21T10:31:11Z</time>
      </trkpt>
      <trkpt lat="46.05546" lon="4.69863">
        <ele>200</ele>
        <time>2018-04-21T10:31:12Z</time>
      </trkpt>
      <trkpt lat="46.05542" lon="4.69864">
        <ele>200</ele>
        <time>2018-04-21T10:31:13Z</time>
      </trkpt>
      <trkpt lat="46.05537" lon="4.69866">
        <ele>200</ele>
        <time>2018-04-21T10:31:14Z</time>
      </trkpt>
      <trkpt lat="46.05532" lon="4.69867">
        <ele>200</ele>
        <time>2018-04-21T10:31:15Z</time>
      </trkpt>
      <trkpt lat="46.05526" lon="4.69869">
        <ele>200</ele>
        <time>2018-04-21T10:31:16Z</time>
      </trkpt>
      <trkpt lat="46.05521" lon="4.69869">
        <ele>199</ele>
        <time>2018-04-21T10:31:17Z</time>
      </trkpt>
      <trkpt lat="46.05515" lon="4.69872">
        <ele>199</ele>
        <time>2018-04-21T10:31:18Z</time>
      </trkpt>
      <trkpt lat="46.05509" lon="4.69874">
        <ele>199</ele>
        <time>2018-04-21T10:31:19Z</time>
      </trkpt>
      <trkpt lat="46.05503" lon="4.69876">
        <ele>199</ele>
        <time>2018-04-21T10:31:20Z</time>
      </trkpt>
      <trkpt lat="46.05498" lon="4.69878">
        <ele>199</ele>
        <time>2018-04-21T10:31:21Z</time>
      </trkpt>
      <trkpt lat="46.05492" lon="4.69881">
        <ele>199</ele>
        <time>2018-04-21T10:31:22Z</time>
      </trkpt>
      <trkpt lat="46.05488" lon="4.69883">
        <ele>199</ele>
        <time>2018-04-21T10:31:23Z</time>
      </trkpt>
      <trkpt lat="46.05483" lon="4.69884">
        <ele>199</ele>
        <time>2018-04-21T10:31:24Z</time>
      </trkpt>
      <trkpt lat="46.05478" lon="4.69885">
        <ele>199</ele>
        <time>2018-04-21T10:31:25Z</time>
      </trkpt>
      <trkpt lat="46.05472" lon="4.69887">
        <ele>199</ele>
        <time>2018-04-21T10:31:26Z</time>
      </trkpt>
      <trkpt lat="46.05468" lon="4.69887">
        <ele>199</ele>
        <time>2018-04-21T10:31:27Z</time>
      </trkpt>
      <trkpt lat="46.05462" lon="4.6989">
        <ele>199</ele>
        <time>2018-04-21T10:31:28Z</time>
      </trkpt>
      <trkpt lat="46.05457" lon="4.69892">
        <ele>199</ele>
        <time>2018-04-21T10:31:29Z</time>
      </trkpt>
      <trkpt lat="46.05452" lon="4.69895">
        <ele>199</ele>
        <time>2018-04-21T10:31:30Z</time>
      </trkpt>
      <trkpt lat="46.05446" lon="4.69898">
        <ele>199</ele>
        <time>2018-04-21T10:31:31Z</time>
      </trkpt>
      <trkpt lat="46.0544" lon="4.699">
        <ele>199</ele>
        <time>2018-04-21T10:31:32Z</time>
      </trkpt>
      <trkpt lat="46.05434" lon="4.69901">
        <ele>199</ele>
        <time>2018-04-21T10:31:33Z</time>
      </trkpt>
      <trkpt lat="46.05428" lon="4.69904">
        <ele>199</ele>
        <time>2018-04-21T10:31:34Z</time>
      </trkpt>
      <trkpt lat="46.05421" lon="4.69906">
        <ele>199</ele>
        <time>2018-04-21T10:31:35Z</time>
      </trkpt>
      <trkpt lat="46.05415" lon="4.69906">
        <ele>199</ele>
        <time>2018-04-21T10:31:36Z</time>
      </trkpt>
      <trkpt lat="46.05409" lon="4.69907">
        <ele>199</ele>
        <time>2018-04-21T10:31:37Z</time>
      </trkpt>
      <trkpt lat="46.05403" lon="4.69905">
        <ele>199</ele>
        <time>2018-04-21T10:31:38Z</time>
      </trkpt>
      <trkpt lat="46.05396" lon="4.69903">
        <ele>199</ele>
        <time>2018-04-21T10:31:39Z</time>
      </trkpt>
      <trkpt lat="46.0539" lon="4.69902">
        <ele>199</ele>
        <time>2018-04-21T10:31:40Z</time>
      </trkpt>
      <trkpt lat="46.05385" lon="4.69899">
        <ele>199</ele>
        <time>2018-04-21T10:31:41Z</time>
      </trkpt>
      <trkpt lat="46.05379" lon="4.69897">
        <ele>199</ele>
        <time>2018-04-21T10:31:42Z</time>
      </trkpt>
      <trkpt lat="46.05374" lon="4.69897">
        <ele>199</ele>
        <time>2018-04-21T10:31:43Z</time>
      </trkpt>
      <trkpt lat="46.0537" lon="4.69895">
        <ele>199</ele>
        <time>2018-04-21T10:31:44Z</time>
      </trkpt>
      <trkpt lat="46.05365" lon="4.69894">
        <ele>199</ele>
        <time>2018-04-21T10:31:45Z</time>
      </trkpt>
      <trkpt lat="46.0536" lon="4.69893">
        <ele>199</ele>
        <time>2018-04-21T10:31:46Z</time>
      </trkpt>
      <trkpt lat="46.05355" lon="4.69891">
        <ele>199</ele>
        <time>2018-04-21T10:31:47Z</time>
      </trkpt>
      <trkpt lat="46.0535" lon="4.69889">
        <ele>199</ele>
        <time>2018-04-21T10:31:48Z</time>
      </trkpt>
      <trkpt lat="46.05346" lon="4.69887">
        <ele>199</ele>
        <time>2018-04-21T10:31:49Z</time>
      </trkpt>
      <trkpt lat="46.0534" lon="4.69886">
        <ele>199</ele>
        <time>2018-04-21T10:31:50Z</time>
      </trkpt>
      <trkpt lat="46.05336" lon="4.69884">
        <ele>199</ele>
        <time>2018-04-21T10:31:51Z</time>
      </trkpt>
      <trkpt lat="46.05329" lon="4.69882">
        <ele>199</ele>
        <time>2018-04-21T10:31:52Z</time>
      </trkpt>
      <trkpt lat="46.05324" lon="4.69881">
        <ele>199</ele>
        <time>2018-04-21T10:31:53Z</time>
      </trkpt>
      <trkpt lat="46.05319" lon="4.6988">
        <ele>199</ele>
        <time>2018-04-21T10:31:54Z</time>
      </trkpt>
      <trkpt lat="46.05314" lon="4.69879">
        <ele>199</ele>
        <time>2018-04-21T10:31:55Z</time>
      </trkpt>
      <trkpt lat="46.0531" lon="4.6988">
        <ele>199</ele>
        <time>2018-04-21T10:31:56Z</time>
      </trkpt>
      <trkpt lat="46.05305" lon="4.69879">
        <ele>199</ele>
        <time>2018-04-21T10:31:57Z</time>
      </trkpt>
      <trkpt lat="46.053" lon="4.69878">
        <ele>199</ele>
        <time>2018-04-21T10:31:58Z</time>
      </trkpt>
      <trkpt lat="46.05294" lon="4.69877">
        <ele>199</ele>
        <time>2018-04-21T10:31:59Z</time>
      </trkpt>
      <trkpt lat="46.0529" lon="4.69877">
        <ele>199</ele>
        <time>2018-04-21T10:32:00Z</time>
      </trkpt>
      <trkpt lat="46.05284" lon="4.69876">
        <ele>199</ele>
        <time>2018-04-21T10:32:01Z</time>
      </trkpt>
      <trkpt lat="46.05279" lon="4.69875">
        <ele>199</ele>
        <time>2018-04-21T10:32:02Z</time>
      </trkpt>
      <trkpt lat="46.05274" lon="4.69873">
        <ele>199</ele>
        <time>2018-04-21T10:32:03Z</time>
      </trkpt>
      <trkpt lat="46.05269" lon="4.69872">
        <ele>199</ele>
        <time>2018-04-21T10:32:04Z</time>
      </trkpt>
      <trkpt lat="46.05264" lon="4.6987">
        <ele>199</ele>
        <time>2018-04-21T10:32:05Z</time>
      </trkpt>
      <trkpt lat="46.05259" lon="4.69869">
        <ele>199</ele>
        <time>2018-04-21T10:32:06Z</time>
      </trkpt>
      <trkpt lat="46.05254" lon="4.69868">
        <ele>199</ele>
        <time>2018-04-21T10:32:07Z</time>
      </trkpt>
      <trkpt lat="46.05249" lon="4.69867">
        <ele>200</ele>
        <time>2018-04-21T10:32:08Z</time>
      </trkpt>
      <trkpt lat="46.05244" lon="4.69866">
        <ele>201</ele>
        <time>2018-04-21T10:32:09Z</time>
      </trkpt>
      <trkpt lat="46.05239" lon="4.69865">
        <ele>201</ele>
        <time>2018-04-21T10:32:10Z</time>
      </trkpt>
      <trkpt lat="46.05235" lon="4.69863">
        <ele>201</ele>
        <time>2018-04-21T10:32:11Z</time>
      </trkpt>
      <trkpt lat="46.0523" lon="4.69861">
        <ele>201</ele>
        <time>2018-04-21T10:32:12Z</time>
      </trkpt>
      <trkpt lat="46.05222" lon="4.6986">
        <ele>201</ele>
        <time>2018-04-21T10:32:14Z</time>
      </trkpt>
      <trkpt lat="46.05217" lon="4.69858">
        <ele>201</ele>
        <time>2018-04-21T10:32:15Z</time>
      </trkpt>
      <trkpt lat="46.05213" lon="4.69856">
        <ele>201</ele>
        <time>2018-04-21T10:32:16Z</time>
      </trkpt>
      <trkpt lat="46.05209" lon="4.69853">
        <ele>201</ele>
        <time>2018-04-21T10:32:17Z</time>
      </trkpt>
      <trkpt lat="46.05201" lon="4.69849">
        <ele>201</ele>
        <time>2018-04-21T10:32:19Z</time>
      </trkpt>
      <trkpt lat="46.05197" lon="4.69848">
        <ele>201</ele>
        <time>2018-04-21T10:32:20Z</time>
      </trkpt>
      <trkpt lat="46.05189" lon="4.69846">
        <ele>202</ele>
        <time>2018-04-21T10:32:22Z</time>
      </trkpt>
      <trkpt lat="46.05185" lon="4.69845">
        <ele>202</ele>
        <time>2018-04-21T10:32:23Z</time>
      </trkpt>
      <trkpt lat="46.05176" lon="4.69845">
        <ele>202</ele>
        <time>2018-04-21T10:32:25Z</time>
      </trkpt>
      <trkpt lat="46.05172" lon="4.69842">
        <ele>202</ele>
        <time>2018-04-21T10:32:26Z</time>
      </trkpt>
      <trkpt lat="46.05165" lon="4.6984">
        <ele>203</ele>
        <time>2018-04-21T10:32:28Z</time>
      </trkpt>
      <trkpt lat="46.05162" lon="4.69839">
        <ele>203</ele>
        <time>2018-04-21T10:32:29Z</time>
      </trkpt>
      <trkpt lat="46.05155" lon="4.69836">
        <ele>203</ele>
        <time>2018-04-21T10:32:31Z</time>
      </trkpt>
      <trkpt lat="46.05151" lon="4.69834">
        <ele>203</ele>
        <time>2018-04-21T10:32:32Z</time>
      </trkpt>
      <trkpt lat="46.05144" lon="4.6983">
        <ele>204</ele>
        <time>2018-04-21T10:32:34Z</time>
      </trkpt>
      <trkpt lat="46.0514" lon="4.69829">
        <ele>204</ele>
        <time>2018-04-21T10:32:35Z</time>
      </trkpt>
      <trkpt lat="46.05132" lon="4.6983">
        <ele>204</ele>
        <time>2018-04-21T10:32:39Z</time>
      </trkpt>
      <trkpt lat="46.0513" lon="4.69832">
        <ele>204</ele>
        <time>2018-04-21T10:32:40Z</time>
      </trkpt>
      <trkpt lat="46.05125" lon="4.69841">
        <ele>204</ele>
        <time>2018-04-21T10:32:43Z</time>
      </trkpt>
      <trkpt lat="46.05124" lon="4.69845">
        <ele>204</ele>
        <time>2018-04-21T10:32:44Z</time>
      </trkpt>
      <trkpt lat="46.05122" lon="4.69858">
        <ele>204</ele>
        <time>2018-04-21T10:32:45Z</time>
      </trkpt>
      <trkpt lat="46.05122" lon="4.6987">
        <ele>204</ele>
        <time>2018-04-21T10:32:47Z</time>
      </trkpt>
      <trkpt lat="46.05121" lon="4.69877">
        <ele>204</ele>
        <time>2018-04-21T10:32:48Z</time>
      </trkpt>
      <trkpt lat="46.0512" lon="4.69884">
        <ele>204</ele>
        <time>2018-04-21T10:32:49Z</time>
      </trkpt>
      <trkpt lat="46.05119" lon="4.69891">
        <ele>203</ele>
        <time>2018-04-21T10:32:50Z</time>
      </trkpt>
      <trkpt lat="46.05117" lon="4.69899">
        <ele>203</ele>
        <time>2018-04-21T10:32:51Z</time>
      </trkpt>
      <trkpt lat="46.05117" lon="4.69905">
        <ele>203</ele>
        <time>2018-04-21T10:32:52Z</time>
      </trkpt>
      <trkpt lat="46.05116" lon="4.69912">
        <ele>203</ele>
        <time>2018-04-21T10:32:53Z</time>
      </trkpt>
      <trkpt lat="46.05115" lon="4.69919">
        <ele>203</ele>
        <time>2018-04-21T10:32:54Z</time>
      </trkpt>
      <trkpt lat="46.05114" lon="4.69926">
        <ele>203</ele>
        <time>2018-04-21T10:32:55Z</time>
      </trkpt>
      <trkpt lat="46.05113" lon="4.69934">
        <ele>203</ele>
        <time>2018-04-21T10:32:56Z</time>
      </trkpt>
      <trkpt lat="46.05111" lon="4.69941">
        <ele>203</ele>
        <time>2018-04-21T10:32:57Z</time>
      </trkpt>
      <trkpt lat="46.0511" lon="4.69947">
        <ele>203</ele>
        <time>2018-04-21T10:32:58Z</time>
      </trkpt>
      <trkpt lat="46.05108" lon="4.69956">
        <ele>203</ele>
        <time>2018-04-21T10:32:59Z</time>
      </trkpt>
      <trkpt lat="46.05107" lon="4.69964">
        <ele>203</ele>
        <time>2018-04-21T10:33:00Z</time>
      </trkpt>
      <trkpt lat="46.05103" lon="4.69975">
        <ele>203</ele>
        <time>2018-04-21T10:33:02Z</time>
      </trkpt>
      <trkpt lat="46.05101" lon="4.6998">
        <ele>203</ele>
        <time>2018-04-21T10:33:03Z</time>
      </trkpt>
      <trkpt lat="46.051" lon="4.69989">
        <ele>204</ele>
        <time>2018-04-21T10:33:04Z</time>
      </trkpt>
      <trkpt lat="46.05098" lon="4.69997">
        <ele>204</ele>
        <time>2018-04-21T10:33:05Z</time>
      </trkpt>
      <trkpt lat="46.05097" lon="4.70004">
        <ele>204</ele>
        <time>2018-04-21T10:33:06Z</time>
      </trkpt>
      <trkpt lat="46.05095" lon="4.70012">
        <ele>203</ele>
        <time>2018-04-21T10:33:07Z</time>
      </trkpt>
      <trkpt lat="46.05094" lon="4.70019">
        <ele>203</ele>
        <time>2018-04-21T10:33:08Z</time>
      </trkpt>
      <trkpt lat="46.05089" lon="4.70024">
        <ele>203</ele>
        <time>2018-04-21T10:33:09Z</time>
      </trkpt>
      <trkpt lat="46.05085" lon="4.70031">
        <ele>203</ele>
        <time>2018-04-21T10:33:10Z</time>
      </trkpt>
      <trkpt lat="46.0508" lon="4.70034">
        <ele>204</ele>
        <time>2018-04-21T10:33:11Z</time>
      </trkpt>
      <trkpt lat="46.05074" lon="4.70036">
        <ele>204</ele>
        <time>2018-04-21T10:33:12Z</time>
      </trkpt>
      <trkpt lat="46.05071" lon="4.70039">
        <ele>204</ele>
        <time>2018-04-21T10:33:13Z</time>
      </trkpt>
      <trkpt lat="46.05066" lon="4.70037">
        <ele>204</ele>
        <time>2018-04-21T10:33:14Z</time>
      </trkpt>
      <trkpt lat="46.0506" lon="4.70035">
        <ele>204</ele>
        <time>2018-04-21T10:33:15Z</time>
      </trkpt>
      <trkpt lat="46.05056" lon="4.7003">
        <ele>204</ele>
        <time>2018-04-21T10:33:16Z</time>
      </trkpt>
      <trkpt lat="46.0505" lon="4.70029">
        <ele>204</ele>
        <time>2018-04-21T10:33:17Z</time>
      </trkpt>
      <trkpt lat="46.05045" lon="4.70026">
        <ele>204</ele>
        <time>2018-04-21T10:33:18Z</time>
      </trkpt>
      <trkpt lat="46.0504" lon="4.70022">
        <ele>204</ele>
        <time>2018-04-21T10:33:19Z</time>
      </trkpt>
      <trkpt lat="46.05033" lon="4.70015">
        <ele>204</ele>
        <time>2018-04-21T10:33:21Z</time>
      </trkpt>
      <trkpt lat="46.05029" lon="4.70011">
        <ele>204</ele>
        <time>2018-04-21T10:33:22Z</time>
      </trkpt>
      <trkpt lat="46.05022" lon="4.70004">
        <ele>204</ele>
        <time>2018-04-21T10:33:24Z</time>
      </trkpt>
      <trkpt lat="46.05018" lon="4.7">
        <ele>205</ele>
        <time>2018-04-21T10:33:25Z</time>
      </trkpt>
      <trkpt lat="46.05014" lon="4.69995">
        <ele>205</ele>
        <time>2018-04-21T10:33:26Z</time>
      </trkpt>
      <trkpt lat="46.05011" lon="4.69991">
        <ele>205</ele>
        <time>2018-04-21T10:33:27Z</time>
      </trkpt>
      <trkpt lat="46.05006" lon="4.69981">
        <ele>205</ele>
        <time>2018-04-21T10:33:29Z</time>
      </trkpt>
      <trkpt lat="46.05003" lon="4.69975">
        <ele>205</ele>
        <time>2018-04-21T10:33:30Z</time>
      </trkpt>
      <trkpt lat="46.05" lon="4.69971">
        <ele>205</ele>
        <time>2018-04-21T10:33:31Z</time>
      </trkpt>
      <trkpt lat="46.04996" lon="4.69965">
        <ele>205</ele>
        <time>2018-04-21T10:33:32Z</time>
      </trkpt>
      <trkpt lat="46.04992" lon="4.6996">
        <ele>205</ele>
        <time>2018-04-21T10:33:33Z</time>
      </trkpt>
      <trkpt lat="46.0499" lon="4.69955">
        <ele>206</ele>
        <time>2018-04-21T10:33:34Z</time>
      </trkpt>
      <trkpt lat="46.04986" lon="4.6995">
        <ele>206</ele>
        <time>2018-04-21T10:33:35Z</time>
      </trkpt>
      <trkpt lat="46.04983" lon="4.69945">
        <ele>206</ele>
        <time>2018-04-21T10:33:36Z</time>
      </trkpt>
      <trkpt lat="46.0498" lon="4.6994">
        <ele>206</ele>
        <time>2018-04-21T10:33:37Z</time>
      </trkpt>
      <trkpt lat="46.04976" lon="4.69935">
        <ele>206</ele>
        <time>2018-04-21T10:33:38Z</time>
      </trkpt>
      <trkpt lat="46.04973" lon="4.69929">
        <ele>206</ele>
        <time>2018-04-21T10:33:39Z</time>
      </trkpt>
      <trkpt lat="46.0497" lon="4.69924">
        <ele>206</ele>
        <time>2018-04-21T10:33:40Z</time>
      </trkpt>
      <trkpt lat="46.04963" lon="4.69914">
        <ele>206</ele>
        <time>2018-04-21T10:33:42Z</time>
      </trkpt>
      <trkpt lat="46.0496" lon="4.69909">
        <ele>206</ele>
        <time>2018-04-21T10:33:43Z</time>
      </trkpt>
      <trkpt lat="46.04956" lon="4.69903">
        <ele>207</ele>
        <time>2018-04-21T10:33:44Z</time>
      </trkpt>
      <trkpt lat="46.04952" lon="4.69899">
        <ele>207</ele>
        <time>2018-04-21T10:33:45Z</time>
      </trkpt>
      <trkpt lat="46.0495" lon="4.69892">
        <ele>207</ele>
        <time>2018-04-21T10:33:46Z</time>
      </trkpt>
      <trkpt lat="46.04945" lon="4.69889">
        <ele>207</ele>
        <time>2018-04-21T10:33:47Z</time>
      </trkpt>
      <trkpt lat="46.04941" lon="4.69885">
        <ele>207</ele>
        <time>2018-04-21T10:33:48Z</time>
      </trkpt>
      <trkpt lat="46.04937" lon="4.69881">
        <ele>207</ele>
        <time>2018-04-21T10:33:49Z</time>
      </trkpt>
      <trkpt lat="46.04932" lon="4.69878">
        <ele>207</ele>
        <time>2018-04-21T10:33:50Z</time>
      </trkpt>
      <trkpt lat="46.04927" lon="4.69875">
        <ele>207</ele>
        <time>2018-04-21T10:33:51Z</time>
      </trkpt>
      <trkpt lat="46.04922" lon="4.69872">
        <ele>207</ele>
        <time>2018-04-21T10:33:52Z</time>
      </trkpt>
      <trkpt lat="46.04917" lon="4.69871">
        <ele>206</ele>
        <time>2018-04-21T10:33:53Z</time>
      </trkpt>
      <trkpt lat="46.04912" lon="4.69869">
        <ele>206</ele>
        <time>2018-04-21T10:33:54Z</time>
      </trkpt>
      <trkpt lat="46.04907" lon="4.69866">
        <ele>206</ele>
        <time>2018-04-21T10:33:55Z</time>
      </trkpt>
      <trkpt lat="46.04902" lon="4.69864">
        <ele>206</ele>
        <time>2018-04-21T10:33:56Z</time>
      </trkpt>
      <trkpt lat="46.04896" lon="4.6986">
        <ele>206</ele>
        <time>2018-04-21T10:33:57Z</time>
      </trkpt>
      <trkpt lat="46.0489" lon="4.69857">
        <ele>206</ele>
        <time>2018-04-21T10:33:58Z</time>
      </trkpt>
      <trkpt lat="46.04885" lon="4.69854">
        <ele>206</ele>
        <time>2018-04-21T10:33:59Z</time>
      </trkpt>
      <trkpt lat="46.0488" lon="4.69851">
        <ele>206</ele>
        <time>2018-04-21T10:34:00Z</time>
      </trkpt>
      <trkpt lat="46.04875" lon="4.69848">
        <ele>206</ele>
        <time>2018-04-21T10:34:01Z</time>
      </trkpt>
      <trkpt lat="46.0487" lon="4.69845">
        <ele>206</ele>
        <time>2018-04-21T10:34:02Z</time>
      </trkpt>
      <trkpt lat="46.04866" lon="4.69842">
        <ele>206</ele>
        <time>2018-04-21T10:34:03Z</time>
      </trkpt>
      <trkpt lat="46.04861" lon="4.6984">
        <ele>206</ele>
        <time>2018-04-21T10:34:04Z</time>
      </trkpt>
      <trkpt lat="46.04856" lon="4.69836">
        <ele>206</ele>
        <time>2018-04-21T10:34:05Z</time>
      </trkpt>
      <trkpt lat="46.04852" lon="4.69834">
        <ele>206</ele>
        <time>2018-04-21T10:34:06Z</time>
      </trkpt>
      <trkpt lat="46.04847" lon="4.69832">
        <ele>207</ele>
        <time>2018-04-21T10:34:07Z</time>
      </trkpt>
      <trkpt lat="46.04843" lon="4.6983">
        <ele>207</ele>
        <time>2018-04-21T10:34:08Z</time>
      </trkpt>
      <trkpt lat="46.04837" lon="4.69828">
        <ele>207</ele>
        <time>2018-04-21T10:34:09Z</time>
      </trkpt>
      <trkpt lat="46.04833" lon="4.69826">
        <ele>207</ele>
        <time>2018-04-21T10:34:10Z</time>
      </trkpt>
      <trkpt lat="46.04829" lon="4.69823">
        <ele>207</ele>
        <time>2018-04-21T10:34:11Z</time>
      </trkpt>
      <trkpt lat="46.04826" lon="4.69821">
        <ele>207</ele>
        <time>2018-04-21T10:34:12Z</time>
      </trkpt>
      <trkpt lat="46.0482" lon="4.69819">
        <ele>207</ele>
        <time>2018-04-21T10:34:13Z</time>
      </trkpt>
      <trkpt lat="46.04812" lon="4.69814">
        <ele>206</ele>
        <time>2018-04-21T10:34:15Z</time>
      </trkpt>
      <trkpt lat="46.04808" lon="4.69811">
        <ele>206</ele>
        <time>2018-04-21T10:34:16Z</time>
      </trkpt>
      <trkpt lat="46.04799" lon="4.69812">
        <ele>206</ele>
        <time>2018-04-21T10:34:18Z</time>
      </trkpt>
      <trkpt lat="46.04796" lon="4.69813">
        <ele>206</ele>
        <time>2018-04-21T10:34:19Z</time>
      </trkpt>
      <trkpt lat="46.04794" lon="4.69815">
        <ele>206</ele>
        <time>2018-04-21T10:34:20Z</time>
      </trkpt>
      <trkpt lat="46.04788" lon="4.69819">
        <ele>206</ele>
        <time>2018-04-21T10:34:21Z</time>
      </trkpt>
      <trkpt lat="46.04783" lon="4.69822">
        <ele>206</ele>
        <time>2018-04-21T10:34:22Z</time>
      </trkpt>
      <trkpt lat="46.04778" lon="4.69824">
        <ele>206</ele>
        <time>2018-04-21T10:34:23Z</time>
      </trkpt>
      <trkpt lat="46.04777" lon="4.6983">
        <ele>206</ele>
        <time>2018-04-21T10:34:24Z</time>
      </trkpt>
      <trkpt lat="46.0477" lon="4.69832">
        <ele>206</ele>
        <time>2018-04-21T10:34:25Z</time>
      </trkpt>
      <trkpt lat="46.04767" lon="4.69834">
        <ele>205</ele>
        <time>2018-04-21T10:34:26Z</time>
      </trkpt>
      <trkpt lat="46.04761" lon="4.69836">
        <ele>205</ele>
        <time>2018-04-21T10:34:27Z</time>
      </trkpt>
      <trkpt lat="46.04756" lon="4.69836">
        <ele>205</ele>
        <time>2018-04-21T10:34:28Z</time>
      </trkpt>
      <trkpt lat="46.04752" lon="4.69834">
        <ele>205</ele>
        <time>2018-04-21T10:34:29Z</time>
      </trkpt>
      <trkpt lat="46.04743" lon="4.69836">
        <ele>204</ele>
        <time>2018-04-21T10:34:31Z</time>
      </trkpt>
      <trkpt lat="46.04739" lon="4.69836">
        <ele>204</ele>
        <time>2018-04-21T10:34:32Z</time>
      </trkpt>
      <trkpt lat="46.04734" lon="4.69837">
        <ele>204</ele>
        <time>2018-04-21T10:34:33Z</time>
      </trkpt>
      <trkpt lat="46.04729" lon="4.69837">
        <ele>203</ele>
        <time>2018-04-21T10:34:34Z</time>
      </trkpt>
      <trkpt lat="46.04723" lon="4.69837">
        <ele>203</ele>
        <time>2018-04-21T10:34:35Z</time>
      </trkpt>
      <trkpt lat="46.04718" lon="4.69838">
        <ele>203</ele>
        <time>2018-04-21T10:34:36Z</time>
      </trkpt>
      <trkpt lat="46.04713" lon="4.69841">
        <ele>203</ele>
        <time>2018-04-21T10:34:37Z</time>
      </trkpt>
      <trkpt lat="46.04707" lon="4.6984">
        <ele>203</ele>
        <time>2018-04-21T10:34:38Z</time>
      </trkpt>
      <trkpt lat="46.04701" lon="4.69841">
        <ele>202</ele>
        <time>2018-04-21T10:34:39Z</time>
      </trkpt>
      <trkpt lat="46.04696" lon="4.6984">
        <ele>202</ele>
        <time>2018-04-21T10:34:40Z</time>
      </trkpt>
      <trkpt lat="46.04691" lon="4.6984">
        <ele>202</ele>
        <time>2018-04-21T10:34:41Z</time>
      </trkpt>
      <trkpt lat="46.04685" lon="4.69839">
        <ele>202</ele>
        <time>2018-04-21T10:34:42Z</time>
      </trkpt>
      <trkpt lat="46.0468" lon="4.69837">
        <ele>203</ele>
        <time>2018-04-21T10:34:43Z</time>
      </trkpt>
      <trkpt lat="46.04674" lon="4.69836">
        <ele>203</ele>
        <time>2018-04-21T10:34:44Z</time>
      </trkpt>
      <trkpt lat="46.04668" lon="4.69833">
        <ele>203</ele>
        <time>2018-04-21T10:34:45Z</time>
      </trkpt>
      <trkpt lat="46.04662" lon="4.69831">
        <ele>203</ele>
        <time>2018-04-21T10:34:46Z</time>
      </trkpt>
      <trkpt lat="46.04657" lon="4.69829">
        <ele>203</ele>
        <time>2018-04-21T10:34:47Z</time>
      </trkpt>
      <trkpt lat="46.04651" lon="4.69827">
        <ele>202</ele>
        <time>2018-04-21T10:34:48Z</time>
      </trkpt>
      <trkpt lat="46.04646" lon="4.69826">
        <ele>202</ele>
        <time>2018-04-21T10:34:49Z</time>
      </trkpt>
      <trkpt lat="46.0464" lon="4.69824">
        <ele>202</ele>
        <time>2018-04-21T10:34:50Z</time>
      </trkpt>
      <trkpt lat="46.04634" lon="4.69822">
        <ele>202</ele>
        <time>2018-04-21T10:34:51Z</time>
      </trkpt>
      <trkpt lat="46.04629" lon="4.6982">
        <ele>202</ele>
        <time>2018-04-21T10:34:52Z</time>
      </trkpt>
      <trkpt lat="46.04623" lon="4.69817">
        <ele>202</ele>
        <time>2018-04-21T10:34:53Z</time>
      </trkpt>
      <trkpt lat="46.04618" lon="4.69815">
        <ele>202</ele>
        <time>2018-04-21T10:34:54Z</time>
      </trkpt>
      <trkpt lat="46.04612" lon="4.69814">
        <ele>201</ele>
        <time>2018-04-21T10:34:55Z</time>
      </trkpt>
      <trkpt lat="46.04607" lon="4.6981">
        <ele>201</ele>
        <time>2018-04-21T10:34:56Z</time>
      </trkpt>
      <trkpt lat="46.04601" lon="4.69808">
        <ele>201</ele>
        <time>2018-04-21T10:34:57Z</time>
      </trkpt>
      <trkpt lat="46.04594" lon="4.69805">
        <ele>201</ele>
        <time>2018-04-21T10:34:58Z</time>
      </trkpt>
      <trkpt lat="46.04588" lon="4.69804">
        <ele>201</ele>
        <time>2018-04-21T10:34:59Z</time>
      </trkpt>
      <trkpt lat="46.04582" lon="4.69802">
        <ele>200</ele>
        <time>2018-04-21T10:35:00Z</time>
      </trkpt>
      <trkpt lat="46.04576" lon="4.69799">
        <ele>200</ele>
        <time>2018-04-21T10:35:01Z</time>
      </trkpt>
      <trkpt lat="46.04571" lon="4.69797">
        <ele>200</ele>
        <time>2018-04-21T10:35:02Z</time>
      </trkpt>
      <trkpt lat="46.04565" lon="4.69796">
        <ele>200</ele>
        <time>2018-04-21T10:35:03Z</time>
      </trkpt>
      <trkpt lat="46.04559" lon="4.69796">
        <ele>199</ele>
        <time>2018-04-21T10:35:04Z</time>
      </trkpt>
      <trkpt lat="46.04553" lon="4.69794">
        <ele>199</ele>
        <time>2018-04-21T10:35:05Z</time>
      </trkpt>
      <trkpt lat="46.04548" lon="4.69793">
        <ele>199</ele>
        <time>2018-04-21T10:35:06Z</time>
      </trkpt>
      <trkpt lat="46.04542" lon="4.69792">
        <ele>199</ele>
        <time>2018-04-21T10:35:07Z</time>
      </trkpt>
      <trkpt lat="46.04536" lon="4.69791">
        <ele>199</ele>
        <time>2018-04-21T10:35:08Z</time>
      </trkpt>
      <trkpt lat="46.0453" lon="4.6979">
        <ele>199</ele>
        <time>2018-04-21T10:35:09Z</time>
      </trkpt>
      <trkpt lat="46.04523" lon="4.69789">
        <ele>199</ele>
        <time>2018-04-21T10:35:10Z</time>
      </trkpt>
      <trkpt lat="46.04517" lon="4.6979">
        <ele>199</ele>
        <time>2018-04-21T10:35:11Z</time>
      </trkpt>
      <trkpt lat="46.04511" lon="4.6979">
        <ele>199</ele>
        <time>2018-04-21T10:35:12Z</time>
      </trkpt>
      <trkpt lat="46.04504" lon="4.69789">
        <ele>199</ele>
        <time>2018-04-21T10:35:13Z</time>
      </trkpt>
      <trkpt lat="46.04497" lon="4.6979">
        <ele>197</ele>
        <time>2018-04-21T10:35:14Z</time>
      </trkpt>
      <trkpt lat="46.0449" lon="4.69791">
        <ele>197</ele>
        <time>2018-04-21T10:35:15Z</time>
      </trkpt>
      <trkpt lat="46.04484" lon="4.69792">
        <ele>197</ele>
        <time>2018-04-21T10:35:16Z</time>
      </trkpt>
      <trkpt lat="46.04477" lon="4.69794">
        <ele>197</ele>
        <time>2018-04-21T10:35:17Z</time>
      </trkpt>
      <trkpt lat="46.0447" lon="4.69795">
        <ele>197</ele>
        <time>2018-04-21T10:35:18Z</time>
      </trkpt>
      <trkpt lat="46.04462" lon="4.69797">
        <ele>197</ele>
        <time>2018-04-21T10:35:19Z</time>
      </trkpt>
      <trkpt lat="46.04455" lon="4.69799">
        <ele>196</ele>
        <time>2018-04-21T10:35:20Z</time>
      </trkpt>
      <trkpt lat="46.04447" lon="4.69801">
        <ele>196</ele>
        <time>2018-04-21T10:35:21Z</time>
      </trkpt>
      <trkpt lat="46.0444" lon="4.69803">
        <ele>196</ele>
        <time>2018-04-21T10:35:22Z</time>
      </trkpt>
      <trkpt lat="46.04431" lon="4.69805">
        <ele>196</ele>
        <time>2018-04-21T10:35:23Z</time>
      </trkpt>
      <trkpt lat="46.04424" lon="4.69807">
        <ele>196</ele>
        <time>2018-04-21T10:35:24Z</time>
      </trkpt>
      <trkpt lat="46.04416" lon="4.69809">
        <ele>194</ele>
        <time>2018-04-21T10:35:25Z</time>
      </trkpt>
      <trkpt lat="46.04409" lon="4.69811">
        <ele>194</ele>
        <time>2018-04-21T10:35:26Z</time>
      </trkpt>
      <trkpt lat="46.04403" lon="4.69813">
        <ele>194</ele>
        <time>2018-04-21T10:35:27Z</time>
      </trkpt>
      <trkpt lat="46.04394" lon="4.69816">
        <ele>194</ele>
        <time>2018-04-21T10:35:28Z</time>
      </trkpt>
      <trkpt lat="46.04389" lon="4.69821">
        <ele>194</ele>
        <time>2018-04-21T10:35:29Z</time>
      </trkpt>
      <trkpt lat="46.04382" lon="4.69825">
        <ele>194</ele>
        <time>2018-04-21T10:35:30Z</time>
      </trkpt>
      <trkpt lat="46.04373" lon="4.6983">
        <ele>194</ele>
        <time>2018-04-21T10:35:31Z</time>
      </trkpt>
      <trkpt lat="46.04365" lon="4.69834">
        <ele>193</ele>
        <time>2018-04-21T10:35:32Z</time>
      </trkpt>
      <trkpt lat="46.04356" lon="4.69841">
        <ele>193</ele>
        <time>2018-04-21T10:35:33Z</time>
      </trkpt>
      <trkpt lat="46.04348" lon="4.69846">
        <ele>193</ele>
        <time>2018-04-21T10:35:34Z</time>
      </trkpt>
      <trkpt lat="46.04341" lon="4.69853">
        <ele>193</ele>
        <time>2018-04-21T10:35:35Z</time>
      </trkpt>
      <trkpt lat="46.04334" lon="4.69861">
        <ele>192</ele>
        <time>2018-04-21T10:35:36Z</time>
      </trkpt>
      <trkpt lat="46.04328" lon="4.69872">
        <ele>191</ele>
        <time>2018-04-21T10:35:37Z</time>
      </trkpt>
      <trkpt lat="46.04323" lon="4.69882">
        <ele>190</ele>
        <time>2018-04-21T10:35:38Z</time>
      </trkpt>
      <trkpt lat="46.04317" lon="4.69892">
        <ele>190</ele>
        <time>2018-04-21T10:35:39Z</time>
      </trkpt>
      <trkpt lat="46.04312" lon="4.69902">
        <ele>190</ele>
        <time>2018-04-21T10:35:40Z</time>
      </trkpt>
      <trkpt lat="46.04305" lon="4.6991">
        <ele>190</ele>
        <time>2018-04-21T10:35:41Z</time>
      </trkpt>
      <trkpt lat="46.04299" lon="4.69917">
        <ele>189</ele>
        <time>2018-04-21T10:35:42Z</time>
      </trkpt>
      <trkpt lat="46.04291" lon="4.69924">
        <ele>189</ele>
        <time>2018-04-21T10:35:43Z</time>
      </trkpt>
      <trkpt lat="46.04284" lon="4.6993">
        <ele>189</ele>
        <time>2018-04-21T10:35:44Z</time>
      </trkpt>
      <trkpt lat="46.04278" lon="4.69937">
        <ele>189</ele>
        <time>2018-04-21T10:35:45Z</time>
      </trkpt>
      <trkpt lat="46.04271" lon="4.69944">
        <ele>189</ele>
        <time>2018-04-21T10:35:46Z</time>
      </trkpt>
      <trkpt lat="46.04265" lon="4.69951">
        <ele>188</ele>
        <time>2018-04-21T10:35:47Z</time>
      </trkpt>
      <trkpt lat="46.04259" lon="4.69957">
        <ele>188</ele>
        <time>2018-04-21T10:35:48Z</time>
      </trkpt>
      <trkpt lat="46.04253" lon="4.69963">
        <ele>188</ele>
        <time>2018-04-21T10:35:49Z</time>
      </trkpt>
      <trkpt lat="46.04246" lon="4.69968">
        <ele>188</ele>
        <time>2018-04-21T10:35:50Z</time>
      </trkpt>
      <trkpt lat="46.0424" lon="4.69974">
        <ele>188</ele>
        <time>2018-04-21T10:35:51Z</time>
      </trkpt>
      <trkpt lat="46.04234" lon="4.6998">
        <ele>188</ele>
        <time>2018-04-21T10:35:52Z</time>
      </trkpt>
      <trkpt lat="46.04228" lon="4.69985">
        <ele>188</ele>
        <time>2018-04-21T10:35:53Z</time>
      </trkpt>
      <trkpt lat="46.04221" lon="4.69991">
        <ele>188</ele>
        <time>2018-04-21T10:35:54Z</time>
      </trkpt>
      <trkpt lat="46.04217" lon="4.70001">
        <ele>188</ele>
        <time>2018-04-21T10:35:55Z</time>
      </trkpt>
      <trkpt lat="46.04213" lon="4.70007">
        <ele>188</ele>
        <time>2018-04-21T10:35:56Z</time>
      </trkpt>
      <trkpt lat="46.04206" lon="4.70014">
        <ele>188</ele>
        <time>2018-04-21T10:35:57Z</time>
      </trkpt>
      <trkpt lat="46.04199" lon="4.70017">
        <ele>188</ele>
        <time>2018-04-21T10:35:58Z</time>
      </trkpt>
      <trkpt lat="46.04193" lon="4.7002">
        <ele>188</ele>
        <time>2018-04-21T10:35:59Z</time>
      </trkpt>
      <trkpt lat="46.04187" lon="4.70024">
        <ele>188</ele>
        <time>2018-04-21T10:36:00Z</time>
      </trkpt>
      <trkpt lat="46.04181" lon="4.70028">
        <ele>189</ele>
        <time>2018-04-21T10:36:01Z</time>
      </trkpt>
      <trkpt lat="46.04175" lon="4.70033">
        <ele>189</ele>
        <time>2018-04-21T10:36:02Z</time>
      </trkpt>
      <trkpt lat="46.04168" lon="4.70036">
        <ele>189</ele>
        <time>2018-04-21T10:36:03Z</time>
      </trkpt>
      <trkpt lat="46.04162" lon="4.70037">
        <ele>191</ele>
        <time>2018-04-21T10:36:04Z</time>
      </trkpt>
      <trkpt lat="46.04156" lon="4.70044">
        <ele>191</ele>
        <time>2018-04-21T10:36:05Z</time>
      </trkpt>
      <trkpt lat="46.0415" lon="4.70047">
        <ele>191</ele>
        <time>2018-04-21T10:36:06Z</time>
      </trkpt>
      <trkpt lat="46.04142" lon="4.70051">
        <ele>192</ele>
        <time>2018-04-21T10:36:08Z</time>
      </trkpt>
      <trkpt lat="46.04137" lon="4.70055">
        <ele>192</ele>
        <time>2018-04-21T10:36:09Z</time>
      </trkpt>
      <trkpt lat="46.04133" lon="4.70057">
        <ele>192</ele>
        <time>2018-04-21T10:36:10Z</time>
      </trkpt>
      <trkpt lat="46.04127" lon="4.70054">
        <ele>192</ele>
        <time>2018-04-21T10:36:11Z</time>
      </trkpt>
      <trkpt lat="46.04122" lon="4.70057">
        <ele>192</ele>
        <time>2018-04-21T10:36:12Z</time>
      </trkpt>
      <trkpt lat="46.04117" lon="4.70059">
        <ele>192</ele>
        <time>2018-04-21T10:36:13Z</time>
      </trkpt>
      <trkpt lat="46.04112" lon="4.70064">
        <ele>192</ele>
        <time>2018-04-21T10:36:14Z</time>
      </trkpt>
      <trkpt lat="46.04104" lon="4.70065">
        <ele>193</ele>
        <time>2018-04-21T10:36:15Z</time>
      </trkpt>
      <trkpt lat="46.04099" lon="4.70067">
        <ele>193</ele>
        <time>2018-04-21T10:36:16Z</time>
      </trkpt>
      <trkpt lat="46.04095" lon="4.7007">
        <ele>193</ele>
        <time>2018-04-21T10:36:17Z</time>
      </trkpt>
      <trkpt lat="46.0409" lon="4.70068">
        <ele>193</ele>
        <time>2018-04-21T10:36:18Z</time>
      </trkpt>
      <trkpt lat="46.04082" lon="4.70071">
        <ele>194</ele>
        <time>2018-04-21T10:36:19Z</time>
      </trkpt>
      <trkpt lat="46.04079" lon="4.70068">
        <ele>194</ele>
        <time>2018-04-21T10:36:20Z</time>
      </trkpt>
      <trkpt lat="46.04073" lon="4.70071">
        <ele>194</ele>
        <time>2018-04-21T10:36:21Z</time>
      </trkpt>
      <trkpt lat="46.04069" lon="4.70071">
        <ele>194</ele>
        <time>2018-04-21T10:36:22Z</time>
      </trkpt>
      <trkpt lat="46.04063" lon="4.70073">
        <ele>194</ele>
        <time>2018-04-21T10:36:23Z</time>
      </trkpt>
      <trkpt lat="46.04058" lon="4.70073">
        <ele>194</ele>
        <time>2018-04-21T10:36:24Z</time>
      </trkpt>
      <trkpt lat="46.04053" lon="4.70075">
        <ele>194</ele>
        <time>2018-04-21T10:36:25Z</time>
      </trkpt>
      <trkpt lat="46.04047" lon="4.70076">
        <ele>194</ele>
        <time>2018-04-21T10:36:26Z</time>
      </trkpt>
      <trkpt lat="46.04043" lon="4.70077">
        <ele>194</ele>
        <time>2018-04-21T10:36:27Z</time>
      </trkpt>
      <trkpt lat="46.04036" lon="4.70079">
        <ele>195</ele>
        <time>2018-04-21T10:36:28Z</time>
      </trkpt>
      <trkpt lat="46.0403" lon="4.70081">
        <ele>195</ele>
        <time>2018-04-21T10:36:29Z</time>
      </trkpt>
      <trkpt lat="46.04021" lon="4.70078">
        <ele>195</ele>
        <time>2018-04-21T10:36:31Z</time>
      </trkpt>
      <trkpt lat="46.04016" lon="4.70078">
        <ele>195</ele>
        <time>2018-04-21T10:36:32Z</time>
      </trkpt>
      <trkpt lat="46.0401" lon="4.70078">
        <ele>195</ele>
        <time>2018-04-21T10:36:33Z</time>
      </trkpt>
      <trkpt lat="46.04004" lon="4.70081">
        <ele>196</ele>
        <time>2018-04-21T10:36:34Z</time>
      </trkpt>
      <trkpt lat="46.03997" lon="4.70083">
        <ele>196</ele>
        <time>2018-04-21T10:36:35Z</time>
      </trkpt>
      <trkpt lat="46.03991" lon="4.70085">
        <ele>196</ele>
        <time>2018-04-21T10:36:36Z</time>
      </trkpt>
      <trkpt lat="46.03986" lon="4.70087">
        <ele>196</ele>
        <time>2018-04-21T10:36:37Z</time>
      </trkpt>
      <trkpt lat="46.0398" lon="4.70088">
        <ele>196</ele>
        <time>2018-04-21T10:36:38Z</time>
      </trkpt>
      <trkpt lat="46.03974" lon="4.70089">
        <ele>196</ele>
        <time>2018-04-21T10:36:39Z</time>
      </trkpt>
      <trkpt lat="46.03968" lon="4.70091">
        <ele>196</ele>
        <time>2018-04-21T10:36:40Z</time>
      </trkpt>
      <trkpt lat="46.03963" lon="4.70092">
        <ele>196</ele>
        <time>2018-04-21T10:36:41Z</time>
      </trkpt>
      <trkpt lat="46.03957" lon="4.70093">
        <ele>196</ele>
        <time>2018-04-21T10:36:42Z</time>
      </trkpt>
      <trkpt lat="46.0395" lon="4.70093">
        <ele>196</ele>
        <time>2018-04-21T10:36:43Z</time>
      </trkpt>
      <trkpt lat="46.03944" lon="4.70095">
        <ele>196</ele>
        <time>2018-04-21T10:36:44Z</time>
      </trkpt>
      <trkpt lat="46.03937" lon="4.70097">
        <ele>195</ele>
        <time>2018-04-21T10:36:45Z</time>
      </trkpt>
      <trkpt lat="46.03932" lon="4.70099">
        <ele>195</ele>
        <time>2018-04-21T10:36:46Z</time>
      </trkpt>
      <trkpt lat="46.03926" lon="4.70102">
        <ele>195</ele>
        <time>2018-04-21T10:36:47Z</time>
      </trkpt>
      <trkpt lat="46.0392" lon="4.70106">
        <ele>195</ele>
        <time>2018-04-21T10:36:48Z</time>
      </trkpt>
      <trkpt lat="46.03915" lon="4.70109">
        <ele>194</ele>
        <time>2018-04-21T10:36:49Z</time>
      </trkpt>
      <trkpt lat="46.03909" lon="4.70112">
        <ele>194</ele>
        <time>2018-04-21T10:36:50Z</time>
      </trkpt>
      <trkpt lat="46.03902" lon="4.70114">
        <ele>194</ele>
        <time>2018-04-21T10:36:51Z</time>
      </trkpt>
      <trkpt lat="46.03896" lon="4.70116">
        <ele>194</ele>
        <time>2018-04-21T10:36:52Z</time>
      </trkpt>
      <trkpt lat="46.03889" lon="4.7012">
        <ele>193</ele>
        <time>2018-04-21T10:36:53Z</time>
      </trkpt>
      <trkpt lat="46.03881" lon="4.70124">
        <ele>193</ele>
        <time>2018-04-21T10:36:54Z</time>
      </trkpt>
      <trkpt lat="46.03875" lon="4.70126">
        <ele>193</ele>
        <time>2018-04-21T10:36:55Z</time>
      </trkpt>
      <trkpt lat="46.03868" lon="4.70132">
        <ele>193</ele>
        <time>2018-04-21T10:36:56Z</time>
      </trkpt>
      <trkpt lat="46.03862" lon="4.70138">
        <ele>193</ele>
        <time>2018-04-21T10:36:57Z</time>
      </trkpt>
      <trkpt lat="46.03856" lon="4.70142">
        <ele>193</ele>
        <time>2018-04-21T10:36:58Z</time>
      </trkpt>
      <trkpt lat="46.0385" lon="4.70141">
        <ele>193</ele>
        <time>2018-04-21T10:36:59Z</time>
      </trkpt>
      <trkpt lat="46.03843" lon="4.70141">
        <ele>192</ele>
        <time>2018-04-21T10:37:00Z</time>
      </trkpt>
      <trkpt lat="46.03837" lon="4.70142">
        <ele>192</ele>
        <time>2018-04-21T10:37:01Z</time>
      </trkpt>
      <trkpt lat="46.03833" lon="4.70145">
        <ele>190</ele>
        <time>2018-04-21T10:37:02Z</time>
      </trkpt>
      <trkpt lat="46.03828" lon="4.70144">
        <ele>190</ele>
        <time>2018-04-21T10:37:03Z</time>
      </trkpt>
      <trkpt lat="46.03822" lon="4.70147">
        <ele>190</ele>
        <time>2018-04-21T10:37:04Z</time>
      </trkpt>
      <trkpt lat="46.03816" lon="4.70149">
        <ele>190</ele>
        <time>2018-04-21T10:37:05Z</time>
      </trkpt>
      <trkpt lat="46.03811" lon="4.7015">
        <ele>190</ele>
        <time>2018-04-21T10:37:06Z</time>
      </trkpt>
      <trkpt lat="46.03806" lon="4.70152">
        <ele>190</ele>
        <time>2018-04-21T10:37:07Z</time>
      </trkpt>
      <trkpt lat="46.038" lon="4.70154">
        <ele>189</ele>
        <time>2018-04-21T10:37:08Z</time>
      </trkpt>
      <trkpt lat="46.03794" lon="4.70157">
        <ele>189</ele>
        <time>2018-04-21T10:37:09Z</time>
      </trkpt>
      <trkpt lat="46.03789" lon="4.70158">
        <ele>189</ele>
        <time>2018-04-21T10:37:10Z</time>
      </trkpt>
      <trkpt lat="46.03784" lon="4.70162">
        <ele>189</ele>
        <time>2018-04-21T10:37:11Z</time>
      </trkpt>
      <trkpt lat="46.03778" lon="4.70164">
        <ele>189</ele>
        <time>2018-04-21T10:37:12Z</time>
      </trkpt>
      <trkpt lat="46.03772" lon="4.70165">
        <ele>188</ele>
        <time>2018-04-21T10:37:13Z</time>
      </trkpt>
      <trkpt lat="46.03767" lon="4.70166">
        <ele>188</ele>
        <time>2018-04-21T10:37:14Z</time>
      </trkpt>
      <trkpt lat="46.03763" lon="4.70168">
        <ele>188</ele>
        <time>2018-04-21T10:37:15Z</time>
      </trkpt>
      <trkpt lat="46.03758" lon="4.7017">
        <ele>188</ele>
        <time>2018-04-21T10:37:16Z</time>
      </trkpt>
      <trkpt lat="46.03752" lon="4.7017">
        <ele>187</ele>
        <time>2018-04-21T10:37:17Z</time>
      </trkpt>
      <trkpt lat="46.03748" lon="4.70173">
        <ele>187</ele>
        <time>2018-04-21T10:37:18Z</time>
      </trkpt>
      <trkpt lat="46.03743" lon="4.70176">
        <ele>187</ele>
        <time>2018-04-21T10:37:19Z</time>
      </trkpt>
      <trkpt lat="46.03739" lon="4.70177">
        <ele>188</ele>
        <time>2018-04-21T10:37:20Z</time>
      </trkpt>
      <trkpt lat="46.03734" lon="4.70177">
        <ele>188</ele>
        <time>2018-04-21T10:37:21Z</time>
      </trkpt>
      <trkpt lat="46.03729" lon="4.70177">
        <ele>188</ele>
        <time>2018-04-21T10:37:22Z</time>
      </trkpt>
      <trkpt lat="46.03724" lon="4.70178">
        <ele>188</ele>
        <time>2018-04-21T10:37:23Z</time>
      </trkpt>
      <trkpt lat="46.03719" lon="4.70178">
        <ele>188</ele>
        <time>2018-04-21T10:37:24Z</time>
      </trkpt>
      <trkpt lat="46.03714" lon="4.70181">
        <ele>188</ele>
        <time>2018-04-21T10:37:25Z</time>
      </trkpt>
      <trkpt lat="46.0371" lon="4.70182">
        <ele>188</ele>
        <time>2018-04-21T10:37:26Z</time>
      </trkpt>
      <trkpt lat="46.03706" lon="4.70183">
        <ele>189</ele>
        <time>2018-04-21T10:37:27Z</time>
      </trkpt>
      <trkpt lat="46.037" lon="4.70185">
        <ele>189</ele>
        <time>2018-04-21T10:37:28Z</time>
      </trkpt>
      <trkpt lat="46.03695" lon="4.70188">
        <ele>189</ele>
        <time>2018-04-21T10:37:29Z</time>
      </trkpt>
      <trkpt lat="46.03691" lon="4.7019">
        <ele>189</ele>
        <time>2018-04-21T10:37:30Z</time>
      </trkpt>
      <trkpt lat="46.03688" lon="4.70191">
        <ele>189</ele>
        <time>2018-04-21T10:37:31Z</time>
      </trkpt>
      <trkpt lat="46.03682" lon="4.70194">
        <ele>189</ele>
        <time>2018-04-21T10:37:32Z</time>
      </trkpt>
      <trkpt lat="46.03676" lon="4.70197">
        <ele>189</ele>
        <time>2018-04-21T10:37:34Z</time>
      </trkpt>
      <trkpt lat="46.03671" lon="4.702">
        <ele>189</ele>
        <time>2018-04-21T10:37:35Z</time>
      </trkpt>
      <trkpt lat="46.03664" lon="4.70201">
        <ele>191</ele>
        <time>2018-04-21T10:37:37Z</time>
      </trkpt>
      <trkpt lat="46.03662" lon="4.70202">
        <ele>191</ele>
        <time>2018-04-21T10:37:38Z</time>
      </trkpt>
      <trkpt lat="46.03655" lon="4.70204">
        <ele>190</ele>
        <time>2018-04-21T10:37:39Z</time>
      </trkpt>
      <trkpt lat="46.03649" lon="4.70206">
        <ele>190</ele>
        <time>2018-04-21T10:37:40Z</time>
      </trkpt>
      <trkpt lat="46.03643" lon="4.70207">
        <ele>190</ele>
        <time>2018-04-21T10:37:42Z</time>
      </trkpt>
      <trkpt lat="46.03637" lon="4.7021">
        <ele>190</ele>
        <time>2018-04-21T10:37:43Z</time>
      </trkpt>
      <trkpt lat="46.0363" lon="4.70213">
        <ele>190</ele>
        <time>2018-04-21T10:37:44Z</time>
      </trkpt>
      <trkpt lat="46.03626" lon="4.70217">
        <ele>190</ele>
        <time>2018-04-21T10:37:45Z</time>
      </trkpt>
      <trkpt lat="46.03618" lon="4.70222">
        <ele>190</ele>
        <time>2018-04-21T10:37:46Z</time>
      </trkpt>
      <trkpt lat="46.03616" lon="4.70223">
        <ele>190</ele>
        <time>2018-04-21T10:37:47Z</time>
      </trkpt>
      <trkpt lat="46.03609" lon="4.70224">
        <ele>190</ele>
        <time>2018-04-21T10:37:49Z</time>
      </trkpt>
      <trkpt lat="46.03602" lon="4.70227">
        <ele>190</ele>
        <time>2018-04-21T10:37:50Z</time>
      </trkpt>
      <trkpt lat="46.03595" lon="4.70229">
        <ele>190</ele>
        <time>2018-04-21T10:37:51Z</time>
      </trkpt>
      <trkpt lat="46.03591" lon="4.7023">
        <ele>190</ele>
        <time>2018-04-21T10:37:52Z</time>
      </trkpt>
      <trkpt lat="46.03586" lon="4.70233">
        <ele>190</ele>
        <time>2018-04-21T10:37:53Z</time>
      </trkpt>
      <trkpt lat="46.03581" lon="4.70234">
        <ele>190</ele>
        <time>2018-04-21T10:37:54Z</time>
      </trkpt>
      <trkpt lat="46.03575" lon="4.70236">
        <ele>190</ele>
        <time>2018-04-21T10:37:55Z</time>
      </trkpt>
      <trkpt lat="46.0357" lon="4.70238">
        <ele>190</ele>
        <time>2018-04-21T10:37:56Z</time>
      </trkpt>
      <trkpt lat="46.03565" lon="4.7024">
        <ele>190</ele>
        <time>2018-04-21T10:37:57Z</time>
      </trkpt>
      <trkpt lat="46.03559" lon="4.70242">
        <ele>190</ele>
        <time>2018-04-21T10:37:58Z</time>
      </trkpt>
      <trkpt lat="46.03554" lon="4.70243">
        <ele>190</ele>
        <time>2018-04-21T10:37:59Z</time>
      </trkpt>
      <trkpt lat="46.0355" lon="4.70243">
        <ele>190</ele>
        <time>2018-04-21T10:38:00Z</time>
      </trkpt>
      <trkpt lat="46.03545" lon="4.70245">
        <ele>189</ele>
        <time>2018-04-21T10:38:01Z</time>
      </trkpt>
      <trkpt lat="46.03539" lon="4.70246">
        <ele>189</ele>
        <time>2018-04-21T10:38:02Z</time>
      </trkpt>
      <trkpt lat="46.03536" lon="4.70245">
        <ele>189</ele>
        <time>2018-04-21T10:38:03Z</time>
      </trkpt>
      <trkpt lat="46.0353" lon="4.70248">
        <ele>189</ele>
        <time>2018-04-21T10:38:04Z</time>
      </trkpt>
      <trkpt lat="46.03524" lon="4.70248">
        <ele>189</ele>
        <time>2018-04-21T10:38:05Z</time>
      </trkpt>
      <trkpt lat="46.03518" lon="4.70251">
        <ele>187</ele>
        <time>2018-04-21T10:38:06Z</time>
      </trkpt>
      <trkpt lat="46.03514" lon="4.70251">
        <ele>187</ele>
        <time>2018-04-21T10:38:07Z</time>
      </trkpt>
      <trkpt lat="46.03507" lon="4.70255">
        <ele>187</ele>
        <time>2018-04-21T10:38:08Z</time>
      </trkpt>
      <trkpt lat="46.03503" lon="4.70255">
        <ele>187</ele>
        <time>2018-04-21T10:38:09Z</time>
      </trkpt>
      <trkpt lat="46.03497" lon="4.70257">
        <ele>187</ele>
        <time>2018-04-21T10:38:10Z</time>
      </trkpt>
      <trkpt lat="46.03489" lon="4.70258">
        <ele>187</ele>
        <time>2018-04-21T10:38:12Z</time>
      </trkpt>
      <trkpt lat="46.03483" lon="4.70262">
        <ele>188</ele>
        <time>2018-04-21T10:38:13Z</time>
      </trkpt>
      <trkpt lat="46.03479" lon="4.70263">
        <ele>188</ele>
        <time>2018-04-21T10:38:14Z</time>
      </trkpt>
      <trkpt lat="46.03473" lon="4.70264">
        <ele>188</ele>
        <time>2018-04-21T10:38:15Z</time>
      </trkpt>
      <trkpt lat="46.03468" lon="4.70266">
        <ele>188</ele>
        <time>2018-04-21T10:38:16Z</time>
      </trkpt>
      <trkpt lat="46.03464" lon="4.70269">
        <ele>188</ele>
        <time>2018-04-21T10:38:17Z</time>
      </trkpt>
      <trkpt lat="46.03458" lon="4.70271">
        <ele>188</ele>
        <time>2018-04-21T10:38:18Z</time>
      </trkpt>
      <trkpt lat="46.03454" lon="4.70274">
        <ele>188</ele>
        <time>2018-04-21T10:38:19Z</time>
      </trkpt>
      <trkpt lat="46.03449" lon="4.70273">
        <ele>188</ele>
        <time>2018-04-21T10:38:20Z</time>
      </trkpt>
      <trkpt lat="46.03445" lon="4.70276">
        <ele>189</ele>
        <time>2018-04-21T10:38:21Z</time>
      </trkpt>
      <trkpt lat="46.03438" lon="4.7028">
        <ele>189</ele>
        <time>2018-04-21T10:38:22Z</time>
      </trkpt>
      <trkpt lat="46.03434" lon="4.70283">
        <ele>189</ele>
        <time>2018-04-21T10:38:23Z</time>
      </trkpt>
      <trkpt lat="46.03429" lon="4.70283">
        <ele>189</ele>
        <time>2018-04-21T10:38:24Z</time>
      </trkpt>
      <trkpt lat="46.03424" lon="4.70284">
        <ele>189</ele>
        <time>2018-04-21T10:38:25Z</time>
      </trkpt>
      <trkpt lat="46.03419" lon="4.70286">
        <ele>189</ele>
        <time>2018-04-21T10:38:26Z</time>
      </trkpt>
      <trkpt lat="46.03415" lon="4.70288">
        <ele>191</ele>
        <time>2018-04-21T10:38:27Z</time>
      </trkpt>
      <trkpt lat="46.0341" lon="4.7029">
        <ele>191</ele>
        <time>2018-04-21T10:38:28Z</time>
      </trkpt>
      <trkpt lat="46.03406" lon="4.70291">
        <ele>191</ele>
        <time>2018-04-21T10:38:29Z</time>
      </trkpt>
      <trkpt lat="46.03401" lon="4.70294">
        <ele>191</ele>
        <time>2018-04-21T10:38:30Z</time>
      </trkpt>
      <trkpt lat="46.03396" lon="4.70296">
        <ele>191</ele>
        <time>2018-04-21T10:38:31Z</time>
      </trkpt>
      <trkpt lat="46.03388" lon="4.70301">
        <ele>191</ele>
        <time>2018-04-21T10:38:33Z</time>
      </trkpt>
      <trkpt lat="46.03384" lon="4.70302">
        <ele>191</ele>
        <time>2018-04-21T10:38:34Z</time>
      </trkpt>
      <trkpt lat="46.03379" lon="4.70303">
        <ele>191</ele>
        <time>2018-04-21T10:38:35Z</time>
      </trkpt>
      <trkpt lat="46.03375" lon="4.70305">
        <ele>191</ele>
        <time>2018-04-21T10:38:36Z</time>
      </trkpt>
      <trkpt lat="46.03366" lon="4.7031">
        <ele>191</ele>
        <time>2018-04-21T10:38:38Z</time>
      </trkpt>
      <trkpt lat="46.03362" lon="4.70312">
        <ele>191</ele>
        <time>2018-04-21T10:38:39Z</time>
      </trkpt>
      <trkpt lat="46.03354" lon="4.70315">
        <ele>191</ele>
        <time>2018-04-21T10:38:41Z</time>
      </trkpt>
      <trkpt lat="46.03353" lon="4.70316">
        <ele>191</ele>
        <time>2018-04-21T10:38:42Z</time>
      </trkpt>
      <trkpt lat="46.03346" lon="4.7032">
        <ele>191</ele>
        <time>2018-04-21T10:38:43Z</time>
      </trkpt>
      <trkpt lat="46.03342" lon="4.70322">
        <ele>191</ele>
        <time>2018-04-21T10:38:44Z</time>
      </trkpt>
      <trkpt lat="46.03334" lon="4.70324">
        <ele>191</ele>
        <time>2018-04-21T10:38:47Z</time>
      </trkpt>
      <trkpt lat="46.03329" lon="4.70326">
        <ele>192</ele>
        <time>2018-04-21T10:38:48Z</time>
      </trkpt>
      <trkpt lat="46.03321" lon="4.70331">
        <ele>192</ele>
        <time>2018-04-21T10:38:51Z</time>
      </trkpt>
      <trkpt lat="46.03319" lon="4.70332">
        <ele>192</ele>
        <time>2018-04-21T10:38:52Z</time>
      </trkpt>
      <trkpt lat="46.03311" lon="4.70336">
        <ele>191</ele>
        <time>2018-04-21T10:38:54Z</time>
      </trkpt>
      <trkpt lat="46.03309" lon="4.70336">
        <ele>191</ele>
        <time>2018-04-21T10:38:55Z</time>
      </trkpt>
      <trkpt lat="46.03306" lon="4.70337">
        <ele>191</ele>
        <time>2018-04-21T10:38:56Z</time>
      </trkpt>
      <trkpt lat="46.03299" lon="4.70341">
        <ele>191</ele>
        <time>2018-04-21T10:38:57Z</time>
      </trkpt>
      <trkpt lat="46.03292" lon="4.70343">
        <ele>191</ele>
        <time>2018-04-21T10:38:59Z</time>
      </trkpt>
      <trkpt lat="46.0329" lon="4.70343">
        <ele>191</ele>
        <time>2018-04-21T10:39:00Z</time>
      </trkpt>
      <trkpt lat="46.03284" lon="4.70344">
        <ele>191</ele>
        <time>2018-04-21T10:39:01Z</time>
      </trkpt>
      <trkpt lat="46.03281" lon="4.70346">
        <ele>191</ele>
        <time>2018-04-21T10:39:02Z</time>
      </trkpt>
      <trkpt lat="46.03276" lon="4.70348">
        <ele>191</ele>
        <time>2018-04-21T10:39:04Z</time>
      </trkpt>
      <trkpt lat="46.0327" lon="4.7035">
        <ele>191</ele>
        <time>2018-04-21T10:39:05Z</time>
      </trkpt>
      <trkpt lat="46.03262" lon="4.70352">
        <ele>191</ele>
        <time>2018-04-21T10:39:07Z</time>
      </trkpt>
      <trkpt lat="46.03258" lon="4.70353">
        <ele>191</ele>
        <time>2018-04-21T10:39:08Z</time>
      </trkpt>
      <trkpt lat="46.0325" lon="4.70356">
        <ele>191</ele>
        <time>2018-04-21T10:39:10Z</time>
      </trkpt>
      <trkpt lat="46.03249" lon="4.70357">
        <ele>192</ele>
        <time>2018-04-21T10:39:11Z</time>
      </trkpt>
      <trkpt lat="46.03244" lon="4.70359">
        <ele>192</ele>
        <time>2018-04-21T10:39:13Z</time>
      </trkpt>
      <trkpt lat="46.03236" lon="4.70363">
        <ele>192</ele>
        <time>2018-04-21T10:39:14Z</time>
      </trkpt>
      <trkpt lat="46.03231" lon="4.70365">
        <ele>192</ele>
        <time>2018-04-21T10:39:16Z</time>
      </trkpt>
      <trkpt lat="46.03225" lon="4.70368">
        <ele>192</ele>
        <time>2018-04-21T10:39:17Z</time>
      </trkpt>
      <trkpt lat="46.03218" lon="4.70371">
        <ele>192</ele>
        <time>2018-04-21T10:39:19Z</time>
      </trkpt>
      <trkpt lat="46.03215" lon="4.70373">
        <ele>192</ele>
        <time>2018-04-21T10:39:20Z</time>
      </trkpt>
      <trkpt lat="46.03208" lon="4.70378">
        <ele>192</ele>
        <time>2018-04-21T10:39:22Z</time>
      </trkpt>
      <trkpt lat="46.03205" lon="4.7038">
        <ele>192</ele>
        <time>2018-04-21T10:39:23Z</time>
      </trkpt>
      <trkpt lat="46.03198" lon="4.70384">
        <ele>192</ele>
        <time>2018-04-21T10:39:25Z</time>
      </trkpt>
      <trkpt lat="46.03196" lon="4.70385">
        <ele>192</ele>
        <time>2018-04-21T10:39:26Z</time>
      </trkpt>
      <trkpt lat="46.03188" lon="4.7039">
        <ele>192</ele>
        <time>2018-04-21T10:39:28Z</time>
      </trkpt>
      <trkpt lat="46.03184" lon="4.70393">
        <ele>192</ele>
        <time>2018-04-21T10:39:29Z</time>
      </trkpt>
      <trkpt lat="46.03178" lon="4.70396">
        <ele>192</ele>
        <time>2018-04-21T10:39:31Z</time>
      </trkpt>
      <trkpt lat="46.03173" lon="4.70399">
        <ele>192</ele>
        <time>2018-04-21T10:39:32Z</time>
      </trkpt>
      <trkpt lat="46.03165" lon="4.70404">
        <ele>192</ele>
        <time>2018-04-21T10:39:34Z</time>
      </trkpt>
      <trkpt lat="46.03162" lon="4.70406">
        <ele>192</ele>
        <time>2018-04-21T10:39:35Z</time>
      </trkpt>
      <trkpt lat="46.03154" lon="4.7041">
        <ele>192</ele>
        <time>2018-04-21T10:39:37Z</time>
      </trkpt>
      <trkpt lat="46.0315" lon="4.70412">
        <ele>192</ele>
        <time>2018-04-21T10:39:38Z</time>
      </trkpt>
      <trkpt lat="46.03143" lon="4.70416">
        <ele>192</ele>
        <time>2018-04-21T10:39:40Z</time>
      </trkpt>
      <trkpt lat="46.03139" lon="4.70418">
        <ele>192</ele>
        <time>2018-04-21T10:39:41Z</time>
      </trkpt>
      <trkpt lat="46.03131" lon="4.70422">
        <ele>192</ele>
        <time>2018-04-21T10:39:43Z</time>
      </trkpt>
      <trkpt lat="46.03127" lon="4.70424">
        <ele>192</ele>
        <time>2018-04-21T10:39:44Z</time>
      </trkpt>
      <trkpt lat="46.03119" lon="4.70428">
        <ele>192</ele>
        <time>2018-04-21T10:39:46Z</time>
      </trkpt>
      <trkpt lat="46.03115" lon="4.70429">
        <ele>192</ele>
        <time>2018-04-21T10:39:47Z</time>
      </trkpt>
      <trkpt lat="46.03107" lon="4.70433">
        <ele>192</ele>
        <time>2018-04-21T10:39:49Z</time>
      </trkpt>
      <trkpt lat="46.03103" lon="4.70436">
        <ele>192</ele>
        <time>2018-04-21T10:39:50Z</time>
      </trkpt>
      <trkpt lat="46.03099" lon="4.70439">
        <ele>192</ele>
        <time>2018-04-21T10:39:51Z</time>
      </trkpt>
      <trkpt lat="46.03094" lon="4.70441">
        <ele>192</ele>
        <time>2018-04-21T10:39:52Z</time>
      </trkpt>
      <trkpt lat="46.0309" lon="4.70443">
        <ele>192</ele>
        <time>2018-04-21T10:39:53Z</time>
      </trkpt>
      <trkpt lat="46.03085" lon="4.70444">
        <ele>192</ele>
        <time>2018-04-21T10:39:54Z</time>
      </trkpt>
      <trkpt lat="46.03079" lon="4.70446">
        <ele>191</ele>
        <time>2018-04-21T10:39:55Z</time>
      </trkpt>
      <trkpt lat="46.03075" lon="4.70447">
        <ele>191</ele>
        <time>2018-04-21T10:39:56Z</time>
      </trkpt>
      <trkpt lat="46.0307" lon="4.70451">
        <ele>191</ele>
        <time>2018-04-21T10:39:57Z</time>
      </trkpt>
      <trkpt lat="46.03065" lon="4.70454">
        <ele>191</ele>
        <time>2018-04-21T10:39:58Z</time>
      </trkpt>
      <trkpt lat="46.03057" lon="4.7046">
        <ele>191</ele>
        <time>2018-04-21T10:40:00Z</time>
      </trkpt>
      <trkpt lat="46.03053" lon="4.70463">
        <ele>191</ele>
        <time>2018-04-21T10:40:01Z</time>
      </trkpt>
      <trkpt lat="46.03048" lon="4.70466">
        <ele>191</ele>
        <time>2018-04-21T10:40:02Z</time>
      </trkpt>
      <trkpt lat="46.03044" lon="4.70471">
        <ele>191</ele>
        <time>2018-04-21T10:40:03Z</time>
      </trkpt>
      <trkpt lat="46.03039" lon="4.70475">
        <ele>191</ele>
        <time>2018-04-21T10:40:04Z</time>
      </trkpt>
      <trkpt lat="46.03035" lon="4.70479">
        <ele>191</ele>
        <time>2018-04-21T10:40:05Z</time>
      </trkpt>
      <trkpt lat="46.03031" lon="4.70483">
        <ele>191</ele>
        <time>2018-04-21T10:40:06Z</time>
      </trkpt>
      <trkpt lat="46.03026" lon="4.70487">
        <ele>191</ele>
        <time>2018-04-21T10:40:07Z</time>
      </trkpt>
      <trkpt lat="46.03022" lon="4.70493">
        <ele>191</ele>
        <time>2018-04-21T10:40:08Z</time>
      </trkpt>
      <trkpt lat="46.03017" lon="4.70497">
        <ele>191</ele>
        <time>2018-04-21T10:40:09Z</time>
      </trkpt>
      <trkpt lat="46.03013" lon="4.70501">
        <ele>191</ele>
        <time>2018-04-21T10:40:10Z</time>
      </trkpt>
      <trkpt lat="46.03009" lon="4.70505">
        <ele>191</ele>
        <time>2018-04-21T10:40:11Z</time>
      </trkpt>
      <trkpt lat="46.03005" lon="4.7051">
        <ele>191</ele>
        <time>2018-04-21T10:40:12Z</time>
      </trkpt>
      <trkpt lat="46.03" lon="4.70514">
        <ele>191</ele>
        <time>2018-04-21T10:40:13Z</time>
      </trkpt>
      <trkpt lat="46.02996" lon="4.70519">
        <ele>191</ele>
        <time>2018-04-21T10:40:14Z</time>
      </trkpt>
      <trkpt lat="46.02991" lon="4.70523">
        <ele>191</ele>
        <time>2018-04-21T10:40:15Z</time>
      </trkpt>
      <trkpt lat="46.02987" lon="4.70527">
        <ele>191</ele>
        <time>2018-04-21T10:40:16Z</time>
      </trkpt>
      <trkpt lat="46.02982" lon="4.7053">
        <ele>191</ele>
        <time>2018-04-21T10:40:17Z</time>
      </trkpt>
      <trkpt lat="46.02978" lon="4.70535">
        <ele>191</ele>
        <time>2018-04-21T10:40:18Z</time>
      </trkpt>
      <trkpt lat="46.02975" lon="4.7054">
        <ele>191</ele>
        <time>2018-04-21T10:40:19Z</time>
      </trkpt>
      <trkpt lat="46.0297" lon="4.70543">
        <ele>191</ele>
        <time>2018-04-21T10:40:20Z</time>
      </trkpt>
      <trkpt lat="46.02966" lon="4.70548">
        <ele>191</ele>
        <time>2018-04-21T10:40:21Z</time>
      </trkpt>
      <trkpt lat="46.02962" lon="4.70552">
        <ele>191</ele>
        <time>2018-04-21T10:40:22Z</time>
      </trkpt>
      <trkpt lat="46.02958" lon="4.70559">
        <ele>191</ele>
        <time>2018-04-21T10:40:23Z</time>
      </trkpt>
      <trkpt lat="46.02955" lon="4.70565">
        <ele>191</ele>
        <time>2018-04-21T10:40:24Z</time>
      </trkpt>
      <trkpt lat="46.02952" lon="4.70571">
        <ele>191</ele>
        <time>2018-04-21T10:40:25Z</time>
      </trkpt>
      <trkpt lat="46.02949" lon="4.70577">
        <ele>191</ele>
        <time>2018-04-21T10:40:26Z</time>
      </trkpt>
      <trkpt lat="46.02946" lon="4.70584">
        <ele>192</ele>
        <time>2018-04-21T10:40:27Z</time>
      </trkpt>
      <trkpt lat="46.02944" lon="4.70591">
        <ele>192</ele>
        <time>2018-04-21T10:40:28Z</time>
      </trkpt>
      <trkpt lat="46.0294" lon="4.70598">
        <ele>192</ele>
        <time>2018-04-21T10:40:29Z</time>
      </trkpt>
      <trkpt lat="46.02938" lon="4.70605">
        <ele>192</ele>
        <time>2018-04-21T10:40:30Z</time>
      </trkpt>
      <trkpt lat="46.02935" lon="4.70613">
        <ele>192</ele>
        <time>2018-04-21T10:40:31Z</time>
      </trkpt>
      <trkpt lat="46.02933" lon="4.70621">
        <ele>192</ele>
        <time>2018-04-21T10:40:32Z</time>
      </trkpt>
      <trkpt lat="46.02931" lon="4.70629">
        <ele>192</ele>
        <time>2018-04-21T10:40:33Z</time>
      </trkpt>
      <trkpt lat="46.02929" lon="4.70635">
        <ele>192</ele>
        <time>2018-04-21T10:40:34Z</time>
      </trkpt>
      <trkpt lat="46.02927" lon="4.70642">
        <ele>192</ele>
        <time>2018-04-21T10:40:35Z</time>
      </trkpt>
      <trkpt lat="46.02925" lon="4.70649">
        <ele>192</ele>
        <time>2018-04-21T10:40:36Z</time>
      </trkpt>
      <trkpt lat="46.02922" lon="4.70654">
        <ele>191</ele>
        <time>2018-04-21T10:40:37Z</time>
      </trkpt>
      <trkpt lat="46.02919" lon="4.7066">
        <ele>191</ele>
        <time>2018-04-21T10:40:38Z</time>
      </trkpt>
      <trkpt lat="46.02914" lon="4.70662">
        <ele>191</ele>
        <time>2018-04-21T10:40:39Z</time>
      </trkpt>
      <trkpt lat="46.0291" lon="4.70663">
        <ele>191</ele>
        <time>2018-04-21T10:40:40Z</time>
      </trkpt>
      <trkpt lat="46.02904" lon="4.70663">
        <ele>191</ele>
        <time>2018-04-21T10:40:41Z</time>
      </trkpt>
      <trkpt lat="46.02899" lon="4.70663">
        <ele>191</ele>
        <time>2018-04-21T10:40:42Z</time>
      </trkpt>
      <trkpt lat="46.02894" lon="4.70663">
        <ele>190</ele>
        <time>2018-04-21T10:40:43Z</time>
      </trkpt>
      <trkpt lat="46.02887" lon="4.70662">
        <ele>190</ele>
        <time>2018-04-21T10:40:44Z</time>
      </trkpt>
      <trkpt lat="46.02881" lon="4.70662">
        <ele>190</ele>
        <time>2018-04-21T10:40:45Z</time>
      </trkpt>
      <trkpt lat="46.02875" lon="4.70662">
        <ele>190</ele>
        <time>2018-04-21T10:40:46Z</time>
      </trkpt>
      <trkpt lat="46.02869" lon="4.70663">
        <ele>190</ele>
        <time>2018-04-21T10:40:47Z</time>
      </trkpt>
      <trkpt lat="46.02863" lon="4.70665">
        <ele>190</ele>
        <time>2018-04-21T10:40:48Z</time>
      </trkpt>
      <trkpt lat="46.02857" lon="4.70665">
        <ele>190</ele>
        <time>2018-04-21T10:40:49Z</time>
      </trkpt>
      <trkpt lat="46.02852" lon="4.70667">
        <ele>189</ele>
        <time>2018-04-21T10:40:50Z</time>
      </trkpt>
      <trkpt lat="46.02846" lon="4.70668">
        <ele>189</ele>
        <time>2018-04-21T10:40:51Z</time>
      </trkpt>
      <trkpt lat="46.02841" lon="4.70668">
        <ele>189</ele>
        <time>2018-04-21T10:40:52Z</time>
      </trkpt>
      <trkpt lat="46.02836" lon="4.70669">
        <ele>189</ele>
        <time>2018-04-21T10:40:53Z</time>
      </trkpt>
      <trkpt lat="46.02831" lon="4.70671">
        <ele>189</ele>
        <time>2018-04-21T10:40:54Z</time>
      </trkpt>
      <trkpt lat="46.02825" lon="4.70673">
        <ele>189</ele>
        <time>2018-04-21T10:40:55Z</time>
      </trkpt>
      <trkpt lat="46.02819" lon="4.70674">
        <ele>189</ele>
        <time>2018-04-21T10:40:56Z</time>
      </trkpt>
      <trkpt lat="46.02813" lon="4.70675">
        <ele>189</ele>
        <time>2018-04-21T10:40:57Z</time>
      </trkpt>
      <trkpt lat="46.02808" lon="4.70675">
        <ele>189</ele>
        <time>2018-04-21T10:40:58Z</time>
      </trkpt>
      <trkpt lat="46.02802" lon="4.70675">
        <ele>189</ele>
        <time>2018-04-21T10:40:59Z</time>
      </trkpt>
      <trkpt lat="46.02796" lon="4.70674">
        <ele>189</ele>
        <time>2018-04-21T10:41:00Z</time>
      </trkpt>
      <trkpt lat="46.02791" lon="4.70674">
        <ele>189</ele>
        <time>2018-04-21T10:41:01Z</time>
      </trkpt>
      <trkpt lat="46.02785" lon="4.70674">
        <ele>189</ele>
        <time>2018-04-21T10:41:02Z</time>
      </trkpt>
      <trkpt lat="46.0278" lon="4.70675">
        <ele>189</ele>
        <time>2018-04-21T10:41:03Z</time>
      </trkpt>
      <trkpt lat="46.02775" lon="4.70674">
        <ele>189</ele>
        <time>2018-04-21T10:41:04Z</time>
      </trkpt>
      <trkpt lat="46.02769" lon="4.70674">
        <ele>189</ele>
        <time>2018-04-21T10:41:05Z</time>
      </trkpt>
      <trkpt lat="46.02763" lon="4.70673">
        <ele>189</ele>
        <time>2018-04-21T10:41:06Z</time>
      </trkpt>
      <trkpt lat="46.02757" lon="4.70671">
        <ele>189</ele>
        <time>2018-04-21T10:41:07Z</time>
      </trkpt>
      <trkpt lat="46.0275" lon="4.7067">
        <ele>189</ele>
        <time>2018-04-21T10:41:08Z</time>
      </trkpt>
      <trkpt lat="46.02744" lon="4.70668">
        <ele>189</ele>
        <time>2018-04-21T10:41:09Z</time>
      </trkpt>
      <trkpt lat="46.02738" lon="4.70667">
        <ele>189</ele>
        <time>2018-04-21T10:41:10Z</time>
      </trkpt>
      <trkpt lat="46.02733" lon="4.70666">
        <ele>189</ele>
        <time>2018-04-21T10:41:11Z</time>
      </trkpt>
      <trkpt lat="46.02727" lon="4.70665">
        <ele>189</ele>
        <time>2018-04-21T10:41:12Z</time>
      </trkpt>
      <trkpt lat="46.02722" lon="4.70665">
        <ele>189</ele>
        <time>2018-04-21T10:41:13Z</time>
      </trkpt>
      <trkpt lat="46.02717" lon="4.70664">
        <ele>189</ele>
        <time>2018-04-21T10:41:14Z</time>
      </trkpt>
      <trkpt lat="46.02712" lon="4.70664">
        <ele>189</ele>
        <time>2018-04-21T10:41:15Z</time>
      </trkpt>
      <trkpt lat="46.02707" lon="4.70665">
        <ele>189</ele>
        <time>2018-04-21T10:41:16Z</time>
      </trkpt>
      <trkpt lat="46.02701" lon="4.70664">
        <ele>189</ele>
        <time>2018-04-21T10:41:17Z</time>
      </trkpt>
      <trkpt lat="46.02696" lon="4.70664">
        <ele>189</ele>
        <time>2018-04-21T10:41:18Z</time>
      </trkpt>
      <trkpt lat="46.02691" lon="4.70664">
        <ele>190</ele>
        <time>2018-04-21T10:41:19Z</time>
      </trkpt>
      <trkpt lat="46.02686" lon="4.70661">
        <ele>190</ele>
        <time>2018-04-21T10:41:20Z</time>
      </trkpt>
      <trkpt lat="46.02681" lon="4.7066">
        <ele>190</ele>
        <time>2018-04-21T10:41:21Z</time>
      </trkpt>
      <trkpt lat="46.02675" lon="4.70658">
        <ele>190</ele>
        <time>2018-04-21T10:41:22Z</time>
      </trkpt>
      <trkpt lat="46.0267" lon="4.70657">
        <ele>190</ele>
        <time>2018-04-21T10:41:23Z</time>
      </trkpt>
      <trkpt lat="46.02664" lon="4.70656">
        <ele>190</ele>
        <time>2018-04-21T10:41:24Z</time>
      </trkpt>
      <trkpt lat="46.02658" lon="4.70655">
        <ele>190</ele>
        <time>2018-04-21T10:41:25Z</time>
      </trkpt>
      <trkpt lat="46.02652" lon="4.70655">
        <ele>190</ele>
        <time>2018-04-21T10:41:26Z</time>
      </trkpt>
      <trkpt lat="46.02647" lon="4.70652">
        <ele>190</ele>
        <time>2018-04-21T10:41:27Z</time>
      </trkpt>
      <trkpt lat="46.02641" lon="4.70652">
        <ele>190</ele>
        <time>2018-04-21T10:41:28Z</time>
      </trkpt>
      <trkpt lat="46.02635" lon="4.70651">
        <ele>190</ele>
        <time>2018-04-21T10:41:29Z</time>
      </trkpt>
      <trkpt lat="46.0263" lon="4.7065">
        <ele>190</ele>
        <time>2018-04-21T10:41:30Z</time>
      </trkpt>
      <trkpt lat="46.02625" lon="4.7065">
        <ele>190</ele>
        <time>2018-04-21T10:41:31Z</time>
      </trkpt>
      <trkpt lat="46.02619" lon="4.70649">
        <ele>190</ele>
        <time>2018-04-21T10:41:32Z</time>
      </trkpt>
      <trkpt lat="46.02611" lon="4.7065">
        <ele>190</ele>
        <time>2018-04-21T10:41:33Z</time>
      </trkpt>
      <trkpt lat="46.02606" lon="4.70649">
        <ele>190</ele>
        <time>2018-04-21T10:41:34Z</time>
      </trkpt>
      <trkpt lat="46.026" lon="4.70648">
        <ele>190</ele>
        <time>2018-04-21T10:41:35Z</time>
      </trkpt>
      <trkpt lat="46.02595" lon="4.70646">
        <ele>190</ele>
        <time>2018-04-21T10:41:36Z</time>
      </trkpt>
      <trkpt lat="46.02589" lon="4.70644">
        <ele>190</ele>
        <time>2018-04-21T10:41:37Z</time>
      </trkpt>
      <trkpt lat="46.02584" lon="4.70642">
        <ele>190</ele>
        <time>2018-04-21T10:41:38Z</time>
      </trkpt>
      <trkpt lat="46.02578" lon="4.70639">
        <ele>189</ele>
        <time>2018-04-21T10:41:39Z</time>
      </trkpt>
      <trkpt lat="46.02572" lon="4.70637">
        <ele>189</ele>
        <time>2018-04-21T10:41:40Z</time>
      </trkpt>
      <trkpt lat="46.02567" lon="4.70636">
        <ele>189</ele>
        <time>2018-04-21T10:41:41Z</time>
      </trkpt>
      <trkpt lat="46.02562" lon="4.70635">
        <ele>189</ele>
        <time>2018-04-21T10:41:42Z</time>
      </trkpt>
      <trkpt lat="46.02556" lon="4.70634">
        <ele>189</ele>
        <time>2018-04-21T10:41:43Z</time>
      </trkpt>
      <trkpt lat="46.02551" lon="4.70634">
        <ele>189</ele>
        <time>2018-04-21T10:41:44Z</time>
      </trkpt>
      <trkpt lat="46.02545" lon="4.70633">
        <ele>189</ele>
        <time>2018-04-21T10:41:45Z</time>
      </trkpt>
      <trkpt lat="46.02537" lon="4.70632">
        <ele>189</ele>
        <time>2018-04-21T10:41:47Z</time>
      </trkpt>
      <trkpt lat="46.02531" lon="4.70631">
        <ele>189</ele>
        <time>2018-04-21T10:41:48Z</time>
      </trkpt>
      <trkpt lat="46.02527" lon="4.70627">
        <ele>189</ele>
        <time>2018-04-21T10:41:49Z</time>
      </trkpt>
      <trkpt lat="46.02521" lon="4.70625">
        <ele>189</ele>
        <time>2018-04-21T10:41:50Z</time>
      </trkpt>
      <trkpt lat="46.02516" lon="4.70624">
        <ele>189</ele>
        <time>2018-04-21T10:41:51Z</time>
      </trkpt>
      <trkpt lat="46.02511" lon="4.70622">
        <ele>189</ele>
        <time>2018-04-21T10:41:52Z</time>
      </trkpt>
      <trkpt lat="46.02505" lon="4.70622">
        <ele>189</ele>
        <time>2018-04-21T10:41:53Z</time>
      </trkpt>
      <trkpt lat="46.025" lon="4.7062">
        <ele>188</ele>
        <time>2018-04-21T10:41:54Z</time>
      </trkpt>
      <trkpt lat="46.02492" lon="4.70617">
        <ele>188</ele>
        <time>2018-04-21T10:41:56Z</time>
      </trkpt>
      <trkpt lat="46.0249" lon="4.70617">
        <ele>188</ele>
        <time>2018-04-21T10:41:57Z</time>
      </trkpt>
      <trkpt lat="46.02483" lon="4.70617">
        <ele>188</ele>
        <time>2018-04-21T10:42:00Z</time>
      </trkpt>
      <trkpt lat="46.02478" lon="4.70624">
        <ele>188</ele>
        <time>2018-04-21T10:42:01Z</time>
      </trkpt>
      <trkpt lat="46.02474" lon="4.70634">
        <ele>188</ele>
        <time>2018-04-21T10:42:03Z</time>
      </trkpt>
      <trkpt lat="46.02474" lon="4.70641">
        <ele>188</ele>
        <time>2018-04-21T10:42:04Z</time>
      </trkpt>
      <trkpt lat="46.02472" lon="4.70647">
        <ele>189</ele>
        <time>2018-04-21T10:42:05Z</time>
      </trkpt>
      <trkpt lat="46.02471" lon="4.70654">
        <ele>189</ele>
        <time>2018-04-21T10:42:06Z</time>
      </trkpt>
      <trkpt lat="46.02467" lon="4.70666">
        <ele>189</ele>
        <time>2018-04-21T10:42:08Z</time>
      </trkpt>
      <trkpt lat="46.02465" lon="4.70674">
        <ele>190</ele>
        <time>2018-04-21T10:42:09Z</time>
      </trkpt>
      <trkpt lat="46.02464" lon="4.7068">
        <ele>190</ele>
        <time>2018-04-21T10:42:10Z</time>
      </trkpt>
      <trkpt lat="46.02462" lon="4.70686">
        <ele>190</ele>
        <time>2018-04-21T10:42:11Z</time>
      </trkpt>
      <trkpt lat="46.02461" lon="4.70692">
        <ele>190</ele>
        <time>2018-04-21T10:42:12Z</time>
      </trkpt>
      <trkpt lat="46.02459" lon="4.70698">
        <ele>190</ele>
        <time>2018-04-21T10:42:13Z</time>
      </trkpt>
      <trkpt lat="46.02458" lon="4.70704">
        <ele>190</ele>
        <time>2018-04-21T10:42:14Z</time>
      </trkpt>
      <trkpt lat="46.02455" lon="4.70713">
        <ele>190</ele>
        <time>2018-04-21T10:42:15Z</time>
      </trkpt>
      <trkpt lat="46.02453" lon="4.7072">
        <ele>190</ele>
        <time>2018-04-21T10:42:16Z</time>
      </trkpt>
      <trkpt lat="46.02451" lon="4.70727">
        <ele>190</ele>
        <time>2018-04-21T10:42:17Z</time>
      </trkpt>
      <trkpt lat="46.02448" lon="4.70733">
        <ele>190</ele>
        <time>2018-04-21T10:42:18Z</time>
      </trkpt>
      <trkpt lat="46.02445" lon="4.7074">
        <ele>190</ele>
        <time>2018-04-21T10:42:19Z</time>
      </trkpt>
      <trkpt lat="46.02442" lon="4.70746">
        <ele>190</ele>
        <time>2018-04-21T10:42:20Z</time>
      </trkpt>
      <trkpt lat="46.02439" lon="4.70751">
        <ele>189</ele>
        <time>2018-04-21T10:42:21Z</time>
      </trkpt>
      <trkpt lat="46.02435" lon="4.70754">
        <ele>189</ele>
        <time>2018-04-21T10:42:22Z</time>
      </trkpt>
      <trkpt lat="46.0243" lon="4.70758">
        <ele>189</ele>
        <time>2018-04-21T10:42:23Z</time>
      </trkpt>
      <trkpt lat="46.02425" lon="4.70763">
        <ele>189</ele>
        <time>2018-04-21T10:42:24Z</time>
      </trkpt>
      <trkpt lat="46.02421" lon="4.70767">
        <ele>189</ele>
        <time>2018-04-21T10:42:25Z</time>
      </trkpt>
      <trkpt lat="46.02415" lon="4.70771">
        <ele>186</ele>
        <time>2018-04-21T10:42:26Z</time>
      </trkpt>
      <trkpt lat="46.02409" lon="4.70775">
        <ele>185</ele>
        <time>2018-04-21T10:42:27Z</time>
      </trkpt>
      <trkpt lat="46.02404" lon="4.70777">
        <ele>185</ele>
        <time>2018-04-21T10:42:28Z</time>
      </trkpt>
      <trkpt lat="46.02399" lon="4.70778">
        <ele>185</ele>
        <time>2018-04-21T10:42:29Z</time>
      </trkpt>
      <trkpt lat="46.02393" lon="4.70778">
        <ele>185</ele>
        <time>2018-04-21T10:42:30Z</time>
      </trkpt>
      <trkpt lat="46.02385" lon="4.70778">
        <ele>184</ele>
        <time>2018-04-21T10:42:31Z</time>
      </trkpt>
      <trkpt lat="46.02378" lon="4.70779">
        <ele>184</ele>
        <time>2018-04-21T10:42:32Z</time>
      </trkpt>
      <trkpt lat="46.02372" lon="4.70779">
        <ele>184</ele>
        <time>2018-04-21T10:42:33Z</time>
      </trkpt>
      <trkpt lat="46.02364" lon="4.70777">
        <ele>183</ele>
        <time>2018-04-21T10:42:34Z</time>
      </trkpt>
      <trkpt lat="46.02357" lon="4.70775">
        <ele>183</ele>
        <time>2018-04-21T10:42:35Z</time>
      </trkpt>
      <trkpt lat="46.0235" lon="4.70774">
        <ele>183</ele>
        <time>2018-04-21T10:42:36Z</time>
      </trkpt>
      <trkpt lat="46.02342" lon="4.70772">
        <ele>182</ele>
        <time>2018-04-21T10:42:37Z</time>
      </trkpt>
      <trkpt lat="46.02335" lon="4.70772">
        <ele>182</ele>
        <time>2018-04-21T10:42:38Z</time>
      </trkpt>
      <trkpt lat="46.02328" lon="4.70771">
        <ele>180</ele>
        <time>2018-04-21T10:42:39Z</time>
      </trkpt>
      <trkpt lat="46.0232" lon="4.7077">
        <ele>180</ele>
        <time>2018-04-21T10:42:40Z</time>
      </trkpt>
      <trkpt lat="46.02313" lon="4.70771">
        <ele>180</ele>
        <time>2018-04-21T10:42:41Z</time>
      </trkpt>
      <trkpt lat="46.02304" lon="4.70768">
        <ele>180</ele>
        <time>2018-04-21T10:42:42Z</time>
      </trkpt>
      <trkpt lat="46.02297" lon="4.70767">
        <ele>180</ele>
        <time>2018-04-21T10:42:43Z</time>
      </trkpt>
      <trkpt lat="46.02289" lon="4.70765">
        <ele>181</ele>
        <time>2018-04-21T10:42:44Z</time>
      </trkpt>
      <trkpt lat="46.02282" lon="4.70763">
        <ele>181</ele>
        <time>2018-04-21T10:42:45Z</time>
      </trkpt>
      <trkpt lat="46.02275" lon="4.70762">
        <ele>181</ele>
        <time>2018-04-21T10:42:46Z</time>
      </trkpt>
      <trkpt lat="46.02267" lon="4.70761">
        <ele>181</ele>
        <time>2018-04-21T10:42:47Z</time>
      </trkpt>
      <trkpt lat="46.0226" lon="4.7076">
        <ele>181</ele>
        <time>2018-04-21T10:42:48Z</time>
      </trkpt>
      <trkpt lat="46.02254" lon="4.70758">
        <ele>181</ele>
        <time>2018-04-21T10:42:49Z</time>
      </trkpt>
      <trkpt lat="46.02247" lon="4.70755">
        <ele>181</ele>
        <time>2018-04-21T10:42:50Z</time>
      </trkpt>
      <trkpt lat="46.0224" lon="4.70754">
        <ele>180</ele>
        <time>2018-04-21T10:42:51Z</time>
      </trkpt>
      <trkpt lat="46.02233" lon="4.70752">
        <ele>180</ele>
        <time>2018-04-21T10:42:52Z</time>
      </trkpt>
      <trkpt lat="46.02226" lon="4.7075">
        <ele>180</ele>
        <time>2018-04-21T10:42:53Z</time>
      </trkpt>
      <trkpt lat="46.0222" lon="4.70749">
        <ele>181</ele>
        <time>2018-04-21T10:42:54Z</time>
      </trkpt>
      <trkpt lat="46.02215" lon="4.70747">
        <ele>180</ele>
        <time>2018-04-21T10:42:55Z</time>
      </trkpt>
      <trkpt lat="46.02208" lon="4.70745">
        <ele>180</ele>
        <time>2018-04-21T10:42:56Z</time>
      </trkpt>
      <trkpt lat="46.02202" lon="4.70744">
        <ele>180</ele>
        <time>2018-04-21T10:42:57Z</time>
      </trkpt>
      <trkpt lat="46.02197" lon="4.70744">
        <ele>180</ele>
        <time>2018-04-21T10:42:58Z</time>
      </trkpt>
      <trkpt lat="46.02191" lon="4.70743">
        <ele>180</ele>
        <time>2018-04-21T10:42:59Z</time>
      </trkpt>
      <trkpt lat="46.02186" lon="4.70742">
        <ele>180</ele>
        <time>2018-04-21T10:43:00Z</time>
      </trkpt>
      <trkpt lat="46.02179" lon="4.7074">
        <ele>180</ele>
        <time>2018-04-21T10:43:01Z</time>
      </trkpt>
      <trkpt lat="46.02174" lon="4.70738">
        <ele>180</ele>
        <time>2018-04-21T10:43:02Z</time>
      </trkpt>
      <trkpt lat="46.02168" lon="4.70737">
        <ele>180</ele>
        <time>2018-04-21T10:43:03Z</time>
      </trkpt>
      <trkpt lat="46.02163" lon="4.70734">
        <ele>179</ele>
        <time>2018-04-21T10:43:04Z</time>
      </trkpt>
      <trkpt lat="46.02157" lon="4.70733">
        <ele>179</ele>
        <time>2018-04-21T10:43:05Z</time>
      </trkpt>
      <trkpt lat="46.02151" lon="4.70731">
        <ele>179</ele>
        <time>2018-04-21T10:43:06Z</time>
      </trkpt>
      <trkpt lat="46.02145" lon="4.7073">
        <ele>179</ele>
        <time>2018-04-21T10:43:07Z</time>
      </trkpt>
      <trkpt lat="46.02139" lon="4.70729">
        <ele>179</ele>
        <time>2018-04-21T10:43:08Z</time>
      </trkpt>
      <trkpt lat="46.02135" lon="4.70727">
        <ele>179</ele>
        <time>2018-04-21T10:43:09Z</time>
      </trkpt>
      <trkpt lat="46.0213" lon="4.70726">
        <ele>179</ele>
        <time>2018-04-21T10:43:10Z</time>
      </trkpt>
      <trkpt lat="46.02124" lon="4.70726">
        <ele>179</ele>
        <time>2018-04-21T10:43:11Z</time>
      </trkpt>
      <trkpt lat="46.02119" lon="4.70724">
        <ele>179</ele>
        <time>2018-04-21T10:43:12Z</time>
      </trkpt>
      <trkpt lat="46.02113" lon="4.70725">
        <ele>179</ele>
        <time>2018-04-21T10:43:13Z</time>
      </trkpt>
      <trkpt lat="46.02108" lon="4.70724">
        <ele>179</ele>
        <time>2018-04-21T10:43:14Z</time>
      </trkpt>
      <trkpt lat="46.02103" lon="4.70723">
        <ele>179</ele>
        <time>2018-04-21T10:43:15Z</time>
      </trkpt>
      <trkpt lat="46.02098" lon="4.70723">
        <ele>179</ele>
        <time>2018-04-21T10:43:16Z</time>
      </trkpt>
      <trkpt lat="46.02093" lon="4.70722">
        <ele>178</ele>
        <time>2018-04-21T10:43:17Z</time>
      </trkpt>
      <trkpt lat="46.02088" lon="4.70719">
        <ele>179</ele>
        <time>2018-04-21T10:43:18Z</time>
      </trkpt>
      <trkpt lat="46.02084" lon="4.7072">
        <ele>179</ele>
        <time>2018-04-21T10:43:19Z</time>
      </trkpt>
      <trkpt lat="46.0208" lon="4.70719">
        <ele>179</ele>
        <time>2018-04-21T10:43:20Z</time>
      </trkpt>
      <trkpt lat="46.02075" lon="4.70717">
        <ele>179</ele>
        <time>2018-04-21T10:43:21Z</time>
      </trkpt>
      <trkpt lat="46.02069" lon="4.70716">
        <ele>179</ele>
        <time>2018-04-21T10:43:22Z</time>
      </trkpt>
      <trkpt lat="46.02064" lon="4.70716">
        <ele>179</ele>
        <time>2018-04-21T10:43:23Z</time>
      </trkpt>
      <trkpt lat="46.02059" lon="4.70715">
        <ele>179</ele>
        <time>2018-04-21T10:43:24Z</time>
      </trkpt>
      <trkpt lat="46.02054" lon="4.70713">
        <ele>179</ele>
        <time>2018-04-21T10:43:25Z</time>
      </trkpt>
      <trkpt lat="46.02049" lon="4.70712">
        <ele>179</ele>
        <time>2018-04-21T10:43:26Z</time>
      </trkpt>
      <trkpt lat="46.02044" lon="4.70711">
        <ele>179</ele>
        <time>2018-04-21T10:43:27Z</time>
      </trkpt>
      <trkpt lat="46.02037" lon="4.7071">
        <ele>179</ele>
        <time>2018-04-21T10:43:28Z</time>
      </trkpt>
      <trkpt lat="46.02033" lon="4.70709">
        <ele>179</ele>
        <time>2018-04-21T10:43:29Z</time>
      </trkpt>
      <trkpt lat="46.02028" lon="4.70708">
        <ele>179</ele>
        <time>2018-04-21T10:43:30Z</time>
      </trkpt>
      <trkpt lat="46.02023" lon="4.70708">
        <ele>179</ele>
        <time>2018-04-21T10:43:31Z</time>
      </trkpt>
      <trkpt lat="46.02018" lon="4.70706">
        <ele>179</ele>
        <time>2018-04-21T10:43:32Z</time>
      </trkpt>
      <trkpt lat="46.02012" lon="4.70705">
        <ele>179</ele>
        <time>2018-04-21T10:43:33Z</time>
      </trkpt>
      <trkpt lat="46.02006" lon="4.70705">
        <ele>179</ele>
        <time>2018-04-21T10:43:34Z</time>
      </trkpt>
      <trkpt lat="46.02001" lon="4.70704">
        <ele>179</ele>
        <time>2018-04-21T10:43:35Z</time>
      </trkpt>
      <trkpt lat="46.01995" lon="4.70703">
        <ele>181</ele>
        <time>2018-04-21T10:43:36Z</time>
      </trkpt>
      <trkpt lat="46.0199" lon="4.70702">
        <ele>181</ele>
        <time>2018-04-21T10:43:37Z</time>
      </trkpt>
      <trkpt lat="46.01985" lon="4.707">
        <ele>181</ele>
        <time>2018-04-21T10:43:38Z</time>
      </trkpt>
      <trkpt lat="46.01979" lon="4.707">
        <ele>181</ele>
        <time>2018-04-21T10:43:39Z</time>
      </trkpt>
      <trkpt lat="46.01974" lon="4.70699">
        <ele>181</ele>
        <time>2018-04-21T10:43:40Z</time>
      </trkpt>
      <trkpt lat="46.01968" lon="4.70699">
        <ele>181</ele>
        <time>2018-04-21T10:43:41Z</time>
      </trkpt>
      <trkpt lat="46.01963" lon="4.70697">
        <ele>181</ele>
        <time>2018-04-21T10:43:42Z</time>
      </trkpt>
      <trkpt lat="46.01958" lon="4.70697">
        <ele>181</ele>
        <time>2018-04-21T10:43:43Z</time>
      </trkpt>
      <trkpt lat="46.01953" lon="4.70695">
        <ele>181</ele>
        <time>2018-04-21T10:43:44Z</time>
      </trkpt>
      <trkpt lat="46.01948" lon="4.70694">
        <ele>182</ele>
        <time>2018-04-21T10:43:45Z</time>
      </trkpt>
      <trkpt lat="46.01943" lon="4.70693">
        <ele>182</ele>
        <time>2018-04-21T10:43:46Z</time>
      </trkpt>
      <trkpt lat="46.01938" lon="4.70692">
        <ele>182</ele>
        <time>2018-04-21T10:43:47Z</time>
      </trkpt>
      <trkpt lat="46.01932" lon="4.70691">
        <ele>182</ele>
        <time>2018-04-21T10:43:48Z</time>
      </trkpt>
      <trkpt lat="46.01927" lon="4.7069">
        <ele>182</ele>
        <time>2018-04-21T10:43:49Z</time>
      </trkpt>
      <trkpt lat="46.01919" lon="4.7069">
        <ele>182</ele>
        <time>2018-04-21T10:43:50Z</time>
      </trkpt>
      <trkpt lat="46.01914" lon="4.70691">
        <ele>184</ele>
        <time>2018-04-21T10:43:51Z</time>
      </trkpt>
      <trkpt lat="46.01909" lon="4.70691">
        <ele>184</ele>
        <time>2018-04-21T10:43:52Z</time>
      </trkpt>
      <trkpt lat="46.01904" lon="4.7069">
        <ele>184</ele>
        <time>2018-04-21T10:43:53Z</time>
      </trkpt>
      <trkpt lat="46.01895" lon="4.70689">
        <ele>184</ele>
        <time>2018-04-21T10:43:55Z</time>
      </trkpt>
      <trkpt lat="46.0189" lon="4.70689">
        <ele>184</ele>
        <time>2018-04-21T10:43:56Z</time>
      </trkpt>
      <trkpt lat="46.01885" lon="4.70689">
        <ele>185</ele>
        <time>2018-04-21T10:43:57Z</time>
      </trkpt>
      <trkpt lat="46.01879" lon="4.7069">
        <ele>185</ele>
        <time>2018-04-21T10:43:58Z</time>
      </trkpt>
      <trkpt lat="46.01874" lon="4.7069">
        <ele>185</ele>
        <time>2018-04-21T10:43:59Z</time>
      </trkpt>
      <trkpt lat="46.01868" lon="4.7069">
        <ele>185</ele>
        <time>2018-04-21T10:44:00Z</time>
      </trkpt>
      <trkpt lat="46.01863" lon="4.70689">
        <ele>185</ele>
        <time>2018-04-21T10:44:01Z</time>
      </trkpt>
      <trkpt lat="46.01858" lon="4.70689">
        <ele>185</ele>
        <time>2018-04-21T10:44:02Z</time>
      </trkpt>
      <trkpt lat="46.01853" lon="4.70689">
        <ele>185</ele>
        <time>2018-04-21T10:44:03Z</time>
      </trkpt>
      <trkpt lat="46.01848" lon="4.70688">
        <ele>185</ele>
        <time>2018-04-21T10:44:04Z</time>
      </trkpt>
      <trkpt lat="46.01844" lon="4.70688">
        <ele>185</ele>
        <time>2018-04-21T10:44:05Z</time>
      </trkpt>
      <trkpt lat="46.01839" lon="4.70689">
        <ele>186</ele>
        <time>2018-04-21T10:44:06Z</time>
      </trkpt>
      <trkpt lat="46.01834" lon="4.70689">
        <ele>186</ele>
        <time>2018-04-21T10:44:07Z</time>
      </trkpt>
      <trkpt lat="46.01829" lon="4.7069">
        <ele>187</ele>
        <time>2018-04-21T10:44:08Z</time>
      </trkpt>
      <trkpt lat="46.01824" lon="4.70692">
        <ele>187</ele>
        <time>2018-04-21T10:44:09Z</time>
      </trkpt>
      <trkpt lat="46.01818" lon="4.70693">
        <ele>187</ele>
        <time>2018-04-21T10:44:10Z</time>
      </trkpt>
      <trkpt lat="46.01814" lon="4.70691">
        <ele>187</ele>
        <time>2018-04-21T10:44:11Z</time>
      </trkpt>
      <trkpt lat="46.01808" lon="4.70693">
        <ele>187</ele>
        <time>2018-04-21T10:44:12Z</time>
      </trkpt>
      <trkpt lat="46.01804" lon="4.70692">
        <ele>187</ele>
        <time>2018-04-21T10:44:13Z</time>
      </trkpt>
      <trkpt lat="46.01798" lon="4.70692">
        <ele>187</ele>
        <time>2018-04-21T10:44:14Z</time>
      </trkpt>
      <trkpt lat="46.01793" lon="4.70693">
        <ele>187</ele>
        <time>2018-04-21T10:44:15Z</time>
      </trkpt>
      <trkpt lat="46.01788" lon="4.70693">
        <ele>187</ele>
        <time>2018-04-21T10:44:16Z</time>
      </trkpt>
      <trkpt lat="46.01783" lon="4.70693">
        <ele>187</ele>
        <time>2018-04-21T10:44:17Z</time>
      </trkpt>
      <trkpt lat="46.01778" lon="4.70695">
        <ele>187</ele>
        <time>2018-04-21T10:44:18Z</time>
      </trkpt>
      <trkpt lat="46.01773" lon="4.70697">
        <ele>187</ele>
        <time>2018-04-21T10:44:19Z</time>
      </trkpt>
      <trkpt lat="46.01767" lon="4.70697">
        <ele>187</ele>
        <time>2018-04-21T10:44:20Z</time>
      </trkpt>
      <trkpt lat="46.01762" lon="4.70698">
        <ele>187</ele>
        <time>2018-04-21T10:44:21Z</time>
      </trkpt>
      <trkpt lat="46.01755" lon="4.70698">
        <ele>187</ele>
        <time>2018-04-21T10:44:22Z</time>
      </trkpt>
      <trkpt lat="46.01749" lon="4.70699">
        <ele>188</ele>
        <time>2018-04-21T10:44:23Z</time>
      </trkpt>
      <trkpt lat="46.01744" lon="4.70699">
        <ele>188</ele>
        <time>2018-04-21T10:44:24Z</time>
      </trkpt>
      <trkpt lat="46.0174" lon="4.707">
        <ele>188</ele>
        <time>2018-04-21T10:44:25Z</time>
      </trkpt>
      <trkpt lat="46.01734" lon="4.707">
        <ele>188</ele>
        <time>2018-04-21T10:44:26Z</time>
      </trkpt>
      <trkpt lat="46.01729" lon="4.70701">
        <ele>188</ele>
        <time>2018-04-21T10:44:27Z</time>
      </trkpt>
      <trkpt lat="46.01724" lon="4.70702">
        <ele>188</ele>
        <time>2018-04-21T10:44:28Z</time>
      </trkpt>
      <trkpt lat="46.01719" lon="4.70703">
        <ele>188</ele>
        <time>2018-04-21T10:44:29Z</time>
      </trkpt>
      <trkpt lat="46.01714" lon="4.70704">
        <ele>188</ele>
        <time>2018-04-21T10:44:30Z</time>
      </trkpt>
      <trkpt lat="46.01708" lon="4.70704">
        <ele>189</ele>
        <time>2018-04-21T10:44:31Z</time>
      </trkpt>
      <trkpt lat="46.01704" lon="4.70705">
        <ele>189</ele>
        <time>2018-04-21T10:44:32Z</time>
      </trkpt>
      <trkpt lat="46.01698" lon="4.70705">
        <ele>189</ele>
        <time>2018-04-21T10:44:33Z</time>
      </trkpt>
      <trkpt lat="46.01693" lon="4.70706">
        <ele>189</ele>
        <time>2018-04-21T10:44:34Z</time>
      </trkpt>
      <trkpt lat="46.01688" lon="4.70706">
        <ele>189</ele>
        <time>2018-04-21T10:44:35Z</time>
      </trkpt>
      <trkpt lat="46.01683" lon="4.70707">
        <ele>189</ele>
        <time>2018-04-21T10:44:36Z</time>
      </trkpt>
      <trkpt lat="46.01678" lon="4.70707">
        <ele>189</ele>
        <time>2018-04-21T10:44:37Z</time>
      </trkpt>
      <trkpt lat="46.01673" lon="4.70708">
        <ele>189</ele>
        <time>2018-04-21T10:44:38Z</time>
      </trkpt>
      <trkpt lat="46.01667" lon="4.70708">
        <ele>189</ele>
        <time>2018-04-21T10:44:39Z</time>
      </trkpt>
      <trkpt lat="46.01662" lon="4.70709">
        <ele>190</ele>
        <time>2018-04-21T10:44:40Z</time>
      </trkpt>
      <trkpt lat="46.01657" lon="4.70709">
        <ele>190</ele>
        <time>2018-04-21T10:44:41Z</time>
      </trkpt>
      <trkpt lat="46.01652" lon="4.70711">
        <ele>190</ele>
        <time>2018-04-21T10:44:42Z</time>
      </trkpt>
      <trkpt lat="46.01647" lon="4.70711">
        <ele>190</ele>
        <time>2018-04-21T10:44:43Z</time>
      </trkpt>
      <trkpt lat="46.01642" lon="4.70711">
        <ele>190</ele>
        <time>2018-04-21T10:44:44Z</time>
      </trkpt>
      <trkpt lat="46.01637" lon="4.70713">
        <ele>190</ele>
        <time>2018-04-21T10:44:45Z</time>
      </trkpt>
      <trkpt lat="46.01631" lon="4.70713">
        <ele>190</ele>
        <time>2018-04-21T10:44:46Z</time>
      </trkpt>
      <trkpt lat="46.01623" lon="4.70715">
        <ele>190</ele>
        <time>2018-04-21T10:44:48Z</time>
      </trkpt>
      <trkpt lat="46.01618" lon="4.70716">
        <ele>190</ele>
        <time>2018-04-21T10:44:49Z</time>
      </trkpt>
      <trkpt lat="46.01609" lon="4.70716">
        <ele>190</ele>
        <time>2018-04-21T10:44:51Z</time>
      </trkpt>
      <trkpt lat="46.01604" lon="4.70717">
        <ele>190</ele>
        <time>2018-04-21T10:44:52Z</time>
      </trkpt>
      <trkpt lat="46.01596" lon="4.70719">
        <ele>190</ele>
        <time>2018-04-21T10:44:54Z</time>
      </trkpt>
      <trkpt lat="46.01592" lon="4.7072">
        <ele>190</ele>
        <time>2018-04-21T10:44:55Z</time>
      </trkpt>
      <trkpt lat="46.01587" lon="4.70719">
        <ele>190</ele>
        <time>2018-04-21T10:44:56Z</time>
      </trkpt>
      <trkpt lat="46.01583" lon="4.7072">
        <ele>190</ele>
        <time>2018-04-21T10:44:57Z</time>
      </trkpt>
      <trkpt lat="46.01574" lon="4.70723">
        <ele>190</ele>
        <time>2018-04-21T10:44:59Z</time>
      </trkpt>
      <trkpt lat="46.01571" lon="4.70724">
        <ele>190</ele>
        <time>2018-04-21T10:45:00Z</time>
      </trkpt>
      <trkpt lat="46.01562" lon="4.70723">
        <ele>190</ele>
        <time>2018-04-21T10:45:02Z</time>
      </trkpt>
      <trkpt lat="46.01557" lon="4.70724">
        <ele>190</ele>
        <time>2018-04-21T10:45:03Z</time>
      </trkpt>
      <trkpt lat="46.01551" lon="4.70725">
        <ele>190</ele>
        <time>2018-04-21T10:45:04Z</time>
      </trkpt>
      <trkpt lat="46.01547" lon="4.70725">
        <ele>190</ele>
        <time>2018-04-21T10:45:05Z</time>
      </trkpt>
      <trkpt lat="46.01543" lon="4.70724">
        <ele>190</ele>
        <time>2018-04-21T10:45:06Z</time>
      </trkpt>
      <trkpt lat="46.01537" lon="4.70725">
        <ele>190</ele>
        <time>2018-04-21T10:45:07Z</time>
      </trkpt>
      <trkpt lat="46.01532" lon="4.70727">
        <ele>190</ele>
        <time>2018-04-21T10:45:08Z</time>
      </trkpt>
      <trkpt lat="46.01527" lon="4.70728">
        <ele>190</ele>
        <time>2018-04-21T10:45:09Z</time>
      </trkpt>
      <trkpt lat="46.01522" lon="4.70728">
        <ele>190</ele>
        <time>2018-04-21T10:45:10Z</time>
      </trkpt>
      <trkpt lat="46.01516" lon="4.7073">
        <ele>190</ele>
        <time>2018-04-21T10:45:11Z</time>
      </trkpt>
      <trkpt lat="46.01512" lon="4.7073">
        <ele>190</ele>
        <time>2018-04-21T10:45:12Z</time>
      </trkpt>
      <trkpt lat="46.01507" lon="4.7073">
        <ele>190</ele>
        <time>2018-04-21T10:45:13Z</time>
      </trkpt>
      <trkpt lat="46.01501" lon="4.70731">
        <ele>190</ele>
        <time>2018-04-21T10:45:14Z</time>
      </trkpt>
      <trkpt lat="46.01497" lon="4.7073">
        <ele>190</ele>
        <time>2018-04-21T10:45:15Z</time>
      </trkpt>
      <trkpt lat="46.01491" lon="4.70731">
        <ele>190</ele>
        <time>2018-04-21T10:45:16Z</time>
      </trkpt>
      <trkpt lat="46.01487" lon="4.70731">
        <ele>190</ele>
        <time>2018-04-21T10:45:17Z</time>
      </trkpt>
      <trkpt lat="46.01482" lon="4.70731">
        <ele>190</ele>
        <time>2018-04-21T10:45:18Z</time>
      </trkpt>
      <trkpt lat="46.01477" lon="4.70732">
        <ele>190</ele>
        <time>2018-04-21T10:45:19Z</time>
      </trkpt>
      <trkpt lat="46.01473" lon="4.70732">
        <ele>190</ele>
        <time>2018-04-21T10:45:20Z</time>
      </trkpt>
      <trkpt lat="46.01467" lon="4.70732">
        <ele>190</ele>
        <time>2018-04-21T10:45:21Z</time>
      </trkpt>
      <trkpt lat="46.01462" lon="4.70733">
        <ele>189</ele>
        <time>2018-04-21T10:45:22Z</time>
      </trkpt>
      <trkpt lat="46.01458" lon="4.70732">
        <ele>189</ele>
        <time>2018-04-21T10:45:23Z</time>
      </trkpt>
      <trkpt lat="46.01453" lon="4.70732">
        <ele>189</ele>
        <time>2018-04-21T10:45:24Z</time>
      </trkpt>
      <trkpt lat="46.01448" lon="4.70732">
        <ele>189</ele>
        <time>2018-04-21T10:45:25Z</time>
      </trkpt>
      <trkpt lat="46.01443" lon="4.70733">
        <ele>189</ele>
        <time>2018-04-21T10:45:26Z</time>
      </trkpt>
      <trkpt lat="46.01437" lon="4.70733">
        <ele>189</ele>
        <time>2018-04-21T10:45:27Z</time>
      </trkpt>
      <trkpt lat="46.01433" lon="4.70733">
        <ele>189</ele>
        <time>2018-04-21T10:45:28Z</time>
      </trkpt>
      <trkpt lat="46.01428" lon="4.70734">
        <ele>189</ele>
        <time>2018-04-21T10:45:29Z</time>
      </trkpt>
      <trkpt lat="46.01423" lon="4.70735">
        <ele>189</ele>
        <time>2018-04-21T10:45:30Z</time>
      </trkpt>
      <trkpt lat="46.01418" lon="4.70736">
        <ele>189</ele>
        <time>2018-04-21T10:45:31Z</time>
      </trkpt>
      <trkpt lat="46.0141" lon="4.70736">
        <ele>189</ele>
        <time>2018-04-21T10:45:33Z</time>
      </trkpt>
      <trkpt lat="46.01405" lon="4.70737">
        <ele>189</ele>
        <time>2018-04-21T10:45:34Z</time>
      </trkpt>
      <trkpt lat="46.01401" lon="4.70739">
        <ele>189</ele>
        <time>2018-04-21T10:45:35Z</time>
      </trkpt>
      <trkpt lat="46.01396" lon="4.7074">
        <ele>189</ele>
        <time>2018-04-21T10:45:36Z</time>
      </trkpt>
      <trkpt lat="46.01388" lon="4.7074">
        <ele>189</ele>
        <time>2018-04-21T10:45:38Z</time>
      </trkpt>
      <trkpt lat="46.01383" lon="4.7074">
        <ele>189</ele>
        <time>2018-04-21T10:45:39Z</time>
      </trkpt>
      <trkpt lat="46.01378" lon="4.7074">
        <ele>189</ele>
        <time>2018-04-21T10:45:40Z</time>
      </trkpt>
      <trkpt lat="46.01374" lon="4.70739">
        <ele>189</ele>
        <time>2018-04-21T10:45:41Z</time>
      </trkpt>
      <trkpt lat="46.01369" lon="4.70738">
        <ele>189</ele>
        <time>2018-04-21T10:45:42Z</time>
      </trkpt>
      <trkpt lat="46.01365" lon="4.70738">
        <ele>189</ele>
        <time>2018-04-21T10:45:43Z</time>
      </trkpt>
      <trkpt lat="46.0136" lon="4.70737">
        <ele>189</ele>
        <time>2018-04-21T10:45:44Z</time>
      </trkpt>
      <trkpt lat="46.01355" lon="4.70737">
        <ele>189</ele>
        <time>2018-04-21T10:45:45Z</time>
      </trkpt>
      <trkpt lat="46.01351" lon="4.70737">
        <ele>189</ele>
        <time>2018-04-21T10:45:46Z</time>
      </trkpt>
      <trkpt lat="46.01346" lon="4.70736">
        <ele>189</ele>
        <time>2018-04-21T10:45:47Z</time>
      </trkpt>
      <trkpt lat="46.01341" lon="4.70736">
        <ele>189</ele>
        <time>2018-04-21T10:45:48Z</time>
      </trkpt>
      <trkpt lat="46.01336" lon="4.70735">
        <ele>189</ele>
        <time>2018-04-21T10:45:49Z</time>
      </trkpt>
      <trkpt lat="46.01331" lon="4.70735">
        <ele>190</ele>
        <time>2018-04-21T10:45:50Z</time>
      </trkpt>
      <trkpt lat="46.01326" lon="4.70735">
        <ele>190</ele>
        <time>2018-04-21T10:45:51Z</time>
      </trkpt>
      <trkpt lat="46.01321" lon="4.70735">
        <ele>190</ele>
        <time>2018-04-21T10:45:52Z</time>
      </trkpt>
      <trkpt lat="46.01316" lon="4.70734">
        <ele>190</ele>
        <time>2018-04-21T10:45:53Z</time>
      </trkpt>
      <trkpt lat="46.01311" lon="4.70732">
        <ele>191</ele>
        <time>2018-04-21T10:45:54Z</time>
      </trkpt>
      <trkpt lat="46.01306" lon="4.70732">
        <ele>191</ele>
        <time>2018-04-21T10:45:55Z</time>
      </trkpt>
      <trkpt lat="46.01301" lon="4.70732">
        <ele>191</ele>
        <time>2018-04-21T10:45:56Z</time>
      </trkpt>
      <trkpt lat="46.01296" lon="4.70732">
        <ele>191</ele>
        <time>2018-04-21T10:45:57Z</time>
      </trkpt>
      <trkpt lat="46.01291" lon="4.70731">
        <ele>191</ele>
        <time>2018-04-21T10:45:58Z</time>
      </trkpt>
      <trkpt lat="46.01285" lon="4.7073">
        <ele>191</ele>
        <time>2018-04-21T10:45:59Z</time>
      </trkpt>
      <trkpt lat="46.0128" lon="4.70729">
        <ele>192</ele>
        <time>2018-04-21T10:46:00Z</time>
      </trkpt>
      <trkpt lat="46.01275" lon="4.70728">
        <ele>192</ele>
        <time>2018-04-21T10:46:01Z</time>
      </trkpt>
      <trkpt lat="46.0127" lon="4.70725">
        <ele>192</ele>
        <time>2018-04-21T10:46:02Z</time>
      </trkpt>
      <trkpt lat="46.01265" lon="4.70724">
        <ele>192</ele>
        <time>2018-04-21T10:46:03Z</time>
      </trkpt>
      <trkpt lat="46.0126" lon="4.70724">
        <ele>192</ele>
        <time>2018-04-21T10:46:04Z</time>
      </trkpt>
      <trkpt lat="46.01255" lon="4.70723">
        <ele>192</ele>
        <time>2018-04-21T10:46:05Z</time>
      </trkpt>
      <trkpt lat="46.0125" lon="4.70721">
        <ele>192</ele>
        <time>2018-04-21T10:46:06Z</time>
      </trkpt>
      <trkpt lat="46.01246" lon="4.70719">
        <ele>193</ele>
        <time>2018-04-21T10:46:07Z</time>
      </trkpt>
      <trkpt lat="46.0124" lon="4.70716">
        <ele>194</ele>
        <time>2018-04-21T10:46:08Z</time>
      </trkpt>
      <trkpt lat="46.01236" lon="4.70715">
        <ele>194</ele>
        <time>2018-04-21T10:46:09Z</time>
      </trkpt>
      <trkpt lat="46.0123" lon="4.70714">
        <ele>194</ele>
        <time>2018-04-21T10:46:10Z</time>
      </trkpt>
      <trkpt lat="46.01225" lon="4.70713">
        <ele>194</ele>
        <time>2018-04-21T10:46:11Z</time>
      </trkpt>
      <trkpt lat="46.0122" lon="4.7071">
        <ele>194</ele>
        <time>2018-04-21T10:46:12Z</time>
      </trkpt>
      <trkpt lat="46.01215" lon="4.70707">
        <ele>194</ele>
        <time>2018-04-21T10:46:13Z</time>
      </trkpt>
      <trkpt lat="46.01211" lon="4.70705">
        <ele>194</ele>
        <time>2018-04-21T10:46:14Z</time>
      </trkpt>
      <trkpt lat="46.01206" lon="4.70702">
        <ele>194</ele>
        <time>2018-04-21T10:46:15Z</time>
      </trkpt>
      <trkpt lat="46.01201" lon="4.70701">
        <ele>194</ele>
        <time>2018-04-21T10:46:16Z</time>
      </trkpt>
      <trkpt lat="46.01196" lon="4.707">
        <ele>194</ele>
        <time>2018-04-21T10:46:17Z</time>
      </trkpt>
      <trkpt lat="46.01191" lon="4.70698">
        <ele>194</ele>
        <time>2018-04-21T10:46:18Z</time>
      </trkpt>
      <trkpt lat="46.01186" lon="4.70696">
        <ele>194</ele>
        <time>2018-04-21T10:46:19Z</time>
      </trkpt>
      <trkpt lat="46.0118" lon="4.70697">
        <ele>194</ele>
        <time>2018-04-21T10:46:20Z</time>
      </trkpt>
      <trkpt lat="46.01175" lon="4.70695">
        <ele>194</ele>
        <time>2018-04-21T10:46:21Z</time>
      </trkpt>
      <trkpt lat="46.0117" lon="4.70693">
        <ele>194</ele>
        <time>2018-04-21T10:46:22Z</time>
      </trkpt>
      <trkpt lat="46.01165" lon="4.70691">
        <ele>194</ele>
        <time>2018-04-21T10:46:23Z</time>
      </trkpt>
      <trkpt lat="46.0116" lon="4.70688">
        <ele>194</ele>
        <time>2018-04-21T10:46:24Z</time>
      </trkpt>
      <trkpt lat="46.01155" lon="4.70685">
        <ele>194</ele>
        <time>2018-04-21T10:46:25Z</time>
      </trkpt>
      <trkpt lat="46.0115" lon="4.70682">
        <ele>194</ele>
        <time>2018-04-21T10:46:26Z</time>
      </trkpt>
      <trkpt lat="46.01145" lon="4.7068">
        <ele>194</ele>
        <time>2018-04-21T10:46:27Z</time>
      </trkpt>
      <trkpt lat="46.0114" lon="4.70679">
        <ele>194</ele>
        <time>2018-04-21T10:46:28Z</time>
      </trkpt>
      <trkpt lat="46.01134" lon="4.70676">
        <ele>194</ele>
        <time>2018-04-21T10:46:29Z</time>
      </trkpt>
      <trkpt lat="46.01129" lon="4.70674">
        <ele>194</ele>
        <time>2018-04-21T10:46:30Z</time>
      </trkpt>
      <trkpt lat="46.01124" lon="4.70672">
        <ele>195</ele>
        <time>2018-04-21T10:46:31Z</time>
      </trkpt>
      <trkpt lat="46.01119" lon="4.7067">
        <ele>195</ele>
        <time>2018-04-21T10:46:32Z</time>
      </trkpt>
      <trkpt lat="46.01114" lon="4.70668">
        <ele>195</ele>
        <time>2018-04-21T10:46:33Z</time>
      </trkpt>
      <trkpt lat="46.01109" lon="4.70666">
        <ele>194</ele>
        <time>2018-04-21T10:46:34Z</time>
      </trkpt>
      <trkpt lat="46.01105" lon="4.70665">
        <ele>195</ele>
        <time>2018-04-21T10:46:35Z</time>
      </trkpt>
      <trkpt lat="46.01101" lon="4.70662">
        <ele>195</ele>
        <time>2018-04-21T10:46:36Z</time>
      </trkpt>
      <trkpt lat="46.01096" lon="4.7066">
        <ele>195</ele>
        <time>2018-04-21T10:46:37Z</time>
      </trkpt>
      <trkpt lat="46.0109" lon="4.70658">
        <ele>195</ele>
        <time>2018-04-21T10:46:38Z</time>
      </trkpt>
      <trkpt lat="46.01086" lon="4.70656">
        <ele>195</ele>
        <time>2018-04-21T10:46:39Z</time>
      </trkpt>
      <trkpt lat="46.0108" lon="4.70654">
        <ele>195</ele>
        <time>2018-04-21T10:46:40Z</time>
      </trkpt>
      <trkpt lat="46.01075" lon="4.70651">
        <ele>195</ele>
        <time>2018-04-21T10:46:41Z</time>
      </trkpt>
      <trkpt lat="46.0107" lon="4.70649">
        <ele>195</ele>
        <time>2018-04-21T10:46:42Z</time>
      </trkpt>
      <trkpt lat="46.01066" lon="4.70646">
        <ele>195</ele>
        <time>2018-04-21T10:46:43Z</time>
      </trkpt>
      <trkpt lat="46.01061" lon="4.70644">
        <ele>195</ele>
        <time>2018-04-21T10:46:44Z</time>
      </trkpt>
      <trkpt lat="46.01056" lon="4.70644">
        <ele>195</ele>
        <time>2018-04-21T10:46:45Z</time>
      </trkpt>
      <trkpt lat="46.01051" lon="4.70643">
        <ele>195</ele>
        <time>2018-04-21T10:46:46Z</time>
      </trkpt>
      <trkpt lat="46.01047" lon="4.70641">
        <ele>195</ele>
        <time>2018-04-21T10:46:47Z</time>
      </trkpt>
      <trkpt lat="46.01042" lon="4.70639">
        <ele>195</ele>
        <time>2018-04-21T10:46:48Z</time>
      </trkpt>
      <trkpt lat="46.01037" lon="4.70636">
        <ele>196</ele>
        <time>2018-04-21T10:46:49Z</time>
      </trkpt>
      <trkpt lat="46.01031" lon="4.70634">
        <ele>196</ele>
        <time>2018-04-21T10:46:50Z</time>
      </trkpt>
      <trkpt lat="46.01026" lon="4.70631">
        <ele>196</ele>
        <time>2018-04-21T10:46:51Z</time>
      </trkpt>
      <trkpt lat="46.01021" lon="4.7063">
        <ele>196</ele>
        <time>2018-04-21T10:46:52Z</time>
      </trkpt>
      <trkpt lat="46.01016" lon="4.70628">
        <ele>196</ele>
        <time>2018-04-21T10:46:53Z</time>
      </trkpt>
      <trkpt lat="46.01011" lon="4.70624">
        <ele>196</ele>
        <time>2018-04-21T10:46:54Z</time>
      </trkpt>
      <trkpt lat="46.01008" lon="4.70622">
        <ele>196</ele>
        <time>2018-04-21T10:46:55Z</time>
      </trkpt>
      <trkpt lat="46.01003" lon="4.7062">
        <ele>196</ele>
        <time>2018-04-21T10:46:56Z</time>
      </trkpt>
      <trkpt lat="46.00998" lon="4.70618">
        <ele>197</ele>
        <time>2018-04-21T10:46:57Z</time>
      </trkpt>
      <trkpt lat="46.00989" lon="4.70615">
        <ele>197</ele>
        <time>2018-04-21T10:46:59Z</time>
      </trkpt>
      <trkpt lat="46.00985" lon="4.70613">
        <ele>197</ele>
        <time>2018-04-21T10:47:00Z</time>
      </trkpt>
      <trkpt lat="46.00977" lon="4.70608">
        <ele>197</ele>
        <time>2018-04-21T10:47:02Z</time>
      </trkpt>
      <trkpt lat="46.00973" lon="4.70606">
        <ele>197</ele>
        <time>2018-04-21T10:47:03Z</time>
      </trkpt>
      <trkpt lat="46.00969" lon="4.70604">
        <ele>197</ele>
        <time>2018-04-21T10:47:04Z</time>
      </trkpt>
      <trkpt lat="46.00963" lon="4.70602">
        <ele>197</ele>
        <time>2018-04-21T10:47:05Z</time>
      </trkpt>
      <trkpt lat="46.00956" lon="4.70597">
        <ele>197</ele>
        <time>2018-04-21T10:47:07Z</time>
      </trkpt>
      <trkpt lat="46.00952" lon="4.70595">
        <ele>197</ele>
        <time>2018-04-21T10:47:08Z</time>
      </trkpt>
      <trkpt lat="46.00948" lon="4.70593">
        <ele>197</ele>
        <time>2018-04-21T10:47:09Z</time>
      </trkpt>
      <trkpt lat="46.00943" lon="4.7059">
        <ele>197</ele>
        <time>2018-04-21T10:47:10Z</time>
      </trkpt>
      <trkpt lat="46.00938" lon="4.70588">
        <ele>198</ele>
        <time>2018-04-21T10:47:11Z</time>
      </trkpt>
      <trkpt lat="46.00934" lon="4.70585">
        <ele>198</ele>
        <time>2018-04-21T10:47:12Z</time>
      </trkpt>
      <trkpt lat="46.00927" lon="4.70581">
        <ele>198</ele>
        <time>2018-04-21T10:47:14Z</time>
      </trkpt>
      <trkpt lat="46.00923" lon="4.7058">
        <ele>198</ele>
        <time>2018-04-21T10:47:15Z</time>
      </trkpt>
      <trkpt lat="46.00915" lon="4.70577">
        <ele>199</ele>
        <time>2018-04-21T10:47:17Z</time>
      </trkpt>
      <trkpt lat="46.00911" lon="4.70576">
        <ele>199</ele>
        <time>2018-04-21T10:47:18Z</time>
      </trkpt>
      <trkpt lat="46.00903" lon="4.70573">
        <ele>199</ele>
        <time>2018-04-21T10:47:20Z</time>
      </trkpt>
      <trkpt lat="46.009" lon="4.70571">
        <ele>200</ele>
        <time>2018-04-21T10:47:21Z</time>
      </trkpt>
      <trkpt lat="46.00892" lon="4.70568">
        <ele>200</ele>
        <time>2018-04-21T10:47:23Z</time>
      </trkpt>
      <trkpt lat="46.00888" lon="4.70566">
        <ele>200</ele>
        <time>2018-04-21T10:47:24Z</time>
      </trkpt>
      <trkpt lat="46.0088" lon="4.70562">
        <ele>200</ele>
        <time>2018-04-21T10:47:26Z</time>
      </trkpt>
      <trkpt lat="46.00876" lon="4.7056">
        <ele>201</ele>
        <time>2018-04-21T10:47:27Z</time>
      </trkpt>
      <trkpt lat="46.00868" lon="4.70557">
        <ele>201</ele>
        <time>2018-04-21T10:47:29Z</time>
      </trkpt>
      <trkpt lat="46.00864" lon="4.70555">
        <ele>201</ele>
        <time>2018-04-21T10:47:30Z</time>
      </trkpt>
      <trkpt lat="46.00856" lon="4.70552">
        <ele>201</ele>
        <time>2018-04-21T10:47:32Z</time>
      </trkpt>
      <trkpt lat="46.00852" lon="4.7055">
        <ele>201</ele>
        <time>2018-04-21T10:47:33Z</time>
      </trkpt>
      <trkpt lat="46.00844" lon="4.70546">
        <ele>201</ele>
        <time>2018-04-21T10:47:35Z</time>
      </trkpt>
      <trkpt lat="46.0084" lon="4.70544">
        <ele>201</ele>
        <time>2018-04-21T10:47:36Z</time>
      </trkpt>
      <trkpt lat="46.00832" lon="4.7054">
        <ele>203</ele>
        <time>2018-04-21T10:47:38Z</time>
      </trkpt>
      <trkpt lat="46.00829" lon="4.70538">
        <ele>203</ele>
        <time>2018-04-21T10:47:39Z</time>
      </trkpt>
      <trkpt lat="46.00821" lon="4.70535">
        <ele>203</ele>
        <time>2018-04-21T10:47:41Z</time>
      </trkpt>
      <trkpt lat="46.00817" lon="4.70533">
        <ele>204</ele>
        <time>2018-04-21T10:47:42Z</time>
      </trkpt>
      <trkpt lat="46.0081" lon="4.70529">
        <ele>204</ele>
        <time>2018-04-21T10:47:44Z</time>
      </trkpt>
      <trkpt lat="46.00806" lon="4.70527">
        <ele>204</ele>
        <time>2018-04-21T10:47:45Z</time>
      </trkpt>
      <trkpt lat="46.00798" lon="4.70523">
        <ele>204</ele>
        <time>2018-04-21T10:47:47Z</time>
      </trkpt>
      <trkpt lat="46.00794" lon="4.70521">
        <ele>204</ele>
        <time>2018-04-21T10:47:48Z</time>
      </trkpt>
      <trkpt lat="46.00786" lon="4.70517">
        <ele>204</ele>
        <time>2018-04-21T10:47:50Z</time>
      </trkpt>
      <trkpt lat="46.00782" lon="4.70515">
        <ele>205</ele>
        <time>2018-04-21T10:47:51Z</time>
      </trkpt>
      <trkpt lat="46.00774" lon="4.70511">
        <ele>205</ele>
        <time>2018-04-21T10:47:53Z</time>
      </trkpt>
      <trkpt lat="46.0077" lon="4.70509">
        <ele>205</ele>
        <time>2018-04-21T10:47:54Z</time>
      </trkpt>
      <trkpt lat="46.00762" lon="4.70505">
        <ele>206</ele>
        <time>2018-04-21T10:47:56Z</time>
      </trkpt>
      <trkpt lat="46.00758" lon="4.70503">
        <ele>207</ele>
        <time>2018-04-21T10:47:57Z</time>
      </trkpt>
      <trkpt lat="46.00751" lon="4.705">
        <ele>208</ele>
        <time>2018-04-21T10:47:59Z</time>
      </trkpt>
      <trkpt lat="46.00747" lon="4.70499">
        <ele>208</ele>
        <time>2018-04-21T10:48:00Z</time>
      </trkpt>
      <trkpt lat="46.00739" lon="4.70496">
        <ele>209</ele>
        <time>2018-04-21T10:48:02Z</time>
      </trkpt>
      <trkpt lat="46.00735" lon="4.70496">
        <ele>209</ele>
        <time>2018-04-21T10:48:03Z</time>
      </trkpt>
      <trkpt lat="46.00727" lon="4.70495">
        <ele>210</ele>
        <time>2018-04-21T10:48:05Z</time>
      </trkpt>
      <trkpt lat="46.00723" lon="4.70494">
        <ele>210</ele>
        <time>2018-04-21T10:48:06Z</time>
      </trkpt>
      <trkpt lat="46.00715" lon="4.70494">
        <ele>210</ele>
        <time>2018-04-21T10:48:08Z</time>
      </trkpt>
      <trkpt lat="46.00711" lon="4.70495">
        <ele>210</ele>
        <time>2018-04-21T10:48:09Z</time>
      </trkpt>
      <trkpt lat="46.00703" lon="4.70495">
        <ele>211</ele>
        <time>2018-04-21T10:48:11Z</time>
      </trkpt>
      <trkpt lat="46.00699" lon="4.70495">
        <ele>211</ele>
        <time>2018-04-21T10:48:12Z</time>
      </trkpt>
      <trkpt lat="46.00691" lon="4.70494">
        <ele>211</ele>
        <time>2018-04-21T10:48:14Z</time>
      </trkpt>
      <trkpt lat="46.00687" lon="4.70493">
        <ele>211</ele>
        <time>2018-04-21T10:48:15Z</time>
      </trkpt>
      <trkpt lat="46.00678" lon="4.70493">
        <ele>211</ele>
        <time>2018-04-21T10:48:17Z</time>
      </trkpt>
      <trkpt lat="46.00673" lon="4.70494">
        <ele>212</ele>
        <time>2018-04-21T10:48:18Z</time>
      </trkpt>
      <trkpt lat="46.00669" lon="4.70493">
        <ele>212</ele>
        <time>2018-04-21T10:48:19Z</time>
      </trkpt>
      <trkpt lat="46.00664" lon="4.70494">
        <ele>212</ele>
        <time>2018-04-21T10:48:20Z</time>
      </trkpt>
      <trkpt lat="46.00656" lon="4.70495">
        <ele>212</ele>
        <time>2018-04-21T10:48:22Z</time>
      </trkpt>
      <trkpt lat="46.00651" lon="4.70495">
        <ele>211</ele>
        <time>2018-04-21T10:48:23Z</time>
      </trkpt>
      <trkpt lat="46.00645" lon="4.70496">
        <ele>211</ele>
        <time>2018-04-21T10:48:24Z</time>
      </trkpt>
      <trkpt lat="46.0064" lon="4.70497">
        <ele>211</ele>
        <time>2018-04-21T10:48:25Z</time>
      </trkpt>
      <trkpt lat="46.00635" lon="4.70498">
        <ele>211</ele>
        <time>2018-04-21T10:48:26Z</time>
      </trkpt>
      <trkpt lat="46.00629" lon="4.70498">
        <ele>211</ele>
        <time>2018-04-21T10:48:27Z</time>
      </trkpt>
      <trkpt lat="46.00624" lon="4.70501">
        <ele>207</ele>
        <time>2018-04-21T10:48:28Z</time>
      </trkpt>
      <trkpt lat="46.00618" lon="4.70502">
        <ele>207</ele>
        <time>2018-04-21T10:48:29Z</time>
      </trkpt>
      <trkpt lat="46.00613" lon="4.70504">
        <ele>207</ele>
        <time>2018-04-21T10:48:30Z</time>
      </trkpt>
      <trkpt lat="46.00608" lon="4.70504">
        <ele>207</ele>
        <time>2018-04-21T10:48:31Z</time>
      </trkpt>
      <trkpt lat="46.00602" lon="4.70505">
        <ele>207</ele>
        <time>2018-04-21T10:48:32Z</time>
      </trkpt>
      <trkpt lat="46.00596" lon="4.70505">
        <ele>207</ele>
        <time>2018-04-21T10:48:33Z</time>
      </trkpt>
      <trkpt lat="46.0059" lon="4.70506">
        <ele>207</ele>
        <time>2018-04-21T10:48:34Z</time>
      </trkpt>
      <trkpt lat="46.00584" lon="4.70507">
        <ele>207</ele>
        <time>2018-04-21T10:48:35Z</time>
      </trkpt>
      <trkpt lat="46.00578" lon="4.70508">
        <ele>206</ele>
        <time>2018-04-21T10:48:36Z</time>
      </trkpt>
      <trkpt lat="46.00571" lon="4.70508">
        <ele>205</ele>
        <time>2018-04-21T10:48:37Z</time>
      </trkpt>
      <trkpt lat="46.00565" lon="4.7051">
        <ele>205</ele>
        <time>2018-04-21T10:48:38Z</time>
      </trkpt>
      <trkpt lat="46.00558" lon="4.70511">
        <ele>204</ele>
        <time>2018-04-21T10:48:39Z</time>
      </trkpt>
      <trkpt lat="46.00551" lon="4.70512">
        <ele>204</ele>
        <time>2018-04-21T10:48:40Z</time>
      </trkpt>
      <trkpt lat="46.00544" lon="4.70512">
        <ele>204</ele>
        <time>2018-04-21T10:48:41Z</time>
      </trkpt>
      <trkpt lat="46.00537" lon="4.70512">
        <ele>204</ele>
        <time>2018-04-21T10:48:42Z</time>
      </trkpt>
      <trkpt lat="46.00529" lon="4.70512">
        <ele>204</ele>
        <time>2018-04-21T10:48:43Z</time>
      </trkpt>
      <trkpt lat="46.00522" lon="4.70512">
        <ele>204</ele>
        <time>2018-04-21T10:48:44Z</time>
      </trkpt>
      <trkpt lat="46.00515" lon="4.70512">
        <ele>204</ele>
        <time>2018-04-21T10:48:45Z</time>
      </trkpt>
      <trkpt lat="46.00508" lon="4.70512">
        <ele>204</ele>
        <time>2018-04-21T10:48:46Z</time>
      </trkpt>
      <trkpt lat="46.005" lon="4.70511">
        <ele>204</ele>
        <time>2018-04-21T10:48:47Z</time>
      </trkpt>
      <trkpt lat="46.00493" lon="4.70508">
        <ele>203</ele>
        <time>2018-04-21T10:48:48Z</time>
      </trkpt>
      <trkpt lat="46.00485" lon="4.70506">
        <ele>202</ele>
        <time>2018-04-21T10:48:49Z</time>
      </trkpt>
      <trkpt lat="46.00478" lon="4.70506">
        <ele>202</ele>
        <time>2018-04-21T10:48:50Z</time>
      </trkpt>
      <trkpt lat="46.00471" lon="4.70506">
        <ele>201</ele>
        <time>2018-04-21T10:48:51Z</time>
      </trkpt>
      <trkpt lat="46.00464" lon="4.70502">
        <ele>201</ele>
        <time>2018-04-21T10:48:52Z</time>
      </trkpt>
      <trkpt lat="46.00457" lon="4.70499">
        <ele>203</ele>
        <time>2018-04-21T10:48:53Z</time>
      </trkpt>
      <trkpt lat="46.0045" lon="4.70494">
        <ele>202</ele>
        <time>2018-04-21T10:48:54Z</time>
      </trkpt>
      <trkpt lat="46.00442" lon="4.70492">
        <ele>202</ele>
        <time>2018-04-21T10:48:55Z</time>
      </trkpt>
      <trkpt lat="46.00435" lon="4.70489">
        <ele>202</ele>
        <time>2018-04-21T10:48:56Z</time>
      </trkpt>
      <trkpt lat="46.00428" lon="4.70488">
        <ele>202</ele>
        <time>2018-04-21T10:48:57Z</time>
      </trkpt>
      <trkpt lat="46.00422" lon="4.70488">
        <ele>201</ele>
        <time>2018-04-21T10:48:58Z</time>
      </trkpt>
      <trkpt lat="46.00414" lon="4.70486">
        <ele>200</ele>
        <time>2018-04-21T10:48:59Z</time>
      </trkpt>
      <trkpt lat="46.00406" lon="4.70487">
        <ele>200</ele>
        <time>2018-04-21T10:49:00Z</time>
      </trkpt>
      <trkpt lat="46.004" lon="4.70487">
        <ele>200</ele>
        <time>2018-04-21T10:49:01Z</time>
      </trkpt>
      <trkpt lat="46.00392" lon="4.70488">
        <ele>200</ele>
        <time>2018-04-21T10:49:02Z</time>
      </trkpt>
      <trkpt lat="46.00385" lon="4.70489">
        <ele>200</ele>
        <time>2018-04-21T10:49:03Z</time>
      </trkpt>
      <trkpt lat="46.00378" lon="4.70489">
        <ele>200</ele>
        <time>2018-04-21T10:49:04Z</time>
      </trkpt>
      <trkpt lat="46.00371" lon="4.70491">
        <ele>200</ele>
        <time>2018-04-21T10:49:05Z</time>
      </trkpt>
      <trkpt lat="46.00364" lon="4.70492">
        <ele>200</ele>
        <time>2018-04-21T10:49:06Z</time>
      </trkpt>
      <trkpt lat="46.00358" lon="4.70493">
        <ele>200</ele>
        <time>2018-04-21T10:49:07Z</time>
      </trkpt>
      <trkpt lat="46.00351" lon="4.70494">
        <ele>199</ele>
        <time>2018-04-21T10:49:08Z</time>
      </trkpt>
      <trkpt lat="46.00345" lon="4.70495">
        <ele>199</ele>
        <time>2018-04-21T10:49:09Z</time>
      </trkpt>
      <trkpt lat="46.00338" lon="4.70496">
        <ele>199</ele>
        <time>2018-04-21T10:49:10Z</time>
      </trkpt>
      <trkpt lat="46.00331" lon="4.70499">
        <ele>198</ele>
        <time>2018-04-21T10:49:11Z</time>
      </trkpt>
      <trkpt lat="46.00324" lon="4.705">
        <ele>198</ele>
        <time>2018-04-21T10:49:12Z</time>
      </trkpt>
      <trkpt lat="46.00317" lon="4.70502">
        <ele>198</ele>
        <time>2018-04-21T10:49:13Z</time>
      </trkpt>
      <trkpt lat="46.0031" lon="4.70503">
        <ele>197</ele>
        <time>2018-04-21T10:49:14Z</time>
      </trkpt>
      <trkpt lat="46.00303" lon="4.70505">
        <ele>197</ele>
        <time>2018-04-21T10:49:15Z</time>
      </trkpt>
      <trkpt lat="46.00295" lon="4.70507">
        <ele>197</ele>
        <time>2018-04-21T10:49:16Z</time>
      </trkpt>
      <trkpt lat="46.00288" lon="4.70508">
        <ele>197</ele>
        <time>2018-04-21T10:49:17Z</time>
      </trkpt>
      <trkpt lat="46.00283" lon="4.7051">
        <ele>197</ele>
        <time>2018-04-21T10:49:18Z</time>
      </trkpt>
      <trkpt lat="46.00275" lon="4.70509">
        <ele>197</ele>
        <time>2018-04-21T10:49:19Z</time>
      </trkpt>
      <trkpt lat="46.00269" lon="4.7051">
        <ele>197</ele>
        <time>2018-04-21T10:49:20Z</time>
      </trkpt>
      <trkpt lat="46.00262" lon="4.70511">
        <ele>198</ele>
        <time>2018-04-21T10:49:21Z</time>
      </trkpt>
      <trkpt lat="46.00255" lon="4.70513">
        <ele>198</ele>
        <time>2018-04-21T10:49:22Z</time>
      </trkpt>
      <trkpt lat="46.00249" lon="4.70515">
        <ele>198</ele>
        <time>2018-04-21T10:49:23Z</time>
      </trkpt>
      <trkpt lat="46.00243" lon="4.70517">
        <ele>198</ele>
        <time>2018-04-21T10:49:24Z</time>
      </trkpt>
      <trkpt lat="46.00237" lon="4.70519">
        <ele>198</ele>
        <time>2018-04-21T10:49:25Z</time>
      </trkpt>
      <trkpt lat="46.0023" lon="4.70521">
        <ele>198</ele>
        <time>2018-04-21T10:49:26Z</time>
      </trkpt>
      <trkpt lat="46.00224" lon="4.70523">
        <ele>198</ele>
        <time>2018-04-21T10:49:27Z</time>
      </trkpt>
      <trkpt lat="46.00217" lon="4.70524">
        <ele>198</ele>
        <time>2018-04-21T10:49:28Z</time>
      </trkpt>
      <trkpt lat="46.0021" lon="4.70522">
        <ele>198</ele>
        <time>2018-04-21T10:49:29Z</time>
      </trkpt>
      <trkpt lat="46.00203" lon="4.70524">
        <ele>198</ele>
        <time>2018-04-21T10:49:30Z</time>
      </trkpt>
      <trkpt lat="46.00196" lon="4.70525">
        <ele>198</ele>
        <time>2018-04-21T10:49:31Z</time>
      </trkpt>
      <trkpt lat="46.00189" lon="4.70525">
        <ele>198</ele>
        <time>2018-04-21T10:49:32Z</time>
      </trkpt>
      <trkpt lat="46.00183" lon="4.70526">
        <ele>198</ele>
        <time>2018-04-21T10:49:33Z</time>
      </trkpt>
      <trkpt lat="46.00176" lon="4.70525">
        <ele>198</ele>
        <time>2018-04-21T10:49:34Z</time>
      </trkpt>
      <trkpt lat="46.00167" lon="4.70525">
        <ele>198</ele>
        <time>2018-04-21T10:49:35Z</time>
      </trkpt>
      <trkpt lat="46.00161" lon="4.70521">
        <ele>198</ele>
        <time>2018-04-21T10:49:36Z</time>
      </trkpt>
      <trkpt lat="46.00156" lon="4.70518">
        <ele>198</ele>
        <time>2018-04-21T10:49:37Z</time>
      </trkpt>
      <trkpt lat="46.0015" lon="4.70516">
        <ele>198</ele>
        <time>2018-04-21T10:49:38Z</time>
      </trkpt>
      <trkpt lat="46.00143" lon="4.70518">
        <ele>198</ele>
        <time>2018-04-21T10:49:39Z</time>
      </trkpt>
      <trkpt lat="46.00137" lon="4.70523">
        <ele>198</ele>
        <time>2018-04-21T10:49:40Z</time>
      </trkpt>
      <trkpt lat="46.00134" lon="4.70529">
        <ele>198</ele>
        <time>2018-04-21T10:49:41Z</time>
      </trkpt>
      <trkpt lat="46.00132" lon="4.70536">
        <ele>198</ele>
        <time>2018-04-21T10:49:42Z</time>
      </trkpt>
      <trkpt lat="46.0013" lon="4.70545">
        <ele>198</ele>
        <time>2018-04-21T10:49:43Z</time>
      </trkpt>
      <trkpt lat="46.00128" lon="4.70553">
        <ele>198</ele>
        <time>2018-04-21T10:49:44Z</time>
      </trkpt>
      <trkpt lat="46.00125" lon="4.7056">
        <ele>198</ele>
        <time>2018-04-21T10:49:45Z</time>
      </trkpt>
      <trkpt lat="46.00122" lon="4.70567">
        <ele>198</ele>
        <time>2018-04-21T10:49:46Z</time>
      </trkpt>
      <trkpt lat="46.00115" lon="4.70569">
        <ele>198</ele>
        <time>2018-04-21T10:49:47Z</time>
      </trkpt>
      <trkpt lat="46.0011" lon="4.70572">
        <ele>198</ele>
        <time>2018-04-21T10:49:48Z</time>
      </trkpt>
      <trkpt lat="46.00104" lon="4.70574">
        <ele>198</ele>
        <time>2018-04-21T10:49:49Z</time>
      </trkpt>
      <trkpt lat="46.00099" lon="4.70577">
        <ele>198</ele>
        <time>2018-04-21T10:49:50Z</time>
      </trkpt>
      <trkpt lat="46.00093" lon="4.7058">
        <ele>198</ele>
        <time>2018-04-21T10:49:51Z</time>
      </trkpt>
      <trkpt lat="46.00088" lon="4.70583">
        <ele>198</ele>
        <time>2018-04-21T10:49:52Z</time>
      </trkpt>
      <trkpt lat="46.00083" lon="4.70586">
        <ele>198</ele>
        <time>2018-04-21T10:49:53Z</time>
      </trkpt>
      <trkpt lat="46.00078" lon="4.70588">
        <ele>198</ele>
        <time>2018-04-21T10:49:54Z</time>
      </trkpt>
      <trkpt lat="46.00075" lon="4.7059">
        <ele>198</ele>
        <time>2018-04-21T10:49:55Z</time>
      </trkpt>
      <trkpt lat="46.00067" lon="4.70591">
        <ele>198</ele>
        <time>2018-04-21T10:50:00Z</time>
      </trkpt>
      <trkpt lat="46.00065" lon="4.70591">
        <ele>198</ele>
        <time>2018-04-21T10:50:01Z</time>
      </trkpt>
      <trkpt lat="46.00057" lon="4.70594">
        <ele>198</ele>
        <time>2018-04-21T10:51:15Z</time>
      </trkpt>
      <trkpt lat="46.00054" lon="4.70595">
        <ele>198</ele>
        <time>2018-04-21T10:51:16Z</time>
      </trkpt>
      <trkpt lat="46.00048" lon="4.70598">
        <ele>198</ele>
        <time>2018-04-21T10:51:18Z</time>
      </trkpt>
      <trkpt lat="46.00044" lon="4.706">
        <ele>198</ele>
        <time>2018-04-21T10:51:19Z</time>
      </trkpt>
      <trkpt lat="46.00037" lon="4.70603">
        <ele>199</ele>
        <time>2018-04-21T10:51:21Z</time>
      </trkpt>
      <trkpt lat="46.00034" lon="4.70604">
        <ele>199</ele>
        <time>2018-04-21T10:51:22Z</time>
      </trkpt>
      <trkpt lat="46.00027" lon="4.70604">
        <ele>199</ele>
        <time>2018-04-21T10:51:24Z</time>
      </trkpt>
      <trkpt lat="46.00016" lon="4.70604">
        <ele>199</ele>
        <time>2018-04-21T10:51:25Z</time>
      </trkpt>
      <trkpt lat="46.00012" lon="4.70605">
        <ele>199</ele>
        <time>2018-04-21T10:51:26Z</time>
      </trkpt>
      <trkpt lat="46.00007" lon="4.70604">
        <ele>199</ele>
        <time>2018-04-21T10:51:27Z</time>
      </trkpt>
      <trkpt lat="46.00002" lon="4.70606">
        <ele>199</ele>
        <time>2018-04-21T10:51:28Z</time>
      </trkpt>
      <trkpt lat="45.99997" lon="4.70608">
        <ele>199</ele>
        <time>2018-04-21T10:51:29Z</time>
      </trkpt>
      <trkpt lat="45.99992" lon="4.70609">
        <ele>199</ele>
        <time>2018-04-21T10:51:30Z</time>
      </trkpt>
      <trkpt lat="45.99986" lon="4.7061">
        <ele>199</ele>
        <time>2018-04-21T10:51:31Z</time>
      </trkpt>
      <trkpt lat="45.99981" lon="4.70611">
        <ele>199</ele>
        <time>2018-04-21T10:51:32Z</time>
      </trkpt>
      <trkpt lat="45.99977" lon="4.70613">
        <ele>199</ele>
        <time>2018-04-21T10:51:33Z</time>
      </trkpt>
      <trkpt lat="45.99971" lon="4.70613">
        <ele>199</ele>
        <time>2018-04-21T10:51:34Z</time>
      </trkpt>
      <trkpt lat="45.99967" lon="4.70614">
        <ele>199</ele>
        <time>2018-04-21T10:51:35Z</time>
      </trkpt>
      <trkpt lat="45.99962" lon="4.70615">
        <ele>199</ele>
        <time>2018-04-21T10:51:36Z</time>
      </trkpt>
      <trkpt lat="45.99958" lon="4.70616">
        <ele>199</ele>
        <time>2018-04-21T10:51:37Z</time>
      </trkpt>
      <trkpt lat="45.99949" lon="4.70617">
        <ele>199</ele>
        <time>2018-04-21T10:51:39Z</time>
      </trkpt>
      <trkpt lat="45.99944" lon="4.70619">
        <ele>199</ele>
        <time>2018-04-21T10:51:40Z</time>
      </trkpt>
      <trkpt lat="45.99936" lon="4.7062">
        <ele>199</ele>
        <time>2018-04-21T10:51:42Z</time>
      </trkpt>
      <trkpt lat="45.99931" lon="4.70621">
        <ele>199</ele>
        <time>2018-04-21T10:51:43Z</time>
      </trkpt>
      <trkpt lat="45.99927" lon="4.70621">
        <ele>199</ele>
        <time>2018-04-21T10:51:44Z</time>
      </trkpt>
      <trkpt lat="45.99922" lon="4.70621">
        <ele>199</ele>
        <time>2018-04-21T10:51:45Z</time>
      </trkpt>
      <trkpt lat="45.99914" lon="4.70623">
        <ele>200</ele>
        <time>2018-04-21T10:51:47Z</time>
      </trkpt>
      <trkpt lat="45.9991" lon="4.70625">
        <ele>200</ele>
        <time>2018-04-21T10:51:48Z</time>
      </trkpt>
      <trkpt lat="45.99903" lon="4.70627">
        <ele>200</ele>
        <time>2018-04-21T10:51:50Z</time>
      </trkpt>
      <trkpt lat="45.99898" lon="4.70628">
        <ele>200</ele>
        <time>2018-04-21T10:51:51Z</time>
      </trkpt>
      <trkpt lat="45.9989" lon="4.70629">
        <ele>200</ele>
        <time>2018-04-21T10:51:53Z</time>
      </trkpt>
      <trkpt lat="45.99885" lon="4.7063">
        <ele>201</ele>
        <time>2018-04-21T10:51:54Z</time>
      </trkpt>
      <trkpt lat="45.9988" lon="4.7063">
        <ele>201</ele>
        <time>2018-04-21T10:51:55Z</time>
      </trkpt>
      <trkpt lat="45.99875" lon="4.70632">
        <ele>201</ele>
        <time>2018-04-21T10:51:56Z</time>
      </trkpt>
      <trkpt lat="45.99869" lon="4.70632">
        <ele>201</ele>
        <time>2018-04-21T10:51:57Z</time>
      </trkpt>
      <trkpt lat="45.99864" lon="4.70633">
        <ele>201</ele>
        <time>2018-04-21T10:51:58Z</time>
      </trkpt>
      <trkpt lat="45.99855" lon="4.70634">
        <ele>201</ele>
        <time>2018-04-21T10:52:00Z</time>
      </trkpt>
      <trkpt lat="45.99851" lon="4.70634">
        <ele>201</ele>
        <time>2018-04-21T10:52:01Z</time>
      </trkpt>
      <trkpt lat="45.99846" lon="4.70635">
        <ele>201</ele>
        <time>2018-04-21T10:52:02Z</time>
      </trkpt>
      <trkpt lat="45.99842" lon="4.70637">
        <ele>201</ele>
        <time>2018-04-21T10:52:03Z</time>
      </trkpt>
      <trkpt lat="45.99836" lon="4.70638">
        <ele>201</ele>
        <time>2018-04-21T10:52:04Z</time>
      </trkpt>
      <trkpt lat="45.99832" lon="4.70641">
        <ele>202</ele>
        <time>2018-04-21T10:52:05Z</time>
      </trkpt>
      <trkpt lat="45.99829" lon="4.70643">
        <ele>202</ele>
        <time>2018-04-21T10:52:06Z</time>
      </trkpt>
      <trkpt lat="45.99823" lon="4.70646">
        <ele>202</ele>
        <time>2018-04-21T10:52:07Z</time>
      </trkpt>
      <trkpt lat="45.99816" lon="4.70646">
        <ele>202</ele>
        <time>2018-04-21T10:52:09Z</time>
      </trkpt>
      <trkpt lat="45.99811" lon="4.70646">
        <ele>202</ele>
        <time>2018-04-21T10:52:10Z</time>
      </trkpt>
      <trkpt lat="45.99805" lon="4.70647">
        <ele>202</ele>
        <time>2018-04-21T10:52:11Z</time>
      </trkpt>
      <trkpt lat="45.998" lon="4.70649">
        <ele>202</ele>
        <time>2018-04-21T10:52:12Z</time>
      </trkpt>
      <trkpt lat="45.99795" lon="4.70651">
        <ele>202</ele>
        <time>2018-04-21T10:52:13Z</time>
      </trkpt>
      <trkpt lat="45.9979" lon="4.70652">
        <ele>202</ele>
        <time>2018-04-21T10:52:14Z</time>
      </trkpt>
      <trkpt lat="45.99785" lon="4.70653">
        <ele>202</ele>
        <time>2018-04-21T10:52:15Z</time>
      </trkpt>
      <trkpt lat="45.9978" lon="4.70654">
        <ele>202</ele>
        <time>2018-04-21T10:52:16Z</time>
      </trkpt>
      <trkpt lat="45.99774" lon="4.70656">
        <ele>202</ele>
        <time>2018-04-21T10:52:17Z</time>
      </trkpt>
      <trkpt lat="45.99768" lon="4.70657">
        <ele>202</ele>
        <time>2018-04-21T10:52:18Z</time>
      </trkpt>
      <trkpt lat="45.99762" lon="4.70659">
        <ele>202</ele>
        <time>2018-04-21T10:52:19Z</time>
      </trkpt>
      <trkpt lat="45.99757" lon="4.7066">
        <ele>202</ele>
        <time>2018-04-21T10:52:20Z</time>
      </trkpt>
      <trkpt lat="45.9975" lon="4.70662">
        <ele>202</ele>
        <time>2018-04-21T10:52:21Z</time>
      </trkpt>
      <trkpt lat="45.99745" lon="4.70664">
        <ele>202</ele>
        <time>2018-04-21T10:52:22Z</time>
      </trkpt>
      <trkpt lat="45.99738" lon="4.70666">
        <ele>202</ele>
        <time>2018-04-21T10:52:23Z</time>
      </trkpt>
      <trkpt lat="45.99731" lon="4.70667">
        <ele>202</ele>
        <time>2018-04-21T10:52:24Z</time>
      </trkpt>
      <trkpt lat="45.99725" lon="4.70668">
        <ele>202</ele>
        <time>2018-04-21T10:52:25Z</time>
      </trkpt>
      <trkpt lat="45.99719" lon="4.7067">
        <ele>201</ele>
        <time>2018-04-21T10:52:26Z</time>
      </trkpt>
      <trkpt lat="45.99713" lon="4.7067">
        <ele>201</ele>
        <time>2018-04-21T10:52:27Z</time>
      </trkpt>
      <trkpt lat="45.99707" lon="4.70672">
        <ele>201</ele>
        <time>2018-04-21T10:52:28Z</time>
      </trkpt>
      <trkpt lat="45.99701" lon="4.70674">
        <ele>201</ele>
        <time>2018-04-21T10:52:29Z</time>
      </trkpt>
      <trkpt lat="45.99695" lon="4.70675">
        <ele>201</ele>
        <time>2018-04-21T10:52:30Z</time>
      </trkpt>
      <trkpt lat="45.99688" lon="4.70677">
        <ele>201</ele>
        <time>2018-04-21T10:52:31Z</time>
      </trkpt>
      <trkpt lat="45.99683" lon="4.70679">
        <ele>201</ele>
        <time>2018-04-21T10:52:32Z</time>
      </trkpt>
      <trkpt lat="45.99677" lon="4.70679">
        <ele>201</ele>
        <time>2018-04-21T10:52:33Z</time>
      </trkpt>
      <trkpt lat="45.99671" lon="4.7068">
        <ele>201</ele>
        <time>2018-04-21T10:52:34Z</time>
      </trkpt>
      <trkpt lat="45.99665" lon="4.70681">
        <ele>201</ele>
        <time>2018-04-21T10:52:35Z</time>
      </trkpt>
      <trkpt lat="45.9966" lon="4.70683">
        <ele>201</ele>
        <time>2018-04-21T10:52:36Z</time>
      </trkpt>
      <trkpt lat="45.99654" lon="4.70684">
        <ele>201</ele>
        <time>2018-04-21T10:52:37Z</time>
      </trkpt>
      <trkpt lat="45.99648" lon="4.70685">
        <ele>201</ele>
        <time>2018-04-21T10:52:38Z</time>
      </trkpt>
      <trkpt lat="45.99641" lon="4.70686">
        <ele>200</ele>
        <time>2018-04-21T10:52:39Z</time>
      </trkpt>
      <trkpt lat="45.99635" lon="4.70688">
        <ele>200</ele>
        <time>2018-04-21T10:52:40Z</time>
      </trkpt>
      <trkpt lat="45.99629" lon="4.70691">
        <ele>200</ele>
        <time>2018-04-21T10:52:41Z</time>
      </trkpt>
      <trkpt lat="45.99625" lon="4.70693">
        <ele>200</ele>
        <time>2018-04-21T10:52:42Z</time>
      </trkpt>
      <trkpt lat="45.99619" lon="4.70694">
        <ele>200</ele>
        <time>2018-04-21T10:52:43Z</time>
      </trkpt>
      <trkpt lat="45.99612" lon="4.70696">
        <ele>200</ele>
        <time>2018-04-21T10:52:44Z</time>
      </trkpt>
      <trkpt lat="45.99606" lon="4.70698">
        <ele>200</ele>
        <time>2018-04-21T10:52:45Z</time>
      </trkpt>
      <trkpt lat="45.996" lon="4.707">
        <ele>200</ele>
        <time>2018-04-21T10:52:46Z</time>
      </trkpt>
      <trkpt lat="45.99594" lon="4.70701">
        <ele>200</ele>
        <time>2018-04-21T10:52:47Z</time>
      </trkpt>
      <trkpt lat="45.99587" lon="4.70701">
        <ele>200</ele>
        <time>2018-04-21T10:52:48Z</time>
      </trkpt>
      <trkpt lat="45.99581" lon="4.70704">
        <ele>200</ele>
        <time>2018-04-21T10:52:49Z</time>
      </trkpt>
      <trkpt lat="45.99575" lon="4.70705">
        <ele>200</ele>
        <time>2018-04-21T10:52:50Z</time>
      </trkpt>
      <trkpt lat="45.99569" lon="4.70705">
        <ele>200</ele>
        <time>2018-04-21T10:52:51Z</time>
      </trkpt>
      <trkpt lat="45.99563" lon="4.70707">
        <ele>200</ele>
        <time>2018-04-21T10:52:52Z</time>
      </trkpt>
      <trkpt lat="45.99557" lon="4.70708">
        <ele>200</ele>
        <time>2018-04-21T10:52:53Z</time>
      </trkpt>
      <trkpt lat="45.99551" lon="4.70709">
        <ele>200</ele>
        <time>2018-04-21T10:52:54Z</time>
      </trkpt>
      <trkpt lat="45.99545" lon="4.7071">
        <ele>199</ele>
        <time>2018-04-21T10:52:55Z</time>
      </trkpt>
      <trkpt lat="45.99539" lon="4.70711">
        <ele>199</ele>
        <time>2018-04-21T10:52:56Z</time>
      </trkpt>
      <trkpt lat="45.99534" lon="4.70712">
        <ele>199</ele>
        <time>2018-04-21T10:52:57Z</time>
      </trkpt>
      <trkpt lat="45.99527" lon="4.70714">
        <ele>199</ele>
        <time>2018-04-21T10:52:58Z</time>
      </trkpt>
      <trkpt lat="45.99522" lon="4.70714">
        <ele>199</ele>
        <time>2018-04-21T10:52:59Z</time>
      </trkpt>
      <trkpt lat="45.99516" lon="4.70718">
        <ele>199</ele>
        <time>2018-04-21T10:53:00Z</time>
      </trkpt>
      <trkpt lat="45.99511" lon="4.70719">
        <ele>199</ele>
        <time>2018-04-21T10:53:01Z</time>
      </trkpt>
      <trkpt lat="45.99505" lon="4.70721">
        <ele>199</ele>
        <time>2018-04-21T10:53:02Z</time>
      </trkpt>
      <trkpt lat="45.99499" lon="4.70722">
        <ele>199</ele>
        <time>2018-04-21T10:53:03Z</time>
      </trkpt>
      <trkpt lat="45.99494" lon="4.70724">
        <ele>199</ele>
        <time>2018-04-21T10:53:04Z</time>
      </trkpt>
      <trkpt lat="45.99488" lon="4.70726">
        <ele>199</ele>
        <time>2018-04-21T10:53:05Z</time>
      </trkpt>
      <trkpt lat="45.99482" lon="4.70726">
        <ele>199</ele>
        <time>2018-04-21T10:53:06Z</time>
      </trkpt>
      <trkpt lat="45.99476" lon="4.70725">
        <ele>199</ele>
        <time>2018-04-21T10:53:07Z</time>
      </trkpt>
      <trkpt lat="45.9947" lon="4.70725">
        <ele>200</ele>
        <time>2018-04-21T10:53:08Z</time>
      </trkpt>
      <trkpt lat="45.99464" lon="4.70726">
        <ele>200</ele>
        <time>2018-04-21T10:53:09Z</time>
      </trkpt>
      <trkpt lat="45.99458" lon="4.70727">
        <ele>200</ele>
        <time>2018-04-21T10:53:10Z</time>
      </trkpt>
      <trkpt lat="45.99452" lon="4.70727">
        <ele>200</ele>
        <time>2018-04-21T10:53:11Z</time>
      </trkpt>
      <trkpt lat="45.99445" lon="4.70728">
        <ele>200</ele>
        <time>2018-04-21T10:53:12Z</time>
      </trkpt>
      <trkpt lat="45.99438" lon="4.70727">
        <ele>200</ele>
        <time>2018-04-21T10:53:13Z</time>
      </trkpt>
      <trkpt lat="45.99432" lon="4.70726">
        <ele>200</ele>
        <time>2018-04-21T10:53:14Z</time>
      </trkpt>
      <trkpt lat="45.99426" lon="4.70725">
        <ele>200</ele>
        <time>2018-04-21T10:53:15Z</time>
      </trkpt>
      <trkpt lat="45.9942" lon="4.70725">
        <ele>200</ele>
        <time>2018-04-21T10:53:16Z</time>
      </trkpt>
      <trkpt lat="45.99414" lon="4.70724">
        <ele>199</ele>
        <time>2018-04-21T10:53:17Z</time>
      </trkpt>
      <trkpt lat="45.99408" lon="4.70724">
        <ele>199</ele>
        <time>2018-04-21T10:53:18Z</time>
      </trkpt>
      <trkpt lat="45.99402" lon="4.70724">
        <ele>199</ele>
        <time>2018-04-21T10:53:19Z</time>
      </trkpt>
      <trkpt lat="45.99395" lon="4.70723">
        <ele>199</ele>
        <time>2018-04-21T10:53:20Z</time>
      </trkpt>
      <trkpt lat="45.99388" lon="4.70723">
        <ele>199</ele>
        <time>2018-04-21T10:53:21Z</time>
      </trkpt>
      <trkpt lat="45.99383" lon="4.70722">
        <ele>198</ele>
        <time>2018-04-21T10:53:22Z</time>
      </trkpt>
      <trkpt lat="45.99376" lon="4.70721">
        <ele>198</ele>
        <time>2018-04-21T10:53:23Z</time>
      </trkpt>
      <trkpt lat="45.9937" lon="4.7072">
        <ele>198</ele>
        <time>2018-04-21T10:53:24Z</time>
      </trkpt>
      <trkpt lat="45.99365" lon="4.70719">
        <ele>198</ele>
        <time>2018-04-21T10:53:25Z</time>
      </trkpt>
      <trkpt lat="45.99359" lon="4.7072">
        <ele>198</ele>
        <time>2018-04-21T10:53:26Z</time>
      </trkpt>
      <trkpt lat="45.99353" lon="4.70721">
        <ele>198</ele>
        <time>2018-04-21T10:53:27Z</time>
      </trkpt>
      <trkpt lat="45.99347" lon="4.70721">
        <ele>197</ele>
        <time>2018-04-21T10:53:28Z</time>
      </trkpt>
      <trkpt lat="45.99341" lon="4.7072">
        <ele>197</ele>
        <time>2018-04-21T10:53:29Z</time>
      </trkpt>
      <trkpt lat="45.99336" lon="4.70718">
        <ele>197</ele>
        <time>2018-04-21T10:53:30Z</time>
      </trkpt>
      <trkpt lat="45.99329" lon="4.70719">
        <ele>196</ele>
        <time>2018-04-21T10:53:31Z</time>
      </trkpt>
      <trkpt lat="45.99322" lon="4.70718">
        <ele>196</ele>
        <time>2018-04-21T10:53:32Z</time>
      </trkpt>
      <trkpt lat="45.99316" lon="4.70718">
        <ele>196</ele>
        <time>2018-04-21T10:53:33Z</time>
      </trkpt>
      <trkpt lat="45.99309" lon="4.70719">
        <ele>196</ele>
        <time>2018-04-21T10:53:34Z</time>
      </trkpt>
      <trkpt lat="45.99304" lon="4.70719">
        <ele>196</ele>
        <time>2018-04-21T10:53:35Z</time>
      </trkpt>
      <trkpt lat="45.99298" lon="4.70718">
        <ele>196</ele>
        <time>2018-04-21T10:53:36Z</time>
      </trkpt>
      <trkpt lat="45.99292" lon="4.70716">
        <ele>196</ele>
        <time>2018-04-21T10:53:37Z</time>
      </trkpt>
      <trkpt lat="45.99287" lon="4.70715">
        <ele>196</ele>
        <time>2018-04-21T10:53:38Z</time>
      </trkpt>
      <trkpt lat="45.99282" lon="4.70714">
        <ele>196</ele>
        <time>2018-04-21T10:53:39Z</time>
      </trkpt>
      <trkpt lat="45.99277" lon="4.70715">
        <ele>196</ele>
        <time>2018-04-21T10:53:40Z</time>
      </trkpt>
      <trkpt lat="45.99272" lon="4.70714">
        <ele>196</ele>
        <time>2018-04-21T10:53:41Z</time>
      </trkpt>
      <trkpt lat="45.99266" lon="4.70715">
        <ele>196</ele>
        <time>2018-04-21T10:53:42Z</time>
      </trkpt>
      <trkpt lat="45.99261" lon="4.70716">
        <ele>196</ele>
        <time>2018-04-21T10:53:43Z</time>
      </trkpt>
      <trkpt lat="45.99255" lon="4.70713">
        <ele>196</ele>
        <time>2018-04-21T10:53:44Z</time>
      </trkpt>
      <trkpt lat="45.99249" lon="4.70713">
        <ele>196</ele>
        <time>2018-04-21T10:53:45Z</time>
      </trkpt>
      <trkpt lat="45.99242" lon="4.70712">
        <ele>196</ele>
        <time>2018-04-21T10:53:46Z</time>
      </trkpt>
      <trkpt lat="45.99236" lon="4.70713">
        <ele>196</ele>
        <time>2018-04-21T10:53:47Z</time>
      </trkpt>
      <trkpt lat="45.9923" lon="4.70713">
        <ele>196</ele>
        <time>2018-04-21T10:53:48Z</time>
      </trkpt>
      <trkpt lat="45.99223" lon="4.70712">
        <ele>196</ele>
        <time>2018-04-21T10:53:49Z</time>
      </trkpt>
      <trkpt lat="45.99217" lon="4.70713">
        <ele>196</ele>
        <time>2018-04-21T10:53:50Z</time>
      </trkpt>
      <trkpt lat="45.99211" lon="4.70713">
        <ele>196</ele>
        <time>2018-04-21T10:53:51Z</time>
      </trkpt>
      <trkpt lat="45.99204" lon="4.70713">
        <ele>196</ele>
        <time>2018-04-21T10:53:52Z</time>
      </trkpt>
      <trkpt lat="45.99199" lon="4.70714">
        <ele>196</ele>
        <time>2018-04-21T10:53:53Z</time>
      </trkpt>
      <trkpt lat="45.99194" lon="4.70714">
        <ele>196</ele>
        <time>2018-04-21T10:53:54Z</time>
      </trkpt>
      <trkpt lat="45.99187" lon="4.70714">
        <ele>196</ele>
        <time>2018-04-21T10:53:55Z</time>
      </trkpt>
      <trkpt lat="45.99181" lon="4.70714">
        <ele>196</ele>
        <time>2018-04-21T10:53:56Z</time>
      </trkpt>
      <trkpt lat="45.99176" lon="4.70714">
        <ele>196</ele>
        <time>2018-04-21T10:53:57Z</time>
      </trkpt>
      <trkpt lat="45.9917" lon="4.70713">
        <ele>196</ele>
        <time>2018-04-21T10:53:58Z</time>
      </trkpt>
      <trkpt lat="45.99164" lon="4.70713">
        <ele>195</ele>
        <time>2018-04-21T10:53:59Z</time>
      </trkpt>
      <trkpt lat="45.99158" lon="4.70715">
        <ele>195</ele>
        <time>2018-04-21T10:54:00Z</time>
      </trkpt>
      <trkpt lat="45.99152" lon="4.70715">
        <ele>195</ele>
        <time>2018-04-21T10:54:01Z</time>
      </trkpt>
      <trkpt lat="45.99147" lon="4.70715">
        <ele>195</ele>
        <time>2018-04-21T10:54:02Z</time>
      </trkpt>
      <trkpt lat="45.99141" lon="4.70713">
        <ele>195</ele>
        <time>2018-04-21T10:54:03Z</time>
      </trkpt>
      <trkpt lat="45.99136" lon="4.70712">
        <ele>195</ele>
        <time>2018-04-21T10:54:04Z</time>
      </trkpt>
      <trkpt lat="45.9913" lon="4.70712">
        <ele>195</ele>
        <time>2018-04-21T10:54:05Z</time>
      </trkpt>
      <trkpt lat="45.99124" lon="4.70711">
        <ele>195</ele>
        <time>2018-04-21T10:54:06Z</time>
      </trkpt>
      <trkpt lat="45.99119" lon="4.70711">
        <ele>195</ele>
        <time>2018-04-21T10:54:07Z</time>
      </trkpt>
      <trkpt lat="45.99112" lon="4.7071">
        <ele>195</ele>
        <time>2018-04-21T10:54:08Z</time>
      </trkpt>
      <trkpt lat="45.99105" lon="4.7071">
        <ele>195</ele>
        <time>2018-04-21T10:54:09Z</time>
      </trkpt>
      <trkpt lat="45.99099" lon="4.70709">
        <ele>195</ele>
        <time>2018-04-21T10:54:10Z</time>
      </trkpt>
      <trkpt lat="45.99092" lon="4.70708">
        <ele>195</ele>
        <time>2018-04-21T10:54:11Z</time>
      </trkpt>
      <trkpt lat="45.99086" lon="4.70708">
        <ele>194</ele>
        <time>2018-04-21T10:54:12Z</time>
      </trkpt>
      <trkpt lat="45.99081" lon="4.70707">
        <ele>193</ele>
        <time>2018-04-21T10:54:13Z</time>
      </trkpt>
      <trkpt lat="45.99076" lon="4.70707">
        <ele>193</ele>
        <time>2018-04-21T10:54:14Z</time>
      </trkpt>
      <trkpt lat="45.99072" lon="4.70707">
        <ele>193</ele>
        <time>2018-04-21T10:54:15Z</time>
      </trkpt>
      <trkpt lat="45.99067" lon="4.70706">
        <ele>193</ele>
        <time>2018-04-21T10:54:16Z</time>
      </trkpt>
      <trkpt lat="45.99059" lon="4.70703">
        <ele>193</ele>
        <time>2018-04-21T10:54:18Z</time>
      </trkpt>
      <trkpt lat="45.99056" lon="4.70702">
        <ele>193</ele>
        <time>2018-04-21T10:54:19Z</time>
      </trkpt>
      <trkpt lat="45.99047" lon="4.70702">
        <ele>193</ele>
        <time>2018-04-21T10:54:25Z</time>
      </trkpt>
      <trkpt lat="45.99047" lon="4.70702">
        <ele>193</ele>
        <time>2018-04-21T10:54:26Z</time>
      </trkpt>
      <trkpt lat="45.9904" lon="4.70703">
        <ele>193</ele>
        <time>2018-04-21T10:54:57Z</time>
      </trkpt>
      <trkpt lat="45.99037" lon="4.70703">
        <ele>192</ele>
        <time>2018-04-21T10:54:58Z</time>
      </trkpt>
      <trkpt lat="45.99027" lon="4.70702">
        <ele>192</ele>
        <time>2018-04-21T10:54:59Z</time>
      </trkpt>
      <trkpt lat="45.99022" lon="4.70703">
        <ele>192</ele>
        <time>2018-04-21T10:55:00Z</time>
      </trkpt>
      <trkpt lat="45.99017" lon="4.70704">
        <ele>192</ele>
        <time>2018-04-21T10:55:01Z</time>
      </trkpt>
      <trkpt lat="45.99012" lon="4.70704">
        <ele>192</ele>
        <time>2018-04-21T10:55:02Z</time>
      </trkpt>
      <trkpt lat="45.99006" lon="4.70707">
        <ele>192</ele>
        <time>2018-04-21T10:55:03Z</time>
      </trkpt>
      <trkpt lat="45.99001" lon="4.70707">
        <ele>192</ele>
        <time>2018-04-21T10:55:04Z</time>
      </trkpt>
      <trkpt lat="45.98995" lon="4.70709">
        <ele>191</ele>
        <time>2018-04-21T10:55:05Z</time>
      </trkpt>
      <trkpt lat="45.98989" lon="4.70712">
        <ele>191</ele>
        <time>2018-04-21T10:55:06Z</time>
      </trkpt>
      <trkpt lat="45.98985" lon="4.70715">
        <ele>191</ele>
        <time>2018-04-21T10:55:07Z</time>
      </trkpt>
      <trkpt lat="45.98979" lon="4.7072">
        <ele>191</ele>
        <time>2018-04-21T10:55:08Z</time>
      </trkpt>
      <trkpt lat="45.98974" lon="4.70726">
        <ele>191</ele>
        <time>2018-04-21T10:55:09Z</time>
      </trkpt>
      <trkpt lat="45.98969" lon="4.70733">
        <ele>191</ele>
        <time>2018-04-21T10:55:10Z</time>
      </trkpt>
      <trkpt lat="45.98965" lon="4.70742">
        <ele>190</ele>
        <time>2018-04-21T10:55:11Z</time>
      </trkpt>
      <trkpt lat="45.98961" lon="4.70751">
        <ele>189</ele>
        <time>2018-04-21T10:55:12Z</time>
      </trkpt>
      <trkpt lat="45.98956" lon="4.70759">
        <ele>189</ele>
        <time>2018-04-21T10:55:13Z</time>
      </trkpt>
      <trkpt lat="45.9895" lon="4.70768">
        <ele>189</ele>
        <time>2018-04-21T10:55:14Z</time>
      </trkpt>
      <trkpt lat="45.98945" lon="4.70777">
        <ele>189</ele>
        <time>2018-04-21T10:55:15Z</time>
      </trkpt>
      <trkpt lat="45.98941" lon="4.70785">
        <ele>189</ele>
        <time>2018-04-21T10:55:16Z</time>
      </trkpt>
      <trkpt lat="45.98936" lon="4.70792">
        <ele>189</ele>
        <time>2018-04-21T10:55:17Z</time>
      </trkpt>
      <trkpt lat="45.9893" lon="4.70801">
        <ele>188</ele>
        <time>2018-04-21T10:55:18Z</time>
      </trkpt>
      <trkpt lat="45.98925" lon="4.70809">
        <ele>188</ele>
        <time>2018-04-21T10:55:19Z</time>
      </trkpt>
      <trkpt lat="45.9892" lon="4.70818">
        <ele>188</ele>
        <time>2018-04-21T10:55:20Z</time>
      </trkpt>
      <trkpt lat="45.98916" lon="4.70827">
        <ele>187</ele>
        <time>2018-04-21T10:55:21Z</time>
      </trkpt>
      <trkpt lat="45.9891" lon="4.70836">
        <ele>187</ele>
        <time>2018-04-21T10:55:22Z</time>
      </trkpt>
      <trkpt lat="45.98906" lon="4.70847">
        <ele>186</ele>
        <time>2018-04-21T10:55:23Z</time>
      </trkpt>
      <trkpt lat="45.98902" lon="4.70855">
        <ele>186</ele>
        <time>2018-04-21T10:55:24Z</time>
      </trkpt>
      <trkpt lat="45.98897" lon="4.70864">
        <ele>186</ele>
        <time>2018-04-21T10:55:25Z</time>
      </trkpt>
      <trkpt lat="45.98892" lon="4.70871">
        <ele>186</ele>
        <time>2018-04-21T10:55:26Z</time>
      </trkpt>
      <trkpt lat="45.98887" lon="4.70881">
        <ele>186</ele>
        <time>2018-04-21T10:55:27Z</time>
      </trkpt>
      <trkpt lat="45.98882" lon="4.70888">
        <ele>186</ele>
        <time>2018-04-21T10:55:28Z</time>
      </trkpt>
      <trkpt lat="45.98879" lon="4.70897">
        <ele>186</ele>
        <time>2018-04-21T10:55:29Z</time>
      </trkpt>
      <trkpt lat="45.98875" lon="4.70907">
        <ele>186</ele>
        <time>2018-04-21T10:55:30Z</time>
      </trkpt>
      <trkpt lat="45.9887" lon="4.70916">
        <ele>186</ele>
        <time>2018-04-21T10:55:31Z</time>
      </trkpt>
      <trkpt lat="45.98864" lon="4.70922">
        <ele>185</ele>
        <time>2018-04-21T10:55:32Z</time>
      </trkpt>
      <trkpt lat="45.98861" lon="4.7093">
        <ele>185</ele>
        <time>2018-04-21T10:55:33Z</time>
      </trkpt>
      <trkpt lat="45.98857" lon="4.70936">
        <ele>185</ele>
        <time>2018-04-21T10:55:34Z</time>
      </trkpt>
      <trkpt lat="45.98855" lon="4.70944">
        <ele>185</ele>
        <time>2018-04-21T10:55:35Z</time>
      </trkpt>
      <trkpt lat="45.98853" lon="4.70951">
        <ele>185</ele>
        <time>2018-04-21T10:55:36Z</time>
      </trkpt>
      <trkpt lat="45.9885" lon="4.70962">
        <ele>185</ele>
        <time>2018-04-21T10:55:37Z</time>
      </trkpt>
      <trkpt lat="45.98847" lon="4.70971">
        <ele>185</ele>
        <time>2018-04-21T10:55:38Z</time>
      </trkpt>
      <trkpt lat="45.98844" lon="4.7098">
        <ele>185</ele>
        <time>2018-04-21T10:55:39Z</time>
      </trkpt>
      <trkpt lat="45.98839" lon="4.70989">
        <ele>185</ele>
        <time>2018-04-21T10:55:40Z</time>
      </trkpt>
      <trkpt lat="45.98838" lon="4.70997">
        <ele>185</ele>
        <time>2018-04-21T10:55:41Z</time>
      </trkpt>
      <trkpt lat="45.98836" lon="4.71005">
        <ele>185</ele>
        <time>2018-04-21T10:55:42Z</time>
      </trkpt>
      <trkpt lat="45.98833" lon="4.71014">
        <ele>186</ele>
        <time>2018-04-21T10:55:43Z</time>
      </trkpt>
      <trkpt lat="45.98831" lon="4.71023">
        <ele>186</ele>
        <time>2018-04-21T10:55:44Z</time>
      </trkpt>
      <trkpt lat="45.98828" lon="4.71032">
        <ele>186</ele>
        <time>2018-04-21T10:55:45Z</time>
      </trkpt>
      <trkpt lat="45.98826" lon="4.7104">
        <ele>187</ele>
        <time>2018-04-21T10:55:46Z</time>
      </trkpt>
      <trkpt lat="45.98824" lon="4.71049">
        <ele>187</ele>
        <time>2018-04-21T10:55:47Z</time>
      </trkpt>
      <trkpt lat="45.98821" lon="4.71056">
        <ele>187</ele>
        <time>2018-04-21T10:55:48Z</time>
      </trkpt>
      <trkpt lat="45.98818" lon="4.71063">
        <ele>187</ele>
        <time>2018-04-21T10:55:49Z</time>
      </trkpt>
      <trkpt lat="45.98815" lon="4.7107">
        <ele>187</ele>
        <time>2018-04-21T10:55:50Z</time>
      </trkpt>
      <trkpt lat="45.98813" lon="4.7108">
        <ele>187</ele>
        <time>2018-04-21T10:55:51Z</time>
      </trkpt>
      <trkpt lat="45.98811" lon="4.71088">
        <ele>188</ele>
        <time>2018-04-21T10:55:52Z</time>
      </trkpt>
      <trkpt lat="45.98809" lon="4.71098">
        <ele>188</ele>
        <time>2018-04-21T10:55:53Z</time>
      </trkpt>
      <trkpt lat="45.98806" lon="4.71105">
        <ele>187</ele>
        <time>2018-04-21T10:55:54Z</time>
      </trkpt>
      <trkpt lat="45.98803" lon="4.71113">
        <ele>187</ele>
        <time>2018-04-21T10:55:55Z</time>
      </trkpt>
      <trkpt lat="45.98802" lon="4.71121">
        <ele>187</ele>
        <time>2018-04-21T10:55:56Z</time>
      </trkpt>
      <trkpt lat="45.98799" lon="4.71129">
        <ele>187</ele>
        <time>2018-04-21T10:55:57Z</time>
      </trkpt>
      <trkpt lat="45.98797" lon="4.71138">
        <ele>187</ele>
        <time>2018-04-21T10:55:58Z</time>
      </trkpt>
      <trkpt lat="45.98796" lon="4.71146">
        <ele>187</ele>
        <time>2018-04-21T10:55:59Z</time>
      </trkpt>
      <trkpt lat="45.98793" lon="4.71153">
        <ele>187</ele>
        <time>2018-04-21T10:56:00Z</time>
      </trkpt>
      <trkpt lat="45.98791" lon="4.7116">
        <ele>187</ele>
        <time>2018-04-21T10:56:01Z</time>
      </trkpt>
      <trkpt lat="45.9879" lon="4.71163">
        <ele>187</ele>
        <time>2018-04-21T10:56:02Z</time>
      </trkpt>
      <trkpt lat="45.98789" lon="4.71175">
        <ele>186</ele>
        <time>2018-04-21T10:56:03Z</time>
      </trkpt>
      <trkpt lat="45.9879" lon="4.71181">
        <ele>186</ele>
        <time>2018-04-21T10:56:04Z</time>
      </trkpt>
      <trkpt lat="45.98784" lon="4.7119">
        <ele>186</ele>
        <time>2018-04-21T10:56:05Z</time>
      </trkpt>
      <trkpt lat="45.98781" lon="4.71196">
        <ele>186</ele>
        <time>2018-04-21T10:56:06Z</time>
      </trkpt>
      <trkpt lat="45.98779" lon="4.71205">
        <ele>186</ele>
        <time>2018-04-21T10:56:07Z</time>
      </trkpt>
      <trkpt lat="45.98776" lon="4.71212">
        <ele>186</ele>
        <time>2018-04-21T10:56:08Z</time>
      </trkpt>
      <trkpt lat="45.98774" lon="4.7122">
        <ele>186</ele>
        <time>2018-04-21T10:56:09Z</time>
      </trkpt>
      <trkpt lat="45.98771" lon="4.71227">
        <ele>186</ele>
        <time>2018-04-21T10:56:10Z</time>
      </trkpt>
      <trkpt lat="45.98769" lon="4.71235">
        <ele>186</ele>
        <time>2018-04-21T10:56:11Z</time>
      </trkpt>
      <trkpt lat="45.98766" lon="4.71241">
        <ele>186</ele>
        <time>2018-04-21T10:56:12Z</time>
      </trkpt>
      <trkpt lat="45.98764" lon="4.71249">
        <ele>186</ele>
        <time>2018-04-21T10:56:13Z</time>
      </trkpt>
      <trkpt lat="45.98761" lon="4.71257">
        <ele>186</ele>
        <time>2018-04-21T10:56:14Z</time>
      </trkpt>
      <trkpt lat="45.98758" lon="4.71266">
        <ele>186</ele>
        <time>2018-04-21T10:56:15Z</time>
      </trkpt>
      <trkpt lat="45.98754" lon="4.71277">
        <ele>186</ele>
        <time>2018-04-21T10:56:16Z</time>
      </trkpt>
      <trkpt lat="45.98752" lon="4.71285">
        <ele>185</ele>
        <time>2018-04-21T10:56:17Z</time>
      </trkpt>
      <trkpt lat="45.98749" lon="4.71292">
        <ele>188</ele>
        <time>2018-04-21T10:56:18Z</time>
      </trkpt>
      <trkpt lat="45.98748" lon="4.71298">
        <ele>188</ele>
        <time>2018-04-21T10:56:19Z</time>
      </trkpt>
      <trkpt lat="45.98743" lon="4.71309">
        <ele>188</ele>
        <time>2018-04-21T10:56:21Z</time>
      </trkpt>
      <trkpt lat="45.9874" lon="4.71314">
        <ele>188</ele>
        <time>2018-04-21T10:56:22Z</time>
      </trkpt>
      <trkpt lat="45.98738" lon="4.71319">
        <ele>188</ele>
        <time>2018-04-21T10:56:23Z</time>
      </trkpt>
      <trkpt lat="45.98738" lon="4.71327">
        <ele>187</ele>
        <time>2018-04-21T10:56:24Z</time>
      </trkpt>
      <trkpt lat="45.98736" lon="4.71335">
        <ele>187</ele>
        <time>2018-04-21T10:56:25Z</time>
      </trkpt>
      <trkpt lat="45.98731" lon="4.71344">
        <ele>187</ele>
        <time>2018-04-21T10:56:26Z</time>
      </trkpt>
      <trkpt lat="45.98729" lon="4.71352">
        <ele>187</ele>
        <time>2018-04-21T10:56:27Z</time>
      </trkpt>
      <trkpt lat="45.98727" lon="4.71359">
        <ele>187</ele>
        <time>2018-04-21T10:56:28Z</time>
      </trkpt>
      <trkpt lat="45.98725" lon="4.71368">
        <ele>187</ele>
        <time>2018-04-21T10:56:29Z</time>
      </trkpt>
      <trkpt lat="45.98724" lon="4.71376">
        <ele>187</ele>
        <time>2018-04-21T10:56:30Z</time>
      </trkpt>
      <trkpt lat="45.98723" lon="4.71384">
        <ele>187</ele>
        <time>2018-04-21T10:56:31Z</time>
      </trkpt>
      <trkpt lat="45.98722" lon="4.71393">
        <ele>187</ele>
        <time>2018-04-21T10:56:32Z</time>
      </trkpt>
      <trkpt lat="45.98719" lon="4.71402">
        <ele>187</ele>
        <time>2018-04-21T10:56:34Z</time>
      </trkpt>
      <trkpt lat="45.98719" lon="4.71409">
        <ele>187</ele>
        <time>2018-04-21T10:56:35Z</time>
      </trkpt>
      <trkpt lat="45.98718" lon="4.7142">
        <ele>186</ele>
        <time>2018-04-21T10:56:37Z</time>
      </trkpt>
      <trkpt lat="45.98716" lon="4.71425">
        <ele>186</ele>
        <time>2018-04-21T10:56:38Z</time>
      </trkpt>
      <trkpt lat="45.98711" lon="4.71434">
        <ele>186</ele>
        <time>2018-04-21T10:56:41Z</time>
      </trkpt>
      <trkpt lat="45.9871" lon="4.71438">
        <ele>186</ele>
        <time>2018-04-21T10:56:42Z</time>
      </trkpt>
      <trkpt lat="45.98706" lon="4.71449">
        <ele>187</ele>
        <time>2018-04-21T10:56:55Z</time>
      </trkpt>
      <trkpt lat="45.98704" lon="4.71451">
        <ele>187</ele>
        <time>2018-04-21T10:56:56Z</time>
      </trkpt>
      <trkpt lat="45.98702" lon="4.71456">
        <ele>187</ele>
        <time>2018-04-21T10:56:58Z</time>
      </trkpt>
      <trkpt lat="45.987" lon="4.71466">
        <ele>187</ele>
        <time>2018-04-21T10:56:59Z</time>
      </trkpt>
      <trkpt lat="45.98699" lon="4.71478">
        <ele>187</ele>
        <time>2018-04-21T10:57:03Z</time>
      </trkpt>
      <trkpt lat="45.98697" lon="4.7148">
        <ele>187</ele>
        <time>2018-04-21T10:57:04Z</time>
      </trkpt>
      <trkpt lat="45.98691" lon="4.71483">
        <ele>187</ele>
        <time>2018-04-21T10:57:07Z</time>
      </trkpt>
      <trkpt lat="45.98688" lon="4.71483">
        <ele>187</ele>
        <time>2018-04-21T10:57:08Z</time>
      </trkpt>
      <trkpt lat="45.98682" lon="4.71482">
        <ele>187</ele>
        <time>2018-04-21T10:57:10Z</time>
      </trkpt>
      <trkpt lat="45.98679" lon="4.71481">
        <ele>188</ele>
        <time>2018-04-21T10:57:11Z</time>
      </trkpt>
      <trkpt lat="45.98669" lon="4.71481">
        <ele>188</ele>
        <time>2018-04-21T10:57:12Z</time>
      </trkpt>
      <trkpt lat="45.98661" lon="4.71483">
        <ele>190</ele>
        <time>2018-04-21T10:57:14Z</time>
      </trkpt>
      <trkpt lat="45.98657" lon="4.71483">
        <ele>190</ele>
        <time>2018-04-21T10:57:15Z</time>
      </trkpt>
      <trkpt lat="45.9865" lon="4.71484">
        <ele>190</ele>
        <time>2018-04-21T10:57:17Z</time>
      </trkpt>
      <trkpt lat="45.98646" lon="4.71484">
        <ele>190</ele>
        <time>2018-04-21T10:57:18Z</time>
      </trkpt>
      <trkpt lat="45.98637" lon="4.71485">
        <ele>190</ele>
        <time>2018-04-21T10:57:22Z</time>
      </trkpt>
      <trkpt lat="45.9863" lon="4.71486">
        <ele>190</ele>
        <time>2018-04-21T10:57:23Z</time>
      </trkpt>
      <trkpt lat="45.98627" lon="4.71486">
        <ele>190</ele>
        <time>2018-04-21T10:57:25Z</time>
      </trkpt>
      <trkpt lat="45.9862" lon="4.71486">
        <ele>190</ele>
        <time>2018-04-21T10:57:26Z</time>
      </trkpt>
      <trkpt lat="45.98614" lon="4.71487">
        <ele>191</ele>
        <time>2018-04-21T10:57:28Z</time>
      </trkpt>
      <trkpt lat="45.98609" lon="4.71488">
        <ele>191</ele>
        <time>2018-04-21T10:57:29Z</time>
      </trkpt>
      <trkpt lat="45.98602" lon="4.71492">
        <ele>191</ele>
        <time>2018-04-21T10:57:31Z</time>
      </trkpt>
      <trkpt lat="45.986" lon="4.71493">
        <ele>191</ele>
        <time>2018-04-21T10:57:32Z</time>
      </trkpt>
      <trkpt lat="45.98594" lon="4.71496">
        <ele>191</ele>
        <time>2018-04-21T10:57:33Z</time>
      </trkpt>
      <trkpt lat="45.9859" lon="4.71497">
        <ele>192</ele>
        <time>2018-04-21T10:57:34Z</time>
      </trkpt>
      <trkpt lat="45.98582" lon="4.715">
        <ele>192</ele>
        <time>2018-04-21T10:57:37Z</time>
      </trkpt>
      <trkpt lat="45.98576" lon="4.71501">
        <ele>193</ele>
        <time>2018-04-21T10:57:38Z</time>
      </trkpt>
      <trkpt lat="45.98568" lon="4.71502">
        <ele>193</ele>
        <time>2018-04-21T10:57:41Z</time>
      </trkpt>
      <trkpt lat="45.98566" lon="4.71502">
        <ele>193</ele>
        <time>2018-04-21T10:57:42Z</time>
      </trkpt>
      <trkpt lat="45.98563" lon="4.71502">
        <ele>193</ele>
        <time>2018-04-21T10:57:43Z</time>
      </trkpt>
      <trkpt lat="45.98556" lon="4.71502">
        <ele>194</ele>
        <time>2018-04-21T10:57:44Z</time>
      </trkpt>
      <trkpt lat="45.98547" lon="4.71503">
        <ele>194</ele>
        <time>2018-04-21T10:57:48Z</time>
      </trkpt>
      <trkpt lat="45.98545" lon="4.71503">
        <ele>194</ele>
        <time>2018-04-21T10:57:49Z</time>
      </trkpt>
      <trkpt lat="45.98536" lon="4.71503">
        <ele>194</ele>
        <time>2018-04-21T10:57:53Z</time>
      </trkpt>
      <trkpt lat="45.98534" lon="4.71503">
        <ele>194</ele>
        <time>2018-04-21T10:57:54Z</time>
      </trkpt>
      <trkpt lat="45.98526" lon="4.71506">
        <ele>194</ele>
        <time>2018-04-21T10:58:12Z</time>
      </trkpt>
      <trkpt lat="45.98524" lon="4.71507">
        <ele>194</ele>
        <time>2018-04-21T10:58:13Z</time>
      </trkpt>
      <trkpt lat="45.98516" lon="4.71509">
        <ele>195</ele>
        <time>2018-04-21T10:58:17Z</time>
      </trkpt>
      <trkpt lat="45.98514" lon="4.7151">
        <ele>195</ele>
        <time>2018-04-21T10:58:18Z</time>
      </trkpt>
      <trkpt lat="45.98508" lon="4.71511">
        <ele>195</ele>
        <time>2018-04-21T10:58:20Z</time>
      </trkpt>
      <trkpt lat="45.98498" lon="4.71514">
        <ele>196</ele>
        <time>2018-04-21T10:58:21Z</time>
      </trkpt>
      <trkpt lat="45.9849" lon="4.71517">
        <ele>196</ele>
        <time>2018-04-21T10:58:23Z</time>
      </trkpt>
      <trkpt lat="45.98486" lon="4.71518">
        <ele>196</ele>
        <time>2018-04-21T10:58:24Z</time>
      </trkpt>
      <trkpt lat="45.98478" lon="4.71522">
        <ele>196</ele>
        <time>2018-04-21T10:58:26Z</time>
      </trkpt>
      <trkpt lat="45.98474" lon="4.71524">
        <ele>196</ele>
        <time>2018-04-21T10:58:27Z</time>
      </trkpt>
      <trkpt lat="45.98465" lon="4.71527">
        <ele>197</ele>
        <time>2018-04-21T10:58:29Z</time>
      </trkpt>
      <trkpt lat="45.98461" lon="4.71528">
        <ele>197</ele>
        <time>2018-04-21T10:58:30Z</time>
      </trkpt>
      <trkpt lat="45.98454" lon="4.7153">
        <ele>197</ele>
        <time>2018-04-21T10:58:32Z</time>
      </trkpt>
      <trkpt lat="45.98449" lon="4.71531">
        <ele>197</ele>
        <time>2018-04-21T10:58:33Z</time>
      </trkpt>
      <trkpt lat="45.9844" lon="4.71531">
        <ele>197</ele>
        <time>2018-04-21T10:58:35Z</time>
      </trkpt>
      <trkpt lat="45.98436" lon="4.71531">
        <ele>197</ele>
        <time>2018-04-21T10:58:36Z</time>
      </trkpt>
      <trkpt lat="45.98431" lon="4.71532">
        <ele>197</ele>
        <time>2018-04-21T10:58:37Z</time>
      </trkpt>
      <trkpt lat="45.98425" lon="4.71533">
        <ele>197</ele>
        <time>2018-04-21T10:58:38Z</time>
      </trkpt>
      <trkpt lat="45.98417" lon="4.71534">
        <ele>198</ele>
        <time>2018-04-21T10:58:41Z</time>
      </trkpt>
      <trkpt lat="45.98415" lon="4.71535">
        <ele>198</ele>
        <time>2018-04-21T10:58:42Z</time>
      </trkpt>
      <trkpt lat="45.98413" lon="4.71537">
        <ele>198</ele>
        <time>2018-04-21T10:58:43Z</time>
      </trkpt>
      <trkpt lat="45.98413" lon="4.71537">
        <ele>198</ele>
        <time>2018-04-21T10:58:44Z</time>
      </trkpt>
      <trkpt lat="45.98413" lon="4.71545">
        <ele>198</ele>
        <time>2018-04-21T10:59:00Z</time>
      </trkpt>
      <trkpt lat="45.98412" lon="4.71545">
        <ele>198</ele>
        <time>2018-04-21T10:59:01Z</time>
      </trkpt>
      <trkpt lat="45.98405" lon="4.71552">
        <ele>198</ele>
        <time>2018-04-21T10:59:07Z</time>
      </trkpt>
      <trkpt lat="45.98403" lon="4.71555">
        <ele>198</ele>
        <time>2018-04-21T10:59:08Z</time>
      </trkpt>
      <trkpt lat="45.98397" lon="4.71562">
        <ele>198</ele>
        <time>2018-04-21T10:59:09Z</time>
      </trkpt>
      <trkpt lat="45.98393" lon="4.71566">
        <ele>198</ele>
        <time>2018-04-21T10:59:10Z</time>
      </trkpt>
      <trkpt lat="45.98389" lon="4.71571">
        <ele>198</ele>
        <time>2018-04-21T10:59:11Z</time>
      </trkpt>
      <trkpt lat="45.98385" lon="4.71576">
        <ele>198</ele>
        <time>2018-04-21T10:59:12Z</time>
      </trkpt>
      <trkpt lat="45.9838" lon="4.7158">
        <ele>198</ele>
        <time>2018-04-21T10:59:13Z</time>
      </trkpt>
      <trkpt lat="45.98375" lon="4.71583">
        <ele>198</ele>
        <time>2018-04-21T10:59:14Z</time>
      </trkpt>
      <trkpt lat="45.9837" lon="4.71584">
        <ele>198</ele>
        <time>2018-04-21T10:59:15Z</time>
      </trkpt>
      <trkpt lat="45.98366" lon="4.71584">
        <ele>198</ele>
        <time>2018-04-21T10:59:16Z</time>
      </trkpt>
      <trkpt lat="45.98361" lon="4.71582">
        <ele>199</ele>
        <time>2018-04-21T10:59:17Z</time>
      </trkpt>
      <trkpt lat="45.98356" lon="4.7158">
        <ele>199</ele>
        <time>2018-04-21T10:59:18Z</time>
      </trkpt>
      <trkpt lat="45.98351" lon="4.71578">
        <ele>199</ele>
        <time>2018-04-21T10:59:19Z</time>
      </trkpt>
      <trkpt lat="45.98347" lon="4.71575">
        <ele>199</ele>
        <time>2018-04-21T10:59:20Z</time>
      </trkpt>
      <trkpt lat="45.98342" lon="4.71573">
        <ele>199</ele>
        <time>2018-04-21T10:59:21Z</time>
      </trkpt>
      <trkpt lat="45.98337" lon="4.7157">
        <ele>199</ele>
        <time>2018-04-21T10:59:22Z</time>
      </trkpt>
      <trkpt lat="45.98332" lon="4.71568">
        <ele>198</ele>
        <time>2018-04-21T10:59:23Z</time>
      </trkpt>
      <trkpt lat="45.98327" lon="4.71566">
        <ele>198</ele>
        <time>2018-04-21T10:59:24Z</time>
      </trkpt>
      <trkpt lat="45.98322" lon="4.71563">
        <ele>198</ele>
        <time>2018-04-21T10:59:25Z</time>
      </trkpt>
      <trkpt lat="45.98318" lon="4.7156">
        <ele>198</ele>
        <time>2018-04-21T10:59:26Z</time>
      </trkpt>
      <trkpt lat="45.98312" lon="4.71552">
        <ele>198</ele>
        <time>2018-04-21T10:59:28Z</time>
      </trkpt>
      <trkpt lat="45.98308" lon="4.71549">
        <ele>198</ele>
        <time>2018-04-21T10:59:29Z</time>
      </trkpt>
      <trkpt lat="45.98304" lon="4.71544">
        <ele>198</ele>
        <time>2018-04-21T10:59:30Z</time>
      </trkpt>
      <trkpt lat="45.983" lon="4.7154">
        <ele>198</ele>
        <time>2018-04-21T10:59:31Z</time>
      </trkpt>
      <trkpt lat="45.98296" lon="4.71537">
        <ele>198</ele>
        <time>2018-04-21T10:59:32Z</time>
      </trkpt>
      <trkpt lat="45.9829" lon="4.71536">
        <ele>198</ele>
        <time>2018-04-21T10:59:33Z</time>
      </trkpt>
      <trkpt lat="45.98284" lon="4.71535">
        <ele>198</ele>
        <time>2018-04-21T10:59:34Z</time>
      </trkpt>
      <trkpt lat="45.9828" lon="4.71532">
        <ele>198</ele>
        <time>2018-04-21T10:59:35Z</time>
      </trkpt>
      <trkpt lat="45.98274" lon="4.71531">
        <ele>197</ele>
        <time>2018-04-21T10:59:36Z</time>
      </trkpt>
      <trkpt lat="45.98269" lon="4.71529">
        <ele>197</ele>
        <time>2018-04-21T10:59:37Z</time>
      </trkpt>
      <trkpt lat="45.98265" lon="4.71526">
        <ele>197</ele>
        <time>2018-04-21T10:59:38Z</time>
      </trkpt>
      <trkpt lat="45.98261" lon="4.71523">
        <ele>197</ele>
        <time>2018-04-21T10:59:39Z</time>
      </trkpt>
      <trkpt lat="45.98256" lon="4.71521">
        <ele>197</ele>
        <time>2018-04-21T10:59:40Z</time>
      </trkpt>
      <trkpt lat="45.98252" lon="4.71516">
        <ele>197</ele>
        <time>2018-04-21T10:59:41Z</time>
      </trkpt>
      <trkpt lat="45.98244" lon="4.71512">
        <ele>196</ele>
        <time>2018-04-21T10:59:43Z</time>
      </trkpt>
      <trkpt lat="45.9824" lon="4.7151">
        <ele>196</ele>
        <time>2018-04-21T10:59:44Z</time>
      </trkpt>
      <trkpt lat="45.98234" lon="4.71509">
        <ele>196</ele>
        <time>2018-04-21T10:59:45Z</time>
      </trkpt>
      <trkpt lat="45.9823" lon="4.71507">
        <ele>196</ele>
        <time>2018-04-21T10:59:46Z</time>
      </trkpt>
      <trkpt lat="45.98222" lon="4.71503">
        <ele>196</ele>
        <time>2018-04-21T10:59:48Z</time>
      </trkpt>
      <trkpt lat="45.98218" lon="4.715">
        <ele>197</ele>
        <time>2018-04-21T10:59:49Z</time>
      </trkpt>
      <trkpt lat="45.98213" lon="4.71497">
        <ele>197</ele>
        <time>2018-04-21T10:59:50Z</time>
      </trkpt>
      <trkpt lat="45.9821" lon="4.71494">
        <ele>197</ele>
        <time>2018-04-21T10:59:51Z</time>
      </trkpt>
      <trkpt lat="45.98202" lon="4.7149">
        <ele>197</ele>
        <time>2018-04-21T10:59:53Z</time>
      </trkpt>
      <trkpt lat="45.98197" lon="4.71489">
        <ele>197</ele>
        <time>2018-04-21T10:59:54Z</time>
      </trkpt>
      <trkpt lat="45.98192" lon="4.71488">
        <ele>197</ele>
        <time>2018-04-21T10:59:55Z</time>
      </trkpt>
      <trkpt lat="45.98187" lon="4.71487">
        <ele>197</ele>
        <time>2018-04-21T10:59:56Z</time>
      </trkpt>
      <trkpt lat="45.98179" lon="4.71488">
        <ele>197</ele>
        <time>2018-04-21T10:59:58Z</time>
      </trkpt>
      <trkpt lat="45.98175" lon="4.71489">
        <ele>197</ele>
        <time>2018-04-21T10:59:59Z</time>
      </trkpt>
      <trkpt lat="45.9817" lon="4.71492">
        <ele>197</ele>
        <time>2018-04-21T11:00:00Z</time>
      </trkpt>
      <trkpt lat="45.98166" lon="4.71495">
        <ele>197</ele>
        <time>2018-04-21T11:00:01Z</time>
      </trkpt>
      <trkpt lat="45.98161" lon="4.71498">
        <ele>197</ele>
        <time>2018-04-21T11:00:02Z</time>
      </trkpt>
      <trkpt lat="45.98157" lon="4.715">
        <ele>197</ele>
        <time>2018-04-21T11:00:03Z</time>
      </trkpt>
      <trkpt lat="45.98149" lon="4.71506">
        <ele>197</ele>
        <time>2018-04-21T11:00:05Z</time>
      </trkpt>
      <trkpt lat="45.98144" lon="4.71509">
        <ele>197</ele>
        <time>2018-04-21T11:00:06Z</time>
      </trkpt>
      <trkpt lat="45.98136" lon="4.71512">
        <ele>197</ele>
        <time>2018-04-21T11:00:08Z</time>
      </trkpt>
      <trkpt lat="45.98132" lon="4.71514">
        <ele>197</ele>
        <time>2018-04-21T11:00:09Z</time>
      </trkpt>
      <trkpt lat="45.98124" lon="4.71519">
        <ele>197</ele>
        <time>2018-04-21T11:00:11Z</time>
      </trkpt>
      <trkpt lat="45.98119" lon="4.71523">
        <ele>197</ele>
        <time>2018-04-21T11:00:12Z</time>
      </trkpt>
      <trkpt lat="45.98113" lon="4.71526">
        <ele>197</ele>
        <time>2018-04-21T11:00:14Z</time>
      </trkpt>
      <trkpt lat="45.98107" lon="4.71529">
        <ele>197</ele>
        <time>2018-04-21T11:00:15Z</time>
      </trkpt>
      <trkpt lat="45.98104" lon="4.71532">
        <ele>197</ele>
        <time>2018-04-21T11:00:16Z</time>
      </trkpt>
      <trkpt lat="45.98099" lon="4.71534">
        <ele>197</ele>
        <time>2018-04-21T11:00:17Z</time>
      </trkpt>
      <trkpt lat="45.98095" lon="4.71539">
        <ele>197</ele>
        <time>2018-04-21T11:00:18Z</time>
      </trkpt>
      <trkpt lat="45.98091" lon="4.71541">
        <ele>198</ele>
        <time>2018-04-21T11:00:19Z</time>
      </trkpt>
      <trkpt lat="45.98087" lon="4.71545">
        <ele>198</ele>
        <time>2018-04-21T11:00:20Z</time>
      </trkpt>
      <trkpt lat="45.98082" lon="4.71548">
        <ele>198</ele>
        <time>2018-04-21T11:00:21Z</time>
      </trkpt>
      <trkpt lat="45.98076" lon="4.71553">
        <ele>198</ele>
        <time>2018-04-21T11:00:23Z</time>
      </trkpt>
      <trkpt lat="45.9807" lon="4.71558">
        <ele>198</ele>
        <time>2018-04-21T11:00:24Z</time>
      </trkpt>
      <trkpt lat="45.98062" lon="4.71564">
        <ele>198</ele>
        <time>2018-04-21T11:00:26Z</time>
      </trkpt>
      <trkpt lat="45.98057" lon="4.71569">
        <ele>198</ele>
        <time>2018-04-21T11:00:27Z</time>
      </trkpt>
      <trkpt lat="45.98052" lon="4.71576">
        <ele>198</ele>
        <time>2018-04-21T11:00:29Z</time>
      </trkpt>
      <trkpt lat="45.9805" lon="4.71577">
        <ele>198</ele>
        <time>2018-04-21T11:00:30Z</time>
      </trkpt>
      <trkpt lat="45.98048" lon="4.71578">
        <ele>198</ele>
        <time>2018-04-21T11:00:31Z</time>
      </trkpt>
      <trkpt lat="45.98036" lon="4.71587">
        <ele>198</ele>
        <time>2018-04-21T11:00:32Z</time>
      </trkpt>
      <trkpt lat="45.98031" lon="4.7159">
        <ele>198</ele>
        <time>2018-04-21T11:00:33Z</time>
      </trkpt>
      <trkpt lat="45.98024" lon="4.71595">
        <ele>198</ele>
        <time>2018-04-21T11:00:34Z</time>
      </trkpt>
      <trkpt lat="45.98019" lon="4.71598">
        <ele>198</ele>
        <time>2018-04-21T11:00:35Z</time>
      </trkpt>
      <trkpt lat="45.98014" lon="4.71603">
        <ele>198</ele>
        <time>2018-04-21T11:00:36Z</time>
      </trkpt>
      <trkpt lat="45.9801" lon="4.71608">
        <ele>198</ele>
        <time>2018-04-21T11:00:37Z</time>
      </trkpt>
      <trkpt lat="45.98005" lon="4.71612">
        <ele>198</ele>
        <time>2018-04-21T11:00:38Z</time>
      </trkpt>
      <trkpt lat="45.97999" lon="4.71617">
        <ele>198</ele>
        <time>2018-04-21T11:00:39Z</time>
      </trkpt>
      <trkpt lat="45.97994" lon="4.71621">
        <ele>198</ele>
        <time>2018-04-21T11:00:40Z</time>
      </trkpt>
      <trkpt lat="45.97989" lon="4.71625">
        <ele>197</ele>
        <time>2018-04-21T11:00:41Z</time>
      </trkpt>
      <trkpt lat="45.97983" lon="4.7163">
        <ele>197</ele>
        <time>2018-04-21T11:00:42Z</time>
      </trkpt>
      <trkpt lat="45.97977" lon="4.71634">
        <ele>197</ele>
        <time>2018-04-21T11:00:43Z</time>
      </trkpt>
      <trkpt lat="45.97973" lon="4.71638">
        <ele>197</ele>
        <time>2018-04-21T11:00:44Z</time>
      </trkpt>
      <trkpt lat="45.97968" lon="4.71643">
        <ele>197</ele>
        <time>2018-04-21T11:00:45Z</time>
      </trkpt>
      <trkpt lat="45.97963" lon="4.71646">
        <ele>197</ele>
        <time>2018-04-21T11:00:46Z</time>
      </trkpt>
      <trkpt lat="45.97957" lon="4.7165">
        <ele>197</ele>
        <time>2018-04-21T11:00:47Z</time>
      </trkpt>
      <trkpt lat="45.97951" lon="4.71654">
        <ele>197</ele>
        <time>2018-04-21T11:00:48Z</time>
      </trkpt>
      <trkpt lat="45.97946" lon="4.71658">
        <ele>197</ele>
        <time>2018-04-21T11:00:49Z</time>
      </trkpt>
      <trkpt lat="45.97942" lon="4.71662">
        <ele>197</ele>
        <time>2018-04-21T11:00:50Z</time>
      </trkpt>
      <trkpt lat="45.97937" lon="4.71665">
        <ele>197</ele>
        <time>2018-04-21T11:00:51Z</time>
      </trkpt>
      <trkpt lat="45.97933" lon="4.71668">
        <ele>197</ele>
        <time>2018-04-21T11:00:52Z</time>
      </trkpt>
      <trkpt lat="45.97928" lon="4.71673">
        <ele>197</ele>
        <time>2018-04-21T11:00:53Z</time>
      </trkpt>
      <trkpt lat="45.97924" lon="4.71675">
        <ele>197</ele>
        <time>2018-04-21T11:00:54Z</time>
      </trkpt>
      <trkpt lat="45.9792" lon="4.71678">
        <ele>197</ele>
        <time>2018-04-21T11:00:55Z</time>
      </trkpt>
      <trkpt lat="45.97915" lon="4.71681">
        <ele>197</ele>
        <time>2018-04-21T11:00:56Z</time>
      </trkpt>
      <trkpt lat="45.9791" lon="4.71683">
        <ele>196</ele>
        <time>2018-04-21T11:00:57Z</time>
      </trkpt>
      <trkpt lat="45.97907" lon="4.71687">
        <ele>196</ele>
        <time>2018-04-21T11:00:58Z</time>
      </trkpt>
      <trkpt lat="45.97901" lon="4.71694">
        <ele>196</ele>
        <time>2018-04-21T11:00:59Z</time>
      </trkpt>
      <trkpt lat="45.97897" lon="4.71699">
        <ele>196</ele>
        <time>2018-04-21T11:01:00Z</time>
      </trkpt>
      <trkpt lat="45.97891" lon="4.71707">
        <ele>196</ele>
        <time>2018-04-21T11:01:05Z</time>
      </trkpt>
      <trkpt lat="45.97884" lon="4.71709">
        <ele>196</ele>
        <time>2018-04-21T11:01:06Z</time>
      </trkpt>
      <trkpt lat="45.97876" lon="4.71707">
        <ele>196</ele>
        <time>2018-04-21T11:01:08Z</time>
      </trkpt>
      <trkpt lat="45.97871" lon="4.71708">
        <ele>196</ele>
        <time>2018-04-21T11:01:09Z</time>
      </trkpt>
      <trkpt lat="45.97867" lon="4.7171">
        <ele>196</ele>
        <time>2018-04-21T11:01:10Z</time>
      </trkpt>
      <trkpt lat="45.97862" lon="4.71713">
        <ele>196</ele>
        <time>2018-04-21T11:01:11Z</time>
      </trkpt>
      <trkpt lat="45.97859" lon="4.71718">
        <ele>196</ele>
        <time>2018-04-21T11:01:12Z</time>
      </trkpt>
      <trkpt lat="45.97855" lon="4.71723">
        <ele>196</ele>
        <time>2018-04-21T11:01:13Z</time>
      </trkpt>
      <trkpt lat="45.97851" lon="4.7173">
        <ele>196</ele>
        <time>2018-04-21T11:01:14Z</time>
      </trkpt>
      <trkpt lat="45.97847" lon="4.71735">
        <ele>196</ele>
        <time>2018-04-21T11:01:15Z</time>
      </trkpt>
      <trkpt lat="45.97843" lon="4.7174">
        <ele>195</ele>
        <time>2018-04-21T11:01:16Z</time>
      </trkpt>
      <trkpt lat="45.97838" lon="4.71744">
        <ele>195</ele>
        <time>2018-04-21T11:01:17Z</time>
      </trkpt>
      <trkpt lat="45.97832" lon="4.71745">
        <ele>195</ele>
        <time>2018-04-21T11:01:18Z</time>
      </trkpt>
      <trkpt lat="45.97826" lon="4.71743">
        <ele>196</ele>
        <time>2018-04-21T11:01:19Z</time>
      </trkpt>
      <trkpt lat="45.9782" lon="4.71743">
        <ele>196</ele>
        <time>2018-04-21T11:01:20Z</time>
      </trkpt>
      <trkpt lat="45.97815" lon="4.71743">
        <ele>196</ele>
        <time>2018-04-21T11:01:21Z</time>
      </trkpt>
      <trkpt lat="45.97809" lon="4.71743">
        <ele>196</ele>
        <time>2018-04-21T11:01:22Z</time>
      </trkpt>
      <trkpt lat="45.97804" lon="4.71742">
        <ele>196</ele>
        <time>2018-04-21T11:01:23Z</time>
      </trkpt>
      <trkpt lat="45.97799" lon="4.71742">
        <ele>196</ele>
        <time>2018-04-21T11:01:24Z</time>
      </trkpt>
      <trkpt lat="45.97794" lon="4.7174">
        <ele>196</ele>
        <time>2018-04-21T11:01:25Z</time>
      </trkpt>
      <trkpt lat="45.97789" lon="4.71739">
        <ele>196</ele>
        <time>2018-04-21T11:01:26Z</time>
      </trkpt>
      <trkpt lat="45.97783" lon="4.7174">
        <ele>196</ele>
        <time>2018-04-21T11:01:27Z</time>
      </trkpt>
      <trkpt lat="45.97778" lon="4.71739">
        <ele>196</ele>
        <time>2018-04-21T11:01:28Z</time>
      </trkpt>
      <trkpt lat="45.97772" lon="4.7174">
        <ele>196</ele>
        <time>2018-04-21T11:01:29Z</time>
      </trkpt>
      <trkpt lat="45.97764" lon="4.71738">
        <ele>196</ele>
        <time>2018-04-21T11:01:31Z</time>
      </trkpt>
      <trkpt lat="45.97759" lon="4.71737">
        <ele>196</ele>
        <time>2018-04-21T11:01:32Z</time>
      </trkpt>
      <trkpt lat="45.97754" lon="4.71736">
        <ele>196</ele>
        <time>2018-04-21T11:01:33Z</time>
      </trkpt>
      <trkpt lat="45.9775" lon="4.71736">
        <ele>196</ele>
        <time>2018-04-21T11:01:34Z</time>
      </trkpt>
      <trkpt lat="45.97744" lon="4.71735">
        <ele>196</ele>
        <time>2018-04-21T11:01:35Z</time>
      </trkpt>
      <trkpt lat="45.97739" lon="4.71735">
        <ele>196</ele>
        <time>2018-04-21T11:01:36Z</time>
      </trkpt>
      <trkpt lat="45.97734" lon="4.71733">
        <ele>196</ele>
        <time>2018-04-21T11:01:37Z</time>
      </trkpt>
      <trkpt lat="45.97729" lon="4.71732">
        <ele>196</ele>
        <time>2018-04-21T11:01:38Z</time>
      </trkpt>
      <trkpt lat="45.9772" lon="4.71731">
        <ele>196</ele>
        <time>2018-04-21T11:01:40Z</time>
      </trkpt>
      <trkpt lat="45.97715" lon="4.7173">
        <ele>196</ele>
        <time>2018-04-21T11:01:41Z</time>
      </trkpt>
      <trkpt lat="45.9771" lon="4.7173">
        <ele>196</ele>
        <time>2018-04-21T11:01:42Z</time>
      </trkpt>
      <trkpt lat="45.97704" lon="4.7173">
        <ele>196</ele>
        <time>2018-04-21T11:01:43Z</time>
      </trkpt>
      <trkpt lat="45.97697" lon="4.71731">
        <ele>196</ele>
        <time>2018-04-21T11:01:44Z</time>
      </trkpt>
      <trkpt lat="45.97692" lon="4.7173">
        <ele>196</ele>
        <time>2018-04-21T11:01:45Z</time>
      </trkpt>
      <trkpt lat="45.97688" lon="4.71729">
        <ele>196</ele>
        <time>2018-04-21T11:01:46Z</time>
      </trkpt>
      <trkpt lat="45.97683" lon="4.71729">
        <ele>196</ele>
        <time>2018-04-21T11:01:47Z</time>
      </trkpt>
      <trkpt lat="45.97674" lon="4.71728">
        <ele>196</ele>
        <time>2018-04-21T11:01:49Z</time>
      </trkpt>
      <trkpt lat="45.9767" lon="4.71728">
        <ele>196</ele>
        <time>2018-04-21T11:01:50Z</time>
      </trkpt>
      <trkpt lat="45.97664" lon="4.71727">
        <ele>196</ele>
        <time>2018-04-21T11:01:51Z</time>
      </trkpt>
      <trkpt lat="45.97659" lon="4.71727">
        <ele>196</ele>
        <time>2018-04-21T11:01:52Z</time>
      </trkpt>
      <trkpt lat="45.97651" lon="4.71725">
        <ele>196</ele>
        <time>2018-04-21T11:01:54Z</time>
      </trkpt>
      <trkpt lat="45.97647" lon="4.71724">
        <ele>196</ele>
        <time>2018-04-21T11:01:55Z</time>
      </trkpt>
      <trkpt lat="45.9764" lon="4.71721">
        <ele>196</ele>
        <time>2018-04-21T11:01:57Z</time>
      </trkpt>
      <trkpt lat="45.9764" lon="4.71716">
        <ele>197</ele>
        <time>2018-04-21T11:01:58Z</time>
      </trkpt>
      <trkpt lat="45.97634" lon="4.7171">
        <ele>197</ele>
        <time>2018-04-21T11:02:00Z</time>
      </trkpt>
      <trkpt lat="45.9763" lon="4.7171">
        <ele>197</ele>
        <time>2018-04-21T11:02:01Z</time>
      </trkpt>
      <trkpt lat="45.97623" lon="4.71709">
        <ele>197</ele>
        <time>2018-04-21T11:02:02Z</time>
      </trkpt>
      <trkpt lat="45.97619" lon="4.71709">
        <ele>197</ele>
        <time>2018-04-21T11:02:03Z</time>
      </trkpt>
      <trkpt lat="45.97614" lon="4.71712">
        <ele>197</ele>
        <time>2018-04-21T11:02:04Z</time>
      </trkpt>
      <trkpt lat="45.97609" lon="4.71715">
        <ele>197</ele>
        <time>2018-04-21T11:02:05Z</time>
      </trkpt>
      <trkpt lat="45.97605" lon="4.71718">
        <ele>197</ele>
        <time>2018-04-21T11:02:06Z</time>
      </trkpt>
      <trkpt lat="45.976" lon="4.71719">
        <ele>197</ele>
        <time>2018-04-21T11:02:07Z</time>
      </trkpt>
      <trkpt lat="45.97595" lon="4.71722">
        <ele>197</ele>
        <time>2018-04-21T11:02:08Z</time>
      </trkpt>
      <trkpt lat="45.9759" lon="4.71722">
        <ele>197</ele>
        <time>2018-04-21T11:02:09Z</time>
      </trkpt>
      <trkpt lat="45.97585" lon="4.71721">
        <ele>197</ele>
        <time>2018-04-21T11:02:10Z</time>
      </trkpt>
      <trkpt lat="45.9758" lon="4.71722">
        <ele>197</ele>
        <time>2018-04-21T11:02:11Z</time>
      </trkpt>
      <trkpt lat="45.97571" lon="4.7172">
        <ele>198</ele>
        <time>2018-04-21T11:02:13Z</time>
      </trkpt>
      <trkpt lat="45.97566" lon="4.7172">
        <ele>198</ele>
        <time>2018-04-21T11:02:14Z</time>
      </trkpt>
      <trkpt lat="45.97561" lon="4.7172">
        <ele>198</ele>
        <time>2018-04-21T11:02:15Z</time>
      </trkpt>
      <trkpt lat="45.97556" lon="4.7172">
        <ele>198</ele>
        <time>2018-04-21T11:02:16Z</time>
      </trkpt>
      <trkpt lat="45.9755" lon="4.7172">
        <ele>198</ele>
        <time>2018-04-21T11:02:17Z</time>
      </trkpt>
      <trkpt lat="45.97546" lon="4.71719">
        <ele>198</ele>
        <time>2018-04-21T11:02:18Z</time>
      </trkpt>
      <trkpt lat="45.9754" lon="4.71719">
        <ele>198</ele>
        <time>2018-04-21T11:02:19Z</time>
      </trkpt>
      <trkpt lat="45.97535" lon="4.71718">
        <ele>198</ele>
        <time>2018-04-21T11:02:20Z</time>
      </trkpt>
      <trkpt lat="45.97529" lon="4.71718">
        <ele>198</ele>
        <time>2018-04-21T11:02:21Z</time>
      </trkpt>
      <trkpt lat="45.97524" lon="4.71718">
        <ele>198</ele>
        <time>2018-04-21T11:02:22Z</time>
      </trkpt>
      <trkpt lat="45.97516" lon="4.71717">
        <ele>198</ele>
        <time>2018-04-21T11:02:24Z</time>
      </trkpt>
      <trkpt lat="45.97512" lon="4.71716">
        <ele>198</ele>
        <time>2018-04-21T11:02:25Z</time>
      </trkpt>
      <trkpt lat="45.97508" lon="4.71716">
        <ele>198</ele>
        <time>2018-04-21T11:02:26Z</time>
      </trkpt>
      <trkpt lat="45.97502" lon="4.71716">
        <ele>198</ele>
        <time>2018-04-21T11:02:27Z</time>
      </trkpt>
      <trkpt lat="45.97497" lon="4.71718">
        <ele>198</ele>
        <time>2018-04-21T11:02:28Z</time>
      </trkpt>
      <trkpt lat="45.97491" lon="4.71718">
        <ele>197</ele>
        <time>2018-04-21T11:02:29Z</time>
      </trkpt>
      <trkpt lat="45.97486" lon="4.71718">
        <ele>197</ele>
        <time>2018-04-21T11:02:30Z</time>
      </trkpt>
      <trkpt lat="45.97481" lon="4.71718">
        <ele>197</ele>
        <time>2018-04-21T11:02:31Z</time>
      </trkpt>
      <trkpt lat="45.97476" lon="4.71715">
        <ele>197</ele>
        <time>2018-04-21T11:02:32Z</time>
      </trkpt>
      <trkpt lat="45.97471" lon="4.71715">
        <ele>197</ele>
        <time>2018-04-21T11:02:33Z</time>
      </trkpt>
      <trkpt lat="45.97466" lon="4.71715">
        <ele>197</ele>
        <time>2018-04-21T11:02:34Z</time>
      </trkpt>
      <trkpt lat="45.97461" lon="4.71715">
        <ele>197</ele>
        <time>2018-04-21T11:02:35Z</time>
      </trkpt>
      <trkpt lat="45.97457" lon="4.71711">
        <ele>197</ele>
        <time>2018-04-21T11:02:36Z</time>
      </trkpt>
      <trkpt lat="45.97452" lon="4.71711">
        <ele>197</ele>
        <time>2018-04-21T11:02:37Z</time>
      </trkpt>
      <trkpt lat="45.97447" lon="4.71709">
        <ele>197</ele>
        <time>2018-04-21T11:02:38Z</time>
      </trkpt>
      <trkpt lat="45.97442" lon="4.71709">
        <ele>197</ele>
        <time>2018-04-21T11:02:39Z</time>
      </trkpt>
      <trkpt lat="45.97438" lon="4.71706">
        <ele>197</ele>
        <time>2018-04-21T11:02:40Z</time>
      </trkpt>
      <trkpt lat="45.97433" lon="4.71706">
        <ele>197</ele>
        <time>2018-04-21T11:02:41Z</time>
      </trkpt>
      <trkpt lat="45.97428" lon="4.71705">
        <ele>197</ele>
        <time>2018-04-21T11:02:42Z</time>
      </trkpt>
      <trkpt lat="45.97422" lon="4.71705">
        <ele>197</ele>
        <time>2018-04-21T11:02:43Z</time>
      </trkpt>
      <trkpt lat="45.97416" lon="4.71705">
        <ele>195</ele>
        <time>2018-04-21T11:02:44Z</time>
      </trkpt>
      <trkpt lat="45.97409" lon="4.71705">
        <ele>195</ele>
        <time>2018-04-21T11:02:45Z</time>
      </trkpt>
      <trkpt lat="45.97402" lon="4.71705">
        <ele>195</ele>
        <time>2018-04-21T11:02:46Z</time>
      </trkpt>
      <trkpt lat="45.97395" lon="4.71705">
        <ele>195</ele>
        <time>2018-04-21T11:02:47Z</time>
      </trkpt>
      <trkpt lat="45.9739" lon="4.71704">
        <ele>195</ele>
        <time>2018-04-21T11:02:48Z</time>
      </trkpt>
      <trkpt lat="45.97384" lon="4.71705">
        <ele>195</ele>
        <time>2018-04-21T11:02:49Z</time>
      </trkpt>
      <trkpt lat="45.97378" lon="4.71705">
        <ele>195</ele>
        <time>2018-04-21T11:02:50Z</time>
      </trkpt>
      <trkpt lat="45.97373" lon="4.71704">
        <ele>195</ele>
        <time>2018-04-21T11:02:51Z</time>
      </trkpt>
      <trkpt lat="45.97366" lon="4.71704">
        <ele>195</ele>
        <time>2018-04-21T11:02:52Z</time>
      </trkpt>
      <trkpt lat="45.9736" lon="4.71704">
        <ele>195</ele>
        <time>2018-04-21T11:02:53Z</time>
      </trkpt>
      <trkpt lat="45.97355" lon="4.71704">
        <ele>195</ele>
        <time>2018-04-21T11:02:54Z</time>
      </trkpt>
      <trkpt lat="45.97349" lon="4.71703">
        <ele>195</ele>
        <time>2018-04-21T11:02:55Z</time>
      </trkpt>
      <trkpt lat="45.97342" lon="4.71702">
        <ele>196</ele>
        <time>2018-04-21T11:02:56Z</time>
      </trkpt>
      <trkpt lat="45.97335" lon="4.71703">
        <ele>196</ele>
        <time>2018-04-21T11:02:57Z</time>
      </trkpt>
      <trkpt lat="45.97329" lon="4.71702">
        <ele>196</ele>
        <time>2018-04-21T11:02:58Z</time>
      </trkpt>
      <trkpt lat="45.97323" lon="4.717">
        <ele>196</ele>
        <time>2018-04-21T11:02:59Z</time>
      </trkpt>
      <trkpt lat="45.97318" lon="4.71697">
        <ele>196</ele>
        <time>2018-04-21T11:03:00Z</time>
      </trkpt>
      <trkpt lat="45.97313" lon="4.71693">
        <ele>196</ele>
        <time>2018-04-21T11:03:01Z</time>
      </trkpt>
      <trkpt lat="45.97307" lon="4.71691">
        <ele>196</ele>
        <time>2018-04-21T11:03:02Z</time>
      </trkpt>
      <trkpt lat="45.97301" lon="4.71692">
        <ele>196</ele>
        <time>2018-04-21T11:03:03Z</time>
      </trkpt>
      <trkpt lat="45.97295" lon="4.71694">
        <ele>197</ele>
        <time>2018-04-21T11:03:04Z</time>
      </trkpt>
      <trkpt lat="45.97288" lon="4.71697">
        <ele>197</ele>
        <time>2018-04-21T11:03:05Z</time>
      </trkpt>
      <trkpt lat="45.97282" lon="4.717">
        <ele>197</ele>
        <time>2018-04-21T11:03:06Z</time>
      </trkpt>
      <trkpt lat="45.97275" lon="4.717">
        <ele>197</ele>
        <time>2018-04-21T11:03:07Z</time>
      </trkpt>
      <trkpt lat="45.97268" lon="4.717">
        <ele>197</ele>
        <time>2018-04-21T11:03:08Z</time>
      </trkpt>
      <trkpt lat="45.97261" lon="4.71699">
        <ele>197</ele>
        <time>2018-04-21T11:03:09Z</time>
      </trkpt>
      <trkpt lat="45.97255" lon="4.71698">
        <ele>197</ele>
        <time>2018-04-21T11:03:10Z</time>
      </trkpt>
      <trkpt lat="45.97249" lon="4.71697">
        <ele>197</ele>
        <time>2018-04-21T11:03:11Z</time>
      </trkpt>
      <trkpt lat="45.97243" lon="4.71696">
        <ele>197</ele>
        <time>2018-04-21T11:03:12Z</time>
      </trkpt>
      <trkpt lat="45.97238" lon="4.71695">
        <ele>197</ele>
        <time>2018-04-21T11:03:13Z</time>
      </trkpt>
      <trkpt lat="45.97231" lon="4.71694">
        <ele>197</ele>
        <time>2018-04-21T11:03:14Z</time>
      </trkpt>
      <trkpt lat="45.97225" lon="4.71694">
        <ele>197</ele>
        <time>2018-04-21T11:03:15Z</time>
      </trkpt>
      <trkpt lat="45.97219" lon="4.71692">
        <ele>197</ele>
        <time>2018-04-21T11:03:16Z</time>
      </trkpt>
      <trkpt lat="45.97213" lon="4.71692">
        <ele>197</ele>
        <time>2018-04-21T11:03:17Z</time>
      </trkpt>
      <trkpt lat="45.97206" lon="4.71691">
        <ele>197</ele>
        <time>2018-04-21T11:03:18Z</time>
      </trkpt>
      <trkpt lat="45.972" lon="4.7169">
        <ele>197</ele>
        <time>2018-04-21T11:03:19Z</time>
      </trkpt>
      <trkpt lat="45.97195" lon="4.71691">
        <ele>197</ele>
        <time>2018-04-21T11:03:20Z</time>
      </trkpt>
      <trkpt lat="45.97189" lon="4.71691">
        <ele>197</ele>
        <time>2018-04-21T11:03:21Z</time>
      </trkpt>
      <trkpt lat="45.97182" lon="4.7169">
        <ele>197</ele>
        <time>2018-04-21T11:03:22Z</time>
      </trkpt>
      <trkpt lat="45.97177" lon="4.7169">
        <ele>197</ele>
        <time>2018-04-21T11:03:23Z</time>
      </trkpt>
      <trkpt lat="45.97171" lon="4.71689">
        <ele>197</ele>
        <time>2018-04-21T11:03:24Z</time>
      </trkpt>
      <trkpt lat="45.97164" lon="4.71688">
        <ele>196</ele>
        <time>2018-04-21T11:03:25Z</time>
      </trkpt>
      <trkpt lat="45.97159" lon="4.71686">
        <ele>196</ele>
        <time>2018-04-21T11:03:26Z</time>
      </trkpt>
      <trkpt lat="45.97152" lon="4.71685">
        <ele>196</ele>
        <time>2018-04-21T11:03:27Z</time>
      </trkpt>
      <trkpt lat="45.97145" lon="4.71684">
        <ele>195</ele>
        <time>2018-04-21T11:03:28Z</time>
      </trkpt>
      <trkpt lat="45.97138" lon="4.71684">
        <ele>195</ele>
        <time>2018-04-21T11:03:29Z</time>
      </trkpt>
      <trkpt lat="45.9713" lon="4.71685">
        <ele>195</ele>
        <time>2018-04-21T11:03:30Z</time>
      </trkpt>
      <trkpt lat="45.97122" lon="4.71685">
        <ele>195</ele>
        <time>2018-04-21T11:03:31Z</time>
      </trkpt>
      <trkpt lat="45.97114" lon="4.71685">
        <ele>194</ele>
        <time>2018-04-21T11:03:32Z</time>
      </trkpt>
      <trkpt lat="45.97106" lon="4.71684">
        <ele>194</ele>
        <time>2018-04-21T11:03:33Z</time>
      </trkpt>
      <trkpt lat="45.97099" lon="4.71683">
        <ele>194</ele>
        <time>2018-04-21T11:03:34Z</time>
      </trkpt>
      <trkpt lat="45.97091" lon="4.71681">
        <ele>194</ele>
        <time>2018-04-21T11:03:35Z</time>
      </trkpt>
      <trkpt lat="45.97084" lon="4.7168">
        <ele>195</ele>
        <time>2018-04-21T11:03:36Z</time>
      </trkpt>
      <trkpt lat="45.97076" lon="4.71679">
        <ele>194</ele>
        <time>2018-04-21T11:03:37Z</time>
      </trkpt>
      <trkpt lat="45.97068" lon="4.71678">
        <ele>193</ele>
        <time>2018-04-21T11:03:38Z</time>
      </trkpt>
      <trkpt lat="45.9706" lon="4.71677">
        <ele>193</ele>
        <time>2018-04-21T11:03:39Z</time>
      </trkpt>
      <trkpt lat="45.97051" lon="4.71676">
        <ele>193</ele>
        <time>2018-04-21T11:03:40Z</time>
      </trkpt>
      <trkpt lat="45.97043" lon="4.71676">
        <ele>193</ele>
        <time>2018-04-21T11:03:41Z</time>
      </trkpt>
      <trkpt lat="45.97036" lon="4.71674">
        <ele>193</ele>
        <time>2018-04-21T11:03:42Z</time>
      </trkpt>
      <trkpt lat="45.97028" lon="4.71674">
        <ele>193</ele>
        <time>2018-04-21T11:03:43Z</time>
      </trkpt>
      <trkpt lat="45.9702" lon="4.71673">
        <ele>193</ele>
        <time>2018-04-21T11:03:44Z</time>
      </trkpt>
      <trkpt lat="45.97012" lon="4.71671">
        <ele>193</ele>
        <time>2018-04-21T11:03:45Z</time>
      </trkpt>
      <trkpt lat="45.97004" lon="4.71671">
        <ele>194</ele>
        <time>2018-04-21T11:03:46Z</time>
      </trkpt>
      <trkpt lat="45.96997" lon="4.71672">
        <ele>193</ele>
        <time>2018-04-21T11:03:47Z</time>
      </trkpt>
      <trkpt lat="45.9699" lon="4.71672">
        <ele>193</ele>
        <time>2018-04-21T11:03:48Z</time>
      </trkpt>
      <trkpt lat="45.96982" lon="4.71673">
        <ele>192</ele>
        <time>2018-04-21T11:03:49Z</time>
      </trkpt>
      <trkpt lat="45.96975" lon="4.71671">
        <ele>192</ele>
        <time>2018-04-21T11:03:50Z</time>
      </trkpt>
      <trkpt lat="45.96967" lon="4.71671">
        <ele>192</ele>
        <time>2018-04-21T11:03:51Z</time>
      </trkpt>
      <trkpt lat="45.9696" lon="4.71671">
        <ele>192</ele>
        <time>2018-04-21T11:03:52Z</time>
      </trkpt>
      <trkpt lat="45.96953" lon="4.71671">
        <ele>192</ele>
        <time>2018-04-21T11:03:53Z</time>
      </trkpt>
      <trkpt lat="45.96947" lon="4.71671">
        <ele>192</ele>
        <time>2018-04-21T11:03:54Z</time>
      </trkpt>
      <trkpt lat="45.9694" lon="4.71672">
        <ele>192</ele>
        <time>2018-04-21T11:03:55Z</time>
      </trkpt>
      <trkpt lat="45.96934" lon="4.71669">
        <ele>193</ele>
        <time>2018-04-21T11:03:56Z</time>
      </trkpt>
      <trkpt lat="45.96928" lon="4.71669">
        <ele>193</ele>
        <time>2018-04-21T11:03:57Z</time>
      </trkpt>
      <trkpt lat="45.96921" lon="4.71668">
        <ele>194</ele>
        <time>2018-04-21T11:03:58Z</time>
      </trkpt>
      <trkpt lat="45.96915" lon="4.71669">
        <ele>194</ele>
        <time>2018-04-21T11:03:59Z</time>
      </trkpt>
      <trkpt lat="45.96909" lon="4.7167">
        <ele>193</ele>
        <time>2018-04-21T11:04:00Z</time>
      </trkpt>
      <trkpt lat="45.96902" lon="4.71669">
        <ele>192</ele>
        <time>2018-04-21T11:04:01Z</time>
      </trkpt>
      <trkpt lat="45.96895" lon="4.71669">
        <ele>192</ele>
        <time>2018-04-21T11:04:02Z</time>
      </trkpt>
      <trkpt lat="45.96889" lon="4.71667">
        <ele>195</ele>
        <time>2018-04-21T11:04:03Z</time>
      </trkpt>
      <trkpt lat="45.96882" lon="4.71666">
        <ele>195</ele>
        <time>2018-04-21T11:04:04Z</time>
      </trkpt>
      <trkpt lat="45.96876" lon="4.71665">
        <ele>195</ele>
        <time>2018-04-21T11:04:05Z</time>
      </trkpt>
      <trkpt lat="45.96869" lon="4.71664">
        <ele>195</ele>
        <time>2018-04-21T11:04:06Z</time>
      </trkpt>
      <trkpt lat="45.96864" lon="4.71664">
        <ele>195</ele>
        <time>2018-04-21T11:04:07Z</time>
      </trkpt>
      <trkpt lat="45.96857" lon="4.71662">
        <ele>194</ele>
        <time>2018-04-21T11:04:08Z</time>
      </trkpt>
      <trkpt lat="45.96851" lon="4.71662">
        <ele>194</ele>
        <time>2018-04-21T11:04:09Z</time>
      </trkpt>
      <trkpt lat="45.96845" lon="4.71661">
        <ele>194</ele>
        <time>2018-04-21T11:04:10Z</time>
      </trkpt>
      <trkpt lat="45.96838" lon="4.7166">
        <ele>193</ele>
        <time>2018-04-21T11:04:11Z</time>
      </trkpt>
      <trkpt lat="45.96831" lon="4.71659">
        <ele>192</ele>
        <time>2018-04-21T11:04:12Z</time>
      </trkpt>
      <trkpt lat="45.96826" lon="4.71657">
        <ele>193</ele>
        <time>2018-04-21T11:04:13Z</time>
      </trkpt>
      <trkpt lat="45.9682" lon="4.71655">
        <ele>193</ele>
        <time>2018-04-21T11:04:14Z</time>
      </trkpt>
      <trkpt lat="45.96813" lon="4.71654">
        <ele>193</ele>
        <time>2018-04-21T11:04:15Z</time>
      </trkpt>
      <trkpt lat="45.96806" lon="4.71653">
        <ele>193</ele>
        <time>2018-04-21T11:04:16Z</time>
      </trkpt>
      <trkpt lat="45.96801" lon="4.71652">
        <ele>193</ele>
        <time>2018-04-21T11:04:17Z</time>
      </trkpt>
      <trkpt lat="45.96794" lon="4.71651">
        <ele>193</ele>
        <time>2018-04-21T11:04:18Z</time>
      </trkpt>
      <trkpt lat="45.96787" lon="4.71652">
        <ele>192</ele>
        <time>2018-04-21T11:04:19Z</time>
      </trkpt>
      <trkpt lat="45.96781" lon="4.71652">
        <ele>192</ele>
        <time>2018-04-21T11:04:20Z</time>
      </trkpt>
      <trkpt lat="45.96775" lon="4.71649">
        <ele>192</ele>
        <time>2018-04-21T11:04:21Z</time>
      </trkpt>
      <trkpt lat="45.96769" lon="4.71649">
        <ele>192</ele>
        <time>2018-04-21T11:04:22Z</time>
      </trkpt>
      <trkpt lat="45.96762" lon="4.71648">
        <ele>192</ele>
        <time>2018-04-21T11:04:23Z</time>
      </trkpt>
      <trkpt lat="45.96756" lon="4.71644">
        <ele>192</ele>
        <time>2018-04-21T11:04:24Z</time>
      </trkpt>
      <trkpt lat="45.96749" lon="4.71643">
        <ele>190</ele>
        <time>2018-04-21T11:04:25Z</time>
      </trkpt>
      <trkpt lat="45.96744" lon="4.7164">
        <ele>190</ele>
        <time>2018-04-21T11:04:26Z</time>
      </trkpt>
      <trkpt lat="45.96736" lon="4.71639">
        <ele>190</ele>
        <time>2018-04-21T11:04:27Z</time>
      </trkpt>
      <trkpt lat="45.96729" lon="4.71639">
        <ele>190</ele>
        <time>2018-04-21T11:04:28Z</time>
      </trkpt>
      <trkpt lat="45.96722" lon="4.71639">
        <ele>190</ele>
        <time>2018-04-21T11:04:29Z</time>
      </trkpt>
      <trkpt lat="45.96715" lon="4.71639">
        <ele>190</ele>
        <time>2018-04-21T11:04:30Z</time>
      </trkpt>
      <trkpt lat="45.96708" lon="4.71638">
        <ele>190</ele>
        <time>2018-04-21T11:04:31Z</time>
      </trkpt>
      <trkpt lat="45.96701" lon="4.71636">
        <ele>190</ele>
        <time>2018-04-21T11:04:32Z</time>
      </trkpt>
      <trkpt lat="45.96695" lon="4.71635">
        <ele>190</ele>
        <time>2018-04-21T11:04:33Z</time>
      </trkpt>
      <trkpt lat="45.96689" lon="4.71634">
        <ele>190</ele>
        <time>2018-04-21T11:04:34Z</time>
      </trkpt>
      <trkpt lat="45.96681" lon="4.71634">
        <ele>190</ele>
        <time>2018-04-21T11:04:35Z</time>
      </trkpt>
      <trkpt lat="45.96674" lon="4.71633">
        <ele>190</ele>
        <time>2018-04-21T11:04:36Z</time>
      </trkpt>
      <trkpt lat="45.96669" lon="4.7163">
        <ele>190</ele>
        <time>2018-04-21T11:04:37Z</time>
      </trkpt>
      <trkpt lat="45.96661" lon="4.71632">
        <ele>188</ele>
        <time>2018-04-21T11:04:38Z</time>
      </trkpt>
      <trkpt lat="45.96654" lon="4.71632">
        <ele>188</ele>
        <time>2018-04-21T11:04:39Z</time>
      </trkpt>
      <trkpt lat="45.96647" lon="4.71631">
        <ele>188</ele>
        <time>2018-04-21T11:04:40Z</time>
      </trkpt>
      <trkpt lat="45.96639" lon="4.71631">
        <ele>188</ele>
        <time>2018-04-21T11:04:41Z</time>
      </trkpt>
      <trkpt lat="45.96632" lon="4.7163">
        <ele>188</ele>
        <time>2018-04-21T11:04:42Z</time>
      </trkpt>
      <trkpt lat="45.96626" lon="4.71629">
        <ele>188</ele>
        <time>2018-04-21T11:04:43Z</time>
      </trkpt>
      <trkpt lat="45.96618" lon="4.71627">
        <ele>188</ele>
        <time>2018-04-21T11:04:44Z</time>
      </trkpt>
      <trkpt lat="45.96611" lon="4.71626">
        <ele>187</ele>
        <time>2018-04-21T11:04:45Z</time>
      </trkpt>
      <trkpt lat="45.96605" lon="4.71626">
        <ele>187</ele>
        <time>2018-04-21T11:04:46Z</time>
      </trkpt>
      <trkpt lat="45.96598" lon="4.71624">
        <ele>187</ele>
        <time>2018-04-21T11:04:47Z</time>
      </trkpt>
      <trkpt lat="45.96591" lon="4.71623">
        <ele>187</ele>
        <time>2018-04-21T11:04:48Z</time>
      </trkpt>
      <trkpt lat="45.96585" lon="4.71622">
        <ele>187</ele>
        <time>2018-04-21T11:04:49Z</time>
      </trkpt>
      <trkpt lat="45.96579" lon="4.7162">
        <ele>185</ele>
        <time>2018-04-21T11:04:50Z</time>
      </trkpt>
      <trkpt lat="45.96573" lon="4.71619">
        <ele>185</ele>
        <time>2018-04-21T11:04:51Z</time>
      </trkpt>
      <trkpt lat="45.96566" lon="4.71618">
        <ele>185</ele>
        <time>2018-04-21T11:04:52Z</time>
      </trkpt>
      <trkpt lat="45.9656" lon="4.71618">
        <ele>185</ele>
        <time>2018-04-21T11:04:53Z</time>
      </trkpt>
      <trkpt lat="45.96555" lon="4.71616">
        <ele>185</ele>
        <time>2018-04-21T11:04:54Z</time>
      </trkpt>
      <trkpt lat="45.9655" lon="4.71613">
        <ele>185</ele>
        <time>2018-04-21T11:04:55Z</time>
      </trkpt>
      <trkpt lat="45.96544" lon="4.71607">
        <ele>185</ele>
        <time>2018-04-21T11:04:56Z</time>
      </trkpt>
      <trkpt lat="45.96538" lon="4.71601">
        <ele>185</ele>
        <time>2018-04-21T11:04:57Z</time>
      </trkpt>
      <trkpt lat="45.96534" lon="4.71601">
        <ele>185</ele>
        <time>2018-04-21T11:04:58Z</time>
      </trkpt>
      <trkpt lat="45.96527" lon="4.71601">
        <ele>185</ele>
        <time>2018-04-21T11:04:59Z</time>
      </trkpt>
      <trkpt lat="45.96524" lon="4.71602">
        <ele>185</ele>
        <time>2018-04-21T11:05:00Z</time>
      </trkpt>
      <trkpt lat="45.96517" lon="4.71606">
        <ele>184</ele>
        <time>2018-04-21T11:05:01Z</time>
      </trkpt>
      <trkpt lat="45.96512" lon="4.71605">
        <ele>184</ele>
        <time>2018-04-21T11:05:02Z</time>
      </trkpt>
      <trkpt lat="45.96505" lon="4.71604">
        <ele>184</ele>
        <time>2018-04-21T11:05:03Z</time>
      </trkpt>
      <trkpt lat="45.96498" lon="4.71603">
        <ele>184</ele>
        <time>2018-04-21T11:05:04Z</time>
      </trkpt>
      <trkpt lat="45.96491" lon="4.71601">
        <ele>184</ele>
        <time>2018-04-21T11:05:05Z</time>
      </trkpt>
      <trkpt lat="45.96483" lon="4.71604">
        <ele>183</ele>
        <time>2018-04-21T11:05:06Z</time>
      </trkpt>
      <trkpt lat="45.96475" lon="4.71604">
        <ele>183</ele>
        <time>2018-04-21T11:05:07Z</time>
      </trkpt>
      <trkpt lat="45.96468" lon="4.71602">
        <ele>183</ele>
        <time>2018-04-21T11:05:08Z</time>
      </trkpt>
      <trkpt lat="45.96461" lon="4.71601">
        <ele>183</ele>
        <time>2018-04-21T11:05:09Z</time>
      </trkpt>
      <trkpt lat="45.96453" lon="4.71601">
        <ele>183</ele>
        <time>2018-04-21T11:05:10Z</time>
      </trkpt>
      <trkpt lat="45.96446" lon="4.71599">
        <ele>183</ele>
        <time>2018-04-21T11:05:11Z</time>
      </trkpt>
      <trkpt lat="45.96439" lon="4.71597">
        <ele>183</ele>
        <time>2018-04-21T11:05:12Z</time>
      </trkpt>
      <trkpt lat="45.96432" lon="4.71597">
        <ele>184</ele>
        <time>2018-04-21T11:05:13Z</time>
      </trkpt>
      <trkpt lat="45.96424" lon="4.71595">
        <ele>184</ele>
        <time>2018-04-21T11:05:14Z</time>
      </trkpt>
      <trkpt lat="45.96417" lon="4.71594">
        <ele>184</ele>
        <time>2018-04-21T11:05:15Z</time>
      </trkpt>
      <trkpt lat="45.9641" lon="4.71592">
        <ele>184</ele>
        <time>2018-04-21T11:05:16Z</time>
      </trkpt>
      <trkpt lat="45.96402" lon="4.71591">
        <ele>183</ele>
        <time>2018-04-21T11:05:17Z</time>
      </trkpt>
      <trkpt lat="45.96395" lon="4.71591">
        <ele>183</ele>
        <time>2018-04-21T11:05:18Z</time>
      </trkpt>
      <trkpt lat="45.96388" lon="4.7159">
        <ele>183</ele>
        <time>2018-04-21T11:05:19Z</time>
      </trkpt>
      <trkpt lat="45.96382" lon="4.71588">
        <ele>183</ele>
        <time>2018-04-21T11:05:20Z</time>
      </trkpt>
      <trkpt lat="45.96376" lon="4.71587">
        <ele>182</ele>
        <time>2018-04-21T11:05:21Z</time>
      </trkpt>
      <trkpt lat="45.96369" lon="4.71586">
        <ele>182</ele>
        <time>2018-04-21T11:05:22Z</time>
      </trkpt>
      <trkpt lat="45.96362" lon="4.71585">
        <ele>182</ele>
        <time>2018-04-21T11:05:23Z</time>
      </trkpt>
      <trkpt lat="45.96356" lon="4.71584">
        <ele>182</ele>
        <time>2018-04-21T11:05:24Z</time>
      </trkpt>
      <trkpt lat="45.96349" lon="4.71583">
        <ele>185</ele>
        <time>2018-04-21T11:05:25Z</time>
      </trkpt>
      <trkpt lat="45.96343" lon="4.71582">
        <ele>184</ele>
        <time>2018-04-21T11:05:26Z</time>
      </trkpt>
      <trkpt lat="45.96338" lon="4.71579">
        <ele>184</ele>
        <time>2018-04-21T11:05:27Z</time>
      </trkpt>
      <trkpt lat="45.96332" lon="4.71578">
        <ele>183</ele>
        <time>2018-04-21T11:05:28Z</time>
      </trkpt>
      <trkpt lat="45.96326" lon="4.71579">
        <ele>184</ele>
        <time>2018-04-21T11:05:29Z</time>
      </trkpt>
      <trkpt lat="45.9632" lon="4.71579">
        <ele>184</ele>
        <time>2018-04-21T11:05:30Z</time>
      </trkpt>
      <trkpt lat="45.96314" lon="4.71578">
        <ele>184</ele>
        <time>2018-04-21T11:05:31Z</time>
      </trkpt>
      <trkpt lat="45.96308" lon="4.71576">
        <ele>184</ele>
        <time>2018-04-21T11:05:32Z</time>
      </trkpt>
      <trkpt lat="45.96302" lon="4.71575">
        <ele>184</ele>
        <time>2018-04-21T11:05:33Z</time>
      </trkpt>
      <trkpt lat="45.96296" lon="4.71574">
        <ele>184</ele>
        <time>2018-04-21T11:05:34Z</time>
      </trkpt>
      <trkpt lat="45.96291" lon="4.71574">
        <ele>184</ele>
        <time>2018-04-21T11:05:35Z</time>
      </trkpt>
      <trkpt lat="45.96286" lon="4.71572">
        <ele>184</ele>
        <time>2018-04-21T11:05:36Z</time>
      </trkpt>
      <trkpt lat="45.96278" lon="4.71571">
        <ele>184</ele>
        <time>2018-04-21T11:05:37Z</time>
      </trkpt>
      <trkpt lat="45.96272" lon="4.7157">
        <ele>184</ele>
        <time>2018-04-21T11:05:38Z</time>
      </trkpt>
      <trkpt lat="45.96266" lon="4.7157">
        <ele>183</ele>
        <time>2018-04-21T11:05:39Z</time>
      </trkpt>
      <trkpt lat="45.9626" lon="4.71569">
        <ele>183</ele>
        <time>2018-04-21T11:05:40Z</time>
      </trkpt>
      <trkpt lat="45.96254" lon="4.71568">
        <ele>183</ele>
        <time>2018-04-21T11:05:41Z</time>
      </trkpt>
      <trkpt lat="45.96248" lon="4.71566">
        <ele>183</ele>
        <time>2018-04-21T11:05:42Z</time>
      </trkpt>
      <trkpt lat="45.96241" lon="4.71565">
        <ele>183</ele>
        <time>2018-04-21T11:05:43Z</time>
      </trkpt>
      <trkpt lat="45.96236" lon="4.71564">
        <ele>183</ele>
        <time>2018-04-21T11:05:44Z</time>
      </trkpt>
      <trkpt lat="45.9623" lon="4.71563">
        <ele>183</ele>
        <time>2018-04-21T11:05:45Z</time>
      </trkpt>
      <trkpt lat="45.96224" lon="4.71563">
        <ele>183</ele>
        <time>2018-04-21T11:05:46Z</time>
      </trkpt>
      <trkpt lat="45.96218" lon="4.7156">
        <ele>183</ele>
        <time>2018-04-21T11:05:47Z</time>
      </trkpt>
      <trkpt lat="45.96212" lon="4.71559">
        <ele>184</ele>
        <time>2018-04-21T11:05:48Z</time>
      </trkpt>
      <trkpt lat="45.96208" lon="4.71556">
        <ele>184</ele>
        <time>2018-04-21T11:05:49Z</time>
      </trkpt>
      <trkpt lat="45.96202" lon="4.71555">
        <ele>184</ele>
        <time>2018-04-21T11:05:50Z</time>
      </trkpt>
      <trkpt lat="45.96196" lon="4.71554">
        <ele>184</ele>
        <time>2018-04-21T11:05:51Z</time>
      </trkpt>
      <trkpt lat="45.96191" lon="4.71554">
        <ele>184</ele>
        <time>2018-04-21T11:05:52Z</time>
      </trkpt>
      <trkpt lat="45.96182" lon="4.71554">
        <ele>183</ele>
        <time>2018-04-21T11:05:53Z</time>
      </trkpt>
      <trkpt lat="45.96178" lon="4.71553">
        <ele>183</ele>
        <time>2018-04-21T11:05:54Z</time>
      </trkpt>
      <trkpt lat="45.96172" lon="4.7155">
        <ele>184</ele>
        <time>2018-04-21T11:05:55Z</time>
      </trkpt>
      <trkpt lat="45.96167" lon="4.71549">
        <ele>184</ele>
        <time>2018-04-21T11:05:56Z</time>
      </trkpt>
      <trkpt lat="45.96161" lon="4.71549">
        <ele>184</ele>
        <time>2018-04-21T11:05:57Z</time>
      </trkpt>
      <trkpt lat="45.96154" lon="4.71549">
        <ele>184</ele>
        <time>2018-04-21T11:05:58Z</time>
      </trkpt>
      <trkpt lat="45.96147" lon="4.71549">
        <ele>184</ele>
        <time>2018-04-21T11:05:59Z</time>
      </trkpt>
      <trkpt lat="45.96142" lon="4.71548">
        <ele>184</ele>
        <time>2018-04-21T11:06:00Z</time>
      </trkpt>
      <trkpt lat="45.96136" lon="4.71548">
        <ele>184</ele>
        <time>2018-04-21T11:06:01Z</time>
      </trkpt>
      <trkpt lat="45.96129" lon="4.71546">
        <ele>185</ele>
        <time>2018-04-21T11:06:02Z</time>
      </trkpt>
      <trkpt lat="45.96123" lon="4.71545">
        <ele>185</ele>
        <time>2018-04-21T11:06:03Z</time>
      </trkpt>
      <trkpt lat="45.96117" lon="4.71545">
        <ele>185</ele>
        <time>2018-04-21T11:06:04Z</time>
      </trkpt>
      <trkpt lat="45.96111" lon="4.71544">
        <ele>185</ele>
        <time>2018-04-21T11:06:05Z</time>
      </trkpt>
      <trkpt lat="45.96105" lon="4.71542">
        <ele>185</ele>
        <time>2018-04-21T11:06:06Z</time>
      </trkpt>
      <trkpt lat="45.96098" lon="4.71543">
        <ele>185</ele>
        <time>2018-04-21T11:06:07Z</time>
      </trkpt>
      <trkpt lat="45.96092" lon="4.71541">
        <ele>185</ele>
        <time>2018-04-21T11:06:08Z</time>
      </trkpt>
      <trkpt lat="45.96086" lon="4.7154">
        <ele>185</ele>
        <time>2018-04-21T11:06:09Z</time>
      </trkpt>
      <trkpt lat="45.9608" lon="4.7154">
        <ele>185</ele>
        <time>2018-04-21T11:06:10Z</time>
      </trkpt>
      <trkpt lat="45.96074" lon="4.71538">
        <ele>185</ele>
        <time>2018-04-21T11:06:11Z</time>
      </trkpt>
      <trkpt lat="45.96067" lon="4.71537">
        <ele>186</ele>
        <time>2018-04-21T11:06:12Z</time>
      </trkpt>
      <trkpt lat="45.96061" lon="4.71535">
        <ele>186</ele>
        <time>2018-04-21T11:06:13Z</time>
      </trkpt>
      <trkpt lat="45.96055" lon="4.71533">
        <ele>186</ele>
        <time>2018-04-21T11:06:14Z</time>
      </trkpt>
      <trkpt lat="45.9605" lon="4.71531">
        <ele>186</ele>
        <time>2018-04-21T11:06:15Z</time>
      </trkpt>
      <trkpt lat="45.96044" lon="4.71529">
        <ele>186</ele>
        <time>2018-04-21T11:06:16Z</time>
      </trkpt>
      <trkpt lat="45.96037" lon="4.71528">
        <ele>186</ele>
        <time>2018-04-21T11:06:17Z</time>
      </trkpt>
      <trkpt lat="45.96031" lon="4.71527">
        <ele>186</ele>
        <time>2018-04-21T11:06:18Z</time>
      </trkpt>
      <trkpt lat="45.96023" lon="4.71529">
        <ele>186</ele>
        <time>2018-04-21T11:06:19Z</time>
      </trkpt>
      <trkpt lat="45.96017" lon="4.71528">
        <ele>186</ele>
        <time>2018-04-21T11:06:20Z</time>
      </trkpt>
      <trkpt lat="45.96011" lon="4.71526">
        <ele>186</ele>
        <time>2018-04-21T11:06:21Z</time>
      </trkpt>
      <trkpt lat="45.96004" lon="4.71524">
        <ele>186</ele>
        <time>2018-04-21T11:06:22Z</time>
      </trkpt>
      <trkpt lat="45.95998" lon="4.71522">
        <ele>185</ele>
        <time>2018-04-21T11:06:23Z</time>
      </trkpt>
      <trkpt lat="45.95991" lon="4.71519">
        <ele>185</ele>
        <time>2018-04-21T11:06:24Z</time>
      </trkpt>
      <trkpt lat="45.95985" lon="4.71517">
        <ele>185</ele>
        <time>2018-04-21T11:06:25Z</time>
      </trkpt>
      <trkpt lat="45.95978" lon="4.71517">
        <ele>185</ele>
        <time>2018-04-21T11:06:26Z</time>
      </trkpt>
      <trkpt lat="45.95972" lon="4.71518">
        <ele>185</ele>
        <time>2018-04-21T11:06:27Z</time>
      </trkpt>
      <trkpt lat="45.95965" lon="4.71521">
        <ele>184</ele>
        <time>2018-04-21T11:06:28Z</time>
      </trkpt>
      <trkpt lat="45.95959" lon="4.71522">
        <ele>184</ele>
        <time>2018-04-21T11:06:29Z</time>
      </trkpt>
      <trkpt lat="45.95952" lon="4.71524">
        <ele>184</ele>
        <time>2018-04-21T11:06:30Z</time>
      </trkpt>
      <trkpt lat="45.95944" lon="4.71524">
        <ele>184</ele>
        <time>2018-04-21T11:06:31Z</time>
      </trkpt>
      <trkpt lat="45.95936" lon="4.71524">
        <ele>184</ele>
        <time>2018-04-21T11:06:32Z</time>
      </trkpt>
      <trkpt lat="45.95929" lon="4.71524">
        <ele>184</ele>
        <time>2018-04-21T11:06:33Z</time>
      </trkpt>
      <trkpt lat="45.95921" lon="4.71524">
        <ele>184</ele>
        <time>2018-04-21T11:06:34Z</time>
      </trkpt>
      <trkpt lat="45.95914" lon="4.71524">
        <ele>182</ele>
        <time>2018-04-21T11:06:35Z</time>
      </trkpt>
      <trkpt lat="45.95907" lon="4.71524">
        <ele>182</ele>
        <time>2018-04-21T11:06:36Z</time>
      </trkpt>
      <trkpt lat="45.95899" lon="4.71523">
        <ele>182</ele>
        <time>2018-04-21T11:06:37Z</time>
      </trkpt>
      <trkpt lat="45.95892" lon="4.71523">
        <ele>182</ele>
        <time>2018-04-21T11:06:38Z</time>
      </trkpt>
      <trkpt lat="45.95885" lon="4.71523">
        <ele>182</ele>
        <time>2018-04-21T11:06:39Z</time>
      </trkpt>
      <trkpt lat="45.95879" lon="4.71523">
        <ele>182</ele>
        <time>2018-04-21T11:06:40Z</time>
      </trkpt>
      <trkpt lat="45.95872" lon="4.71523">
        <ele>182</ele>
        <time>2018-04-21T11:06:41Z</time>
      </trkpt>
      <trkpt lat="45.95864" lon="4.71523">
        <ele>182</ele>
        <time>2018-04-21T11:06:42Z</time>
      </trkpt>
      <trkpt lat="45.95857" lon="4.71523">
        <ele>182</ele>
        <time>2018-04-21T11:06:43Z</time>
      </trkpt>
      <trkpt lat="45.9585" lon="4.71523">
        <ele>182</ele>
        <time>2018-04-21T11:06:44Z</time>
      </trkpt>
      <trkpt lat="45.95843" lon="4.71523">
        <ele>182</ele>
        <time>2018-04-21T11:06:45Z</time>
      </trkpt>
      <trkpt lat="45.95836" lon="4.71522">
        <ele>182</ele>
        <time>2018-04-21T11:06:46Z</time>
      </trkpt>
      <trkpt lat="45.95828" lon="4.71522">
        <ele>182</ele>
        <time>2018-04-21T11:06:47Z</time>
      </trkpt>
      <trkpt lat="45.95821" lon="4.71521">
        <ele>182</ele>
        <time>2018-04-21T11:06:48Z</time>
      </trkpt>
      <trkpt lat="45.95814" lon="4.7152">
        <ele>181</ele>
        <time>2018-04-21T11:06:49Z</time>
      </trkpt>
      <trkpt lat="45.95807" lon="4.7152">
        <ele>181</ele>
        <time>2018-04-21T11:06:50Z</time>
      </trkpt>
      <trkpt lat="45.958" lon="4.71519">
        <ele>181</ele>
        <time>2018-04-21T11:06:51Z</time>
      </trkpt>
      <trkpt lat="45.95793" lon="4.71519">
        <ele>181</ele>
        <time>2018-04-21T11:06:52Z</time>
      </trkpt>
      <trkpt lat="45.95785" lon="4.71519">
        <ele>181</ele>
        <time>2018-04-21T11:06:53Z</time>
      </trkpt>
      <trkpt lat="45.95778" lon="4.71519">
        <ele>181</ele>
        <time>2018-04-21T11:06:54Z</time>
      </trkpt>
      <trkpt lat="45.95771" lon="4.71517">
        <ele>181</ele>
        <time>2018-04-21T11:06:55Z</time>
      </trkpt>
      <trkpt lat="45.95763" lon="4.71516">
        <ele>181</ele>
        <time>2018-04-21T11:06:56Z</time>
      </trkpt>
      <trkpt lat="45.95756" lon="4.71517">
        <ele>181</ele>
        <time>2018-04-21T11:06:57Z</time>
      </trkpt>
      <trkpt lat="45.95748" lon="4.71517">
        <ele>181</ele>
        <time>2018-04-21T11:06:58Z</time>
      </trkpt>
      <trkpt lat="45.95741" lon="4.71516">
        <ele>181</ele>
        <time>2018-04-21T11:06:59Z</time>
      </trkpt>
      <trkpt lat="45.95733" lon="4.71515">
        <ele>181</ele>
        <time>2018-04-21T11:07:00Z</time>
      </trkpt>
      <trkpt lat="45.95726" lon="4.71514">
        <ele>180</ele>
        <time>2018-04-21T11:07:01Z</time>
      </trkpt>
      <trkpt lat="45.9572" lon="4.71513">
        <ele>180</ele>
        <time>2018-04-21T11:07:02Z</time>
      </trkpt>
      <trkpt lat="45.95712" lon="4.71512">
        <ele>180</ele>
        <time>2018-04-21T11:07:03Z</time>
      </trkpt>
      <trkpt lat="45.95704" lon="4.7151">
        <ele>180</ele>
        <time>2018-04-21T11:07:04Z</time>
      </trkpt>
      <trkpt lat="45.95696" lon="4.71509">
        <ele>180</ele>
        <time>2018-04-21T11:07:05Z</time>
      </trkpt>
      <trkpt lat="45.95689" lon="4.7151">
        <ele>181</ele>
        <time>2018-04-21T11:07:06Z</time>
      </trkpt>
      <trkpt lat="45.95682" lon="4.71509">
        <ele>181</ele>
        <time>2018-04-21T11:07:07Z</time>
      </trkpt>
      <trkpt lat="45.95675" lon="4.71508">
        <ele>181</ele>
        <time>2018-04-21T11:07:08Z</time>
      </trkpt>
      <trkpt lat="45.95668" lon="4.71508">
        <ele>181</ele>
        <time>2018-04-21T11:07:09Z</time>
      </trkpt>
      <trkpt lat="45.95661" lon="4.71507">
        <ele>181</ele>
        <time>2018-04-21T11:07:10Z</time>
      </trkpt>
      <trkpt lat="45.95653" lon="4.71506">
        <ele>181</ele>
        <time>2018-04-21T11:07:11Z</time>
      </trkpt>
      <trkpt lat="45.95646" lon="4.71506">
        <ele>180</ele>
        <time>2018-04-21T11:07:12Z</time>
      </trkpt>
      <trkpt lat="45.95639" lon="4.71505">
        <ele>180</ele>
        <time>2018-04-21T11:07:13Z</time>
      </trkpt>
      <trkpt lat="45.95632" lon="4.71505">
        <ele>180</ele>
        <time>2018-04-21T11:07:14Z</time>
      </trkpt>
      <trkpt lat="45.95625" lon="4.71504">
        <ele>180</ele>
        <time>2018-04-21T11:07:15Z</time>
      </trkpt>
      <trkpt lat="45.95617" lon="4.71504">
        <ele>179</ele>
        <time>2018-04-21T11:07:16Z</time>
      </trkpt>
      <trkpt lat="45.95611" lon="4.71504">
        <ele>179</ele>
        <time>2018-04-21T11:07:17Z</time>
      </trkpt>
      <trkpt lat="45.95604" lon="4.71503">
        <ele>179</ele>
        <time>2018-04-21T11:07:18Z</time>
      </trkpt>
      <trkpt lat="45.95596" lon="4.71503">
        <ele>180</ele>
        <time>2018-04-21T11:07:19Z</time>
      </trkpt>
      <trkpt lat="45.95588" lon="4.71503">
        <ele>180</ele>
        <time>2018-04-21T11:07:20Z</time>
      </trkpt>
      <trkpt lat="45.9558" lon="4.71503">
        <ele>180</ele>
        <time>2018-04-21T11:07:21Z</time>
      </trkpt>
      <trkpt lat="45.95573" lon="4.71502">
        <ele>179</ele>
        <time>2018-04-21T11:07:22Z</time>
      </trkpt>
      <trkpt lat="45.95565" lon="4.71503">
        <ele>178</ele>
        <time>2018-04-21T11:07:23Z</time>
      </trkpt>
      <trkpt lat="45.95557" lon="4.71503">
        <ele>178</ele>
        <time>2018-04-21T11:07:24Z</time>
      </trkpt>
      <trkpt lat="45.95551" lon="4.71498">
        <ele>179</ele>
        <time>2018-04-21T11:07:25Z</time>
      </trkpt>
      <trkpt lat="45.95543" lon="4.71498">
        <ele>179</ele>
        <time>2018-04-21T11:07:26Z</time>
      </trkpt>
      <trkpt lat="45.95534" lon="4.71499">
        <ele>179</ele>
        <time>2018-04-21T11:07:27Z</time>
      </trkpt>
      <trkpt lat="45.95526" lon="4.71498">
        <ele>178</ele>
        <time>2018-04-21T11:07:28Z</time>
      </trkpt>
      <trkpt lat="45.95518" lon="4.71497">
        <ele>178</ele>
        <time>2018-04-21T11:07:29Z</time>
      </trkpt>
      <trkpt lat="45.95509" lon="4.71498">
        <ele>178</ele>
        <time>2018-04-21T11:07:30Z</time>
      </trkpt>
      <trkpt lat="45.95501" lon="4.71498">
        <ele>177</ele>
        <time>2018-04-21T11:07:31Z</time>
      </trkpt>
      <trkpt lat="45.95492" lon="4.71498">
        <ele>177</ele>
        <time>2018-04-21T11:07:32Z</time>
      </trkpt>
      <trkpt lat="45.95485" lon="4.71497">
        <ele>177</ele>
        <time>2018-04-21T11:07:33Z</time>
      </trkpt>
      <trkpt lat="45.95477" lon="4.71497">
        <ele>176</ele>
        <time>2018-04-21T11:07:34Z</time>
      </trkpt>
      <trkpt lat="45.95469" lon="4.71497">
        <ele>176</ele>
        <time>2018-04-21T11:07:35Z</time>
      </trkpt>
      <trkpt lat="45.95461" lon="4.71497">
        <ele>176</ele>
        <time>2018-04-21T11:07:36Z</time>
      </trkpt>
      <trkpt lat="45.95454" lon="4.71497">
        <ele>176</ele>
        <time>2018-04-21T11:07:37Z</time>
      </trkpt>
      <trkpt lat="45.95448" lon="4.71495">
        <ele>176</ele>
        <time>2018-04-21T11:07:38Z</time>
      </trkpt>
      <trkpt lat="45.95441" lon="4.71494">
        <ele>175</ele>
        <time>2018-04-21T11:07:39Z</time>
      </trkpt>
      <trkpt lat="45.95434" lon="4.71493">
        <ele>175</ele>
        <time>2018-04-21T11:07:40Z</time>
      </trkpt>
      <trkpt lat="45.95427" lon="4.71493">
        <ele>175</ele>
        <time>2018-04-21T11:07:41Z</time>
      </trkpt>
      <trkpt lat="45.95419" lon="4.71493">
        <ele>175</ele>
        <time>2018-04-21T11:07:42Z</time>
      </trkpt>
      <trkpt lat="45.95412" lon="4.71493">
        <ele>174</ele>
        <time>2018-04-21T11:07:43Z</time>
      </trkpt>
      <trkpt lat="45.95404" lon="4.71492">
        <ele>175</ele>
        <time>2018-04-21T11:07:44Z</time>
      </trkpt>
      <trkpt lat="45.95397" lon="4.71492">
        <ele>175</ele>
        <time>2018-04-21T11:07:45Z</time>
      </trkpt>
      <trkpt lat="45.9539" lon="4.71491">
        <ele>175</ele>
        <time>2018-04-21T11:07:46Z</time>
      </trkpt>
      <trkpt lat="45.95383" lon="4.7149">
        <ele>175</ele>
        <time>2018-04-21T11:07:47Z</time>
      </trkpt>
      <trkpt lat="45.95376" lon="4.71489">
        <ele>175</ele>
        <time>2018-04-21T11:07:48Z</time>
      </trkpt>
      <trkpt lat="45.95368" lon="4.71489">
        <ele>175</ele>
        <time>2018-04-21T11:07:49Z</time>
      </trkpt>
      <trkpt lat="45.95361" lon="4.71488">
        <ele>175</ele>
        <time>2018-04-21T11:07:50Z</time>
      </trkpt>
      <trkpt lat="45.95353" lon="4.71487">
        <ele>175</ele>
        <time>2018-04-21T11:07:51Z</time>
      </trkpt>
      <trkpt lat="45.95346" lon="4.71486">
        <ele>175</ele>
        <time>2018-04-21T11:07:52Z</time>
      </trkpt>
      <trkpt lat="45.95339" lon="4.71487">
        <ele>175</ele>
        <time>2018-04-21T11:07:53Z</time>
      </trkpt>
      <trkpt lat="45.95332" lon="4.71486">
        <ele>175</ele>
        <time>2018-04-21T11:07:54Z</time>
      </trkpt>
      <trkpt lat="45.95324" lon="4.71486">
        <ele>175</ele>
        <time>2018-04-21T11:07:55Z</time>
      </trkpt>
      <trkpt lat="45.95316" lon="4.71484">
        <ele>175</ele>
        <time>2018-04-21T11:07:56Z</time>
      </trkpt>
      <trkpt lat="45.95309" lon="4.71482">
        <ele>175</ele>
        <time>2018-04-21T11:07:57Z</time>
      </trkpt>
      <trkpt lat="45.95303" lon="4.71482">
        <ele>175</ele>
        <time>2018-04-21T11:07:58Z</time>
      </trkpt>
      <trkpt lat="45.95296" lon="4.71481">
        <ele>176</ele>
        <time>2018-04-21T11:07:59Z</time>
      </trkpt>
      <trkpt lat="45.95289" lon="4.7148">
        <ele>176</ele>
        <time>2018-04-21T11:08:00Z</time>
      </trkpt>
      <trkpt lat="45.95283" lon="4.71478">
        <ele>176</ele>
        <time>2018-04-21T11:08:01Z</time>
      </trkpt>
      <trkpt lat="45.95275" lon="4.71477">
        <ele>176</ele>
        <time>2018-04-21T11:08:02Z</time>
      </trkpt>
      <trkpt lat="45.95267" lon="4.71477">
        <ele>176</ele>
        <time>2018-04-21T11:08:03Z</time>
      </trkpt>
      <trkpt lat="45.9526" lon="4.71476">
        <ele>176</ele>
        <time>2018-04-21T11:08:04Z</time>
      </trkpt>
      <trkpt lat="45.95252" lon="4.71476">
        <ele>176</ele>
        <time>2018-04-21T11:08:05Z</time>
      </trkpt>
      <trkpt lat="45.95244" lon="4.71477">
        <ele>177</ele>
        <time>2018-04-21T11:08:06Z</time>
      </trkpt>
      <trkpt lat="45.95236" lon="4.71477">
        <ele>177</ele>
        <time>2018-04-21T11:08:07Z</time>
      </trkpt>
      <trkpt lat="45.9523" lon="4.71478">
        <ele>177</ele>
        <time>2018-04-21T11:08:08Z</time>
      </trkpt>
      <trkpt lat="45.95223" lon="4.71478">
        <ele>177</ele>
        <time>2018-04-21T11:08:09Z</time>
      </trkpt>
      <trkpt lat="45.95215" lon="4.71478">
        <ele>177</ele>
        <time>2018-04-21T11:08:10Z</time>
      </trkpt>
      <trkpt lat="45.95208" lon="4.71478">
        <ele>177</ele>
        <time>2018-04-21T11:08:11Z</time>
      </trkpt>
      <trkpt lat="45.95201" lon="4.71478">
        <ele>177</ele>
        <time>2018-04-21T11:08:12Z</time>
      </trkpt>
      <trkpt lat="45.95195" lon="4.71478">
        <ele>177</ele>
        <time>2018-04-21T11:08:13Z</time>
      </trkpt>
      <trkpt lat="45.95188" lon="4.71477">
        <ele>177</ele>
        <time>2018-04-21T11:08:14Z</time>
      </trkpt>
      <trkpt lat="45.95182" lon="4.71476">
        <ele>177</ele>
        <time>2018-04-21T11:08:15Z</time>
      </trkpt>
      <trkpt lat="45.95176" lon="4.71477">
        <ele>177</ele>
        <time>2018-04-21T11:08:16Z</time>
      </trkpt>
      <trkpt lat="45.9517" lon="4.71476">
        <ele>177</ele>
        <time>2018-04-21T11:08:17Z</time>
      </trkpt>
      <trkpt lat="45.95163" lon="4.71475">
        <ele>178</ele>
        <time>2018-04-21T11:08:18Z</time>
      </trkpt>
      <trkpt lat="45.95156" lon="4.71475">
        <ele>178</ele>
        <time>2018-04-21T11:08:19Z</time>
      </trkpt>
      <trkpt lat="45.95149" lon="4.71474">
        <ele>178</ele>
        <time>2018-04-21T11:08:20Z</time>
      </trkpt>
      <trkpt lat="45.95144" lon="4.71474">
        <ele>178</ele>
        <time>2018-04-21T11:08:21Z</time>
      </trkpt>
      <trkpt lat="45.95137" lon="4.71475">
        <ele>178</ele>
        <time>2018-04-21T11:08:22Z</time>
      </trkpt>
      <trkpt lat="45.95132" lon="4.71473">
        <ele>178</ele>
        <time>2018-04-21T11:08:23Z</time>
      </trkpt>
      <trkpt lat="45.95126" lon="4.71473">
        <ele>178</ele>
        <time>2018-04-21T11:08:24Z</time>
      </trkpt>
      <trkpt lat="45.95119" lon="4.71472">
        <ele>179</ele>
        <time>2018-04-21T11:08:25Z</time>
      </trkpt>
      <trkpt lat="45.95114" lon="4.71471">
        <ele>179</ele>
        <time>2018-04-21T11:08:26Z</time>
      </trkpt>
      <trkpt lat="45.95109" lon="4.7147">
        <ele>179</ele>
        <time>2018-04-21T11:08:27Z</time>
      </trkpt>
      <trkpt lat="45.95103" lon="4.71469">
        <ele>179</ele>
        <time>2018-04-21T11:08:28Z</time>
      </trkpt>
      <trkpt lat="45.95098" lon="4.71468">
        <ele>179</ele>
        <time>2018-04-21T11:08:29Z</time>
      </trkpt>
      <trkpt lat="45.95093" lon="4.71466">
        <ele>179</ele>
        <time>2018-04-21T11:08:30Z</time>
      </trkpt>
      <trkpt lat="45.95088" lon="4.71465">
        <ele>179</ele>
        <time>2018-04-21T11:08:31Z</time>
      </trkpt>
      <trkpt lat="45.95083" lon="4.71466">
        <ele>181</ele>
        <time>2018-04-21T11:08:32Z</time>
      </trkpt>
      <trkpt lat="45.95078" lon="4.71464">
        <ele>181</ele>
        <time>2018-04-21T11:08:33Z</time>
      </trkpt>
      <trkpt lat="45.95073" lon="4.71464">
        <ele>181</ele>
        <time>2018-04-21T11:08:34Z</time>
      </trkpt>
      <trkpt lat="45.95068" lon="4.71462">
        <ele>181</ele>
        <time>2018-04-21T11:08:35Z</time>
      </trkpt>
      <trkpt lat="45.95059" lon="4.71462">
        <ele>181</ele>
        <time>2018-04-21T11:08:37Z</time>
      </trkpt>
      <trkpt lat="45.95053" lon="4.71462">
        <ele>181</ele>
        <time>2018-04-21T11:08:38Z</time>
      </trkpt>
      <trkpt lat="45.95048" lon="4.71461">
        <ele>182</ele>
        <time>2018-04-21T11:08:39Z</time>
      </trkpt>
      <trkpt lat="45.95043" lon="4.71461">
        <ele>182</ele>
        <time>2018-04-21T11:08:40Z</time>
      </trkpt>
      <trkpt lat="45.95037" lon="4.71461">
        <ele>182</ele>
        <time>2018-04-21T11:08:42Z</time>
      </trkpt>
      <trkpt lat="45.95032" lon="4.71461">
        <ele>182</ele>
        <time>2018-04-21T11:08:43Z</time>
      </trkpt>
      <trkpt lat="45.95027" lon="4.71459">
        <ele>182</ele>
        <time>2018-04-21T11:08:45Z</time>
      </trkpt>
      <trkpt lat="45.9502" lon="4.71461">
        <ele>182</ele>
        <time>2018-04-21T11:08:46Z</time>
      </trkpt>
      <trkpt lat="45.95012" lon="4.71461">
        <ele>182</ele>
        <time>2018-04-21T11:08:48Z</time>
      </trkpt>
      <trkpt lat="45.95009" lon="4.71461">
        <ele>182</ele>
        <time>2018-04-21T11:08:49Z</time>
      </trkpt>
      <trkpt lat="45.95001" lon="4.7146">
        <ele>182</ele>
        <time>2018-04-21T11:08:51Z</time>
      </trkpt>
      <trkpt lat="45.94997" lon="4.71459">
        <ele>183</ele>
        <time>2018-04-21T11:08:52Z</time>
      </trkpt>
      <trkpt lat="45.9499" lon="4.71452">
        <ele>184</ele>
        <time>2018-04-21T11:08:54Z</time>
      </trkpt>
      <trkpt lat="45.94987" lon="4.71447">
        <ele>184</ele>
        <time>2018-04-21T11:08:55Z</time>
      </trkpt>
      <trkpt lat="45.94982" lon="4.71437">
        <ele>185</ele>
        <time>2018-04-21T11:08:57Z</time>
      </trkpt>
      <trkpt lat="45.94977" lon="4.71434">
        <ele>185</ele>
        <time>2018-04-21T11:08:58Z</time>
      </trkpt>
      <trkpt lat="45.94969" lon="4.7143">
        <ele>185</ele>
        <time>2018-04-21T11:09:00Z</time>
      </trkpt>
      <trkpt lat="45.94965" lon="4.7143">
        <ele>185</ele>
        <time>2018-04-21T11:09:01Z</time>
      </trkpt>
      <trkpt lat="45.9496" lon="4.71432">
        <ele>185</ele>
        <time>2018-04-21T11:09:02Z</time>
      </trkpt>
      <trkpt lat="45.94956" lon="4.71435">
        <ele>184</ele>
        <time>2018-04-21T11:09:03Z</time>
      </trkpt>
      <trkpt lat="45.94952" lon="4.7144">
        <ele>184</ele>
        <time>2018-04-21T11:09:04Z</time>
      </trkpt>
      <trkpt lat="45.94948" lon="4.71445">
        <ele>184</ele>
        <time>2018-04-21T11:09:05Z</time>
      </trkpt>
      <trkpt lat="45.94943" lon="4.71451">
        <ele>184</ele>
        <time>2018-04-21T11:09:06Z</time>
      </trkpt>
      <trkpt lat="45.94939" lon="4.71454">
        <ele>184</ele>
        <time>2018-04-21T11:09:07Z</time>
      </trkpt>
      <trkpt lat="45.94933" lon="4.71456">
        <ele>184</ele>
        <time>2018-04-21T11:09:08Z</time>
      </trkpt>
      <trkpt lat="45.94927" lon="4.71457">
        <ele>184</ele>
        <time>2018-04-21T11:09:09Z</time>
      </trkpt>
      <trkpt lat="45.94922" lon="4.71456">
        <ele>184</ele>
        <time>2018-04-21T11:09:10Z</time>
      </trkpt>
      <trkpt lat="45.94916" lon="4.71456">
        <ele>184</ele>
        <time>2018-04-21T11:09:11Z</time>
      </trkpt>
      <trkpt lat="45.94911" lon="4.71453">
        <ele>184</ele>
        <time>2018-04-21T11:09:12Z</time>
      </trkpt>
      <trkpt lat="45.94906" lon="4.71452">
        <ele>184</ele>
        <time>2018-04-21T11:09:13Z</time>
      </trkpt>
      <trkpt lat="45.949" lon="4.71451">
        <ele>184</ele>
        <time>2018-04-21T11:09:14Z</time>
      </trkpt>
      <trkpt lat="45.94895" lon="4.71451">
        <ele>184</ele>
        <time>2018-04-21T11:09:15Z</time>
      </trkpt>
      <trkpt lat="45.94888" lon="4.71452">
        <ele>184</ele>
        <time>2018-04-21T11:09:16Z</time>
      </trkpt>
      <trkpt lat="45.94883" lon="4.71452">
        <ele>184</ele>
        <time>2018-04-21T11:09:17Z</time>
      </trkpt>
      <trkpt lat="45.94877" lon="4.71452">
        <ele>184</ele>
        <time>2018-04-21T11:09:18Z</time>
      </trkpt>
      <trkpt lat="45.94872" lon="4.71451">
        <ele>184</ele>
        <time>2018-04-21T11:09:19Z</time>
      </trkpt>
      <trkpt lat="45.94863" lon="4.7145">
        <ele>184</ele>
        <time>2018-04-21T11:09:21Z</time>
      </trkpt>
      <trkpt lat="45.94857" lon="4.71451">
        <ele>184</ele>
        <time>2018-04-21T11:09:22Z</time>
      </trkpt>
      <trkpt lat="45.94851" lon="4.71452">
        <ele>184</ele>
        <time>2018-04-21T11:09:23Z</time>
      </trkpt>
      <trkpt lat="45.94843" lon="4.71454">
        <ele>184</ele>
        <time>2018-04-21T11:09:24Z</time>
      </trkpt>
      <trkpt lat="45.94837" lon="4.71454">
        <ele>184</ele>
        <time>2018-04-21T11:09:25Z</time>
      </trkpt>
      <trkpt lat="45.94833" lon="4.71455">
        <ele>183</ele>
        <time>2018-04-21T11:09:26Z</time>
      </trkpt>
      <trkpt lat="45.94829" lon="4.71453">
        <ele>183</ele>
        <time>2018-04-21T11:09:27Z</time>
      </trkpt>
      <trkpt lat="45.94824" lon="4.71452">
        <ele>183</ele>
        <time>2018-04-21T11:09:28Z</time>
      </trkpt>
      <trkpt lat="45.94819" lon="4.7145">
        <ele>183</ele>
        <time>2018-04-21T11:09:29Z</time>
      </trkpt>
      <trkpt lat="45.94815" lon="4.71448">
        <ele>184</ele>
        <time>2018-04-21T11:09:30Z</time>
      </trkpt>
      <trkpt lat="45.94814" lon="4.71447">
        <ele>184</ele>
        <time>2018-04-21T11:09:31Z</time>
      </trkpt>
      <trkpt lat="45.94806" lon="4.71447">
        <ele>183</ele>
        <time>2018-04-21T11:09:32Z</time>
      </trkpt>
      <trkpt lat="45.948" lon="4.71448">
        <ele>183</ele>
        <time>2018-04-21T11:09:33Z</time>
      </trkpt>
      <trkpt lat="45.94793" lon="4.71448">
        <ele>183</ele>
        <time>2018-04-21T11:09:34Z</time>
      </trkpt>
      <trkpt lat="45.94788" lon="4.71447">
        <ele>183</ele>
        <time>2018-04-21T11:09:35Z</time>
      </trkpt>
      <trkpt lat="45.94783" lon="4.71449">
        <ele>183</ele>
        <time>2018-04-21T11:09:36Z</time>
      </trkpt>
      <trkpt lat="45.94778" lon="4.71448">
        <ele>183</ele>
        <time>2018-04-21T11:09:37Z</time>
      </trkpt>
      <trkpt lat="45.94774" lon="4.71446">
        <ele>183</ele>
        <time>2018-04-21T11:09:38Z</time>
      </trkpt>
      <trkpt lat="45.9477" lon="4.71446">
        <ele>183</ele>
        <time>2018-04-21T11:09:39Z</time>
      </trkpt>
      <trkpt lat="45.94764" lon="4.71446">
        <ele>184</ele>
        <time>2018-04-21T11:09:40Z</time>
      </trkpt>
      <trkpt lat="45.94758" lon="4.71446">
        <ele>184</ele>
        <time>2018-04-21T11:09:41Z</time>
      </trkpt>
      <trkpt lat="45.94753" lon="4.71445">
        <ele>184</ele>
        <time>2018-04-21T11:09:42Z</time>
      </trkpt>
      <trkpt lat="45.94748" lon="4.71444">
        <ele>183</ele>
        <time>2018-04-21T11:09:43Z</time>
      </trkpt>
      <trkpt lat="45.94741" lon="4.71445">
        <ele>183</ele>
        <time>2018-04-21T11:09:44Z</time>
      </trkpt>
      <trkpt lat="45.94735" lon="4.71445">
        <ele>183</ele>
        <time>2018-04-21T11:09:45Z</time>
      </trkpt>
      <trkpt lat="45.94729" lon="4.71445">
        <ele>182</ele>
        <time>2018-04-21T11:09:46Z</time>
      </trkpt>
      <trkpt lat="45.94723" lon="4.71442">
        <ele>182</ele>
        <time>2018-04-21T11:09:48Z</time>
      </trkpt>
      <trkpt lat="45.94716" lon="4.71442">
        <ele>182</ele>
        <time>2018-04-21T11:09:49Z</time>
      </trkpt>
      <trkpt lat="45.94711" lon="4.71441">
        <ele>182</ele>
        <time>2018-04-21T11:09:50Z</time>
      </trkpt>
      <trkpt lat="45.94703" lon="4.71441">
        <ele>182</ele>
        <time>2018-04-21T11:09:51Z</time>
      </trkpt>
      <trkpt lat="45.94696" lon="4.71441">
        <ele>182</ele>
        <time>2018-04-21T11:09:52Z</time>
      </trkpt>
      <trkpt lat="45.9469" lon="4.71441">
        <ele>182</ele>
        <time>2018-04-21T11:09:53Z</time>
      </trkpt>
      <trkpt lat="45.94685" lon="4.71442">
        <ele>182</ele>
        <time>2018-04-21T11:09:54Z</time>
      </trkpt>
      <trkpt lat="45.9468" lon="4.71441">
        <ele>182</ele>
        <time>2018-04-21T11:09:55Z</time>
      </trkpt>
      <trkpt lat="45.94672" lon="4.71441">
        <ele>182</ele>
        <time>2018-04-21T11:09:56Z</time>
      </trkpt>
      <trkpt lat="45.94665" lon="4.71441">
        <ele>182</ele>
        <time>2018-04-21T11:09:57Z</time>
      </trkpt>
      <trkpt lat="45.94659" lon="4.7144">
        <ele>182</ele>
        <time>2018-04-21T11:09:58Z</time>
      </trkpt>
      <trkpt lat="45.94653" lon="4.7144">
        <ele>182</ele>
        <time>2018-04-21T11:09:59Z</time>
      </trkpt>
      <trkpt lat="45.94646" lon="4.7144">
        <ele>182</ele>
        <time>2018-04-21T11:10:00Z</time>
      </trkpt>
      <trkpt lat="45.9464" lon="4.71438">
        <ele>181</ele>
        <time>2018-04-21T11:10:01Z</time>
      </trkpt>
      <trkpt lat="45.94634" lon="4.71437">
        <ele>181</ele>
        <time>2018-04-21T11:10:02Z</time>
      </trkpt>
      <trkpt lat="45.94628" lon="4.71437">
        <ele>181</ele>
        <time>2018-04-21T11:10:03Z</time>
      </trkpt>
      <trkpt lat="45.94621" lon="4.71435">
        <ele>182</ele>
        <time>2018-04-21T11:10:04Z</time>
      </trkpt>
      <trkpt lat="45.94614" lon="4.71436">
        <ele>182</ele>
        <time>2018-04-21T11:10:05Z</time>
      </trkpt>
      <trkpt lat="45.94607" lon="4.71435">
        <ele>182</ele>
        <time>2018-04-21T11:10:06Z</time>
      </trkpt>
      <trkpt lat="45.946" lon="4.71434">
        <ele>182</ele>
        <time>2018-04-21T11:10:07Z</time>
      </trkpt>
      <trkpt lat="45.94594" lon="4.71435">
        <ele>182</ele>
        <time>2018-04-21T11:10:08Z</time>
      </trkpt>
      <trkpt lat="45.94587" lon="4.71434">
        <ele>183</ele>
        <time>2018-04-21T11:10:09Z</time>
      </trkpt>
      <trkpt lat="45.9458" lon="4.71436">
        <ele>182</ele>
        <time>2018-04-21T11:10:10Z</time>
      </trkpt>
      <trkpt lat="45.94574" lon="4.71436">
        <ele>182</ele>
        <time>2018-04-21T11:10:11Z</time>
      </trkpt>
      <trkpt lat="45.94568" lon="4.71437">
        <ele>182</ele>
        <time>2018-04-21T11:10:12Z</time>
      </trkpt>
      <trkpt lat="45.94561" lon="4.7144">
        <ele>181</ele>
        <time>2018-04-21T11:10:13Z</time>
      </trkpt>
      <trkpt lat="45.94555" lon="4.71442">
        <ele>181</ele>
        <time>2018-04-21T11:10:14Z</time>
      </trkpt>
      <trkpt lat="45.94548" lon="4.71445">
        <ele>181</ele>
        <time>2018-04-21T11:10:15Z</time>
      </trkpt>
      <trkpt lat="45.94541" lon="4.71447">
        <ele>180</ele>
        <time>2018-04-21T11:10:16Z</time>
      </trkpt>
      <trkpt lat="45.94534" lon="4.71451">
        <ele>180</ele>
        <time>2018-04-21T11:10:17Z</time>
      </trkpt>
      <trkpt lat="45.94526" lon="4.71454">
        <ele>180</ele>
        <time>2018-04-21T11:10:18Z</time>
      </trkpt>
      <trkpt lat="45.94519" lon="4.71457">
        <ele>180</ele>
        <time>2018-04-21T11:10:19Z</time>
      </trkpt>
      <trkpt lat="45.94512" lon="4.7146">
        <ele>180</ele>
        <time>2018-04-21T11:10:20Z</time>
      </trkpt>
      <trkpt lat="45.94505" lon="4.71462">
        <ele>180</ele>
        <time>2018-04-21T11:10:21Z</time>
      </trkpt>
      <trkpt lat="45.94498" lon="4.71464">
        <ele>179</ele>
        <time>2018-04-21T11:10:22Z</time>
      </trkpt>
      <trkpt lat="45.94489" lon="4.71468">
        <ele>179</ele>
        <time>2018-04-21T11:10:23Z</time>
      </trkpt>
      <trkpt lat="45.94481" lon="4.71471">
        <ele>179</ele>
        <time>2018-04-21T11:10:24Z</time>
      </trkpt>
      <trkpt lat="45.94473" lon="4.71475">
        <ele>179</ele>
        <time>2018-04-21T11:10:25Z</time>
      </trkpt>
      <trkpt lat="45.94466" lon="4.71478">
        <ele>179</ele>
        <time>2018-04-21T11:10:26Z</time>
      </trkpt>
      <trkpt lat="45.94458" lon="4.7148">
        <ele>179</ele>
        <time>2018-04-21T11:10:27Z</time>
      </trkpt>
      <trkpt lat="45.94451" lon="4.71482">
        <ele>179</ele>
        <time>2018-04-21T11:10:28Z</time>
      </trkpt>
      <trkpt lat="45.94444" lon="4.71484">
        <ele>179</ele>
        <time>2018-04-21T11:10:29Z</time>
      </trkpt>
      <trkpt lat="45.94437" lon="4.71487">
        <ele>178</ele>
        <time>2018-04-21T11:10:30Z</time>
      </trkpt>
      <trkpt lat="45.94429" lon="4.71491">
        <ele>178</ele>
        <time>2018-04-21T11:10:31Z</time>
      </trkpt>
      <trkpt lat="45.94422" lon="4.71493">
        <ele>178</ele>
        <time>2018-04-21T11:10:32Z</time>
      </trkpt>
      <trkpt lat="45.94415" lon="4.71497">
        <ele>178</ele>
        <time>2018-04-21T11:10:33Z</time>
      </trkpt>
      <trkpt lat="45.94407" lon="4.715">
        <ele>178</ele>
        <time>2018-04-21T11:10:34Z</time>
      </trkpt>
      <trkpt lat="45.944" lon="4.71503">
        <ele>177</ele>
        <time>2018-04-21T11:10:35Z</time>
      </trkpt>
      <trkpt lat="45.94392" lon="4.71506">
        <ele>177</ele>
        <time>2018-04-21T11:10:36Z</time>
      </trkpt>
      <trkpt lat="45.94387" lon="4.71508">
        <ele>177</ele>
        <time>2018-04-21T11:10:37Z</time>
      </trkpt>
      <trkpt lat="45.9438" lon="4.7151">
        <ele>177</ele>
        <time>2018-04-21T11:10:38Z</time>
      </trkpt>
      <trkpt lat="45.94375" lon="4.71512">
        <ele>176</ele>
        <time>2018-04-21T11:10:39Z</time>
      </trkpt>
      <trkpt lat="45.94367" lon="4.71514">
        <ele>176</ele>
        <time>2018-04-21T11:10:40Z</time>
      </trkpt>
      <trkpt lat="45.94359" lon="4.71517">
        <ele>176</ele>
        <time>2018-04-21T11:10:41Z</time>
      </trkpt>
      <trkpt lat="45.94351" lon="4.71521">
        <ele>176</ele>
        <time>2018-04-21T11:10:42Z</time>
      </trkpt>
      <trkpt lat="45.94343" lon="4.71524">
        <ele>176</ele>
        <time>2018-04-21T11:10:43Z</time>
      </trkpt>
      <trkpt lat="45.94335" lon="4.71526">
        <ele>176</ele>
        <time>2018-04-21T11:10:44Z</time>
      </trkpt>
      <trkpt lat="45.94328" lon="4.71529">
        <ele>176</ele>
        <time>2018-04-21T11:10:45Z</time>
      </trkpt>
      <trkpt lat="45.9432" lon="4.71531">
        <ele>176</ele>
        <time>2018-04-21T11:10:46Z</time>
      </trkpt>
      <trkpt lat="45.94311" lon="4.71533">
        <ele>175</ele>
        <time>2018-04-21T11:10:47Z</time>
      </trkpt>
      <trkpt lat="45.94303" lon="4.71535">
        <ele>175</ele>
        <time>2018-04-21T11:10:48Z</time>
      </trkpt>
      <trkpt lat="45.94296" lon="4.71538">
        <ele>175</ele>
        <time>2018-04-21T11:10:49Z</time>
      </trkpt>
      <trkpt lat="45.94289" lon="4.71541">
        <ele>175</ele>
        <time>2018-04-21T11:10:50Z</time>
      </trkpt>
      <trkpt lat="45.94282" lon="4.71546">
        <ele>175</ele>
        <time>2018-04-21T11:10:51Z</time>
      </trkpt>
      <trkpt lat="45.94275" lon="4.71548">
        <ele>175</ele>
        <time>2018-04-21T11:10:52Z</time>
      </trkpt>
      <trkpt lat="45.94267" lon="4.71549">
        <ele>175</ele>
        <time>2018-04-21T11:10:53Z</time>
      </trkpt>
      <trkpt lat="45.9426" lon="4.71552">
        <ele>175</ele>
        <time>2018-04-21T11:10:54Z</time>
      </trkpt>
      <trkpt lat="45.94254" lon="4.71556">
        <ele>175</ele>
        <time>2018-04-21T11:10:55Z</time>
      </trkpt>
      <trkpt lat="45.94248" lon="4.7156">
        <ele>174</ele>
        <time>2018-04-21T11:10:56Z</time>
      </trkpt>
      <trkpt lat="45.94242" lon="4.71563">
        <ele>174</ele>
        <time>2018-04-21T11:10:57Z</time>
      </trkpt>
      <trkpt lat="45.94235" lon="4.71565">
        <ele>174</ele>
        <time>2018-04-21T11:10:58Z</time>
      </trkpt>
      <trkpt lat="45.94228" lon="4.71568">
        <ele>174</ele>
        <time>2018-04-21T11:10:59Z</time>
      </trkpt>
      <trkpt lat="45.9422" lon="4.71571">
        <ele>174</ele>
        <time>2018-04-21T11:11:00Z</time>
      </trkpt>
      <trkpt lat="45.94211" lon="4.71575">
        <ele>174</ele>
        <time>2018-04-21T11:11:01Z</time>
      </trkpt>
      <trkpt lat="45.94204" lon="4.71577">
        <ele>174</ele>
        <time>2018-04-21T11:11:02Z</time>
      </trkpt>
      <trkpt lat="45.94197" lon="4.7158">
        <ele>174</ele>
        <time>2018-04-21T11:11:03Z</time>
      </trkpt>
      <trkpt lat="45.94192" lon="4.71581">
        <ele>174</ele>
        <time>2018-04-21T11:11:04Z</time>
      </trkpt>
      <trkpt lat="45.94186" lon="4.71584">
        <ele>173</ele>
        <time>2018-04-21T11:11:05Z</time>
      </trkpt>
      <trkpt lat="45.94179" lon="4.71588">
        <ele>173</ele>
        <time>2018-04-21T11:11:06Z</time>
      </trkpt>
      <trkpt lat="45.94173" lon="4.7159">
        <ele>174</ele>
        <time>2018-04-21T11:11:07Z</time>
      </trkpt>
      <trkpt lat="45.94164" lon="4.71594">
        <ele>174</ele>
        <time>2018-04-21T11:11:08Z</time>
      </trkpt>
      <trkpt lat="45.94157" lon="4.71597">
        <ele>173</ele>
        <time>2018-04-21T11:11:09Z</time>
      </trkpt>
      <trkpt lat="45.94151" lon="4.71599">
        <ele>173</ele>
        <time>2018-04-21T11:11:10Z</time>
      </trkpt>
      <trkpt lat="45.94145" lon="4.716">
        <ele>173</ele>
        <time>2018-04-21T11:11:11Z</time>
      </trkpt>
      <trkpt lat="45.94139" lon="4.71603">
        <ele>173</ele>
        <time>2018-04-21T11:11:12Z</time>
      </trkpt>
      <trkpt lat="45.94135" lon="4.71605">
        <ele>173</ele>
        <time>2018-04-21T11:11:13Z</time>
      </trkpt>
      <trkpt lat="45.94129" lon="4.71607">
        <ele>173</ele>
        <time>2018-04-21T11:11:14Z</time>
      </trkpt>
      <trkpt lat="45.94124" lon="4.7161">
        <ele>173</ele>
        <time>2018-04-21T11:11:15Z</time>
      </trkpt>
      <trkpt lat="45.94117" lon="4.71613">
        <ele>173</ele>
        <time>2018-04-21T11:11:16Z</time>
      </trkpt>
      <trkpt lat="45.9411" lon="4.71615">
        <ele>173</ele>
        <time>2018-04-21T11:11:17Z</time>
      </trkpt>
      <trkpt lat="45.94104" lon="4.71617">
        <ele>173</ele>
        <time>2018-04-21T11:11:18Z</time>
      </trkpt>
      <trkpt lat="45.94098" lon="4.71621">
        <ele>173</ele>
        <time>2018-04-21T11:11:19Z</time>
      </trkpt>
      <trkpt lat="45.94092" lon="4.71625">
        <ele>173</ele>
        <time>2018-04-21T11:11:20Z</time>
      </trkpt>
      <trkpt lat="45.94085" lon="4.71625">
        <ele>173</ele>
        <time>2018-04-21T11:11:21Z</time>
      </trkpt>
      <trkpt lat="45.94079" lon="4.71627">
        <ele>174</ele>
        <time>2018-04-21T11:11:22Z</time>
      </trkpt>
      <trkpt lat="45.94073" lon="4.71629">
        <ele>174</ele>
        <time>2018-04-21T11:11:23Z</time>
      </trkpt>
      <trkpt lat="45.94067" lon="4.71632">
        <ele>174</ele>
        <time>2018-04-21T11:11:24Z</time>
      </trkpt>
      <trkpt lat="45.94062" lon="4.71632">
        <ele>174</ele>
        <time>2018-04-21T11:11:25Z</time>
      </trkpt>
      <trkpt lat="45.94056" lon="4.71635">
        <ele>174</ele>
        <time>2018-04-21T11:11:26Z</time>
      </trkpt>
      <trkpt lat="45.94052" lon="4.71635">
        <ele>175</ele>
        <time>2018-04-21T11:11:27Z</time>
      </trkpt>
      <trkpt lat="45.94046" lon="4.71636">
        <ele>175</ele>
        <time>2018-04-21T11:11:28Z</time>
      </trkpt>
      <trkpt lat="45.94041" lon="4.71638">
        <ele>175</ele>
        <time>2018-04-21T11:11:29Z</time>
      </trkpt>
      <trkpt lat="45.94036" lon="4.71641">
        <ele>175</ele>
        <time>2018-04-21T11:11:30Z</time>
      </trkpt>
      <trkpt lat="45.9403" lon="4.71643">
        <ele>175</ele>
        <time>2018-04-21T11:11:31Z</time>
      </trkpt>
      <trkpt lat="45.94025" lon="4.71646">
        <ele>175</ele>
        <time>2018-04-21T11:11:32Z</time>
      </trkpt>
      <trkpt lat="45.9402" lon="4.71649">
        <ele>175</ele>
        <time>2018-04-21T11:11:33Z</time>
      </trkpt>
      <trkpt lat="45.94015" lon="4.71651">
        <ele>176</ele>
        <time>2018-04-21T11:11:34Z</time>
      </trkpt>
      <trkpt lat="45.94009" lon="4.71654">
        <ele>176</ele>
        <time>2018-04-21T11:11:35Z</time>
      </trkpt>
      <trkpt lat="45.94004" lon="4.71656">
        <ele>176</ele>
        <time>2018-04-21T11:11:36Z</time>
      </trkpt>
      <trkpt lat="45.93999" lon="4.71659">
        <ele>177</ele>
        <time>2018-04-21T11:11:37Z</time>
      </trkpt>
      <trkpt lat="45.93993" lon="4.71659">
        <ele>177</ele>
        <time>2018-04-21T11:11:38Z</time>
      </trkpt>
      <trkpt lat="45.93986" lon="4.7166">
        <ele>177</ele>
        <time>2018-04-21T11:11:39Z</time>
      </trkpt>
      <trkpt lat="45.93981" lon="4.71662">
        <ele>177</ele>
        <time>2018-04-21T11:11:40Z</time>
      </trkpt>
      <trkpt lat="45.93975" lon="4.71665">
        <ele>177</ele>
        <time>2018-04-21T11:11:41Z</time>
      </trkpt>
      <trkpt lat="45.93968" lon="4.71667">
        <ele>175</ele>
        <time>2018-04-21T11:11:42Z</time>
      </trkpt>
      <trkpt lat="45.93962" lon="4.7167">
        <ele>175</ele>
        <time>2018-04-21T11:11:43Z</time>
      </trkpt>
      <trkpt lat="45.93956" lon="4.71672">
        <ele>175</ele>
        <time>2018-04-21T11:11:44Z</time>
      </trkpt>
      <trkpt lat="45.9395" lon="4.71676">
        <ele>175</ele>
        <time>2018-04-21T11:11:45Z</time>
      </trkpt>
      <trkpt lat="45.93944" lon="4.71678">
        <ele>175</ele>
        <time>2018-04-21T11:11:46Z</time>
      </trkpt>
      <trkpt lat="45.93938" lon="4.71678">
        <ele>175</ele>
        <time>2018-04-21T11:11:47Z</time>
      </trkpt>
      <trkpt lat="45.93932" lon="4.71681">
        <ele>175</ele>
        <time>2018-04-21T11:11:48Z</time>
      </trkpt>
      <trkpt lat="45.93926" lon="4.71682">
        <ele>175</ele>
        <time>2018-04-21T11:11:49Z</time>
      </trkpt>
      <trkpt lat="45.93921" lon="4.71683">
        <ele>175</ele>
        <time>2018-04-21T11:11:50Z</time>
      </trkpt>
      <trkpt lat="45.93914" lon="4.71687">
        <ele>174</ele>
        <time>2018-04-21T11:11:51Z</time>
      </trkpt>
      <trkpt lat="45.93908" lon="4.71689">
        <ele>174</ele>
        <time>2018-04-21T11:11:52Z</time>
      </trkpt>
      <trkpt lat="45.93901" lon="4.71692">
        <ele>174</ele>
        <time>2018-04-21T11:11:53Z</time>
      </trkpt>
      <trkpt lat="45.93894" lon="4.71696">
        <ele>174</ele>
        <time>2018-04-21T11:11:54Z</time>
      </trkpt>
      <trkpt lat="45.93887" lon="4.71699">
        <ele>174</ele>
        <time>2018-04-21T11:11:55Z</time>
      </trkpt>
      <trkpt lat="45.9388" lon="4.71702">
        <ele>174</ele>
        <time>2018-04-21T11:11:56Z</time>
      </trkpt>
      <trkpt lat="45.93874" lon="4.71704">
        <ele>174</ele>
        <time>2018-04-21T11:11:57Z</time>
      </trkpt>
      <trkpt lat="45.93869" lon="4.71705">
        <ele>174</ele>
        <time>2018-04-21T11:11:58Z</time>
      </trkpt>
      <trkpt lat="45.93863" lon="4.71707">
        <ele>174</ele>
        <time>2018-04-21T11:11:59Z</time>
      </trkpt>
      <trkpt lat="45.93859" lon="4.7171">
        <ele>174</ele>
        <time>2018-04-21T11:12:00Z</time>
      </trkpt>
      <trkpt lat="45.93852" lon="4.71714">
        <ele>174</ele>
        <time>2018-04-21T11:12:01Z</time>
      </trkpt>
      <trkpt lat="45.93845" lon="4.71716">
        <ele>174</ele>
        <time>2018-04-21T11:12:02Z</time>
      </trkpt>
      <trkpt lat="45.93839" lon="4.71719">
        <ele>175</ele>
        <time>2018-04-21T11:12:03Z</time>
      </trkpt>
      <trkpt lat="45.93832" lon="4.71721">
        <ele>175</ele>
        <time>2018-04-21T11:12:04Z</time>
      </trkpt>
      <trkpt lat="45.93827" lon="4.71723">
        <ele>175</ele>
        <time>2018-04-21T11:12:05Z</time>
      </trkpt>
      <trkpt lat="45.9382" lon="4.71725">
        <ele>175</ele>
        <time>2018-04-21T11:12:06Z</time>
      </trkpt>
      <trkpt lat="45.93815" lon="4.71726">
        <ele>175</ele>
        <time>2018-04-21T11:12:07Z</time>
      </trkpt>
      <trkpt lat="45.93809" lon="4.71729">
        <ele>175</ele>
        <time>2018-04-21T11:12:08Z</time>
      </trkpt>
      <trkpt lat="45.93803" lon="4.71732">
        <ele>175</ele>
        <time>2018-04-21T11:12:09Z</time>
      </trkpt>
      <trkpt lat="45.93797" lon="4.71734">
        <ele>175</ele>
        <time>2018-04-21T11:12:10Z</time>
      </trkpt>
      <trkpt lat="45.93791" lon="4.71735">
        <ele>175</ele>
        <time>2018-04-21T11:12:11Z</time>
      </trkpt>
      <trkpt lat="45.93784" lon="4.71738">
        <ele>175</ele>
        <time>2018-04-21T11:12:12Z</time>
      </trkpt>
      <trkpt lat="45.93778" lon="4.7174">
        <ele>175</ele>
        <time>2018-04-21T11:12:13Z</time>
      </trkpt>
      <trkpt lat="45.93772" lon="4.71743">
        <ele>175</ele>
        <time>2018-04-21T11:12:14Z</time>
      </trkpt>
      <trkpt lat="45.93766" lon="4.71744">
        <ele>175</ele>
        <time>2018-04-21T11:12:15Z</time>
      </trkpt>
      <trkpt lat="45.9376" lon="4.71746">
        <ele>175</ele>
        <time>2018-04-21T11:12:16Z</time>
      </trkpt>
      <trkpt lat="45.93755" lon="4.71747">
        <ele>175</ele>
        <time>2018-04-21T11:12:17Z</time>
      </trkpt>
      <trkpt lat="45.9375" lon="4.7175">
        <ele>175</ele>
        <time>2018-04-21T11:12:18Z</time>
      </trkpt>
      <trkpt lat="45.93745" lon="4.71751">
        <ele>175</ele>
        <time>2018-04-21T11:12:19Z</time>
      </trkpt>
      <trkpt lat="45.93741" lon="4.71754">
        <ele>175</ele>
        <time>2018-04-21T11:12:20Z</time>
      </trkpt>
      <trkpt lat="45.93735" lon="4.71758">
        <ele>176</ele>
        <time>2018-04-21T11:12:21Z</time>
      </trkpt>
      <trkpt lat="45.9373" lon="4.7176">
        <ele>176</ele>
        <time>2018-04-21T11:12:22Z</time>
      </trkpt>
      <trkpt lat="45.93726" lon="4.71765">
        <ele>176</ele>
        <time>2018-04-21T11:12:23Z</time>
      </trkpt>
      <trkpt lat="45.93721" lon="4.7177">
        <ele>176</ele>
        <time>2018-04-21T11:12:24Z</time>
      </trkpt>
      <trkpt lat="45.93717" lon="4.71778">
        <ele>176</ele>
        <time>2018-04-21T11:12:25Z</time>
      </trkpt>
      <trkpt lat="45.93714" lon="4.71783">
        <ele>176</ele>
        <time>2018-04-21T11:12:26Z</time>
      </trkpt>
      <trkpt lat="45.9371" lon="4.71794">
        <ele>176</ele>
        <time>2018-04-21T11:12:27Z</time>
      </trkpt>
      <trkpt lat="45.93709" lon="4.718">
        <ele>176</ele>
        <time>2018-04-21T11:12:28Z</time>
      </trkpt>
      <trkpt lat="45.93706" lon="4.7181">
        <ele>176</ele>
        <time>2018-04-21T11:12:29Z</time>
      </trkpt>
      <trkpt lat="45.93703" lon="4.71815">
        <ele>176</ele>
        <time>2018-04-21T11:12:30Z</time>
      </trkpt>
      <trkpt lat="45.93701" lon="4.71823">
        <ele>176</ele>
        <time>2018-04-21T11:12:31Z</time>
      </trkpt>
      <trkpt lat="45.93699" lon="4.71829">
        <ele>176</ele>
        <time>2018-04-21T11:12:32Z</time>
      </trkpt>
      <trkpt lat="45.93696" lon="4.71836">
        <ele>175</ele>
        <time>2018-04-21T11:12:33Z</time>
      </trkpt>
      <trkpt lat="45.93695" lon="4.71844">
        <ele>175</ele>
        <time>2018-04-21T11:12:34Z</time>
      </trkpt>
      <trkpt lat="45.93692" lon="4.7185">
        <ele>175</ele>
        <time>2018-04-21T11:12:35Z</time>
      </trkpt>
      <trkpt lat="45.93689" lon="4.71856">
        <ele>175</ele>
        <time>2018-04-21T11:12:36Z</time>
      </trkpt>
      <trkpt lat="45.93686" lon="4.71863">
        <ele>175</ele>
        <time>2018-04-21T11:12:37Z</time>
      </trkpt>
      <trkpt lat="45.93683" lon="4.7187">
        <ele>175</ele>
        <time>2018-04-21T11:12:38Z</time>
      </trkpt>
      <trkpt lat="45.93681" lon="4.71879">
        <ele>175</ele>
        <time>2018-04-21T11:12:39Z</time>
      </trkpt>
      <trkpt lat="45.93678" lon="4.71886">
        <ele>175</ele>
        <time>2018-04-21T11:12:40Z</time>
      </trkpt>
      <trkpt lat="45.93675" lon="4.71895">
        <ele>175</ele>
        <time>2018-04-21T11:12:41Z</time>
      </trkpt>
      <trkpt lat="45.93671" lon="4.71903">
        <ele>175</ele>
        <time>2018-04-21T11:12:42Z</time>
      </trkpt>
      <trkpt lat="45.9367" lon="4.71913">
        <ele>175</ele>
        <time>2018-04-21T11:12:43Z</time>
      </trkpt>
      <trkpt lat="45.93667" lon="4.71918">
        <ele>175</ele>
        <time>2018-04-21T11:12:44Z</time>
      </trkpt>
      <trkpt lat="45.93663" lon="4.71926">
        <ele>175</ele>
        <time>2018-04-21T11:12:45Z</time>
      </trkpt>
      <trkpt lat="45.9366" lon="4.71935">
        <ele>175</ele>
        <time>2018-04-21T11:12:46Z</time>
      </trkpt>
      <trkpt lat="45.93657" lon="4.71945">
        <ele>175</ele>
        <time>2018-04-21T11:12:47Z</time>
      </trkpt>
      <trkpt lat="45.93653" lon="4.71953">
        <ele>175</ele>
        <time>2018-04-21T11:12:48Z</time>
      </trkpt>
      <trkpt lat="45.9365" lon="4.71959">
        <ele>175</ele>
        <time>2018-04-21T11:12:49Z</time>
      </trkpt>
      <trkpt lat="45.93647" lon="4.71968">
        <ele>175</ele>
        <time>2018-04-21T11:12:50Z</time>
      </trkpt>
      <trkpt lat="45.93643" lon="4.71974">
        <ele>175</ele>
        <time>2018-04-21T11:12:51Z</time>
      </trkpt>
      <trkpt lat="45.93641" lon="4.71982">
        <ele>175</ele>
        <time>2018-04-21T11:12:52Z</time>
      </trkpt>
      <trkpt lat="45.93638" lon="4.71987">
        <ele>175</ele>
        <time>2018-04-21T11:12:53Z</time>
      </trkpt>
      <trkpt lat="45.93636" lon="4.71995">
        <ele>175</ele>
        <time>2018-04-21T11:12:54Z</time>
      </trkpt>
      <trkpt lat="45.93631" lon="4.71997">
        <ele>175</ele>
        <time>2018-04-21T11:12:55Z</time>
      </trkpt>
      <trkpt lat="45.93627" lon="4.72003">
        <ele>175</ele>
        <time>2018-04-21T11:12:56Z</time>
      </trkpt>
      <trkpt lat="45.93625" lon="4.7201">
        <ele>175</ele>
        <time>2018-04-21T11:12:57Z</time>
      </trkpt>
      <trkpt lat="45.93623" lon="4.7202">
        <ele>175</ele>
        <time>2018-04-21T11:12:58Z</time>
      </trkpt>
      <trkpt lat="45.9362" lon="4.7203">
        <ele>175</ele>
        <time>2018-04-21T11:12:59Z</time>
      </trkpt>
      <trkpt lat="45.93615" lon="4.7204">
        <ele>175</ele>
        <time>2018-04-21T11:13:00Z</time>
      </trkpt>
      <trkpt lat="45.93611" lon="4.72048">
        <ele>175</ele>
        <time>2018-04-21T11:13:01Z</time>
      </trkpt>
      <trkpt lat="45.93607" lon="4.72053">
        <ele>175</ele>
        <time>2018-04-21T11:13:02Z</time>
      </trkpt>
      <trkpt lat="45.93601" lon="4.72062">
        <ele>175</ele>
        <time>2018-04-21T11:13:03Z</time>
      </trkpt>
      <trkpt lat="45.93597" lon="4.72072">
        <ele>175</ele>
        <time>2018-04-21T11:13:04Z</time>
      </trkpt>
      <trkpt lat="45.936" lon="4.72082">
        <ele>175</ele>
        <time>2018-04-21T11:13:05Z</time>
      </trkpt>
      <trkpt lat="45.93597" lon="4.72092">
        <ele>175</ele>
        <time>2018-04-21T11:13:06Z</time>
      </trkpt>
      <trkpt lat="45.93595" lon="4.72099">
        <ele>174</ele>
        <time>2018-04-21T11:13:07Z</time>
      </trkpt>
      <trkpt lat="45.93594" lon="4.72108">
        <ele>174</ele>
        <time>2018-04-21T11:13:08Z</time>
      </trkpt>
      <trkpt lat="45.93591" lon="4.72116">
        <ele>174</ele>
        <time>2018-04-21T11:13:09Z</time>
      </trkpt>
      <trkpt lat="45.93587" lon="4.72122">
        <ele>174</ele>
        <time>2018-04-21T11:13:10Z</time>
      </trkpt>
      <trkpt lat="45.93581" lon="4.72124">
        <ele>175</ele>
        <time>2018-04-21T11:13:11Z</time>
      </trkpt>
      <trkpt lat="45.93578" lon="4.72132">
        <ele>174</ele>
        <time>2018-04-21T11:13:12Z</time>
      </trkpt>
      <trkpt lat="45.93575" lon="4.72141">
        <ele>174</ele>
        <time>2018-04-21T11:13:13Z</time>
      </trkpt>
      <trkpt lat="45.93572" lon="4.72152">
        <ele>174</ele>
        <time>2018-04-21T11:13:14Z</time>
      </trkpt>
      <trkpt lat="45.93571" lon="4.7216">
        <ele>174</ele>
        <time>2018-04-21T11:13:15Z</time>
      </trkpt>
      <trkpt lat="45.93568" lon="4.72169">
        <ele>173</ele>
        <time>2018-04-21T11:13:16Z</time>
      </trkpt>
      <trkpt lat="45.93565" lon="4.72178">
        <ele>173</ele>
        <time>2018-04-21T11:13:17Z</time>
      </trkpt>
      <trkpt lat="45.93562" lon="4.72185">
        <ele>173</ele>
        <time>2018-04-21T11:13:18Z</time>
      </trkpt>
      <trkpt lat="45.93557" lon="4.72194">
        <ele>173</ele>
        <time>2018-04-21T11:13:19Z</time>
      </trkpt>
      <trkpt lat="45.93553" lon="4.72203">
        <ele>173</ele>
        <time>2018-04-21T11:13:20Z</time>
      </trkpt>
      <trkpt lat="45.9355" lon="4.7221">
        <ele>173</ele>
        <time>2018-04-21T11:13:21Z</time>
      </trkpt>
      <trkpt lat="45.93547" lon="4.72218">
        <ele>172</ele>
        <time>2018-04-21T11:13:22Z</time>
      </trkpt>
      <trkpt lat="45.93544" lon="4.72225">
        <ele>172</ele>
        <time>2018-04-21T11:13:23Z</time>
      </trkpt>
      <trkpt lat="45.93542" lon="4.72232">
        <ele>172</ele>
        <time>2018-04-21T11:13:24Z</time>
      </trkpt>
      <trkpt lat="45.9354" lon="4.7224">
        <ele>172</ele>
        <time>2018-04-21T11:13:25Z</time>
      </trkpt>
      <trkpt lat="45.93537" lon="4.72247">
        <ele>172</ele>
        <time>2018-04-21T11:13:26Z</time>
      </trkpt>
      <trkpt lat="45.93534" lon="4.72254">
        <ele>172</ele>
        <time>2018-04-21T11:13:27Z</time>
      </trkpt>
      <trkpt lat="45.93531" lon="4.72261">
        <ele>172</ele>
        <time>2018-04-21T11:13:28Z</time>
      </trkpt>
      <trkpt lat="45.93528" lon="4.72268">
        <ele>172</ele>
        <time>2018-04-21T11:13:29Z</time>
      </trkpt>
      <trkpt lat="45.93526" lon="4.72275">
        <ele>172</ele>
        <time>2018-04-21T11:13:30Z</time>
      </trkpt>
      <trkpt lat="45.93522" lon="4.72283">
        <ele>172</ele>
        <time>2018-04-21T11:13:31Z</time>
      </trkpt>
      <trkpt lat="45.93519" lon="4.7229">
        <ele>172</ele>
        <time>2018-04-21T11:13:32Z</time>
      </trkpt>
      <trkpt lat="45.93514" lon="4.72297">
        <ele>172</ele>
        <time>2018-04-21T11:13:33Z</time>
      </trkpt>
      <trkpt lat="45.9351" lon="4.72304">
        <ele>173</ele>
        <time>2018-04-21T11:13:34Z</time>
      </trkpt>
      <trkpt lat="45.93505" lon="4.72311">
        <ele>173</ele>
        <time>2018-04-21T11:13:35Z</time>
      </trkpt>
      <trkpt lat="45.935" lon="4.72318">
        <ele>173</ele>
        <time>2018-04-21T11:13:36Z</time>
      </trkpt>
      <trkpt lat="45.93495" lon="4.72325">
        <ele>173</ele>
        <time>2018-04-21T11:13:37Z</time>
      </trkpt>
      <trkpt lat="45.93491" lon="4.72331">
        <ele>173</ele>
        <time>2018-04-21T11:13:38Z</time>
      </trkpt>
      <trkpt lat="45.93486" lon="4.72338">
        <ele>173</ele>
        <time>2018-04-21T11:13:39Z</time>
      </trkpt>
      <trkpt lat="45.93481" lon="4.72346">
        <ele>173</ele>
        <time>2018-04-21T11:13:40Z</time>
      </trkpt>
      <trkpt lat="45.93476" lon="4.72352">
        <ele>173</ele>
        <time>2018-04-21T11:13:41Z</time>
      </trkpt>
      <trkpt lat="45.93472" lon="4.72358">
        <ele>173</ele>
        <time>2018-04-21T11:13:42Z</time>
      </trkpt>
      <trkpt lat="45.93467" lon="4.72365">
        <ele>173</ele>
        <time>2018-04-21T11:13:43Z</time>
      </trkpt>
      <trkpt lat="45.93462" lon="4.72371">
        <ele>173</ele>
        <time>2018-04-21T11:13:44Z</time>
      </trkpt>
      <trkpt lat="45.93457" lon="4.72376">
        <ele>173</ele>
        <time>2018-04-21T11:13:45Z</time>
      </trkpt>
      <trkpt lat="45.93452" lon="4.72383">
        <ele>173</ele>
        <time>2018-04-21T11:13:46Z</time>
      </trkpt>
      <trkpt lat="45.93447" lon="4.72388">
        <ele>173</ele>
        <time>2018-04-21T11:13:47Z</time>
      </trkpt>
      <trkpt lat="45.93442" lon="4.72394">
        <ele>173</ele>
        <time>2018-04-21T11:13:48Z</time>
      </trkpt>
      <trkpt lat="45.93437" lon="4.724">
        <ele>173</ele>
        <time>2018-04-21T11:13:49Z</time>
      </trkpt>
      <trkpt lat="45.93431" lon="4.72402">
        <ele>174</ele>
        <time>2018-04-21T11:13:50Z</time>
      </trkpt>
      <trkpt lat="45.93426" lon="4.72405">
        <ele>174</ele>
        <time>2018-04-21T11:13:51Z</time>
      </trkpt>
      <trkpt lat="45.9342" lon="4.72406">
        <ele>174</ele>
        <time>2018-04-21T11:13:52Z</time>
      </trkpt>
      <trkpt lat="45.93414" lon="4.72408">
        <ele>174</ele>
        <time>2018-04-21T11:13:53Z</time>
      </trkpt>
      <trkpt lat="45.93408" lon="4.72408">
        <ele>174</ele>
        <time>2018-04-21T11:13:54Z</time>
      </trkpt>
      <trkpt lat="45.93403" lon="4.72408">
        <ele>174</ele>
        <time>2018-04-21T11:13:55Z</time>
      </trkpt>
      <trkpt lat="45.93399" lon="4.72408">
        <ele>174</ele>
        <time>2018-04-21T11:13:56Z</time>
      </trkpt>
      <trkpt lat="45.93393" lon="4.72407">
        <ele>174</ele>
        <time>2018-04-21T11:13:57Z</time>
      </trkpt>
      <trkpt lat="45.9339" lon="4.7241">
        <ele>174</ele>
        <time>2018-04-21T11:13:58Z</time>
      </trkpt>
      <trkpt lat="45.93387" lon="4.72414">
        <ele>174</ele>
        <time>2018-04-21T11:13:59Z</time>
      </trkpt>
      <trkpt lat="45.93385" lon="4.72421">
        <ele>173</ele>
        <time>2018-04-21T11:14:00Z</time>
      </trkpt>
      <trkpt lat="45.93385" lon="4.72428">
        <ele>173</ele>
        <time>2018-04-21T11:14:01Z</time>
      </trkpt>
      <trkpt lat="45.93388" lon="4.72438">
        <ele>173</ele>
        <time>2018-04-21T11:14:02Z</time>
      </trkpt>
      <trkpt lat="45.9339" lon="4.72445">
        <ele>173</ele>
        <time>2018-04-21T11:14:03Z</time>
      </trkpt>
      <trkpt lat="45.93392" lon="4.72452">
        <ele>173</ele>
        <time>2018-04-21T11:14:04Z</time>
      </trkpt>
      <trkpt lat="45.93393" lon="4.7246">
        <ele>173</ele>
        <time>2018-04-21T11:14:05Z</time>
      </trkpt>
      <trkpt lat="45.93391" lon="4.72467">
        <ele>173</ele>
        <time>2018-04-21T11:14:06Z</time>
      </trkpt>
      <trkpt lat="45.93387" lon="4.72473">
        <ele>173</ele>
        <time>2018-04-21T11:14:07Z</time>
      </trkpt>
      <trkpt lat="45.93383" lon="4.72478">
        <ele>173</ele>
        <time>2018-04-21T11:14:08Z</time>
      </trkpt>
      <trkpt lat="45.93378" lon="4.72483">
        <ele>173</ele>
        <time>2018-04-21T11:14:09Z</time>
      </trkpt>
      <trkpt lat="45.93373" lon="4.72488">
        <ele>173</ele>
        <time>2018-04-21T11:14:10Z</time>
      </trkpt>
      <trkpt lat="45.93369" lon="4.72493">
        <ele>173</ele>
        <time>2018-04-21T11:14:11Z</time>
      </trkpt>
      <trkpt lat="45.93364" lon="4.72497">
        <ele>173</ele>
        <time>2018-04-21T11:14:12Z</time>
      </trkpt>
      <trkpt lat="45.9336" lon="4.72503">
        <ele>172</ele>
        <time>2018-04-21T11:14:13Z</time>
      </trkpt>
      <trkpt lat="45.93355" lon="4.72508">
        <ele>172</ele>
        <time>2018-04-21T11:14:14Z</time>
      </trkpt>
      <trkpt lat="45.9335" lon="4.72514">
        <ele>172</ele>
        <time>2018-04-21T11:14:15Z</time>
      </trkpt>
      <trkpt lat="45.93345" lon="4.7252">
        <ele>172</ele>
        <time>2018-04-21T11:14:16Z</time>
      </trkpt>
      <trkpt lat="45.9334" lon="4.72525">
        <ele>172</ele>
        <time>2018-04-21T11:14:17Z</time>
      </trkpt>
      <trkpt lat="45.93336" lon="4.72531">
        <ele>172</ele>
        <time>2018-04-21T11:14:18Z</time>
      </trkpt>
      <trkpt lat="45.93331" lon="4.72536">
        <ele>172</ele>
        <time>2018-04-21T11:14:19Z</time>
      </trkpt>
      <trkpt lat="45.93326" lon="4.72542">
        <ele>172</ele>
        <time>2018-04-21T11:14:20Z</time>
      </trkpt>
      <trkpt lat="45.93322" lon="4.72546">
        <ele>172</ele>
        <time>2018-04-21T11:14:21Z</time>
      </trkpt>
      <trkpt lat="45.93318" lon="4.72551">
        <ele>172</ele>
        <time>2018-04-21T11:14:22Z</time>
      </trkpt>
      <trkpt lat="45.93314" lon="4.72556">
        <ele>172</ele>
        <time>2018-04-21T11:14:23Z</time>
      </trkpt>
      <trkpt lat="45.93311" lon="4.72561">
        <ele>171</ele>
        <time>2018-04-21T11:14:24Z</time>
      </trkpt>
      <trkpt lat="45.93306" lon="4.72566">
        <ele>171</ele>
        <time>2018-04-21T11:14:25Z</time>
      </trkpt>
      <trkpt lat="45.93302" lon="4.72571">
        <ele>171</ele>
        <time>2018-04-21T11:14:26Z</time>
      </trkpt>
      <trkpt lat="45.93297" lon="4.72576">
        <ele>171</ele>
        <time>2018-04-21T11:14:27Z</time>
      </trkpt>
      <trkpt lat="45.93292" lon="4.72581">
        <ele>171</ele>
        <time>2018-04-21T11:14:28Z</time>
      </trkpt>
      <trkpt lat="45.93287" lon="4.72587">
        <ele>170</ele>
        <time>2018-04-21T11:14:29Z</time>
      </trkpt>
      <trkpt lat="45.93283" lon="4.72593">
        <ele>170</ele>
        <time>2018-04-21T11:14:30Z</time>
      </trkpt>
      <trkpt lat="45.93279" lon="4.72599">
        <ele>170</ele>
        <time>2018-04-21T11:14:31Z</time>
      </trkpt>
      <trkpt lat="45.93275" lon="4.72605">
        <ele>170</ele>
        <time>2018-04-21T11:14:32Z</time>
      </trkpt>
      <trkpt lat="45.93271" lon="4.72609">
        <ele>170</ele>
        <time>2018-04-21T11:14:33Z</time>
      </trkpt>
      <trkpt lat="45.93266" lon="4.72614">
        <ele>170</ele>
        <time>2018-04-21T11:14:34Z</time>
      </trkpt>
      <trkpt lat="45.93262" lon="4.7262">
        <ele>170</ele>
        <time>2018-04-21T11:14:35Z</time>
      </trkpt>
      <trkpt lat="45.93257" lon="4.72625">
        <ele>170</ele>
        <time>2018-04-21T11:14:36Z</time>
      </trkpt>
      <trkpt lat="45.93252" lon="4.72631">
        <ele>170</ele>
        <time>2018-04-21T11:14:37Z</time>
      </trkpt>
      <trkpt lat="45.93247" lon="4.72635">
        <ele>170</ele>
        <time>2018-04-21T11:14:38Z</time>
      </trkpt>
      <trkpt lat="45.93243" lon="4.7264">
        <ele>170</ele>
        <time>2018-04-21T11:14:39Z</time>
      </trkpt>
      <trkpt lat="45.93238" lon="4.72644">
        <ele>170</ele>
        <time>2018-04-21T11:14:40Z</time>
      </trkpt>
      <trkpt lat="45.93233" lon="4.72649">
        <ele>170</ele>
        <time>2018-04-21T11:14:41Z</time>
      </trkpt>
      <trkpt lat="45.93228" lon="4.72654">
        <ele>170</ele>
        <time>2018-04-21T11:14:42Z</time>
      </trkpt>
      <trkpt lat="45.93224" lon="4.72659">
        <ele>170</ele>
        <time>2018-04-21T11:14:43Z</time>
      </trkpt>
      <trkpt lat="45.9322" lon="4.72663">
        <ele>170</ele>
        <time>2018-04-21T11:14:44Z</time>
      </trkpt>
      <trkpt lat="45.93215" lon="4.72669">
        <ele>169</ele>
        <time>2018-04-21T11:14:45Z</time>
      </trkpt>
      <trkpt lat="45.93211" lon="4.72674">
        <ele>169</ele>
        <time>2018-04-21T11:14:46Z</time>
      </trkpt>
      <trkpt lat="45.93207" lon="4.72682">
        <ele>169</ele>
        <time>2018-04-21T11:14:47Z</time>
      </trkpt>
      <trkpt lat="45.93202" lon="4.72686">
        <ele>169</ele>
        <time>2018-04-21T11:14:48Z</time>
      </trkpt>
      <trkpt lat="45.93198" lon="4.72691">
        <ele>169</ele>
        <time>2018-04-21T11:14:49Z</time>
      </trkpt>
      <trkpt lat="45.93193" lon="4.72696">
        <ele>169</ele>
        <time>2018-04-21T11:14:50Z</time>
      </trkpt>
      <trkpt lat="45.93189" lon="4.72701">
        <ele>169</ele>
        <time>2018-04-21T11:14:51Z</time>
      </trkpt>
      <trkpt lat="45.93184" lon="4.72707">
        <ele>169</ele>
        <time>2018-04-21T11:14:52Z</time>
      </trkpt>
      <trkpt lat="45.93179" lon="4.72712">
        <ele>169</ele>
        <time>2018-04-21T11:14:53Z</time>
      </trkpt>
      <trkpt lat="45.93176" lon="4.72717">
        <ele>170</ele>
        <time>2018-04-21T11:14:54Z</time>
      </trkpt>
      <trkpt lat="45.93172" lon="4.72723">
        <ele>170</ele>
        <time>2018-04-21T11:14:55Z</time>
      </trkpt>
      <trkpt lat="45.93167" lon="4.72727">
        <ele>170</ele>
        <time>2018-04-21T11:14:56Z</time>
      </trkpt>
      <trkpt lat="45.93161" lon="4.72732">
        <ele>170</ele>
        <time>2018-04-21T11:14:57Z</time>
      </trkpt>
      <trkpt lat="45.93157" lon="4.72737">
        <ele>170</ele>
        <time>2018-04-21T11:14:58Z</time>
      </trkpt>
      <trkpt lat="45.93153" lon="4.72742">
        <ele>170</ele>
        <time>2018-04-21T11:14:59Z</time>
      </trkpt>
      <trkpt lat="45.93148" lon="4.72747">
        <ele>170</ele>
        <time>2018-04-21T11:15:00Z</time>
      </trkpt>
      <trkpt lat="45.93143" lon="4.72753">
        <ele>171</ele>
        <time>2018-04-21T11:15:01Z</time>
      </trkpt>
      <trkpt lat="45.93138" lon="4.72758">
        <ele>171</ele>
        <time>2018-04-21T11:15:02Z</time>
      </trkpt>
      <trkpt lat="45.93133" lon="4.72763">
        <ele>171</ele>
        <time>2018-04-21T11:15:03Z</time>
      </trkpt>
      <trkpt lat="45.93128" lon="4.7277">
        <ele>171</ele>
        <time>2018-04-21T11:15:04Z</time>
      </trkpt>
      <trkpt lat="45.93123" lon="4.72775">
        <ele>171</ele>
        <time>2018-04-21T11:15:05Z</time>
      </trkpt>
      <trkpt lat="45.93118" lon="4.72782">
        <ele>171</ele>
        <time>2018-04-21T11:15:06Z</time>
      </trkpt>
      <trkpt lat="45.93113" lon="4.72787">
        <ele>171</ele>
        <time>2018-04-21T11:15:07Z</time>
      </trkpt>
      <trkpt lat="45.93109" lon="4.72794">
        <ele>171</ele>
        <time>2018-04-21T11:15:08Z</time>
      </trkpt>
      <trkpt lat="45.93104" lon="4.72799">
        <ele>171</ele>
        <time>2018-04-21T11:15:09Z</time>
      </trkpt>
      <trkpt lat="45.93099" lon="4.72805">
        <ele>171</ele>
        <time>2018-04-21T11:15:10Z</time>
      </trkpt>
      <trkpt lat="45.93094" lon="4.7281">
        <ele>172</ele>
        <time>2018-04-21T11:15:11Z</time>
      </trkpt>
      <trkpt lat="45.9309" lon="4.72815">
        <ele>172</ele>
        <time>2018-04-21T11:15:12Z</time>
      </trkpt>
      <trkpt lat="45.9308" lon="4.72825">
        <ele>173</ele>
        <time>2018-04-21T11:15:14Z</time>
      </trkpt>
      <trkpt lat="45.93041" lon="4.72863">
        <ele>172</ele>
        <time>2018-04-21T11:15:21Z</time>
      </trkpt>
      <trkpt lat="45.93037" lon="4.72869">
        <ele>172</ele>
        <time>2018-04-21T11:15:22Z</time>
      </trkpt>
      <trkpt lat="45.93033" lon="4.72876">
        <ele>172</ele>
        <time>2018-04-21T11:15:23Z</time>
      </trkpt>
      <trkpt lat="45.93028" lon="4.7288">
        <ele>172</ele>
        <time>2018-04-21T11:15:24Z</time>
      </trkpt>
      <trkpt lat="45.93024" lon="4.72886">
        <ele>172</ele>
        <time>2018-04-21T11:15:25Z</time>
      </trkpt>
      <trkpt lat="45.9302" lon="4.72891">
        <ele>172</ele>
        <time>2018-04-21T11:15:26Z</time>
      </trkpt>
      <trkpt lat="45.93015" lon="4.72898">
        <ele>172</ele>
        <time>2018-04-21T11:15:27Z</time>
      </trkpt>
      <trkpt lat="45.93012" lon="4.72904">
        <ele>172</ele>
        <time>2018-04-21T11:15:28Z</time>
      </trkpt>
      <trkpt lat="45.93007" lon="4.72909">
        <ele>171</ele>
        <time>2018-04-21T11:15:29Z</time>
      </trkpt>
      <trkpt lat="45.93003" lon="4.72914">
        <ele>171</ele>
        <time>2018-04-21T11:15:30Z</time>
      </trkpt>
      <trkpt lat="45.92999" lon="4.72921">
        <ele>171</ele>
        <time>2018-04-21T11:15:31Z</time>
      </trkpt>
      <trkpt lat="45.92995" lon="4.72925">
        <ele>171</ele>
        <time>2018-04-21T11:15:32Z</time>
      </trkpt>
      <trkpt lat="45.92991" lon="4.7293">
        <ele>171</ele>
        <time>2018-04-21T11:15:33Z</time>
      </trkpt>
      <trkpt lat="45.92987" lon="4.72935">
        <ele>171</ele>
        <time>2018-04-21T11:15:34Z</time>
      </trkpt>
      <trkpt lat="45.92983" lon="4.72941">
        <ele>171</ele>
        <time>2018-04-21T11:15:35Z</time>
      </trkpt>
      <trkpt lat="45.92978" lon="4.72945">
        <ele>171</ele>
        <time>2018-04-21T11:15:36Z</time>
      </trkpt>
      <trkpt lat="45.92974" lon="4.7295">
        <ele>171</ele>
        <time>2018-04-21T11:15:37Z</time>
      </trkpt>
      <trkpt lat="45.9297" lon="4.72954">
        <ele>171</ele>
        <time>2018-04-21T11:15:38Z</time>
      </trkpt>
      <trkpt lat="45.92966" lon="4.72959">
        <ele>171</ele>
        <time>2018-04-21T11:15:39Z</time>
      </trkpt>
      <trkpt lat="45.92962" lon="4.72964">
        <ele>171</ele>
        <time>2018-04-21T11:15:40Z</time>
      </trkpt>
      <trkpt lat="45.92958" lon="4.72969">
        <ele>171</ele>
        <time>2018-04-21T11:15:41Z</time>
      </trkpt>
      <trkpt lat="45.92953" lon="4.72974">
        <ele>171</ele>
        <time>2018-04-21T11:15:42Z</time>
      </trkpt>
      <trkpt lat="45.92948" lon="4.7298">
        <ele>171</ele>
        <time>2018-04-21T11:15:43Z</time>
      </trkpt>
      <trkpt lat="45.92944" lon="4.72985">
        <ele>171</ele>
        <time>2018-04-21T11:15:44Z</time>
      </trkpt>
      <trkpt lat="45.9294" lon="4.72993">
        <ele>171</ele>
        <time>2018-04-21T11:15:45Z</time>
      </trkpt>
      <trkpt lat="45.92936" lon="4.72997">
        <ele>172</ele>
        <time>2018-04-21T11:15:46Z</time>
      </trkpt>
      <trkpt lat="45.92931" lon="4.73002">
        <ele>172</ele>
        <time>2018-04-21T11:15:47Z</time>
      </trkpt>
      <trkpt lat="45.92927" lon="4.73007">
        <ele>172</ele>
        <time>2018-04-21T11:15:48Z</time>
      </trkpt>
      <trkpt lat="45.92922" lon="4.73012">
        <ele>172</ele>
        <time>2018-04-21T11:15:49Z</time>
      </trkpt>
      <trkpt lat="45.92918" lon="4.73017">
        <ele>172</ele>
        <time>2018-04-21T11:15:50Z</time>
      </trkpt>
      <trkpt lat="45.92913" lon="4.73023">
        <ele>172</ele>
        <time>2018-04-21T11:15:51Z</time>
      </trkpt>
      <trkpt lat="45.92909" lon="4.73028">
        <ele>172</ele>
        <time>2018-04-21T11:15:52Z</time>
      </trkpt>
      <trkpt lat="45.92906" lon="4.73034">
        <ele>172</ele>
        <time>2018-04-21T11:15:53Z</time>
      </trkpt>
      <trkpt lat="45.92902" lon="4.7304">
        <ele>172</ele>
        <time>2018-04-21T11:15:54Z</time>
      </trkpt>
      <trkpt lat="45.92898" lon="4.73045">
        <ele>172</ele>
        <time>2018-04-21T11:15:55Z</time>
      </trkpt>
      <trkpt lat="45.92894" lon="4.73051">
        <ele>172</ele>
        <time>2018-04-21T11:15:56Z</time>
      </trkpt>
      <trkpt lat="45.9289" lon="4.73057">
        <ele>172</ele>
        <time>2018-04-21T11:15:57Z</time>
      </trkpt>
      <trkpt lat="45.92886" lon="4.73063">
        <ele>172</ele>
        <time>2018-04-21T11:15:58Z</time>
      </trkpt>
      <trkpt lat="45.92882" lon="4.73069">
        <ele>172</ele>
        <time>2018-04-21T11:15:59Z</time>
      </trkpt>
      <trkpt lat="45.92879" lon="4.73075">
        <ele>172</ele>
        <time>2018-04-21T11:16:00Z</time>
      </trkpt>
      <trkpt lat="45.92875" lon="4.7308">
        <ele>172</ele>
        <time>2018-04-21T11:16:01Z</time>
      </trkpt>
      <trkpt lat="45.92871" lon="4.73085">
        <ele>172</ele>
        <time>2018-04-21T11:16:02Z</time>
      </trkpt>
      <trkpt lat="45.92866" lon="4.73091">
        <ele>172</ele>
        <time>2018-04-21T11:16:03Z</time>
      </trkpt>
      <trkpt lat="45.92862" lon="4.73096">
        <ele>171</ele>
        <time>2018-04-21T11:16:04Z</time>
      </trkpt>
      <trkpt lat="45.92858" lon="4.73101">
        <ele>171</ele>
        <time>2018-04-21T11:16:05Z</time>
      </trkpt>
      <trkpt lat="45.92852" lon="4.73102">
        <ele>171</ele>
        <time>2018-04-21T11:16:08Z</time>
      </trkpt>
      <trkpt lat="45.92849" lon="4.73096">
        <ele>171</ele>
        <time>2018-04-21T11:16:09Z</time>
      </trkpt>
      <trkpt lat="45.92847" lon="4.73085">
        <ele>171</ele>
        <time>2018-04-21T11:16:11Z</time>
      </trkpt>
      <trkpt lat="45.92846" lon="4.73078">
        <ele>171</ele>
        <time>2018-04-21T11:16:12Z</time>
      </trkpt>
      <trkpt lat="45.92843" lon="4.73066">
        <ele>171</ele>
        <time>2018-04-21T11:16:14Z</time>
      </trkpt>
      <trkpt lat="45.92842" lon="4.73059">
        <ele>171</ele>
        <time>2018-04-21T11:16:15Z</time>
      </trkpt>
      <trkpt lat="45.92841" lon="4.73052">
        <ele>171</ele>
        <time>2018-04-21T11:16:16Z</time>
      </trkpt>
      <trkpt lat="45.92839" lon="4.73046">
        <ele>171</ele>
        <time>2018-04-21T11:16:17Z</time>
      </trkpt>
      <trkpt lat="45.92837" lon="4.7304">
        <ele>171</ele>
        <time>2018-04-21T11:16:18Z</time>
      </trkpt>
      <trkpt lat="45.92836" lon="4.73033">
        <ele>171</ele>
        <time>2018-04-21T11:16:19Z</time>
      </trkpt>
      <trkpt lat="45.92835" lon="4.73027">
        <ele>171</ele>
        <time>2018-04-21T11:16:20Z</time>
      </trkpt>
      <trkpt lat="45.92834" lon="4.7302">
        <ele>171</ele>
        <time>2018-04-21T11:16:21Z</time>
      </trkpt>
      <trkpt lat="45.92832" lon="4.73013">
        <ele>170</ele>
        <time>2018-04-21T11:16:22Z</time>
      </trkpt>
      <trkpt lat="45.9283" lon="4.73006">
        <ele>170</ele>
        <time>2018-04-21T11:16:23Z</time>
      </trkpt>
      <trkpt lat="45.9283" lon="4.72998">
        <ele>170</ele>
        <time>2018-04-21T11:16:24Z</time>
      </trkpt>
      <trkpt lat="45.9283" lon="4.7299">
        <ele>170</ele>
        <time>2018-04-21T11:16:25Z</time>
      </trkpt>
      <trkpt lat="45.9283" lon="4.72982">
        <ele>170</ele>
        <time>2018-04-21T11:16:26Z</time>
      </trkpt>
      <trkpt lat="45.92829" lon="4.72974">
        <ele>170</ele>
        <time>2018-04-21T11:16:27Z</time>
      </trkpt>
      <trkpt lat="45.92829" lon="4.72966">
        <ele>170</ele>
        <time>2018-04-21T11:16:28Z</time>
      </trkpt>
      <trkpt lat="45.92828" lon="4.72959">
        <ele>170</ele>
        <time>2018-04-21T11:16:29Z</time>
      </trkpt>
      <trkpt lat="45.92827" lon="4.72951">
        <ele>170</ele>
        <time>2018-04-21T11:16:30Z</time>
      </trkpt>
      <trkpt lat="45.92826" lon="4.72945">
        <ele>170</ele>
        <time>2018-04-21T11:16:31Z</time>
      </trkpt>
      <trkpt lat="45.92825" lon="4.72937">
        <ele>170</ele>
        <time>2018-04-21T11:16:32Z</time>
      </trkpt>
      <trkpt lat="45.92825" lon="4.72929">
        <ele>170</ele>
        <time>2018-04-21T11:16:33Z</time>
      </trkpt>
      <trkpt lat="45.92825" lon="4.72922">
        <ele>170</ele>
        <time>2018-04-21T11:16:34Z</time>
      </trkpt>
      <trkpt lat="45.92824" lon="4.72915">
        <ele>170</ele>
        <time>2018-04-21T11:16:35Z</time>
      </trkpt>
      <trkpt lat="45.92824" lon="4.72908">
        <ele>170</ele>
        <time>2018-04-21T11:16:36Z</time>
      </trkpt>
      <trkpt lat="45.92823" lon="4.72902">
        <ele>170</ele>
        <time>2018-04-21T11:16:37Z</time>
      </trkpt>
      <trkpt lat="45.9282" lon="4.7289">
        <ele>170</ele>
        <time>2018-04-21T11:16:39Z</time>
      </trkpt>
      <trkpt lat="45.92818" lon="4.72883">
        <ele>170</ele>
        <time>2018-04-21T11:16:40Z</time>
      </trkpt>
      <trkpt lat="45.92817" lon="4.72877">
        <ele>170</ele>
        <time>2018-04-21T11:16:41Z</time>
      </trkpt>
      <trkpt lat="45.92815" lon="4.7287">
        <ele>170</ele>
        <time>2018-04-21T11:16:42Z</time>
      </trkpt>
      <trkpt lat="45.92814" lon="4.72862">
        <ele>170</ele>
        <time>2018-04-21T11:16:43Z</time>
      </trkpt>
      <trkpt lat="45.92813" lon="4.72855">
        <ele>170</ele>
        <time>2018-04-21T11:16:44Z</time>
      </trkpt>
      <trkpt lat="45.92811" lon="4.72848">
        <ele>170</ele>
        <time>2018-04-21T11:16:45Z</time>
      </trkpt>
      <trkpt lat="45.9281" lon="4.7284">
        <ele>170</ele>
        <time>2018-04-21T11:16:46Z</time>
      </trkpt>
      <trkpt lat="45.9281" lon="4.72833">
        <ele>170</ele>
        <time>2018-04-21T11:16:47Z</time>
      </trkpt>
      <trkpt lat="45.92808" lon="4.72827">
        <ele>171</ele>
        <time>2018-04-21T11:16:48Z</time>
      </trkpt>
      <trkpt lat="45.92807" lon="4.7282">
        <ele>171</ele>
        <time>2018-04-21T11:16:49Z</time>
      </trkpt>
      <trkpt lat="45.92806" lon="4.72813">
        <ele>171</ele>
        <time>2018-04-21T11:16:50Z</time>
      </trkpt>
      <trkpt lat="45.92805" lon="4.72807">
        <ele>171</ele>
        <time>2018-04-21T11:16:51Z</time>
      </trkpt>
      <trkpt lat="45.92804" lon="4.728">
        <ele>171</ele>
        <time>2018-04-21T11:16:52Z</time>
      </trkpt>
      <trkpt lat="45.928" lon="4.72789">
        <ele>171</ele>
        <time>2018-04-21T11:16:54Z</time>
      </trkpt>
      <trkpt lat="45.92797" lon="4.72787">
        <ele>171</ele>
        <time>2018-04-21T11:16:55Z</time>
      </trkpt>
      <trkpt lat="45.9279" lon="4.72792">
        <ele>170</ele>
        <time>2018-04-21T11:16:57Z</time>
      </trkpt>
      <trkpt lat="45.92786" lon="4.72796">
        <ele>170</ele>
        <time>2018-04-21T11:16:58Z</time>
      </trkpt>
      <trkpt lat="45.92783" lon="4.72798">
        <ele>170</ele>
        <time>2018-04-21T11:16:59Z</time>
      </trkpt>
      <trkpt lat="45.92778" lon="4.72802">
        <ele>170</ele>
        <time>2018-04-21T11:17:00Z</time>
      </trkpt>
      <trkpt lat="45.92772" lon="4.72806">
        <ele>170</ele>
        <time>2018-04-21T11:17:01Z</time>
      </trkpt>
      <trkpt lat="45.92768" lon="4.72809">
        <ele>170</ele>
        <time>2018-04-21T11:17:02Z</time>
      </trkpt>
      <trkpt lat="45.92762" lon="4.72815">
        <ele>170</ele>
        <time>2018-04-21T11:17:04Z</time>
      </trkpt>
      <trkpt lat="45.92757" lon="4.72817">
        <ele>170</ele>
        <time>2018-04-21T11:17:05Z</time>
      </trkpt>
      <trkpt lat="45.92753" lon="4.7282">
        <ele>170</ele>
        <time>2018-04-21T11:17:06Z</time>
      </trkpt>
      <trkpt lat="45.92748" lon="4.72823">
        <ele>169</ele>
        <time>2018-04-21T11:17:07Z</time>
      </trkpt>
      <trkpt lat="45.92743" lon="4.72827">
        <ele>169</ele>
        <time>2018-04-21T11:17:08Z</time>
      </trkpt>
      <trkpt lat="45.92737" lon="4.72831">
        <ele>169</ele>
        <time>2018-04-21T11:17:09Z</time>
      </trkpt>
      <trkpt lat="45.92732" lon="4.72835">
        <ele>169</ele>
        <time>2018-04-21T11:17:10Z</time>
      </trkpt>
      <trkpt lat="45.92728" lon="4.72838">
        <ele>169</ele>
        <time>2018-04-21T11:17:11Z</time>
      </trkpt>
      <trkpt lat="45.92723" lon="4.72842">
        <ele>169</ele>
        <time>2018-04-21T11:17:12Z</time>
      </trkpt>
      <trkpt lat="45.92718" lon="4.72846">
        <ele>169</ele>
        <time>2018-04-21T11:17:13Z</time>
      </trkpt>
      <trkpt lat="45.92713" lon="4.7285">
        <ele>169</ele>
        <time>2018-04-21T11:17:14Z</time>
      </trkpt>
      <trkpt lat="45.92707" lon="4.72853">
        <ele>169</ele>
        <time>2018-04-21T11:17:15Z</time>
      </trkpt>
      <trkpt lat="45.92702" lon="4.72857">
        <ele>169</ele>
        <time>2018-04-21T11:17:16Z</time>
      </trkpt>
      <trkpt lat="45.92698" lon="4.72862">
        <ele>169</ele>
        <time>2018-04-21T11:17:17Z</time>
      </trkpt>
      <trkpt lat="45.92693" lon="4.72865">
        <ele>169</ele>
        <time>2018-04-21T11:17:18Z</time>
      </trkpt>
      <trkpt lat="45.92688" lon="4.72869">
        <ele>169</ele>
        <time>2018-04-21T11:17:19Z</time>
      </trkpt>
      <trkpt lat="45.92684" lon="4.72873">
        <ele>169</ele>
        <time>2018-04-21T11:17:20Z</time>
      </trkpt>
      <trkpt lat="45.92679" lon="4.72877">
        <ele>170</ele>
        <time>2018-04-21T11:17:21Z</time>
      </trkpt>
      <trkpt lat="45.92674" lon="4.72881">
        <ele>170</ele>
        <time>2018-04-21T11:17:22Z</time>
      </trkpt>
      <trkpt lat="45.9267" lon="4.72884">
        <ele>170</ele>
        <time>2018-04-21T11:17:23Z</time>
      </trkpt>
      <trkpt lat="45.92665" lon="4.72888">
        <ele>169</ele>
        <time>2018-04-21T11:17:24Z</time>
      </trkpt>
      <trkpt lat="45.9266" lon="4.72892">
        <ele>169</ele>
        <time>2018-04-21T11:17:25Z</time>
      </trkpt>
      <trkpt lat="45.92655" lon="4.72896">
        <ele>170</ele>
        <time>2018-04-21T11:17:26Z</time>
      </trkpt>
      <trkpt lat="45.9265" lon="4.72901">
        <ele>170</ele>
        <time>2018-04-21T11:17:27Z</time>
      </trkpt>
      <trkpt lat="45.92645" lon="4.72906">
        <ele>170</ele>
        <time>2018-04-21T11:17:28Z</time>
      </trkpt>
      <trkpt lat="45.92641" lon="4.7291">
        <ele>169</ele>
        <time>2018-04-21T11:17:29Z</time>
      </trkpt>
      <trkpt lat="45.92635" lon="4.72915">
        <ele>169</ele>
        <time>2018-04-21T11:17:30Z</time>
      </trkpt>
      <trkpt lat="45.9263" lon="4.72919">
        <ele>170</ele>
        <time>2018-04-21T11:17:31Z</time>
      </trkpt>
      <trkpt lat="45.92624" lon="4.7292">
        <ele>169</ele>
        <time>2018-04-21T11:17:32Z</time>
      </trkpt>
      <trkpt lat="45.92619" lon="4.72926">
        <ele>169</ele>
        <time>2018-04-21T11:17:33Z</time>
      </trkpt>
      <trkpt lat="45.92614" lon="4.7293">
        <ele>169</ele>
        <time>2018-04-21T11:17:34Z</time>
      </trkpt>
      <trkpt lat="45.9261" lon="4.72937">
        <ele>169</ele>
        <time>2018-04-21T11:17:35Z</time>
      </trkpt>
      <trkpt lat="45.92605" lon="4.72942">
        <ele>169</ele>
        <time>2018-04-21T11:17:36Z</time>
      </trkpt>
      <trkpt lat="45.926" lon="4.72948">
        <ele>169</ele>
        <time>2018-04-21T11:17:37Z</time>
      </trkpt>
      <trkpt lat="45.92595" lon="4.72954">
        <ele>169</ele>
        <time>2018-04-21T11:17:38Z</time>
      </trkpt>
      <trkpt lat="45.9259" lon="4.72959">
        <ele>169</ele>
        <time>2018-04-21T11:17:39Z</time>
      </trkpt>
      <trkpt lat="45.92586" lon="4.72965">
        <ele>169</ele>
        <time>2018-04-21T11:17:40Z</time>
      </trkpt>
      <trkpt lat="45.9258" lon="4.7297">
        <ele>169</ele>
        <time>2018-04-21T11:17:41Z</time>
      </trkpt>
      <trkpt lat="45.92576" lon="4.72974">
        <ele>169</ele>
        <time>2018-04-21T11:17:42Z</time>
      </trkpt>
      <trkpt lat="45.92571" lon="4.7298">
        <ele>169</ele>
        <time>2018-04-21T11:17:43Z</time>
      </trkpt>
      <trkpt lat="45.92566" lon="4.72984">
        <ele>169</ele>
        <time>2018-04-21T11:17:44Z</time>
      </trkpt>
      <trkpt lat="45.92562" lon="4.72989">
        <ele>169</ele>
        <time>2018-04-21T11:17:45Z</time>
      </trkpt>
      <trkpt lat="45.92557" lon="4.72993">
        <ele>169</ele>
        <time>2018-04-21T11:17:46Z</time>
      </trkpt>
      <trkpt lat="45.92552" lon="4.72998">
        <ele>169</ele>
        <time>2018-04-21T11:17:47Z</time>
      </trkpt>
      <trkpt lat="45.92548" lon="4.73003">
        <ele>169</ele>
        <time>2018-04-21T11:17:48Z</time>
      </trkpt>
      <trkpt lat="45.92544" lon="4.73008">
        <ele>169</ele>
        <time>2018-04-21T11:17:49Z</time>
      </trkpt>
      <trkpt lat="45.92538" lon="4.73012">
        <ele>169</ele>
        <time>2018-04-21T11:17:50Z</time>
      </trkpt>
      <trkpt lat="45.92533" lon="4.73017">
        <ele>169</ele>
        <time>2018-04-21T11:17:51Z</time>
      </trkpt>
      <trkpt lat="45.92528" lon="4.73022">
        <ele>169</ele>
        <time>2018-04-21T11:17:52Z</time>
      </trkpt>
      <trkpt lat="45.92523" lon="4.73026">
        <ele>169</ele>
        <time>2018-04-21T11:17:53Z</time>
      </trkpt>
      <trkpt lat="45.92518" lon="4.73031">
        <ele>169</ele>
        <time>2018-04-21T11:17:54Z</time>
      </trkpt>
      <trkpt lat="45.92513" lon="4.73035">
        <ele>169</ele>
        <time>2018-04-21T11:17:55Z</time>
      </trkpt>
      <trkpt lat="45.92509" lon="4.73039">
        <ele>169</ele>
        <time>2018-04-21T11:17:56Z</time>
      </trkpt>
      <trkpt lat="45.92505" lon="4.73043">
        <ele>170</ele>
        <time>2018-04-21T11:17:57Z</time>
      </trkpt>
      <trkpt lat="45.925" lon="4.73047">
        <ele>170</ele>
        <time>2018-04-21T11:17:58Z</time>
      </trkpt>
      <trkpt lat="45.92495" lon="4.73049">
        <ele>170</ele>
        <time>2018-04-21T11:17:59Z</time>
      </trkpt>
      <trkpt lat="45.9249" lon="4.73053">
        <ele>170</ele>
        <time>2018-04-21T11:18:00Z</time>
      </trkpt>
      <trkpt lat="45.92485" lon="4.73056">
        <ele>170</ele>
        <time>2018-04-21T11:18:01Z</time>
      </trkpt>
      <trkpt lat="45.9248" lon="4.73061">
        <ele>170</ele>
        <time>2018-04-21T11:18:02Z</time>
      </trkpt>
      <trkpt lat="45.92474" lon="4.73066">
        <ele>170</ele>
        <time>2018-04-21T11:18:03Z</time>
      </trkpt>
      <trkpt lat="45.92469" lon="4.7307">
        <ele>170</ele>
        <time>2018-04-21T11:18:04Z</time>
      </trkpt>
      <trkpt lat="45.92464" lon="4.73076">
        <ele>170</ele>
        <time>2018-04-21T11:18:05Z</time>
      </trkpt>
      <trkpt lat="45.92459" lon="4.73081">
        <ele>170</ele>
        <time>2018-04-21T11:18:06Z</time>
      </trkpt>
      <trkpt lat="45.92454" lon="4.73085">
        <ele>170</ele>
        <time>2018-04-21T11:18:07Z</time>
      </trkpt>
      <trkpt lat="45.92448" lon="4.7309">
        <ele>170</ele>
        <time>2018-04-21T11:18:08Z</time>
      </trkpt>
      <trkpt lat="45.92443" lon="4.73094">
        <ele>170</ele>
        <time>2018-04-21T11:18:09Z</time>
      </trkpt>
      <trkpt lat="45.92438" lon="4.73098">
        <ele>170</ele>
        <time>2018-04-21T11:18:10Z</time>
      </trkpt>
      <trkpt lat="45.92433" lon="4.73103">
        <ele>170</ele>
        <time>2018-04-21T11:18:11Z</time>
      </trkpt>
      <trkpt lat="45.92427" lon="4.73107">
        <ele>170</ele>
        <time>2018-04-21T11:18:12Z</time>
      </trkpt>
      <trkpt lat="45.92422" lon="4.73111">
        <ele>170</ele>
        <time>2018-04-21T11:18:13Z</time>
      </trkpt>
      <trkpt lat="45.92417" lon="4.73115">
        <ele>170</ele>
        <time>2018-04-21T11:18:14Z</time>
      </trkpt>
      <trkpt lat="45.92413" lon="4.7312">
        <ele>171</ele>
        <time>2018-04-21T11:18:15Z</time>
      </trkpt>
      <trkpt lat="45.9241" lon="4.73128">
        <ele>171</ele>
        <time>2018-04-21T11:18:16Z</time>
      </trkpt>
      <trkpt lat="45.92408" lon="4.73137">
        <ele>171</ele>
        <time>2018-04-21T11:18:17Z</time>
      </trkpt>
      <trkpt lat="45.92408" lon="4.73146">
        <ele>171</ele>
        <time>2018-04-21T11:18:18Z</time>
      </trkpt>
      <trkpt lat="45.92408" lon="4.73155">
        <ele>170</ele>
        <time>2018-04-21T11:18:19Z</time>
      </trkpt>
      <trkpt lat="45.92408" lon="4.73165">
        <ele>170</ele>
        <time>2018-04-21T11:18:20Z</time>
      </trkpt>
      <trkpt lat="45.92408" lon="4.73174">
        <ele>170</ele>
        <time>2018-04-21T11:18:21Z</time>
      </trkpt>
      <trkpt lat="45.92409" lon="4.73182">
        <ele>171</ele>
        <time>2018-04-21T11:18:22Z</time>
      </trkpt>
      <trkpt lat="45.9241" lon="4.7319">
        <ele>171</ele>
        <time>2018-04-21T11:18:23Z</time>
      </trkpt>
      <trkpt lat="45.9241" lon="4.73198">
        <ele>171</ele>
        <time>2018-04-21T11:18:24Z</time>
      </trkpt>
      <trkpt lat="45.92411" lon="4.73204">
        <ele>171</ele>
        <time>2018-04-21T11:18:25Z</time>
      </trkpt>
      <trkpt lat="45.92412" lon="4.73211">
        <ele>171</ele>
        <time>2018-04-21T11:18:26Z</time>
      </trkpt>
      <trkpt lat="45.92412" lon="4.73219">
        <ele>171</ele>
        <time>2018-04-21T11:18:27Z</time>
      </trkpt>
      <trkpt lat="45.92412" lon="4.73227">
        <ele>171</ele>
        <time>2018-04-21T11:18:28Z</time>
      </trkpt>
      <trkpt lat="45.92412" lon="4.73237">
        <ele>171</ele>
        <time>2018-04-21T11:18:29Z</time>
      </trkpt>
      <trkpt lat="45.92413" lon="4.73245">
        <ele>171</ele>
        <time>2018-04-21T11:18:30Z</time>
      </trkpt>
      <trkpt lat="45.92414" lon="4.73252">
        <ele>171</ele>
        <time>2018-04-21T11:18:31Z</time>
      </trkpt>
      <trkpt lat="45.92414" lon="4.73259">
        <ele>171</ele>
        <time>2018-04-21T11:18:32Z</time>
      </trkpt>
      <trkpt lat="45.92414" lon="4.73266">
        <ele>171</ele>
        <time>2018-04-21T11:18:33Z</time>
      </trkpt>
      <trkpt lat="45.92415" lon="4.73274">
        <ele>171</ele>
        <time>2018-04-21T11:18:34Z</time>
      </trkpt>
      <trkpt lat="45.92415" lon="4.73284">
        <ele>171</ele>
        <time>2018-04-21T11:18:35Z</time>
      </trkpt>
      <trkpt lat="45.92416" lon="4.73291">
        <ele>171</ele>
        <time>2018-04-21T11:18:36Z</time>
      </trkpt>
      <trkpt lat="45.92415" lon="4.73299">
        <ele>171</ele>
        <time>2018-04-21T11:18:37Z</time>
      </trkpt>
      <trkpt lat="45.92417" lon="4.73307">
        <ele>171</ele>
        <time>2018-04-21T11:18:38Z</time>
      </trkpt>
      <trkpt lat="45.92417" lon="4.73315">
        <ele>171</ele>
        <time>2018-04-21T11:18:39Z</time>
      </trkpt>
      <trkpt lat="45.92417" lon="4.73323">
        <ele>171</ele>
        <time>2018-04-21T11:18:40Z</time>
      </trkpt>
      <trkpt lat="45.92418" lon="4.7333">
        <ele>171</ele>
        <time>2018-04-21T11:18:41Z</time>
      </trkpt>
      <trkpt lat="45.92419" lon="4.73339">
        <ele>171</ele>
        <time>2018-04-21T11:18:42Z</time>
      </trkpt>
      <trkpt lat="45.9242" lon="4.73347">
        <ele>171</ele>
        <time>2018-04-21T11:18:43Z</time>
      </trkpt>
      <trkpt lat="45.92421" lon="4.73355">
        <ele>171</ele>
        <time>2018-04-21T11:18:44Z</time>
      </trkpt>
      <trkpt lat="45.92423" lon="4.73363">
        <ele>172</ele>
        <time>2018-04-21T11:18:45Z</time>
      </trkpt>
      <trkpt lat="45.92424" lon="4.73372">
        <ele>172</ele>
        <time>2018-04-21T11:18:46Z</time>
      </trkpt>
      <trkpt lat="45.92425" lon="4.7338">
        <ele>172</ele>
        <time>2018-04-21T11:18:47Z</time>
      </trkpt>
      <trkpt lat="45.92427" lon="4.73387">
        <ele>172</ele>
        <time>2018-04-21T11:18:48Z</time>
      </trkpt>
      <trkpt lat="45.92429" lon="4.73396">
        <ele>172</ele>
        <time>2018-04-21T11:18:49Z</time>
      </trkpt>
      <trkpt lat="45.92431" lon="4.73404">
        <ele>172</ele>
        <time>2018-04-21T11:18:50Z</time>
      </trkpt>
      <trkpt lat="45.92434" lon="4.73411">
        <ele>172</ele>
        <time>2018-04-21T11:18:51Z</time>
      </trkpt>
      <trkpt lat="45.92438" lon="4.73417">
        <ele>173</ele>
        <time>2018-04-21T11:18:52Z</time>
      </trkpt>
      <trkpt lat="45.92442" lon="4.7342">
        <ele>173</ele>
        <time>2018-04-21T11:18:53Z</time>
      </trkpt>
      <trkpt lat="45.92447" lon="4.73423">
        <ele>173</ele>
        <time>2018-04-21T11:18:54Z</time>
      </trkpt>
      <trkpt lat="45.92452" lon="4.73427">
        <ele>173</ele>
        <time>2018-04-21T11:18:55Z</time>
      </trkpt>
      <trkpt lat="45.92456" lon="4.73431">
        <ele>173</ele>
        <time>2018-04-21T11:18:56Z</time>
      </trkpt>
      <trkpt lat="45.92461" lon="4.73436">
        <ele>173</ele>
        <time>2018-04-21T11:18:57Z</time>
      </trkpt>
      <trkpt lat="45.92464" lon="4.73442">
        <ele>173</ele>
        <time>2018-04-21T11:18:58Z</time>
      </trkpt>
      <trkpt lat="45.92467" lon="4.73448">
        <ele>173</ele>
        <time>2018-04-21T11:18:59Z</time>
      </trkpt>
      <trkpt lat="45.92469" lon="4.73456">
        <ele>173</ele>
        <time>2018-04-21T11:19:00Z</time>
      </trkpt>
      <trkpt lat="45.92471" lon="4.73464">
        <ele>173</ele>
        <time>2018-04-21T11:19:01Z</time>
      </trkpt>
      <trkpt lat="45.9247" lon="4.73473">
        <ele>173</ele>
        <time>2018-04-21T11:19:02Z</time>
      </trkpt>
      <trkpt lat="45.9247" lon="4.73481">
        <ele>173</ele>
        <time>2018-04-21T11:19:03Z</time>
      </trkpt>
      <trkpt lat="45.92471" lon="4.73489">
        <ele>173</ele>
        <time>2018-04-21T11:19:04Z</time>
      </trkpt>
      <trkpt lat="45.92471" lon="4.73498">
        <ele>173</ele>
        <time>2018-04-21T11:19:05Z</time>
      </trkpt>
      <trkpt lat="45.9247" lon="4.73506">
        <ele>174</ele>
        <time>2018-04-21T11:19:06Z</time>
      </trkpt>
      <trkpt lat="45.9247" lon="4.73514">
        <ele>174</ele>
        <time>2018-04-21T11:19:07Z</time>
      </trkpt>
      <trkpt lat="45.9247" lon="4.73524">
        <ele>174</ele>
        <time>2018-04-21T11:19:08Z</time>
      </trkpt>
      <trkpt lat="45.9247" lon="4.73532">
        <ele>174</ele>
        <time>2018-04-21T11:19:09Z</time>
      </trkpt>
      <trkpt lat="45.9247" lon="4.73539">
        <ele>174</ele>
        <time>2018-04-21T11:19:10Z</time>
      </trkpt>
      <trkpt lat="45.92469" lon="4.73548">
        <ele>173</ele>
        <time>2018-04-21T11:19:11Z</time>
      </trkpt>
      <trkpt lat="45.92469" lon="4.73555">
        <ele>173</ele>
        <time>2018-04-21T11:19:12Z</time>
      </trkpt>
      <trkpt lat="45.92469" lon="4.73565">
        <ele>173</ele>
        <time>2018-04-21T11:19:13Z</time>
      </trkpt>
      <trkpt lat="45.92469" lon="4.73573">
        <ele>173</ele>
        <time>2018-04-21T11:19:14Z</time>
      </trkpt>
      <trkpt lat="45.92468" lon="4.73582">
        <ele>173</ele>
        <time>2018-04-21T11:19:15Z</time>
      </trkpt>
      <trkpt lat="45.92468" lon="4.73591">
        <ele>174</ele>
        <time>2018-04-21T11:19:16Z</time>
      </trkpt>
      <trkpt lat="45.9247" lon="4.736">
        <ele>174</ele>
        <time>2018-04-21T11:19:17Z</time>
      </trkpt>
      <trkpt lat="45.9247" lon="4.73608">
        <ele>174</ele>
        <time>2018-04-21T11:19:18Z</time>
      </trkpt>
      <trkpt lat="45.92471" lon="4.73616">
        <ele>174</ele>
        <time>2018-04-21T11:19:19Z</time>
      </trkpt>
      <trkpt lat="45.92471" lon="4.73623">
        <ele>174</ele>
        <time>2018-04-21T11:19:20Z</time>
      </trkpt>
      <trkpt lat="45.9247" lon="4.73632">
        <ele>174</ele>
        <time>2018-04-21T11:19:21Z</time>
      </trkpt>
      <trkpt lat="45.9247" lon="4.73641">
        <ele>174</ele>
        <time>2018-04-21T11:19:22Z</time>
      </trkpt>
      <trkpt lat="45.92469" lon="4.73648">
        <ele>174</ele>
        <time>2018-04-21T11:19:23Z</time>
      </trkpt>
      <trkpt lat="45.9247" lon="4.73658">
        <ele>174</ele>
        <time>2018-04-21T11:19:24Z</time>
      </trkpt>
      <trkpt lat="45.9247" lon="4.73666">
        <ele>174</ele>
        <time>2018-04-21T11:19:25Z</time>
      </trkpt>
      <trkpt lat="45.9247" lon="4.73674">
        <ele>174</ele>
        <time>2018-04-21T11:19:26Z</time>
      </trkpt>
      <trkpt lat="45.92469" lon="4.7368">
        <ele>174</ele>
        <time>2018-04-21T11:19:27Z</time>
      </trkpt>
      <trkpt lat="45.92468" lon="4.73687">
        <ele>174</ele>
        <time>2018-04-21T11:19:28Z</time>
      </trkpt>
      <trkpt lat="45.92467" lon="4.73694">
        <ele>174</ele>
        <time>2018-04-21T11:19:29Z</time>
      </trkpt>
      <trkpt lat="45.92467" lon="4.73705">
        <ele>174</ele>
        <time>2018-04-21T11:19:31Z</time>
      </trkpt>
      <trkpt lat="45.92467" lon="4.73707">
        <ele>174</ele>
        <time>2018-04-21T11:19:32Z</time>
      </trkpt>
      <trkpt lat="45.92459" lon="4.7371">
        <ele>174</ele>
        <time>2018-04-21T11:20:15.602Z</time>
      </trkpt>
    </trkseg>
  </trk>
</gpx>